<?xml version='1.0' encoding='UTF-8'?><gpx version="1.1" creator="JPX - https://github.com/jenetics/jpx" xmlns="http://www.topografix.com/GPX/1/1"><trk><trkseg><trkpt lat="39.2978329061397" lon="9.097687595934321"><ele>48.99999999999999</ele><time>2026-04-03T06:52:44Z</time></trkpt><trkpt lat="39.297754838755836" lon="9.097734278661706"><ele>49.0</ele><time>2026-04-03T06:52:46Z</time></trkpt><trkpt lat="39.29777022063906" lon="9.097610263698206"><ele>49.0</ele><time>2026-04-03T06:52:48Z</time></trkpt><trkpt lat="39.29778847993649" lon="9.097690272482733"><ele>49.0</ele><time>2026-04-03T06:52:57Z</time></trkpt><trkpt lat="39.29780355934072" lon="9.097774697190758"><ele>48.99999999999999</ele><time>2026-04-03T06:53:02.999Z</time></trkpt><trkpt lat="39.29772961378551" lon="9.097709682732159"><ele>49.0</ele><time>2026-04-03T07:00:29.001Z</time></trkpt><trkpt lat="39.29766742724287" lon="9.097790851827522"><ele>49.0</ele><time>2026-04-03T07:00:30.001Z</time></trkpt><trkpt lat="39.29759234508068" lon="9.097890643927334"><ele>49.0</ele><time>2026-04-03T07:00:31.001Z</time></trkpt><trkpt lat="39.29750752901237" lon="9.097987358353613"><ele>49.0</ele><time>2026-04-03T07:00:32.001Z</time></trkpt><trkpt lat="39.29742388620298" lon="9.09809211956259"><ele>49.0</ele><time>2026-04-03T07:00:33.001Z</time></trkpt><trkpt lat="39.297333624983196" lon="9.098189834468663"><ele>48.6</ele><time>2026-04-03T07:00:34.001Z</time></trkpt><trkpt lat="39.297247626450606" lon="9.098298988681922"><ele>48.2</ele><time>2026-04-03T07:00:35.001Z</time></trkpt><trkpt lat="39.29716895329113" lon="9.098386648056211"><ele>47.800000000000004</ele><time>2026-04-03T07:00:36.001Z</time></trkpt><trkpt lat="39.29708844361871" lon="9.098460315362788"><ele>47.400000000000006</ele><time>2026-04-03T07:00:37.001Z</time></trkpt><trkpt lat="39.29701422268919" lon="9.098528305786955"><ele>47.0</ele><time>2026-04-03T07:00:38.001Z</time></trkpt><trkpt lat="39.29694482472854" lon="9.098603210888756"><ele>47.0</ele><time>2026-04-03T07:00:39.001Z</time></trkpt><trkpt lat="39.29687936490948" lon="9.098683326366057"><ele>47.0</ele><time>2026-04-03T07:00:40.001Z</time></trkpt><trkpt lat="39.29681635146469" lon="9.098758300797048"><ele>47.0</ele><time>2026-04-03T07:00:41.001Z</time></trkpt><trkpt lat="39.296748310251346" lon="9.098825006839565"><ele>47.0</ele><time>2026-04-03T07:00:42.001Z</time></trkpt><trkpt lat="39.29668140334928" lon="9.09889087784796"><ele>47.0</ele><time>2026-04-03T07:00:43.001Z</time></trkpt><trkpt lat="39.29662152190081" lon="9.098949126076954"><ele>47.0</ele><time>2026-04-03T07:00:44.001Z</time></trkpt><trkpt lat="39.296559501076665" lon="9.098988828916733"><ele>47.0</ele><time>2026-04-03T07:00:45.001Z</time></trkpt><trkpt lat="39.29646545734357" lon="9.09895774440451"><ele>47.0</ele><time>2026-04-03T07:00:47.001Z</time></trkpt><trkpt lat="39.29639886582052" lon="9.098874850384615"><ele>47.0</ele><time>2026-04-03T07:00:48.001Z</time></trkpt><trkpt lat="39.2963524144285" lon="9.098800089476935"><ele>47.0</ele><time>2026-04-03T07:00:49.001Z</time></trkpt><trkpt lat="39.29627629207989" lon="9.098727846970071"><ele>47.0</ele><time>2026-04-03T07:00:50.001Z</time></trkpt><trkpt lat="39.29620821076909" lon="9.098645936540755"><ele>46.8</ele><time>2026-04-03T07:00:51.001Z</time></trkpt><trkpt lat="39.29613624962138" lon="9.098569216290409"><ele>46.6</ele><time>2026-04-03T07:00:52.001Z</time></trkpt><trkpt lat="39.296067905871794" lon="9.098491291923999"><ele>46.4</ele><time>2026-04-03T07:00:53.001Z</time></trkpt><trkpt lat="39.29600144290535" lon="9.098410847962091"><ele>46.199999999999996</ele><time>2026-04-03T07:00:54.001Z</time></trkpt><trkpt lat="39.29593447744653" lon="9.098330441234884"><ele>46.0</ele><time>2026-04-03T07:00:55.001Z</time></trkpt><trkpt lat="39.29586877207619" lon="9.098259798136517"><ele>46.0</ele><time>2026-04-03T07:00:56.001Z</time></trkpt><trkpt lat="39.29581060526522" lon="9.098195645352574"><ele>46.0</ele><time>2026-04-03T07:00:57.001Z</time></trkpt><trkpt lat="39.295765183368026" lon="9.098128731430988"><ele>46.0</ele><time>2026-04-03T07:00:58.001Z</time></trkpt><trkpt lat="39.29571973752882" lon="9.098066236515505"><ele>46.0</ele><time>2026-04-03T07:00:59.001Z</time></trkpt><trkpt lat="39.29563367697711" lon="9.097953777385781"><ele>46.0</ele><time>2026-04-03T07:01:01.001Z</time></trkpt><trkpt lat="39.2955834216683" lon="9.097901549894864"><ele>46.0</ele><time>2026-04-03T07:01:02.001Z</time></trkpt><trkpt lat="39.29553487812489" lon="9.097843674120949"><ele>46.0</ele><time>2026-04-03T07:01:03.001Z</time></trkpt><trkpt lat="39.29548906497761" lon="9.097784587031507"><ele>46.0</ele><time>2026-04-03T07:01:04.001Z</time></trkpt><trkpt lat="39.2954332874864" lon="9.097730687482642"><ele>46.0</ele><time>2026-04-03T07:01:05.001Z</time></trkpt><trkpt lat="39.295374312030994" lon="9.097669499989113"><ele>46.0</ele><time>2026-04-03T07:01:06.001Z</time></trkpt><trkpt lat="39.295316280334156" lon="9.097598120581132"><ele>46.0</ele><time>2026-04-03T07:01:07.001Z</time></trkpt><trkpt lat="39.29526348837962" lon="9.097517366805976"><ele>46.0</ele><time>2026-04-03T07:01:08.001Z</time></trkpt><trkpt lat="39.29519985436232" lon="9.09743576084654"><ele>46.0</ele><time>2026-04-03T07:01:09.001Z</time></trkpt><trkpt lat="39.295129297066005" lon="9.097366192925257"><ele>46.0</ele><time>2026-04-03T07:01:10.001Z</time></trkpt><trkpt lat="39.295065047089196" lon="9.09729881321941"><ele>46.0</ele><time>2026-04-03T07:01:11.001Z</time></trkpt><trkpt lat="39.29500642759685" lon="9.09723450407862"><ele>46.0</ele><time>2026-04-03T07:01:12.001Z</time></trkpt><trkpt lat="39.294963181452" lon="9.09716611765336"><ele>46.0</ele><time>2026-04-03T07:01:13.001Z</time></trkpt><trkpt lat="39.29488265721512" lon="9.097055188461008"><ele>46.0</ele><time>2026-04-03T07:01:15.001Z</time></trkpt><trkpt lat="39.2947831754651" lon="9.096950219549257"><ele>46.0</ele><time>2026-04-03T07:01:17.001Z</time></trkpt><trkpt lat="39.294721174637104" lon="9.096883792348141"><ele>46.0</ele><time>2026-04-03T07:01:18.001Z</time></trkpt><trkpt lat="39.2946621986473" lon="9.096804360223235"><ele>46.0</ele><time>2026-04-03T07:01:19.001Z</time></trkpt><trkpt lat="39.294612055629436" lon="9.096733101705219"><ele>46.0</ele><time>2026-04-03T07:01:20.001Z</time></trkpt><trkpt lat="39.29457356118274" lon="9.09665930090893"><ele>46.0</ele><time>2026-04-03T07:01:21.001Z</time></trkpt><trkpt lat="39.29453084286964" lon="9.096596806041497"><ele>46.0</ele><time>2026-04-03T07:01:22.001Z</time></trkpt><trkpt lat="39.29447984409089" lon="9.096543403250498"><ele>46.0</ele><time>2026-04-03T07:01:23.001Z</time></trkpt><trkpt lat="39.29443815495063" lon="9.096479873191464"><ele>46.0</ele><time>2026-04-03T07:01:24.001Z</time></trkpt><trkpt lat="39.29439051842792" lon="9.096416482013469"><ele>46.0</ele><time>2026-04-03T07:01:25.001Z</time></trkpt><trkpt lat="39.29435773974404" lon="9.096335814546068"><ele>46.0</ele><time>2026-04-03T07:01:26.001Z</time></trkpt><trkpt lat="39.294312460584145" lon="9.09626740775065"><ele>46.0</ele><time>2026-04-03T07:01:27Z</time></trkpt><trkpt lat="39.2942682693307" lon="9.09620064453369"><ele>46.0</ele><time>2026-04-03T07:01:28Z</time></trkpt><trkpt lat="39.29422157144251" lon="9.096143189204085"><ele>46.0</ele><time>2026-04-03T07:01:29Z</time></trkpt><trkpt lat="39.294172365610464" lon="9.096083274442417"><ele>46.0</ele><time>2026-04-03T07:01:30Z</time></trkpt><trkpt lat="39.294136784295674" lon="9.096009460038752"><ele>46.0</ele><time>2026-04-03T07:01:31Z</time></trkpt><trkpt lat="39.29407091234201" lon="9.095884524190431"><ele>46.0</ele><time>2026-04-03T07:01:33Z</time></trkpt><trkpt lat="39.2940133708275" lon="9.095794160163475"><ele>46.0</ele><time>2026-04-03T07:01:35Z</time></trkpt><trkpt lat="39.293938074167066" lon="9.09566918641471"><ele>46.0</ele><time>2026-04-03T07:01:37Z</time></trkpt><trkpt lat="39.293879472295494" lon="9.09554830746437"><ele>46.0</ele><time>2026-04-03T07:01:39Z</time></trkpt><trkpt lat="39.293812497355155" lon="9.095440816350495"><ele>45.199999999999996</ele><time>2026-04-03T07:01:41Z</time></trkpt><trkpt lat="39.29377216764068" lon="9.095312892157574"><ele>44.4</ele><time>2026-04-03T07:01:43Z</time></trkpt><trkpt lat="39.29373226229849" lon="9.0952167871118"><ele>43.6</ele><time>2026-04-03T07:01:46Z</time></trkpt><trkpt lat="39.293619566149545" lon="9.09525799891416"><ele>42.8</ele><time>2026-04-03T07:01:47Z</time></trkpt><trkpt lat="39.2935116359726" lon="9.095274017541923"><ele>42.0</ele><time>2026-04-03T07:01:49Z</time></trkpt><trkpt lat="39.2934464777394" lon="9.095266435448158"><ele>42.0</ele><time>2026-04-03T07:01:50Z</time></trkpt><trkpt lat="39.29337283817362" lon="9.095276153260984"><ele>42.0</ele><time>2026-04-03T07:01:51Z</time></trkpt><trkpt lat="39.293309801261444" lon="9.095321215502866"><ele>42.0</ele><time>2026-04-03T07:01:52Z</time></trkpt><trkpt lat="39.293203769126386" lon="9.095358529972025"><ele>42.0</ele><time>2026-04-03T07:01:54Z</time></trkpt><trkpt lat="39.29308174620009" lon="9.095386058771355"><ele>42.0</ele><time>2026-04-03T07:01:56Z</time></trkpt><trkpt lat="39.29301412110678" lon="9.095404348395379"><ele>42.0</ele><time>2026-04-03T07:01:57Z</time></trkpt><trkpt lat="39.29294303916813" lon="9.095424393799227"><ele>42.0</ele><time>2026-04-03T07:01:58Z</time></trkpt><trkpt lat="39.2928768393103" lon="9.095444457979571"><ele>42.0</ele><time>2026-04-03T07:01:59Z</time></trkpt><trkpt lat="39.2927545003953" lon="9.095475396091096"><ele>42.0</ele><time>2026-04-03T07:02:01Z</time></trkpt><trkpt lat="39.29264309883773" lon="9.095495484097604"><ele>42.0</ele><time>2026-04-03T07:02:03Z</time></trkpt><trkpt lat="39.29254301274285" lon="9.095510834750904"><ele>42.0</ele><time>2026-04-03T07:02:05Z</time></trkpt><trkpt lat="39.29243215665113" lon="9.095531916923253"><ele>42.0</ele><time>2026-04-03T07:02:07Z</time></trkpt><trkpt lat="39.29233007870999" lon="9.095558978931233"><ele>42.0</ele><time>2026-04-03T07:02:09Z</time></trkpt><trkpt lat="39.29224540680452" lon="9.095581832638848"><ele>42.0</ele><time>2026-04-03T07:02:11Z</time></trkpt><trkpt lat="39.2921703082294" lon="9.095605545374548"><ele>42.0</ele><time>2026-04-03T07:02:13Z</time></trkpt><trkpt lat="39.292104045294884" lon="9.09562402458194"><ele>42.0</ele><time>2026-04-03T07:02:15Z</time></trkpt><trkpt lat="39.29203274855319" lon="9.09564886508785"><ele>42.0</ele><time>2026-04-03T07:02:17Z</time></trkpt><trkpt lat="39.29194932132071" lon="9.095670413090652"><ele>42.2</ele><time>2026-04-03T07:02:19Z</time></trkpt><trkpt lat="39.29186855866923" lon="9.095686628970826"><ele>42.400000000000006</ele><time>2026-04-03T07:02:21Z</time></trkpt><trkpt lat="39.29178478889303" lon="9.095703816260775"><ele>42.599999999999994</ele><time>2026-04-03T07:02:23Z</time></trkpt><trkpt lat="39.29165470458044" lon="9.095734474681192"><ele>42.8</ele><time>2026-04-03T07:02:26Z</time></trkpt><trkpt lat="39.29157350146592" lon="9.095755020310971"><ele>43.0</ele><time>2026-04-03T07:02:28Z</time></trkpt><trkpt lat="39.29146546564245" lon="9.095777165492775"><ele>43.5</ele><time>2026-04-03T07:02:30Z</time></trkpt><trkpt lat="39.291031945037844" lon="9.09587685268802"><ele>44.0</ele><time>2026-04-03T07:02:36Z</time></trkpt><trkpt lat="39.29094788936184" lon="9.09589514950873"><ele>44.0</ele><time>2026-04-03T07:02:37Z</time></trkpt><trkpt lat="39.290861317091505" lon="9.095911343124584"><ele>44.0</ele><time>2026-04-03T07:02:38Z</time></trkpt><trkpt lat="39.29078255206108" lon="9.095927877671366"><ele>44.0</ele><time>2026-04-03T07:02:39Z</time></trkpt><trkpt lat="39.2907000436326" lon="9.095937102294638"><ele>44.0</ele><time>2026-04-03T07:02:40Z</time></trkpt><trkpt lat="39.290617833906126" lon="9.095950883544482"><ele>44.0</ele><time>2026-04-03T07:02:41Z</time></trkpt><trkpt lat="39.29054032226779" lon="9.095969096787469"><ele>44.0</ele><time>2026-04-03T07:02:42Z</time></trkpt><trkpt lat="39.29031951925941" lon="9.09601208749795"><ele>44.0</ele><time>2026-04-03T07:02:45Z</time></trkpt><trkpt lat="39.29023654081686" lon="9.09601050872709"><ele>44.0</ele><time>2026-04-03T07:02:46Z</time></trkpt><trkpt lat="39.290149600003765" lon="9.096022547651406"><ele>44.0</ele><time>2026-04-03T07:02:47Z</time></trkpt><trkpt lat="39.290056743516175" lon="9.096031941861662"><ele>44.0</ele><time>2026-04-03T07:02:48Z</time></trkpt><trkpt lat="39.289963224428895" lon="9.096047554710344"><ele>44.0</ele><time>2026-04-03T07:02:49Z</time></trkpt><trkpt lat="39.28986840732835" lon="9.096069881446674"><ele>44.0</ele><time>2026-04-03T07:02:50Z</time></trkpt><trkpt lat="39.28976817682549" lon="9.096088978165408"><ele>44.0</ele><time>2026-04-03T07:02:51Z</time></trkpt><trkpt lat="39.28966359631711" lon="9.096104227555005"><ele>44.0</ele><time>2026-04-03T07:02:52Z</time></trkpt><trkpt lat="39.289554983441924" lon="9.096120550767742"><ele>44.0</ele><time>2026-04-03T07:02:53Z</time></trkpt><trkpt lat="39.2894445424679" lon="9.096137694112564"><ele>44.0</ele><time>2026-04-03T07:02:54Z</time></trkpt><trkpt lat="39.2893329722518" lon="9.096156712387794"><ele>44.25</ele><time>2026-04-03T07:02:55Z</time></trkpt><trkpt lat="39.28922071815772" lon="9.096180636952019"><ele>44.5</ele><time>2026-04-03T07:02:56Z</time></trkpt><trkpt lat="39.289106675673054" lon="9.096209327742397"><ele>44.75</ele><time>2026-04-03T07:02:57Z</time></trkpt><trkpt lat="39.28899257504723" lon="9.096243847347939"><ele>45.0</ele><time>2026-04-03T07:02:58Z</time></trkpt><trkpt lat="39.288874536978895" lon="9.096281910024079"><ele>47.0</ele><time>2026-04-03T07:02:59Z</time></trkpt><trkpt lat="39.28875485444169" lon="9.096327148630067"><ele>49.0</ele><time>2026-04-03T07:03:00Z</time></trkpt><trkpt lat="39.288639651805255" lon="9.096377344049241"><ele>51.0</ele><time>2026-04-03T07:03:01Z</time></trkpt><trkpt lat="39.288531331567995" lon="9.096417634944745"><ele>53.0</ele><time>2026-04-03T07:03:02Z</time></trkpt><trkpt lat="39.2884341940136" lon="9.096463680377827"><ele>53.0</ele><time>2026-04-03T07:03:03Z</time></trkpt><trkpt lat="39.28833713081876" lon="9.096509801072434"><ele>53.0</ele><time>2026-04-03T07:03:04Z</time></trkpt><trkpt lat="39.28823760880894" lon="9.096557592769845"><ele>53.0</ele><time>2026-04-03T07:03:05Z</time></trkpt><trkpt lat="39.28813715459719" lon="9.096604211151643"><ele>53.0</ele><time>2026-04-03T07:03:06Z</time></trkpt><trkpt lat="39.28803340737288" lon="9.096655655527336"><ele>53.0</ele><time>2026-04-03T07:03:07Z</time></trkpt><trkpt lat="39.28792388287083" lon="9.096713319541568"><ele>54.25</ele><time>2026-04-03T07:03:08Z</time></trkpt><trkpt lat="39.28781458815771" lon="9.096772113240585"><ele>55.5</ele><time>2026-04-03T07:03:09Z</time></trkpt><trkpt lat="39.28770451253835" lon="9.096838502911611"><ele>56.75</ele><time>2026-04-03T07:03:10Z</time></trkpt><trkpt lat="39.28759048320586" lon="9.09690884673381"><ele>58.0</ele><time>2026-04-03T07:03:11Z</time></trkpt><trkpt lat="39.28748003042601" lon="9.09698678482782"><ele>58.0</ele><time>2026-04-03T07:03:12.001Z</time></trkpt><trkpt lat="39.28736820487698" lon="9.097064901074358"><ele>58.0</ele><time>2026-04-03T07:03:13.001Z</time></trkpt><trkpt lat="39.287248526914865" lon="9.097135373873067"><ele>58.0</ele><time>2026-04-03T07:03:14.001Z</time></trkpt><trkpt lat="39.287123185693076" lon="9.097193968971661"><ele>58.0</ele><time>2026-04-03T07:03:15.001Z</time></trkpt><trkpt lat="39.28698944156985" lon="9.09724588307378"><ele>57.0</ele><time>2026-04-03T07:03:16.001Z</time></trkpt><trkpt lat="39.28684996998279" lon="9.09729454101532"><ele>56.0</ele><time>2026-04-03T07:03:17.001Z</time></trkpt><trkpt lat="39.28670321987196" lon="9.097337362615095"><ele>55.0</ele><time>2026-04-03T07:03:18.001Z</time></trkpt><trkpt lat="39.28655420615649" lon="9.097376413100221"><ele>54.0</ele><time>2026-04-03T07:03:19.001Z</time></trkpt><trkpt lat="39.28640511459283" lon="9.097415323633845"><ele>51.0</ele><time>2026-04-03T07:03:20.001Z</time></trkpt><trkpt lat="39.28625378312916" lon="9.097452411028495"><ele>48.0</ele><time>2026-04-03T07:03:21.001Z</time></trkpt><trkpt lat="39.28610047186239" lon="9.097487648084101"><ele>45.0</ele><time>2026-04-03T07:03:22.001Z</time></trkpt><trkpt lat="39.2859462371452" lon="9.0975279672955"><ele>45.0</ele><time>2026-04-03T07:03:23.001Z</time></trkpt><trkpt lat="39.28578991685989" lon="9.097579342241785"><ele>45.0</ele><time>2026-04-03T07:03:24.001Z</time></trkpt><trkpt lat="39.285636947071154" lon="9.09765383355877"><ele>45.0</ele><time>2026-04-03T07:03:25.001Z</time></trkpt><trkpt lat="39.285490998094566" lon="9.097754543605753"><ele>44.666666666666664</ele><time>2026-04-03T07:03:26.001Z</time></trkpt><trkpt lat="39.28535518222759" lon="9.097878743876333"><ele>44.33333333333333</ele><time>2026-04-03T07:03:27.001Z</time></trkpt><trkpt lat="39.28523025462282" lon="9.098013590197246"><ele>44.0</ele><time>2026-04-03T07:03:28.001Z</time></trkpt><trkpt lat="39.2851139745711" lon="9.098142947348563"><ele>43.0</ele><time>2026-04-03T07:03:29.001Z</time></trkpt><trkpt lat="39.28500066579283" lon="9.098265833656933"><ele>42.0</ele><time>2026-04-03T07:03:30.001Z</time></trkpt><trkpt lat="39.284890937315815" lon="9.098381496175817"><ele>41.0</ele><time>2026-04-03T07:03:31.001Z</time></trkpt><trkpt lat="39.284783170897065" lon="9.098494044044966"><ele>40.0</ele><time>2026-04-03T07:03:32.001Z</time></trkpt><trkpt lat="39.284673728424615" lon="9.098596588184524"><ele>40.0</ele><time>2026-04-03T07:03:32.996Z</time></trkpt><trkpt lat="39.28456476104783" lon="9.098696793547841"><ele>40.0</ele><time>2026-04-03T07:03:33.996Z</time></trkpt><trkpt lat="39.284435470772245" lon="9.098781907355582"><ele>40.0</ele><time>2026-04-03T07:03:34.996Z</time></trkpt><trkpt lat="39.28433060817579" lon="9.098914718195793"><ele>40.0</ele><time>2026-04-03T07:03:35.996Z</time></trkpt><trkpt lat="39.2842196892914" lon="9.099044343141042"><ele>40.0</ele><time>2026-04-03T07:03:36.996Z</time></trkpt><trkpt lat="39.284115722186336" lon="9.099188706208164"><ele>40.0</ele><time>2026-04-03T07:03:37.997Z</time></trkpt><trkpt lat="39.2840172137903" lon="9.099357208601665"><ele>40.0</ele><time>2026-04-03T07:03:38.997Z</time></trkpt><trkpt lat="39.28392385352546" lon="9.099546068145353"><ele>39.333333333333336</ele><time>2026-04-03T07:03:39.997Z</time></trkpt><trkpt lat="39.28382200908504" lon="9.099736959937317"><ele>38.666666666666664</ele><time>2026-04-03T07:03:40.997Z</time></trkpt><trkpt lat="39.283710647262076" lon="9.099910374002455"><ele>38.0</ele><time>2026-04-03T07:03:41.997Z</time></trkpt><trkpt lat="39.28358621063438" lon="9.100072768533192"><ele>37.0</ele><time>2026-04-03T07:03:42.997Z</time></trkpt><trkpt lat="39.283445272042286" lon="9.100228566289852"><ele>36.0</ele><time>2026-04-03T07:03:43.997Z</time></trkpt><trkpt lat="39.283285709731054" lon="9.10036657302521"><ele>35.0</ele><time>2026-04-03T07:03:44.997Z</time></trkpt><trkpt lat="39.28312965422998" lon="9.100489510642179"><ele>35.0</ele><time>2026-04-03T07:03:45.997Z</time></trkpt><trkpt lat="39.28297901177403" lon="9.100606043983872"><ele>35.0</ele><time>2026-04-03T07:03:46.997Z</time></trkpt><trkpt lat="39.282829234625574" lon="9.100714781132403"><ele>35.0</ele><time>2026-04-03T07:03:47.997Z</time></trkpt><trkpt lat="39.28267810866898" lon="9.100825352372928"><ele>34.666666666666664</ele><time>2026-04-03T07:03:48.997Z</time></trkpt><trkpt lat="39.28252910797287" lon="9.10093810492592"><ele>34.333333333333336</ele><time>2026-04-03T07:03:49.997Z</time></trkpt><trkpt lat="39.28238030270559" lon="9.101049264510058"><ele>34.0</ele><time>2026-04-03T07:03:50.997Z</time></trkpt><trkpt lat="39.282232567543176" lon="9.101164272774373"><ele>32.66666666666667</ele><time>2026-04-03T07:03:51.998Z</time></trkpt><trkpt lat="39.28208386667044" lon="9.101279964283371"><ele>31.333333333333336</ele><time>2026-04-03T07:03:52.998Z</time></trkpt><trkpt lat="39.281935339718075" lon="9.101396057602019"><ele>30.0</ele><time>2026-04-03T07:03:53.998Z</time></trkpt><trkpt lat="39.281794548100116" lon="9.101505595457931"><ele>30.0</ele><time>2026-04-03T07:03:54.998Z</time></trkpt><trkpt lat="39.28165950568013" lon="9.10160415790619"><ele>30.0</ele><time>2026-04-03T07:03:55.998Z</time></trkpt><trkpt lat="39.281528955821535" lon="9.101699674206564"><ele>30.0</ele><time>2026-04-03T07:03:56.998Z</time></trkpt><trkpt lat="39.281400451966086" lon="9.10180017665199"><ele>29.333333333333336</ele><time>2026-04-03T07:03:57.998Z</time></trkpt><trkpt lat="39.28127008518785" lon="9.101900235808971"><ele>28.666666666666668</ele><time>2026-04-03T07:03:58.998Z</time></trkpt><trkpt lat="39.28114076488891" lon="9.102003948630982"><ele>28.0</ele><time>2026-04-03T07:03:59.998Z</time></trkpt><trkpt lat="39.28101102114512" lon="9.102110513457616"><ele>28.0</ele><time>2026-04-03T07:04:00.998Z</time></trkpt><trkpt lat="39.280881963819986" lon="9.102223256322475"><ele>28.0</ele><time>2026-04-03T07:04:01.998Z</time></trkpt><trkpt lat="39.28075530631323" lon="9.102339828400948"><ele>28.0</ele><time>2026-04-03T07:04:02.998Z</time></trkpt><trkpt lat="39.28062515702254" lon="9.102460231468548"><ele>27.666666666666668</ele><time>2026-04-03T07:04:03.998Z</time></trkpt><trkpt lat="39.28049635381264" lon="9.102581849397259"><ele>27.333333333333336</ele><time>2026-04-03T07:04:04.998Z</time></trkpt><trkpt lat="39.28036895543814" lon="9.10270169165045"><ele>27.0</ele><time>2026-04-03T07:04:05.998Z</time></trkpt><trkpt lat="39.28024446791798" lon="9.102821808609619"><ele>27.0</ele><time>2026-04-03T07:04:06.998Z</time></trkpt><trkpt lat="39.280123187422824" lon="9.10294419893445"><ele>27.0</ele><time>2026-04-03T07:04:07.998Z</time></trkpt><trkpt lat="39.28000592018832" lon="9.10306911085171"><ele>27.0</ele><time>2026-04-03T07:04:08.998Z</time></trkpt><trkpt lat="39.279893394090735" lon="9.10319763272895"><ele>27.25</ele><time>2026-04-03T07:04:09.998Z</time></trkpt><trkpt lat="39.2797834686872" lon="9.103320222405154"><ele>27.5</ele><time>2026-04-03T07:04:10.998Z</time></trkpt><trkpt lat="39.27967587013908" lon="9.10343207138949"><ele>27.75</ele><time>2026-04-03T07:04:11.999Z</time></trkpt><trkpt lat="39.27956804884313" lon="9.103529834389402"><ele>28.0</ele><time>2026-04-03T07:04:12.999Z</time></trkpt><trkpt lat="39.279472070530495" lon="9.103628677818133"><ele>27.5</ele><time>2026-04-03T07:04:13.999Z</time></trkpt><trkpt lat="39.27937823063142" lon="9.103727504224986"><ele>27.0</ele><time>2026-04-03T07:04:14.999Z</time></trkpt><trkpt lat="39.279284314169324" lon="9.103831313589456"><ele>26.5</ele><time>2026-04-03T07:04:15.999Z</time></trkpt><trkpt lat="39.27918614929099" lon="9.103936832856693"><ele>26.0</ele><time>2026-04-03T07:04:16.999Z</time></trkpt><trkpt lat="39.27908575139401" lon="9.104043412183213"><ele>25.5</ele><time>2026-04-03T07:04:17.999Z</time></trkpt><trkpt lat="39.27898402503161" lon="9.10414608430517"><ele>25.0</ele><time>2026-04-03T07:04:18.999Z</time></trkpt><trkpt lat="39.27888261294306" lon="9.104251221317337"><ele>24.5</ele><time>2026-04-03T07:04:19.999Z</time></trkpt><trkpt lat="39.27878166967793" lon="9.104359743582632"><ele>24.0</ele><time>2026-04-03T07:04:20.999Z</time></trkpt><trkpt lat="39.27868207414314" lon="9.104471089616263"><ele>23.75</ele><time>2026-04-03T07:04:21.999Z</time></trkpt><trkpt lat="39.27858344539502" lon="9.104585146608345"><ele>23.5</ele><time>2026-04-03T07:04:22.999Z</time></trkpt><trkpt lat="39.278489646318754" lon="9.104702518557056"><ele>23.25</ele><time>2026-04-03T07:04:23.999Z</time></trkpt><trkpt lat="39.27840532495804" lon="9.104826563930029"><ele>23.0</ele><time>2026-04-03T07:04:24.999Z</time></trkpt><trkpt lat="39.27832601690834" lon="9.10495905994691"><ele>23.0</ele><time>2026-04-03T07:04:25.999Z</time></trkpt><trkpt lat="39.27825347569596" lon="9.10508906252383"><ele>23.0</ele><time>2026-04-03T07:04:26.999Z</time></trkpt><trkpt lat="39.27819829493777" lon="9.10519724597204"><ele>23.0</ele><time>2026-04-03T07:04:27.999Z</time></trkpt><trkpt lat="39.27814634801901" lon="9.105301509974277"><ele>23.0</ele><time>2026-04-03T07:04:28.999Z</time></trkpt><trkpt lat="39.27809285385743" lon="9.105402486842804"><ele>23.0</ele><time>2026-04-03T07:04:29.999Z</time></trkpt><trkpt lat="39.27803942614512" lon="9.105508329591022"><ele>22.75</ele><time>2026-04-03T07:04:30.999Z</time></trkpt><trkpt lat="39.277980983954215" lon="9.105613293432013"><ele>22.5</ele><time>2026-04-03T07:04:31.999Z</time></trkpt><trkpt lat="39.277914876934524" lon="9.105736027938105"><ele>22.25</ele><time>2026-04-03T07:04:32.999Z</time></trkpt><trkpt lat="39.27784610474201" lon="9.1058707332489"><ele>22.0</ele><time>2026-04-03T07:04:33.999Z</time></trkpt><trkpt lat="39.277768215925086" lon="9.106008555638038"><ele>22.5</ele><time>2026-04-03T07:04:34.999Z</time></trkpt><trkpt lat="39.27768377797135" lon="9.106160954584663"><ele>23.0</ele><time>2026-04-03T07:04:35.999Z</time></trkpt><trkpt lat="39.277606564424836" lon="9.106311816198355"><ele>23.5</ele><time>2026-04-03T07:04:36.999Z</time></trkpt><trkpt lat="39.27752383856151" lon="9.10646838801173"><ele>24.0</ele><time>2026-04-03T07:04:37.999Z</time></trkpt><trkpt lat="39.27744852557511" lon="9.106615830064404"><ele>24.25</ele><time>2026-04-03T07:04:38.999Z</time></trkpt><trkpt lat="39.277386880652784" lon="9.106770067353413"><ele>24.5</ele><time>2026-04-03T07:04:39.999Z</time></trkpt><trkpt lat="39.27731849112507" lon="9.106936680697627"><ele>24.75</ele><time>2026-04-03T07:04:40.999Z</time></trkpt><trkpt lat="39.27724439723309" lon="9.107110436218194"><ele>25.0</ele><time>2026-04-03T07:04:41.999Z</time></trkpt><trkpt lat="39.2771374117164" lon="9.107524580090246"><ele>26.5</ele><time>2026-04-03T07:04:43.999Z</time></trkpt><trkpt lat="39.27704915043148" lon="9.107924504367256"><ele>28.0</ele><time>2026-04-03T07:04:45.999Z</time></trkpt><trkpt lat="39.27696047799509" lon="9.108298784752069"><ele>29.0</ele><time>2026-04-03T07:04:47.999Z</time></trkpt><trkpt lat="39.27692121095478" lon="9.108472357211625"><ele>30.0</ele><time>2026-04-03T07:04:48.999Z</time></trkpt><trkpt lat="39.276884899500274" lon="9.108632194215637"><ele>31.0</ele><time>2026-04-03T07:04:49.999Z</time></trkpt><trkpt lat="39.27684729290059" lon="9.108773158809539"><ele>32.0</ele><time>2026-04-03T07:04:50.999Z</time></trkpt><trkpt lat="39.27681504697197" lon="9.108915043255692"><ele>32.0</ele><time>2026-04-03T07:04:51.999Z</time></trkpt><trkpt lat="39.2767832251408" lon="9.109048079236238"><ele>32.0</ele><time>2026-04-03T07:04:52.999Z</time></trkpt><trkpt lat="39.276753183337426" lon="9.109191226057165"><ele>32.0</ele><time>2026-04-03T07:04:53.999Z</time></trkpt><trkpt lat="39.276731144977134" lon="9.109342817957542"><ele>32.0</ele><time>2026-04-03T07:04:54.999Z</time></trkpt><trkpt lat="39.27671834410617" lon="9.109501879822215"><ele>33.25</ele><time>2026-04-03T07:04:55.999Z</time></trkpt><trkpt lat="39.276713655553344" lon="9.109664578885786"><ele>34.5</ele><time>2026-04-03T07:04:56.999Z</time></trkpt><trkpt lat="39.27671173189239" lon="9.10983386608566"><ele>35.75</ele><time>2026-04-03T07:04:57.999Z</time></trkpt><trkpt lat="39.276705572835574" lon="9.110020449116709"><ele>37.0</ele><time>2026-04-03T07:04:58.999Z</time></trkpt><trkpt lat="39.2766927891035" lon="9.110217569270016"><ele>38.0</ele><time>2026-04-03T07:04:59.999Z</time></trkpt><trkpt lat="39.27666893268849" lon="9.110423801071521"><ele>39.0</ele><time>2026-04-03T07:05:00.999Z</time></trkpt><trkpt lat="39.27663135375368" lon="9.11063796273049"><ele>40.0</ele><time>2026-04-03T07:05:01.999Z</time></trkpt><trkpt lat="39.276584588739794" lon="9.110853087906674"><ele>40.25</ele><time>2026-04-03T07:05:02.999Z</time></trkpt><trkpt lat="39.276490716576895" lon="9.111019178410837"><ele>40.5</ele><time>2026-04-03T07:05:03.999Z</time></trkpt><trkpt lat="39.27639694747167" lon="9.111166318715098"><ele>40.75</ele><time>2026-04-03T07:05:05Z</time></trkpt><trkpt lat="39.27630370325302" lon="9.111301028456415"><ele>41.0</ele><time>2026-04-03T07:05:07Z</time></trkpt><trkpt lat="39.27620379385231" lon="9.111458414128476"><ele>39.666666666666664</ele><time>2026-04-03T07:05:08Z</time></trkpt><trkpt lat="39.27608737558649" lon="9.111606786353898"><ele>38.333333333333336</ele><time>2026-04-03T07:05:09Z</time></trkpt><trkpt lat="39.27597687829822" lon="9.111763505298805"><ele>37.0</ele><time>2026-04-03T07:05:10Z</time></trkpt><trkpt lat="39.27586664203983" lon="9.1119269784684"><ele>37.0</ele><time>2026-04-03T07:05:11Z</time></trkpt><trkpt lat="39.27576057524559" lon="9.112095052250496"><ele>37.0</ele><time>2026-04-03T07:05:12Z</time></trkpt><trkpt lat="39.27567227632156" lon="9.112277834978126"><ele>37.0</ele><time>2026-04-03T07:05:13Z</time></trkpt><trkpt lat="39.27559354800313" lon="9.112469663803024"><ele>37.333333333333336</ele><time>2026-04-03T07:05:14Z</time></trkpt><trkpt lat="39.2755273238268" lon="9.112673442788772"><ele>37.666666666666664</ele><time>2026-04-03T07:05:15Z</time></trkpt><trkpt lat="39.275467374253004" lon="9.112874100811577"><ele>38.0</ele><time>2026-04-03T07:05:16Z</time></trkpt><trkpt lat="39.275416022462984" lon="9.113082358985828"><ele>40.0</ele><time>2026-04-03T07:05:17Z</time></trkpt><trkpt lat="39.27536775815601" lon="9.11328289726882"><ele>42.0</ele><time>2026-04-03T07:05:18Z</time></trkpt><trkpt lat="39.2753183059748" lon="9.11348246853045"><ele>44.0</ele><time>2026-04-03T07:05:19Z</time></trkpt><trkpt lat="39.2752650379906" lon="9.113681778893158"><ele>44.0</ele><time>2026-04-03T07:05:20Z</time></trkpt><trkpt lat="39.27521588845171" lon="9.113878473672772"><ele>44.0</ele><time>2026-04-03T07:05:21Z</time></trkpt><trkpt lat="39.27516631813367" lon="9.114073940171217"><ele>44.0</ele><time>2026-04-03T07:05:22Z</time></trkpt><trkpt lat="39.2751198654148" lon="9.114256216301483"><ele>44.33333333333333</ele><time>2026-04-03T07:05:23Z</time></trkpt><trkpt lat="39.275066145844306" lon="9.114454791540266"><ele>44.666666666666664</ele><time>2026-04-03T07:05:24Z</time></trkpt><trkpt lat="39.27500965530488" lon="9.11464753025209"><ele>45.0</ele><time>2026-04-03T07:05:25Z</time></trkpt><trkpt lat="39.27493968799132" lon="9.114838259763362"><ele>45.333333333333336</ele><time>2026-04-03T07:05:26Z</time></trkpt><trkpt lat="39.27484427187902" lon="9.115008160917183"><ele>45.66666666666667</ele><time>2026-04-03T07:05:27Z</time></trkpt><trkpt lat="39.274710284609625" lon="9.115132070085048"><ele>46.0</ele><time>2026-04-03T07:05:28Z</time></trkpt><trkpt lat="39.274546669089204" lon="9.115206040833339"><ele>46.333333333333336</ele><time>2026-04-03T07:05:29Z</time></trkpt><trkpt lat="39.27440047772179" lon="9.115295975442798"><ele>46.666666666666664</ele><time>2026-04-03T07:05:30Z</time></trkpt><trkpt lat="39.27425727810747" lon="9.115379132183024"><ele>47.0</ele><time>2026-04-03T07:05:31Z</time></trkpt><trkpt lat="39.2741207918051" lon="9.115552468656889"><ele>47.0</ele><time>2026-04-03T07:05:32Z</time></trkpt><trkpt lat="39.27397442621957" lon="9.11566726518442"><ele>47.0</ele><time>2026-04-03T07:05:33Z</time></trkpt><trkpt lat="39.273825805979556" lon="9.115785611211797"><ele>47.0</ele><time>2026-04-03T07:05:34Z</time></trkpt><trkpt lat="39.27368617397185" lon="9.115911049247934"><ele>46.33333333333333</ele><time>2026-04-03T07:05:35Z</time></trkpt><trkpt lat="39.27355666297545" lon="9.116066817180059"><ele>45.666666666666664</ele><time>2026-04-03T07:05:36Z</time></trkpt><trkpt lat="39.27344358553235" lon="9.116246843945405"><ele>45.0</ele><time>2026-04-03T07:05:37Z</time></trkpt><trkpt lat="39.273331671564684" lon="9.116429036433948"><ele>44.666666666666664</ele><time>2026-04-03T07:05:38Z</time></trkpt><trkpt lat="39.27323104864015" lon="9.11660444103527"><ele>44.33333333333333</ele><time>2026-04-03T07:05:38.996Z</time></trkpt><trkpt lat="39.273140451965645" lon="9.116795153245803"><ele>44.0</ele><time>2026-04-03T07:05:39.996Z</time></trkpt><trkpt lat="39.273040535028045" lon="9.116985012608016"><ele>44.0</ele><time>2026-04-03T07:05:40.996Z</time></trkpt><trkpt lat="39.272935077851535" lon="9.117160814645876"><ele>44.0</ele><time>2026-04-03T07:05:41.996Z</time></trkpt><trkpt lat="39.27282942147074" lon="9.117332652577735"><ele>44.0</ele><time>2026-04-03T07:05:42.996Z</time></trkpt><trkpt lat="39.27272484771818" lon="9.11753577138115"><ele>44.0</ele><time>2026-04-03T07:05:43.996Z</time></trkpt><trkpt lat="39.27261659988376" lon="9.117719880585438"><ele>44.0</ele><time>2026-04-03T07:05:44.996Z</time></trkpt><trkpt lat="39.27252634230289" lon="9.11792066186716"><ele>44.0</ele><time>2026-04-03T07:05:45.996Z</time></trkpt><trkpt lat="39.27243980857902" lon="9.118133076084991"><ele>43.33333333333333</ele><time>2026-04-03T07:05:46.996Z</time></trkpt><trkpt lat="39.27235108131648" lon="9.11834195469174"><ele>42.666666666666664</ele><time>2026-04-03T07:05:47.996Z</time></trkpt><trkpt lat="39.272254240152776" lon="9.11855104423117"><ele>42.0</ele><time>2026-04-03T07:05:48.996Z</time></trkpt><trkpt lat="39.27214347733626" lon="9.118742214406263"><ele>42.0</ele><time>2026-04-03T07:05:49.997Z</time></trkpt><trkpt lat="39.272016396821286" lon="9.118910914375888"><ele>42.0</ele><time>2026-04-03T07:05:50.997Z</time></trkpt><trkpt lat="39.27187895221943" lon="9.119076402063543"><ele>42.0</ele><time>2026-04-03T07:05:51.997Z</time></trkpt><trkpt lat="39.27174320634287" lon="9.119247807448549"><ele>41.333333333333336</ele><time>2026-04-03T07:05:52.997Z</time></trkpt><trkpt lat="39.271601422474745" lon="9.11941005336785"><ele>40.66666666666667</ele><time>2026-04-03T07:05:53.997Z</time></trkpt><trkpt lat="39.27145497646523" lon="9.11956048961085"><ele>40.0</ele><time>2026-04-03T07:05:54.997Z</time></trkpt><trkpt lat="39.271304939572396" lon="9.119691979974524"><ele>40.0</ele><time>2026-04-03T07:05:55.997Z</time></trkpt><trkpt lat="39.27114862201172" lon="9.119822303393944"><ele>40.0</ele><time>2026-04-03T07:05:56.997Z</time></trkpt><trkpt lat="39.2709973342532" lon="9.119956615029153"><ele>40.0</ele><time>2026-04-03T07:05:57.997Z</time></trkpt><trkpt lat="39.270845643583165" lon="9.12009280404739"><ele>40.0</ele><time>2026-04-03T07:05:58.998Z</time></trkpt><trkpt lat="39.27069681332436" lon="9.120225787595938"><ele>40.0</ele><time>2026-04-03T07:05:59.998Z</time></trkpt><trkpt lat="39.270550429966335" lon="9.120359022667506"><ele>40.0</ele><time>2026-04-03T07:06:00.998Z</time></trkpt><trkpt lat="39.27040380792813" lon="9.120487705027445"><ele>39.333333333333336</ele><time>2026-04-03T07:06:01.998Z</time></trkpt><trkpt lat="39.270256746363785" lon="9.120616845829062"><ele>38.666666666666664</ele><time>2026-04-03T07:06:02.998Z</time></trkpt><trkpt lat="39.270112771784405" lon="9.120745203440308"><ele>38.0</ele><time>2026-04-03T07:06:03.998Z</time></trkpt><trkpt lat="39.26996508967815" lon="9.120870944989788"><ele>38.33333333333333</ele><time>2026-04-03T07:06:04.998Z</time></trkpt><trkpt lat="39.269812519648205" lon="9.120998478345912"><ele>38.666666666666664</ele><time>2026-04-03T07:06:05.998Z</time></trkpt><trkpt lat="39.269655197029294" lon="9.121119691473453"><ele>39.0</ele><time>2026-04-03T07:06:06.998Z</time></trkpt><trkpt lat="39.269505028294304" lon="9.121234728342774"><ele>39.0</ele><time>2026-04-03T07:06:07.998Z</time></trkpt><trkpt lat="39.26936489867883" lon="9.121341259246911"><ele>39.0</ele><time>2026-04-03T07:06:08.998Z</time></trkpt><trkpt lat="39.269228809462234" lon="9.121450980496041"><ele>39.0</ele><time>2026-04-03T07:06:09.998Z</time></trkpt><trkpt lat="39.2690986068066" lon="9.121559620461444"><ele>38.75</ele><time>2026-04-03T07:06:10.998Z</time></trkpt><trkpt lat="39.26897883269479" lon="9.121664711555562"><ele>38.5</ele><time>2026-04-03T07:06:11.998Z</time></trkpt><trkpt lat="39.26886600031979" lon="9.12175783898018"><ele>38.25</ele><time>2026-04-03T07:06:12.999Z</time></trkpt><trkpt lat="39.26875219113472" lon="9.121818140589813"><ele>38.0</ele><time>2026-04-03T07:06:13.999Z</time></trkpt><trkpt lat="39.26863886634652" lon="9.121850461822035"><ele>37.25</ele><time>2026-04-03T07:06:14.999Z</time></trkpt><trkpt lat="39.26854551974914" lon="9.121903591532627"><ele>36.5</ele><time>2026-04-03T07:06:15.999Z</time></trkpt><trkpt lat="39.268474987005305" lon="9.122006710582074"><ele>35.75</ele><time>2026-04-03T07:06:16.999Z</time></trkpt><trkpt lat="39.268413134869476" lon="9.122141797427002"><ele>35.0</ele><time>2026-04-03T07:06:17.999Z</time></trkpt><trkpt lat="39.268333575907405" lon="9.122257497656792"><ele>35.0</ele><time>2026-04-03T07:06:18.999Z</time></trkpt><trkpt lat="39.268236742748556" lon="9.122349688370827"><ele>35.0</ele><time>2026-04-03T07:06:19.999Z</time></trkpt><trkpt lat="39.26814352495947" lon="9.122427610595121"><ele>35.0</ele><time>2026-04-03T07:06:20.999Z</time></trkpt><trkpt lat="39.2680646639955" lon="9.122500164686047"><ele>35.0</ele><time>2026-04-03T07:06:21.999Z</time></trkpt><trkpt lat="39.267997510465506" lon="9.122569782985428"><ele>35.0</ele><time>2026-04-03T07:06:22.999Z</time></trkpt><trkpt lat="39.26794238078978" lon="9.122640931668375"><ele>34.8</ele><time>2026-04-03T07:06:23.999Z</time></trkpt><trkpt lat="39.26788232509547" lon="9.122723380557433"><ele>34.6</ele><time>2026-04-03T07:06:24.999Z</time></trkpt><trkpt lat="39.26781849205274" lon="9.122813688023403"><ele>34.4</ele><time>2026-04-03T07:06:25.999Z</time></trkpt><trkpt lat="39.26775643007905" lon="9.122902410404722"><ele>34.2</ele><time>2026-04-03T07:06:26.999Z</time></trkpt><trkpt lat="39.2676989099237" lon="9.122991038191675"><ele>34.0</ele><time>2026-04-03T07:06:27.999Z</time></trkpt><trkpt lat="39.26764421705216" lon="9.123086870497263"><ele>34.0</ele><time>2026-04-03T07:06:28.999Z</time></trkpt><trkpt lat="39.26758950283839" lon="9.123190492603655"><ele>34.0</ele><time>2026-04-03T07:06:29.999Z</time></trkpt><trkpt lat="39.26754014402723" lon="9.123303852868787"><ele>34.0</ele><time>2026-04-03T07:06:30.999Z</time></trkpt><trkpt lat="39.267493827695375" lon="9.123427627996175"><ele>34.0</ele><time>2026-04-03T07:06:31.999Z</time></trkpt><trkpt lat="39.267449611452214" lon="9.123563077437645"><ele>34.0</ele><time>2026-04-03T07:06:32.999Z</time></trkpt><trkpt lat="39.26741166077586" lon="9.12370689735028"><ele>33.8</ele><time>2026-04-03T07:06:33.999Z</time></trkpt><trkpt lat="39.267380880036676" lon="9.12384663855592"><ele>33.599999999999994</ele><time>2026-04-03T07:06:34.999Z</time></trkpt><trkpt lat="39.26735190797891" lon="9.123980824992623"><ele>33.4</ele><time>2026-04-03T07:06:35.999Z</time></trkpt><trkpt lat="39.267316073413966" lon="9.124115358142953"><ele>33.199999999999996</ele><time>2026-04-03T07:06:36.999Z</time></trkpt><trkpt lat="39.26728873552083" lon="9.124251405315816"><ele>33.0</ele><time>2026-04-03T07:06:37.999Z</time></trkpt><trkpt lat="39.26726512937936" lon="9.124391415480943"><ele>33.0</ele><time>2026-04-03T07:06:39Z</time></trkpt><trkpt lat="39.26724187936281" lon="9.12453107608343"><ele>33.0</ele><time>2026-04-03T07:06:40Z</time></trkpt><trkpt lat="39.26721744010666" lon="9.124670527589778"><ele>33.0</ele><time>2026-04-03T07:06:41Z</time></trkpt><trkpt lat="39.267191813845784" lon="9.124809474303362"><ele>33.0</ele><time>2026-04-03T07:06:42Z</time></trkpt><trkpt lat="39.26716370413394" lon="9.124948976985195"><ele>33.0</ele><time>2026-04-03T07:06:43Z</time></trkpt><trkpt lat="39.267131638736835" lon="9.12508550158853"><ele>32.6</ele><time>2026-04-03T07:06:44Z</time></trkpt><trkpt lat="39.26709251275087" lon="9.125220569184505"><ele>32.199999999999996</ele><time>2026-04-03T07:06:45Z</time></trkpt><trkpt lat="39.26705055411257" lon="9.12535595306075"><ele>31.8</ele><time>2026-04-03T07:06:46Z</time></trkpt><trkpt lat="39.26700318902192" lon="9.125487256623702"><ele>31.4</ele><time>2026-04-03T07:06:47Z</time></trkpt><trkpt lat="39.266949318680425" lon="9.125613897883682"><ele>31.0</ele><time>2026-04-03T07:06:48Z</time></trkpt><trkpt lat="39.26690256018642" lon="9.125745593928979"><ele>31.0</ele><time>2026-04-03T07:06:49Z</time></trkpt><trkpt lat="39.26684196165619" lon="9.125870390322962"><ele>31.0</ele><time>2026-04-03T07:06:50Z</time></trkpt><trkpt lat="39.26677077060293" lon="9.12599666769414"><ele>31.0</ele><time>2026-04-03T07:06:51Z</time></trkpt><trkpt lat="39.266690798890224" lon="9.126117257495206"><ele>31.0</ele><time>2026-04-03T07:06:52Z</time></trkpt><trkpt lat="39.26660743231911" lon="9.126235468246971"><ele>31.0</ele><time>2026-04-03T07:06:53Z</time></trkpt><trkpt lat="39.26651741506372" lon="9.126344115340343"><ele>31.0</ele><time>2026-04-03T07:06:54Z</time></trkpt><trkpt lat="39.2664315359773" lon="9.126442877859862"><ele>31.0</ele><time>2026-04-03T07:06:55Z</time></trkpt><trkpt lat="39.26635506280499" lon="9.126530207586889"><ele>31.0</ele><time>2026-04-03T07:06:56Z</time></trkpt><trkpt lat="39.26628642498816" lon="9.126612626551504"><ele>31.0</ele><time>2026-04-03T07:06:57Z</time></trkpt><trkpt lat="39.26622017598621" lon="9.126691786719363"><ele>29.8</ele><time>2026-04-03T07:06:58Z</time></trkpt><trkpt lat="39.26614583016782" lon="9.126775460035267"><ele>28.6</ele><time>2026-04-03T07:06:59Z</time></trkpt><trkpt lat="39.26606818367473" lon="9.126864364106192"><ele>27.4</ele><time>2026-04-03T07:07:00Z</time></trkpt><trkpt lat="39.265983475268165" lon="9.126952470661667"><ele>26.2</ele><time>2026-04-03T07:07:01Z</time></trkpt><trkpt lat="39.2658915639768" lon="9.127044894722752"><ele>25.0</ele><time>2026-04-03T07:07:02Z</time></trkpt><trkpt lat="39.2657963865257" lon="9.127147326739596"><ele>25.0</ele><time>2026-04-03T07:07:03Z</time></trkpt><trkpt lat="39.2656994698172" lon="9.127251076737162"><ele>25.0</ele><time>2026-04-03T07:07:04Z</time></trkpt><trkpt lat="39.26560187689882" lon="9.127353414081924"><ele>25.0</ele><time>2026-04-03T07:07:05Z</time></trkpt><trkpt lat="39.26550891067872" lon="9.127452867896578"><ele>25.0</ele><time>2026-04-03T07:07:06Z</time></trkpt><trkpt lat="39.26541552332767" lon="9.127549317343563"><ele>24.8</ele><time>2026-04-03T07:07:07Z</time></trkpt><trkpt lat="39.265322932053216" lon="9.127646327030888"><ele>24.6</ele><time>2026-04-03T07:07:08Z</time></trkpt><trkpt lat="39.265241028777986" lon="9.12774417587207"><ele>24.4</ele><time>2026-04-03T07:07:09Z</time></trkpt><trkpt lat="39.26516875921828" lon="9.127827021595426"><ele>24.2</ele><time>2026-04-03T07:07:10Z</time></trkpt><trkpt lat="39.26510255225206" lon="9.127888088270298"><ele>24.0</ele><time>2026-04-03T07:07:11Z</time></trkpt><trkpt lat="39.26503217823731" lon="9.127938566148973"><ele>24.0</ele><time>2026-04-03T07:07:12Z</time></trkpt><trkpt lat="39.26494304249943" lon="9.127967746810231"><ele>24.0</ele><time>2026-04-03T07:07:13Z</time></trkpt><trkpt lat="39.26485712702698" lon="9.12792045871601"><ele>24.0</ele><time>2026-04-03T07:07:14Z</time></trkpt><trkpt lat="39.2647738406942" lon="9.127850631643602"><ele>24.0</ele><time>2026-04-03T07:07:15Z</time></trkpt><trkpt lat="39.26470286033465" lon="9.12775570105245"><ele>24.0</ele><time>2026-04-03T07:07:16.001Z</time></trkpt><trkpt lat="39.264657125826" lon="9.127629001580637"><ele>24.75</ele><time>2026-04-03T07:07:17.001Z</time></trkpt><trkpt lat="39.26464315442202" lon="9.127483972983562"><ele>25.5</ele><time>2026-04-03T07:07:18.001Z</time></trkpt><trkpt lat="39.26467658840033" lon="9.12733875224437"><ele>26.25</ele><time>2026-04-03T07:07:19.001Z</time></trkpt><trkpt lat="39.26474264632376" lon="9.127217163794908"><ele>27.0</ele><time>2026-04-03T07:07:20.001Z</time></trkpt><trkpt lat="39.26484343619242" lon="9.12713698618657"><ele>27.5</ele><time>2026-04-03T07:07:21.001Z</time></trkpt><trkpt lat="39.26495481981525" lon="9.127099100777295"><ele>28.0</ele><time>2026-04-03T07:07:22.001Z</time></trkpt><trkpt lat="39.26507035838082" lon="9.12710638859491"><ele>28.5</ele><time>2026-04-03T07:07:23.001Z</time></trkpt><trkpt lat="39.265177176462224" lon="9.127168420157304"><ele>29.0</ele><time>2026-04-03T07:07:24.001Z</time></trkpt><trkpt lat="39.26526503138745" lon="9.127266377789852"><ele>27.75</ele><time>2026-04-03T07:07:25.001Z</time></trkpt><trkpt lat="39.26531482398785" lon="9.127412198940215"><ele>26.5</ele><time>2026-04-03T07:07:26.001Z</time></trkpt><trkpt lat="39.26532932810378" lon="9.127577865155576"><ele>25.25</ele><time>2026-04-03T07:07:27.001Z</time></trkpt><trkpt lat="39.265331713831415" lon="9.12774384267692"><ele>24.0</ele><time>2026-04-03T07:07:28.001Z</time></trkpt><trkpt lat="39.265349447720794" lon="9.127872205494965"><ele>24.0</ele><time>2026-04-03T07:07:29.001Z</time></trkpt><trkpt lat="39.265377790925264" lon="9.128041520369594"><ele>24.0</ele><time>2026-04-03T07:07:30.001Z</time></trkpt><trkpt lat="39.265405431875436" lon="9.128268903848218"><ele>24.0</ele><time>2026-04-03T07:07:31.001Z</time></trkpt><trkpt lat="39.26543375112667" lon="9.128453148814195"><ele>23.75</ele><time>2026-04-03T07:07:32.001Z</time></trkpt><trkpt lat="39.265454394043324" lon="9.128617056047482"><ele>23.5</ele><time>2026-04-03T07:07:33.001Z</time></trkpt><trkpt lat="39.265473962352964" lon="9.12877394757947"><ele>23.25</ele><time>2026-04-03T07:07:34.001Z</time></trkpt><trkpt lat="39.26549057975227" lon="9.128938276370038"><ele>23.0</ele><time>2026-04-03T07:07:35.001Z</time></trkpt><trkpt lat="39.26550770259209" lon="9.129113467927152"><ele>22.75</ele><time>2026-04-03T07:07:36.001Z</time></trkpt><trkpt lat="39.265528550228446" lon="9.129294237479485"><ele>22.5</ele><time>2026-04-03T07:07:37.001Z</time></trkpt><trkpt lat="39.265554944097126" lon="9.129484475034964"><ele>22.25</ele><time>2026-04-03T07:07:38.001Z</time></trkpt><trkpt lat="39.26557168533033" lon="9.129679307418876"><ele>22.0</ele><time>2026-04-03T07:07:39.001Z</time></trkpt><trkpt lat="39.265585512648826" lon="9.129883429219026"><ele>21.333333333333332</ele><time>2026-04-03T07:07:40.001Z</time></trkpt><trkpt lat="39.26560331025116" lon="9.130084206643858"><ele>20.666666666666668</ele><time>2026-04-03T07:07:41.001Z</time></trkpt><trkpt lat="39.26562293664261" lon="9.130292757573217"><ele>20.0</ele><time>2026-04-03T07:07:42.001Z</time></trkpt><trkpt lat="39.265649217004146" lon="9.130503205292928"><ele>19.666666666666668</ele><time>2026-04-03T07:07:43.001Z</time></trkpt><trkpt lat="39.26567191659511" lon="9.130725315049162"><ele>19.333333333333332</ele><time>2026-04-03T07:07:44.001Z</time></trkpt><trkpt lat="39.26569946121421" lon="9.130962536365205"><ele>19.0</ele><time>2026-04-03T07:07:45Z</time></trkpt><trkpt lat="39.265724066689714" lon="9.131219501602827"><ele>19.0</ele><time>2026-04-03T07:07:46Z</time></trkpt><trkpt lat="39.26575428290041" lon="9.131499305804446"><ele>19.0</ele><time>2026-04-03T07:07:47Z</time></trkpt><trkpt lat="39.26578897341764" lon="9.131806657922452"><ele>19.0</ele><time>2026-04-03T07:07:48Z</time></trkpt><trkpt lat="39.26583289211739" lon="9.13213324841556"><ele>19.0</ele><time>2026-04-03T07:07:49Z</time></trkpt><trkpt lat="39.26588194872226" lon="9.132489860116847"><ele>19.0</ele><time>2026-04-03T07:07:50Z</time></trkpt><trkpt lat="39.265911675808596" lon="9.132840614572398"><ele>19.0</ele><time>2026-04-03T07:07:51Z</time></trkpt><trkpt lat="39.26592881813781" lon="9.133139205818953"><ele>19.0</ele><time>2026-04-03T07:07:52Z</time></trkpt><trkpt lat="39.26594991567654" lon="9.133422746832146"><ele>19.0</ele><time>2026-04-03T07:07:53Z</time></trkpt><trkpt lat="39.26597922326484" lon="9.133670313989981"><ele>19.0</ele><time>2026-04-03T07:07:54Z</time></trkpt><trkpt lat="39.2659952295358" lon="9.133880732225064"><ele>18.333333333333332</ele><time>2026-04-03T07:07:55Z</time></trkpt><trkpt lat="39.266009984165315" lon="9.134086579431525"><ele>17.666666666666668</ele><time>2026-04-03T07:07:56Z</time></trkpt><trkpt lat="39.26602664119622" lon="9.134283712368012"><ele>17.0</ele><time>2026-04-03T07:07:57Z</time></trkpt><trkpt lat="39.26604448121051" lon="9.134484377944753"><ele>17.0</ele><time>2026-04-03T07:07:58Z</time></trkpt><trkpt lat="39.266067054233616" lon="9.134687109328869"><ele>17.0</ele><time>2026-04-03T07:07:59Z</time></trkpt><trkpt lat="39.266084460662576" lon="9.134891348466658"><ele>17.0</ele><time>2026-04-03T07:08:00Z</time></trkpt><trkpt lat="39.2661028657422" lon="9.135091616133636"><ele>17.0</ele><time>2026-04-03T07:08:01Z</time></trkpt><trkpt lat="39.266120472761074" lon="9.135280751944112"><ele>17.0</ele><time>2026-04-03T07:08:02Z</time></trkpt><trkpt lat="39.266133432371205" lon="9.135463338502642"><ele>17.0</ele><time>2026-04-03T07:08:03Z</time></trkpt><trkpt lat="39.26614329281208" lon="9.135641689393232"><ele>17.0</ele><time>2026-04-03T07:08:04Z</time></trkpt><trkpt lat="39.266150463364866" lon="9.135810537086378"><ele>16.8</ele><time>2026-04-03T07:08:05Z</time></trkpt><trkpt lat="39.266170419803665" lon="9.13596486426894"><ele>16.6</ele><time>2026-04-03T07:08:06Z</time></trkpt><trkpt lat="39.266184406328726" lon="9.136104185521644"><ele>16.400000000000002</ele><time>2026-04-03T07:08:07Z</time></trkpt><trkpt lat="39.26619789423567" lon="9.13623854008412"><ele>16.2</ele><time>2026-04-03T07:08:08Z</time></trkpt><trkpt lat="39.26621060017673" lon="9.136365105181545"><ele>16.0</ele><time>2026-04-03T07:08:09Z</time></trkpt><trkpt lat="39.26622268203473" lon="9.136485741946991"><ele>15.833333333333332</ele><time>2026-04-03T07:08:10Z</time></trkpt><trkpt lat="39.26623374320752" lon="9.136597269232965"><ele>15.666666666666666</ele><time>2026-04-03T07:08:11Z</time></trkpt><trkpt lat="39.266244514399055" lon="9.136704987852005"><ele>15.5</ele><time>2026-04-03T07:08:12Z</time></trkpt><trkpt lat="39.26625335157493" lon="9.136793285224936"><ele>15.333333333333332</ele><time>2026-04-03T07:08:13Z</time></trkpt><trkpt lat="39.266262418506834" lon="9.13691279832427"><ele>15.166666666666666</ele><time>2026-04-03T07:08:15Z</time></trkpt><trkpt lat="39.26627446207748" lon="9.13702149912693"><ele>15.0</ele><time>2026-04-03T07:08:18Z</time></trkpt><trkpt lat="39.266288508371076" lon="9.137107480267499"><ele>15.0</ele><time>2026-04-03T07:08:21Z</time></trkpt><trkpt lat="39.26630058922646" lon="9.137187948805975"><ele>15.0</ele><time>2026-04-03T07:08:25.001Z</time></trkpt><trkpt lat="39.26630726602647" lon="9.137338636179177"><ele>15.0</ele><time>2026-04-03T07:08:33.001Z</time></trkpt><trkpt lat="39.266315265939184" lon="9.13742258512136"><ele>15.0</ele><time>2026-04-03T07:08:34.001Z</time></trkpt><trkpt lat="39.26632524993397" lon="9.13752316144833"><ele>15.0</ele><time>2026-04-03T07:08:35.001Z</time></trkpt><trkpt lat="39.266335882988656" lon="9.13762927708512"><ele>15.0</ele><time>2026-04-03T07:08:36.001Z</time></trkpt><trkpt lat="39.266346926992995" lon="9.137739749140863"><ele>15.166666666666666</ele><time>2026-04-03T07:08:37.001Z</time></trkpt><trkpt lat="39.2663418046694" lon="9.137850325556114"><ele>15.333333333333332</ele><time>2026-04-03T07:08:38.001Z</time></trkpt><trkpt lat="39.26636498656332" lon="9.137961081452698"><ele>15.5</ele><time>2026-04-03T07:08:39.001Z</time></trkpt><trkpt lat="39.26638275186835" lon="9.138064345555703"><ele>15.666666666666666</ele><time>2026-04-03T07:08:40.001Z</time></trkpt><trkpt lat="39.26640368395498" lon="9.13815093365667"><ele>15.833333333333332</ele><time>2026-04-03T07:08:41.001Z</time></trkpt><trkpt lat="39.26644483224265" lon="9.138226632132458"><ele>16.0</ele><time>2026-04-03T07:08:42.001Z</time></trkpt><trkpt lat="39.26648815420645" lon="9.138291611316081"><ele>15.999999999999998</ele><time>2026-04-03T07:08:43.001Z</time></trkpt><trkpt lat="39.26651151785192" lon="9.138380284346605"><ele>16.0</ele><time>2026-04-03T07:08:45.001Z</time></trkpt><trkpt lat="39.26652024164409" lon="9.138469052709747"><ele>16.0</ele><time>2026-04-03T07:08:48.001Z</time></trkpt><trkpt lat="39.26645004891521" lon="9.138456578112708"><ele>16.0</ele><time>2026-04-03T07:08:51.001Z</time></trkpt><trkpt lat="39.26638645865925" lon="9.138580903506272"><ele>15.999999999999998</ele><time>2026-04-03T07:10:01.001Z</time></trkpt><trkpt lat="39.26643741041463" lon="9.13865165954206"><ele>16.0</ele><time>2026-04-03T07:10:02.001Z</time></trkpt><trkpt lat="39.26629046128806" lon="9.1386941495273"><ele>16.0</ele><time>2026-04-03T07:10:03.001Z</time></trkpt><trkpt lat="39.266206369698764" lon="9.138761178595981"><ele>16.0</ele><time>2026-04-03T07:10:05.001Z</time></trkpt><trkpt lat="39.26634700206505" lon="9.139117302411922"><ele>16.0</ele><time>2026-04-03T07:10:06.001Z</time></trkpt><trkpt lat="39.26652314655574" lon="9.139296031475363"><ele>16.0</ele><time>2026-04-03T07:10:07.001Z</time></trkpt><trkpt lat="39.26654097602995" lon="9.139445424558817"><ele>16.0</ele><time>2026-04-03T07:10:08.001Z</time></trkpt><trkpt lat="39.266556765330044" lon="9.139604045150978"><ele>16.0</ele><time>2026-04-03T07:10:09.001Z</time></trkpt><trkpt lat="39.2665734138678" lon="9.139753652493754"><ele>16.0</ele><time>2026-04-03T07:10:10.001Z</time></trkpt><trkpt lat="39.26658952405651" lon="9.139908321861636"><ele>16.25</ele><time>2026-04-03T07:10:11.001Z</time></trkpt><trkpt lat="39.26660604756806" lon="9.140066159719707"><ele>16.5</ele><time>2026-04-03T07:10:12.001Z</time></trkpt><trkpt lat="39.26662039567278" lon="9.140223292412676"><ele>16.75</ele><time>2026-04-03T07:10:13.001Z</time></trkpt><trkpt lat="39.26663687085818" lon="9.140382629298447"><ele>17.0</ele><time>2026-04-03T07:10:14.001Z</time></trkpt><trkpt lat="39.2666597206388" lon="9.140550227522208"><ele>17.0</ele><time>2026-04-03T07:10:15.001Z</time></trkpt><trkpt lat="39.26667584155673" lon="9.140706176588584"><ele>17.0</ele><time>2026-04-03T07:10:16.001Z</time></trkpt><trkpt lat="39.26669124100838" lon="9.140866408446268"><ele>17.0</ele><time>2026-04-03T07:10:17.001Z</time></trkpt><trkpt lat="39.26671415820241" lon="9.141028199760845"><ele>17.0</ele><time>2026-04-03T07:10:18.001Z</time></trkpt><trkpt lat="39.26673074697811" lon="9.141200103505597"><ele>16.5</ele><time>2026-04-03T07:10:19.001Z</time></trkpt><trkpt lat="39.26674680808488" lon="9.141374499907764"><ele>16.0</ele><time>2026-04-03T07:10:20.001Z</time></trkpt><trkpt lat="39.26676619286157" lon="9.141558558088006"><ele>15.5</ele><time>2026-04-03T07:10:21.001Z</time></trkpt><trkpt lat="39.26678198487515" lon="9.141752694858818"><ele>15.0</ele><time>2026-04-03T07:10:22.001Z</time></trkpt><trkpt lat="39.2667994677175" lon="9.141943756782636"><ele>15.0</ele><time>2026-04-03T07:10:23.001Z</time></trkpt><trkpt lat="39.26681754556559" lon="9.142137447068512"><ele>15.0</ele><time>2026-04-03T07:10:24.001Z</time></trkpt><trkpt lat="39.26683353250194" lon="9.142332741493465"><ele>15.0</ele><time>2026-04-03T07:10:25.001Z</time></trkpt><trkpt lat="39.26685094866055" lon="9.142529888755263"><ele>15.0</ele><time>2026-04-03T07:10:26.001Z</time></trkpt><trkpt lat="39.26686763878995" lon="9.1427322437666"><ele>15.0</ele><time>2026-04-03T07:10:27.001Z</time></trkpt><trkpt lat="39.266887587965535" lon="9.142936742734273"><ele>15.0</ele><time>2026-04-03T07:10:28.001Z</time></trkpt><trkpt lat="39.26690595985405" lon="9.143146029833746"><ele>15.5</ele><time>2026-04-03T07:10:29.001Z</time></trkpt><trkpt lat="39.26693326512808" lon="9.143345760760885"><ele>16.0</ele><time>2026-04-03T07:10:30.001Z</time></trkpt><trkpt lat="39.26694993675814" lon="9.143538921471926"><ele>16.5</ele><time>2026-04-03T07:10:31.001Z</time></trkpt><trkpt lat="39.26696321565502" lon="9.14371705978818"><ele>17.0</ele><time>2026-04-03T07:10:32.001Z</time></trkpt><trkpt lat="39.26697604051628" lon="9.143904743039913"><ele>17.333333333333336</ele><time>2026-04-03T07:10:33.001Z</time></trkpt><trkpt lat="39.267000656979434" lon="9.144099666593902"><ele>17.666666666666668</ele><time>2026-04-03T07:10:34.001Z</time></trkpt><trkpt lat="39.26701917205379" lon="9.144299873810823"><ele>18.0</ele><time>2026-04-03T07:10:35.001Z</time></trkpt><trkpt lat="39.26703749266725" lon="9.144502909668212"><ele>18.0</ele><time>2026-04-03T07:10:36.001Z</time></trkpt><trkpt lat="39.26705731779898" lon="9.144708806837453"><ele>18.0</ele><time>2026-04-03T07:10:37.001Z</time></trkpt><trkpt lat="39.2670734047449" lon="9.144916984293928"><ele>18.0</ele><time>2026-04-03T07:10:38.001Z</time></trkpt><trkpt lat="39.26710362099697" lon="9.145117965255723"><ele>18.0</ele><time>2026-04-03T07:10:39.001Z</time></trkpt><trkpt lat="39.267124915559954" lon="9.145329598054873"><ele>18.0</ele><time>2026-04-03T07:10:40.001Z</time></trkpt><trkpt lat="39.26714268103413" lon="9.145534873228263"><ele>18.0</ele><time>2026-04-03T07:10:41.001Z</time></trkpt><trkpt lat="39.26716617920303" lon="9.145743606002025"><ele>18.0</ele><time>2026-04-03T07:10:42.001Z</time></trkpt><trkpt lat="39.2671813555678" lon="9.145950084214466"><ele>18.0</ele><time>2026-04-03T07:10:43.001Z</time></trkpt><trkpt lat="39.267203428782516" lon="9.146163282747068"><ele>18.0</ele><time>2026-04-03T07:10:44.001Z</time></trkpt><trkpt lat="39.26722475923299" lon="9.146378392766772"><ele>18.0</ele><time>2026-04-03T07:10:45.001Z</time></trkpt><trkpt lat="39.26724915692512" lon="9.146593277865001"><ele>18.0</ele><time>2026-04-03T07:10:46.001Z</time></trkpt><trkpt lat="39.26727591087894" lon="9.146813159277972"><ele>18.0</ele><time>2026-04-03T07:10:47.001Z</time></trkpt><trkpt lat="39.26729889031817" lon="9.147033572943574"><ele>18.0</ele><time>2026-04-03T07:10:48.002Z</time></trkpt><trkpt lat="39.26732108857481" lon="9.147258759740415"><ele>18.0</ele><time>2026-04-03T07:10:49.002Z</time></trkpt><trkpt lat="39.2673411318712" lon="9.147475814188224"><ele>18.0</ele><time>2026-04-03T07:10:50.002Z</time></trkpt><trkpt lat="39.267359769888095" lon="9.147691373610058"><ele>18.0</ele><time>2026-04-03T07:10:51.002Z</time></trkpt><trkpt lat="39.2673801267012" lon="9.14790521153776"><ele>18.0</ele><time>2026-04-03T07:10:52.002Z</time></trkpt><trkpt lat="39.26739739662627" lon="9.148116755404189"><ele>18.0</ele><time>2026-04-03T07:10:53.002Z</time></trkpt><trkpt lat="39.267418377662274" lon="9.148329669490774"><ele>18.0</ele><time>2026-04-03T07:10:54.002Z</time></trkpt><trkpt lat="39.26744072630846" lon="9.148543978833198"><ele>18.0</ele><time>2026-04-03T07:10:55.002Z</time></trkpt><trkpt lat="39.2674615237373" lon="9.148762702641939"><ele>18.0</ele><time>2026-04-03T07:10:56.002Z</time></trkpt><trkpt lat="39.26748138097025" lon="9.148971480647445"><ele>17.666666666666668</ele><time>2026-04-03T07:10:57.002Z</time></trkpt><trkpt lat="39.26750080913181" lon="9.149166712125655"><ele>17.333333333333336</ele><time>2026-04-03T07:10:58.002Z</time></trkpt><trkpt lat="39.26752009476625" lon="9.149367613294709"><ele>17.0</ele><time>2026-04-03T07:10:59.002Z</time></trkpt><trkpt lat="39.26753825166684" lon="9.149550587176908"><ele>17.0</ele><time>2026-04-03T07:11:00.002Z</time></trkpt><trkpt lat="39.267559134181234" lon="9.149731444611401"><ele>17.0</ele><time>2026-04-03T07:11:01.002Z</time></trkpt><trkpt lat="39.26757917787849" lon="9.149909652727413"><ele>17.0</ele><time>2026-04-03T07:11:02.002Z</time></trkpt><trkpt lat="39.267596558905694" lon="9.150070874801337"><ele>17.0</ele><time>2026-04-03T07:11:03.002Z</time></trkpt><trkpt lat="39.26761170809554" lon="9.150222229804578"><ele>17.0</ele><time>2026-04-03T07:11:04.002Z</time></trkpt><trkpt lat="39.267623116728835" lon="9.15036701332464"><ele>17.0</ele><time>2026-04-03T07:11:05.002Z</time></trkpt><trkpt lat="39.26763469833849" lon="9.150487673834853"><ele>17.0</ele><time>2026-04-03T07:11:06.002Z</time></trkpt><trkpt lat="39.267640630595416" lon="9.150597689380985"><ele>17.0</ele><time>2026-04-03T07:11:07.002Z</time></trkpt><trkpt lat="39.26764858330806" lon="9.150690187176952"><ele>17.0</ele><time>2026-04-03T07:11:08.002Z</time></trkpt><trkpt lat="39.267664849150904" lon="9.15077303718825"><ele>17.0</ele><time>2026-04-03T07:11:09.002Z</time></trkpt><trkpt lat="39.26767500996744" lon="9.15091540523568"><ele>17.0</ele><time>2026-04-03T07:11:11.002Z</time></trkpt><trkpt lat="39.26769741148844" lon="9.151052869704698"><ele>17.0</ele><time>2026-04-03T07:11:13.002Z</time></trkpt><trkpt lat="39.267705369579666" lon="9.151149194020268"><ele>17.0</ele><time>2026-04-03T07:11:16.002Z</time></trkpt><trkpt lat="39.26772742661264" lon="9.15123177395251"><ele>17.0</ele><time>2026-04-03T07:12:10Z</time></trkpt><trkpt lat="39.26774233465011" lon="9.15140677194857"><ele>17.0</ele><time>2026-04-03T07:12:12Z</time></trkpt><trkpt lat="39.26775164492087" lon="9.151519622303052"><ele>17.0</ele><time>2026-04-03T07:12:13Z</time></trkpt><trkpt lat="39.26776084745841" lon="9.151652837437881"><ele>17.0</ele><time>2026-04-03T07:12:14Z</time></trkpt><trkpt lat="39.26777615556045" lon="9.151802653304367"><ele>17.0</ele><time>2026-04-03T07:12:15Z</time></trkpt><trkpt lat="39.26779323112163" lon="9.15196378746912"><ele>17.0</ele><time>2026-04-03T07:12:16Z</time></trkpt><trkpt lat="39.267808848679714" lon="9.152133754848276"><ele>17.0</ele><time>2026-04-03T07:12:17Z</time></trkpt><trkpt lat="39.26782374866949" lon="9.152318874558347"><ele>17.0</ele><time>2026-04-03T07:12:18Z</time></trkpt><trkpt lat="39.26784315003773" lon="9.15249991023308"><ele>17.0</ele><time>2026-04-03T07:12:19Z</time></trkpt><trkpt lat="39.26786054717827" lon="9.152694169288349"><ele>17.0</ele><time>2026-04-03T07:12:20Z</time></trkpt><trkpt lat="39.26788185188737" lon="9.152889618779609"><ele>17.666666666666668</ele><time>2026-04-03T07:12:21Z</time></trkpt><trkpt lat="39.267904199726566" lon="9.153086309598741"><ele>18.333333333333332</ele><time>2026-04-03T07:12:22Z</time></trkpt><trkpt lat="39.26792554757346" lon="9.153286561952266"><ele>19.0</ele><time>2026-04-03T07:12:23.001Z</time></trkpt><trkpt lat="39.267945399258885" lon="9.153484135679097"><ele>19.333333333333332</ele><time>2026-04-03T07:12:24.001Z</time></trkpt><trkpt lat="39.26796319685324" lon="9.153686400574456"><ele>19.666666666666668</ele><time>2026-04-03T07:12:25.001Z</time></trkpt><trkpt lat="39.267983610589894" lon="9.15388824919528"><ele>20.0</ele><time>2026-04-03T07:12:26.001Z</time></trkpt><trkpt lat="39.26800145765829" lon="9.154090752783839"><ele>20.0</ele><time>2026-04-03T07:12:27.001Z</time></trkpt><trkpt lat="39.26801971096172" lon="9.154291964830596"><ele>20.0</ele><time>2026-04-03T07:12:28.001Z</time></trkpt><trkpt lat="39.268031064575865" lon="9.154501400169234"><ele>20.0</ele><time>2026-04-03T07:12:29.001Z</time></trkpt><trkpt lat="39.268039755031346" lon="9.15471651962951"><ele>19.666666666666668</ele><time>2026-04-03T07:12:30.001Z</time></trkpt><trkpt lat="39.26803885966922" lon="9.154929681235895"><ele>19.333333333333332</ele><time>2026-04-03T07:12:31.001Z</time></trkpt><trkpt lat="39.26803223023559" lon="9.155158361200812"><ele>19.0</ele><time>2026-04-03T07:12:32.001Z</time></trkpt><trkpt lat="39.26801362756451" lon="9.155387333988958"><ele>19.0</ele><time>2026-04-03T07:12:33.001Z</time></trkpt><trkpt lat="39.267985002340396" lon="9.155617925122009"><ele>19.0</ele><time>2026-04-03T07:12:34.001Z</time></trkpt><trkpt lat="39.26795071059851" lon="9.155848277975196"><ele>19.0</ele><time>2026-04-03T07:12:35.001Z</time></trkpt><trkpt lat="39.26790385728578" lon="9.156079276875198"><ele>18.666666666666664</ele><time>2026-04-03T07:12:36.001Z</time></trkpt><trkpt lat="39.26784630357081" lon="9.15630934873928"><ele>18.333333333333332</ele><time>2026-04-03T07:12:37.001Z</time></trkpt><trkpt lat="39.267782887478226" lon="9.156535716101892"><ele>18.0</ele><time>2026-04-03T07:12:38.001Z</time></trkpt><trkpt lat="39.26772166639793" lon="9.156753821058471"><ele>18.0</ele><time>2026-04-03T07:12:39.001Z</time></trkpt><trkpt lat="39.267655018412285" lon="9.156977214918609"><ele>18.0</ele><time>2026-04-03T07:12:40.001Z</time></trkpt><trkpt lat="39.26758933307167" lon="9.15719945421208"><ele>18.0</ele><time>2026-04-03T07:12:41.001Z</time></trkpt><trkpt lat="39.26752367200987" lon="9.157430773114816"><ele>18.0</ele><time>2026-04-03T07:12:42.001Z</time></trkpt><trkpt lat="39.267459875460666" lon="9.15765716598906"><ele>18.0</ele><time>2026-04-03T07:12:43.001Z</time></trkpt><trkpt lat="39.26739532694245" lon="9.157883310037322"><ele>18.0</ele><time>2026-04-03T07:12:44.001Z</time></trkpt><trkpt lat="39.26733166180121" lon="9.158115032010333"><ele>17.0</ele><time>2026-04-03T07:12:45.001Z</time></trkpt><trkpt lat="39.26726662779791" lon="9.158345153838727"><ele>16.0</ele><time>2026-04-03T07:12:46.001Z</time></trkpt><trkpt lat="39.26720519006657" lon="9.158569496216563"><ele>15.0</ele><time>2026-04-03T07:12:47.001Z</time></trkpt><trkpt lat="39.26714036686064" lon="9.158792538054385"><ele>15.0</ele><time>2026-04-03T07:12:48.001Z</time></trkpt><trkpt lat="39.267075190299344" lon="9.159018089018268"><ele>15.0</ele><time>2026-04-03T07:12:49.001Z</time></trkpt><trkpt lat="39.267009108487464" lon="9.15924165186086"><ele>15.0</ele><time>2026-04-03T07:12:50.001Z</time></trkpt><trkpt lat="39.266944020305296" lon="9.15946596894988"><ele>15.0</ele><time>2026-04-03T07:12:51.001Z</time></trkpt><trkpt lat="39.266877890206324" lon="9.15969429943183"><ele>15.0</ele><time>2026-04-03T07:12:52.001Z</time></trkpt><trkpt lat="39.266814749340355" lon="9.159925738113156"><ele>15.0</ele><time>2026-04-03T07:12:53.001Z</time></trkpt><trkpt lat="39.266751292309266" lon="9.160160520205695"><ele>15.0</ele><time>2026-04-03T07:12:54.001Z</time></trkpt><trkpt lat="39.2666821293086" lon="9.1603939709105"><ele>15.0</ele><time>2026-04-03T07:12:55.001Z</time></trkpt><trkpt lat="39.26660874863783" lon="9.160626736135171"><ele>15.0</ele><time>2026-04-03T07:12:56.001Z</time></trkpt><trkpt lat="39.26653763941884" lon="9.16086465452248"><ele>15.0</ele><time>2026-04-03T07:12:57.001Z</time></trkpt><trkpt lat="39.26646703422595" lon="9.161104457252964"><ele>15.0</ele><time>2026-04-03T07:12:58.001Z</time></trkpt><trkpt lat="39.2664017446725" lon="9.161343908115178"><ele>15.0</ele><time>2026-04-03T07:12:59.001Z</time></trkpt><trkpt lat="39.266334175439596" lon="9.161584291980265"><ele>14.333333333333332</ele><time>2026-04-03T07:13:00.001Z</time></trkpt><trkpt lat="39.266266240112635" lon="9.161824378580048"><ele>13.666666666666666</ele><time>2026-04-03T07:13:01.001Z</time></trkpt><trkpt lat="39.26619732292139" lon="9.162064161130887"><ele>13.0</ele><time>2026-04-03T07:13:02.001Z</time></trkpt><trkpt lat="39.26612968519716" lon="9.162304850952728"><ele>13.666666666666666</ele><time>2026-04-03T07:13:03.001Z</time></trkpt><trkpt lat="39.266061972334846" lon="9.162546250920151"><ele>14.333333333333332</ele><time>2026-04-03T07:13:04.001Z</time></trkpt><trkpt lat="39.26599301094725" lon="9.162784817236515"><ele>15.0</ele><time>2026-04-03T07:13:05.001Z</time></trkpt><trkpt lat="39.26592406327631" lon="9.16302539174932"><ele>14.666666666666668</ele><time>2026-04-03T07:13:06.001Z</time></trkpt><trkpt lat="39.265854455506634" lon="9.163263647930215"><ele>14.333333333333334</ele><time>2026-04-03T07:13:07.001Z</time></trkpt><trkpt lat="39.26578612407415" lon="9.163501525815034"><ele>14.0</ele><time>2026-04-03T07:13:08.001Z</time></trkpt><trkpt lat="39.26571677584855" lon="9.163737708349878"><ele>14.0</ele><time>2026-04-03T07:13:09.001Z</time></trkpt><trkpt lat="39.26564803350009" lon="9.163973741957918"><ele>14.0</ele><time>2026-04-03T07:13:10.001Z</time></trkpt><trkpt lat="39.26557959391319" lon="9.164211746407679"><ele>14.0</ele><time>2026-04-03T07:13:11.001Z</time></trkpt><trkpt lat="39.265513385528166" lon="9.164448401252006"><ele>14.0</ele><time>2026-04-03T07:13:12.001Z</time></trkpt><trkpt lat="39.265446013103855" lon="9.164685979188244"><ele>14.0</ele><time>2026-04-03T07:13:13.001Z</time></trkpt><trkpt lat="39.2653797053916" lon="9.164922822693562"><ele>14.0</ele><time>2026-04-03T07:13:14.001Z</time></trkpt><trkpt lat="39.26531266127542" lon="9.165156003481341"><ele>14.666666666666668</ele><time>2026-04-03T07:13:15.001Z</time></trkpt><trkpt lat="39.26524751674236" lon="9.165387844396927"><ele>15.333333333333332</ele><time>2026-04-03T07:13:16.002Z</time></trkpt><trkpt lat="39.26518157385901" lon="9.16561601629682"><ele>16.0</ele><time>2026-04-03T07:13:17.002Z</time></trkpt><trkpt lat="39.26511522438493" lon="9.165845056304176"><ele>16.0</ele><time>2026-04-03T07:13:18.002Z</time></trkpt><trkpt lat="39.26504584236581" lon="9.166075605917603"><ele>16.0</ele><time>2026-04-03T07:13:19.002Z</time></trkpt><trkpt lat="39.264980911158545" lon="9.16630583782539"><ele>16.0</ele><time>2026-04-03T07:13:20.002Z</time></trkpt><trkpt lat="39.26491550021449" lon="9.1665385598389"><ele>16.0</ele><time>2026-04-03T07:13:21.002Z</time></trkpt><trkpt lat="39.264849947439565" lon="9.166769943290086"><ele>16.0</ele><time>2026-04-03T07:13:22.002Z</time></trkpt><trkpt lat="39.26478320572248" lon="9.166999974664886"><ele>16.0</ele><time>2026-04-03T07:13:23.002Z</time></trkpt><trkpt lat="39.264715818932046" lon="9.16723150869572"><ele>16.333333333333332</ele><time>2026-04-03T07:13:24.002Z</time></trkpt><trkpt lat="39.26465384237603" lon="9.16745431639432"><ele>16.666666666666668</ele><time>2026-04-03T07:13:25.002Z</time></trkpt><trkpt lat="39.26459458805453" lon="9.167665963466584"><ele>17.0</ele><time>2026-04-03T07:13:26.002Z</time></trkpt><trkpt lat="39.26453275202323" lon="9.167871711783603"><ele>17.0</ele><time>2026-04-03T07:13:27.002Z</time></trkpt><trkpt lat="39.26447413153016" lon="9.16808328432015"><ele>17.0</ele><time>2026-04-03T07:13:28.002Z</time></trkpt><trkpt lat="39.26441405441922" lon="9.168295801750753"><ele>17.0</ele><time>2026-04-03T07:13:29.002Z</time></trkpt><trkpt lat="39.264351719755965" lon="9.168509824508677"><ele>17.0</ele><time>2026-04-03T07:13:30.002Z</time></trkpt><trkpt lat="39.264288204895344" lon="9.168725488390253"><ele>17.0</ele><time>2026-04-03T07:13:31.002Z</time></trkpt><trkpt lat="39.264224035503624" lon="9.168946204397026"><ele>17.0</ele><time>2026-04-03T07:13:32.002Z</time></trkpt><trkpt lat="39.264160036020584" lon="9.169169360489724"><ele>17.333333333333336</ele><time>2026-04-03T07:13:33.002Z</time></trkpt><trkpt lat="39.26409773003694" lon="9.169392179418333"><ele>17.666666666666668</ele><time>2026-04-03T07:13:34.002Z</time></trkpt><trkpt lat="39.264032797481086" lon="9.169612410306058"><ele>18.0</ele><time>2026-04-03T07:13:35.002Z</time></trkpt><trkpt lat="39.26396541237853" lon="9.169834028621635"><ele>18.0</ele><time>2026-04-03T07:13:36.002Z</time></trkpt><trkpt lat="39.26389964254327" lon="9.170059041084988"><ele>18.0</ele><time>2026-04-03T07:13:37.002Z</time></trkpt><trkpt lat="39.26383644364642" lon="9.170284437368453"><ele>18.0</ele><time>2026-04-03T07:13:38.002Z</time></trkpt><trkpt lat="39.26377376984718" lon="9.17050971592157"><ele>18.333333333333332</ele><time>2026-04-03T07:13:39.002Z</time></trkpt><trkpt lat="39.263709494660226" lon="9.170736898002072"><ele>18.666666666666664</ele><time>2026-04-03T07:13:40.002Z</time></trkpt><trkpt lat="39.263645132703054" lon="9.170961318427294"><ele>19.0</ele><time>2026-04-03T07:13:41.002Z</time></trkpt><trkpt lat="39.26358365861975" lon="9.171181658237996"><ele>19.0</ele><time>2026-04-03T07:13:42.002Z</time></trkpt><trkpt lat="39.263520793381595" lon="9.17139931208474"><ele>19.0</ele><time>2026-04-03T07:13:43.002Z</time></trkpt><trkpt lat="39.26346284877778" lon="9.171608059351165"><ele>19.0</ele><time>2026-04-03T07:13:44.002Z</time></trkpt><trkpt lat="39.263406455542885" lon="9.171806158218885"><ele>19.333333333333332</ele><time>2026-04-03T07:13:45.002Z</time></trkpt><trkpt lat="39.26335227803544" lon="9.17199720673756"><ele>19.666666666666668</ele><time>2026-04-03T07:13:46.002Z</time></trkpt><trkpt lat="39.26329920739714" lon="9.172181304101018"><ele>20.0</ele><time>2026-04-03T07:13:47.002Z</time></trkpt><trkpt lat="39.263247451983695" lon="9.172358618595185"><ele>20.0</ele><time>2026-04-03T07:13:48.002Z</time></trkpt><trkpt lat="39.263198090702524" lon="9.172531484744813"><ele>20.0</ele><time>2026-04-03T07:13:49.002Z</time></trkpt><trkpt lat="39.263153366398555" lon="9.172694365237364"><ele>20.0</ele><time>2026-04-03T07:13:50.002Z</time></trkpt><trkpt lat="39.26311203110527" lon="9.172837346974577"><ele>20.0</ele><time>2026-04-03T07:13:51.002Z</time></trkpt><trkpt lat="39.26308277085688" lon="9.172947162781847"><ele>20.0</ele><time>2026-04-03T07:13:52.002Z</time></trkpt><trkpt lat="39.26303875037374" lon="9.17308428922704"><ele>20.0</ele><time>2026-04-03T07:13:54.002Z</time></trkpt><trkpt lat="39.26300350444164" lon="9.173194503632308"><ele>20.0</ele><time>2026-04-03T07:13:56.002Z</time></trkpt><trkpt lat="39.262972145069305" lon="9.173305925706593"><ele>20.0</ele><time>2026-04-03T07:13:58.002Z</time></trkpt><trkpt lat="39.2629317734076" lon="9.173443184086823"><ele>20.0</ele><time>2026-04-03T07:14:00.002Z</time></trkpt><trkpt lat="39.262909365083374" lon="9.173528449093668"><ele>20.0</ele><time>2026-04-03T07:14:01.002Z</time></trkpt><trkpt lat="39.26288557953128" lon="9.173627019965856"><ele>20.0</ele><time>2026-04-03T07:14:02.002Z</time></trkpt><trkpt lat="39.262858442919295" lon="9.17372802777207"><ele>20.0</ele><time>2026-04-03T07:14:03.001Z</time></trkpt><trkpt lat="39.26282561328435" lon="9.173841045379362"><ele>20.0</ele><time>2026-04-03T07:14:04.001Z</time></trkpt><trkpt lat="39.26279488097844" lon="9.173954005993574"><ele>20.0</ele><time>2026-04-03T07:14:05.001Z</time></trkpt><trkpt lat="39.262762728406884" lon="9.174058388598898"><ele>20.0</ele><time>2026-04-03T07:14:06.001Z</time></trkpt><trkpt lat="39.2627335161847" lon="9.174156998433821"><ele>20.0</ele><time>2026-04-03T07:14:07.001Z</time></trkpt><trkpt lat="39.26271006937573" lon="9.174236934216756"><ele>20.0</ele><time>2026-04-03T07:14:08.001Z</time></trkpt><trkpt lat="39.26267599178854" lon="9.174347472129686"><ele>20.0</ele><time>2026-04-03T07:14:10.001Z</time></trkpt><trkpt lat="39.26265563345824" lon="9.174424541075389"><ele>20.0</ele><time>2026-04-03T07:14:12Z</time></trkpt><trkpt lat="39.262621441587584" lon="9.174509915606818"><ele>20.0</ele><time>2026-04-03T07:15:27.002Z</time></trkpt><trkpt lat="39.26258295438732" lon="9.174628845797255"><ele>20.0</ele><time>2026-04-03T07:15:29.002Z</time></trkpt><trkpt lat="39.26256079759989" lon="9.17470780515666"><ele>20.0</ele><time>2026-04-03T07:15:30.002Z</time></trkpt><trkpt lat="39.26253226294221" lon="9.174816320061936"><ele>20.0</ele><time>2026-04-03T07:15:31.002Z</time></trkpt><trkpt lat="39.26249863315667" lon="9.17493821165466"><ele>20.0</ele><time>2026-04-03T07:15:32.002Z</time></trkpt><trkpt lat="39.26245686840668" lon="9.175075525975837"><ele>20.0</ele><time>2026-04-03T07:15:33.002Z</time></trkpt><trkpt lat="39.26241281570946" lon="9.17523342451715"><ele>20.0</ele><time>2026-04-03T07:15:34.002Z</time></trkpt><trkpt lat="39.262361196852524" lon="9.17541804808851"><ele>20.333333333333336</ele><time>2026-04-03T07:15:35.002Z</time></trkpt><trkpt lat="39.26230828139756" lon="9.175611861610781"><ele>20.666666666666668</ele><time>2026-04-03T07:15:36.002Z</time></trkpt><trkpt lat="39.26225350698331" lon="9.175810201690803"><ele>21.0</ele><time>2026-04-03T07:15:37.002Z</time></trkpt><trkpt lat="39.26219664594672" lon="9.176013402759315"><ele>21.0</ele><time>2026-04-03T07:15:38.002Z</time></trkpt><trkpt lat="39.26213526545798" lon="9.176223531758987"><ele>21.0</ele><time>2026-04-03T07:15:39.002Z</time></trkpt><trkpt lat="39.26207517073761" lon="9.176432229629778"><ele>21.0</ele><time>2026-04-03T07:15:40.002Z</time></trkpt><trkpt lat="39.2620129956437" lon="9.176639972047182"><ele>21.333333333333332</ele><time>2026-04-03T07:15:41.002Z</time></trkpt><trkpt lat="39.26195067963209" lon="9.1768524377891"><ele>21.666666666666664</ele><time>2026-04-03T07:15:42.002Z</time></trkpt><trkpt lat="39.26189074306592" lon="9.177064226021942"><ele>22.0</ele><time>2026-04-03T07:15:43.002Z</time></trkpt><trkpt lat="39.26183053871755" lon="9.177276414487029"><ele>22.333333333333332</ele><time>2026-04-03T07:15:44.002Z</time></trkpt><trkpt lat="39.26177178583695" lon="9.17748768093015"><ele>22.666666666666668</ele><time>2026-04-03T07:15:45.002Z</time></trkpt><trkpt lat="39.26171119368641" lon="9.177702509258596"><ele>23.0</ele><time>2026-04-03T07:15:46.002Z</time></trkpt><trkpt lat="39.261646582317525" lon="9.177921132282002"><ele>23.0</ele><time>2026-04-03T07:15:47.002Z</time></trkpt><trkpt lat="39.261582523668395" lon="9.178142457946056"><ele>23.0</ele><time>2026-04-03T07:15:48.002Z</time></trkpt><trkpt lat="39.26151827821229" lon="9.178367542984349"><ele>23.0</ele><time>2026-04-03T07:15:49.002Z</time></trkpt><trkpt lat="39.2613212750142" lon="9.179051946218918"><ele>22.333333333333336</ele><time>2026-04-03T07:15:52.002Z</time></trkpt><trkpt lat="39.2612535924804" lon="9.179283549744103"><ele>21.666666666666668</ele><time>2026-04-03T07:15:53.002Z</time></trkpt><trkpt lat="39.26119147355261" lon="9.179524011932834"><ele>21.0</ele><time>2026-04-03T07:15:54.002Z</time></trkpt><trkpt lat="39.26112549905584" lon="9.179760849883252"><ele>21.0</ele><time>2026-04-03T07:15:55.002Z</time></trkpt><trkpt lat="39.261059988354816" lon="9.179999682847221"><ele>21.0</ele><time>2026-04-03T07:15:56.002Z</time></trkpt><trkpt lat="39.2609892175151" lon="9.180241225623675"><ele>21.0</ele><time>2026-04-03T07:15:57.002Z</time></trkpt><trkpt lat="39.26092156132916" lon="9.180479581649253"><ele>22.0</ele><time>2026-04-03T07:15:58.002Z</time></trkpt><trkpt lat="39.26085280276896" lon="9.180717707502323"><ele>23.0</ele><time>2026-04-03T07:15:59.002Z</time></trkpt><trkpt lat="39.26078685326915" lon="9.180956056977502"><ele>24.0</ele><time>2026-04-03T07:16:00.002Z</time></trkpt><trkpt lat="39.26071957685672" lon="9.181193928750885"><ele>24.0</ele><time>2026-04-03T07:16:01.002Z</time></trkpt><trkpt lat="39.260657557994165" lon="9.18142857647098"><ele>24.0</ele><time>2026-04-03T07:16:02.002Z</time></trkpt><trkpt lat="39.26058235119106" lon="9.181669528563223"><ele>24.0</ele><time>2026-04-03T07:16:03.002Z</time></trkpt><trkpt lat="39.2605112913245" lon="9.181909130449174"><ele>24.0</ele><time>2026-04-03T07:16:04.002Z</time></trkpt><trkpt lat="39.26036980408509" lon="9.182389919384988"><ele>24.0</ele><time>2026-04-03T07:16:06.002Z</time></trkpt><trkpt lat="39.260300268729054" lon="9.182629872358758"><ele>24.0</ele><time>2026-04-03T07:16:07.002Z</time></trkpt><trkpt lat="39.260229638691314" lon="9.182868977150328"><ele>24.0</ele><time>2026-04-03T07:16:08.002Z</time></trkpt><trkpt lat="39.26016227491789" lon="9.183109308895917"><ele>24.0</ele><time>2026-04-03T07:16:08.998Z</time></trkpt><trkpt lat="39.260095401737885" lon="9.183351374044307"><ele>24.0</ele><time>2026-04-03T07:16:09.998Z</time></trkpt><trkpt lat="39.26003337763557" lon="9.183587975053793"><ele>24.0</ele><time>2026-04-03T07:16:10.998Z</time></trkpt><trkpt lat="39.259965505910806" lon="9.183817646898914"><ele>24.0</ele><time>2026-04-03T07:16:11.998Z</time></trkpt><trkpt lat="39.259900979963554" lon="9.184039891563792"><ele>24.333333333333336</ele><time>2026-04-03T07:16:12.998Z</time></trkpt><trkpt lat="39.259841617905714" lon="9.184251690542396"><ele>24.666666666666668</ele><time>2026-04-03T07:16:13.998Z</time></trkpt><trkpt lat="39.25978794611202" lon="9.184449733344989"><ele>25.0</ele><time>2026-04-03T07:16:14.998Z</time></trkpt><trkpt lat="39.25973746648813" lon="9.184641658277297"><ele>24.5</ele><time>2026-04-03T07:16:15.998Z</time></trkpt><trkpt lat="39.25968766684427" lon="9.184821866786622"><ele>24.0</ele><time>2026-04-03T07:16:16.998Z</time></trkpt><trkpt lat="39.25963877703928" lon="9.184992072219318"><ele>23.5</ele><time>2026-04-03T07:16:17.998Z</time></trkpt><trkpt lat="39.259591116198" lon="9.185162918452475"><ele>23.0</ele><time>2026-04-03T07:16:18.998Z</time></trkpt><trkpt lat="39.25955171227197" lon="9.18533230124885"><ele>23.0</ele><time>2026-04-03T07:16:19.998Z</time></trkpt><trkpt lat="39.25951008065206" lon="9.185509807701644"><ele>23.0</ele><time>2026-04-03T07:16:20.998Z</time></trkpt><trkpt lat="39.259459946680735" lon="9.18569167412099"><ele>23.0</ele><time>2026-04-03T07:16:21.998Z</time></trkpt><trkpt lat="39.2593522715969" lon="9.186011208665224"><ele>23.2</ele><time>2026-04-03T07:16:23.998Z</time></trkpt><trkpt lat="39.25930649988608" lon="9.186163323419956"><ele>23.4</ele><time>2026-04-03T07:16:24.998Z</time></trkpt><trkpt lat="39.259266263515435" lon="9.186300984444824"><ele>23.599999999999998</ele><time>2026-04-03T07:16:25.998Z</time></trkpt><trkpt lat="39.259231812395704" lon="9.18642194803443"><ele>23.799999999999997</ele><time>2026-04-03T07:16:26.999Z</time></trkpt><trkpt lat="39.25919770998276" lon="9.186521728656363"><ele>24.0</ele><time>2026-04-03T07:16:27.999Z</time></trkpt><trkpt lat="39.259160906120435" lon="9.18660814026884"><ele>24.333333333333332</ele><time>2026-04-03T07:16:28.999Z</time></trkpt><trkpt lat="39.25912542658077" lon="9.186684329447983"><ele>24.666666666666664</ele><time>2026-04-03T07:16:29.999Z</time></trkpt><trkpt lat="39.2590866994548" lon="9.186753304843263"><ele>25.0</ele><time>2026-04-03T07:16:30.999Z</time></trkpt><trkpt lat="39.2590197445049" lon="9.186865748374224"><ele>25.333333333333332</ele><time>2026-04-03T07:16:32.999Z</time></trkpt><trkpt lat="39.25897375280406" lon="9.186954937167679"><ele>25.666666666666664</ele><time>2026-04-03T07:16:34.999Z</time></trkpt><trkpt lat="39.258944629728106" lon="9.187033502393575"><ele>26.0</ele><time>2026-04-03T07:16:36.999Z</time></trkpt><trkpt lat="39.25888930958536" lon="9.187111022207306"><ele>25.200000000000003</ele><time>2026-04-03T07:16:39.999Z</time></trkpt><trkpt lat="39.258836292441416" lon="9.187227589530288"><ele>24.400000000000002</ele><time>2026-04-03T07:18:12.002Z</time></trkpt><trkpt lat="39.25876113635272" lon="9.187353738466205"><ele>23.6</ele><time>2026-04-03T07:18:14.002Z</time></trkpt><trkpt lat="39.25871411576787" lon="9.187438746039817"><ele>22.8</ele><time>2026-04-03T07:18:14.996Z</time></trkpt><trkpt lat="39.258658000971195" lon="9.187534431726066"><ele>22.0</ele><time>2026-04-03T07:18:15.996Z</time></trkpt><trkpt lat="39.258590745166934" lon="9.187639943510534"><ele>22.0</ele><time>2026-04-03T07:18:16.996Z</time></trkpt><trkpt lat="39.25851564837213" lon="9.187746646771076"><ele>22.0</ele><time>2026-04-03T07:18:17.996Z</time></trkpt><trkpt lat="39.25843495709881" lon="9.187850232483338"><ele>22.0</ele><time>2026-04-03T07:18:18.996Z</time></trkpt><trkpt lat="39.258356407201816" lon="9.187949145508808"><ele>22.0</ele><time>2026-04-03T07:18:19.997Z</time></trkpt><trkpt lat="39.25827630528175" lon="9.188046785905403"><ele>22.0</ele><time>2026-04-03T07:18:20.997Z</time></trkpt><trkpt lat="39.25819350590292" lon="9.188141698554963"><ele>22.0</ele><time>2026-04-03T07:18:21.997Z</time></trkpt><trkpt lat="39.25811063119655" lon="9.188234886562098"><ele>22.0</ele><time>2026-04-03T07:18:22.997Z</time></trkpt><trkpt lat="39.25802787843996" lon="9.18833101657224"><ele>22.0</ele><time>2026-04-03T07:18:23.997Z</time></trkpt><trkpt lat="39.257945042011556" lon="9.18842799021133"><ele>22.0</ele><time>2026-04-03T07:18:24.997Z</time></trkpt><trkpt lat="39.25786110643392" lon="9.188528313600564"><ele>22.0</ele><time>2026-04-03T07:18:25.997Z</time></trkpt><trkpt lat="39.25777451910112" lon="9.18863094987701"><ele>22.0</ele><time>2026-04-03T07:18:26.997Z</time></trkpt><trkpt lat="39.257685471562425" lon="9.188735549472923"><ele>22.0</ele><time>2026-04-03T07:18:27.997Z</time></trkpt><trkpt lat="39.25759475426464" lon="9.188840160319485"><ele>22.0</ele><time>2026-04-03T07:18:28.997Z</time></trkpt><trkpt lat="39.257511603099736" lon="9.188944988879703"><ele>22.0</ele><time>2026-04-03T07:18:29.997Z</time></trkpt><trkpt lat="39.257427376329574" lon="9.189044260224883"><ele>22.200000000000003</ele><time>2026-04-03T07:18:30.998Z</time></trkpt><trkpt lat="39.25734710271959" lon="9.189136374697858"><ele>22.4</ele><time>2026-04-03T07:18:31.998Z</time></trkpt><trkpt lat="39.25727503009524" lon="9.189221036147721"><ele>22.6</ele><time>2026-04-03T07:18:32.998Z</time></trkpt><trkpt lat="39.257209767873924" lon="9.189300302241337"><ele>22.799999999999997</ele><time>2026-04-03T07:18:33.998Z</time></trkpt><trkpt lat="39.257142152268564" lon="9.189373658424405"><ele>23.0</ele><time>2026-04-03T07:18:34.998Z</time></trkpt><trkpt lat="39.257070133718734" lon="9.189434759492988"><ele>22.166666666666668</ele><time>2026-04-03T07:18:35.998Z</time></trkpt><trkpt lat="39.25700038482528" lon="9.18948223409787"><ele>21.333333333333336</ele><time>2026-04-03T07:18:36.998Z</time></trkpt><trkpt lat="39.25692725585126" lon="9.189523889757558"><ele>20.5</ele><time>2026-04-03T07:18:37.998Z</time></trkpt><trkpt lat="39.25685144923069" lon="9.189558071235531"><ele>19.666666666666668</ele><time>2026-04-03T07:18:38.998Z</time></trkpt><trkpt lat="39.25676711173364" lon="9.189582203167943"><ele>18.833333333333332</ele><time>2026-04-03T07:18:39.998Z</time></trkpt><trkpt lat="39.25668158126801" lon="9.189599983265564"><ele>18.0</ele><time>2026-04-03T07:18:40.998Z</time></trkpt><trkpt lat="39.25658885336737" lon="9.189613350458686"><ele>18.0</ele><time>2026-04-03T07:18:41.999Z</time></trkpt><trkpt lat="39.25648529947784" lon="9.18961041050676"><ele>18.0</ele><time>2026-04-03T07:18:42.999Z</time></trkpt><trkpt lat="39.256365275240135" lon="9.189598779722925"><ele>18.0</ele><time>2026-04-03T07:18:43.999Z</time></trkpt><trkpt lat="39.25622471969295" lon="9.189574579458506"><ele>18.0</ele><time>2026-04-03T07:18:44.999Z</time></trkpt><trkpt lat="39.25608033933844" lon="9.189549025068123"><ele>17.666666666666668</ele><time>2026-04-03T07:18:45.999Z</time></trkpt><trkpt lat="39.255924282468" lon="9.189535243455012"><ele>17.333333333333336</ele><time>2026-04-03T07:18:46.999Z</time></trkpt><trkpt lat="39.25577434592795" lon="9.189527917082057"><ele>17.0</ele><time>2026-04-03T07:18:47.999Z</time></trkpt><trkpt lat="39.25562222793263" lon="9.189546905254309"><ele>17.0</ele><time>2026-04-03T07:18:48.999Z</time></trkpt><trkpt lat="39.25547846219823" lon="9.189606704955757"><ele>17.0</ele><time>2026-04-03T07:18:49.999Z</time></trkpt><trkpt lat="39.25534419611487" lon="9.189690138574074"><ele>17.0</ele><time>2026-04-03T07:18:50.999Z</time></trkpt><trkpt lat="39.25522026373589" lon="9.189786811810169"><ele>17.0</ele><time>2026-04-03T07:18:51.999Z</time></trkpt><trkpt lat="39.255106334106834" lon="9.189902545477047"><ele>17.0</ele><time>2026-04-03T07:18:52.999Z</time></trkpt><trkpt lat="39.25501166519452" lon="9.190042462079646"><ele>17.0</ele><time>2026-04-03T07:18:53.999Z</time></trkpt><trkpt lat="39.2549460852027" lon="9.19020546699313"><ele>17.0</ele><time>2026-04-03T07:18:54.999Z</time></trkpt><trkpt lat="39.25491948784112" lon="9.190383385111417"><ele>17.0</ele><time>2026-04-03T07:18:55.999Z</time></trkpt><trkpt lat="39.254931568008885" lon="9.190572424250588"><ele>17.0</ele><time>2026-04-03T07:18:56.999Z</time></trkpt><trkpt lat="39.2549834093545" lon="9.19076472301979"><ele>17.0</ele><time>2026-04-03T07:18:57.999Z</time></trkpt><trkpt lat="39.25506374882647" lon="9.190938794479633"><ele>17.0</ele><time>2026-04-03T07:18:58.999Z</time></trkpt><trkpt lat="39.25514556238241" lon="9.191079098264867"><ele>17.0</ele><time>2026-04-03T07:18:59.999Z</time></trkpt><trkpt lat="39.25523004688707" lon="9.191212714764704"><ele>17.0</ele><time>2026-04-03T07:19:01Z</time></trkpt><trkpt lat="39.25531455571044" lon="9.191340358068718"><ele>17.0</ele><time>2026-04-03T07:19:02Z</time></trkpt><trkpt lat="39.255398955909186" lon="9.191464108365379"><ele>17.0</ele><time>2026-04-03T07:19:03Z</time></trkpt><trkpt lat="39.255487773698846" lon="9.191589975337001"><ele>17.75</ele><time>2026-04-03T07:19:04Z</time></trkpt><trkpt lat="39.255578408981805" lon="9.191713307289351"><ele>18.5</ele><time>2026-04-03T07:19:05Z</time></trkpt><trkpt lat="39.25567248176723" lon="9.191839848822552"><ele>19.25</ele><time>2026-04-03T07:19:06Z</time></trkpt><trkpt lat="39.255767272882736" lon="9.191969483135779"><ele>20.0</ele><time>2026-04-03T07:19:07Z</time></trkpt><trkpt lat="39.2558600060918" lon="9.192093687762812"><ele>20.25</ele><time>2026-04-03T07:19:08Z</time></trkpt><trkpt lat="39.25594890585887" lon="9.192213074672303"><ele>20.5</ele><time>2026-04-03T07:19:09Z</time></trkpt><trkpt lat="39.2560398864952" lon="9.192335610258956"><ele>20.75</ele><time>2026-04-03T07:19:10Z</time></trkpt><trkpt lat="39.2561312856283" lon="9.192461977385905"><ele>21.0</ele><time>2026-04-03T07:19:11Z</time></trkpt><trkpt lat="39.25622143730434" lon="9.19259385903445"><ele>21.5</ele><time>2026-04-03T07:19:12Z</time></trkpt><trkpt lat="39.25631834698764" lon="9.19272658466154"><ele>22.0</ele><time>2026-04-03T07:19:13Z</time></trkpt><trkpt lat="39.25642078002307" lon="9.192863003947878"><ele>22.5</ele><time>2026-04-03T07:19:14Z</time></trkpt><trkpt lat="39.256530000155436" lon="9.192994692300903"><ele>23.0</ele><time>2026-04-03T07:19:15Z</time></trkpt><trkpt lat="39.25664939575542" lon="9.19312162175346"><ele>23.666666666666668</ele><time>2026-04-03T07:19:16Z</time></trkpt><trkpt lat="39.25677511560467" lon="9.193249210719069"><ele>24.333333333333336</ele><time>2026-04-03T07:19:17Z</time></trkpt><trkpt lat="39.256897794959464" lon="9.19337300675809"><ele>25.0</ele><time>2026-04-03T07:19:18Z</time></trkpt><trkpt lat="39.257029010524796" lon="9.193489165624184"><ele>25.0</ele><time>2026-04-03T07:19:19Z</time></trkpt><trkpt lat="39.25716434019666" lon="9.193599753129925"><ele>25.0</ele><time>2026-04-03T07:19:20Z</time></trkpt><trkpt lat="39.25730205007344" lon="9.193705107700877"><ele>25.0</ele><time>2026-04-03T07:19:21Z</time></trkpt><trkpt lat="39.25744540916859" lon="9.193807172364876"><ele>24.666666666666668</ele><time>2026-04-03T07:19:22Z</time></trkpt><trkpt lat="39.25758847349208" lon="9.193902630156414"><ele>24.333333333333336</ele><time>2026-04-03T07:19:23Z</time></trkpt><trkpt lat="39.257736232715764" lon="9.193994287642267"><ele>24.0</ele><time>2026-04-03T07:19:24Z</time></trkpt><trkpt lat="39.25788598723395" lon="9.194080215701812"><ele>25.333333333333336</ele><time>2026-04-03T07:19:25Z</time></trkpt><trkpt lat="39.258037889293675" lon="9.194162281981455"><ele>26.666666666666668</ele><time>2026-04-03T07:19:26Z</time></trkpt><trkpt lat="39.25819045778115" lon="9.194242117769713"><ele>28.0</ele><time>2026-04-03T07:19:27Z</time></trkpt><trkpt lat="39.25834676022696" lon="9.1943150863974"><ele>28.0</ele><time>2026-04-03T07:19:28Z</time></trkpt><trkpt lat="39.258506789573005" lon="9.194386849462804"><ele>28.0</ele><time>2026-04-03T07:19:29.001Z</time></trkpt><trkpt lat="39.25867416136987" lon="9.194454921991206"><ele>28.0</ele><time>2026-04-03T07:19:30.001Z</time></trkpt><trkpt lat="39.2588478206256" lon="9.194520702726408"><ele>29.0</ele><time>2026-04-03T07:19:31.001Z</time></trkpt><trkpt lat="39.25902528935277" lon="9.1945917032393"><ele>30.0</ele><time>2026-04-03T07:19:32.001Z</time></trkpt><trkpt lat="39.25920573405962" lon="9.194665226608565"><ele>31.0</ele><time>2026-04-03T07:19:33.001Z</time></trkpt><trkpt lat="39.2593868800043" lon="9.194742087207448"><ele>31.0</ele><time>2026-04-03T07:19:34.001Z</time></trkpt><trkpt lat="39.259563779503516" lon="9.194822262309604"><ele>31.0</ele><time>2026-04-03T07:19:35.001Z</time></trkpt><trkpt lat="39.259746874468014" lon="9.194903008875972"><ele>31.0</ele><time>2026-04-03T07:19:36.001Z</time></trkpt><trkpt lat="39.25993635071573" lon="9.194987312567626"><ele>31.0</ele><time>2026-04-03T07:19:37.001Z</time></trkpt><trkpt lat="39.26012998919579" lon="9.19506863910064"><ele>31.0</ele><time>2026-04-03T07:19:38.001Z</time></trkpt><trkpt lat="39.26031905566602" lon="9.195149124913542"><ele>31.0</ele><time>2026-04-03T07:19:39.001Z</time></trkpt><trkpt lat="39.26051047120477" lon="9.195219253066309"><ele>31.333333333333336</ele><time>2026-04-03T07:19:40.001Z</time></trkpt><trkpt lat="39.26069226304278" lon="9.19528627312087"><ele>31.666666666666664</ele><time>2026-04-03T07:19:41.001Z</time></trkpt><trkpt lat="39.26086837884495" lon="9.19535641603837"><ele>32.0</ele><time>2026-04-03T07:19:42.001Z</time></trkpt><trkpt lat="39.26104351304851" lon="9.195424733674976"><ele>32.0</ele><time>2026-04-03T07:19:43.001Z</time></trkpt><trkpt lat="39.26121459754586" lon="9.195500260217495"><ele>32.0</ele><time>2026-04-03T07:19:44.001Z</time></trkpt><trkpt lat="39.26139061676963" lon="9.195574835400523"><ele>32.0</ele><time>2026-04-03T07:19:45.001Z</time></trkpt><trkpt lat="39.26156717788514" lon="9.195651272775969"><ele>33.33333333333333</ele><time>2026-04-03T07:19:46.001Z</time></trkpt><trkpt lat="39.26174250276263" lon="9.195728779272303"><ele>34.666666666666664</ele><time>2026-04-03T07:19:47.001Z</time></trkpt><trkpt lat="39.261920322142046" lon="9.195805766110247"><ele>36.0</ele><time>2026-04-03T07:19:48.001Z</time></trkpt><trkpt lat="39.262094936700876" lon="9.195889131634653"><ele>36.0</ele><time>2026-04-03T07:19:49.001Z</time></trkpt><trkpt lat="39.26227596549364" lon="9.195965259452388"><ele>36.0</ele><time>2026-04-03T07:19:50.001Z</time></trkpt><trkpt lat="39.26246092385345" lon="9.196038308368244"><ele>36.0</ele><time>2026-04-03T07:19:51.001Z</time></trkpt><trkpt lat="39.262643829801824" lon="9.196116895920454"><ele>36.333333333333336</ele><time>2026-04-03T07:19:52.001Z</time></trkpt><trkpt lat="39.26283345940415" lon="9.196192129142469"><ele>36.66666666666667</ele><time>2026-04-03T07:19:53.001Z</time></trkpt><trkpt lat="39.26302109218595" lon="9.196267473763799"><ele>37.0</ele><time>2026-04-03T07:19:54.001Z</time></trkpt><trkpt lat="39.263210097566" lon="9.19634115517375"><ele>37.333333333333336</ele><time>2026-04-03T07:19:55.001Z</time></trkpt><trkpt lat="39.26339283172018" lon="9.196416817433738"><ele>37.666666666666664</ele><time>2026-04-03T07:19:56.001Z</time></trkpt><trkpt lat="39.26357376587498" lon="9.196491478337455"><ele>38.0</ele><time>2026-04-03T07:19:57.001Z</time></trkpt><trkpt lat="39.263749395926254" lon="9.196562571079179"><ele>39.0</ele><time>2026-04-03T07:19:58.001Z</time></trkpt><trkpt lat="39.26391497873761" lon="9.196624908634186"><ele>40.0</ele><time>2026-04-03T07:19:59.001Z</time></trkpt><trkpt lat="39.26406888618046" lon="9.196687435475813"><ele>41.0</ele><time>2026-04-03T07:20:00.001Z</time></trkpt><trkpt lat="39.26422698993319" lon="9.196755928146375"><ele>42.0</ele><time>2026-04-03T07:20:01.002Z</time></trkpt><trkpt lat="39.26438419938243" lon="9.196827520268245"><ele>43.0</ele><time>2026-04-03T07:20:02.002Z</time></trkpt><trkpt lat="39.264545853424735" lon="9.19689834883679"><ele>44.0</ele><time>2026-04-03T07:20:03.002Z</time></trkpt><trkpt lat="39.26470973431451" lon="9.196969330326601"><ele>43.666666666666664</ele><time>2026-04-03T07:20:04.002Z</time></trkpt><trkpt lat="39.26488331402473" lon="9.197028294384824"><ele>43.333333333333336</ele><time>2026-04-03T07:20:05.002Z</time></trkpt><trkpt lat="39.26505017268634" lon="9.197098153422251"><ele>43.0</ele><time>2026-04-03T07:20:06.002Z</time></trkpt><trkpt lat="39.26521285549734" lon="9.197175440356872"><ele>43.0</ele><time>2026-04-03T07:20:07.002Z</time></trkpt><trkpt lat="39.26537214967703" lon="9.197255123798751"><ele>43.0</ele><time>2026-04-03T07:20:08.002Z</time></trkpt><trkpt lat="39.265531980513195" lon="9.197336889411865"><ele>43.0</ele><time>2026-04-03T07:20:09.002Z</time></trkpt><trkpt lat="39.265693605662236" lon="9.197429006083835"><ele>44.66666666666667</ele><time>2026-04-03T07:20:10.002Z</time></trkpt><trkpt lat="39.265851327395914" lon="9.197527413486299"><ele>46.333333333333336</ele><time>2026-04-03T07:20:11.002Z</time></trkpt><trkpt lat="39.26601276153506" lon="9.197630541450518"><ele>48.0</ele><time>2026-04-03T07:20:12.002Z</time></trkpt><trkpt lat="39.266173131318695" lon="9.197742081631166"><ele>48.0</ele><time>2026-04-03T07:20:13.002Z</time></trkpt><trkpt lat="39.26633002724123" lon="9.197857723596709"><ele>48.0</ele><time>2026-04-03T07:20:14.002Z</time></trkpt><trkpt lat="39.26647825870619" lon="9.19797620416425"><ele>48.0</ele><time>2026-04-03T07:20:15.002Z</time></trkpt><trkpt lat="39.26662232746067" lon="9.198099478163636"><ele>49.0</ele><time>2026-04-03T07:20:16.002Z</time></trkpt><trkpt lat="39.26676304546919" lon="9.198223671704783"><ele>50.0</ele><time>2026-04-03T07:20:17.002Z</time></trkpt><trkpt lat="39.266902065743984" lon="9.198353584465147"><ele>51.0</ele><time>2026-04-03T07:20:18.002Z</time></trkpt><trkpt lat="39.26703918354919" lon="9.198494790271408"><ele>51.0</ele><time>2026-04-03T07:20:19.002Z</time></trkpt><trkpt lat="39.267173869177036" lon="9.19863842858302"><ele>51.0</ele><time>2026-04-03T07:20:20.002Z</time></trkpt><trkpt lat="39.26729925133991" lon="9.1987831944909"><ele>51.0</ele><time>2026-04-03T07:20:20.999Z</time></trkpt><trkpt lat="39.26742108220756" lon="9.198932306972042"><ele>49.333333333333336</ele><time>2026-04-03T07:20:21.999Z</time></trkpt><trkpt lat="39.26754013422381" lon="9.19909008195648"><ele>47.66666666666667</ele><time>2026-04-03T07:20:22.999Z</time></trkpt><trkpt lat="39.267658706265905" lon="9.199253278304441"><ele>46.0</ele><time>2026-04-03T07:20:23.999Z</time></trkpt><trkpt lat="39.26777515064442" lon="9.19941941986452"><ele>46.0</ele><time>2026-04-03T07:20:24.999Z</time></trkpt><trkpt lat="39.26789114069186" lon="9.19959228884536"><ele>46.0</ele><time>2026-04-03T07:20:26Z</time></trkpt><trkpt lat="39.26800437334459" lon="9.199770210695789"><ele>46.0</ele><time>2026-04-03T07:20:27Z</time></trkpt><trkpt lat="39.26811510068946" lon="9.199952285015643"><ele>44.66666666666667</ele><time>2026-04-03T07:20:28Z</time></trkpt><trkpt lat="39.268223731884824" lon="9.200143394229704"><ele>43.333333333333336</ele><time>2026-04-03T07:20:29Z</time></trkpt><trkpt lat="39.26832551779551" lon="9.200340312097026"><ele>42.0</ele><time>2026-04-03T07:20:30Z</time></trkpt><trkpt lat="39.268424871950685" lon="9.200541758297325"><ele>42.0</ele><time>2026-04-03T07:20:31Z</time></trkpt><trkpt lat="39.26851610166776" lon="9.200737082132644"><ele>42.0</ele><time>2026-04-03T07:20:32Z</time></trkpt><trkpt lat="39.26860068196375" lon="9.200930453271527"><ele>42.0</ele><time>2026-04-03T07:20:33Z</time></trkpt><trkpt lat="39.268680840092465" lon="9.201128523341826"><ele>42.0</ele><time>2026-04-03T07:20:34Z</time></trkpt><trkpt lat="39.26875866232838" lon="9.20132971759262"><ele>42.0</ele><time>2026-04-03T07:20:35Z</time></trkpt><trkpt lat="39.26883203833598" lon="9.201534356591205"><ele>42.0</ele><time>2026-04-03T07:20:36Z</time></trkpt><trkpt lat="39.268895358042855" lon="9.20174216711472"><ele>43.0</ele><time>2026-04-03T07:20:37Z</time></trkpt><trkpt lat="39.26895445473278" lon="9.201955758148738"><ele>44.0</ele><time>2026-04-03T07:20:38Z</time></trkpt><trkpt lat="39.26900777678107" lon="9.202179216384792"><ele>45.0</ele><time>2026-04-03T07:20:39Z</time></trkpt><trkpt lat="39.269059560614146" lon="9.202407584685783"><ele>45.0</ele><time>2026-04-03T07:20:40Z</time></trkpt><trkpt lat="39.26910434280187" lon="9.202636935419536"><ele>45.0</ele><time>2026-04-03T07:20:41Z</time></trkpt><trkpt lat="39.26914858524596" lon="9.202871232588643"><ele>45.0</ele><time>2026-04-03T07:20:42Z</time></trkpt><trkpt lat="39.269189527565665" lon="9.203105825144531"><ele>44.666666666666664</ele><time>2026-04-03T07:20:43Z</time></trkpt><trkpt lat="39.269223564642985" lon="9.203347036826852"><ele>44.33333333333333</ele><time>2026-04-03T07:20:44Z</time></trkpt><trkpt lat="39.269243153881696" lon="9.203584377623448"><ele>44.0</ele><time>2026-04-03T07:20:45Z</time></trkpt><trkpt lat="39.26926990419203" lon="9.203816898619444"><ele>44.33333333333333</ele><time>2026-04-03T07:20:46Z</time></trkpt><trkpt lat="39.269286157980154" lon="9.20404627996911"><ele>44.666666666666664</ele><time>2026-04-03T07:20:47Z</time></trkpt><trkpt lat="39.269298270494154" lon="9.204277083716887"><ele>45.0</ele><time>2026-04-03T07:20:48Z</time></trkpt><trkpt lat="39.269307739747845" lon="9.204506412369824"><ele>45.0</ele><time>2026-04-03T07:20:49Z</time></trkpt><trkpt lat="39.269312971208294" lon="9.204738623801347"><ele>45.0</ele><time>2026-04-03T07:20:50Z</time></trkpt><trkpt lat="39.26931268693043" lon="9.204970017542681"><ele>45.0</ele><time>2026-04-03T07:20:51Z</time></trkpt><trkpt lat="39.269301775229366" lon="9.205202203226747"><ele>46.33333333333333</ele><time>2026-04-03T07:20:52Z</time></trkpt><trkpt lat="39.269285780319045" lon="9.20544084486813"><ele>47.666666666666664</ele><time>2026-04-03T07:20:53.001Z</time></trkpt><trkpt lat="39.269266788342215" lon="9.205680537897832"><ele>49.0</ele><time>2026-04-03T07:20:54.001Z</time></trkpt><trkpt lat="39.26924730077629" lon="9.205920382905903"><ele>49.666666666666664</ele><time>2026-04-03T07:20:55.001Z</time></trkpt><trkpt lat="39.269230095755674" lon="9.20616093257358"><ele>50.33333333333333</ele><time>2026-04-03T07:20:56.001Z</time></trkpt><trkpt lat="39.26921415489854" lon="9.206406055467006"><ele>51.0</ele><time>2026-04-03T07:20:57.001Z</time></trkpt><trkpt lat="39.26920312918809" lon="9.206655184221143"><ele>52.0</ele><time>2026-04-03T07:20:58.001Z</time></trkpt><trkpt lat="39.269193832759605" lon="9.206904960424868"><ele>53.0</ele><time>2026-04-03T07:20:59.001Z</time></trkpt><trkpt lat="39.269156631022845" lon="9.207155784126163"><ele>54.0</ele><time>2026-04-03T07:21:00.001Z</time></trkpt><trkpt lat="39.26913422636616" lon="9.207418654367201"><ele>54.0</ele><time>2026-04-03T07:21:01.001Z</time></trkpt><trkpt lat="39.26911233314753" lon="9.207677020202258"><ele>54.0</ele><time>2026-04-03T07:21:02.001Z</time></trkpt><trkpt lat="39.26909056351711" lon="9.207928947393786"><ele>54.0</ele><time>2026-04-03T07:21:03.001Z</time></trkpt><trkpt lat="39.269082060697755" lon="9.208177583298761"><ele>54.0</ele><time>2026-04-03T07:21:04.001Z</time></trkpt><trkpt lat="39.26905665796527" lon="9.208445603569503"><ele>54.0</ele><time>2026-04-03T07:21:05.001Z</time></trkpt><trkpt lat="39.26903048088429" lon="9.208727631409744"><ele>54.0</ele><time>2026-04-03T07:21:06.001Z</time></trkpt><trkpt lat="39.26900612830915" lon="9.209024028298396"><ele>54.0</ele><time>2026-04-03T07:21:07.001Z</time></trkpt><trkpt lat="39.268981556792475" lon="9.209324503050137"><ele>54.0</ele><time>2026-04-03T07:21:08.001Z</time></trkpt><trkpt lat="39.26895584094687" lon="9.209624128076008"><ele>51.5</ele><time>2026-04-03T07:21:09.001Z</time></trkpt><trkpt lat="39.268931715604865" lon="9.209922544719271"><ele>49.0</ele><time>2026-04-03T07:21:10.001Z</time></trkpt><trkpt lat="39.26889079876789" lon="9.21022208778487"><ele>49.0</ele><time>2026-04-03T07:21:11.001Z</time></trkpt><trkpt lat="39.26888176458618" lon="9.210528349366223"><ele>49.0</ele><time>2026-04-03T07:21:12.001Z</time></trkpt><trkpt lat="39.26883983478313" lon="9.210834127443434"><ele>48.5</ele><time>2026-04-03T07:21:13.001Z</time></trkpt><trkpt lat="39.26881323001526" lon="9.211153630988086"><ele>48.0</ele><time>2026-04-03T07:21:14.001Z</time></trkpt><trkpt lat="39.268785403149536" lon="9.211476982722074"><ele>48.0</ele><time>2026-04-03T07:21:15.001Z</time></trkpt><trkpt lat="39.268768978559386" lon="9.211815325638185"><ele>48.0</ele><time>2026-04-03T07:21:16.001Z</time></trkpt><trkpt lat="39.26873341093063" lon="9.21214089738492"><ele>48.5</ele><time>2026-04-03T07:21:17.001Z</time></trkpt><trkpt lat="39.268686900703855" lon="9.212457687305898"><ele>49.0</ele><time>2026-04-03T07:21:18.001Z</time></trkpt><trkpt lat="39.26863046312505" lon="9.212771527925042"><ele>49.0</ele><time>2026-04-03T07:21:19.001Z</time></trkpt><trkpt lat="39.26856348471757" lon="9.213076755369178"><ele>49.0</ele><time>2026-04-03T07:21:20.001Z</time></trkpt><trkpt lat="39.268491528034914" lon="9.213373356257403"><ele>50.0</ele><time>2026-04-03T07:21:21.001Z</time></trkpt><trkpt lat="39.26841434251944" lon="9.213659900030109"><ele>51.0</ele><time>2026-04-03T07:21:22.001Z</time></trkpt><trkpt lat="39.26833153064187" lon="9.213938304436631"><ele>51.5</ele><time>2026-04-03T07:21:23.001Z</time></trkpt><trkpt lat="39.268238245204735" lon="9.214209268206751"><ele>52.0</ele><time>2026-04-03T07:21:24.002Z</time></trkpt><trkpt lat="39.268140187716526" lon="9.214474604756319"><ele>49.0</ele><time>2026-04-03T07:21:25.002Z</time></trkpt><trkpt lat="39.268036831280114" lon="9.214735323247535"><ele>46.0</ele><time>2026-04-03T07:21:26.002Z</time></trkpt><trkpt lat="39.26792535490235" lon="9.214990251927768"><ele>46.0</ele><time>2026-04-03T07:21:27.002Z</time></trkpt><trkpt lat="39.26780911570127" lon="9.215239613663972"><ele>46.0</ele><time>2026-04-03T07:21:28.002Z</time></trkpt><trkpt lat="39.26768787265079" lon="9.2154816602513"><ele>46.0</ele><time>2026-04-03T07:21:29.002Z</time></trkpt><trkpt lat="39.26755966240141" lon="9.215714993149435"><ele>46.0</ele><time>2026-04-03T07:21:30.002Z</time></trkpt><trkpt lat="39.26742284709773" lon="9.215938824173355"><ele>46.0</ele><time>2026-04-03T07:21:31.002Z</time></trkpt><trkpt lat="39.26728192127654" lon="9.216153822077365"><ele>46.0</ele><time>2026-04-03T07:21:32.002Z</time></trkpt><trkpt lat="39.26714636687923" lon="9.216349099667777"><ele>45.66666666666667</ele><time>2026-04-03T07:21:33.002Z</time></trkpt><trkpt lat="39.26701454924836" lon="9.216533779828703"><ele>45.333333333333336</ele><time>2026-04-03T07:21:34.002Z</time></trkpt><trkpt lat="39.266876178396615" lon="9.216714909100078"><ele>45.0</ele><time>2026-04-03T07:21:35.002Z</time></trkpt><trkpt lat="39.26672599274558" lon="9.216890063838338"><ele>45.0</ele><time>2026-04-03T07:21:36.002Z</time></trkpt><trkpt lat="39.2665716961528" lon="9.217061205749253"><ele>45.0</ele><time>2026-04-03T07:21:37.002Z</time></trkpt><trkpt lat="39.26641376311184" lon="9.217222780892913"><ele>45.0</ele><time>2026-04-03T07:21:38.002Z</time></trkpt><trkpt lat="39.266257222675016" lon="9.21737884685145"><ele>44.333333333333336</ele><time>2026-04-03T07:21:39.002Z</time></trkpt><trkpt lat="39.26609764712628" lon="9.217531847117604"><ele>43.66666666666667</ele><time>2026-04-03T07:21:40.002Z</time></trkpt><trkpt lat="39.26594168841302" lon="9.217686397272404"><ele>43.0</ele><time>2026-04-03T07:21:41.002Z</time></trkpt><trkpt lat="39.265792441234744" lon="9.217833506537541"><ele>43.0</ele><time>2026-04-03T07:21:42.002Z</time></trkpt><trkpt lat="39.265647822966145" lon="9.217978915026938"><ele>43.0</ele><time>2026-04-03T07:21:43.002Z</time></trkpt><trkpt lat="39.26550299468475" lon="9.218127115467217"><ele>43.0</ele><time>2026-04-03T07:21:44.002Z</time></trkpt><trkpt lat="39.26535466315732" lon="9.218274195270935"><ele>43.333333333333336</ele><time>2026-04-03T07:21:45.002Z</time></trkpt><trkpt lat="39.265207103706835" lon="9.218422432823777"><ele>43.666666666666664</ele><time>2026-04-03T07:21:46.002Z</time></trkpt><trkpt lat="39.265058892695144" lon="9.218569159879864"><ele>44.0</ele><time>2026-04-03T07:21:47.002Z</time></trkpt><trkpt lat="39.26491146099359" lon="9.218722354944978"><ele>44.0</ele><time>2026-04-03T07:21:48.002Z</time></trkpt><trkpt lat="39.26475905952717" lon="9.218875188075167"><ele>44.0</ele><time>2026-04-03T07:21:49.002Z</time></trkpt><trkpt lat="39.26460833816416" lon="9.219030663030281"><ele>44.0</ele><time>2026-04-03T07:21:50.002Z</time></trkpt><trkpt lat="39.26445265308165" lon="9.219176285070779"><ele>45.666666666666664</ele><time>2026-04-03T07:21:51.002Z</time></trkpt><trkpt lat="39.26429697239792" lon="9.219329078267563"><ele>47.33333333333333</ele><time>2026-04-03T07:21:52.002Z</time></trkpt><trkpt lat="39.26414399634963" lon="9.219479030069897"><ele>49.0</ele><time>2026-04-03T07:21:53.002Z</time></trkpt><trkpt lat="39.263989588879625" lon="9.219628001901043"><ele>49.666666666666664</ele><time>2026-04-03T07:21:54.002Z</time></trkpt><trkpt lat="39.263839563612436" lon="9.21977627637384"><ele>50.33333333333333</ele><time>2026-04-03T07:21:55.002Z</time></trkpt><trkpt lat="39.26369071776511" lon="9.219926264571637"><ele>51.0</ele><time>2026-04-03T07:21:56.002Z</time></trkpt><trkpt lat="39.263538996063474" lon="9.220075376512659"><ele>51.0</ele><time>2026-04-03T07:21:57.002Z</time></trkpt><trkpt lat="39.26338770624051" lon="9.220222754928331"><ele>51.0</ele><time>2026-04-03T07:21:58.003Z</time></trkpt><trkpt lat="39.26323762898404" lon="9.220365423414128"><ele>51.0</ele><time>2026-04-03T07:21:59.003Z</time></trkpt><trkpt lat="39.26308858586009" lon="9.22051405022956"><ele>50.66666666666667</ele><time>2026-04-03T07:22:00.003Z</time></trkpt><trkpt lat="39.262943710066764" lon="9.220677387502281"><ele>50.333333333333336</ele><time>2026-04-03T07:22:01.003Z</time></trkpt><trkpt lat="39.2627980713227" lon="9.220842736116785"><ele>50.0</ele><time>2026-04-03T07:22:02.003Z</time></trkpt><trkpt lat="39.26265572264857" lon="9.221017098713462"><ele>50.0</ele><time>2026-04-03T07:22:03.003Z</time></trkpt><trkpt lat="39.26251680461713" lon="9.221197399282596"><ele>50.0</ele><time>2026-04-03T07:22:04.003Z</time></trkpt><trkpt lat="39.26238193489016" lon="9.221389842243912"><ele>50.0</ele><time>2026-04-03T07:22:05.003Z</time></trkpt><trkpt lat="39.26225178183268" lon="9.221587129811045"><ele>48.0</ele><time>2026-04-03T07:22:06.003Z</time></trkpt><trkpt lat="39.26212388029822" lon="9.221788861300581"><ele>46.0</ele><time>2026-04-03T07:22:07.003Z</time></trkpt><trkpt lat="39.26200851090401" lon="9.222003662622871"><ele>44.0</ele><time>2026-04-03T07:22:08.003Z</time></trkpt><trkpt lat="39.2618932803349" lon="9.222222366400539"><ele>45.0</ele><time>2026-04-03T07:22:09.003Z</time></trkpt><trkpt lat="39.261779801972935" lon="9.222441715495268"><ele>46.0</ele><time>2026-04-03T07:22:10.003Z</time></trkpt><trkpt lat="39.261671897326" lon="9.222667159305855"><ele>47.0</ele><time>2026-04-03T07:22:11.003Z</time></trkpt><trkpt lat="39.26156744847569" lon="9.222896845086552"><ele>47.0</ele><time>2026-04-03T07:22:12.003Z</time></trkpt><trkpt lat="39.26147139785911" lon="9.223131298867036"><ele>47.0</ele><time>2026-04-03T07:22:13.003Z</time></trkpt><trkpt lat="39.2613803076162" lon="9.223373175168609"><ele>47.0</ele><time>2026-04-03T07:22:14.003Z</time></trkpt><trkpt lat="39.26129638798064" lon="9.22361777522708"><ele>46.666666666666664</ele><time>2026-04-03T07:22:15.003Z</time></trkpt><trkpt lat="39.26121994454768" lon="9.223865105744487"><ele>46.333333333333336</ele><time>2026-04-03T07:22:16.003Z</time></trkpt><trkpt lat="39.26115278448525" lon="9.22411413568214"><ele>46.0</ele><time>2026-04-03T07:22:17.003Z</time></trkpt><trkpt lat="39.26109012261068" lon="9.224364914402116"><ele>46.0</ele><time>2026-04-03T07:22:18.003Z</time></trkpt><trkpt lat="39.26102799991568" lon="9.224617236406742"><ele>46.0</ele><time>2026-04-03T07:22:19.003Z</time></trkpt><trkpt lat="39.260972936227894" lon="9.224870403516418"><ele>46.0</ele><time>2026-04-03T07:22:20.003Z</time></trkpt><trkpt lat="39.260923623008196" lon="9.225127092854095"><ele>46.0</ele><time>2026-04-03T07:22:21.003Z</time></trkpt><trkpt lat="39.260883623736696" lon="9.225387272897025"><ele>46.0</ele><time>2026-04-03T07:22:22.003Z</time></trkpt><trkpt lat="39.26085182414344" lon="9.225653211878042"><ele>46.0</ele><time>2026-04-03T07:22:23.003Z</time></trkpt><trkpt lat="39.26082485328918" lon="9.225917420648335"><ele>46.0</ele><time>2026-04-03T07:22:24.003Z</time></trkpt><trkpt lat="39.26080656981663" lon="9.226181297325963"><ele>46.0</ele><time>2026-04-03T07:22:25.003Z</time></trkpt><trkpt lat="39.26079535376541" lon="9.226445025714247"><ele>46.0</ele><time>2026-04-03T07:22:26.003Z</time></trkpt><trkpt lat="39.26079223435454" lon="9.226709901338586"><ele>46.333333333333336</ele><time>2026-04-03T07:22:27.001Z</time></trkpt><trkpt lat="39.26079581126197" lon="9.22697592920953"><ele>46.666666666666664</ele><time>2026-04-03T07:22:28.001Z</time></trkpt><trkpt lat="39.260807318807956" lon="9.227239809048545"><ele>47.0</ele><time>2026-04-03T07:22:29.001Z</time></trkpt><trkpt lat="39.26082641826257" lon="9.227502421357226"><ele>47.33333333333333</ele><time>2026-04-03T07:22:30.001Z</time></trkpt><trkpt lat="39.26084431298776" lon="9.22776262255294"><ele>47.666666666666664</ele><time>2026-04-03T07:22:31.001Z</time></trkpt><trkpt lat="39.26086474620593" lon="9.228022245609424"><ele>48.0</ele><time>2026-04-03T07:22:32.001Z</time></trkpt><trkpt lat="39.26088555819557" lon="9.228280776744644"><ele>49.66666666666667</ele><time>2026-04-03T07:22:33.001Z</time></trkpt><trkpt lat="39.26090268386248" lon="9.22853483287273"><ele>51.333333333333336</ele><time>2026-04-03T07:22:34.001Z</time></trkpt><trkpt lat="39.260919160650246" lon="9.228778143362264"><ele>53.0</ele><time>2026-04-03T07:22:35.001Z</time></trkpt><trkpt lat="39.260936322119186" lon="9.229006705718207"><ele>53.333333333333336</ele><time>2026-04-03T07:22:36.001Z</time></trkpt><trkpt lat="39.260949835539854" lon="9.229230362234667"><ele>53.66666666666667</ele><time>2026-04-03T07:22:37.001Z</time></trkpt><trkpt lat="39.260963891332814" lon="9.229452040091063"><ele>54.0</ele><time>2026-04-03T07:22:38.001Z</time></trkpt><trkpt lat="39.260980396917944" lon="9.229674740519403"><ele>52.66666666666667</ele><time>2026-04-03T07:22:39.001Z</time></trkpt><trkpt lat="39.26099653567462" lon="9.229900324324023"><ele>51.333333333333336</ele><time>2026-04-03T07:22:40.001Z</time></trkpt><trkpt lat="39.26101533462955" lon="9.230126355049594"><ele>50.0</ele><time>2026-04-03T07:22:41.001Z</time></trkpt><trkpt lat="39.261030868668406" lon="9.230347529836138"><ele>50.0</ele><time>2026-04-03T07:22:42.001Z</time></trkpt><trkpt lat="39.261045348538985" lon="9.230574911658245"><ele>50.0</ele><time>2026-04-03T07:22:43.001Z</time></trkpt><trkpt lat="39.26106927672261" lon="9.230800290603515"><ele>50.0</ele><time>2026-04-03T07:22:44.001Z</time></trkpt><trkpt lat="39.26109398692191" lon="9.231028279551072"><ele>49.333333333333336</ele><time>2026-04-03T07:22:45.001Z</time></trkpt><trkpt lat="39.261122799787834" lon="9.231257277153183"><ele>48.66666666666667</ele><time>2026-04-03T07:22:46Z</time></trkpt><trkpt lat="39.26115444948213" lon="9.23148685811871"><ele>48.0</ele><time>2026-04-03T07:22:47Z</time></trkpt><trkpt lat="39.26118577231328" lon="9.231720802369662"><ele>47.333333333333336</ele><time>2026-04-03T07:22:48Z</time></trkpt><trkpt lat="39.261214041058665" lon="9.23194909354907"><ele>46.66666666666667</ele><time>2026-04-03T07:22:49Z</time></trkpt><trkpt lat="39.261245808065325" lon="9.232176590062283"><ele>46.0</ele><time>2026-04-03T07:22:50Z</time></trkpt><trkpt lat="39.26127499717412" lon="9.23239950343996"><ele>45.66666666666667</ele><time>2026-04-03T07:22:51Z</time></trkpt><trkpt lat="39.26130834002098" lon="9.232627281870608"><ele>45.333333333333336</ele><time>2026-04-03T07:22:52Z</time></trkpt><trkpt lat="39.26133895321868" lon="9.232858879101533"><ele>45.0</ele><time>2026-04-03T07:22:53Z</time></trkpt><trkpt lat="39.261367211673594" lon="9.233090249529097"><ele>44.666666666666664</ele><time>2026-04-03T07:22:54Z</time></trkpt><trkpt lat="39.26139533653697" lon="9.23332124827618"><ele>44.33333333333333</ele><time>2026-04-03T07:22:55.001Z</time></trkpt><trkpt lat="39.26142225088559" lon="9.233547750166062"><ele>44.0</ele><time>2026-04-03T07:22:56.001Z</time></trkpt><trkpt lat="39.26145052707188" lon="9.233763434974929"><ele>44.0</ele><time>2026-04-03T07:22:57.001Z</time></trkpt><trkpt lat="39.26147814577865" lon="9.233965878615798"><ele>44.0</ele><time>2026-04-03T07:22:58.001Z</time></trkpt><trkpt lat="39.26150406833181" lon="9.234160308399728"><ele>44.0</ele><time>2026-04-03T07:22:59.001Z</time></trkpt><trkpt lat="39.26153119271691" lon="9.234343491576208"><ele>44.0</ele><time>2026-04-03T07:23:00.001Z</time></trkpt><trkpt lat="39.261550841023876" lon="9.234512814370206"><ele>44.0</ele><time>2026-04-03T07:23:01.001Z</time></trkpt><trkpt lat="39.26157566525376" lon="9.234670926776964"><ele>44.0</ele><time>2026-04-03T07:23:02.001Z</time></trkpt><trkpt lat="39.26159730999096" lon="9.234808144769305"><ele>44.0</ele><time>2026-04-03T07:23:03.001Z</time></trkpt><trkpt lat="39.26161319444248" lon="9.234930569901282"><ele>44.0</ele><time>2026-04-03T07:23:04.001Z</time></trkpt><trkpt lat="39.261624314812536" lon="9.23504499412794"><ele>44.0</ele><time>2026-04-03T07:23:05.001Z</time></trkpt><trkpt lat="39.26163894772103" lon="9.23514797844949"><ele>44.0</ele><time>2026-04-03T07:23:06.001Z</time></trkpt><trkpt lat="39.26165021895441" lon="9.235230775638714"><ele>44.0</ele><time>2026-04-03T07:23:07.001Z</time></trkpt><trkpt lat="39.26166913083769" lon="9.23535680293018"><ele>44.0</ele><time>2026-04-03T07:23:09.001Z</time></trkpt><trkpt lat="39.261686428563266" lon="9.235462359729656"><ele>44.0</ele><time>2026-04-03T07:23:11.001Z</time></trkpt><trkpt lat="39.2617436772221" lon="9.235544745507989"><ele>44.0</ele><time>2026-04-03T07:23:14.001Z</time></trkpt><trkpt lat="39.261808971248655" lon="9.235574748588899"><ele>44.0</ele><time>2026-04-03T07:23:16.001Z</time></trkpt><trkpt lat="39.26187672400627" lon="9.235534879954198"><ele>44.0</ele><time>2026-04-03T07:23:18.001Z</time></trkpt><trkpt lat="39.261967472666576" lon="9.235653925114566"><ele>44.0</ele><time>2026-04-03T07:23:21.001Z</time></trkpt><trkpt lat="39.261972870703204" lon="9.23578337172343"><ele>44.0</ele><time>2026-04-03T07:23:23.001Z</time></trkpt><trkpt lat="39.26198213297801" lon="9.235891072596289"><ele>44.0</ele><time>2026-04-03T07:23:25.001Z</time></trkpt><trkpt lat="39.2619879592264" lon="9.235985492447584"><ele>44.0</ele><time>2026-04-03T07:23:27.001Z</time></trkpt><trkpt lat="39.261941256850974" lon="9.236040927448233"><ele>44.0</ele><time>2026-04-03T07:23:31.001Z</time></trkpt><trkpt lat="39.261874756094294" lon="9.236023647278401"><ele>44.0</ele><time>2026-04-03T07:32:32.001Z</time></trkpt><trkpt lat="39.26179465416994" lon="9.236041846225648"><ele>44.0</ele><time>2026-04-03T07:32:56.001Z</time></trkpt><trkpt lat="39.261793938637574" lon="9.23628146984536"><ele>44.0</ele><time>2026-04-03T07:32:57.999Z</time></trkpt><trkpt lat="39.26179789545203" lon="9.236387789248107"><ele>44.0</ele><time>2026-04-03T07:32:58.999Z</time></trkpt><trkpt lat="39.261808369082694" lon="9.236511701916282"><ele>44.0</ele><time>2026-04-03T07:32:59.999Z</time></trkpt><trkpt lat="39.261831431282474" lon="9.236651241383383"><ele>44.0</ele><time>2026-04-03T07:33:00.999Z</time></trkpt><trkpt lat="39.26185354184839" lon="9.236830088036166"><ele>44.0</ele><time>2026-04-03T07:33:01.999Z</time></trkpt><trkpt lat="39.26187819735424" lon="9.237018528544963"><ele>44.0</ele><time>2026-04-03T07:33:02.999Z</time></trkpt><trkpt lat="39.26190509004968" lon="9.237217950079799"><ele>44.0</ele><time>2026-04-03T07:33:03.999Z</time></trkpt><trkpt lat="39.26193820491122" lon="9.23741803222656"><ele>44.0</ele><time>2026-04-03T07:33:04.999Z</time></trkpt><trkpt lat="39.26196354785838" lon="9.23760603801704"><ele>44.0</ele><time>2026-04-03T07:33:05.999Z</time></trkpt><trkpt lat="39.261986180679195" lon="9.237785285866455"><ele>44.0</ele><time>2026-04-03T07:33:06.999Z</time></trkpt><trkpt lat="39.26200672681717" lon="9.237955289978492"><ele>44.0</ele><time>2026-04-03T07:33:07.999Z</time></trkpt><trkpt lat="39.2620217406092" lon="9.238117590907704"><ele>44.0</ele><time>2026-04-03T07:33:08.999Z</time></trkpt><trkpt lat="39.262033117914356" lon="9.238275768213718"><ele>43.6</ele><time>2026-04-03T07:33:09.999Z</time></trkpt><trkpt lat="39.262026704749005" lon="9.238432570166376"><ele>43.2</ele><time>2026-04-03T07:33:10.999Z</time></trkpt><trkpt lat="39.26200189210518" lon="9.238574111684965"><ele>42.800000000000004</ele><time>2026-04-03T07:33:11.999Z</time></trkpt><trkpt lat="39.26197755417686" lon="9.238694849507969"><ele>42.400000000000006</ele><time>2026-04-03T07:33:12.999Z</time></trkpt><trkpt lat="39.26198584356895" lon="9.238800863214957"><ele>42.0</ele><time>2026-04-03T07:33:13.999Z</time></trkpt><trkpt lat="39.26202011509595" lon="9.23888490695519"><ele>41.5</ele><time>2026-04-03T07:33:14.999Z</time></trkpt><trkpt lat="39.262075235684875" lon="9.238973594249"><ele>41.0</ele><time>2026-04-03T07:33:15.999Z</time></trkpt><trkpt lat="39.26213033558729" lon="9.2390976831535"><ele>40.5</ele><time>2026-04-03T07:33:16.999Z</time></trkpt><trkpt lat="39.262157106718" lon="9.239248583497478"><ele>40.0</ele><time>2026-04-03T07:33:17.999Z</time></trkpt><trkpt lat="39.26217320347152" lon="9.239421360761249"><ele>40.0</ele><time>2026-04-03T07:33:18.999Z</time></trkpt><trkpt lat="39.26219068286836" lon="9.239584954028539"><ele>40.0</ele><time>2026-04-03T07:33:19.999Z</time></trkpt><trkpt lat="39.262213710858454" lon="9.239749757090118"><ele>40.0</ele><time>2026-04-03T07:33:20.999Z</time></trkpt><trkpt lat="39.262237467630136" lon="9.239926416022868"><ele>40.0</ele><time>2026-04-03T07:33:21.999Z</time></trkpt><trkpt lat="39.26226610861257" lon="9.240113644976315"><ele>41.0</ele><time>2026-04-03T07:33:22.999Z</time></trkpt><trkpt lat="39.26229023069316" lon="9.240313321568424"><ele>42.0</ele><time>2026-04-03T07:33:23.999Z</time></trkpt><trkpt lat="39.26231897671515" lon="9.240513724248322"><ele>43.0</ele><time>2026-04-03T07:33:24.999Z</time></trkpt><trkpt lat="39.262346772930265" lon="9.24072749820602"><ele>43.0</ele><time>2026-04-03T07:33:25.999Z</time></trkpt><trkpt lat="39.26237478157361" lon="9.240939896829241"><ele>43.0</ele><time>2026-04-03T07:33:26.999Z</time></trkpt><trkpt lat="39.26240509323164" lon="9.241156186689468"><ele>43.0</ele><time>2026-04-03T07:33:28Z</time></trkpt><trkpt lat="39.262435439896734" lon="9.241368019015033"><ele>43.0</ele><time>2026-04-03T07:33:29Z</time></trkpt><trkpt lat="39.26246023149068" lon="9.24158040003946"><ele>43.0</ele><time>2026-04-03T07:33:30Z</time></trkpt><trkpt lat="39.26248807143006" lon="9.24179759692114"><ele>43.0</ele><time>2026-04-03T07:33:31Z</time></trkpt><trkpt lat="39.262516954954556" lon="9.242015068560901"><ele>43.0</ele><time>2026-04-03T07:33:32Z</time></trkpt><trkpt lat="39.262548279459565" lon="9.242233278780798"><ele>43.0</ele><time>2026-04-03T07:33:33Z</time></trkpt><trkpt lat="39.26257919736055" lon="9.242454721500279"><ele>43.0</ele><time>2026-04-03T07:33:34Z</time></trkpt><trkpt lat="39.26260443406871" lon="9.242677970702431"><ele>43.0</ele><time>2026-04-03T07:33:35Z</time></trkpt><trkpt lat="39.262632357970276" lon="9.242904658696073"><ele>43.0</ele><time>2026-04-03T07:33:36Z</time></trkpt><trkpt lat="39.26266240861545" lon="9.243134581670422"><ele>43.0</ele><time>2026-04-03T07:33:37Z</time></trkpt><trkpt lat="39.262700791074096" lon="9.243361453450348"><ele>43.333333333333336</ele><time>2026-04-03T07:33:38Z</time></trkpt><trkpt lat="39.26273989784794" lon="9.243596809968816"><ele>43.666666666666664</ele><time>2026-04-03T07:33:39Z</time></trkpt><trkpt lat="39.26277271394103" lon="9.243831490658735"><ele>44.0</ele><time>2026-04-03T07:33:40Z</time></trkpt><trkpt lat="39.26279988183935" lon="9.244064641790501"><ele>44.0</ele><time>2026-04-03T07:33:41Z</time></trkpt><trkpt lat="39.262826391053196" lon="9.244300481925448"><ele>44.0</ele><time>2026-04-03T07:33:42Z</time></trkpt><trkpt lat="39.26285298410456" lon="9.244523473454828"><ele>44.0</ele><time>2026-04-03T07:33:43Z</time></trkpt><trkpt lat="39.26289533358037" lon="9.24475854405017"><ele>44.33333333333333</ele><time>2026-04-03T07:33:44Z</time></trkpt><trkpt lat="39.2629356301711" lon="9.245017792038317"><ele>44.666666666666664</ele><time>2026-04-03T07:33:45Z</time></trkpt><trkpt lat="39.26296239000811" lon="9.245293644520892"><ele>45.0</ele><time>2026-04-03T07:33:46Z</time></trkpt><trkpt lat="39.262983980811654" lon="9.245566040021739"><ele>46.0</ele><time>2026-04-03T07:33:47Z</time></trkpt><trkpt lat="39.263017129851946" lon="9.245827565121882"><ele>47.0</ele><time>2026-04-03T07:33:48Z</time></trkpt><trkpt lat="39.26305684117534" lon="9.246085718449084"><ele>48.0</ele><time>2026-04-03T07:33:49Z</time></trkpt><trkpt lat="39.26309009378226" lon="9.246347456980901"><ele>48.66666666666667</ele><time>2026-04-03T07:33:50Z</time></trkpt><trkpt lat="39.26312061820012" lon="9.246603689516949"><ele>49.333333333333336</ele><time>2026-04-03T07:33:51Z</time></trkpt><trkpt lat="39.26315432680658" lon="9.246854651661506"><ele>50.0</ele><time>2026-04-03T07:33:52Z</time></trkpt><trkpt lat="39.26318266310323" lon="9.247101220606318"><ele>49.66666666666667</ele><time>2026-04-03T07:33:53Z</time></trkpt><trkpt lat="39.263204123943076" lon="9.247328566048859"><ele>49.33333333333333</ele><time>2026-04-03T07:33:54Z</time></trkpt><trkpt lat="39.26320316781515" lon="9.247548989032369"><ele>49.0</ele><time>2026-04-03T07:33:55Z</time></trkpt><trkpt lat="39.2631942581318" lon="9.247773518633192"><ele>49.0</ele><time>2026-04-03T07:33:56Z</time></trkpt><trkpt lat="39.26316425598344" lon="9.248007010735929"><ele>49.0</ele><time>2026-04-03T07:33:57Z</time></trkpt><trkpt lat="39.26311794855792" lon="9.248247449281465"><ele>49.0</ele><time>2026-04-03T07:33:58Z</time></trkpt><trkpt lat="39.263066487580524" lon="9.248497580901715"><ele>49.666666666666664</ele><time>2026-04-03T07:33:59Z</time></trkpt><trkpt lat="39.26300941371395" lon="9.248746996067437"><ele>50.33333333333333</ele><time>2026-04-03T07:34:00Z</time></trkpt><trkpt lat="39.26295170690746" lon="9.248990171970222"><ele>51.0</ele><time>2026-04-03T07:34:01Z</time></trkpt><trkpt lat="39.2628971031542" lon="9.249230544043948"><ele>51.33333333333333</ele><time>2026-04-03T07:34:02Z</time></trkpt><trkpt lat="39.262850161875896" lon="9.249465027514256"><ele>51.666666666666664</ele><time>2026-04-03T07:34:03Z</time></trkpt><trkpt lat="39.26280064776049" lon="9.249694558494125"><ele>52.0</ele><time>2026-04-03T07:34:04Z</time></trkpt><trkpt lat="39.26275488339877" lon="9.249908131807976"><ele>54.0</ele><time>2026-04-03T07:34:05Z</time></trkpt><trkpt lat="39.26270169043965" lon="9.250112238634676"><ele>56.0</ele><time>2026-04-03T07:34:06Z</time></trkpt><trkpt lat="39.26265389435784" lon="9.250310741228471"><ele>58.0</ele><time>2026-04-03T07:34:07Z</time></trkpt><trkpt lat="39.26260623191235" lon="9.250508455622402"><ele>58.0</ele><time>2026-04-03T07:34:08Z</time></trkpt><trkpt lat="39.26255720006692" lon="9.250691069072039"><ele>58.0</ele><time>2026-04-03T07:34:09Z</time></trkpt><trkpt lat="39.262513127397895" lon="9.250862854413473"><ele>58.0</ele><time>2026-04-03T07:34:10Z</time></trkpt><trkpt lat="39.26247363069938" lon="9.251028540459314"><ele>58.0</ele><time>2026-04-03T07:34:11Z</time></trkpt><trkpt lat="39.26244045288012" lon="9.251181337504981"><ele>58.0</ele><time>2026-04-03T07:34:12Z</time></trkpt><trkpt lat="39.262397178619416" lon="9.25132619015163"><ele>58.0</ele><time>2026-04-03T07:34:13Z</time></trkpt><trkpt lat="39.26234230757071" lon="9.251468815737377"><ele>58.0</ele><time>2026-04-03T07:34:14Z</time></trkpt><trkpt lat="39.26227435003127" lon="9.251605875256793"><ele>58.0</ele><time>2026-04-03T07:34:15Z</time></trkpt><trkpt lat="39.26219901915973" lon="9.251733651662196"><ele>59.75</ele><time>2026-04-03T07:34:16Z</time></trkpt><trkpt lat="39.26211148726086" lon="9.251862374696223"><ele>61.5</ele><time>2026-04-03T07:34:17Z</time></trkpt><trkpt lat="39.26201672852571" lon="9.251990179474255"><ele>63.25</ele><time>2026-04-03T07:34:18Z</time></trkpt><trkpt lat="39.261914025737916" lon="9.252112290195297"><ele>65.0</ele><time>2026-04-03T07:34:19Z</time></trkpt><trkpt lat="39.261803543396034" lon="9.252237126447135"><ele>64.5</ele><time>2026-04-03T07:34:20Z</time></trkpt><trkpt lat="39.26169643278375" lon="9.25235777534974"><ele>64.0</ele><time>2026-04-03T07:34:21Z</time></trkpt><trkpt lat="39.26158984855087" lon="9.252486757897984"><ele>63.5</ele><time>2026-04-03T07:34:22Z</time></trkpt><trkpt lat="39.26148148402449" lon="9.252612248143844"><ele>63.0</ele><time>2026-04-03T07:34:23Z</time></trkpt><trkpt lat="39.261361825436666" lon="9.252735040447389"><ele>62.66666666666667</ele><time>2026-04-03T07:34:24Z</time></trkpt><trkpt lat="39.26125370563553" lon="9.252873206118727"><ele>62.333333333333336</ele><time>2026-04-03T07:34:25Z</time></trkpt><trkpt lat="39.26114225025841" lon="9.253004311895838"><ele>62.0</ele><time>2026-04-03T07:34:26Z</time></trkpt><trkpt lat="39.261031346974775" lon="9.253137251148898"><ele>63.5</ele><time>2026-04-03T07:34:27Z</time></trkpt><trkpt lat="39.26092226738406" lon="9.25326857580279"><ele>65.0</ele><time>2026-04-03T07:34:28Z</time></trkpt><trkpt lat="39.2608139161485" lon="9.253398527059607"><ele>66.5</ele><time>2026-04-03T07:34:29Z</time></trkpt><trkpt lat="39.2607065400278" lon="9.253521988671368"><ele>68.0</ele><time>2026-04-03T07:34:30Z</time></trkpt><trkpt lat="39.26060372864035" lon="9.253639932625694"><ele>68.25</ele><time>2026-04-03T07:34:31Z</time></trkpt><trkpt lat="39.260497260895484" lon="9.253755217648594"><ele>68.5</ele><time>2026-04-03T07:34:32Z</time></trkpt><trkpt lat="39.260393843418385" lon="9.25387581850665"><ele>68.75</ele><time>2026-04-03T07:34:33Z</time></trkpt><trkpt lat="39.260290081568186" lon="9.253996671418998"><ele>69.0</ele><time>2026-04-03T07:34:34Z</time></trkpt><trkpt lat="39.26018923910257" lon="9.254121346849711"><ele>69.0</ele><time>2026-04-03T07:34:35Z</time></trkpt><trkpt lat="39.26008861639177" lon="9.254247070019435"><ele>69.0</ele><time>2026-04-03T07:34:36Z</time></trkpt><trkpt lat="39.25999400457009" lon="9.254376914090997"><ele>69.0</ele><time>2026-04-03T07:34:37Z</time></trkpt><trkpt lat="39.25990022543737" lon="9.25451376157811"><ele>69.0</ele><time>2026-04-03T07:34:38Z</time></trkpt><trkpt lat="39.25981887980234" lon="9.254668808936957"><ele>69.25</ele><time>2026-04-03T07:34:39Z</time></trkpt><trkpt lat="39.25974057621846" lon="9.2548236605131"><ele>69.5</ele><time>2026-04-03T07:34:40Z</time></trkpt><trkpt lat="39.25967087712099" lon="9.254987465792809"><ele>69.75</ele><time>2026-04-03T07:34:41Z</time></trkpt><trkpt lat="39.25961553506592" lon="9.255162604713666"><ele>70.0</ele><time>2026-04-03T07:34:42Z</time></trkpt><trkpt lat="39.25957104466902" lon="9.255365845628795"><ele>70.0</ele><time>2026-04-03T07:34:43Z</time></trkpt><trkpt lat="39.259527312099465" lon="9.255599372495778"><ele>70.0</ele><time>2026-04-03T07:34:44Z</time></trkpt><trkpt lat="39.2594585027386" lon="9.255827451600412"><ele>70.0</ele><time>2026-04-03T07:34:45Z</time></trkpt><trkpt lat="39.25939014215323" lon="9.256033079756392"><ele>70.25</ele><time>2026-04-03T07:34:46Z</time></trkpt><trkpt lat="39.25933322046556" lon="9.256223556491687"><ele>70.5</ele><time>2026-04-03T07:34:47Z</time></trkpt><trkpt lat="39.2592888088629" lon="9.256401762082449"><ele>70.75</ele><time>2026-04-03T07:34:48Z</time></trkpt><trkpt lat="39.2592532936678" lon="9.25657317900087"><ele>71.0</ele><time>2026-04-03T07:34:49Z</time></trkpt><trkpt lat="39.25922444598396" lon="9.256760796951509"><ele>71.25</ele><time>2026-04-03T07:34:50Z</time></trkpt><trkpt lat="39.25919735655494" lon="9.256944094595966"><ele>71.5</ele><time>2026-04-03T07:34:51Z</time></trkpt><trkpt lat="39.25915496065601" lon="9.257111760815862"><ele>71.75</ele><time>2026-04-03T07:34:52Z</time></trkpt><trkpt lat="39.2591047845418" lon="9.257294671125985"><ele>72.0</ele><time>2026-04-03T07:34:53Z</time></trkpt><trkpt lat="39.259059245189334" lon="9.257481951106064"><ele>73.0</ele><time>2026-04-03T07:34:54Z</time></trkpt><trkpt lat="39.25902067095634" lon="9.257670789893297"><ele>74.0</ele><time>2026-04-03T07:34:55Z</time></trkpt><trkpt lat="39.25898252079361" lon="9.257857013986982"><ele>75.0</ele><time>2026-04-03T07:34:56Z</time></trkpt><trkpt lat="39.258949558417946" lon="9.258053933364636"><ele>73.33333333333333</ele><time>2026-04-03T07:34:57Z</time></trkpt><trkpt lat="39.25892985156348" lon="9.258259541410656"><ele>71.66666666666666</ele><time>2026-04-03T07:34:58Z</time></trkpt><trkpt lat="39.258925664185114" lon="9.25846817404162"><ele>70.0</ele><time>2026-04-03T07:34:59Z</time></trkpt><trkpt lat="39.25892626781343" lon="9.258679779992903"><ele>70.0</ele><time>2026-04-03T07:35:00Z</time></trkpt><trkpt lat="39.25893138227983" lon="9.258888623371654"><ele>70.0</ele><time>2026-04-03T07:35:01Z</time></trkpt><trkpt lat="39.25893927387063" lon="9.259091632446156"><ele>70.0</ele><time>2026-04-03T07:35:02Z</time></trkpt><trkpt lat="39.25895619216048" lon="9.25927832364429"><ele>70.0</ele><time>2026-04-03T07:35:02.998Z</time></trkpt><trkpt lat="39.2589675864409" lon="9.25943802387742"><ele>70.0</ele><time>2026-04-03T07:35:03.998Z</time></trkpt><trkpt lat="39.25896870616264" lon="9.259608252499843"><ele>70.0</ele><time>2026-04-03T07:35:04.998Z</time></trkpt><trkpt lat="39.258977722783804" lon="9.259810984598818"><ele>70.0</ele><time>2026-04-03T07:35:05.998Z</time></trkpt><trkpt lat="39.25899614710669" lon="9.260049536805964"><ele>70.0</ele><time>2026-04-03T07:35:06.998Z</time></trkpt><trkpt lat="39.2590166547289" lon="9.26028989216367"><ele>70.0</ele><time>2026-04-03T07:35:07.998Z</time></trkpt><trkpt lat="39.25902127614161" lon="9.260549333974717"><ele>70.0</ele><time>2026-04-03T07:35:08.998Z</time></trkpt><trkpt lat="39.259038384182965" lon="9.260828263891373"><ele>69.66666666666666</ele><time>2026-04-03T07:35:09.998Z</time></trkpt><trkpt lat="39.25905918688774" lon="9.261114634343022"><ele>69.33333333333333</ele><time>2026-04-03T07:35:10.998Z</time></trkpt><trkpt lat="39.259071146503224" lon="9.261400247750716"><ele>69.0</ele><time>2026-04-03T07:35:11.999Z</time></trkpt><trkpt lat="39.25907968634533" lon="9.261692116370554"><ele>67.5</ele><time>2026-04-03T07:35:12.999Z</time></trkpt><trkpt lat="39.259086068662434" lon="9.261986932064987"><ele>66.0</ele><time>2026-04-03T07:35:13.999Z</time></trkpt><trkpt lat="39.259093009148046" lon="9.262283780379434"><ele>65.0</ele><time>2026-04-03T07:35:14.999Z</time></trkpt><trkpt lat="39.25910728250306" lon="9.262585719447927"><ele>64.0</ele><time>2026-04-03T07:35:15.999Z</time></trkpt><trkpt lat="39.25912356127834" lon="9.262890108120352"><ele>64.5</ele><time>2026-04-03T07:35:16.999Z</time></trkpt><trkpt lat="39.25914220963561" lon="9.263197426406117"><ele>65.0</ele><time>2026-04-03T07:35:17.999Z</time></trkpt><trkpt lat="39.259167217377126" lon="9.263509986754492"><ele>65.0</ele><time>2026-04-03T07:35:18.999Z</time></trkpt><trkpt lat="39.25919507697838" lon="9.263824097684507"><ele>65.0</ele><time>2026-04-03T07:35:19.999Z</time></trkpt><trkpt lat="39.259219621233434" lon="9.264141345919704"><ele>64.0</ele><time>2026-04-03T07:35:20.999Z</time></trkpt><trkpt lat="39.25923795935241" lon="9.264461449353954"><ele>63.0</ele><time>2026-04-03T07:35:21.999Z</time></trkpt><trkpt lat="39.25925160495776" lon="9.26478727129516"><ele>61.0</ele><time>2026-04-03T07:35:22.999Z</time></trkpt><trkpt lat="39.25926459727819" lon="9.265114823548627"><ele>59.0</ele><time>2026-04-03T07:35:23.999Z</time></trkpt><trkpt lat="39.259281073043056" lon="9.265443672433443"><ele>58.0</ele><time>2026-04-03T07:35:24.999Z</time></trkpt><trkpt lat="39.259296432050114" lon="9.265773528386106"><ele>57.0</ele><time>2026-04-03T07:35:25.999Z</time></trkpt><trkpt lat="39.25931436557285" lon="9.266107445747034"><ele>57.0</ele><time>2026-04-03T07:35:26.999Z</time></trkpt><trkpt lat="39.259326896724204" lon="9.266436603419965"><ele>57.0</ele><time>2026-04-03T07:35:27.999Z</time></trkpt><trkpt lat="39.2593453965434" lon="9.266767667393424"><ele>55.5</ele><time>2026-04-03T07:35:28.999Z</time></trkpt><trkpt lat="39.25936171014417" lon="9.267093793643392"><ele>54.0</ele><time>2026-04-03T07:35:29.999Z</time></trkpt><trkpt lat="39.259378817492305" lon="9.267419257331522"><ele>53.0</ele><time>2026-04-03T07:35:30.999Z</time></trkpt><trkpt lat="39.259394985632255" lon="9.267744132754256"><ele>52.0</ele><time>2026-04-03T07:35:31.999Z</time></trkpt><trkpt lat="39.25940894201894" lon="9.268067995365472"><ele>52.0</ele><time>2026-04-03T07:35:32.999Z</time></trkpt><trkpt lat="39.259421939321285" lon="9.268388587778384"><ele>52.0</ele><time>2026-04-03T07:35:33.999Z</time></trkpt><trkpt lat="39.25944461132284" lon="9.268709139137423"><ele>52.5</ele><time>2026-04-03T07:35:34.999Z</time></trkpt><trkpt lat="39.259464508581985" lon="9.269028143070743"><ele>53.0</ele><time>2026-04-03T07:35:35.999Z</time></trkpt><trkpt lat="39.259480229161056" lon="9.269346245517767"><ele>53.0</ele><time>2026-04-03T07:35:36.999Z</time></trkpt><trkpt lat="39.2594949626651" lon="9.269665008298661"><ele>53.0</ele><time>2026-04-03T07:35:37.999Z</time></trkpt><trkpt lat="39.25950324904086" lon="9.269983413523589"><ele>53.0</ele><time>2026-04-03T07:35:38.999Z</time></trkpt><trkpt lat="39.259518923082865" lon="9.270301387073566"><ele>53.0</ele><time>2026-04-03T07:35:39.999Z</time></trkpt><trkpt lat="39.2595415209394" lon="9.270620826406233"><ele>52.5</ele><time>2026-04-03T07:35:41Z</time></trkpt><trkpt lat="39.25955513722989" lon="9.2709391212322"><ele>52.0</ele><time>2026-04-03T07:35:42Z</time></trkpt><trkpt lat="39.25957031597624" lon="9.27125562910046"><ele>53.0</ele><time>2026-04-03T07:35:43Z</time></trkpt><trkpt lat="39.25958708789255" lon="9.271572629368874"><ele>54.0</ele><time>2026-04-03T07:35:44Z</time></trkpt><trkpt lat="39.259605314307294" lon="9.271890629416118"><ele>54.0</ele><time>2026-04-03T07:35:45Z</time></trkpt><trkpt lat="39.25962193016634" lon="9.272207785152046"><ele>54.0</ele><time>2026-04-03T07:35:46Z</time></trkpt><trkpt lat="39.259639847544996" lon="9.272523296894558"><ele>54.0</ele><time>2026-04-03T07:35:47Z</time></trkpt><trkpt lat="39.25965864937599" lon="9.272841467161468"><ele>54.0</ele><time>2026-04-03T07:35:48Z</time></trkpt><trkpt lat="39.25967380973116" lon="9.273160396100927"><ele>54.0</ele><time>2026-04-03T07:35:49Z</time></trkpt><trkpt lat="39.25968912449865" lon="9.273481562103635"><ele>54.0</ele><time>2026-04-03T07:35:50Z</time></trkpt><trkpt lat="39.259704520854044" lon="9.273804812992731"><ele>53.5</ele><time>2026-04-03T07:35:51Z</time></trkpt><trkpt lat="39.25971979395392" lon="9.274125749002996"><ele>53.0</ele><time>2026-04-03T07:35:52Z</time></trkpt><trkpt lat="39.25973613918032" lon="9.274448372057895"><ele>52.5</ele><time>2026-04-03T07:35:53Z</time></trkpt><trkpt lat="39.25975433687871" lon="9.274774536249645"><ele>52.0</ele><time>2026-04-03T07:35:54Z</time></trkpt><trkpt lat="39.25977048593992" lon="9.275101678565852"><ele>53.0</ele><time>2026-04-03T07:35:55Z</time></trkpt><trkpt lat="39.25978569867237" lon="9.275426526964523"><ele>54.0</ele><time>2026-04-03T07:35:56Z</time></trkpt><trkpt lat="39.2598023570638" lon="9.27575015458726"><ele>54.0</ele><time>2026-04-03T07:35:57Z</time></trkpt><trkpt lat="39.2598178801653" lon="9.276070591033436"><ele>54.0</ele><time>2026-04-03T07:35:58Z</time></trkpt><trkpt lat="39.25983575044973" lon="9.276391950638285"><ele>53.5</ele><time>2026-04-03T07:35:59Z</time></trkpt><trkpt lat="39.25985030396213" lon="9.276713825997444"><ele>53.0</ele><time>2026-04-03T07:36:00Z</time></trkpt><trkpt lat="39.25986538870984" lon="9.27703166085776"><ele>52.0</ele><time>2026-04-03T07:36:01Z</time></trkpt><trkpt lat="39.25987816938156" lon="9.277351106355315"><ele>51.0</ele><time>2026-04-03T07:36:02Z</time></trkpt><trkpt lat="39.25989325375302" lon="9.277672565855696"><ele>51.0</ele><time>2026-04-03T07:36:03Z</time></trkpt><trkpt lat="39.259910736953586" lon="9.277995304441541"><ele>51.0</ele><time>2026-04-03T07:36:04Z</time></trkpt><trkpt lat="39.259930077630244" lon="9.278318146212921"><ele>50.0</ele><time>2026-04-03T07:36:05Z</time></trkpt><trkpt lat="39.25994942425493" lon="9.278642223306358"><ele>49.0</ele><time>2026-04-03T07:36:06Z</time></trkpt><trkpt lat="39.2599667174375" lon="9.278959980061796"><ele>49.0</ele><time>2026-04-03T07:36:07Z</time></trkpt><trkpt lat="39.25998422737023" lon="9.279272329651715"><ele>49.0</ele><time>2026-04-03T07:36:08Z</time></trkpt><trkpt lat="39.260003548586646" lon="9.279569211127075"><ele>49.666666666666664</ele><time>2026-04-03T07:36:09Z</time></trkpt><trkpt lat="39.260024836227814" lon="9.279849485544958"><ele>50.33333333333333</ele><time>2026-04-03T07:36:10Z</time></trkpt><trkpt lat="39.26003872538053" lon="9.28011635513806"><ele>51.0</ele><time>2026-04-03T07:36:11Z</time></trkpt><trkpt lat="39.26003151855878" lon="9.280380198720707"><ele>52.33333333333333</ele><time>2026-04-03T07:36:12Z</time></trkpt><trkpt lat="39.25999429156391" lon="9.280618399586977"><ele>53.666666666666664</ele><time>2026-04-03T07:36:13Z</time></trkpt><trkpt lat="39.25992708652092" lon="9.280835733608868"><ele>55.0</ele><time>2026-04-03T07:36:14Z</time></trkpt><trkpt lat="39.259833811444345" lon="9.281031201192198"><ele>54.33333333333333</ele><time>2026-04-03T07:36:15Z</time></trkpt><trkpt lat="39.25971300870667" lon="9.28121861260649"><ele>53.66666666666667</ele><time>2026-04-03T07:36:16Z</time></trkpt><trkpt lat="39.25958214705569" lon="9.281393892010426"><ele>53.0</ele><time>2026-04-03T07:36:17Z</time></trkpt><trkpt lat="39.259473457728134" lon="9.281600114804732"><ele>54.333333333333336</ele><time>2026-04-03T07:36:18Z</time></trkpt><trkpt lat="39.25940717231977" lon="9.28182782469845"><ele>55.66666666666667</ele><time>2026-04-03T07:36:19Z</time></trkpt><trkpt lat="39.259388172404044" lon="9.282073738965408"><ele>57.0</ele><time>2026-04-03T07:36:20Z</time></trkpt><trkpt lat="39.25939961851649" lon="9.282317633031468"><ele>58.33333333333333</ele><time>2026-04-03T07:36:21Z</time></trkpt><trkpt lat="39.25944333744924" lon="9.282547770325085"><ele>59.666666666666664</ele><time>2026-04-03T07:36:22Z</time></trkpt><trkpt lat="39.25949722559296" lon="9.282769756226383"><ele>61.0</ele><time>2026-04-03T07:36:23Z</time></trkpt><trkpt lat="39.25955312420183" lon="9.282989284515162"><ele>61.0</ele><time>2026-04-03T07:36:24Z</time></trkpt><trkpt lat="39.25960614253142" lon="9.283206522685228"><ele>61.0</ele><time>2026-04-03T07:36:25Z</time></trkpt><trkpt lat="39.25965772502035" lon="9.283417042193559"><ele>61.0</ele><time>2026-04-03T07:36:26Z</time></trkpt><trkpt lat="39.25970856978056" lon="9.283623662370763"><ele>61.0</ele><time>2026-04-03T07:36:27Z</time></trkpt><trkpt lat="39.25975915451176" lon="9.283828114660665"><ele>61.0</ele><time>2026-04-03T07:36:28Z</time></trkpt><trkpt lat="39.25980995748772" lon="9.284032283998036"><ele>61.0</ele><time>2026-04-03T07:36:29Z</time></trkpt><trkpt lat="39.25986012033631" lon="9.284238700482003"><ele>63.33333333333333</ele><time>2026-04-03T07:36:30Z</time></trkpt><trkpt lat="39.25991181362069" lon="9.284445673573034"><ele>65.66666666666667</ele><time>2026-04-03T07:36:31Z</time></trkpt><trkpt lat="39.2599636686717" lon="9.28465684952225"><ele>68.0</ele><time>2026-04-03T07:36:32Z</time></trkpt><trkpt lat="39.26001690749876" lon="9.284871428411963"><ele>68.0</ele><time>2026-04-03T07:36:33Z</time></trkpt><trkpt lat="39.26006947337753" lon="9.285090445587427"><ele>68.0</ele><time>2026-04-03T07:36:34Z</time></trkpt><trkpt lat="39.260123637664634" lon="9.285312754345897"><ele>68.0</ele><time>2026-04-03T07:36:35Z</time></trkpt><trkpt lat="39.26018132404388" lon="9.285540934264732"><ele>68.33333333333334</ele><time>2026-04-03T07:36:36Z</time></trkpt><trkpt lat="39.26023889718901" lon="9.285775539059232"><ele>68.66666666666667</ele><time>2026-04-03T07:36:37Z</time></trkpt><trkpt lat="39.260301519193284" lon="9.286013164057673"><ele>69.0</ele><time>2026-04-03T07:36:38Z</time></trkpt><trkpt lat="39.26036111385874" lon="9.286252871792868"><ele>69.0</ele><time>2026-04-03T07:36:39Z</time></trkpt><trkpt lat="39.260419306347" lon="9.286493648562043"><ele>69.0</ele><time>2026-04-03T07:36:40Z</time></trkpt><trkpt lat="39.26046444183044" lon="9.286750078882786"><ele>69.0</ele><time>2026-04-03T07:36:41Z</time></trkpt><trkpt lat="39.26048770343923" lon="9.287011595393073"><ele>68.33333333333333</ele><time>2026-04-03T07:36:42Z</time></trkpt><trkpt lat="39.26047960983751" lon="9.287280748699214"><ele>67.66666666666666</ele><time>2026-04-03T07:36:43Z</time></trkpt><trkpt lat="39.26044308931325" lon="9.287547719687849"><ele>67.0</ele><time>2026-04-03T07:36:44Z</time></trkpt><trkpt lat="39.260395916595854" lon="9.287819336920531"><ele>67.33333333333333</ele><time>2026-04-03T07:36:45Z</time></trkpt><trkpt lat="39.26035380308883" lon="9.288101170621244"><ele>67.66666666666667</ele><time>2026-04-03T07:36:46Z</time></trkpt><trkpt lat="39.2603153068102" lon="9.288383242580817"><ele>68.0</ele><time>2026-04-03T07:36:47.001Z</time></trkpt><trkpt lat="39.260266238104485" lon="9.288665867149325"><ele>68.33333333333334</ele><time>2026-04-03T07:36:48.001Z</time></trkpt><trkpt lat="39.26021853537884" lon="9.288943639649057"><ele>68.66666666666667</ele><time>2026-04-03T07:36:49.001Z</time></trkpt><trkpt lat="39.26017417352644" lon="9.289220490046839"><ele>69.0</ele><time>2026-04-03T07:36:50.001Z</time></trkpt><trkpt lat="39.26013204345108" lon="9.289495324756588"><ele>69.66666666666667</ele><time>2026-04-03T07:36:51.001Z</time></trkpt><trkpt lat="39.26008807353953" lon="9.289767770713082"><ele>70.33333333333334</ele><time>2026-04-03T07:36:52.001Z</time></trkpt><trkpt lat="39.260046756179214" lon="9.29003791286709"><ele>71.0</ele><time>2026-04-03T07:36:53.001Z</time></trkpt><trkpt lat="39.26002212749765" lon="9.290309800186805"><ele>71.0</ele><time>2026-04-03T07:36:54.001Z</time></trkpt><trkpt lat="39.26001508231747" lon="9.290584241846755"><ele>71.0</ele><time>2026-04-03T07:36:55.001Z</time></trkpt><trkpt lat="39.260028214875106" lon="9.29086080383097"><ele>71.0</ele><time>2026-04-03T07:36:56.001Z</time></trkpt><trkpt lat="39.26006025498854" lon="9.291146370609798"><ele>69.0</ele><time>2026-04-03T07:36:57.001Z</time></trkpt><trkpt lat="39.26011213982702" lon="9.291454332699159"><ele>67.0</ele><time>2026-04-03T07:36:58.001Z</time></trkpt><trkpt lat="39.26015566250496" lon="9.291786832830203"><ele>67.0</ele><time>2026-04-03T07:36:59.001Z</time></trkpt><trkpt lat="39.260212662036096" lon="9.292137641795318"><ele>67.0</ele><time>2026-04-03T07:37:00.001Z</time></trkpt><trkpt lat="39.260271201496366" lon="9.292497308255205"><ele>65.5</ele><time>2026-04-03T07:37:01.001Z</time></trkpt><trkpt lat="39.260329570560145" lon="9.292855927780527"><ele>64.0</ele><time>2026-04-03T07:37:02.001Z</time></trkpt><trkpt lat="39.26040043684856" lon="9.293196392922258"><ele>64.0</ele><time>2026-04-03T07:37:03.001Z</time></trkpt><trkpt lat="39.260443497744184" lon="9.293542783832478"><ele>64.0</ele><time>2026-04-03T07:37:04.001Z</time></trkpt><trkpt lat="39.26049888634239" lon="9.29388095020997"><ele>64.0</ele><time>2026-04-03T07:37:05.001Z</time></trkpt><trkpt lat="39.26055312769637" lon="9.294211928587968"><ele>64.0</ele><time>2026-04-03T07:37:06.001Z</time></trkpt><trkpt lat="39.26060577645143" lon="9.294538717953094"><ele>65.5</ele><time>2026-04-03T07:37:07.001Z</time></trkpt><trkpt lat="39.26066002072386" lon="9.294860078377935"><ele>67.0</ele><time>2026-04-03T07:37:08.001Z</time></trkpt><trkpt lat="39.26071278039884" lon="9.295179015887234"><ele>67.0</ele><time>2026-04-03T07:37:09Z</time></trkpt><trkpt lat="39.260762122646916" lon="9.295495773290584"><ele>67.0</ele><time>2026-04-03T07:37:10Z</time></trkpt><trkpt lat="39.26081356116177" lon="9.295809027605687"><ele>67.0</ele><time>2026-04-03T07:37:11Z</time></trkpt><trkpt lat="39.26086206428977" lon="9.2961231101484"><ele>67.0</ele><time>2026-04-03T07:37:12Z</time></trkpt><trkpt lat="39.26091287131774" lon="9.296435929827554"><ele>66.5</ele><time>2026-04-03T07:37:13Z</time></trkpt><trkpt lat="39.26096283341787" lon="9.296754372129168"><ele>66.0</ele><time>2026-04-03T07:37:14Z</time></trkpt><trkpt lat="39.26101105088433" lon="9.297071898943718"><ele>66.0</ele><time>2026-04-03T07:37:15Z</time></trkpt><trkpt lat="39.26105884596051" lon="9.297390260772639"><ele>66.0</ele><time>2026-04-03T07:37:16Z</time></trkpt><trkpt lat="39.26110784063684" lon="9.297708930965118"><ele>66.0</ele><time>2026-04-03T07:37:17Z</time></trkpt><trkpt lat="39.261158309830584" lon="9.298025653994625"><ele>66.0</ele><time>2026-04-03T07:37:18Z</time></trkpt><trkpt lat="39.26121410689628" lon="9.298337537825635"><ele>64.5</ele><time>2026-04-03T07:37:19Z</time></trkpt><trkpt lat="39.26127541919632" lon="9.298638722584021"><ele>63.0</ele><time>2026-04-03T07:37:20Z</time></trkpt><trkpt lat="39.261357849866506" lon="9.298928709906038"><ele>62.5</ele><time>2026-04-03T07:37:21Z</time></trkpt><trkpt lat="39.26147260688052" lon="9.299205821257429"><ele>62.0</ele><time>2026-04-03T07:37:22Z</time></trkpt><trkpt lat="39.261613923471764" lon="9.29947032352435"><ele>62.0</ele><time>2026-04-03T07:37:23Z</time></trkpt><trkpt lat="39.26176229136434" lon="9.299730805000321"><ele>62.0</ele><time>2026-04-03T07:37:24Z</time></trkpt><trkpt lat="39.26191297800168" lon="9.299994147666707"><ele>60.5</ele><time>2026-04-03T07:37:25Z</time></trkpt><trkpt lat="39.262062342120785" lon="9.30025995804186"><ele>59.0</ele><time>2026-04-03T07:37:26Z</time></trkpt><trkpt lat="39.262207588822186" lon="9.300525700848288"><ele>61.5</ele><time>2026-04-03T07:37:27Z</time></trkpt><trkpt lat="39.26235224245633" lon="9.300790980905145"><ele>64.0</ele><time>2026-04-03T07:37:28Z</time></trkpt><trkpt lat="39.26249562351458" lon="9.301053655939866"><ele>64.0</ele><time>2026-04-03T07:37:29Z</time></trkpt><trkpt lat="39.262637539617074" lon="9.301311724804918"><ele>64.0</ele><time>2026-04-03T07:37:30Z</time></trkpt><trkpt lat="39.2627804816741" lon="9.301566461614147"><ele>61.5</ele><time>2026-04-03T07:37:31Z</time></trkpt><trkpt lat="39.262922635869565" lon="9.301821284706834"><ele>59.0</ele><time>2026-04-03T07:37:32Z</time></trkpt><trkpt lat="39.26306310647408" lon="9.302069559866665"><ele>58.333333333333336</ele><time>2026-04-03T07:37:33Z</time></trkpt><trkpt lat="39.26319579403513" lon="9.302307557146625"><ele>57.66666666666667</ele><time>2026-04-03T07:37:34Z</time></trkpt><trkpt lat="39.263322563099614" lon="9.302532541614083"><ele>57.0</ele><time>2026-04-03T07:37:35Z</time></trkpt><trkpt lat="39.263439501431044" lon="9.302748464042082"><ele>57.0</ele><time>2026-04-03T07:37:36Z</time></trkpt><trkpt lat="39.26355409138282" lon="9.302959664602092"><ele>57.0</ele><time>2026-04-03T07:37:37Z</time></trkpt><trkpt lat="39.263644796235795" lon="9.303175107506421"><ele>57.0</ele><time>2026-04-03T07:37:38Z</time></trkpt><trkpt lat="39.263697640855774" lon="9.303410349273008"><ele>57.0</ele><time>2026-04-03T07:37:39Z</time></trkpt><trkpt lat="39.26370775285728" lon="9.303663874095013"><ele>57.0</ele><time>2026-04-03T07:37:40Z</time></trkpt><trkpt lat="39.263686238532394" lon="9.303921065981383"><ele>57.0</ele><time>2026-04-03T07:37:41Z</time></trkpt><trkpt lat="39.2636616809547" lon="9.304179060785357"><ele>57.0</ele><time>2026-04-03T07:37:42Z</time></trkpt><trkpt lat="39.26365591842737" lon="9.304426430507387"><ele>57.0</ele><time>2026-04-03T07:37:43Z</time></trkpt><trkpt lat="39.263687528795145" lon="9.304658256317333"><ele>57.0</ele><time>2026-04-03T07:37:44Z</time></trkpt><trkpt lat="39.26376778184202" lon="9.304858628632838"><ele>56.66666666666667</ele><time>2026-04-03T07:37:45Z</time></trkpt><trkpt lat="39.263898735414465" lon="9.30502577549436"><ele>56.333333333333336</ele><time>2026-04-03T07:37:46Z</time></trkpt><trkpt lat="39.264062007570594" lon="9.305173504436969"><ele>56.0</ele><time>2026-04-03T07:37:47Z</time></trkpt><trkpt lat="39.2642137245904" lon="9.305345009264082"><ele>56.66666666666667</ele><time>2026-04-03T07:37:48Z</time></trkpt><trkpt lat="39.264384394646086" lon="9.305521269709125"><ele>57.33333333333333</ele><time>2026-04-03T07:37:49Z</time></trkpt><trkpt lat="39.264592420233114" lon="9.30564664115017"><ele>58.0</ele><time>2026-04-03T07:37:50Z</time></trkpt><trkpt lat="39.2647811756798" lon="9.305817718475549"><ele>58.33333333333333</ele><time>2026-04-03T07:37:51Z</time></trkpt><trkpt lat="39.26494904062752" lon="9.305979326016882"><ele>58.66666666666667</ele><time>2026-04-03T07:37:52Z</time></trkpt><trkpt lat="39.265123680766436" lon="9.306135886620224"><ele>59.0</ele><time>2026-04-03T07:37:53Z</time></trkpt><trkpt lat="39.26529264428035" lon="9.306295048473253"><ele>59.66666666666667</ele><time>2026-04-03T07:37:54Z</time></trkpt><trkpt lat="39.26546322189066" lon="9.306454947120237"><ele>60.33333333333333</ele><time>2026-04-03T07:37:55Z</time></trkpt><trkpt lat="39.26563300928881" lon="9.306610147035933"><ele>61.0</ele><time>2026-04-03T07:37:56Z</time></trkpt><trkpt lat="39.265803986524766" lon="9.306760765790363"><ele>61.0</ele><time>2026-04-03T07:37:57Z</time></trkpt><trkpt lat="39.26597145565933" lon="9.306911889956524"><ele>61.0</ele><time>2026-04-03T07:37:58Z</time></trkpt><trkpt lat="39.26613657746135" lon="9.307058437333751"><ele>61.0</ele><time>2026-04-03T07:37:59Z</time></trkpt><trkpt lat="39.26629963319895" lon="9.307197066940729"><ele>63.0</ele><time>2026-04-03T07:38:00Z</time></trkpt><trkpt lat="39.266458535601686" lon="9.307339018066857"><ele>65.0</ele><time>2026-04-03T07:38:01Z</time></trkpt><trkpt lat="39.26661414711323" lon="9.307476040964001"><ele>67.0</ele><time>2026-04-03T07:38:02Z</time></trkpt><trkpt lat="39.266771479208415" lon="9.307608047405893"><ele>67.0</ele><time>2026-04-03T07:38:03Z</time></trkpt><trkpt lat="39.266930138712425" lon="9.307729782297962"><ele>67.0</ele><time>2026-04-03T07:38:04Z</time></trkpt><trkpt lat="39.267095879162575" lon="9.307836005420288"><ele>67.0</ele><time>2026-04-03T07:38:05Z</time></trkpt><trkpt lat="39.267265529557605" lon="9.307927382327986"><ele>66.66666666666666</ele><time>2026-04-03T07:38:06.001Z</time></trkpt><trkpt lat="39.267435328747304" lon="9.30801902909564"><ele>66.33333333333333</ele><time>2026-04-03T07:38:07.001Z</time></trkpt><trkpt lat="39.267603509708174" lon="9.308110631098888"><ele>66.0</ele><time>2026-04-03T07:38:08.001Z</time></trkpt><trkpt lat="39.26777013195975" lon="9.3082027381194"><ele>66.0</ele><time>2026-04-03T07:38:09.001Z</time></trkpt><trkpt lat="39.267937219208534" lon="9.308298182841074"><ele>66.0</ele><time>2026-04-03T07:38:10.001Z</time></trkpt><trkpt lat="39.268104443543244" lon="9.308393151552613"><ele>66.0</ele><time>2026-04-03T07:38:11.001Z</time></trkpt><trkpt lat="39.268269248570014" lon="9.308487897724419"><ele>66.0</ele><time>2026-04-03T07:38:12.001Z</time></trkpt><trkpt lat="39.26843546377769" lon="9.30858387582135"><ele>66.0</ele><time>2026-04-03T07:38:13.001Z</time></trkpt><trkpt lat="39.26860294245118" lon="9.308677994969912"><ele>66.0</ele><time>2026-04-03T07:38:14.001Z</time></trkpt><trkpt lat="39.26877160769371" lon="9.308763312657558"><ele>66.33333333333333</ele><time>2026-04-03T07:38:15.001Z</time></trkpt><trkpt lat="39.26894720640836" lon="9.308838919796672"><ele>66.66666666666666</ele><time>2026-04-03T07:38:16.001Z</time></trkpt><trkpt lat="39.26912566480424" lon="9.308911032258006"><ele>67.0</ele><time>2026-04-03T07:38:17.001Z</time></trkpt><trkpt lat="39.269299014645426" lon="9.30898263353037"><ele>68.33333333333333</ele><time>2026-04-03T07:38:18.001Z</time></trkpt><trkpt lat="39.269474056388205" lon="9.309053267321735"><ele>69.66666666666667</ele><time>2026-04-03T07:38:19.001Z</time></trkpt><trkpt lat="39.26964573408988" lon="9.309126420151014"><ele>71.0</ele><time>2026-04-03T07:38:20.001Z</time></trkpt><trkpt lat="39.26981607627517" lon="9.309201412339364"><ele>71.0</ele><time>2026-04-03T07:38:21.001Z</time></trkpt><trkpt lat="39.26998713885832" lon="9.309274348016178"><ele>71.0</ele><time>2026-04-03T07:38:22.001Z</time></trkpt><trkpt lat="39.27015788005707" lon="9.3093466627134"><ele>71.0</ele><time>2026-04-03T07:38:23.001Z</time></trkpt><trkpt lat="39.27032670221244" lon="9.309415903927341"><ele>71.0</ele><time>2026-04-03T07:38:24.001Z</time></trkpt><trkpt lat="39.270495919283526" lon="9.309488336651885"><ele>71.0</ele><time>2026-04-03T07:38:25.001Z</time></trkpt><trkpt lat="39.27066406284312" lon="9.309560182129896"><ele>71.0</ele><time>2026-04-03T07:38:26.001Z</time></trkpt><trkpt lat="39.270833075347355" lon="9.309637610241596"><ele>70.66666666666667</ele><time>2026-04-03T07:38:27.001Z</time></trkpt><trkpt lat="39.270998359654826" lon="9.3097315828992"><ele>70.33333333333333</ele><time>2026-04-03T07:38:28.001Z</time></trkpt><trkpt lat="39.271156948406386" lon="9.309849609747127"><ele>70.0</ele><time>2026-04-03T07:38:29.001Z</time></trkpt><trkpt lat="39.27131024512948" lon="9.30998873375652"><ele>71.66666666666666</ele><time>2026-04-03T07:38:30.001Z</time></trkpt><trkpt lat="39.27145410729934" lon="9.310148987315582"><ele>73.33333333333333</ele><time>2026-04-03T07:38:31.001Z</time></trkpt><trkpt lat="39.27160060864153" lon="9.31031694129621"><ele>75.0</ele><time>2026-04-03T07:38:32.001Z</time></trkpt><trkpt lat="39.271748461359536" lon="9.310484652678744"><ele>76.0</ele><time>2026-04-03T07:38:33.001Z</time></trkpt><trkpt lat="39.271898449257144" lon="9.310656910954417"><ele>77.0</ele><time>2026-04-03T07:38:34.001Z</time></trkpt><trkpt lat="39.272049531489685" lon="9.310827554152029"><ele>78.0</ele><time>2026-04-03T07:38:35.001Z</time></trkpt><trkpt lat="39.272200086906" lon="9.310997747105615"><ele>79.0</ele><time>2026-04-03T07:38:36.001Z</time></trkpt><trkpt lat="39.27235008262577" lon="9.31116843780134"><ele>80.0</ele><time>2026-04-03T07:38:37.001Z</time></trkpt><trkpt lat="39.27250064697454" lon="9.311341324022214"><ele>81.0</ele><time>2026-04-03T07:38:38.001Z</time></trkpt><trkpt lat="39.27265120504243" lon="9.311512341580242"><ele>81.0</ele><time>2026-04-03T07:38:39.001Z</time></trkpt><trkpt lat="39.272803416011214" lon="9.31168387428819"><ele>81.0</ele><time>2026-04-03T07:38:40.001Z</time></trkpt><trkpt lat="39.272950187183994" lon="9.311860013290032"><ele>81.0</ele><time>2026-04-03T07:38:41.001Z</time></trkpt><trkpt lat="39.273091087408936" lon="9.312038041821182"><ele>81.33333333333333</ele><time>2026-04-03T07:38:42.001Z</time></trkpt><trkpt lat="39.27322894289441" lon="9.31222394923353"><ele>81.66666666666666</ele><time>2026-04-03T07:38:43.001Z</time></trkpt><trkpt lat="39.27336457010728" lon="9.312407591686416"><ele>82.0</ele><time>2026-04-03T07:38:44.001Z</time></trkpt><trkpt lat="39.27349728300435" lon="9.312598044904618"><ele>82.0</ele><time>2026-04-03T07:38:45.001Z</time></trkpt><trkpt lat="39.2736279018464" lon="9.312792579890084"><ele>82.0</ele><time>2026-04-03T07:38:46.001Z</time></trkpt><trkpt lat="39.273748157325485" lon="9.31299292112893"><ele>82.0</ele><time>2026-04-03T07:38:47.001Z</time></trkpt><trkpt lat="39.27385430560981" lon="9.313208005113506"><ele>80.66666666666666</ele><time>2026-04-03T07:38:48.001Z</time></trkpt><trkpt lat="39.27394743429952" lon="9.31343260694194"><ele>79.33333333333333</ele><time>2026-04-03T07:38:49.001Z</time></trkpt><trkpt lat="39.2740315051669" lon="9.313663369084432"><ele>78.0</ele><time>2026-04-03T07:38:50.001Z</time></trkpt><trkpt lat="39.27411294748542" lon="9.313904041481168"><ele>81.0</ele><time>2026-04-03T07:38:51.001Z</time></trkpt><trkpt lat="39.274206699996746" lon="9.314133684467619"><ele>84.0</ele><time>2026-04-03T07:38:52.001Z</time></trkpt><trkpt lat="39.27430045706615" lon="9.314364411635449"><ele>87.0</ele><time>2026-04-03T07:38:53.001Z</time></trkpt><trkpt lat="39.2743915504818" lon="9.314596240213513"><ele>86.66666666666667</ele><time>2026-04-03T07:38:54.001Z</time></trkpt><trkpt lat="39.27447930233167" lon="9.31482903605091"><ele>86.33333333333334</ele><time>2026-04-03T07:38:55.001Z</time></trkpt><trkpt lat="39.27456760339198" lon="9.315062645615377"><ele>86.0</ele><time>2026-04-03T07:38:56.001Z</time></trkpt><trkpt lat="39.2746550188598" lon="9.315296028194552"><ele>86.0</ele><time>2026-04-03T07:38:57.001Z</time></trkpt><trkpt lat="39.27474110189283" lon="9.315526921239758"><ele>86.0</ele><time>2026-04-03T07:38:58.001Z</time></trkpt><trkpt lat="39.274831276755684" lon="9.315755651862403"><ele>86.0</ele><time>2026-04-03T07:38:59.001Z</time></trkpt><trkpt lat="39.274918743159226" lon="9.315986587406682"><ele>85.33333333333334</ele><time>2026-04-03T07:39:00.001Z</time></trkpt><trkpt lat="39.275007448515034" lon="9.316216206902459"><ele>84.66666666666667</ele><time>2026-04-03T07:39:01.001Z</time></trkpt><trkpt lat="39.275089512666135" lon="9.316454051722232"><ele>84.0</ele><time>2026-04-03T07:39:02.001Z</time></trkpt><trkpt lat="39.27518355893807" lon="9.316674469639041"><ele>84.0</ele><time>2026-04-03T07:39:03.001Z</time></trkpt><trkpt lat="39.275281453586516" lon="9.316892954375607"><ele>84.0</ele><time>2026-04-03T07:39:04.001Z</time></trkpt><trkpt lat="39.27538228027603" lon="9.317109678994026"><ele>84.0</ele><time>2026-04-03T07:39:05.001Z</time></trkpt><trkpt lat="39.275485173435754" lon="9.317324574162653"><ele>84.33333333333333</ele><time>2026-04-03T07:39:06.001Z</time></trkpt><trkpt lat="39.27558510028583" lon="9.3175369923135"><ele>84.66666666666666</ele><time>2026-04-03T07:39:07.001Z</time></trkpt><trkpt lat="39.27568395782934" lon="9.317745724062734"><ele>85.0</ele><time>2026-04-03T07:39:08.001Z</time></trkpt><trkpt lat="39.27579402222513" lon="9.31795603594788"><ele>85.66666666666666</ele><time>2026-04-03T07:39:09.001Z</time></trkpt><trkpt lat="39.27589982426331" lon="9.318168726345617"><ele>86.33333333333333</ele><time>2026-04-03T07:39:10.001Z</time></trkpt><trkpt lat="39.276004483961145" lon="9.318382196431653"><ele>87.0</ele><time>2026-04-03T07:39:11.001Z</time></trkpt><trkpt lat="39.27611072836637" lon="9.318593625755474"><ele>87.0</ele><time>2026-04-03T07:39:12.001Z</time></trkpt><trkpt lat="39.27621706124522" lon="9.318808066838107"><ele>87.0</ele><time>2026-04-03T07:39:13.001Z</time></trkpt><trkpt lat="39.27632222986458" lon="9.319018682133143"><ele>87.0</ele><time>2026-04-03T07:39:14.001Z</time></trkpt><trkpt lat="39.27642184669896" lon="9.319233782619179"><ele>87.33333333333333</ele><time>2026-04-03T07:39:15.001Z</time></trkpt><trkpt lat="39.276524676533434" lon="9.319445039573854"><ele>87.66666666666666</ele><time>2026-04-03T07:39:16.001Z</time></trkpt><trkpt lat="39.276626153851886" lon="9.31965614997726"><ele>88.0</ele><time>2026-04-03T07:39:17.001Z</time></trkpt><trkpt lat="39.27672652151401" lon="9.31986770250444"><ele>89.0</ele><time>2026-04-03T07:39:18.001Z</time></trkpt><trkpt lat="39.27682699391733" lon="9.320078396333352"><ele>90.0</ele><time>2026-04-03T07:39:19.001Z</time></trkpt><trkpt lat="39.27692894459934" lon="9.32029038803971"><ele>91.0</ele><time>2026-04-03T07:39:20.001Z</time></trkpt><trkpt lat="39.27703119270147" lon="9.320500674908546"><ele>90.66666666666666</ele><time>2026-04-03T07:39:21.001Z</time></trkpt><trkpt lat="39.277133598756116" lon="9.320712684428935"><ele>90.33333333333333</ele><time>2026-04-03T07:39:22.001Z</time></trkpt><trkpt lat="39.277235675540474" lon="9.320922750583645"><ele>90.0</ele><time>2026-04-03T07:39:23.001Z</time></trkpt><trkpt lat="39.27733803499303" lon="9.321133362050858"><ele>90.0</ele><time>2026-04-03T07:39:24.001Z</time></trkpt><trkpt lat="39.27743988249546" lon="9.321345497510311"><ele>90.0</ele><time>2026-04-03T07:39:25.001Z</time></trkpt><trkpt lat="39.27754330452844" lon="9.321554315753414"><ele>90.0</ele><time>2026-04-03T07:39:26.001Z</time></trkpt><trkpt lat="39.27764730579336" lon="9.321767868413716"><ele>91.0</ele><time>2026-04-03T07:39:27.001Z</time></trkpt><trkpt lat="39.27775251789076" lon="9.321982776638489"><ele>92.0</ele><time>2026-04-03T07:39:28.001Z</time></trkpt><trkpt lat="39.27785758101264" lon="9.322198994132108"><ele>93.0</ele><time>2026-04-03T07:39:29.001Z</time></trkpt><trkpt lat="39.27796133608895" lon="9.322411613342972"><ele>93.0</ele><time>2026-04-03T07:39:30.001Z</time></trkpt><trkpt lat="39.27806984908058" lon="9.322623031290533"><ele>93.0</ele><time>2026-04-03T07:39:31.001Z</time></trkpt><trkpt lat="39.27817424465451" lon="9.322838395608384"><ele>93.0</ele><time>2026-04-03T07:39:32.001Z</time></trkpt><trkpt lat="39.278279707396194" lon="9.323051392570836"><ele>92.66666666666667</ele><time>2026-04-03T07:39:33.001Z</time></trkpt><trkpt lat="39.27838676464957" lon="9.323266107945123"><ele>92.33333333333334</ele><time>2026-04-03T07:39:34.001Z</time></trkpt><trkpt lat="39.27849098636358" lon="9.323479335736192"><ele>92.0</ele><time>2026-04-03T07:39:35.001Z</time></trkpt><trkpt lat="39.27859694867761" lon="9.323695818827913"><ele>93.66666666666667</ele><time>2026-04-03T07:39:36.001Z</time></trkpt><trkpt lat="39.27870178602423" lon="9.323916516596878"><ele>95.33333333333334</ele><time>2026-04-03T07:39:37.001Z</time></trkpt><trkpt lat="39.27880634237282" lon="9.324135799520434"><ele>97.0</ele><time>2026-04-03T07:39:38.001Z</time></trkpt><trkpt lat="39.27891013301857" lon="9.324352770332556"><ele>96.33333333333334</ele><time>2026-04-03T07:39:39.001Z</time></trkpt><trkpt lat="39.27901144507525" lon="9.324568374029608"><ele>95.66666666666667</ele><time>2026-04-03T07:39:40.001Z</time></trkpt><trkpt lat="39.27911521175174" lon="9.324778865286914"><ele>95.0</ele><time>2026-04-03T07:39:41.001Z</time></trkpt><trkpt lat="39.2792196734433" lon="9.324989816113316"><ele>96.33333333333334</ele><time>2026-04-03T07:39:42.001Z</time></trkpt><trkpt lat="39.27932183963743" lon="9.325201037627906"><ele>97.66666666666667</ele><time>2026-04-03T07:39:43.001Z</time></trkpt><trkpt lat="39.2794274291855" lon="9.32540952745549"><ele>99.0</ele><time>2026-04-03T07:39:44.001Z</time></trkpt><trkpt lat="39.2795292024461" lon="9.325619837635442"><ele>99.66666666666666</ele><time>2026-04-03T07:39:45.001Z</time></trkpt><trkpt lat="39.27961589154087" lon="9.325817743762414"><ele>100.33333333333333</ele><time>2026-04-03T07:39:46.001Z</time></trkpt><trkpt lat="39.27971517318494" lon="9.326029067077107"><ele>101.0</ele><time>2026-04-03T07:39:47.001Z</time></trkpt><trkpt lat="39.279821533699504" lon="9.326240777309806"><ele>101.33333333333333</ele><time>2026-04-03T07:39:48.001Z</time></trkpt><trkpt lat="39.279928487630144" lon="9.326453572076574"><ele>101.66666666666666</ele><time>2026-04-03T07:39:49.001Z</time></trkpt><trkpt lat="39.28003307383327" lon="9.326667779354839"><ele>102.0</ele><time>2026-04-03T07:39:50.001Z</time></trkpt><trkpt lat="39.280138467675854" lon="9.326873548394934"><ele>102.0</ele><time>2026-04-03T07:39:51.001Z</time></trkpt><trkpt lat="39.28024352251176" lon="9.327087303428335"><ele>102.0</ele><time>2026-04-03T07:39:52.001Z</time></trkpt><trkpt lat="39.28034938315396" lon="9.327294692377608"><ele>102.0</ele><time>2026-04-03T07:39:53.001Z</time></trkpt><trkpt lat="39.28044356616022" lon="9.327513920128174"><ele>102.66666666666666</ele><time>2026-04-03T07:39:54.001Z</time></trkpt><trkpt lat="39.280544560000585" lon="9.327728600467314"><ele>103.33333333333333</ele><time>2026-04-03T07:39:55.001Z</time></trkpt><trkpt lat="39.280645063388214" lon="9.327939009239367"><ele>104.0</ele><time>2026-04-03T07:39:56.001Z</time></trkpt><trkpt lat="39.28074729318572" lon="9.328149512045972"><ele>106.33333333333333</ele><time>2026-04-03T07:39:57.001Z</time></trkpt><trkpt lat="39.28084536352508" lon="9.328358657219187"><ele>108.66666666666666</ele><time>2026-04-03T07:39:58.001Z</time></trkpt><trkpt lat="39.28094307419218" lon="9.328565453547181"><ele>111.0</ele><time>2026-04-03T07:39:59.001Z</time></trkpt><trkpt lat="39.28104306575846" lon="9.328773872397349"><ele>112.33333333333334</ele><time>2026-04-03T07:40:00.001Z</time></trkpt><trkpt lat="39.28114663744916" lon="9.328983920810858"><ele>113.66666666666667</ele><time>2026-04-03T07:40:01.001Z</time></trkpt><trkpt lat="39.281249742437375" lon="9.329194354607948"><ele>115.0</ele><time>2026-04-03T07:40:02.001Z</time></trkpt><trkpt lat="39.28135276498882" lon="9.329401702182373"><ele>114.66666666666667</ele><time>2026-04-03T07:40:03.001Z</time></trkpt><trkpt lat="39.28145726120424" lon="9.329614697109275"><ele>114.33333333333334</ele><time>2026-04-03T07:40:04.001Z</time></trkpt><trkpt lat="39.28155698464376" lon="9.329826839286065"><ele>114.0</ele><time>2026-04-03T07:40:05.001Z</time></trkpt><trkpt lat="39.28165927550217" lon="9.330038588505051"><ele>114.0</ele><time>2026-04-03T07:40:06.001Z</time></trkpt><trkpt lat="39.28176231370829" lon="9.330247224739285"><ele>114.0</ele><time>2026-04-03T07:40:07.001Z</time></trkpt><trkpt lat="39.28185774806856" lon="9.330456943854786"><ele>114.0</ele><time>2026-04-03T07:40:08.001Z</time></trkpt><trkpt lat="39.281958748474736" lon="9.33066082738974"><ele>113.33333333333334</ele><time>2026-04-03T07:40:09.001Z</time></trkpt><trkpt lat="39.28206195613936" lon="9.330866733135197"><ele>112.66666666666667</ele><time>2026-04-03T07:40:10.001Z</time></trkpt><trkpt lat="39.28216427626925" lon="9.331068258112541"><ele>112.0</ele><time>2026-04-03T07:40:11.001Z</time></trkpt><trkpt lat="39.28226495764092" lon="9.331272758567847"><ele>112.66666666666667</ele><time>2026-04-03T07:40:12.001Z</time></trkpt><trkpt lat="39.282365538965955" lon="9.331476638613912"><ele>113.33333333333334</ele><time>2026-04-03T07:40:13.001Z</time></trkpt><trkpt lat="39.28246722210244" lon="9.331685376125943"><ele>114.0</ele><time>2026-04-03T07:40:14.001Z</time></trkpt><trkpt lat="39.282571230777734" lon="9.331895064927124"><ele>114.0</ele><time>2026-04-03T07:40:15.001Z</time></trkpt><trkpt lat="39.28267519665409" lon="9.332108159750714"><ele>114.0</ele><time>2026-04-03T07:40:16.001Z</time></trkpt><trkpt lat="39.282780009574815" lon="9.33231937405943"><ele>114.0</ele><time>2026-04-03T07:40:17.001Z</time></trkpt><trkpt lat="39.28288008236134" lon="9.332532015859254"><ele>115.33333333333334</ele><time>2026-04-03T07:40:18.001Z</time></trkpt><trkpt lat="39.282981889484745" lon="9.33275042354997"><ele>116.66666666666667</ele><time>2026-04-03T07:40:19.001Z</time></trkpt><trkpt lat="39.283073695713746" lon="9.332977506611224"><ele>118.0</ele><time>2026-04-03T07:40:20.001Z</time></trkpt><trkpt lat="39.28315076950213" lon="9.333212763317368"><ele>118.0</ele><time>2026-04-03T07:40:21.001Z</time></trkpt><trkpt lat="39.28322122491437" lon="9.333450228201498"><ele>118.0</ele><time>2026-04-03T07:40:22.001Z</time></trkpt><trkpt lat="39.28328116042602" lon="9.33368948114042"><ele>118.0</ele><time>2026-04-03T07:40:23.001Z</time></trkpt><trkpt lat="39.28333545068404" lon="9.333933010912135"><ele>119.33333333333334</ele><time>2026-04-03T07:40:24.001Z</time></trkpt><trkpt lat="39.28338666686999" lon="9.334172737773146"><ele>120.66666666666666</ele><time>2026-04-03T07:40:25.001Z</time></trkpt><trkpt lat="39.28344003498428" lon="9.334411352662968"><ele>122.0</ele><time>2026-04-03T07:40:26.001Z</time></trkpt><trkpt lat="39.28349636277145" lon="9.334650085714665"><ele>126.33333333333333</ele><time>2026-04-03T07:40:27.001Z</time></trkpt><trkpt lat="39.28355411972983" lon="9.334886262303257"><ele>130.66666666666666</ele><time>2026-04-03T07:40:28.001Z</time></trkpt><trkpt lat="39.283611790111955" lon="9.33512419613254"><ele>135.0</ele><time>2026-04-03T07:40:29.001Z</time></trkpt><trkpt lat="39.28366777411398" lon="9.335360148056473"><ele>139.66666666666666</ele><time>2026-04-03T07:40:30.001Z</time></trkpt><trkpt lat="39.28373477294131" lon="9.335593990764641"><ele>144.33333333333331</ele><time>2026-04-03T07:40:31.001Z</time></trkpt><trkpt lat="39.28382098091885" lon="9.335814692018326"><ele>149.0</ele><time>2026-04-03T07:40:32.001Z</time></trkpt><trkpt lat="39.283911738275826" lon="9.336031248026526"><ele>142.0</ele><time>2026-04-03T07:40:33.001Z</time></trkpt><trkpt lat="39.284031621257206" lon="9.336229467442347"><ele>135.0</ele><time>2026-04-03T07:40:34.001Z</time></trkpt><trkpt lat="39.284158799583935" lon="9.336417653812562"><ele>128.0</ele><time>2026-04-03T07:40:35.001Z</time></trkpt><trkpt lat="39.284285312101154" lon="9.336612527057078"><ele>128.0</ele><time>2026-04-03T07:40:36.001Z</time></trkpt><trkpt lat="39.28440837738777" lon="9.336803797438826"><ele>128.0</ele><time>2026-04-03T07:40:37.001Z</time></trkpt><trkpt lat="39.28453212860148" lon="9.336997261809111"><ele>128.0</ele><time>2026-04-03T07:40:38.001Z</time></trkpt><trkpt lat="39.28465700976602" lon="9.33718667396653"><ele>127.0</ele><time>2026-04-03T07:40:39.001Z</time></trkpt><trkpt lat="39.284779189344" lon="9.33738152997043"><ele>126.0</ele><time>2026-04-03T07:40:40.001Z</time></trkpt><trkpt lat="39.28490230428519" lon="9.33757697095443"><ele>125.0</ele><time>2026-04-03T07:40:41.001Z</time></trkpt><trkpt lat="39.28502576916052" lon="9.337772655578796"><ele>125.0</ele><time>2026-04-03T07:40:42.001Z</time></trkpt><trkpt lat="39.285148998670756" lon="9.33796372883511"><ele>125.0</ele><time>2026-04-03T07:40:43.001Z</time></trkpt><trkpt lat="39.28527183925922" lon="9.338154814065485"><ele>125.0</ele><time>2026-04-03T07:40:44.001Z</time></trkpt><trkpt lat="39.2853960886907" lon="9.33834135838686"><ele>124.33333333333333</ele><time>2026-04-03T07:40:45.001Z</time></trkpt><trkpt lat="39.28551557858962" lon="9.338533747590708"><ele>123.66666666666666</ele><time>2026-04-03T07:40:46.001Z</time></trkpt><trkpt lat="39.285632854681985" lon="9.33873044215397"><ele>123.0</ele><time>2026-04-03T07:40:47.001Z</time></trkpt><trkpt lat="39.28575116911327" lon="9.338925054557995"><ele>126.0</ele><time>2026-04-03T07:40:48.001Z</time></trkpt><trkpt lat="39.285872955171705" lon="9.339118077869081"><ele>129.0</ele><time>2026-04-03T07:40:49.001Z</time></trkpt><trkpt lat="39.285990759547936" lon="9.339306424784342"><ele>132.0</ele><time>2026-04-03T07:40:50.001Z</time></trkpt><trkpt lat="39.28610511783163" lon="9.33950336815514"><ele>132.0</ele><time>2026-04-03T07:40:51.001Z</time></trkpt><trkpt lat="39.286211829119466" lon="9.339705526859253"><ele>132.0</ele><time>2026-04-03T07:40:52.001Z</time></trkpt><trkpt lat="39.28631300932203" lon="9.339918351363876"><ele>132.0</ele><time>2026-04-03T07:40:53.001Z</time></trkpt><trkpt lat="39.28641039891439" lon="9.340137928408971"><ele>132.0</ele><time>2026-04-03T07:40:54.001Z</time></trkpt><trkpt lat="39.28650165556983" lon="9.340357350495292"><ele>132.0</ele><time>2026-04-03T07:40:55.001Z</time></trkpt><trkpt lat="39.28658905586102" lon="9.3405793395204"><ele>132.0</ele><time>2026-04-03T07:40:56.001Z</time></trkpt><trkpt lat="39.286674494277975" lon="9.340798925953957"><ele>132.0</ele><time>2026-04-03T07:40:57.001Z</time></trkpt><trkpt lat="39.2867534022666" lon="9.34101605718242"><ele>132.0</ele><time>2026-04-03T07:40:58.001Z</time></trkpt><trkpt lat="39.28684000942891" lon="9.341234016207359"><ele>132.0</ele><time>2026-04-03T07:40:59.001Z</time></trkpt><trkpt lat="39.2869328521221" lon="9.341456617150806"><ele>132.33333333333334</ele><time>2026-04-03T07:41:00.001Z</time></trkpt><trkpt lat="39.287019097575126" lon="9.34167523970197"><ele>132.66666666666669</ele><time>2026-04-03T07:41:01.001Z</time></trkpt><trkpt lat="39.28710666438212" lon="9.341899927162169"><ele>133.0</ele><time>2026-04-03T07:41:02.001Z</time></trkpt><trkpt lat="39.28719629711344" lon="9.342129812371168"><ele>133.66666666666669</ele><time>2026-04-03T07:41:03.001Z</time></trkpt><trkpt lat="39.28727993636613" lon="9.34233771043329"><ele>134.33333333333334</ele><time>2026-04-03T07:41:04.001Z</time></trkpt><trkpt lat="39.28737161899707" lon="9.342566320472546"><ele>135.0</ele><time>2026-04-03T07:41:05.001Z</time></trkpt><trkpt lat="39.2874634609173" lon="9.342788857120832"><ele>135.0</ele><time>2026-04-03T07:41:06.002Z</time></trkpt><trkpt lat="39.2875579656523" lon="9.343008862130132"><ele>135.0</ele><time>2026-04-03T07:41:07.002Z</time></trkpt><trkpt lat="39.28765741234282" lon="9.343220675492164"><ele>135.0</ele><time>2026-04-03T07:41:08.002Z</time></trkpt><trkpt lat="39.28776789869734" lon="9.343421008907207"><ele>137.33333333333334</ele><time>2026-04-03T07:41:09.002Z</time></trkpt><trkpt lat="39.287878913562196" lon="9.343619737944977"><ele>139.66666666666669</ele><time>2026-04-03T07:41:10.002Z</time></trkpt><trkpt lat="39.28798950531138" lon="9.343817703805811"><ele>142.0</ele><time>2026-04-03T07:41:11.002Z</time></trkpt><trkpt lat="39.28810248487016" lon="9.344012353515467"><ele>142.33333333333334</ele><time>2026-04-03T07:41:12.002Z</time></trkpt><trkpt lat="39.28821213776685" lon="9.34421274186975"><ele>142.66666666666666</ele><time>2026-04-03T07:41:13.002Z</time></trkpt><trkpt lat="39.28832521735991" lon="9.344416981986804"><ele>143.0</ele><time>2026-04-03T07:41:14.002Z</time></trkpt><trkpt lat="39.28842651125856" lon="9.344624210339765"><ele>144.33333333333331</ele><time>2026-04-03T07:41:15.002Z</time></trkpt><trkpt lat="39.28852953608928" lon="9.344827187086839"><ele>145.66666666666666</ele><time>2026-04-03T07:41:16.002Z</time></trkpt><trkpt lat="39.28864613800788" lon="9.345030601222408"><ele>147.0</ele><time>2026-04-03T07:41:17.002Z</time></trkpt><trkpt lat="39.28876595775438" lon="9.345229713647614"><ele>147.0</ele><time>2026-04-03T07:41:18.002Z</time></trkpt><trkpt lat="39.28888946842498" lon="9.345419618488293"><ele>147.0</ele><time>2026-04-03T07:41:19.002Z</time></trkpt><trkpt lat="39.289015784657295" lon="9.345611268817288"><ele>147.0</ele><time>2026-04-03T07:41:20.001Z</time></trkpt><trkpt lat="39.28914124585709" lon="9.34579867645612"><ele>147.66666666666666</ele><time>2026-04-03T07:41:21.001Z</time></trkpt><trkpt lat="39.28926241661553" lon="9.345998338175153"><ele>148.33333333333331</ele><time>2026-04-03T07:41:22.001Z</time></trkpt><trkpt lat="39.289375454507635" lon="9.346203514428007"><ele>149.0</ele><time>2026-04-03T07:41:23.001Z</time></trkpt><trkpt lat="39.28947690351598" lon="9.346424734676207"><ele>151.0</ele><time>2026-04-03T07:41:24.001Z</time></trkpt><trkpt lat="39.28957082667711" lon="9.346646256380657"><ele>153.0</ele><time>2026-04-03T07:41:25.001Z</time></trkpt><trkpt lat="39.28966051099624" lon="9.34687406028064"><ele>155.0</ele><time>2026-04-03T07:41:26.001Z</time></trkpt><trkpt lat="39.28974456217645" lon="9.347101555871086"><ele>154.66666666666666</ele><time>2026-04-03T07:41:27.001Z</time></trkpt><trkpt lat="39.289824851450774" lon="9.347326742360739"><ele>154.33333333333334</ele><time>2026-04-03T07:41:28.001Z</time></trkpt><trkpt lat="39.28989629731736" lon="9.34755102320071"><ele>154.0</ele><time>2026-04-03T07:41:29.001Z</time></trkpt><trkpt lat="39.28995882279241" lon="9.347779864219435"><ele>154.0</ele><time>2026-04-03T07:41:30.001Z</time></trkpt><trkpt lat="39.29001223112784" lon="9.34801151320088"><ele>154.0</ele><time>2026-04-03T07:41:31.001Z</time></trkpt><trkpt lat="39.290056115008554" lon="9.348247307907819"><ele>154.0</ele><time>2026-04-03T07:41:32.001Z</time></trkpt><trkpt lat="39.290098382877794" lon="9.348476579740248"><ele>155.0</ele><time>2026-04-03T07:41:33.001Z</time></trkpt><trkpt lat="39.29013318923943" lon="9.348703710489003"><ele>156.0</ele><time>2026-04-03T07:41:34.001Z</time></trkpt><trkpt lat="39.290159587160204" lon="9.348919780573638"><ele>157.0</ele><time>2026-04-03T07:41:35.001Z</time></trkpt><trkpt lat="39.290191955858944" lon="9.349124000773893"><ele>159.33333333333334</ele><time>2026-04-03T07:41:36.001Z</time></trkpt><trkpt lat="39.29025634692041" lon="9.349302874510476"><ele>161.66666666666666</ele><time>2026-04-03T07:41:37.001Z</time></trkpt><trkpt lat="39.290360208003364" lon="9.349451097172771"><ele>164.0</ele><time>2026-04-03T07:41:38.001Z</time></trkpt><trkpt lat="39.29049478991302" lon="9.34957237506215"><ele>161.66666666666666</ele><time>2026-04-03T07:41:39.001Z</time></trkpt><trkpt lat="39.29063565036681" lon="9.349679902663796"><ele>159.33333333333334</ele><time>2026-04-03T07:41:40.001Z</time></trkpt><trkpt lat="39.29078114108871" lon="9.34978875558488"><ele>157.0</ele><time>2026-04-03T07:41:41.001Z</time></trkpt><trkpt lat="39.290922736186204" lon="9.349900830621317"><ele>157.0</ele><time>2026-04-03T07:41:42.001Z</time></trkpt><trkpt lat="39.291060383467666" lon="9.35001471322093"><ele>157.0</ele><time>2026-04-03T07:41:43.001Z</time></trkpt><trkpt lat="39.291178042000716" lon="9.350145252425257"><ele>157.0</ele><time>2026-04-03T07:41:44.001Z</time></trkpt><trkpt lat="39.291255843587564" lon="9.350313099370956"><ele>157.0</ele><time>2026-04-03T07:41:45.001Z</time></trkpt><trkpt lat="39.291282325423424" lon="9.350506225113088"><ele>157.0</ele><time>2026-04-03T07:41:46.001Z</time></trkpt><trkpt lat="39.29130878139964" lon="9.350694602072354"><ele>157.0</ele><time>2026-04-03T07:41:47.001Z</time></trkpt><trkpt lat="39.29137152598044" lon="9.350869039656704"><ele>157.0</ele><time>2026-04-03T07:41:48.001Z</time></trkpt><trkpt lat="39.291476386638905" lon="9.351028536745162"><ele>159.0</ele><time>2026-04-03T07:41:49.001Z</time></trkpt><trkpt lat="39.291591096423836" lon="9.35118877823914"><ele>161.0</ele><time>2026-04-03T07:41:50.001Z</time></trkpt><trkpt lat="39.29170421911766" lon="9.351359619375508"><ele>163.0</ele><time>2026-04-03T07:41:51.001Z</time></trkpt><trkpt lat="39.29181760544056" lon="9.351532164567034"><ele>163.0</ele><time>2026-04-03T07:41:52.001Z</time></trkpt><trkpt lat="39.291926321332184" lon="9.351712441384645"><ele>163.0</ele><time>2026-04-03T07:41:53.001Z</time></trkpt><trkpt lat="39.29202931549017" lon="9.351902139555442"><ele>163.0</ele><time>2026-04-03T07:41:54.001Z</time></trkpt><trkpt lat="39.29211701006427" lon="9.352111268894314"><ele>163.0</ele><time>2026-04-03T07:41:55.001Z</time></trkpt><trkpt lat="39.29219896988545" lon="9.352327303686934"><ele>163.0</ele><time>2026-04-03T07:41:56.001Z</time></trkpt><trkpt lat="39.292283579279946" lon="9.352539830514157"><ele>163.0</ele><time>2026-04-03T07:41:57.001Z</time></trkpt><trkpt lat="39.29237463026954" lon="9.352751106887938"><ele>163.33333333333334</ele><time>2026-04-03T07:41:58.001Z</time></trkpt><trkpt lat="39.29246477225389" lon="9.352968342303114"><ele>163.66666666666666</ele><time>2026-04-03T07:41:59.001Z</time></trkpt><trkpt lat="39.29255250878558" lon="9.353187686481494"><ele>164.0</ele><time>2026-04-03T07:42:00.001Z</time></trkpt><trkpt lat="39.29264470181956" lon="9.353403684457145"><ele>164.0</ele><time>2026-04-03T07:42:01.001Z</time></trkpt><trkpt lat="39.29275056551434" lon="9.353614455879868"><ele>164.0</ele><time>2026-04-03T07:42:02.001Z</time></trkpt><trkpt lat="39.292858956221984" lon="9.353820931036669"><ele>164.0</ele><time>2026-04-03T07:42:03.001Z</time></trkpt><trkpt lat="39.29297335262357" lon="9.354026692211576"><ele>166.66666666666666</ele><time>2026-04-03T07:42:04.001Z</time></trkpt><trkpt lat="39.293091812007376" lon="9.354230858523733"><ele>169.33333333333334</ele><time>2026-04-03T07:42:05.001Z</time></trkpt><trkpt lat="39.29320586343499" lon="9.354441979306422"><ele>172.0</ele><time>2026-04-03T07:42:06.001Z</time></trkpt><trkpt lat="39.293323112967336" lon="9.35465409521327"><ele>172.66666666666669</ele><time>2026-04-03T07:42:07.001Z</time></trkpt><trkpt lat="39.29343552126495" lon="9.354860868776944"><ele>173.33333333333334</ele><time>2026-04-03T07:42:08.001Z</time></trkpt><trkpt lat="39.2935482474401" lon="9.35506929499222"><ele>174.0</ele><time>2026-04-03T07:42:09.001Z</time></trkpt><trkpt lat="39.29366197096546" lon="9.355275212698407"><ele>174.0</ele><time>2026-04-03T07:42:10.001Z</time></trkpt><trkpt lat="39.29377637135813" lon="9.35548112112768"><ele>174.0</ele><time>2026-04-03T07:42:11.001Z</time></trkpt><trkpt lat="39.29389351660878" lon="9.355680807962793"><ele>174.0</ele><time>2026-04-03T07:42:12.001Z</time></trkpt><trkpt lat="39.2940219837931" lon="9.355867479265127"><ele>176.33333333333334</ele><time>2026-04-03T07:42:13.001Z</time></trkpt><trkpt lat="39.294167309059624" lon="9.356036579941662"><ele>178.66666666666669</ele><time>2026-04-03T07:42:14.001Z</time></trkpt><trkpt lat="39.29432511925478" lon="9.356189922133634"><ele>181.0</ele><time>2026-04-03T07:42:15.001Z</time></trkpt><trkpt lat="39.294491115267746" lon="9.356340134257376"><ele>180.66666666666669</ele><time>2026-04-03T07:42:16.001Z</time></trkpt><trkpt lat="39.294654433652916" lon="9.356492445184868"><ele>180.33333333333334</ele><time>2026-04-03T07:42:17.001Z</time></trkpt><trkpt lat="39.29481101553282" lon="9.35664409854234"><ele>180.0</ele><time>2026-04-03T07:42:18.001Z</time></trkpt><trkpt lat="39.294954056790715" lon="9.356810114049345"><ele>180.0</ele><time>2026-04-03T07:42:19.001Z</time></trkpt><trkpt lat="39.295075719893724" lon="9.357000747600946"><ele>180.0</ele><time>2026-04-03T07:42:20.001Z</time></trkpt><trkpt lat="39.29518785996851" lon="9.357204316791844"><ele>180.0</ele><time>2026-04-03T07:42:21.001Z</time></trkpt><trkpt lat="39.29529525333026" lon="9.35741208322808"><ele>179.66666666666666</ele><time>2026-04-03T07:42:22.001Z</time></trkpt><trkpt lat="39.295389817494915" lon="9.357630367153494"><ele>179.33333333333331</ele><time>2026-04-03T07:42:23.001Z</time></trkpt><trkpt lat="39.29546928974575" lon="9.357859323981764"><ele>179.0</ele><time>2026-04-03T07:42:24.001Z</time></trkpt><trkpt lat="39.29553333571288" lon="9.358092010714444"><ele>181.33333333333331</ele><time>2026-04-03T07:42:25.001Z</time></trkpt><trkpt lat="39.29559279680118" lon="9.358327416585727"><ele>183.66666666666666</ele><time>2026-04-03T07:42:26.001Z</time></trkpt><trkpt lat="39.2956548315243" lon="9.358564784381738"><ele>186.0</ele><time>2026-04-03T07:42:27.001Z</time></trkpt><trkpt lat="39.29572946935821" lon="9.358792109965744"><ele>186.0</ele><time>2026-04-03T07:42:28.001Z</time></trkpt><trkpt lat="39.29583140143137" lon="9.359000238570308"><ele>186.0</ele><time>2026-04-03T07:42:29.001Z</time></trkpt><trkpt lat="39.295957622449215" lon="9.359188298175646"><ele>186.0</ele><time>2026-04-03T07:42:30.001Z</time></trkpt><trkpt lat="39.29608323811608" lon="9.359377011602596"><ele>186.0</ele><time>2026-04-03T07:42:31.001Z</time></trkpt><trkpt lat="39.29620298452095" lon="9.359569734458187"><ele>186.0</ele><time>2026-04-03T07:42:32.001Z</time></trkpt><trkpt lat="39.296325418442535" lon="9.359759883153549"><ele>186.0</ele><time>2026-04-03T07:42:33.001Z</time></trkpt><trkpt lat="39.29645453902386" lon="9.359943367812201"><ele>189.33333333333331</ele><time>2026-04-03T07:42:34.001Z</time></trkpt><trkpt lat="39.29658982937021" lon="9.360116896536566"><ele>192.66666666666666</ele><time>2026-04-03T07:42:35.001Z</time></trkpt><trkpt lat="39.29672986848792" lon="9.360286366350882"><ele>196.0</ele><time>2026-04-03T07:42:36.001Z</time></trkpt><trkpt lat="39.29687494327018" lon="9.360449588072525"><ele>196.0</ele><time>2026-04-03T07:42:37.001Z</time></trkpt><trkpt lat="39.29702027845931" lon="9.360609506609377"><ele>196.0</ele><time>2026-04-03T07:42:38.001Z</time></trkpt><trkpt lat="39.29716351913983" lon="9.360767739624489"><ele>196.0</ele><time>2026-04-03T07:42:39.001Z</time></trkpt><trkpt lat="39.29730571641892" lon="9.360928095196112"><ele>197.33333333333331</ele><time>2026-04-03T07:42:40.001Z</time></trkpt><trkpt lat="39.2974493368812" lon="9.361080310804152"><ele>198.66666666666669</ele><time>2026-04-03T07:42:41.001Z</time></trkpt><trkpt lat="39.29759422365378" lon="9.361211866803833"><ele>200.0</ele><time>2026-04-03T07:42:42.001Z</time></trkpt><trkpt lat="39.29774483537187" lon="9.361298483824868"><ele>200.0</ele><time>2026-04-03T07:42:43.001Z</time></trkpt><trkpt lat="39.29789356450564" lon="9.361340296375321"><ele>200.0</ele><time>2026-04-03T07:42:44.001Z</time></trkpt><trkpt lat="39.298016732430774" lon="9.36140953966008"><ele>200.0</ele><time>2026-04-03T07:42:45.001Z</time></trkpt><trkpt lat="39.29810158740939" lon="9.361543440235216"><ele>200.0</ele><time>2026-04-03T07:42:46.001Z</time></trkpt><trkpt lat="39.29815430497573" lon="9.361717651559097"><ele>201.33333333333334</ele><time>2026-04-03T07:42:47.001Z</time></trkpt><trkpt lat="39.298178680298655" lon="9.361912742136775"><ele>202.66666666666669</ele><time>2026-04-03T07:42:48.001Z</time></trkpt><trkpt lat="39.29820903670382" lon="9.362110154467157"><ele>204.0</ele><time>2026-04-03T07:42:49.001Z</time></trkpt><trkpt lat="39.29825779336814" lon="9.362301049188625"><ele>204.66666666666669</ele><time>2026-04-03T07:42:50.001Z</time></trkpt><trkpt lat="39.298346803194825" lon="9.362466409203762"><ele>205.33333333333334</ele><time>2026-04-03T07:42:51.001Z</time></trkpt><trkpt lat="39.298462347032874" lon="9.362594585467244"><ele>206.0</ele><time>2026-04-03T07:42:52.001Z</time></trkpt><trkpt lat="39.29857052519054" lon="9.362728847556522"><ele>206.0</ele><time>2026-04-03T07:42:53.001Z</time></trkpt><trkpt lat="39.29865365513116" lon="9.362895173346104"><ele>206.0</ele><time>2026-04-03T07:42:54.001Z</time></trkpt><trkpt lat="39.29871935265466" lon="9.363079592043002"><ele>206.0</ele><time>2026-04-03T07:42:55.001Z</time></trkpt><trkpt lat="39.29878815247504" lon="9.363263264800782"><ele>206.25</ele><time>2026-04-03T07:42:56.001Z</time></trkpt><trkpt lat="39.298866705692944" lon="9.363444791473144"><ele>206.5</ele><time>2026-04-03T07:42:57.001Z</time></trkpt><trkpt lat="39.29892884686328" lon="9.363621710195623"><ele>206.75</ele><time>2026-04-03T07:42:58.001Z</time></trkpt><trkpt lat="39.29894126699467" lon="9.363798388458079"><ele>207.0</ele><time>2026-04-03T07:42:59.001Z</time></trkpt><trkpt lat="39.29890822359981" lon="9.363967719621538"><ele>206.5</ele><time>2026-04-03T07:43:00.001Z</time></trkpt><trkpt lat="39.298866207292825" lon="9.364129083024343"><ele>206.0</ele><time>2026-04-03T07:43:01.001Z</time></trkpt><trkpt lat="39.2988751503694" lon="9.364283109014991"><ele>205.5</ele><time>2026-04-03T07:43:02.001Z</time></trkpt><trkpt lat="39.29894719977865" lon="9.364419042950283"><ele>205.0</ele><time>2026-04-03T07:43:03.001Z</time></trkpt><trkpt lat="39.29905973388836" lon="9.364496086305829"><ele>207.75</ele><time>2026-04-03T07:43:04.001Z</time></trkpt><trkpt lat="39.29917457659237" lon="9.364518700626501"><ele>210.5</ele><time>2026-04-03T07:43:05.001Z</time></trkpt><trkpt lat="39.29930178453642" lon="9.364521846441091"><ele>213.25</ele><time>2026-04-03T07:43:06.001Z</time></trkpt><trkpt lat="39.29943317572748" lon="9.36444654820134"><ele>216.0</ele><time>2026-04-03T07:43:07.001Z</time></trkpt><trkpt lat="39.299564169326146" lon="9.364360702790519"><ele>216.0</ele><time>2026-04-03T07:43:08.001Z</time></trkpt><trkpt lat="39.2997058307886" lon="9.364302517710284"><ele>216.0</ele><time>2026-04-03T07:43:09.001Z</time></trkpt><trkpt lat="39.29985529805101" lon="9.364298671417755"><ele>216.0</ele><time>2026-04-03T07:43:10.001Z</time></trkpt><trkpt lat="39.30000258152256" lon="9.364332318648499"><ele>216.0</ele><time>2026-04-03T07:43:11.001Z</time></trkpt><trkpt lat="39.30012934381541" lon="9.364378769893948"><ele>218.5</ele><time>2026-04-03T07:43:12.001Z</time></trkpt><trkpt lat="39.300230225892676" lon="9.364451413044373"><ele>221.0</ele><time>2026-04-03T07:43:13.001Z</time></trkpt><trkpt lat="39.300294695593" lon="9.36457236991297"><ele>223.5</ele><time>2026-04-03T07:43:14.001Z</time></trkpt><trkpt lat="39.300304683238984" lon="9.364726826127555"><ele>226.0</ele><time>2026-04-03T07:43:15.001Z</time></trkpt><trkpt lat="39.30026909427831" lon="9.36487992847829"><ele>226.0</ele><time>2026-04-03T07:43:16.001Z</time></trkpt><trkpt lat="39.30022586023834" lon="9.365034565396686"><ele>226.0</ele><time>2026-04-03T07:43:17.001Z</time></trkpt><trkpt lat="39.30019194262836" lon="9.365210796934154"><ele>226.0</ele><time>2026-04-03T07:43:18.001Z</time></trkpt><trkpt lat="39.300167665637794" lon="9.365401329794851"><ele>226.0</ele><time>2026-04-03T07:43:19.001Z</time></trkpt><trkpt lat="39.30013783069477" lon="9.365566265681927"><ele>226.75</ele><time>2026-04-03T07:43:20.001Z</time></trkpt><trkpt lat="39.300105381798964" lon="9.365745115240493"><ele>227.5</ele><time>2026-04-03T07:43:21.001Z</time></trkpt><trkpt lat="39.3000771408001" lon="9.365931595989126"><ele>228.25</ele><time>2026-04-03T07:43:22.001Z</time></trkpt><trkpt lat="39.30005354350509" lon="9.36612512357154"><ele>229.0</ele><time>2026-04-03T07:43:23.002Z</time></trkpt><trkpt lat="39.300029120882584" lon="9.366322015168508"><ele>231.33333333333331</ele><time>2026-04-03T07:43:24.002Z</time></trkpt><trkpt lat="39.29999710228141" lon="9.366519575174777"><ele>233.66666666666669</ele><time>2026-04-03T07:43:25.002Z</time></trkpt><trkpt lat="39.29996435333864" lon="9.366721578507695"><ele>236.0</ele><time>2026-04-03T07:43:26.002Z</time></trkpt><trkpt lat="39.2999306821707" lon="9.366922745799961"><ele>236.0</ele><time>2026-04-03T07:43:27.002Z</time></trkpt><trkpt lat="39.299915760680385" lon="9.367126470097865"><ele>236.0</ele><time>2026-04-03T07:43:28.002Z</time></trkpt><trkpt lat="39.29992611391922" lon="9.367329934761772"><ele>236.0</ele><time>2026-04-03T07:43:29.002Z</time></trkpt><trkpt lat="39.29996838353345" lon="9.367525387929257"><ele>233.66666666666669</ele><time>2026-04-03T07:43:30.002Z</time></trkpt><trkpt lat="39.30003874548913" lon="9.367712516930434"><ele>231.33333333333331</ele><time>2026-04-03T07:43:31.002Z</time></trkpt><trkpt lat="39.300120411884045" lon="9.36787953512594"><ele>229.0</ele><time>2026-04-03T07:43:32.002Z</time></trkpt><trkpt lat="39.30021298719329" lon="9.36803278974736"><ele>229.0</ele><time>2026-04-03T07:43:33.002Z</time></trkpt><trkpt lat="39.300333005729286" lon="9.368149893496915"><ele>229.0</ele><time>2026-04-03T07:43:34.002Z</time></trkpt><trkpt lat="39.30047568654155" lon="9.3682112339701"><ele>229.0</ele><time>2026-04-03T07:43:35.002Z</time></trkpt><trkpt lat="39.30062759674703" lon="9.368229404483126"><ele>234.5</ele><time>2026-04-03T07:43:36.001Z</time></trkpt><trkpt lat="39.30077682122418" lon="9.368244214787836"><ele>240.0</ele><time>2026-04-03T07:43:37.001Z</time></trkpt><trkpt lat="39.300928578155485" lon="9.368257532505044"><ele>245.5</ele><time>2026-04-03T07:43:38.001Z</time></trkpt><trkpt lat="39.30107018961452" lon="9.368259656279418"><ele>251.0</ele><time>2026-04-03T07:43:39.001Z</time></trkpt><trkpt lat="39.30119723166135" lon="9.36826611283815"><ele>251.0</ele><time>2026-04-03T07:43:40.001Z</time></trkpt><trkpt lat="39.30130407630132" lon="9.368324238144387"><ele>251.0</ele><time>2026-04-03T07:43:41.001Z</time></trkpt><trkpt lat="39.30137270936055" lon="9.368438196368453"><ele>251.0</ele><time>2026-04-03T07:43:42.001Z</time></trkpt><trkpt lat="39.30138881125629" lon="9.368584226975178"><ele>251.0</ele><time>2026-04-03T07:43:43.001Z</time></trkpt><trkpt lat="39.3013460157781" lon="9.368743334901508"><ele>249.25</ele><time>2026-04-03T07:43:44.001Z</time></trkpt><trkpt lat="39.30129372293773" lon="9.368909027063943"><ele>247.5</ele><time>2026-04-03T07:43:45.001Z</time></trkpt><trkpt lat="39.30124347996036" lon="9.369091005547336"><ele>245.75</ele><time>2026-04-03T07:43:46.001Z</time></trkpt><trkpt lat="39.30119246161117" lon="9.36926439808859"><ele>244.0</ele><time>2026-04-03T07:43:47.001Z</time></trkpt><trkpt lat="39.30113253189852" lon="9.369434471501817"><ele>244.0</ele><time>2026-04-03T07:43:48.001Z</time></trkpt><trkpt lat="39.30106791584878" lon="9.369604615175058"><ele>244.0</ele><time>2026-04-03T07:43:49.001Z</time></trkpt><trkpt lat="39.30100904104397" lon="9.36977886223246"><ele>244.0</ele><time>2026-04-03T07:43:50.001Z</time></trkpt><trkpt lat="39.30095317468904" lon="9.369952668786546"><ele>244.0</ele><time>2026-04-03T07:43:51.001Z</time></trkpt><trkpt lat="39.300893081505755" lon="9.370123502571893"><ele>246.75</ele><time>2026-04-03T07:43:52.001Z</time></trkpt><trkpt lat="39.300836836540135" lon="9.37029204032202"><ele>249.5</ele><time>2026-04-03T07:43:53.001Z</time></trkpt><trkpt lat="39.30079747941432" lon="9.370444885221817"><ele>252.25</ele><time>2026-04-03T07:43:54.001Z</time></trkpt><trkpt lat="39.300789993489275" lon="9.370590939571807"><ele>255.0</ele><time>2026-04-03T07:43:55.001Z</time></trkpt><trkpt lat="39.30084444809112" lon="9.370715235914938"><ele>256.25</ele><time>2026-04-03T07:43:56.001Z</time></trkpt><trkpt lat="39.30093504243316" lon="9.370804659924234"><ele>257.5</ele><time>2026-04-03T07:43:57.001Z</time></trkpt><trkpt lat="39.30102753277017" lon="9.370896135167207"><ele>258.75</ele><time>2026-04-03T07:43:58.001Z</time></trkpt><trkpt lat="39.301087127372625" lon="9.371032185001136"><ele>260.0</ele><time>2026-04-03T07:43:59.001Z</time></trkpt><trkpt lat="39.30110861657186" lon="9.371203095065285"><ele>260.25</ele><time>2026-04-03T07:44:00.001Z</time></trkpt><trkpt lat="39.301122107759305" lon="9.371386353617993"><ele>260.5</ele><time>2026-04-03T07:44:01.001Z</time></trkpt><trkpt lat="39.30114074555746" lon="9.371571562162964"><ele>260.75</ele><time>2026-04-03T07:44:02.001Z</time></trkpt><trkpt lat="39.301156458221854" lon="9.371762715399365"><ele>261.0</ele><time>2026-04-03T07:44:03.001Z</time></trkpt><trkpt lat="39.301140130649244" lon="9.37197041154833"><ele>261.0</ele><time>2026-04-03T07:44:04.001Z</time></trkpt><trkpt lat="39.301079048912584" lon="9.372163421167848"><ele>261.0</ele><time>2026-04-03T07:44:05.001Z</time></trkpt><trkpt lat="39.30100148008864" lon="9.37234672417289"><ele>261.0</ele><time>2026-04-03T07:44:06.001Z</time></trkpt><trkpt lat="39.30093297419708" lon="9.372539968507256"><ele>263.6666666666667</ele><time>2026-04-03T07:44:07.001Z</time></trkpt><trkpt lat="39.30088324098552" lon="9.372737958824867"><ele>266.33333333333337</ele><time>2026-04-03T07:44:08.001Z</time></trkpt><trkpt lat="39.300836370500264" lon="9.372932351482913"><ele>269.0</ele><time>2026-04-03T07:44:09.001Z</time></trkpt><trkpt lat="39.30079377358089" lon="9.373128508994418"><ele>271.0</ele><time>2026-04-03T07:44:10.001Z</time></trkpt><trkpt lat="39.300761057605825" lon="9.373321122618446"><ele>273.0</ele><time>2026-04-03T07:44:11.001Z</time></trkpt><trkpt lat="39.30076059567412" lon="9.373515161553733"><ele>275.0</ele><time>2026-04-03T07:44:12.001Z</time></trkpt><trkpt lat="39.300783527964455" lon="9.37370755624299"><ele>275.6666666666667</ele><time>2026-04-03T07:44:13.001Z</time></trkpt><trkpt lat="39.30080498946969" lon="9.373899350635124"><ele>276.3333333333333</ele><time>2026-04-03T07:44:14.001Z</time></trkpt><trkpt lat="39.300834965921744" lon="9.374086325845228"><ele>277.0</ele><time>2026-04-03T07:44:15.001Z</time></trkpt><trkpt lat="39.300894345325126" lon="9.374266985818346"><ele>277.0</ele><time>2026-04-03T07:44:16.001Z</time></trkpt><trkpt lat="39.30095884867742" lon="9.37442928686295"><ele>277.0</ele><time>2026-04-03T07:44:17.001Z</time></trkpt><trkpt lat="39.301021366131835" lon="9.374591969731773"><ele>277.0</ele><time>2026-04-03T07:44:18.001Z</time></trkpt><trkpt lat="39.301070848644116" lon="9.374743247238897"><ele>277.0</ele><time>2026-04-03T07:44:19.001Z</time></trkpt><trkpt lat="39.301115102287405" lon="9.374885514408918"><ele>275.4</ele><time>2026-04-03T07:44:20.001Z</time></trkpt><trkpt lat="39.301164631450405" lon="9.37501430205192"><ele>273.79999999999995</ele><time>2026-04-03T07:44:21.001Z</time></trkpt><trkpt lat="39.30122107679492" lon="9.375141455692939"><ele>272.2</ele><time>2026-04-03T07:44:22.001Z</time></trkpt><trkpt lat="39.3012934547719" lon="9.3752505359825"><ele>270.59999999999997</ele><time>2026-04-03T07:44:23.001Z</time></trkpt><trkpt lat="39.30138392323819" lon="9.375335306874906"><ele>269.0</ele><time>2026-04-03T07:44:24.001Z</time></trkpt><trkpt lat="39.30149835040379" lon="9.375350559920191"><ele>279.0</ele><time>2026-04-03T07:44:25.001Z</time></trkpt><trkpt lat="39.30161515010325" lon="9.375339363218576"><ele>289.0</ele><time>2026-04-03T07:44:26.001Z</time></trkpt><trkpt lat="39.30173092032185" lon="9.375335007342015"><ele>299.0</ele><time>2026-04-03T07:44:27.001Z</time></trkpt><trkpt lat="39.301843022629434" lon="9.375330449941242"><ele>309.0</ele><time>2026-04-03T07:44:28.001Z</time></trkpt><trkpt lat="39.30196639455696" lon="9.375331901134077"><ele>309.0</ele><time>2026-04-03T07:44:29.001Z</time></trkpt><trkpt lat="39.3020964125402" lon="9.37534162760833"><ele>309.0</ele><time>2026-04-03T07:44:30.001Z</time></trkpt><trkpt lat="39.302228815400646" lon="9.375352180418208"><ele>309.0</ele><time>2026-04-03T07:44:31.001Z</time></trkpt><trkpt lat="39.30236355224531" lon="9.375380733777094"><ele>309.0</ele><time>2026-04-03T07:44:32.001Z</time></trkpt><trkpt lat="39.30249626506092" lon="9.37543162184667"><ele>308.0</ele><time>2026-04-03T07:44:33.001Z</time></trkpt><trkpt lat="39.302609080646235" lon="9.375503406455884"><ele>307.0</ele><time>2026-04-03T07:44:34.001Z</time></trkpt><trkpt lat="39.302695012568634" lon="9.375591125745062"><ele>306.0</ele><time>2026-04-03T07:44:35.001Z</time></trkpt><trkpt lat="39.302743385128736" lon="9.375703489905227"><ele>305.0</ele><time>2026-04-03T07:44:36.001Z</time></trkpt><trkpt lat="39.302738188685225" lon="9.375827181596584"><ele>304.0</ele><time>2026-04-03T07:44:37.001Z</time></trkpt><trkpt lat="39.3026854974086" lon="9.375944206732244"><ele>304.0</ele><time>2026-04-03T07:44:38.001Z</time></trkpt><trkpt lat="39.30261883227468" lon="9.376036964937944"><ele>304.0</ele><time>2026-04-03T07:44:39.001Z</time></trkpt><trkpt lat="39.30255469869139" lon="9.376133705439"><ele>304.0</ele><time>2026-04-03T07:44:40.001Z</time></trkpt><trkpt lat="39.30252918211808" lon="9.376252836262324"><ele>304.0</ele><time>2026-04-03T07:44:41.001Z</time></trkpt><trkpt lat="39.30257334391939" lon="9.376381046558983"><ele>304.0</ele><time>2026-04-03T07:44:42.001Z</time></trkpt><trkpt lat="39.30265782546295" lon="9.376479083597603"><ele>304.25</ele><time>2026-04-03T07:44:43.001Z</time></trkpt><trkpt lat="39.30275709600172" lon="9.376571606373133"><ele>304.5</ele><time>2026-04-03T07:44:44.001Z</time></trkpt><trkpt lat="39.30285218182219" lon="9.376687511347761"><ele>304.75</ele><time>2026-04-03T07:44:45.001Z</time></trkpt><trkpt lat="39.30292776834773" lon="9.376820170768413"><ele>305.0</ele><time>2026-04-03T07:44:46.001Z</time></trkpt><trkpt lat="39.30297338369513" lon="9.37696641480474"><ele>305.0</ele><time>2026-04-03T07:44:47.001Z</time></trkpt><trkpt lat="39.302967918914135" lon="9.377120517301723"><ele>305.0</ele><time>2026-04-03T07:44:48.001Z</time></trkpt><trkpt lat="39.30290731612886" lon="9.37724291609535"><ele>305.0</ele><time>2026-04-03T07:44:49.001Z</time></trkpt><trkpt lat="39.30280735634381" lon="9.377321312867243"><ele>305.0</ele><time>2026-04-03T07:44:50.001Z</time></trkpt><trkpt lat="39.30270117876692" lon="9.377372660529899"><ele>307.0</ele><time>2026-04-03T07:44:51.001Z</time></trkpt><trkpt lat="39.30259975984821" lon="9.377446353135074"><ele>309.0</ele><time>2026-04-03T07:44:52.001Z</time></trkpt><trkpt lat="39.302507317330715" lon="9.377554977350108"><ele>311.0</ele><time>2026-04-03T07:44:53.001Z</time></trkpt><trkpt lat="39.30244078631765" lon="9.377688548609479"><ele>313.0</ele><time>2026-04-03T07:44:54.001Z</time></trkpt><trkpt lat="39.3024179846046" lon="9.37784027455134"><ele>313.0</ele><time>2026-04-03T07:44:55.001Z</time></trkpt><trkpt lat="39.30245361340877" lon="9.377988841513858"><ele>313.0</ele><time>2026-04-03T07:44:56.001Z</time></trkpt><trkpt lat="39.3025155882938" lon="9.378119718932025"><ele>313.0</ele><time>2026-04-03T07:44:57.001Z</time></trkpt><trkpt lat="39.30255165404482" lon="9.378263402214158"><ele>313.0</ele><time>2026-04-03T07:44:58.001Z</time></trkpt><trkpt lat="39.30253931050166" lon="9.37842043362026"><ele>314.0</ele><time>2026-04-03T07:44:59.001Z</time></trkpt><trkpt lat="39.30249540814746" lon="9.378581596541068"><ele>315.0</ele><time>2026-04-03T07:45:00.001Z</time></trkpt><trkpt lat="39.3024741474755" lon="9.378741942137255"><ele>316.0</ele><time>2026-04-03T07:45:01.001Z</time></trkpt><trkpt lat="39.30248982392436" lon="9.378897557633062"><ele>317.0</ele><time>2026-04-03T07:45:02.001Z</time></trkpt><trkpt lat="39.3025560088063" lon="9.379024276272132"><ele>317.0</ele><time>2026-04-03T07:45:03.001Z</time></trkpt><trkpt lat="39.30266000226884" lon="9.379093636913185"><ele>317.0</ele><time>2026-04-03T07:45:04.001Z</time></trkpt><trkpt lat="39.302774643135876" lon="9.379137536174301"><ele>317.0</ele><time>2026-04-03T07:45:05.001Z</time></trkpt><trkpt lat="39.30287797190052" lon="9.379211841926153"><ele>317.0</ele><time>2026-04-03T07:45:06.001Z</time></trkpt><trkpt lat="39.302958013265936" lon="9.379336160618482"><ele>317.0</ele><time>2026-04-03T07:45:07.001Z</time></trkpt><trkpt lat="39.30300687864189" lon="9.379486056897766"><ele>317.0</ele><time>2026-04-03T07:45:08.001Z</time></trkpt><trkpt lat="39.30303493510276" lon="9.379634316051312"><ele>317.0</ele><time>2026-04-03T07:45:09.001Z</time></trkpt><trkpt lat="39.303034825121884" lon="9.379785036305835"><ele>317.0</ele><time>2026-04-03T07:45:10.001Z</time></trkpt><trkpt lat="39.30299952035959" lon="9.379914130492388"><ele>318.4</ele><time>2026-04-03T07:45:11.001Z</time></trkpt><trkpt lat="39.3029116609945" lon="9.379991558877423"><ele>319.79999999999995</ele><time>2026-04-03T07:45:12.001Z</time></trkpt><trkpt lat="39.302807290530644" lon="9.38002730008728"><ele>321.2</ele><time>2026-04-03T07:45:13.001Z</time></trkpt><trkpt lat="39.30270831114874" lon="9.380081793356956"><ele>322.59999999999997</ele><time>2026-04-03T07:45:14.001Z</time></trkpt><trkpt lat="39.30263207493576" lon="9.380188679681881"><ele>324.0</ele><time>2026-04-03T07:45:15.001Z</time></trkpt><trkpt lat="39.302601285632804" lon="9.380333424401782"><ele>324.0</ele><time>2026-04-03T07:45:16.001Z</time></trkpt><trkpt lat="39.30262547244549" lon="9.380482871713848"><ele>324.0</ele><time>2026-04-03T07:45:17.001Z</time></trkpt><trkpt lat="39.302700852672636" lon="9.3806170594504"><ele>324.0</ele><time>2026-04-03T07:45:18.001Z</time></trkpt><trkpt lat="39.3027784529821" lon="9.380724522818404"><ele>324.0</ele><time>2026-04-03T07:45:19.001Z</time></trkpt><trkpt lat="39.302857637020466" lon="9.380844176460116"><ele>324.25</ele><time>2026-04-03T07:45:20.001Z</time></trkpt><trkpt lat="39.302943750023815" lon="9.380965747246687"><ele>324.5</ele><time>2026-04-03T07:45:21.001Z</time></trkpt><trkpt lat="39.30303389481978" lon="9.38108954414016"><ele>324.75</ele><time>2026-04-03T07:45:22.001Z</time></trkpt><trkpt lat="39.30313346052592" lon="9.381203001208286"><ele>325.0</ele><time>2026-04-03T07:45:23.001Z</time></trkpt><trkpt lat="39.30323904840034" lon="9.381305843027562"><ele>329.75</ele><time>2026-04-03T07:45:24.001Z</time></trkpt><trkpt lat="39.30335278105198" lon="9.381384801150428"><ele>334.5</ele><time>2026-04-03T07:45:25.001Z</time></trkpt><trkpt lat="39.30346628625097" lon="9.381459400044342"><ele>339.25</ele><time>2026-04-03T07:45:26.001Z</time></trkpt><trkpt lat="39.303565008301184" lon="9.381553201873183"><ele>344.0</ele><time>2026-04-03T07:45:27.001Z</time></trkpt><trkpt lat="39.30362953785132" lon="9.381689767802968"><ele>344.0</ele><time>2026-04-03T07:45:28.001Z</time></trkpt><trkpt lat="39.303644664942084" lon="9.38185616963022"><ele>344.0</ele><time>2026-04-03T07:45:29.001Z</time></trkpt><trkpt lat="39.3036452038826" lon="9.381996341322623"><ele>344.0</ele><time>2026-04-03T07:45:30.001Z</time></trkpt><trkpt lat="39.30364621422585" lon="9.382146426804773"><ele>344.0</ele><time>2026-04-03T07:45:31.001Z</time></trkpt><trkpt lat="39.30367690534576" lon="9.382292385214818"><ele>342.0</ele><time>2026-04-03T07:45:32.001Z</time></trkpt><trkpt lat="39.303750484759604" lon="9.382412218980239"><ele>340.0</ele><time>2026-04-03T07:45:33.001Z</time></trkpt><trkpt lat="39.303857891529645" lon="9.382489413947011"><ele>338.0</ele><time>2026-04-03T07:45:34.001Z</time></trkpt><trkpt lat="39.30395432913737" lon="9.382570915016489"><ele>336.0</ele><time>2026-04-03T07:45:35.001Z</time></trkpt><trkpt lat="39.30400493977546" lon="9.38268817202266"><ele>336.75</ele><time>2026-04-03T07:45:36.001Z</time></trkpt><trkpt lat="39.30399800043352" lon="9.38280786811436"><ele>337.5</ele><time>2026-04-03T07:45:37.001Z</time></trkpt><trkpt lat="39.30394168183382" lon="9.382892686721183"><ele>338.25</ele><time>2026-04-03T07:45:38.001Z</time></trkpt><trkpt lat="39.30387080803392" lon="9.383118724892249"><ele>339.0</ele><time>2026-04-03T07:45:39.001Z</time></trkpt><trkpt lat="39.303792156492506" lon="9.383245288765982"><ele>339.0</ele><time>2026-04-03T07:45:40.001Z</time></trkpt><trkpt lat="39.30373345507777" lon="9.38337124142602"><ele>339.0</ele><time>2026-04-03T07:45:41.001Z</time></trkpt><trkpt lat="39.303679033644976" lon="9.383487359872396"><ele>339.0</ele><time>2026-04-03T07:45:42.001Z</time></trkpt><trkpt lat="39.30367728657233" lon="9.383613679051777"><ele>339.0</ele><time>2026-04-03T07:45:43.001Z</time></trkpt><trkpt lat="39.303724615595996" lon="9.383731523979778"><ele>339.0</ele><time>2026-04-03T07:45:44.001Z</time></trkpt><trkpt lat="39.303823668712575" lon="9.383810054148285"><ele>345.75</ele><time>2026-04-03T07:45:45.001Z</time></trkpt><trkpt lat="39.30392133065223" lon="9.383878970680286"><ele>352.5</ele><time>2026-04-03T07:45:46.001Z</time></trkpt><trkpt lat="39.304018992185746" lon="9.383956726055757"><ele>359.25</ele><time>2026-04-03T07:45:47.001Z</time></trkpt><trkpt lat="39.304118314571205" lon="9.384038013352347"><ele>366.0</ele><time>2026-04-03T07:45:48.001Z</time></trkpt><trkpt lat="39.30421460492807" lon="9.384122076232496"><ele>366.0</ele><time>2026-04-03T07:45:49.001Z</time></trkpt><trkpt lat="39.3042923219254" lon="9.38422180037878"><ele>366.0</ele><time>2026-04-03T07:45:50.001Z</time></trkpt><trkpt lat="39.30433361528413" lon="9.384357181238933"><ele>366.0</ele><time>2026-04-03T07:45:51.001Z</time></trkpt><trkpt lat="39.30432267156421" lon="9.384495382061438"><ele>366.0</ele><time>2026-04-03T07:45:52.001Z</time></trkpt><trkpt lat="39.30421830286062" lon="9.384555378611283"><ele>366.0</ele><time>2026-04-03T07:45:53.001Z</time></trkpt><trkpt lat="39.30413804794394" lon="9.384634347464049"><ele>365.6</ele><time>2026-04-03T07:45:54.001Z</time></trkpt><trkpt lat="39.304060260082004" lon="9.384729726293676"><ele>365.20000000000005</ele><time>2026-04-03T07:45:55.001Z</time></trkpt><trkpt lat="39.30400464929818" lon="9.384866586266762"><ele>364.79999999999995</ele><time>2026-04-03T07:45:56.001Z</time></trkpt><trkpt lat="39.303997242912665" lon="9.385002152617979"><ele>364.4</ele><time>2026-04-03T07:45:57.001Z</time></trkpt><trkpt lat="39.304048800375256" lon="9.385122065054885"><ele>364.0</ele><time>2026-04-03T07:45:58.001Z</time></trkpt><trkpt lat="39.304108331815684" lon="9.385197875593326"><ele>364.0</ele><time>2026-04-03T07:45:59.001Z</time></trkpt><trkpt lat="39.304236924383424" lon="9.385262976590486"><ele>364.0</ele><time>2026-04-03T07:46:00.001Z</time></trkpt><trkpt lat="39.30435461328697" lon="9.385291732071524"><ele>364.0</ele><time>2026-04-03T07:46:01.001Z</time></trkpt><trkpt lat="39.3045166425825" lon="9.385280919823444"><ele>364.0</ele><time>2026-04-03T07:46:02.001Z</time></trkpt><trkpt lat="39.30463700195678" lon="9.385267358382903"><ele>370.5</ele><time>2026-04-03T07:46:03.001Z</time></trkpt><trkpt lat="39.30476112347681" lon="9.38526685417073"><ele>377.0</ele><time>2026-04-03T07:46:04.001Z</time></trkpt><trkpt lat="39.30488311761896" lon="9.385287346097169"><ele>383.5</ele><time>2026-04-03T07:46:05.001Z</time></trkpt><trkpt lat="39.30499095780853" lon="9.3853411486106"><ele>390.0</ele><time>2026-04-03T07:46:06.001Z</time></trkpt><trkpt lat="39.30507399423334" lon="9.385440517585645"><ele>387.75</ele><time>2026-04-03T07:46:07.001Z</time></trkpt><trkpt lat="39.30511766862862" lon="9.385585670165824"><ele>385.5</ele><time>2026-04-03T07:46:08.001Z</time></trkpt><trkpt lat="39.305122975059305" lon="9.385742738689675"><ele>383.25</ele><time>2026-04-03T07:46:09.001Z</time></trkpt><trkpt lat="39.30508302025032" lon="9.38589283382428"><ele>381.0</ele><time>2026-04-03T07:46:10.001Z</time></trkpt><trkpt lat="39.30497827023646" lon="9.385973263431897"><ele>381.0</ele><time>2026-04-03T07:46:11.001Z</time></trkpt><trkpt lat="39.304916319433644" lon="9.386084929558141"><ele>381.0</ele><time>2026-04-03T07:46:12.001Z</time></trkpt><trkpt lat="39.30488458009617" lon="9.386200302936764"><ele>381.0</ele><time>2026-04-03T07:46:13.001Z</time></trkpt><trkpt lat="39.30492002739138" lon="9.38633934966467"><ele>381.0</ele><time>2026-04-03T07:46:14.001Z</time></trkpt><trkpt lat="39.30499495310483" lon="9.386455826674625"><ele>381.0</ele><time>2026-04-03T07:46:15.001Z</time></trkpt><trkpt lat="39.3051080902287" lon="9.386530195641871"><ele>381.75</ele><time>2026-04-03T07:46:16.001Z</time></trkpt><trkpt lat="39.30521807613366" lon="9.386602486646225"><ele>382.5</ele><time>2026-04-03T07:46:17.001Z</time></trkpt><trkpt lat="39.30529819622377" lon="9.386699795619965"><ele>383.25</ele><time>2026-04-03T07:46:18Z</time></trkpt><trkpt lat="39.30531626459202" lon="9.386846191170127"><ele>384.0</ele><time>2026-04-03T07:46:19Z</time></trkpt><trkpt lat="39.30526307330538" lon="9.386991229169562"><ele>384.0</ele><time>2026-04-03T07:46:20Z</time></trkpt><trkpt lat="39.30515083051859" lon="9.387075103619098"><ele>384.0</ele><time>2026-04-03T07:46:21Z</time></trkpt><trkpt lat="39.305057342738614" lon="9.387183843981695"><ele>384.0</ele><time>2026-04-03T07:46:22Z</time></trkpt><trkpt lat="39.30496997686531" lon="9.387288468514173"><ele>384.0</ele><time>2026-04-03T07:46:23Z</time></trkpt><trkpt lat="39.304950229506204" lon="9.387439984442253"><ele>385.75</ele><time>2026-04-03T07:46:24Z</time></trkpt><trkpt lat="39.30496570657264" lon="9.387603924797235"><ele>387.5</ele><time>2026-04-03T07:46:25Z</time></trkpt><trkpt lat="39.30504188672025" lon="9.387739774141108"><ele>389.25</ele><time>2026-04-03T07:46:26Z</time></trkpt><trkpt lat="39.305136874974096" lon="9.387843184866394"><ele>391.0</ele><time>2026-04-03T07:46:27Z</time></trkpt><trkpt lat="39.305216905417446" lon="9.387951793832492"><ele>392.75</ele><time>2026-04-03T07:46:28Z</time></trkpt><trkpt lat="39.305230182824694" lon="9.388097462303696"><ele>394.5</ele><time>2026-04-03T07:46:29Z</time></trkpt><trkpt lat="39.305159095631765" lon="9.388236130471407"><ele>396.25</ele><time>2026-04-03T07:46:30Z</time></trkpt><trkpt lat="39.305108837636574" lon="9.388380007764576"><ele>398.0</ele><time>2026-04-03T07:46:31Z</time></trkpt><trkpt lat="39.30505978048004" lon="9.388521822093399"><ele>398.0</ele><time>2026-04-03T07:46:32Z</time></trkpt><trkpt lat="39.30504091602256" lon="9.388666950598743"><ele>398.0</ele><time>2026-04-03T07:46:33Z</time></trkpt><trkpt lat="39.305074193791505" lon="9.388817923279376"><ele>398.0</ele><time>2026-04-03T07:46:34Z</time></trkpt><trkpt lat="39.30512510445893" lon="9.388957208011247"><ele>398.0</ele><time>2026-04-03T07:46:35Z</time></trkpt><trkpt lat="39.30515862438334" lon="9.389096741271919"><ele>401.75</ele><time>2026-04-03T07:46:36Z</time></trkpt><trkpt lat="39.3051312561821" lon="9.389234216805532"><ele>405.5</ele><time>2026-04-03T07:46:37Z</time></trkpt><trkpt lat="39.305039375143494" lon="9.389329701161955"><ele>409.25</ele><time>2026-04-03T07:46:38Z</time></trkpt><trkpt lat="39.30492034772156" lon="9.389366645035901"><ele>413.0</ele><time>2026-04-03T07:46:39Z</time></trkpt><trkpt lat="39.30479246610183" lon="9.389326666599551"><ele>410.75</ele><time>2026-04-03T07:46:40Z</time></trkpt><trkpt lat="39.304681863141795" lon="9.389240617267976"><ele>408.5</ele><time>2026-04-03T07:46:41Z</time></trkpt><trkpt lat="39.30457423235888" lon="9.389138782777465"><ele>406.25</ele><time>2026-04-03T07:46:42Z</time></trkpt><trkpt lat="39.304471706735434" lon="9.389077281206832"><ele>404.0</ele><time>2026-04-03T07:46:43Z</time></trkpt><trkpt lat="39.304361910976965" lon="9.38903066990899"><ele>404.0</ele><time>2026-04-03T07:46:44Z</time></trkpt><trkpt lat="39.30422238046101" lon="9.389058824952054"><ele>404.0</ele><time>2026-04-03T07:46:45Z</time></trkpt><trkpt lat="39.30415660212682" lon="9.38911778167765"><ele>404.0</ele><time>2026-04-03T07:46:46Z</time></trkpt><trkpt lat="39.304119172095305" lon="9.389263200068772"><ele>404.0</ele><time>2026-04-03T07:46:47Z</time></trkpt><trkpt lat="39.30415501098913" lon="9.38942564286641"><ele>404.0</ele><time>2026-04-03T07:46:48Z</time></trkpt><trkpt lat="39.304222043500765" lon="9.38956239403459"><ele>404.0</ele><time>2026-04-03T07:46:49Z</time></trkpt><trkpt lat="39.30428706802315" lon="9.389691587409047"><ele>404.0</ele><time>2026-04-03T07:46:50Z</time></trkpt><trkpt lat="39.30434218055251" lon="9.38983362244606"><ele>404.0</ele><time>2026-04-03T07:46:51Z</time></trkpt><trkpt lat="39.30439702910389" lon="9.389984606841045"><ele>404.25</ele><time>2026-04-03T07:46:52Z</time></trkpt><trkpt lat="39.30446144227637" lon="9.390119268626538"><ele>404.5</ele><time>2026-04-03T07:46:53Z</time></trkpt><trkpt lat="39.30453946405757" lon="9.390239693031926"><ele>404.75</ele><time>2026-04-03T07:46:54Z</time></trkpt><trkpt lat="39.30463979160123" lon="9.390340265265904"><ele>405.0</ele><time>2026-04-03T07:46:55Z</time></trkpt><trkpt lat="39.30475586120617" lon="9.390411491035938"><ele>409.0</ele><time>2026-04-03T07:46:56Z</time></trkpt><trkpt lat="39.30487246006894" lon="9.390474193684122"><ele>413.0</ele><time>2026-04-03T07:46:57Z</time></trkpt><trkpt lat="39.30498951455189" lon="9.39052426029045"><ele>417.0</ele><time>2026-04-03T07:46:58Z</time></trkpt><trkpt lat="39.30511466145161" lon="9.390558312248945"><ele>421.0</ele><time>2026-04-03T07:46:59Z</time></trkpt><trkpt lat="39.30523074247739" lon="9.390586179747665"><ele>421.0</ele><time>2026-04-03T07:47:00Z</time></trkpt><trkpt lat="39.305344667643915" lon="9.390636044402342"><ele>421.0</ele><time>2026-04-03T07:47:01Z</time></trkpt><trkpt lat="39.30542690849812" lon="9.39075443295954"><ele>421.0</ele><time>2026-04-03T07:47:02Z</time></trkpt><trkpt lat="39.305506079492815" lon="9.390882217050718"><ele>421.0</ele><time>2026-04-03T07:47:03Z</time></trkpt><trkpt lat="39.30557208084853" lon="9.391025336823896"><ele>423.75</ele><time>2026-04-03T07:47:04Z</time></trkpt><trkpt lat="39.305637792764394" lon="9.391203813784122"><ele>426.5</ele><time>2026-04-03T07:47:05Z</time></trkpt><trkpt lat="39.305663767237085" lon="9.391326030594195"><ele>429.25</ele><time>2026-04-03T07:47:06Z</time></trkpt><trkpt lat="39.305672227890966" lon="9.391491877324173"><ele>432.0</ele><time>2026-04-03T07:47:07Z</time></trkpt><trkpt lat="39.30567392177219" lon="9.391669111176896"><ele>432.0</ele><time>2026-04-03T07:47:08Z</time></trkpt><trkpt lat="39.30569136845177" lon="9.391847816020542"><ele>432.0</ele><time>2026-04-03T07:47:09Z</time></trkpt><trkpt lat="39.3057340200361" lon="9.39202902437976"><ele>432.0</ele><time>2026-04-03T07:47:10Z</time></trkpt><trkpt lat="39.30578133945644" lon="9.39221048619762"><ele>432.0</ele><time>2026-04-03T07:47:11Z</time></trkpt><trkpt lat="39.30585047624303" lon="9.392389741188142"><ele>432.33333333333337</ele><time>2026-04-03T07:47:12Z</time></trkpt><trkpt lat="39.30592006287287" lon="9.392572605105913"><ele>432.6666666666667</ele><time>2026-04-03T07:47:13Z</time></trkpt><trkpt lat="39.30598612966325" lon="9.392757114034959"><ele>433.0</ele><time>2026-04-03T07:47:14Z</time></trkpt><trkpt lat="39.30603875283923" lon="9.392946961577012"><ele>433.33333333333337</ele><time>2026-04-03T07:47:15Z</time></trkpt><trkpt lat="39.30609125566487" lon="9.393133382586274"><ele>433.66666666666663</ele><time>2026-04-03T07:47:16Z</time></trkpt><trkpt lat="39.30613178297279" lon="9.393315985357635"><ele>434.0</ele><time>2026-04-03T07:47:17Z</time></trkpt><trkpt lat="39.30613928622093" lon="9.39351121568281"><ele>434.0</ele><time>2026-04-03T07:47:18Z</time></trkpt><trkpt lat="39.30614165075984" lon="9.393716024687249"><ele>434.0</ele><time>2026-04-03T07:47:19Z</time></trkpt><trkpt lat="39.30616500075428" lon="9.393912474208731"><ele>434.0</ele><time>2026-04-03T07:47:20Z</time></trkpt><trkpt lat="39.30619748973697" lon="9.3941095454444"><ele>433.66666666666663</ele><time>2026-04-03T07:47:21Z</time></trkpt><trkpt lat="39.30624729023374" lon="9.394305585851702"><ele>433.33333333333337</ele><time>2026-04-03T07:47:22Z</time></trkpt><trkpt lat="39.30625918420171" lon="9.39449715494972"><ele>433.0</ele><time>2026-04-03T07:47:23Z</time></trkpt><trkpt lat="39.30626545018206" lon="9.394694467177269"><ele>433.0</ele><time>2026-04-03T07:47:24Z</time></trkpt><trkpt lat="39.30620004222234" lon="9.394851692669064"><ele>433.0</ele><time>2026-04-03T07:47:25Z</time></trkpt><trkpt lat="39.30612809191261" lon="9.39501798947451"><ele>433.0</ele><time>2026-04-03T07:47:26Z</time></trkpt><trkpt lat="39.30610524712109" lon="9.395167991580363"><ele>433.0</ele><time>2026-04-03T07:47:27Z</time></trkpt><trkpt lat="39.306118241765276" lon="9.395314997560048"><ele>433.0</ele><time>2026-04-03T07:47:28Z</time></trkpt><trkpt lat="39.30619726522853" lon="9.395441686565615"><ele>433.0</ele><time>2026-04-03T07:47:29Z</time></trkpt><trkpt lat="39.30631728293052" lon="9.395515497376705"><ele>433.0</ele><time>2026-04-03T07:47:30Z</time></trkpt><trkpt lat="39.30646245344588" lon="9.395544213457466"><ele>433.0</ele><time>2026-04-03T07:47:31Z</time></trkpt><trkpt lat="39.3065980334682" lon="9.39556278224533"><ele>428.5</ele><time>2026-04-03T07:47:32Z</time></trkpt><trkpt lat="39.30673882209151" lon="9.395594825021325"><ele>424.0</ele><time>2026-04-03T07:47:33Z</time></trkpt><trkpt lat="39.306882412365404" lon="9.395636414804926"><ele>419.5</ele><time>2026-04-03T07:47:34Z</time></trkpt><trkpt lat="39.30703047733602" lon="9.39567607359665"><ele>415.0</ele><time>2026-04-03T07:47:35Z</time></trkpt><trkpt lat="39.30718282573447" lon="9.39571730537923"><ele>411.33333333333337</ele><time>2026-04-03T07:47:36Z</time></trkpt><trkpt lat="39.30733676682803" lon="9.395762814107393"><ele>407.66666666666663</ele><time>2026-04-03T07:47:37Z</time></trkpt><trkpt lat="39.30748644756786" lon="9.395814348346809"><ele>404.0</ele><time>2026-04-03T07:47:38.001Z</time></trkpt><trkpt lat="39.30764138300009" lon="9.395873729096126"><ele>404.0</ele><time>2026-04-03T07:47:39.001Z</time></trkpt><trkpt lat="39.30777838072884" lon="9.395927870495113"><ele>404.0</ele><time>2026-04-03T07:47:40.001Z</time></trkpt><trkpt lat="39.307911945700496" lon="9.396013205288401"><ele>404.0</ele><time>2026-04-03T07:47:41.001Z</time></trkpt><trkpt lat="39.30803132019098" lon="9.396117620680746"><ele>404.0</ele><time>2026-04-03T07:47:42.001Z</time></trkpt><trkpt lat="39.30812268768577" lon="9.396246322373157"><ele>400.75</ele><time>2026-04-03T07:47:43.001Z</time></trkpt><trkpt lat="39.30814478420635" lon="9.396428818792312"><ele>397.5</ele><time>2026-04-03T07:47:44.001Z</time></trkpt><trkpt lat="39.30819078780945" lon="9.396602156012426"><ele>394.25</ele><time>2026-04-03T07:47:45.001Z</time></trkpt><trkpt lat="39.308238375920055" lon="9.396768316233146"><ele>391.0</ele><time>2026-04-03T07:47:46.001Z</time></trkpt><trkpt lat="39.308282804633" lon="9.39694485011618"><ele>391.0</ele><time>2026-04-03T07:47:47.001Z</time></trkpt><trkpt lat="39.30832680192435" lon="9.397123314056772"><ele>391.0</ele><time>2026-04-03T07:47:48.001Z</time></trkpt><trkpt lat="39.3083591647329" lon="9.397309303149505"><ele>391.0</ele><time>2026-04-03T07:47:49.001Z</time></trkpt><trkpt lat="39.30835072012238" lon="9.39750328524845"><ele>391.0</ele><time>2026-04-03T07:47:50.001Z</time></trkpt><trkpt lat="39.3083579109997" lon="9.397705307059029"><ele>391.6666666666667</ele><time>2026-04-03T07:47:51.001Z</time></trkpt><trkpt lat="39.30833537760128" lon="9.397907940815857"><ele>392.33333333333337</ele><time>2026-04-03T07:47:52.001Z</time></trkpt><trkpt lat="39.30831703109132" lon="9.398109551026588"><ele>393.0</ele><time>2026-04-03T07:47:53.001Z</time></trkpt><trkpt lat="39.308303363856076" lon="9.398309797593637"><ele>391.66666666666663</ele><time>2026-04-03T07:47:54Z</time></trkpt><trkpt lat="39.308295522897254" lon="9.398505096060893"><ele>390.3333333333333</ele><time>2026-04-03T07:47:55Z</time></trkpt><trkpt lat="39.30827105681504" lon="9.398703162696316"><ele>389.0</ele><time>2026-04-03T07:47:56Z</time></trkpt><trkpt lat="39.30832150263393" lon="9.398881961932547"><ele>387.3333333333333</ele><time>2026-04-03T07:47:57Z</time></trkpt><trkpt lat="39.308404801841924" lon="9.39904100289012"><ele>385.66666666666663</ele><time>2026-04-03T07:47:58Z</time></trkpt><trkpt lat="39.30852118755853" lon="9.399186482166071"><ele>384.0</ele><time>2026-04-03T07:47:59Z</time></trkpt><trkpt lat="39.30862984370192" lon="9.399326744234985"><ele>384.0</ele><time>2026-04-03T07:48:00Z</time></trkpt><trkpt lat="39.3087299639145" lon="9.399469835821495"><ele>384.0</ele><time>2026-04-03T07:48:01Z</time></trkpt><trkpt lat="39.30883100428831" lon="9.399597522831494"><ele>384.0</ele><time>2026-04-03T07:48:02Z</time></trkpt><trkpt lat="39.30894593144679" lon="9.399670724578247"><ele>384.0</ele><time>2026-04-03T07:48:03Z</time></trkpt><trkpt lat="39.30908048962166" lon="9.399654774114808"><ele>382.3333333333333</ele><time>2026-04-03T07:48:04Z</time></trkpt><trkpt lat="39.30923891455073" lon="9.399672078977598"><ele>380.66666666666663</ele><time>2026-04-03T07:48:05Z</time></trkpt><trkpt lat="39.30931549261553" lon="9.39943362571167"><ele>379.0</ele><time>2026-04-03T07:48:06Z</time></trkpt><trkpt lat="39.30942664252339" lon="9.399319901562636"><ele>379.0</ele><time>2026-04-03T07:48:07Z</time></trkpt><trkpt lat="39.30953525232863" lon="9.399212585094956"><ele>379.0</ele><time>2026-04-03T07:48:08Z</time></trkpt><trkpt lat="39.30967284444911" lon="9.399100875182626"><ele>379.0</ele><time>2026-04-03T07:48:09Z</time></trkpt><trkpt lat="39.309788101746314" lon="9.399027847860989"><ele>379.0</ele><time>2026-04-03T07:48:10Z</time></trkpt><trkpt lat="39.30993196868272" lon="9.398991104485834"><ele>380.66666666666663</ele><time>2026-04-03T07:48:11Z</time></trkpt><trkpt lat="39.310083731553945" lon="9.399023946940604"><ele>382.3333333333333</ele><time>2026-04-03T07:48:12Z</time></trkpt><trkpt lat="39.31023442637054" lon="9.399049442425293"><ele>384.0</ele><time>2026-04-03T07:48:13Z</time></trkpt><trkpt lat="39.310380536802406" lon="9.399062461793568"><ele>384.0</ele><time>2026-04-03T07:48:14Z</time></trkpt><trkpt lat="39.31052398519328" lon="9.399072538398691"><ele>384.0</ele><time>2026-04-03T07:48:15Z</time></trkpt><trkpt lat="39.310661825385836" lon="9.399082635208607"><ele>384.0</ele><time>2026-04-03T07:48:16Z</time></trkpt><trkpt lat="39.310794760207294" lon="9.399119978524917"><ele>384.0</ele><time>2026-04-03T07:48:17Z</time></trkpt><trkpt lat="39.31091368319586" lon="9.399204045705222"><ele>383.25</ele><time>2026-04-03T07:48:18Z</time></trkpt><trkpt lat="39.31101025123593" lon="9.399334520431136"><ele>382.5</ele><time>2026-04-03T07:48:19Z</time></trkpt><trkpt lat="39.31109647367486" lon="9.399478729089365"><ele>381.75</ele><time>2026-04-03T07:48:20Z</time></trkpt><trkpt lat="39.31116054098082" lon="9.399641607671327"><ele>381.0</ele><time>2026-04-03T07:48:21Z</time></trkpt><trkpt lat="39.31118108787678" lon="9.399817255104917"><ele>383.5</ele><time>2026-04-03T07:48:22Z</time></trkpt><trkpt lat="39.3111572965861" lon="9.399991074903285"><ele>386.0</ele><time>2026-04-03T07:48:23Z</time></trkpt><trkpt lat="39.31112536041762" lon="9.400169056204458"><ele>388.5</ele><time>2026-04-03T07:48:24Z</time></trkpt><trkpt lat="39.311108334920405" lon="9.400354643177861"><ele>391.0</ele><time>2026-04-03T07:48:25Z</time></trkpt><trkpt lat="39.311081126140365" lon="9.400524664149017"><ele>392.0</ele><time>2026-04-03T07:48:26Z</time></trkpt><trkpt lat="39.311060043821215" lon="9.400675336707884"><ele>393.0</ele><time>2026-04-03T07:48:27Z</time></trkpt><trkpt lat="39.31119783180877" lon="9.40082303820015"><ele>394.0</ele><time>2026-04-03T07:48:28Z</time></trkpt><trkpt lat="39.31124946104709" lon="9.400945551753427"><ele>395.0</ele><time>2026-04-03T07:48:29Z</time></trkpt><trkpt lat="39.31138182928306" lon="9.401003082020763"><ele>390.75</ele><time>2026-04-03T07:48:30Z</time></trkpt><trkpt lat="39.311517110718896" lon="9.40105706817722"><ele>386.5</ele><time>2026-04-03T07:48:31Z</time></trkpt><trkpt lat="39.31164351955545" lon="9.401126546441075"><ele>382.25</ele><time>2026-04-03T07:48:32Z</time></trkpt><trkpt lat="39.31176963822245" lon="9.401209013507899"><ele>378.0</ele><time>2026-04-03T07:48:33Z</time></trkpt><trkpt lat="39.311876958912926" lon="9.401327824040495"><ele>383.0</ele><time>2026-04-03T07:48:34Z</time></trkpt><trkpt lat="39.31196048273263" lon="9.401488378399565"><ele>388.0</ele><time>2026-04-03T07:48:35Z</time></trkpt><trkpt lat="39.3120227512321" lon="9.401658347877515"><ele>393.0</ele><time>2026-04-03T07:48:36Z</time></trkpt><trkpt lat="39.31207837752805" lon="9.401832405053623"><ele>398.0</ele><time>2026-04-03T07:48:37Z</time></trkpt><trkpt lat="39.31214120371181" lon="9.402015377534637"><ele>395.25</ele><time>2026-04-03T07:48:38Z</time></trkpt><trkpt lat="39.312206615905765" lon="9.402195632462355"><ele>392.5</ele><time>2026-04-03T07:48:39Z</time></trkpt><trkpt lat="39.31228583236759" lon="9.402360897914173"><ele>389.75</ele><time>2026-04-03T07:48:40Z</time></trkpt><trkpt lat="39.3123845616954" lon="9.402495035549757"><ele>387.0</ele><time>2026-04-03T07:48:41Z</time></trkpt><trkpt lat="39.31251930454394" lon="9.402567315784486"><ele>387.0</ele><time>2026-04-03T07:48:42Z</time></trkpt><trkpt lat="39.312668461708704" lon="9.402568936335452"><ele>387.0</ele><time>2026-04-03T07:48:43Z</time></trkpt><trkpt lat="39.3128185454385" lon="9.402520088244804"><ele>387.0</ele><time>2026-04-03T07:48:44Z</time></trkpt><trkpt lat="39.31296537047398" lon="9.402413343334416"><ele>387.66666666666663</ele><time>2026-04-03T07:48:45Z</time></trkpt><trkpt lat="39.31309651291802" lon="9.402318065995567"><ele>388.3333333333333</ele><time>2026-04-03T07:48:46Z</time></trkpt><trkpt lat="39.313226097209174" lon="9.40221465818887"><ele>389.0</ele><time>2026-04-03T07:48:47Z</time></trkpt><trkpt lat="39.31335057750252" lon="9.402105412781648"><ele>386.25</ele><time>2026-04-03T07:48:48Z</time></trkpt><trkpt lat="39.31346858889339" lon="9.401987483595862"><ele>383.5</ele><time>2026-04-03T07:48:49Z</time></trkpt><trkpt lat="39.31358674779121" lon="9.401875351888156"><ele>380.75</ele><time>2026-04-03T07:48:50Z</time></trkpt><trkpt lat="39.31370821114036" lon="9.40177536109487"><ele>378.0</ele><time>2026-04-03T07:48:51Z</time></trkpt><trkpt lat="39.3138382930137" lon="9.401701196199122"><ele>380.66666666666663</ele><time>2026-04-03T07:48:52Z</time></trkpt><trkpt lat="39.31398738931306" lon="9.401717024166542"><ele>383.3333333333333</ele><time>2026-04-03T07:48:53Z</time></trkpt><trkpt lat="39.314130552183485" lon="9.401790920877803"><ele>386.0</ele><time>2026-04-03T07:48:54Z</time></trkpt><trkpt lat="39.314291195274706" lon="9.401908148316506"><ele>386.0</ele><time>2026-04-03T07:48:55Z</time></trkpt><trkpt lat="39.31447617484487" lon="9.402016869619285"><ele>386.0</ele><time>2026-04-03T07:48:56Z</time></trkpt><trkpt lat="39.314676416577974" lon="9.402107146816164"><ele>386.0</ele><time>2026-04-03T07:48:57Z</time></trkpt><trkpt lat="39.314728565486185" lon="9.401567054117946"><ele>382.3333333333333</ele><time>2026-04-03T07:48:58Z</time></trkpt><trkpt lat="39.314872035938045" lon="9.401486853582668"><ele>378.66666666666663</ele><time>2026-04-03T07:48:59Z</time></trkpt><trkpt lat="39.31501801995308" lon="9.401395430753288"><ele>375.0</ele><time>2026-04-03T07:49:00Z</time></trkpt><trkpt lat="39.31515529966559" lon="9.40130583362762"><ele>375.0</ele><time>2026-04-03T07:49:01Z</time></trkpt><trkpt lat="39.315291124414614" lon="9.40123940567155"><ele>375.0</ele><time>2026-04-03T07:49:02Z</time></trkpt><trkpt lat="39.315427488175004" lon="9.40122552078578"><ele>375.0</ele><time>2026-04-03T07:49:03Z</time></trkpt><trkpt lat="39.3155700302348" lon="9.401266285015131"><ele>375.0</ele><time>2026-04-03T07:49:04Z</time></trkpt><trkpt lat="39.31571715779641" lon="9.401330342705556"><ele>386.0</ele><time>2026-04-03T07:49:05Z</time></trkpt><trkpt lat="39.31586792933271" lon="9.401371190865094"><ele>397.0</ele><time>2026-04-03T07:49:06Z</time></trkpt><trkpt lat="39.31601756596716" lon="9.401406487524351"><ele>408.0</ele><time>2026-04-03T07:49:07Z</time></trkpt><trkpt lat="39.31616511266003" lon="9.401444885066075"><ele>408.0</ele><time>2026-04-03T07:49:08Z</time></trkpt><trkpt lat="39.316313745853165" lon="9.401480592936666"><ele>408.0</ele><time>2026-04-03T07:49:09Z</time></trkpt><trkpt lat="39.31646473334717" lon="9.4015170972063"><ele>408.0</ele><time>2026-04-03T07:49:10Z</time></trkpt><trkpt lat="39.31660786883285" lon="9.401550800132748"><ele>407.0</ele><time>2026-04-03T07:49:11Z</time></trkpt><trkpt lat="39.316754248627326" lon="9.40155542318149"><ele>406.0</ele><time>2026-04-03T07:49:12Z</time></trkpt><trkpt lat="39.316902870680025" lon="9.401506645602655"><ele>405.0</ele><time>2026-04-03T07:49:13Z</time></trkpt><trkpt lat="39.317061058715005" lon="9.401454783234275"><ele>405.0</ele><time>2026-04-03T07:49:14Z</time></trkpt><trkpt lat="39.317228062382505" lon="9.401446201865173"><ele>405.0</ele><time>2026-04-03T07:49:15Z</time></trkpt><trkpt lat="39.317406995672854" lon="9.401452793521978"><ele>405.0</ele><time>2026-04-03T07:49:16Z</time></trkpt><trkpt lat="39.317593222217276" lon="9.401442590375886"><ele>405.0</ele><time>2026-04-03T07:49:17Z</time></trkpt><trkpt lat="39.31778456984368" lon="9.40143096128145"><ele>405.0</ele><time>2026-04-03T07:49:18Z</time></trkpt><trkpt lat="39.31796362602977" lon="9.401460262415117"><ele>405.0</ele><time>2026-04-03T07:49:19Z</time></trkpt><trkpt lat="39.31813658413726" lon="9.401519488347247"><ele>403.5</ele><time>2026-04-03T07:49:20Z</time></trkpt><trkpt lat="39.318289247505234" lon="9.401603575612132"><ele>402.0</ele><time>2026-04-03T07:49:21Z</time></trkpt><trkpt lat="39.318422278775294" lon="9.401657578169527"><ele>400.5</ele><time>2026-04-03T07:49:22Z</time></trkpt><trkpt lat="39.31855071364518" lon="9.401650113708977"><ele>399.0</ele><time>2026-04-03T07:49:23Z</time></trkpt><trkpt lat="39.3186837173432" lon="9.401560414486559"><ele>399.0</ele><time>2026-04-03T07:49:24Z</time></trkpt><trkpt lat="39.318800235705794" lon="9.40140977952653"><ele>399.0</ele><time>2026-04-03T07:49:25Z</time></trkpt><trkpt lat="39.3189082188216" lon="9.401265805625176"><ele>399.0</ele><time>2026-04-03T07:49:26Z</time></trkpt><trkpt lat="39.31902597183672" lon="9.401157114668148"><ele>392.0</ele><time>2026-04-03T07:49:27Z</time></trkpt><trkpt lat="39.31917501077629" lon="9.401093758633182"><ele>385.0</ele><time>2026-04-03T07:49:28Z</time></trkpt><trkpt lat="39.319333680150876" lon="9.401067986948542"><ele>378.0</ele><time>2026-04-03T07:49:29Z</time></trkpt><trkpt lat="39.319503248593115" lon="9.401079110758637"><ele>378.0</ele><time>2026-04-03T07:49:30Z</time></trkpt><trkpt lat="39.319662030245574" lon="9.40111807730555"><ele>378.0</ele><time>2026-04-03T07:49:31Z</time></trkpt><trkpt lat="39.319811199764374" lon="9.401198741603777"><ele>378.0</ele><time>2026-04-03T07:49:32Z</time></trkpt><trkpt lat="39.3199514397855" lon="9.401302913363946"><ele>385.0</ele><time>2026-04-03T07:49:33Z</time></trkpt><trkpt lat="39.32007834873205" lon="9.401435938189193"><ele>392.0</ele><time>2026-04-03T07:49:34Z</time></trkpt><trkpt lat="39.32020205236916" lon="9.40154924212637"><ele>399.0</ele><time>2026-04-03T07:49:35Z</time></trkpt><trkpt lat="39.320320875221036" lon="9.401649238222573"><ele>399.0</ele><time>2026-04-03T07:49:36Z</time></trkpt><trkpt lat="39.32043032525095" lon="9.401760555662557"><ele>399.0</ele><time>2026-04-03T07:49:37Z</time></trkpt><trkpt lat="39.32054929199547" lon="9.401837628369487"><ele>399.0</ele><time>2026-04-03T07:49:38Z</time></trkpt><trkpt lat="39.32069484274743" lon="9.401818024074542"><ele>399.0</ele><time>2026-04-03T07:49:39Z</time></trkpt><trkpt lat="39.320832523256875" lon="9.401679031089815"><ele>395.33333333333337</ele><time>2026-04-03T07:49:40Z</time></trkpt><trkpt lat="39.320980734861806" lon="9.40161815298851"><ele>391.6666666666667</ele><time>2026-04-03T07:49:41Z</time></trkpt><trkpt lat="39.32113787147691" lon="9.401614704484679"><ele>388.0</ele><time>2026-04-03T07:49:42Z</time></trkpt><trkpt lat="39.321291653263536" lon="9.401644080201278"><ele>390.0</ele><time>2026-04-03T07:49:43Z</time></trkpt><trkpt lat="39.321440397221075" lon="9.401621950608444"><ele>392.0</ele><time>2026-04-03T07:49:44.001Z</time></trkpt><trkpt lat="39.321579964197966" lon="9.401521845717033"><ele>394.0</ele><time>2026-04-03T07:49:45.001Z</time></trkpt><trkpt lat="39.32170491395973" lon="9.401374920243896"><ele>380.0</ele><time>2026-04-03T07:49:46.001Z</time></trkpt><trkpt lat="39.321838409328144" lon="9.401245181473252"><ele>366.0</ele><time>2026-04-03T07:49:47.001Z</time></trkpt><trkpt lat="39.321978907730845" lon="9.401127212120942"><ele>352.0</ele><time>2026-04-03T07:49:48.001Z</time></trkpt><trkpt lat="39.322120573456736" lon="9.401007487330538"><ele>363.0</ele><time>2026-04-03T07:49:49.001Z</time></trkpt><trkpt lat="39.32226119146177" lon="9.400888542663017"><ele>374.0</ele><time>2026-04-03T07:49:50.001Z</time></trkpt><trkpt lat="39.322393322454644" lon="9.400758340288169"><ele>385.0</ele><time>2026-04-03T07:49:51.001Z</time></trkpt><trkpt lat="39.32248906265324" lon="9.400594849358079"><ele>376.6666666666667</ele><time>2026-04-03T07:49:52.001Z</time></trkpt><trkpt lat="39.32254656923224" lon="9.400389083513712"><ele>368.33333333333337</ele><time>2026-04-03T07:49:53.001Z</time></trkpt><trkpt lat="39.322599263937214" lon="9.400182944512874"><ele>360.0</ele><time>2026-04-03T07:49:54.001Z</time></trkpt><trkpt lat="39.32267910124899" lon="9.39998763932548"><ele>360.0</ele><time>2026-04-03T07:49:55Z</time></trkpt><trkpt lat="39.322780831757505" lon="9.399820437405074"><ele>360.0</ele><time>2026-04-03T07:49:56Z</time></trkpt><trkpt lat="39.322885870884335" lon="9.399671836128354"><ele>360.0</ele><time>2026-04-03T07:49:57Z</time></trkpt><trkpt lat="39.3229637320758" lon="9.39951208416086"><ele>359.0</ele><time>2026-04-03T07:49:58Z</time></trkpt><trkpt lat="39.32300200283118" lon="9.399324687834786"><ele>358.0</ele><time>2026-04-03T07:49:59Z</time></trkpt><trkpt lat="39.32297775891432" lon="9.399115693654515"><ele>357.0</ele><time>2026-04-03T07:50:00Z</time></trkpt><trkpt lat="39.3228826435316" lon="9.398932123619824"><ele>361.0</ele><time>2026-04-03T07:50:01Z</time></trkpt><trkpt lat="39.32276456062913" lon="9.398778226090167"><ele>365.0</ele><time>2026-04-03T07:50:02Z</time></trkpt><trkpt lat="39.322651971653976" lon="9.398628237201892"><ele>369.0</ele><time>2026-04-03T07:50:03Z</time></trkpt><trkpt lat="39.322567871182855" lon="9.398465495050884"><ele>369.0</ele><time>2026-04-03T07:50:04Z</time></trkpt><trkpt lat="39.32249784557197" lon="9.398293289479707"><ele>369.0</ele><time>2026-04-03T07:50:05Z</time></trkpt><trkpt lat="39.322426368893986" lon="9.39812240012111"><ele>369.0</ele><time>2026-04-03T07:50:06Z</time></trkpt><trkpt lat="39.32234883636621" lon="9.39796270940694"><ele>369.0</ele><time>2026-04-03T07:50:07Z</time></trkpt><trkpt lat="39.32226852341602" lon="9.397817366372573"><ele>364.75</ele><time>2026-04-03T07:50:08Z</time></trkpt><trkpt lat="39.322179781140214" lon="9.397703718144651"><ele>360.5</ele><time>2026-04-03T07:50:09Z</time></trkpt><trkpt lat="39.32207971778825" lon="9.397623942612888"><ele>356.25</ele><time>2026-04-03T07:50:10Z</time></trkpt><trkpt lat="39.32199305125373" lon="9.397545079849616"><ele>352.0</ele><time>2026-04-03T07:50:11Z</time></trkpt><trkpt lat="39.321956635209546" lon="9.397419223852596"><ele>352.0</ele><time>2026-04-03T07:50:12Z</time></trkpt><trkpt lat="39.32198720703021" lon="9.397296738930162"><ele>352.0</ele><time>2026-04-03T07:50:13Z</time></trkpt><trkpt lat="39.322062465064704" lon="9.397132773424772"><ele>352.0</ele><time>2026-04-03T07:50:14Z</time></trkpt><trkpt lat="39.32215451515494" lon="9.397011585153095"><ele>352.0</ele><time>2026-04-03T07:50:15Z</time></trkpt><trkpt lat="39.32225371590774" lon="9.39688296315597"><ele>358.66666666666663</ele><time>2026-04-03T07:50:16Z</time></trkpt><trkpt lat="39.322348863934145" lon="9.396735401952448"><ele>365.3333333333333</ele><time>2026-04-03T07:50:17Z</time></trkpt><trkpt lat="39.32244347885224" lon="9.396577042650835"><ele>372.0</ele><time>2026-04-03T07:50:18Z</time></trkpt><trkpt lat="39.322539574086335" lon="9.39641711512791"><ele>364.3333333333333</ele><time>2026-04-03T07:50:19Z</time></trkpt><trkpt lat="39.322635883584496" lon="9.396250821344966"><ele>356.66666666666663</ele><time>2026-04-03T07:50:20Z</time></trkpt><trkpt lat="39.32273674547212" lon="9.396087106319543"><ele>349.0</ele><time>2026-04-03T07:50:21Z</time></trkpt><trkpt lat="39.32286106949886" lon="9.39595517323883"><ele>349.0</ele><time>2026-04-03T07:50:22Z</time></trkpt><trkpt lat="39.32301888466436" lon="9.395871146404792"><ele>349.0</ele><time>2026-04-03T07:50:23Z</time></trkpt><trkpt lat="39.323175274744536" lon="9.395802808168424"><ele>349.0</ele><time>2026-04-03T07:50:24Z</time></trkpt><trkpt lat="39.32332696756301" lon="9.395749175006063"><ele>354.66666666666663</ele><time>2026-04-03T07:50:25Z</time></trkpt><trkpt lat="39.32348011610954" lon="9.395739081579029"><ele>360.3333333333333</ele><time>2026-04-03T07:50:26Z</time></trkpt><trkpt lat="39.32363086214658" lon="9.395778936075233"><ele>366.0</ele><time>2026-04-03T07:50:27Z</time></trkpt><trkpt lat="39.323772779962276" lon="9.395881192921047"><ele>366.0</ele><time>2026-04-03T07:50:28Z</time></trkpt><trkpt lat="39.32388162620961" lon="9.396040319336107"><ele>366.0</ele><time>2026-04-03T07:50:29Z</time></trkpt><trkpt lat="39.32395991547255" lon="9.396225831140384"><ele>366.0</ele><time>2026-04-03T07:50:30Z</time></trkpt><trkpt lat="39.324056364624454" lon="9.396397349079187"><ele>366.3333333333333</ele><time>2026-04-03T07:50:31Z</time></trkpt><trkpt lat="39.324177350599406" lon="9.396535343519416"><ele>366.66666666666663</ele><time>2026-04-03T07:50:32Z</time></trkpt><trkpt lat="39.32432995381582" lon="9.39663032220755"><ele>367.0</ele><time>2026-04-03T07:50:33Z</time></trkpt><trkpt lat="39.32446551990257" lon="9.396696207234987"><ele>367.0</ele><time>2026-04-03T07:50:34Z</time></trkpt><trkpt lat="39.324601388836335" lon="9.396783249634334"><ele>367.0</ele><time>2026-04-03T07:50:35Z</time></trkpt><trkpt lat="39.324696000657816" lon="9.396885414633235"><ele>367.0</ele><time>2026-04-03T07:50:36Z</time></trkpt><trkpt lat="39.32474018786442" lon="9.39703428187523"><ele>367.0</ele><time>2026-04-03T07:50:37Z</time></trkpt><trkpt lat="39.32474872899538" lon="9.397215668742046"><ele>361.66666666666663</ele><time>2026-04-03T07:50:38Z</time></trkpt><trkpt lat="39.32476447906012" lon="9.397402622558404"><ele>356.3333333333333</ele><time>2026-04-03T07:50:39Z</time></trkpt><trkpt lat="39.32479766608334" lon="9.39759360305795"><ele>351.0</ele><time>2026-04-03T07:50:40Z</time></trkpt><trkpt lat="39.32483201050489" lon="9.39779085920045"><ele>351.0</ele><time>2026-04-03T07:50:41Z</time></trkpt><trkpt lat="39.324859048423235" lon="9.39799899480849"><ele>351.0</ele><time>2026-04-03T07:50:42Z</time></trkpt><trkpt lat="39.32486907374885" lon="9.398210944707515"><ele>351.0</ele><time>2026-04-03T07:50:43Z</time></trkpt><trkpt lat="39.32484876200199" lon="9.398427065861654"><ele>352.6666666666667</ele><time>2026-04-03T07:50:44Z</time></trkpt><trkpt lat="39.32481225023572" lon="9.398641084960259"><ele>354.33333333333337</ele><time>2026-04-03T07:50:45Z</time></trkpt><trkpt lat="39.32481935283084" lon="9.398859233797037"><ele>356.0</ele><time>2026-04-03T07:50:46Z</time></trkpt><trkpt lat="39.32488136500224" lon="9.399067768151847"><ele>356.33333333333337</ele><time>2026-04-03T07:50:47Z</time></trkpt><trkpt lat="39.32497794087326" lon="9.399260987723917"><ele>356.6666666666667</ele><time>2026-04-03T07:50:48Z</time></trkpt><trkpt lat="39.325071817002346" lon="9.399460575586248"><ele>357.0</ele><time>2026-04-03T07:50:49Z</time></trkpt><trkpt lat="39.32509924787478" lon="9.399673695634178"><ele>360.6666666666667</ele><time>2026-04-03T07:50:50Z</time></trkpt><trkpt lat="39.32512796908908" lon="9.399881266091684"><ele>364.33333333333337</ele><time>2026-04-03T07:50:51Z</time></trkpt><trkpt lat="39.32519540805259" lon="9.400072851370643"><ele>368.0</ele><time>2026-04-03T07:50:52Z</time></trkpt><trkpt lat="39.325301536564254" lon="9.400248557938687"><ele>368.0</ele><time>2026-04-03T07:50:53Z</time></trkpt><trkpt lat="39.32543056165643" lon="9.400405499035223"><ele>368.0</ele><time>2026-04-03T07:50:54Z</time></trkpt><trkpt lat="39.325568880817585" lon="9.400547090843439"><ele>368.0</ele><time>2026-04-03T07:50:55Z</time></trkpt><trkpt lat="39.325697666232536" lon="9.400684514091875"><ele>363.25</ele><time>2026-04-03T07:50:56Z</time></trkpt><trkpt lat="39.325817223960584" lon="9.40081304083384"><ele>358.5</ele><time>2026-04-03T07:50:57Z</time></trkpt><trkpt lat="39.32592183916158" lon="9.400937964730252"><ele>353.75</ele><time>2026-04-03T07:50:58Z</time></trkpt><trkpt lat="39.326012701412225" lon="9.401039762764206"><ele>349.0</ele><time>2026-04-03T07:50:59Z</time></trkpt><trkpt lat="39.32607370422736" lon="9.401134668237884"><ele>349.0</ele><time>2026-04-03T07:51:00Z</time></trkpt><trkpt lat="39.32607520674338" lon="9.401246562108808"><ele>349.0</ele><time>2026-04-03T07:51:01Z</time></trkpt><trkpt lat="39.326005429263084" lon="9.4013576677579"><ele>349.0</ele><time>2026-04-03T07:51:02Z</time></trkpt><trkpt lat="39.325898577063164" lon="9.401437557023499"><ele>349.0</ele><time>2026-04-03T07:51:03Z</time></trkpt><trkpt lat="39.32577036800384" lon="9.401499917301042"><ele>346.3333333333333</ele><time>2026-04-03T07:51:04Z</time></trkpt><trkpt lat="39.32563725471345" lon="9.401576859074895"><ele>343.6666666666667</ele><time>2026-04-03T07:51:05Z</time></trkpt><trkpt lat="39.325519499143645" lon="9.401689207171158"><ele>341.0</ele><time>2026-04-03T07:51:06Z</time></trkpt><trkpt lat="39.32542112696336" lon="9.401854201875892"><ele>341.6666666666667</ele><time>2026-04-03T07:51:07Z</time></trkpt><trkpt lat="39.32532465785037" lon="9.40204758156939"><ele>342.3333333333333</ele><time>2026-04-03T07:51:08Z</time></trkpt><trkpt lat="39.32523856188671" lon="9.402203523389817"><ele>343.0</ele><time>2026-04-03T07:51:09Z</time></trkpt><trkpt lat="39.32514412340117" lon="9.402351163140585"><ele>343.0</ele><time>2026-04-03T07:51:10Z</time></trkpt><trkpt lat="39.32503781009522" lon="9.402475285056145"><ele>343.0</ele><time>2026-04-03T07:51:11Z</time></trkpt><trkpt lat="39.32490500010725" lon="9.402548685109599"><ele>343.0</ele><time>2026-04-03T07:51:12Z</time></trkpt><trkpt lat="39.32475710649091" lon="9.402571063175683"><ele>343.0</ele><time>2026-04-03T07:51:13Z</time></trkpt><trkpt lat="39.32461273900194" lon="9.402562822471891"><ele>342.0</ele><time>2026-04-03T07:51:14Z</time></trkpt><trkpt lat="39.32447613301562" lon="9.402595756618068"><ele>341.0</ele><time>2026-04-03T07:51:15Z</time></trkpt><trkpt lat="39.324371002205076" lon="9.402702320581461"><ele>340.0</ele><time>2026-04-03T07:51:16Z</time></trkpt><trkpt lat="39.32430762373965" lon="9.402852247215867"><ele>339.0</ele><time>2026-04-03T07:51:17Z</time></trkpt><trkpt lat="39.324280046257904" lon="9.403042563282582"><ele>339.0</ele><time>2026-04-03T07:51:18Z</time></trkpt><trkpt lat="39.324242264402855" lon="9.403211594620906"><ele>339.0</ele><time>2026-04-03T07:51:19Z</time></trkpt><trkpt lat="39.32415406854334" lon="9.403340951682248"><ele>339.0</ele><time>2026-04-03T07:51:20Z</time></trkpt><trkpt lat="39.32402928457247" lon="9.40343923165338"><ele>339.0</ele><time>2026-04-03T07:51:21Z</time></trkpt><trkpt lat="39.32390788435266" lon="9.403521879275074"><ele>345.0</ele><time>2026-04-03T07:51:22Z</time></trkpt><trkpt lat="39.32379894425795" lon="9.403606992431829"><ele>351.0</ele><time>2026-04-03T07:51:23Z</time></trkpt><trkpt lat="39.32371079971331" lon="9.403704511024767"><ele>357.0</ele><time>2026-04-03T07:51:24Z</time></trkpt><trkpt lat="39.323657615603885" lon="9.403839652203969"><ele>363.0</ele><time>2026-04-03T07:51:25Z</time></trkpt><trkpt lat="39.32366193028493" lon="9.4040035707356"><ele>363.0</ele><time>2026-04-03T07:51:26Z</time></trkpt><trkpt lat="39.32370999172283" lon="9.404161687802466"><ele>363.0</ele><time>2026-04-03T07:51:27Z</time></trkpt><trkpt lat="39.32379179830394" lon="9.404302638769533"><ele>363.0</ele><time>2026-04-03T07:51:28Z</time></trkpt><trkpt lat="39.323898568994096" lon="9.404432189478458"><ele>363.0</ele><time>2026-04-03T07:51:29Z</time></trkpt><trkpt lat="39.32400796591858" lon="9.404559147837958"><ele>357.0</ele><time>2026-04-03T07:51:30Z</time></trkpt><trkpt lat="39.324102727489866" lon="9.40468646453317"><ele>351.0</ele><time>2026-04-03T07:51:31Z</time></trkpt><trkpt lat="39.3241941059338" lon="9.404807434204585"><ele>345.0</ele><time>2026-04-03T07:51:32Z</time></trkpt><trkpt lat="39.324276501305654" lon="9.404927436042795"><ele>339.0</ele><time>2026-04-03T07:51:33Z</time></trkpt><trkpt lat="39.32433658690812" lon="9.405066977612284"><ele>339.0</ele><time>2026-04-03T07:51:34Z</time></trkpt><trkpt lat="39.32435947229743" lon="9.405223765846568"><ele>339.0</ele><time>2026-04-03T07:51:35Z</time></trkpt><trkpt lat="39.324358224567646" lon="9.405382175994978"><ele>339.0</ele><time>2026-04-03T07:51:36Z</time></trkpt><trkpt lat="39.32441270062569" lon="9.405535679040666"><ele>339.0</ele><time>2026-04-03T07:51:37Z</time></trkpt><trkpt lat="39.324519195694265" lon="9.40565049283417"><ele>343.0</ele><time>2026-04-03T07:51:38Z</time></trkpt><trkpt lat="39.32464889710204" lon="9.405748776127947"><ele>347.0</ele><time>2026-04-03T07:51:39Z</time></trkpt><trkpt lat="39.32476935773424" lon="9.405851743905535"><ele>351.0</ele><time>2026-04-03T07:51:40Z</time></trkpt><trkpt lat="39.32486634985941" lon="9.40598216188381"><ele>355.0</ele><time>2026-04-03T07:51:41Z</time></trkpt><trkpt lat="39.324926228449335" lon="9.406142061550355"><ele>354.5</ele><time>2026-04-03T07:51:42Z</time></trkpt><trkpt lat="39.32493211531879" lon="9.406304205461161"><ele>354.0</ele><time>2026-04-03T07:51:43Z</time></trkpt><trkpt lat="39.324883439562036" lon="9.406443565795717"><ele>353.5</ele><time>2026-04-03T07:51:44Z</time></trkpt><trkpt lat="39.32479779059685" lon="9.406574351623512"><ele>353.0</ele><time>2026-04-03T07:51:45Z</time></trkpt><trkpt lat="39.32469981015843" lon="9.406693683341683"><ele>353.0</ele><time>2026-04-03T07:51:46Z</time></trkpt><trkpt lat="39.3246261641365" lon="9.406837594775215"><ele>353.0</ele><time>2026-04-03T07:51:47Z</time></trkpt><trkpt lat="39.32455984279302" lon="9.406998797000037"><ele>353.0</ele><time>2026-04-03T07:51:48Z</time></trkpt><trkpt lat="39.32449642370984" lon="9.407162852963458"><ele>353.0</ele><time>2026-04-03T07:51:49Z</time></trkpt><trkpt lat="39.324435533675754" lon="9.407318652965287"><ele>347.25</ele><time>2026-04-03T07:51:50.001Z</time></trkpt><trkpt lat="39.324338162389196" lon="9.407436816820756"><ele>341.5</ele><time>2026-04-03T07:51:51.001Z</time></trkpt><trkpt lat="39.324218612688426" lon="9.407519534900853"><ele>335.75</ele><time>2026-04-03T07:51:52.001Z</time></trkpt><trkpt lat="39.32409937205311" lon="9.40758722809704"><ele>330.0</ele><time>2026-04-03T07:51:53.001Z</time></trkpt><trkpt lat="39.32399776184622" lon="9.407671941995325"><ele>330.0</ele><time>2026-04-03T07:51:54.001Z</time></trkpt><trkpt lat="39.32393561807262" lon="9.407803318449648"><ele>330.0</ele><time>2026-04-03T07:51:55.001Z</time></trkpt><trkpt lat="39.323951217323625" lon="9.407968811565988"><ele>330.0</ele><time>2026-04-03T07:51:56.001Z</time></trkpt><trkpt lat="39.32400800671763" lon="9.408113863444623"><ele>330.0</ele><time>2026-04-03T07:51:57.001Z</time></trkpt><trkpt lat="39.32409269762584" lon="9.408192222826024"><ele>326.8</ele><time>2026-04-03T07:51:58Z</time></trkpt><trkpt lat="39.32419044434803" lon="9.408248743655905"><ele>323.6</ele><time>2026-04-03T07:51:59Z</time></trkpt><trkpt lat="39.324242349116595" lon="9.408358994469486"><ele>320.4</ele><time>2026-04-03T07:52:00Z</time></trkpt><trkpt lat="39.324228625258456" lon="9.408500972762717"><ele>317.2</ele><time>2026-04-03T07:52:01Z</time></trkpt><trkpt lat="39.324171240353465" lon="9.408620623623044"><ele>314.0</ele><time>2026-04-03T07:52:02Z</time></trkpt><trkpt lat="39.32411104935863" lon="9.408751402705523"><ele>311.25</ele><time>2026-04-03T07:52:03Z</time></trkpt><trkpt lat="39.32404361035255" lon="9.408886728288925"><ele>308.5</ele><time>2026-04-03T07:52:04Z</time></trkpt><trkpt lat="39.32397326980715" lon="9.409016771179493"><ele>305.75</ele><time>2026-04-03T07:52:05Z</time></trkpt><trkpt lat="39.323904090612785" lon="9.409160757619055"><ele>303.0</ele><time>2026-04-03T07:52:06Z</time></trkpt><trkpt lat="39.32383535843803" lon="9.409301504837398"><ele>315.75</ele><time>2026-04-03T07:52:07Z</time></trkpt><trkpt lat="39.323786014359364" lon="9.409455492851029"><ele>328.5</ele><time>2026-04-03T07:52:08Z</time></trkpt><trkpt lat="39.3237771472765" lon="9.409627218318915"><ele>341.25</ele><time>2026-04-03T07:52:09Z</time></trkpt><trkpt lat="39.323808783997315" lon="9.409798387582278"><ele>354.0</ele><time>2026-04-03T07:52:10Z</time></trkpt><trkpt lat="39.323849115887185" lon="9.40996769480989"><ele>354.0</ele><time>2026-04-03T07:52:11Z</time></trkpt><trkpt lat="39.3238850203634" lon="9.410144052004977"><ele>354.0</ele><time>2026-04-03T07:52:12Z</time></trkpt><trkpt lat="39.3239228318725" lon="9.410321479553275"><ele>354.0</ele><time>2026-04-03T07:52:13Z</time></trkpt><trkpt lat="39.3239849254866" lon="9.410494272506924"><ele>354.0</ele><time>2026-04-03T07:52:14Z</time></trkpt><trkpt lat="39.324102444936756" lon="9.410637467905843"><ele>342.3333333333333</ele><time>2026-04-03T07:52:15Z</time></trkpt><trkpt lat="39.32426829374539" lon="9.410726841066946"><ele>330.66666666666663</ele><time>2026-04-03T07:52:16Z</time></trkpt><trkpt lat="39.32444030028838" lon="9.410763655662155"><ele>319.0</ele><time>2026-04-03T07:52:17Z</time></trkpt><trkpt lat="39.32459972875979" lon="9.41076982388937"><ele>319.0</ele><time>2026-04-03T07:52:18Z</time></trkpt><trkpt lat="39.32475177520993" lon="9.410774983827238"><ele>319.0</ele><time>2026-04-03T07:52:19Z</time></trkpt><trkpt lat="39.324659979049684" lon="9.410939189477165"><ele>319.0</ele><time>2026-04-03T07:52:20Z</time></trkpt><trkpt lat="39.32475982846103" lon="9.411006993623463"><ele>319.0</ele><time>2026-04-03T07:52:21Z</time></trkpt><trkpt lat="39.32482257112544" lon="9.41115407019175"><ele>315.0</ele><time>2026-04-03T07:52:22Z</time></trkpt><trkpt lat="39.324871833402725" lon="9.41131355543971"><ele>311.0</ele><time>2026-04-03T07:52:23Z</time></trkpt><trkpt lat="39.32492375164894" lon="9.411467539004992"><ele>307.0</ele><time>2026-04-03T07:52:24Z</time></trkpt><trkpt lat="39.325008429944646" lon="9.41160467272202"><ele>303.0</ele><time>2026-04-03T07:52:25Z</time></trkpt><trkpt lat="39.325103766188896" lon="9.411728056172953"><ele>303.0</ele><time>2026-04-03T07:52:26Z</time></trkpt><trkpt lat="39.325195468954036" lon="9.411851266226853"><ele>303.0</ele><time>2026-04-03T07:52:27Z</time></trkpt><trkpt lat="39.325272815680385" lon="9.411969560456106"><ele>303.0</ele><time>2026-04-03T07:52:28Z</time></trkpt><trkpt lat="39.325321447548966" lon="9.41208595075834"><ele>303.0</ele><time>2026-04-03T07:52:29Z</time></trkpt><trkpt lat="39.325311922628785" lon="9.412209381961437"><ele>301.6</ele><time>2026-04-03T07:52:30Z</time></trkpt><trkpt lat="39.32524834398317" lon="9.412310941258943"><ele>300.20000000000005</ele><time>2026-04-03T07:52:31Z</time></trkpt><trkpt lat="39.325145130736104" lon="9.412363977245079"><ele>298.8</ele><time>2026-04-03T07:52:32Z</time></trkpt><trkpt lat="39.32502851752668" lon="9.41237911832513"><ele>297.40000000000003</ele><time>2026-04-03T07:52:33Z</time></trkpt><trkpt lat="39.324913051571485" lon="9.412410777689566"><ele>296.0</ele><time>2026-04-03T07:52:34Z</time></trkpt><trkpt lat="39.324803143101256" lon="9.41246957203543"><ele>302.5</ele><time>2026-04-03T07:52:35Z</time></trkpt><trkpt lat="39.324703991779494" lon="9.412549742889208"><ele>309.0</ele><time>2026-04-03T07:52:36Z</time></trkpt><trkpt lat="39.32464569463806" lon="9.412678060605273"><ele>315.5</ele><time>2026-04-03T07:52:37Z</time></trkpt><trkpt lat="39.32464626272068" lon="9.412846068838993"><ele>322.0</ele><time>2026-04-03T07:52:38Z</time></trkpt><trkpt lat="39.32470365515337" lon="9.412998508847402"><ele>314.25</ele><time>2026-04-03T07:52:39Z</time></trkpt><trkpt lat="39.324803797405735" lon="9.413126627488577"><ele>306.5</ele><time>2026-04-03T07:52:40Z</time></trkpt><trkpt lat="39.32490140337608" lon="9.413265997057032"><ele>298.75</ele><time>2026-04-03T07:52:41Z</time></trkpt><trkpt lat="39.324966891066204" lon="9.413446949407088"><ele>291.0</ele><time>2026-04-03T07:52:42Z</time></trkpt><trkpt lat="39.32499971793073" lon="9.41364910803404"><ele>292.6666666666667</ele><time>2026-04-03T07:52:43Z</time></trkpt><trkpt lat="39.32500785974495" lon="9.413856000079496"><ele>294.33333333333337</ele><time>2026-04-03T07:52:44Z</time></trkpt><trkpt lat="39.32500456722873" lon="9.414057512357747"><ele>296.0</ele><time>2026-04-03T07:52:45Z</time></trkpt><trkpt lat="39.32502777851309" lon="9.414244296002952"><ele>296.0</ele><time>2026-04-03T07:52:46Z</time></trkpt><trkpt lat="39.32509068133882" lon="9.414406343209938"><ele>296.0</ele><time>2026-04-03T07:52:47Z</time></trkpt><trkpt lat="39.3252053452295" lon="9.414538683634797"><ele>296.0</ele><time>2026-04-03T07:52:48Z</time></trkpt><trkpt lat="39.32531872200864" lon="9.414642295694925"><ele>296.0</ele><time>2026-04-03T07:52:49Z</time></trkpt><trkpt lat="39.325403624420275" lon="9.414762145180363"><ele>297.75</ele><time>2026-04-03T07:52:50Z</time></trkpt><trkpt lat="39.32543918751227" lon="9.41493008123086"><ele>299.5</ele><time>2026-04-03T07:52:51Z</time></trkpt><trkpt lat="39.32541367993704" lon="9.415096360004782"><ele>301.25</ele><time>2026-04-03T07:52:52Z</time></trkpt><trkpt lat="39.32534257875645" lon="9.415231770340286"><ele>303.0</ele><time>2026-04-03T07:52:53Z</time></trkpt><trkpt lat="39.32529069587439" lon="9.41537557626831"><ele>304.25</ele><time>2026-04-03T07:52:54Z</time></trkpt><trkpt lat="39.3253126671425" lon="9.415544435035365"><ele>305.5</ele><time>2026-04-03T07:52:55Z</time></trkpt><trkpt lat="39.32538469660698" lon="9.415719753214745"><ele>306.75</ele><time>2026-04-03T07:52:56Z</time></trkpt><trkpt lat="39.32545011850459" lon="9.415892791842959"><ele>308.0</ele><time>2026-04-03T07:52:57Z</time></trkpt><trkpt lat="39.325518866658285" lon="9.416068645721452"><ele>300.0</ele><time>2026-04-03T07:52:58Z</time></trkpt><trkpt lat="39.325593705208526" lon="9.416256815465964"><ele>292.0</ele><time>2026-04-03T07:52:59Z</time></trkpt><trkpt lat="39.3257207535896" lon="9.416436339970623"><ele>284.0</ele><time>2026-04-03T07:53:00Z</time></trkpt><trkpt lat="39.32587030526702" lon="9.416595527103272"><ele>284.0</ele><time>2026-04-03T07:53:01Z</time></trkpt><trkpt lat="39.325994868020494" lon="9.416751810042925"><ele>284.0</ele><time>2026-04-03T07:53:02Z</time></trkpt><trkpt lat="39.32611246410607" lon="9.41690854081099"><ele>284.0</ele><time>2026-04-03T07:53:03Z</time></trkpt><trkpt lat="39.32622519577039" lon="9.41705505255311"><ele>281.6666666666667</ele><time>2026-04-03T07:53:04Z</time></trkpt><trkpt lat="39.32633463204792" lon="9.417203436647618"><ele>279.3333333333333</ele><time>2026-04-03T07:53:05Z</time></trkpt><trkpt lat="39.326451994615326" lon="9.417321212492826"><ele>277.0</ele><time>2026-04-03T07:53:06Z</time></trkpt><trkpt lat="39.32659695186212" lon="9.417373479172326"><ele>277.0</ele><time>2026-04-03T07:53:07Z</time></trkpt><trkpt lat="39.32675066091272" lon="9.417353529798874"><ele>277.0</ele><time>2026-04-03T07:53:08Z</time></trkpt><trkpt lat="39.32689140424858" lon="9.417325094947769"><ele>277.0</ele><time>2026-04-03T07:53:09Z</time></trkpt><trkpt lat="39.32702666127635" lon="9.417311939317509"><ele>277.0</ele><time>2026-04-03T07:53:10Z</time></trkpt><trkpt lat="39.32716105537724" lon="9.417306194082563"><ele>272.5</ele><time>2026-04-03T07:53:11Z</time></trkpt><trkpt lat="39.327291560942896" lon="9.417313353480811"><ele>268.0</ele><time>2026-04-03T07:53:12Z</time></trkpt><trkpt lat="39.32740225623189" lon="9.417368536386176"><ele>263.5</ele><time>2026-04-03T07:53:13Z</time></trkpt><trkpt lat="39.32748076765043" lon="9.417489603941581"><ele>259.0</ele><time>2026-04-03T07:53:14Z</time></trkpt><trkpt lat="39.32750221126033" lon="9.417643542939219"><ele>259.0</ele><time>2026-04-03T07:53:15Z</time></trkpt><trkpt lat="39.32743548242389" lon="9.417846492889293"><ele>259.0</ele><time>2026-04-03T07:53:16Z</time></trkpt><trkpt lat="39.327391618407" lon="9.418017698773673"><ele>259.0</ele><time>2026-04-03T07:53:17Z</time></trkpt><trkpt lat="39.327316991284896" lon="9.418176421233781"><ele>265.66666666666663</ele><time>2026-04-03T07:53:18Z</time></trkpt><trkpt lat="39.327224496406586" lon="9.418345691062639"><ele>272.3333333333333</ele><time>2026-04-03T07:53:19Z</time></trkpt><trkpt lat="39.3271175083479" lon="9.418480057723519"><ele>279.0</ele><time>2026-04-03T07:53:20Z</time></trkpt><trkpt lat="39.327005804720216" lon="9.418628455978013"><ele>279.0</ele><time>2026-04-03T07:53:21Z</time></trkpt><trkpt lat="39.32689185445737" lon="9.418782955961836"><ele>279.0</ele><time>2026-04-03T07:53:22Z</time></trkpt><trkpt lat="39.326781763359676" lon="9.418940778240191"><ele>279.0</ele><time>2026-04-03T07:53:23Z</time></trkpt><trkpt lat="39.326666907663956" lon="9.419100294221762"><ele>279.3333333333333</ele><time>2026-04-03T07:53:24Z</time></trkpt><trkpt lat="39.32655456411678" lon="9.419257424167519"><ele>279.66666666666663</ele><time>2026-04-03T07:53:25Z</time></trkpt><trkpt lat="39.32644862570568" lon="9.419435256453161"><ele>280.0</ele><time>2026-04-03T07:53:26Z</time></trkpt><trkpt lat="39.326388908088234" lon="9.419607601752462"><ele>278.3333333333333</ele><time>2026-04-03T07:53:27Z</time></trkpt><trkpt lat="39.326354061018314" lon="9.419815067583507"><ele>276.6666666666667</ele><time>2026-04-03T07:53:28Z</time></trkpt><trkpt lat="39.32635047365775" lon="9.420028157780749"><ele>275.0</ele><time>2026-04-03T07:53:29Z</time></trkpt><trkpt lat="39.32638808222598" lon="9.420247612584724"><ele>270.6666666666667</ele><time>2026-04-03T07:53:30Z</time></trkpt><trkpt lat="39.32644965584957" lon="9.420460235702471"><ele>266.3333333333333</ele><time>2026-04-03T07:53:31Z</time></trkpt><trkpt lat="39.32652120342544" lon="9.420669800887467"><ele>262.0</ele><time>2026-04-03T07:53:32Z</time></trkpt><trkpt lat="39.32659079047533" lon="9.420867140164601"><ele>262.0</ele><time>2026-04-03T07:53:33Z</time></trkpt><trkpt lat="39.32667590693437" lon="9.421042292764003"><ele>262.0</ele><time>2026-04-03T07:53:34Z</time></trkpt><trkpt lat="39.326801824809024" lon="9.421178618163964"><ele>262.0</ele><time>2026-04-03T07:53:35Z</time></trkpt><trkpt lat="39.32693338677323" lon="9.421290019575439"><ele>263.5</ele><time>2026-04-03T07:53:36Z</time></trkpt><trkpt lat="39.327059004799516" lon="9.421409611060124"><ele>265.0</ele><time>2026-04-03T07:53:37Z</time></trkpt><trkpt lat="39.327167075523896" lon="9.42153323699769"><ele>266.5</ele><time>2026-04-03T07:53:38Z</time></trkpt><trkpt lat="39.327253427254405" lon="9.42164524819593"><ele>268.0</ele><time>2026-04-03T07:53:39Z</time></trkpt><trkpt lat="39.32730549206949" lon="9.421764917642335"><ele>268.0</ele><time>2026-04-03T07:53:40Z</time></trkpt><trkpt lat="39.32730774210186" lon="9.421902094711658"><ele>268.0</ele><time>2026-04-03T07:53:41Z</time></trkpt><trkpt lat="39.32725863607811" lon="9.422038252383482"><ele>268.0</ele><time>2026-04-03T07:53:42Z</time></trkpt><trkpt lat="39.32716598061155" lon="9.422148097586197"><ele>268.0</ele><time>2026-04-03T07:53:43Z</time></trkpt><trkpt lat="39.32705431472401" lon="9.422238026875297"><ele>264.25</ele><time>2026-04-03T07:53:44Z</time></trkpt><trkpt lat="39.32694474509939" lon="9.422325643421635"><ele>260.5</ele><time>2026-04-03T07:53:45Z</time></trkpt><trkpt lat="39.32683520430391" lon="9.422398362119587"><ele>256.75</ele><time>2026-04-03T07:53:46Z</time></trkpt><trkpt lat="39.32671032386759" lon="9.422477198966895"><ele>253.0</ele><time>2026-04-03T07:53:47Z</time></trkpt><trkpt lat="39.32657975345771" lon="9.422572739561469"><ele>253.0</ele><time>2026-04-03T07:53:48Z</time></trkpt><trkpt lat="39.326456414179894" lon="9.42267210239909"><ele>253.0</ele><time>2026-04-03T07:53:49Z</time></trkpt><trkpt lat="39.32633157568522" lon="9.42278190439033"><ele>253.0</ele><time>2026-04-03T07:53:50Z</time></trkpt><trkpt lat="39.326206268288615" lon="9.422891202757162"><ele>253.0</ele><time>2026-04-03T07:53:51Z</time></trkpt><trkpt lat="39.32607757911781" lon="9.42299545659398"><ele>255.0</ele><time>2026-04-03T07:53:52Z</time></trkpt><trkpt lat="39.32595149818504" lon="9.423101913253356"><ele>257.0</ele><time>2026-04-03T07:53:53Z</time></trkpt><trkpt lat="39.32584004927236" lon="9.423213920140778"><ele>259.0</ele><time>2026-04-03T07:53:54Z</time></trkpt><trkpt lat="39.3257570239115" lon="9.423352291721077"><ele>261.0</ele><time>2026-04-03T07:53:55Z</time></trkpt><trkpt lat="39.325723806743504" lon="9.423516192886883"><ele>261.0</ele><time>2026-04-03T07:53:56Z</time></trkpt><trkpt lat="39.32573171717775" lon="9.423678107493409"><ele>261.0</ele><time>2026-04-03T07:53:57Z</time></trkpt><trkpt lat="39.325783254996914" lon="9.423824562630527"><ele>261.0</ele><time>2026-04-03T07:53:58Z</time></trkpt><trkpt lat="39.32584343628138" lon="9.423947995814231"><ele>261.0</ele><time>2026-04-03T07:53:59Z</time></trkpt><trkpt lat="39.3259148742969" lon="9.424027098753434"><ele>257.75</ele><time>2026-04-03T07:54:00Z</time></trkpt><trkpt lat="39.32599198689231" lon="9.424131615047777"><ele>254.5</ele><time>2026-04-03T07:54:01Z</time></trkpt><trkpt lat="39.32605474752076" lon="9.424259531347682"><ele>251.25</ele><time>2026-04-03T07:54:02Z</time></trkpt><trkpt lat="39.32610602160231" lon="9.424410663229942"><ele>248.0</ele><time>2026-04-03T07:54:03Z</time></trkpt><trkpt lat="39.32613660822257" lon="9.424580542289217"><ele>246.5</ele><time>2026-04-03T07:54:04Z</time></trkpt><trkpt lat="39.32614684906129" lon="9.424757221760848"><ele>245.0</ele><time>2026-04-03T07:54:05Z</time></trkpt><trkpt lat="39.32613807187023" lon="9.424942334306216"><ele>243.5</ele><time>2026-04-03T07:54:06Z</time></trkpt><trkpt lat="39.326139590525095" lon="9.425146150311589"><ele>242.0</ele><time>2026-04-03T07:54:07Z</time></trkpt><trkpt lat="39.326133797509044" lon="9.425356236919098"><ele>241.0</ele><time>2026-04-03T07:54:08Z</time></trkpt><trkpt lat="39.326127263630546" lon="9.425557577755127"><ele>240.0</ele><time>2026-04-03T07:54:09Z</time></trkpt><trkpt lat="39.32611896464065" lon="9.425743898101086"><ele>239.0</ele><time>2026-04-03T07:54:10Z</time></trkpt><trkpt lat="39.326118813714004" lon="9.425915923240272"><ele>238.0</ele><time>2026-04-03T07:54:11Z</time></trkpt><trkpt lat="39.326126724985414" lon="9.426081994673547"><ele>238.0</ele><time>2026-04-03T07:54:12Z</time></trkpt><trkpt lat="39.32617093394095" lon="9.426232134684588"><ele>238.0</ele><time>2026-04-03T07:54:13Z</time></trkpt><trkpt lat="39.32625634524714" lon="9.426343191552833"><ele>238.0</ele><time>2026-04-03T07:54:14Z</time></trkpt><trkpt lat="39.3263773944291" lon="9.42639685461334"><ele>238.0</ele><time>2026-04-03T07:54:15Z</time></trkpt><trkpt lat="39.326503058178425" lon="9.426370904058299"><ele>241.5</ele><time>2026-04-03T07:54:16Z</time></trkpt><trkpt lat="39.326609953517526" lon="9.426283519719126"><ele>245.0</ele><time>2026-04-03T07:54:17Z</time></trkpt><trkpt lat="39.3266999645669" lon="9.426190679193223"><ele>248.5</ele><time>2026-04-03T07:54:18Z</time></trkpt><trkpt lat="39.326790844803504" lon="9.426123467041274"><ele>252.0</ele><time>2026-04-03T07:54:19Z</time></trkpt><trkpt lat="39.326892732015644" lon="9.426086401853631"><ele>252.0</ele><time>2026-04-03T07:54:20Z</time></trkpt><trkpt lat="39.32701104766843" lon="9.426095049036963"><ele>252.0</ele><time>2026-04-03T07:54:21Z</time></trkpt><trkpt lat="39.327135247606854" lon="9.426146963560388"><ele>252.0</ele><time>2026-04-03T07:54:22Z</time></trkpt><trkpt lat="39.32725151601153" lon="9.426215724678398"><ele>252.0</ele><time>2026-04-03T07:54:23Z</time></trkpt><trkpt lat="39.327374096337245" lon="9.426288577023206"><ele>246.25</ele><time>2026-04-03T07:54:24Z</time></trkpt><trkpt lat="39.32750515553612" lon="9.426356073394361"><ele>240.5</ele><time>2026-04-03T07:54:25Z</time></trkpt><trkpt lat="39.32764728930933" lon="9.426389259916148"><ele>234.75</ele><time>2026-04-03T07:54:26Z</time></trkpt><trkpt lat="39.32779237130191" lon="9.426420122146748"><ele>229.0</ele><time>2026-04-03T07:54:27Z</time></trkpt><trkpt lat="39.327923482159115" lon="9.42645132261848"><ele>229.0</ele><time>2026-04-03T07:54:28Z</time></trkpt><trkpt lat="39.32803827638248" lon="9.426513242592478"><ele>229.0</ele><time>2026-04-03T07:54:29Z</time></trkpt><trkpt lat="39.32813313944871" lon="9.42661591288134"><ele>229.0</ele><time>2026-04-03T07:54:30Z</time></trkpt><trkpt lat="39.328202952258295" lon="9.426748307578482"><ele>229.0</ele><time>2026-04-03T07:54:31Z</time></trkpt><trkpt lat="39.32824060936383" lon="9.426914653434649"><ele>227.75</ele><time>2026-04-03T07:54:32Z</time></trkpt><trkpt lat="39.32827847974897" lon="9.427088990816447"><ele>226.5</ele><time>2026-04-03T07:54:33Z</time></trkpt><trkpt lat="39.32832440925282" lon="9.427250591323837"><ele>225.25</ele><time>2026-04-03T07:54:34Z</time></trkpt><trkpt lat="39.32839740653276" lon="9.427388884708547"><ele>224.0</ele><time>2026-04-03T07:54:35Z</time></trkpt><trkpt lat="39.32851363338357" lon="9.427488253724675"><ele>224.0</ele><time>2026-04-03T07:54:36Z</time></trkpt><trkpt lat="39.328653196602" lon="9.42756993945399"><ele>224.0</ele><time>2026-04-03T07:54:37Z</time></trkpt><trkpt lat="39.3287907507853" lon="9.427647800339935"><ele>224.0</ele><time>2026-04-03T07:54:38Z</time></trkpt><trkpt lat="39.3289314024364" lon="9.427731190802929"><ele>223.66666666666669</ele><time>2026-04-03T07:54:39Z</time></trkpt><trkpt lat="39.329090054162116" lon="9.427790816591008"><ele>223.33333333333331</ele><time>2026-04-03T07:54:40Z</time></trkpt><trkpt lat="39.32923639190903" lon="9.427872140227471"><ele>223.0</ele><time>2026-04-03T07:54:41Z</time></trkpt><trkpt lat="39.32937373451753" lon="9.427988264968238"><ele>223.0</ele><time>2026-04-03T07:54:42Z</time></trkpt><trkpt lat="39.3294980121385" lon="9.428118916447499"><ele>223.0</ele><time>2026-04-03T07:54:43Z</time></trkpt><trkpt lat="39.32962436303666" lon="9.428221159092228"><ele>223.0</ele><time>2026-04-03T07:54:44Z</time></trkpt><trkpt lat="39.32974798746384" lon="9.4283136442111"><ele>222.5</ele><time>2026-04-03T07:54:45Z</time></trkpt><trkpt lat="39.32986533195079" lon="9.428408824130432"><ele>222.0</ele><time>2026-04-03T07:54:46Z</time></trkpt><trkpt lat="39.32997727762251" lon="9.42850985953486"><ele>221.5</ele><time>2026-04-03T07:54:47Z</time></trkpt><trkpt lat="39.330093825444216" lon="9.428612427754512"><ele>221.0</ele><time>2026-04-03T07:54:48Z</time></trkpt><trkpt lat="39.33021763135176" lon="9.42871873173878"><ele>220.66666666666669</ele><time>2026-04-03T07:54:49Z</time></trkpt><trkpt lat="39.330345681386405" lon="9.428823797674738"><ele>220.33333333333331</ele><time>2026-04-03T07:54:50Z</time></trkpt><trkpt lat="39.33048571601305" lon="9.428914145911914"><ele>220.0</ele><time>2026-04-03T07:54:51Z</time></trkpt><trkpt lat="39.33064584083426" lon="9.428960789054432"><ele>218.33333333333331</ele><time>2026-04-03T07:54:52Z</time></trkpt><trkpt lat="39.330816461223144" lon="9.428968790572698"><ele>216.66666666666669</ele><time>2026-04-03T07:54:53Z</time></trkpt><trkpt lat="39.330987953192874" lon="9.42897980210676"><ele>215.0</ele><time>2026-04-03T07:54:54Z</time></trkpt><trkpt lat="39.331160392978546" lon="9.4289994142206"><ele>215.0</ele><time>2026-04-03T07:54:55Z</time></trkpt><trkpt lat="39.33134914261875" lon="9.429009230226916"><ele>215.0</ele><time>2026-04-03T07:54:56Z</time></trkpt><trkpt lat="39.33151401374872" lon="9.42904908269856"><ele>215.0</ele><time>2026-04-03T07:54:57Z</time></trkpt><trkpt lat="39.331687268538815" lon="9.429075310885969"><ele>215.33333333333334</ele><time>2026-04-03T07:54:58Z</time></trkpt><trkpt lat="39.331856868964685" lon="9.429100560678652"><ele>215.66666666666669</ele><time>2026-04-03T07:54:59Z</time></trkpt><trkpt lat="39.33202569574818" lon="9.42912210403729"><ele>216.0</ele><time>2026-04-03T07:55:00Z</time></trkpt><trkpt lat="39.33219063714076" lon="9.429142933901666"><ele>215.66666666666669</ele><time>2026-04-03T07:55:01Z</time></trkpt><trkpt lat="39.332349739415164" lon="9.429167008121285"><ele>215.33333333333334</ele><time>2026-04-03T07:55:02Z</time></trkpt><trkpt lat="39.332501410314435" lon="9.429195288912041"><ele>215.0</ele><time>2026-04-03T07:55:03Z</time></trkpt><trkpt lat="39.332635174900226" lon="9.429228248614974"><ele>215.0</ele><time>2026-04-03T07:55:04Z</time></trkpt><trkpt lat="39.33275224051363" lon="9.429281952783429"><ele>215.0</ele><time>2026-04-03T07:55:05Z</time></trkpt><trkpt lat="39.33284703210793" lon="9.429383870199137"><ele>215.0</ele><time>2026-04-03T07:55:06Z</time></trkpt><trkpt lat="39.332894128277665" lon="9.429560861133233"><ele>215.0</ele><time>2026-04-03T07:55:07Z</time></trkpt><trkpt lat="39.332918508484376" lon="9.42976039041231"><ele>212.66666666666669</ele><time>2026-04-03T07:55:08Z</time></trkpt><trkpt lat="39.33290747736738" lon="9.42997967710156"><ele>210.33333333333331</ele><time>2026-04-03T07:55:09Z</time></trkpt><trkpt lat="39.3328646238359" lon="9.430199380654873"><ele>208.0</ele><time>2026-04-03T07:55:10Z</time></trkpt><trkpt lat="39.33279226264895" lon="9.43042136709998"><ele>210.0</ele><time>2026-04-03T07:55:11Z</time></trkpt><trkpt lat="39.332716987550576" lon="9.430625710186614"><ele>212.0</ele><time>2026-04-03T07:55:12Z</time></trkpt><trkpt lat="39.33264669907413" lon="9.430822644979875"><ele>214.0</ele><time>2026-04-03T07:55:13Z</time></trkpt><trkpt lat="39.33260850055333" lon="9.431028514620953"><ele>214.0</ele><time>2026-04-03T07:55:14Z</time></trkpt><trkpt lat="39.33259349043356" lon="9.431245415909375"><ele>214.0</ele><time>2026-04-03T07:55:15Z</time></trkpt><trkpt lat="39.332596972443646" lon="9.431463039791982"><ele>214.0</ele><time>2026-04-03T07:55:16Z</time></trkpt><trkpt lat="39.33261412471457" lon="9.431676197030074"><ele>214.75</ele><time>2026-04-03T07:55:17Z</time></trkpt><trkpt lat="39.33261319991793" lon="9.431878821690583"><ele>215.5</ele><time>2026-04-03T07:55:18Z</time></trkpt><trkpt lat="39.33257364566315" lon="9.432057210138877"><ele>216.25</ele><time>2026-04-03T07:55:19Z</time></trkpt><trkpt lat="39.33251667959513" lon="9.432218648373183"><ele>217.0</ele><time>2026-04-03T07:55:20Z</time></trkpt><trkpt lat="39.332495449870954" lon="9.432376145128284"><ele>217.0</ele><time>2026-04-03T07:55:21Z</time></trkpt><trkpt lat="39.33252151063392" lon="9.432539956274935"><ele>217.0</ele><time>2026-04-03T07:55:22Z</time></trkpt><trkpt lat="39.332597283587816" lon="9.432684632926357"><ele>217.0</ele><time>2026-04-03T07:55:23Z</time></trkpt><trkpt lat="39.33270262355728" lon="9.432807202048558"><ele>217.0</ele><time>2026-04-03T07:55:24Z</time></trkpt><trkpt lat="39.33280278179032" lon="9.432931901203318"><ele>213.33333333333331</ele><time>2026-04-03T07:55:25Z</time></trkpt><trkpt lat="39.33290607833047" lon="9.433073230736278"><ele>209.66666666666669</ele><time>2026-04-03T07:55:26Z</time></trkpt><trkpt lat="39.33300736194196" lon="9.433216106541103"><ele>206.0</ele><time>2026-04-03T07:55:27Z</time></trkpt><trkpt lat="39.33311604682851" lon="9.433364737539646"><ele>208.0</ele><time>2026-04-03T07:55:28Z</time></trkpt><trkpt lat="39.333210130214084" lon="9.43353689584034"><ele>210.0</ele><time>2026-04-03T07:55:29Z</time></trkpt><trkpt lat="39.33327092320257" lon="9.433734734818225"><ele>212.0</ele><time>2026-04-03T07:55:30Z</time></trkpt><trkpt lat="39.3333409058425" lon="9.433923788410292"><ele>212.0</ele><time>2026-04-03T07:55:31Z</time></trkpt><trkpt lat="39.333448254040725" lon="9.434081910121982"><ele>212.0</ele><time>2026-04-03T07:55:32Z</time></trkpt><trkpt lat="39.33357394343436" lon="9.434213869372037"><ele>212.0</ele><time>2026-04-03T07:55:33Z</time></trkpt><trkpt lat="39.33368010977754" lon="9.434367083723773"><ele>212.0</ele><time>2026-04-03T07:55:34Z</time></trkpt><trkpt lat="39.33376797435503" lon="9.434522534368933"><ele>212.0</ele><time>2026-04-03T07:55:35Z</time></trkpt><trkpt lat="39.33384887267621" lon="9.434652164771997"><ele>212.0</ele><time>2026-04-03T07:55:36Z</time></trkpt><trkpt lat="39.33392124404657" lon="9.434777450213938"><ele>212.0</ele><time>2026-04-03T07:55:37Z</time></trkpt><trkpt lat="39.33395262259192" lon="9.434936805917532"><ele>209.75</ele><time>2026-04-03T07:55:38Z</time></trkpt><trkpt lat="39.3339473163863" lon="9.435102167990724"><ele>207.5</ele><time>2026-04-03T07:55:39Z</time></trkpt><trkpt lat="39.33390687228256" lon="9.435250371264512"><ele>205.25</ele><time>2026-04-03T07:55:40Z</time></trkpt><trkpt lat="39.33385755734354" lon="9.435392377253573"><ele>203.0</ele><time>2026-04-03T07:55:41Z</time></trkpt><trkpt lat="39.33380493781691" lon="9.435532587170048"><ele>203.0</ele><time>2026-04-03T07:55:42Z</time></trkpt><trkpt lat="39.33376186602651" lon="9.435680303228114"><ele>203.0</ele><time>2026-04-03T07:55:43Z</time></trkpt><trkpt lat="39.33372565949452" lon="9.435829471612875"><ele>203.0</ele><time>2026-04-03T07:55:44Z</time></trkpt><trkpt lat="39.333708578870855" lon="9.435986896050888"><ele>203.0</ele><time>2026-04-03T07:55:45Z</time></trkpt><trkpt lat="39.33371646523713" lon="9.436152328527056"><ele>200.5</ele><time>2026-04-03T07:55:46Z</time></trkpt><trkpt lat="39.333736611296786" lon="9.436322459964375"><ele>198.0</ele><time>2026-04-03T07:55:47Z</time></trkpt><trkpt lat="39.333783634799744" lon="9.436491950280127"><ele>195.5</ele><time>2026-04-03T07:55:48Z</time></trkpt><trkpt lat="39.33385615358801" lon="9.436652763285634"><ele>193.0</ele><time>2026-04-03T07:55:49Z</time></trkpt><trkpt lat="39.3339519000932" lon="9.43679859324316"><ele>194.66666666666666</ele><time>2026-04-03T07:55:50Z</time></trkpt><trkpt lat="39.33405023658973" lon="9.436949326764898"><ele>196.33333333333331</ele><time>2026-04-03T07:55:51Z</time></trkpt><trkpt lat="39.3341523396806" lon="9.437110193268405"><ele>198.0</ele><time>2026-04-03T07:55:52Z</time></trkpt><trkpt lat="39.334252581834235" lon="9.437275656338807"><ele>198.0</ele><time>2026-04-03T07:55:53Z</time></trkpt><trkpt lat="39.33434615616462" lon="9.437432816643499"><ele>198.0</ele><time>2026-04-03T07:55:54Z</time></trkpt><trkpt lat="39.33443005384326" lon="9.437593035704628"><ele>198.0</ele><time>2026-04-03T07:55:55Z</time></trkpt><trkpt lat="39.334489292927046" lon="9.43776871704854"><ele>198.0</ele><time>2026-04-03T07:55:56Z</time></trkpt><trkpt lat="39.33451060725684" lon="9.437956017396452"><ele>198.0</ele><time>2026-04-03T07:55:57Z</time></trkpt><trkpt lat="39.334517351462715" lon="9.438137371372244"><ele>198.0</ele><time>2026-04-03T07:55:58Z</time></trkpt><trkpt lat="39.33452557213587" lon="9.438329608838806"><ele>198.0</ele><time>2026-04-03T07:55:59Z</time></trkpt><trkpt lat="39.334543790804766" lon="9.438512351120485"><ele>195.0</ele><time>2026-04-03T07:56:00Z</time></trkpt><trkpt lat="39.33456543669918" lon="9.438674747561425"><ele>192.0</ele><time>2026-04-03T07:56:01Z</time></trkpt><trkpt lat="39.33461006080115" lon="9.438800762161396"><ele>189.0</ele><time>2026-04-03T07:56:02Z</time></trkpt><trkpt lat="39.33465481814887" lon="9.438936866044148"><ele>186.0</ele><time>2026-04-03T07:56:03Z</time></trkpt><trkpt lat="39.33476192949692" lon="9.43900032934371"><ele>183.0</ele><time>2026-04-03T07:56:04Z</time></trkpt><trkpt lat="39.334901127874645" lon="9.438985725783168"><ele>180.0</ele><time>2026-04-03T07:56:05Z</time></trkpt><trkpt lat="39.33504575905191" lon="9.438949296745045"><ele>177.0</ele><time>2026-04-03T07:56:06Z</time></trkpt><trkpt lat="39.33519151412213" lon="9.438926364027939"><ele>174.0</ele><time>2026-04-03T07:56:07Z</time></trkpt><trkpt lat="39.33534260829746" lon="9.43891102653405"><ele>174.0</ele><time>2026-04-03T07:56:08Z</time></trkpt><trkpt lat="39.33548240069673" lon="9.43892511158468"><ele>174.0</ele><time>2026-04-03T07:56:09Z</time></trkpt><trkpt lat="39.33561767595701" lon="9.438970484418155"><ele>174.0</ele><time>2026-04-03T07:56:10Z</time></trkpt><trkpt lat="39.33575542159016" lon="9.438993093042624"><ele>174.0</ele><time>2026-04-03T07:56:11Z</time></trkpt><trkpt lat="39.33589935646127" lon="9.438967165691016"><ele>174.33333333333334</ele><time>2026-04-03T07:56:12Z</time></trkpt><trkpt lat="39.33605222013667" lon="9.43892701011487"><ele>174.66666666666669</ele><time>2026-04-03T07:56:13Z</time></trkpt><trkpt lat="39.336212392196835" lon="9.438889790383643"><ele>175.0</ele><time>2026-04-03T07:56:14Z</time></trkpt><trkpt lat="39.33637912494693" lon="9.438862655621323"><ele>174.66666666666669</ele><time>2026-04-03T07:56:15Z</time></trkpt><trkpt lat="39.33655601675719" lon="9.438851836972665"><ele>174.33333333333334</ele><time>2026-04-03T07:56:16Z</time></trkpt><trkpt lat="39.33673796964521" lon="9.438861676176268"><ele>174.0</ele><time>2026-04-03T07:56:17Z</time></trkpt><trkpt lat="39.336927208553135" lon="9.438871732012888"><ele>174.0</ele><time>2026-04-03T07:56:18Z</time></trkpt><trkpt lat="39.33711942994853" lon="9.438897376997096"><ele>174.0</ele><time>2026-04-03T07:56:19Z</time></trkpt><trkpt lat="39.33731357227199" lon="9.43894953720084"><ele>174.0</ele><time>2026-04-03T07:56:20Z</time></trkpt><trkpt lat="39.33750457448563" lon="9.439005866064104"><ele>176.0</ele><time>2026-04-03T07:56:21Z</time></trkpt><trkpt lat="39.33770011111986" lon="9.43904175039481"><ele>178.0</ele><time>2026-04-03T07:56:22Z</time></trkpt><trkpt lat="39.33789308905222" lon="9.439071079083416"><ele>180.0</ele><time>2026-04-03T07:56:23Z</time></trkpt><trkpt lat="39.33807871842445" lon="9.439124743754073"><ele>182.33333333333334</ele><time>2026-04-03T07:56:24Z</time></trkpt><trkpt lat="39.33825040591067" lon="9.439216152961151"><ele>184.66666666666669</ele><time>2026-04-03T07:56:25Z</time></trkpt><trkpt lat="39.33839028337084" lon="9.439399605832484"><ele>187.0</ele><time>2026-04-03T07:56:26Z</time></trkpt><trkpt lat="39.338524752577705" lon="9.439567291561659"><ele>179.66666666666669</ele><time>2026-04-03T07:56:27Z</time></trkpt><trkpt lat="39.33867248947445" lon="9.439696828550852"><ele>172.33333333333334</ele><time>2026-04-03T07:56:28Z</time></trkpt><trkpt lat="39.33883882548089" lon="9.439778686720292"><ele>165.0</ele><time>2026-04-03T07:56:29Z</time></trkpt><trkpt lat="39.33902766526038" lon="9.439808316856588"><ele>165.0</ele><time>2026-04-03T07:56:30Z</time></trkpt><trkpt lat="39.33921559290992" lon="9.439830019110785"><ele>165.0</ele><time>2026-04-03T07:56:31Z</time></trkpt><trkpt lat="39.339405377154186" lon="9.439828521310272"><ele>165.0</ele><time>2026-04-03T07:56:32Z</time></trkpt><trkpt lat="39.33958836143117" lon="9.439805790911356"><ele>163.0</ele><time>2026-04-03T07:56:33Z</time></trkpt><trkpt lat="39.33975618585671" lon="9.439744811944923"><ele>161.0</ele><time>2026-04-03T07:56:34Z</time></trkpt><trkpt lat="39.33991456161771" lon="9.439657268667242"><ele>159.0</ele><time>2026-04-03T07:56:35Z</time></trkpt><trkpt lat="39.34006521557528" lon="9.439551392280611"><ele>162.25</ele><time>2026-04-03T07:56:36Z</time></trkpt><trkpt lat="39.34019229024254" lon="9.439479570785325"><ele>165.5</ele><time>2026-04-03T07:56:37Z</time></trkpt><trkpt lat="39.34031894875197" lon="9.439441694192988"><ele>168.75</ele><time>2026-04-03T07:56:38Z</time></trkpt><trkpt lat="39.34044201749177" lon="9.439445153026195"><ele>172.0</ele><time>2026-04-03T07:56:39Z</time></trkpt><trkpt lat="39.340562777339905" lon="9.43952678734749"><ele>171.0</ele><time>2026-04-03T07:56:40Z</time></trkpt><trkpt lat="39.34064691409154" lon="9.43966786450649"><ele>170.0</ele><time>2026-04-03T07:56:41Z</time></trkpt><trkpt lat="39.34072022134898" lon="9.439833926871872"><ele>169.0</ele><time>2026-04-03T07:56:42Z</time></trkpt><trkpt lat="39.34079600766248" lon="9.439999558594021"><ele>168.0</ele><time>2026-04-03T07:56:43Z</time></trkpt><trkpt lat="39.34089029566046" lon="9.440149306316403"><ele>168.0</ele><time>2026-04-03T07:56:44Z</time></trkpt><trkpt lat="39.34100997679074" lon="9.440277778731371"><ele>168.0</ele><time>2026-04-03T07:56:45Z</time></trkpt><trkpt lat="39.34115200487541" lon="9.440376598256245"><ele>168.0</ele><time>2026-04-03T07:56:46Z</time></trkpt><trkpt lat="39.341310855552976" lon="9.440451533655192"><ele>165.66666666666666</ele><time>2026-04-03T07:56:47Z</time></trkpt><trkpt lat="39.34148074206871" lon="9.440503489248824"><ele>163.33333333333331</ele><time>2026-04-03T07:56:48Z</time></trkpt><trkpt lat="39.34165210796707" lon="9.44053958820871"><ele>161.0</ele><time>2026-04-03T07:56:49Z</time></trkpt><trkpt lat="39.34182299439142" lon="9.440580147497595"><ele>161.0</ele><time>2026-04-03T07:56:50Z</time></trkpt><trkpt lat="39.34198862885955" lon="9.440622555502646"><ele>161.0</ele><time>2026-04-03T07:56:51Z</time></trkpt><trkpt lat="39.342159131348744" lon="9.440670426600622"><ele>161.0</ele><time>2026-04-03T07:56:52Z</time></trkpt><trkpt lat="39.34233052048449" lon="9.440712734631024"><ele>160.0</ele><time>2026-04-03T07:56:53Z</time></trkpt><trkpt lat="39.34250372227654" lon="9.440756246368682"><ele>159.0</ele><time>2026-04-03T07:56:54Z</time></trkpt><trkpt lat="39.34266880336056" lon="9.440799346484342"><ele>158.0</ele><time>2026-04-03T07:56:55Z</time></trkpt><trkpt lat="39.34282779149634" lon="9.440850369270876"><ele>158.0</ele><time>2026-04-03T07:56:56Z</time></trkpt><trkpt lat="39.342971218147" lon="9.440933245771507"><ele>158.0</ele><time>2026-04-03T07:56:57Z</time></trkpt><trkpt lat="39.34308946629548" lon="9.441066177026597"><ele>158.0</ele><time>2026-04-03T07:56:58Z</time></trkpt><trkpt lat="39.34316359569651" lon="9.441239736378085"><ele>159.5</ele><time>2026-04-03T07:56:59Z</time></trkpt><trkpt lat="39.34319610267064" lon="9.4414284448793"><ele>161.0</ele><time>2026-04-03T07:57:00Z</time></trkpt><trkpt lat="39.34322558966311" lon="9.44160730723719"><ele>162.5</ele><time>2026-04-03T07:57:01Z</time></trkpt><trkpt lat="39.34328708192897" lon="9.441771536005987"><ele>164.0</ele><time>2026-04-03T07:57:02Z</time></trkpt><trkpt lat="39.34339168400397" lon="9.441908003044851"><ele>164.0</ele><time>2026-04-03T07:57:03Z</time></trkpt><trkpt lat="39.34353011960205" lon="9.442003526776062"><ele>164.0</ele><time>2026-04-03T07:57:04Z</time></trkpt><trkpt lat="39.34367743931366" lon="9.442093804165209"><ele>164.0</ele><time>2026-04-03T07:57:05Z</time></trkpt><trkpt lat="39.34381991809274" lon="9.442191521331402"><ele>163.0</ele><time>2026-04-03T07:57:06Z</time></trkpt><trkpt lat="39.34393779446674" lon="9.442342260261906"><ele>162.0</ele><time>2026-04-03T07:57:07Z</time></trkpt><trkpt lat="39.34403694274584" lon="9.442521318196283"><ele>161.0</ele><time>2026-04-03T07:57:08Z</time></trkpt><trkpt lat="39.34413133952361" lon="9.4427030509829"><ele>161.0</ele><time>2026-04-03T07:57:09Z</time></trkpt><trkpt lat="39.34423855678518" lon="9.44287090792739"><ele>161.0</ele><time>2026-04-03T07:57:10Z</time></trkpt><trkpt lat="39.34434946486293" lon="9.443024880196889"><ele>161.0</ele><time>2026-04-03T07:57:11Z</time></trkpt><trkpt lat="39.344461828992685" lon="9.443172310243595"><ele>160.25</ele><time>2026-04-03T07:57:12Z</time></trkpt><trkpt lat="39.34457038916107" lon="9.443310172693963"><ele>159.5</ele><time>2026-04-03T07:57:13Z</time></trkpt><trkpt lat="39.34467484048868" lon="9.443443133196748"><ele>158.75</ele><time>2026-04-03T07:57:14Z</time></trkpt><trkpt lat="39.344815627087854" lon="9.443498584549033"><ele>158.0</ele><time>2026-04-03T07:57:15Z</time></trkpt><trkpt lat="39.34494910156855" lon="9.443524445211809"><ele>158.0</ele><time>2026-04-03T07:57:16Z</time></trkpt><trkpt lat="39.34505952113178" lon="9.4435866010623"><ele>158.0</ele><time>2026-04-03T07:57:17Z</time></trkpt><trkpt lat="39.34514447556095" lon="9.443696153944485"><ele>158.0</ele><time>2026-04-03T07:57:18Z</time></trkpt><trkpt lat="39.34518031544655" lon="9.443855490367826"><ele>158.0</ele><time>2026-04-03T07:57:19Z</time></trkpt><trkpt lat="39.34517083242031" lon="9.444035966454962"><ele>157.5</ele><time>2026-04-03T07:57:20Z</time></trkpt><trkpt lat="39.34515686638487" lon="9.444206805677542"><ele>157.0</ele><time>2026-04-03T07:57:21Z</time></trkpt><trkpt lat="39.34517361226014" lon="9.444373158020328"><ele>156.5</ele><time>2026-04-03T07:57:22Z</time></trkpt><trkpt lat="39.34520903695618" lon="9.44452724421712"><ele>156.0</ele><time>2026-04-03T07:57:23Z</time></trkpt><trkpt lat="39.3452207951551" lon="9.444694589795809"><ele>156.0</ele><time>2026-04-03T07:57:24Z</time></trkpt><trkpt lat="39.34518200341324" lon="9.444850077864396"><ele>156.0</ele><time>2026-04-03T07:57:25Z</time></trkpt><trkpt lat="39.34512197430428" lon="9.445000767714346"><ele>156.0</ele><time>2026-04-03T07:57:26Z</time></trkpt><trkpt lat="39.34508356128387" lon="9.445140097610205"><ele>156.0</ele><time>2026-04-03T07:57:27Z</time></trkpt><trkpt lat="39.34506151767734" lon="9.445338300816774"><ele>157.25</ele><time>2026-04-03T07:57:28Z</time></trkpt><trkpt lat="39.34500164098221" lon="9.44549839462735"><ele>158.5</ele><time>2026-04-03T07:57:29Z</time></trkpt><trkpt lat="39.34490614270248" lon="9.445618189036923"><ele>159.75</ele><time>2026-04-03T07:57:30Z</time></trkpt><trkpt lat="39.34482611571316" lon="9.44573146420688"><ele>161.0</ele><time>2026-04-03T07:57:31Z</time></trkpt><trkpt lat="39.344794351490265" lon="9.445888392930689"><ele>161.0</ele><time>2026-04-03T07:57:32Z</time></trkpt><trkpt lat="39.34482913529358" lon="9.446070126976448"><ele>161.0</ele><time>2026-04-03T07:57:33Z</time></trkpt><trkpt lat="39.34487576135852" lon="9.446246116264327"><ele>161.0</ele><time>2026-04-03T07:57:34Z</time></trkpt><trkpt lat="39.34491452798635" lon="9.446424901427871"><ele>161.0</ele><time>2026-04-03T07:57:35Z</time></trkpt><trkpt lat="39.34494582247735" lon="9.446603679538953"><ele>161.0</ele><time>2026-04-03T07:57:36Z</time></trkpt><trkpt lat="39.344977181394626" lon="9.446780294368807"><ele>161.0</ele><time>2026-04-03T07:57:37Z</time></trkpt><trkpt lat="39.34500717413221" lon="9.446953076409084"><ele>161.0</ele><time>2026-04-03T07:57:38Z</time></trkpt><trkpt lat="39.34503335425055" lon="9.447152524988269"><ele>161.0</ele><time>2026-04-03T07:57:39Z</time></trkpt><trkpt lat="39.345035723185326" lon="9.447352047321234"><ele>160.66666666666666</ele><time>2026-04-03T07:57:40Z</time></trkpt><trkpt lat="39.34501654922236" lon="9.447554313334818"><ele>160.33333333333334</ele><time>2026-04-03T07:57:41Z</time></trkpt><trkpt lat="39.34497780871365" lon="9.447758592675314"><ele>160.0</ele><time>2026-04-03T07:57:42Z</time></trkpt><trkpt lat="39.34492380076973" lon="9.447955918904318"><ele>163.66666666666669</ele><time>2026-04-03T07:57:43Z</time></trkpt><trkpt lat="39.344861627537426" lon="9.448156371325537"><ele>167.33333333333334</ele><time>2026-04-03T07:57:44Z</time></trkpt><trkpt lat="39.34479909934786" lon="9.448348394894772"><ele>171.0</ele><time>2026-04-03T07:57:45Z</time></trkpt><trkpt lat="39.34474122281881" lon="9.448524331088192"><ele>166.75</ele><time>2026-04-03T07:57:46Z</time></trkpt><trkpt lat="39.34466384160175" lon="9.448677443765872"><ele>162.5</ele><time>2026-04-03T07:57:47Z</time></trkpt><trkpt lat="39.34455528354001" lon="9.448794362064541"><ele>158.25</ele><time>2026-04-03T07:57:47.999Z</time></trkpt><trkpt lat="39.344425894045905" lon="9.448878785032965"><ele>154.0</ele><time>2026-04-03T07:57:48.999Z</time></trkpt><trkpt lat="39.34430557799952" lon="9.448975476398667"><ele>154.0</ele><time>2026-04-03T07:57:49.999Z</time></trkpt><trkpt lat="39.344191452104845" lon="9.449094354284004"><ele>154.0</ele><time>2026-04-03T07:57:50.999Z</time></trkpt><trkpt lat="39.34408463192813" lon="9.449235078051826"><ele>154.0</ele><time>2026-04-03T07:57:51.999Z</time></trkpt><trkpt lat="39.34396181368458" lon="9.449362329802288"><ele>152.5</ele><time>2026-04-03T07:57:52.999Z</time></trkpt><trkpt lat="39.34382780167135" lon="9.44947296041238"><ele>151.0</ele><time>2026-04-03T07:57:53.999Z</time></trkpt><trkpt lat="39.34370602464856" lon="9.44955989558869"><ele>149.5</ele><time>2026-04-03T07:57:54.999Z</time></trkpt><trkpt lat="39.3435963555734" lon="9.44966134324055"><ele>148.0</ele><time>2026-04-03T07:57:55.999Z</time></trkpt><trkpt lat="39.34350972243768" lon="9.449759585304674"><ele>148.0</ele><time>2026-04-03T07:57:56.999Z</time></trkpt><trkpt lat="39.34346236800069" lon="9.449892127903148"><ele>148.0</ele><time>2026-04-03T07:57:57.999Z</time></trkpt><trkpt lat="39.3434787003998" lon="9.450069083534443"><ele>148.0</ele><time>2026-04-03T07:57:58.999Z</time></trkpt><trkpt lat="39.34351716992539" lon="9.450259041627213"><ele>148.0</ele><time>2026-04-03T07:57:59.999Z</time></trkpt><trkpt lat="39.34355824135627" lon="9.450457922036842"><ele>147.0</ele><time>2026-04-03T07:58:00.999Z</time></trkpt><trkpt lat="39.34359407859113" lon="9.450671043366627"><ele>146.0</ele><time>2026-04-03T07:58:01.999Z</time></trkpt><trkpt lat="39.34362125435631" lon="9.45088104682662"><ele>145.0</ele><time>2026-04-03T07:58:02.999Z</time></trkpt><trkpt lat="39.343650441681625" lon="9.4510944995945"><ele>143.33333333333334</ele><time>2026-04-03T07:58:03.999Z</time></trkpt><trkpt lat="39.34368504329774" lon="9.451315100943875"><ele>141.66666666666666</ele><time>2026-04-03T07:58:04.999Z</time></trkpt><trkpt lat="39.34373690155982" lon="9.451532419106684"><ele>140.0</ele><time>2026-04-03T07:58:05.999Z</time></trkpt><trkpt lat="39.34379797899716" lon="9.45175218497083"><ele>140.0</ele><time>2026-04-03T07:58:06.999Z</time></trkpt><trkpt lat="39.34386562458964" lon="9.451967206488488"><ele>140.0</ele><time>2026-04-03T07:58:08Z</time></trkpt><trkpt lat="39.34394880283948" lon="9.45217107688781"><ele>140.0</ele><time>2026-04-03T07:58:09Z</time></trkpt><trkpt lat="39.34404269321865" lon="9.452342467050226"><ele>140.75</ele><time>2026-04-03T07:58:10Z</time></trkpt><trkpt lat="39.3441312793133" lon="9.45249044977594"><ele>141.5</ele><time>2026-04-03T07:58:11Z</time></trkpt><trkpt lat="39.34421071459017" lon="9.452622570698777"><ele>142.25</ele><time>2026-04-03T07:58:12Z</time></trkpt><trkpt lat="39.344319191345704" lon="9.452712862188477"><ele>143.0</ele><time>2026-04-03T07:58:13Z</time></trkpt><trkpt lat="39.34446531128653" lon="9.452750501826722"><ele>143.0</ele><time>2026-04-03T07:58:14Z</time></trkpt><trkpt lat="39.344628892466325" lon="9.45272977398334"><ele>143.0</ele><time>2026-04-03T07:58:15Z</time></trkpt><trkpt lat="39.34478854242197" lon="9.452703543054287"><ele>143.0</ele><time>2026-04-03T07:58:16Z</time></trkpt><trkpt lat="39.344942352380215" lon="9.452700400365273"><ele>144.66666666666666</ele><time>2026-04-03T07:58:17Z</time></trkpt><trkpt lat="39.34510304280087" lon="9.452656419439673"><ele>146.33333333333334</ele><time>2026-04-03T07:58:18Z</time></trkpt><trkpt lat="39.34524865960738" lon="9.452561301921914"><ele>148.0</ele><time>2026-04-03T07:58:19Z</time></trkpt><trkpt lat="39.345394851871625" lon="9.452441607530249"><ele>144.0</ele><time>2026-04-03T07:58:20Z</time></trkpt><trkpt lat="39.345552336636715" lon="9.452351217041139"><ele>140.0</ele><time>2026-04-03T07:58:21Z</time></trkpt><trkpt lat="39.34572305535593" lon="9.45231368253162"><ele>136.0</ele><time>2026-04-03T07:58:22Z</time></trkpt><trkpt lat="39.34588942868141" lon="9.452278267414517"><ele>136.0</ele><time>2026-04-03T07:58:23Z</time></trkpt><trkpt lat="39.34604395653255" lon="9.452198411235754"><ele>136.0</ele><time>2026-04-03T07:58:24Z</time></trkpt><trkpt lat="39.3461911501919" lon="9.452096765074456"><ele>136.0</ele><time>2026-04-03T07:58:25Z</time></trkpt><trkpt lat="39.34635139811617" lon="9.452051753031196"><ele>145.33333333333334</ele><time>2026-04-03T07:58:26Z</time></trkpt><trkpt lat="39.346520905581684" lon="9.452057119465472"><ele>154.66666666666666</ele><time>2026-04-03T07:58:27Z</time></trkpt><trkpt lat="39.346690912447876" lon="9.452066082230422"><ele>164.0</ele><time>2026-04-03T07:58:28Z</time></trkpt><trkpt lat="39.34685977222645" lon="9.452060456928747"><ele>164.0</ele><time>2026-04-03T07:58:29Z</time></trkpt><trkpt lat="39.34702188061999" lon="9.452046725544301"><ele>164.0</ele><time>2026-04-03T07:58:30Z</time></trkpt><trkpt lat="39.34717857869819" lon="9.452030450607252"><ele>164.0</ele><time>2026-04-03T07:58:31Z</time></trkpt><trkpt lat="39.34732538045263" lon="9.452009946264747"><ele>163.75</ele><time>2026-04-03T07:58:32Z</time></trkpt><trkpt lat="39.34746501669574" lon="9.452003269175304"><ele>163.5</ele><time>2026-04-03T07:58:33Z</time></trkpt><trkpt lat="39.34760105589213" lon="9.452040091183271"><ele>163.25</ele><time>2026-04-03T07:58:34Z</time></trkpt><trkpt lat="39.34771491277197" lon="9.452146582058955"><ele>163.0</ele><time>2026-04-03T07:58:35Z</time></trkpt><trkpt lat="39.34782797800825" lon="9.452279422128862"><ele>157.25</ele><time>2026-04-03T07:58:36Z</time></trkpt><trkpt lat="39.347961816737865" lon="9.452378428846881"><ele>151.5</ele><time>2026-04-03T07:58:37Z</time></trkpt><trkpt lat="39.348095363038915" lon="9.452459036195586"><ele>145.75</ele><time>2026-04-03T07:58:38Z</time></trkpt><trkpt lat="39.34821194972079" lon="9.4525453844863"><ele>140.0</ele><time>2026-04-03T07:58:39Z</time></trkpt><trkpt lat="39.34827419000846" lon="9.452662758622163"><ele>140.0</ele><time>2026-04-03T07:58:40Z</time></trkpt><trkpt lat="39.3483516419566" lon="9.452789966172157"><ele>140.0</ele><time>2026-04-03T07:58:41Z</time></trkpt><trkpt lat="39.34834840850334" lon="9.452926507042227"><ele>140.0</ele><time>2026-04-03T07:58:42Z</time></trkpt><trkpt lat="39.348288565518054" lon="9.453056409596593"><ele>140.0</ele><time>2026-04-03T07:58:43Z</time></trkpt><trkpt lat="39.348214435736985" lon="9.453173395026491"><ele>140.25</ele><time>2026-04-03T07:58:44Z</time></trkpt><trkpt lat="39.34814087076797" lon="9.453294187081683"><ele>140.5</ele><time>2026-04-03T07:58:45Z</time></trkpt><trkpt lat="39.34806284274942" lon="9.453421039502445"><ele>140.75</ele><time>2026-04-03T07:58:46Z</time></trkpt><trkpt lat="39.34798085658541" lon="9.453547650261765"><ele>141.0</ele><time>2026-04-03T07:58:47Z</time></trkpt><trkpt lat="39.34791436638047" lon="9.453688505533345"><ele>139.5</ele><time>2026-04-03T07:58:48Z</time></trkpt><trkpt lat="39.34788968911868" lon="9.453855459959819"><ele>138.0</ele><time>2026-04-03T07:58:49Z</time></trkpt><trkpt lat="39.34789783889525" lon="9.454019111596887"><ele>136.5</ele><time>2026-04-03T07:58:50Z</time></trkpt><trkpt lat="39.34794933706381" lon="9.454203247033764"><ele>135.0</ele><time>2026-04-03T07:58:51Z</time></trkpt><trkpt lat="39.34800339795879" lon="9.454379901253938"><ele>134.25</ele><time>2026-04-03T07:58:52Z</time></trkpt><trkpt lat="39.34805305250845" lon="9.454551975404089"><ele>133.5</ele><time>2026-04-03T07:58:53Z</time></trkpt><trkpt lat="39.3481083275413" lon="9.454710014783906"><ele>132.75</ele><time>2026-04-03T07:58:54Z</time></trkpt><trkpt lat="39.348204011110184" lon="9.454827523634883"><ele>132.0</ele><time>2026-04-03T07:58:55Z</time></trkpt><trkpt lat="39.348333432386184" lon="9.454896589700395"><ele>132.0</ele><time>2026-04-03T07:58:56Z</time></trkpt><trkpt lat="39.34846981201549" lon="9.454964948191323"><ele>132.0</ele><time>2026-04-03T07:58:57Z</time></trkpt><trkpt lat="39.348602694086686" lon="9.455058072699098"><ele>132.0</ele><time>2026-04-03T07:58:58Z</time></trkpt><trkpt lat="39.34872452766104" lon="9.455185384772284"><ele>132.0</ele><time>2026-04-03T07:58:59Z</time></trkpt><trkpt lat="39.34882784107696" lon="9.455337723966972"><ele>132.0</ele><time>2026-04-03T07:59:00Z</time></trkpt><trkpt lat="39.34891601650903" lon="9.455501889042921"><ele>132.0</ele><time>2026-04-03T07:59:01Z</time></trkpt><trkpt lat="39.34900016727175" lon="9.455669529374024"><ele>136.0</ele><time>2026-04-03T07:59:02Z</time></trkpt><trkpt lat="39.34909306033046" lon="9.455838335961417"><ele>140.0</ele><time>2026-04-03T07:59:03Z</time></trkpt><trkpt lat="39.349202518676485" lon="9.456002844008184"><ele>144.0</ele><time>2026-04-03T07:59:04Z</time></trkpt><trkpt lat="39.349294111730984" lon="9.456173071448747"><ele>136.66666666666666</ele><time>2026-04-03T07:59:05Z</time></trkpt><trkpt lat="39.34938780277893" lon="9.4563422366551"><ele>129.33333333333331</ele><time>2026-04-03T07:59:06Z</time></trkpt><trkpt lat="39.349505365437004" lon="9.45650432640386"><ele>122.0</ele><time>2026-04-03T07:59:07Z</time></trkpt><trkpt lat="39.34963528552848" lon="9.456639262531793"><ele>129.33333333333331</ele><time>2026-04-03T07:59:08Z</time></trkpt><trkpt lat="39.34976287924472" lon="9.456769407612533"><ele>136.66666666666666</ele><time>2026-04-03T07:59:09Z</time></trkpt><trkpt lat="39.349861106637846" lon="9.45692792392149"><ele>144.0</ele><time>2026-04-03T07:59:10Z</time></trkpt><trkpt lat="39.34992517223648" lon="9.457121117980174"><ele>144.0</ele><time>2026-04-03T07:59:11Z</time></trkpt><trkpt lat="39.34996193330025" lon="9.457311753551778"><ele>144.0</ele><time>2026-04-03T07:59:12Z</time></trkpt><trkpt lat="39.34996236674981" lon="9.457499009656939"><ele>144.0</ele><time>2026-04-03T07:59:13Z</time></trkpt><trkpt lat="39.34992738280508" lon="9.457677974222321"><ele>144.0</ele><time>2026-04-03T07:59:14Z</time></trkpt><trkpt lat="39.34986249954598" lon="9.457872184507389"><ele>148.0</ele><time>2026-04-03T07:59:15Z</time></trkpt><trkpt lat="39.34980961564921" lon="9.45806525734222"><ele>152.0</ele><time>2026-04-03T07:59:16Z</time></trkpt><trkpt lat="39.34974982727585" lon="9.458261150906926"><ele>156.0</ele><time>2026-04-03T07:59:17Z</time></trkpt><trkpt lat="39.34969457351244" lon="9.458465008316818"><ele>147.0</ele><time>2026-04-03T07:59:18Z</time></trkpt><trkpt lat="39.34962990600611" lon="9.458659979620647"><ele>138.0</ele><time>2026-04-03T07:59:19Z</time></trkpt><trkpt lat="39.349539895765474" lon="9.458848197723489"><ele>129.0</ele><time>2026-04-03T07:59:20Z</time></trkpt><trkpt lat="39.34944278616904" lon="9.459029772110998"><ele>129.0</ele><time>2026-04-03T07:59:21Z</time></trkpt><trkpt lat="39.349360155185394" lon="9.459222711633885"><ele>129.0</ele><time>2026-04-03T07:59:22Z</time></trkpt><trkpt lat="39.34931192841485" lon="9.459429420564335"><ele>129.0</ele><time>2026-04-03T07:59:23Z</time></trkpt><trkpt lat="39.349306764991034" lon="9.459647327497391"><ele>129.0</ele><time>2026-04-03T07:59:24Z</time></trkpt><trkpt lat="39.34933317240389" lon="9.459866942194552"><ele>129.0</ele><time>2026-04-03T07:59:25Z</time></trkpt><trkpt lat="39.34935089911448" lon="9.460085383242896"><ele>129.0</ele><time>2026-04-03T07:59:26Z</time></trkpt><trkpt lat="39.349327180154546" lon="9.460300451481919"><ele>126.66666666666666</ele><time>2026-04-03T07:59:27Z</time></trkpt><trkpt lat="39.34937072564824" lon="9.460505629723404"><ele>124.33333333333333</ele><time>2026-04-03T07:59:28Z</time></trkpt><trkpt lat="39.349430624017955" lon="9.460715853021803"><ele>122.0</ele><time>2026-04-03T07:59:29Z</time></trkpt><trkpt lat="39.34948671385429" lon="9.460873274021589"><ele>122.0</ele><time>2026-04-03T07:59:30Z</time></trkpt><trkpt lat="39.349570299341295" lon="9.461030354197275"><ele>122.0</ele><time>2026-04-03T07:59:31Z</time></trkpt><trkpt lat="39.34970060598025" lon="9.461101495267592"><ele>122.0</ele><time>2026-04-03T07:59:32Z</time></trkpt><trkpt lat="39.34981743004183" lon="9.461168562140001"><ele>122.0</ele><time>2026-04-03T07:59:33Z</time></trkpt><trkpt lat="39.34998188052859" lon="9.461257425977406"><ele>124.33333333333333</ele><time>2026-04-03T07:59:34Z</time></trkpt><trkpt lat="39.35011341502071" lon="9.46134555178117"><ele>126.66666666666666</ele><time>2026-04-03T07:59:35Z</time></trkpt><trkpt lat="39.35023886430608" lon="9.461449803128177"><ele>129.0</ele><time>2026-04-03T07:59:36Z</time></trkpt><trkpt lat="39.35034901808953" lon="9.461591990170888"><ele>129.0</ele><time>2026-04-03T07:59:37Z</time></trkpt><trkpt lat="39.350420801527974" lon="9.461765857455395"><ele>129.0</ele><time>2026-04-03T07:59:38Z</time></trkpt><trkpt lat="39.350464347144396" lon="9.461965789546127"><ele>129.0</ele><time>2026-04-03T07:59:38.999Z</time></trkpt><trkpt lat="39.35050031610061" lon="9.46215940904184"><ele>125.0</ele><time>2026-04-03T07:59:39.999Z</time></trkpt><trkpt lat="39.350536135368735" lon="9.462352865732516"><ele>121.0</ele><time>2026-04-03T07:59:40.999Z</time></trkpt><trkpt lat="39.35058846205092" lon="9.462530515377116"><ele>117.0</ele><time>2026-04-03T07:59:41.999Z</time></trkpt><trkpt lat="39.35066148915529" lon="9.462687285975841"><ele>113.0</ele><time>2026-04-03T07:59:42.999Z</time></trkpt><trkpt lat="39.35074144600715" lon="9.462823175137128"><ele>122.25</ele><time>2026-04-03T07:59:43.999Z</time></trkpt><trkpt lat="39.35081160859128" lon="9.462959829550643"><ele>131.5</ele><time>2026-04-03T07:59:44.999Z</time></trkpt><trkpt lat="39.350822306772066" lon="9.463129719155516"><ele>140.75</ele><time>2026-04-03T07:59:45.999Z</time></trkpt><trkpt lat="39.350772923196374" lon="9.463298509002065"><ele>150.0</ele><time>2026-04-03T07:59:46.999Z</time></trkpt><trkpt lat="39.35069578729013" lon="9.463456183078744"><ele>150.0</ele><time>2026-04-03T07:59:47.999Z</time></trkpt><trkpt lat="39.35062911980878" lon="9.46362406622886"><ele>150.0</ele><time>2026-04-03T07:59:48.999Z</time></trkpt><trkpt lat="39.35058086704534" lon="9.463814189097882"><ele>150.0</ele><time>2026-04-03T07:59:49.999Z</time></trkpt><trkpt lat="39.35054242979614" lon="9.464017454234986"><ele>142.66666666666666</ele><time>2026-04-03T07:59:50.999Z</time></trkpt><trkpt lat="39.35051175216882" lon="9.464226111279077"><ele>135.33333333333331</ele><time>2026-04-03T07:59:51.999Z</time></trkpt><trkpt lat="39.350485211977094" lon="9.464428802829238"><ele>128.0</ele><time>2026-04-03T07:59:52.999Z</time></trkpt><trkpt lat="39.35044503503568" lon="9.464619139049967"><ele>128.0</ele><time>2026-04-03T07:59:53.999Z</time></trkpt><trkpt lat="39.35036837710977" lon="9.464795617455776"><ele>128.0</ele><time>2026-04-03T07:59:54.999Z</time></trkpt><trkpt lat="39.35025656871121" lon="9.46494725120408"><ele>128.0</ele><time>2026-04-03T07:59:55.999Z</time></trkpt><trkpt lat="39.35010941593452" lon="9.465050191556301"><ele>128.0</ele><time>2026-04-03T07:59:56.999Z</time></trkpt><trkpt lat="39.34994930318733" lon="9.465114601245261"><ele>128.0</ele><time>2026-04-03T07:59:57.999Z</time></trkpt><trkpt lat="39.34980182015654" lon="9.465183598804856"><ele>128.0</ele><time>2026-04-03T07:59:58.999Z</time></trkpt><trkpt lat="39.34966883912037" lon="9.465263244420177"><ele>129.4</ele><time>2026-04-03T07:59:59.999Z</time></trkpt><trkpt lat="39.349558324905495" lon="9.465343392145876"><ele>130.8</ele><time>2026-04-03T08:00:00.999Z</time></trkpt><trkpt lat="39.34947291449478" lon="9.465399925785421"><ele>132.2</ele><time>2026-04-03T08:00:01.999Z</time></trkpt><trkpt lat="39.349402266072474" lon="9.46544629641178"><ele>133.6</ele><time>2026-04-03T08:00:02.999Z</time></trkpt><trkpt lat="39.34933485900362" lon="9.465487608588058"><ele>135.0</ele><time>2026-04-03T08:00:03.999Z</time></trkpt><trkpt lat="39.34926875914212" lon="9.4655309016522"><ele>135.0</ele><time>2026-04-03T08:00:04.999Z</time></trkpt><trkpt lat="39.3491883502247" lon="9.465582048540249"><ele>135.0</ele><time>2026-04-03T08:00:05.999Z</time></trkpt><trkpt lat="39.34909997306449" lon="9.465651024678406"><ele>135.0</ele><time>2026-04-03T08:00:06.999Z</time></trkpt><trkpt lat="39.34900696193661" lon="9.465749120926654"><ele>135.0</ele><time>2026-04-03T08:00:07.999Z</time></trkpt><trkpt lat="39.34891918322293" lon="9.465860733057406"><ele>135.0</ele><time>2026-04-03T08:00:08.999Z</time></trkpt><trkpt lat="39.34882912866128" lon="9.46597549524962"><ele>138.0</ele><time>2026-04-03T08:00:09.999Z</time></trkpt><trkpt lat="39.348723402801674" lon="9.4660757950428"><ele>141.0</ele><time>2026-04-03T08:00:10.999Z</time></trkpt><trkpt lat="39.348598456583986" lon="9.466156163690814"><ele>144.0</ele><time>2026-04-03T08:00:11.999Z</time></trkpt><trkpt lat="39.34846535865586" lon="9.466228306345904"><ele>147.0</ele><time>2026-04-03T08:00:12.999Z</time></trkpt><trkpt lat="39.34833246925658" lon="9.466303142344572"><ele>147.0</ele><time>2026-04-03T08:00:14Z</time></trkpt><trkpt lat="39.34820139640232" lon="9.466388960730242"><ele>147.0</ele><time>2026-04-03T08:00:15Z</time></trkpt><trkpt lat="39.34807546819185" lon="9.466466318986615"><ele>147.0</ele><time>2026-04-03T08:00:16Z</time></trkpt><trkpt lat="39.347950985721454" lon="9.466497412287868"><ele>147.0</ele><time>2026-04-03T08:00:17Z</time></trkpt><trkpt lat="39.34781959194556" lon="9.466454534179237"><ele>148.5</ele><time>2026-04-03T08:00:18Z</time></trkpt><trkpt lat="39.34769135027475" lon="9.466367199211266"><ele>150.0</ele><time>2026-04-03T08:00:19Z</time></trkpt><trkpt lat="39.34758822193538" lon="9.466244434849484"><ele>151.5</ele><time>2026-04-03T08:00:20Z</time></trkpt><trkpt lat="39.347521186188786" lon="9.46607475096298"><ele>153.0</ele><time>2026-04-03T08:00:21Z</time></trkpt><trkpt lat="39.347475331300686" lon="9.46590613620508"><ele>150.25</ele><time>2026-04-03T08:00:22Z</time></trkpt><trkpt lat="39.347396502619844" lon="9.465774889448975"><ele>147.5</ele><time>2026-04-03T08:00:23Z</time></trkpt><trkpt lat="39.347273129601234" lon="9.465708243012589"><ele>144.75</ele><time>2026-04-03T08:00:24Z</time></trkpt><trkpt lat="39.3471304639338" lon="9.465685118542872"><ele>142.0</ele><time>2026-04-03T08:00:25Z</time></trkpt><trkpt lat="39.34698381076034" lon="9.465693454263235"><ele>142.0</ele><time>2026-04-03T08:00:26Z</time></trkpt><trkpt lat="39.346839340580765" lon="9.465669498475815"><ele>142.0</ele><time>2026-04-03T08:00:27Z</time></trkpt><trkpt lat="39.34669816234147" lon="9.46560452218097"><ele>142.0</ele><time>2026-04-03T08:00:28Z</time></trkpt><trkpt lat="39.346559269031275" lon="9.465520567770287"><ele>142.0</ele><time>2026-04-03T08:00:29Z</time></trkpt><trkpt lat="39.34642394428444" lon="9.465434049618436"><ele>140.0</ele><time>2026-04-03T08:00:30Z</time></trkpt><trkpt lat="39.34630416116091" lon="9.465339766370873"><ele>138.0</ele><time>2026-04-03T08:00:31Z</time></trkpt><trkpt lat="39.34621355000906" lon="9.465208354463373"><ele>136.0</ele><time>2026-04-03T08:00:32Z</time></trkpt><trkpt lat="39.346149363006525" lon="9.465061690063601"><ele>134.0</ele><time>2026-04-03T08:00:33Z</time></trkpt><trkpt lat="39.34611521402338" lon="9.464898755928164"><ele>134.0</ele><time>2026-04-03T08:00:34Z</time></trkpt><trkpt lat="39.34611566104293" lon="9.464742532253988"><ele>134.0</ele><time>2026-04-03T08:00:35Z</time></trkpt><trkpt lat="39.346076851905615" lon="9.464601711627788"><ele>134.0</ele><time>2026-04-03T08:00:36Z</time></trkpt><trkpt lat="39.34599909632554" lon="9.464504762627028"><ele>134.0</ele><time>2026-04-03T08:00:37Z</time></trkpt><trkpt lat="39.345881207236985" lon="9.464464624677923"><ele>134.0</ele><time>2026-04-03T08:00:38Z</time></trkpt><trkpt lat="39.34575754640979" lon="9.464502693747502"><ele>134.0</ele><time>2026-04-03T08:00:39Z</time></trkpt><trkpt lat="39.34565092536431" lon="9.464617183948276"><ele>134.0</ele><time>2026-04-03T08:00:40Z</time></trkpt><trkpt lat="39.345578640101756" lon="9.464761606014545"><ele>134.0</ele><time>2026-04-03T08:00:41Z</time></trkpt><trkpt lat="39.34550099936738" lon="9.464898185577386"><ele>127.5</ele><time>2026-04-03T08:00:42Z</time></trkpt><trkpt lat="39.34541766520844" lon="9.46503503472886"><ele>121.0</ele><time>2026-04-03T08:00:43Z</time></trkpt><trkpt lat="39.345336300387764" lon="9.465159159661127"><ele>114.5</ele><time>2026-04-03T08:00:44Z</time></trkpt><trkpt lat="39.34527884086011" lon="9.465289561188714"><ele>108.0</ele><time>2026-04-03T08:00:45Z</time></trkpt><trkpt lat="39.34527042170923" lon="9.465430498237577"><ele>106.0</ele><time>2026-04-03T08:00:46Z</time></trkpt><trkpt lat="39.34532873601096" lon="9.465564501924183"><ele>104.0</ele><time>2026-04-03T08:00:47Z</time></trkpt><trkpt lat="39.34542027697543" lon="9.465678193981391"><ele>102.0</ele><time>2026-04-03T08:00:48Z</time></trkpt><trkpt lat="39.345511498773305" lon="9.465780885714086"><ele>100.0</ele><time>2026-04-03T08:00:49Z</time></trkpt><trkpt lat="39.345592479792586" lon="9.465902426012438"><ele>108.75</ele><time>2026-04-03T08:00:50Z</time></trkpt><trkpt lat="39.345661420419866" lon="9.466045220259614"><ele>117.5</ele><time>2026-04-03T08:00:51Z</time></trkpt><trkpt lat="39.34571281404273" lon="9.466208347564711"><ele>126.25</ele><time>2026-04-03T08:00:52Z</time></trkpt><trkpt lat="39.345733474890146" lon="9.466391252987297"><ele>135.0</ele><time>2026-04-03T08:00:53Z</time></trkpt><trkpt lat="39.34573221156043" lon="9.46658950084855"><ele>135.0</ele><time>2026-04-03T08:00:54Z</time></trkpt><trkpt lat="39.34572772569268" lon="9.466777652946224"><ele>135.0</ele><time>2026-04-03T08:00:55Z</time></trkpt><trkpt lat="39.345739185610675" lon="9.466957286114866"><ele>135.0</ele><time>2026-04-03T08:00:56Z</time></trkpt><trkpt lat="39.345787420327945" lon="9.467117491206164"><ele>135.0</ele><time>2026-04-03T08:00:57Z</time></trkpt><trkpt lat="39.34586974937302" lon="9.467245924442746"><ele>132.25</ele><time>2026-04-03T08:00:58Z</time></trkpt><trkpt lat="39.345958705026725" lon="9.467374582347595"><ele>129.5</ele><time>2026-04-03T08:00:59Z</time></trkpt><trkpt lat="39.34599805027087" lon="9.46752405610867"><ele>126.75</ele><time>2026-04-03T08:01:00Z</time></trkpt><trkpt lat="39.345984662184485" lon="9.467687704798553"><ele>124.0</ele><time>2026-04-03T08:01:01Z</time></trkpt><trkpt lat="39.34592079195217" lon="9.46783155236539"><ele>124.0</ele><time>2026-04-03T08:01:02Z</time></trkpt><trkpt lat="39.345814919089825" lon="9.46793308808568"><ele>124.0</ele><time>2026-04-03T08:01:03Z</time></trkpt><trkpt lat="39.34569135783166" lon="9.46800972631248"><ele>124.0</ele><time>2026-04-03T08:01:04Z</time></trkpt><trkpt lat="39.34557546991307" lon="9.46811030831941"><ele>124.0</ele><time>2026-04-03T08:01:05Z</time></trkpt><trkpt lat="39.34546080869487" lon="9.468217351816005"><ele>118.75</ele><time>2026-04-03T08:01:06Z</time></trkpt><trkpt lat="39.34534579246894" lon="9.468331415462501"><ele>113.5</ele><time>2026-04-03T08:01:07Z</time></trkpt><trkpt lat="39.34523482403829" lon="9.468464127808303"><ele>108.25</ele><time>2026-04-03T08:01:08Z</time></trkpt><trkpt lat="39.3451466515767" lon="9.468621683555845"><ele>103.0</ele><time>2026-04-03T08:01:09Z</time></trkpt><trkpt lat="39.345095657488145" lon="9.468801464026392"><ele>103.0</ele><time>2026-04-03T08:01:10Z</time></trkpt><trkpt lat="39.34507038882242" lon="9.468974209478386"><ele>103.0</ele><time>2026-04-03T08:01:11Z</time></trkpt><trkpt lat="39.34510035743159" lon="9.469136358779092"><ele>103.0</ele><time>2026-04-03T08:01:12Z</time></trkpt><trkpt lat="39.34519176624366" lon="9.469257963868785"><ele>103.0</ele><time>2026-04-03T08:01:13Z</time></trkpt><trkpt lat="39.34532792255611" lon="9.4693254922904"><ele>103.0</ele><time>2026-04-03T08:01:14Z</time></trkpt><trkpt lat="39.34546604353857" lon="9.469382456963027"><ele>103.0</ele><time>2026-04-03T08:01:15Z</time></trkpt><trkpt lat="39.34559581044639" lon="9.46945998162349"><ele>103.0</ele><time>2026-04-03T08:01:16Z</time></trkpt><trkpt lat="39.34572087288979" lon="9.46954963967002"><ele>103.0</ele><time>2026-04-03T08:01:17Z</time></trkpt><trkpt lat="39.34584993971775" lon="9.469631143892865"><ele>104.75</ele><time>2026-04-03T08:01:18Z</time></trkpt><trkpt lat="39.345959721409315" lon="9.469745842985208"><ele>106.5</ele><time>2026-04-03T08:01:19Z</time></trkpt><trkpt lat="39.34604403220242" lon="9.469905110278923"><ele>108.25</ele><time>2026-04-03T08:01:20Z</time></trkpt><trkpt lat="39.346114397419555" lon="9.470087193167608"><ele>110.0</ele><time>2026-04-03T08:01:21Z</time></trkpt><trkpt lat="39.34618252723523" lon="9.470276288862726"><ele>116.0</ele><time>2026-04-03T08:01:22Z</time></trkpt><trkpt lat="39.34625232301429" lon="9.47045930851682"><ele>122.0</ele><time>2026-04-03T08:01:23Z</time></trkpt><trkpt lat="39.3463250073857" lon="9.47064409265141"><ele>128.0</ele><time>2026-04-03T08:01:24Z</time></trkpt><trkpt lat="39.346395400878855" lon="9.470826189569172"><ele>128.0</ele><time>2026-04-03T08:01:25Z</time></trkpt><trkpt lat="39.34645134080984" lon="9.471011001311485"><ele>128.0</ele><time>2026-04-03T08:01:26Z</time></trkpt><trkpt lat="39.34647342679557" lon="9.47120006327163"><ele>128.0</ele><time>2026-04-03T08:01:27Z</time></trkpt><trkpt lat="39.346463507225245" lon="9.471396965031659"><ele>125.25</ele><time>2026-04-03T08:01:28Z</time></trkpt><trkpt lat="39.34645062068051" lon="9.471589488701781"><ele>122.5</ele><time>2026-04-03T08:01:29Z</time></trkpt><trkpt lat="39.34645365155223" lon="9.47178122997582"><ele>119.75</ele><time>2026-04-03T08:01:30Z</time></trkpt><trkpt lat="39.346449086525695" lon="9.47197413793851"><ele>117.0</ele><time>2026-04-03T08:01:31Z</time></trkpt><trkpt lat="39.346414519504044" lon="9.472163212268887"><ele>109.0</ele><time>2026-04-03T08:01:32Z</time></trkpt><trkpt lat="39.34635328668197" lon="9.47234372111774"><ele>101.0</ele><time>2026-04-03T08:01:33Z</time></trkpt><trkpt lat="39.34629448326721" lon="9.4725235870534"><ele>93.0</ele><time>2026-04-03T08:01:34Z</time></trkpt><trkpt lat="39.34624615501683" lon="9.472687589832335"><ele>85.0</ele><time>2026-04-03T08:01:35Z</time></trkpt><trkpt lat="39.34622468675691" lon="9.472836808246585"><ele>86.75</ele><time>2026-04-03T08:01:36Z</time></trkpt><trkpt lat="39.34625708501665" lon="9.472984022668939"><ele>88.5</ele><time>2026-04-03T08:01:37Z</time></trkpt><trkpt lat="39.34636493750582" lon="9.47310930046628"><ele>90.25</ele><time>2026-04-03T08:01:38Z</time></trkpt><trkpt lat="39.34648295698058" lon="9.473209049126286"><ele>92.0</ele><time>2026-04-03T08:01:39Z</time></trkpt><trkpt lat="39.346596331279734" lon="9.473331590006262"><ele>92.0</ele><time>2026-04-03T08:01:40Z</time></trkpt><trkpt lat="39.346710824055606" lon="9.473460136187915"><ele>92.0</ele><time>2026-04-03T08:01:40.999Z</time></trkpt><trkpt lat="39.346827926224705" lon="9.473572448452295"><ele>92.0</ele><time>2026-04-03T08:01:41.999Z</time></trkpt><trkpt lat="39.34695443817955" lon="9.473660475860084"><ele>92.0</ele><time>2026-04-03T08:01:42.999Z</time></trkpt><trkpt lat="39.347094561001725" lon="9.473705749306303"><ele>96.66666666666667</ele><time>2026-04-03T08:01:43.999Z</time></trkpt><trkpt lat="39.34725440839589" lon="9.473694783489357"><ele>101.33333333333334</ele><time>2026-04-03T08:01:44.999Z</time></trkpt><trkpt lat="39.34741129513201" lon="9.473680461063047"><ele>106.0</ele><time>2026-04-03T08:01:45.999Z</time></trkpt><trkpt lat="39.3475745488196" lon="9.473653659642158"><ele>106.0</ele><time>2026-04-03T08:01:46.999Z</time></trkpt><trkpt lat="39.347732689310824" lon="9.473626413223036"><ele>106.0</ele><time>2026-04-03T08:01:47.999Z</time></trkpt><trkpt lat="39.3478906824044" lon="9.473606378730997"><ele>106.0</ele><time>2026-04-03T08:01:48.999Z</time></trkpt><trkpt lat="39.348043441465926" lon="9.473586504003642"><ele>104.66666666666667</ele><time>2026-04-03T08:01:49.999Z</time></trkpt><trkpt lat="39.348195163756856" lon="9.473575512504256"><ele>103.33333333333334</ele><time>2026-04-03T08:01:50.999Z</time></trkpt><trkpt lat="39.34834411959945" lon="9.473602120741011"><ele>102.0</ele><time>2026-04-03T08:01:51.999Z</time></trkpt><trkpt lat="39.34847932141284" lon="9.473689119193956"><ele>90.33333333333333</ele><time>2026-04-03T08:01:52.999Z</time></trkpt><trkpt lat="39.348589114228716" lon="9.473818792387899"><ele>78.66666666666666</ele><time>2026-04-03T08:01:53.999Z</time></trkpt><trkpt lat="39.34870346877764" lon="9.473946375613256"><ele>67.0</ele><time>2026-04-03T08:01:54.999Z</time></trkpt><trkpt lat="39.34883645569853" lon="9.474051586239892"><ele>72.66666666666666</ele><time>2026-04-03T08:01:55.999Z</time></trkpt><trkpt lat="39.34899126614454" lon="9.47412970316319"><ele>78.33333333333333</ele><time>2026-04-03T08:01:56.999Z</time></trkpt><trkpt lat="39.34914556905313" lon="9.474219982393421"><ele>84.0</ele><time>2026-04-03T08:01:57.999Z</time></trkpt><trkpt lat="39.349291741642574" lon="9.474318760076011"><ele>84.0</ele><time>2026-04-03T08:01:58.999Z</time></trkpt><trkpt lat="39.34943468778059" lon="9.474416580685507"><ele>84.0</ele><time>2026-04-03T08:01:59.999Z</time></trkpt><trkpt lat="39.34957295370858" lon="9.47450504930151"><ele>84.0</ele><time>2026-04-03T08:02:00.999Z</time></trkpt><trkpt lat="39.34970174987143" lon="9.474588080844287"><ele>81.0</ele><time>2026-04-03T08:02:01.999Z</time></trkpt><trkpt lat="39.34980787001538" lon="9.474713717509095"><ele>78.0</ele><time>2026-04-03T08:02:02.999Z</time></trkpt><trkpt lat="39.34988185177021" lon="9.47487974268287"><ele>75.0</ele><time>2026-04-03T08:02:03.999Z</time></trkpt><trkpt lat="39.34994759800568" lon="9.47505356310362"><ele>72.0</ele><time>2026-04-03T08:02:04.999Z</time></trkpt><trkpt lat="39.35003104594684" lon="9.47522226406431"><ele>72.0</ele><time>2026-04-03T08:02:05.999Z</time></trkpt><trkpt lat="39.35013002694908" lon="9.475394547948634"><ele>72.0</ele><time>2026-04-03T08:02:06.999Z</time></trkpt><trkpt lat="39.35023186616247" lon="9.475568759606587"><ele>72.0</ele><time>2026-04-03T08:02:07.999Z</time></trkpt><trkpt lat="39.35033848937257" lon="9.475739296094092"><ele>68.66666666666667</ele><time>2026-04-03T08:02:08.999Z</time></trkpt><trkpt lat="39.35046825525831" lon="9.475882979616406"><ele>65.33333333333334</ele><time>2026-04-03T08:02:09.999Z</time></trkpt><trkpt lat="39.35061656618204" lon="9.475999427311711"><ele>62.0</ele><time>2026-04-03T08:02:10.999Z</time></trkpt><trkpt lat="39.350773236311994" lon="9.476111422858082"><ele>62.0</ele><time>2026-04-03T08:02:11.999Z</time></trkpt><trkpt lat="39.35092665078993" lon="9.47622098616778"><ele>62.0</ele><time>2026-04-03T08:02:12.999Z</time></trkpt><trkpt lat="39.35107970642228" lon="9.476333712592202"><ele>62.0</ele><time>2026-04-03T08:02:13.999Z</time></trkpt><trkpt lat="39.35123020307726" lon="9.476442939975836"><ele>60.66666666666667</ele><time>2026-04-03T08:02:14.999Z</time></trkpt><trkpt lat="39.351377063035784" lon="9.476549105058773"><ele>59.33333333333333</ele><time>2026-04-03T08:02:15.999Z</time></trkpt><trkpt lat="39.351523055700255" lon="9.476653483372784"><ele>58.0</ele><time>2026-04-03T08:02:16.999Z</time></trkpt><trkpt lat="39.35166983010364" lon="9.476753563745143"><ele>58.0</ele><time>2026-04-03T08:02:17.999Z</time></trkpt><trkpt lat="39.35181457488881" lon="9.476853773952325"><ele>58.0</ele><time>2026-04-03T08:02:18.999Z</time></trkpt><trkpt lat="39.35195067945538" lon="9.476967053219061"><ele>58.0</ele><time>2026-04-03T08:02:20Z</time></trkpt><trkpt lat="39.35206761207406" lon="9.477113104786945"><ele>55.666666666666664</ele><time>2026-04-03T08:02:21Z</time></trkpt><trkpt lat="39.352153246454776" lon="9.477288078155148"><ele>53.33333333333333</ele><time>2026-04-03T08:02:22Z</time></trkpt><trkpt lat="39.352205018104186" lon="9.47750095003624"><ele>51.0</ele><time>2026-04-03T08:02:23Z</time></trkpt><trkpt lat="39.35220849935144" lon="9.477712252769006"><ele>57.66666666666667</ele><time>2026-04-03T08:02:24Z</time></trkpt><trkpt lat="39.35217856943605" lon="9.477913445659999"><ele>64.33333333333334</ele><time>2026-04-03T08:02:25Z</time></trkpt><trkpt lat="39.352117549721264" lon="9.478100450786819"><ele>71.0</ele><time>2026-04-03T08:02:26Z</time></trkpt><trkpt lat="39.35202447655219" lon="9.478281031399654"><ele>71.66666666666667</ele><time>2026-04-03T08:02:27Z</time></trkpt><trkpt lat="39.35192208841192" lon="9.478458879553155"><ele>72.33333333333333</ele><time>2026-04-03T08:02:28Z</time></trkpt><trkpt lat="39.35182754600846" lon="9.478646199071175"><ele>73.0</ele><time>2026-04-03T08:02:29Z</time></trkpt><trkpt lat="39.35173307889262" lon="9.478838675932954"><ele>68.66666666666666</ele><time>2026-04-03T08:02:30Z</time></trkpt><trkpt lat="39.351645314250426" lon="9.479032873861751"><ele>64.33333333333333</ele><time>2026-04-03T08:02:31Z</time></trkpt><trkpt lat="39.3515551551861" lon="9.479226356758629"><ele>60.0</ele><time>2026-04-03T08:02:32Z</time></trkpt><trkpt lat="39.351456708865996" lon="9.47942183810554"><ele>63.33333333333333</ele><time>2026-04-03T08:02:33Z</time></trkpt><trkpt lat="39.35136171714756" lon="9.479625990561642"><ele>66.66666666666666</ele><time>2026-04-03T08:02:34Z</time></trkpt><trkpt lat="39.351266596319746" lon="9.47983140278316"><ele>70.0</ele><time>2026-04-03T08:02:35Z</time></trkpt><trkpt lat="39.35117425458657" lon="9.480036387145722"><ele>70.0</ele><time>2026-04-03T08:02:36Z</time></trkpt><trkpt lat="39.35107705086213" lon="9.480241133918431"><ele>70.0</ele><time>2026-04-03T08:02:37Z</time></trkpt><trkpt lat="39.35098217831973" lon="9.480447684367638"><ele>70.0</ele><time>2026-04-03T08:02:38Z</time></trkpt><trkpt lat="39.35089676187473" lon="9.480659541225732"><ele>66.0</ele><time>2026-04-03T08:02:39Z</time></trkpt><trkpt lat="39.350821703746476" lon="9.480881382581686"><ele>62.0</ele><time>2026-04-03T08:02:40Z</time></trkpt><trkpt lat="39.35075264383507" lon="9.481105838876163"><ele>58.0</ele><time>2026-04-03T08:02:41Z</time></trkpt><trkpt lat="39.35068447815678" lon="9.481335958004948"><ele>60.0</ele><time>2026-04-03T08:02:42Z</time></trkpt><trkpt lat="39.350618412443424" lon="9.481570716029367"><ele>62.0</ele><time>2026-04-03T08:02:43Z</time></trkpt><trkpt lat="39.35055384058783" lon="9.481809860190134"><ele>64.0</ele><time>2026-04-03T08:02:44Z</time></trkpt><trkpt lat="39.35048472325713" lon="9.48204695908505"><ele>62.33333333333333</ele><time>2026-04-03T08:02:45Z</time></trkpt><trkpt lat="39.35041742615157" lon="9.482284999628504"><ele>60.66666666666667</ele><time>2026-04-03T08:02:46Z</time></trkpt><trkpt lat="39.3503492698404" lon="9.482521243615034"><ele>59.0</ele><time>2026-04-03T08:02:47Z</time></trkpt><trkpt lat="39.35028091645567" lon="9.482758760720788"><ele>57.333333333333336</ele><time>2026-04-03T08:02:48Z</time></trkpt><trkpt lat="39.35021111194365" lon="9.483000996079484"><ele>55.66666666666667</ele><time>2026-04-03T08:02:49Z</time></trkpt><trkpt lat="39.350142429937904" lon="9.483246277115487"><ele>54.0</ele><time>2026-04-03T08:02:50Z</time></trkpt><trkpt lat="39.35007438831902" lon="9.483496228571566"><ele>54.0</ele><time>2026-04-03T08:02:51Z</time></trkpt><trkpt lat="39.35000311748828" lon="9.48374309529915"><ele>54.0</ele><time>2026-04-03T08:02:52Z</time></trkpt><trkpt lat="39.349931786516464" lon="9.483986075649664"><ele>54.0</ele><time>2026-04-03T08:02:53Z</time></trkpt><trkpt lat="39.3498643022467" lon="9.484222923093482"><ele>52.66666666666667</ele><time>2026-04-03T08:02:54Z</time></trkpt><trkpt lat="39.34979918889483" lon="9.484450412381651"><ele>51.333333333333336</ele><time>2026-04-03T08:02:55Z</time></trkpt><trkpt lat="39.34973649440344" lon="9.484672896582808"><ele>50.0</ele><time>2026-04-03T08:02:56Z</time></trkpt><trkpt lat="39.34968118048895" lon="9.484890938209357"><ele>57.0</ele><time>2026-04-03T08:02:57Z</time></trkpt><trkpt lat="39.34964508528007" lon="9.485111478279666"><ele>64.0</ele><time>2026-04-03T08:02:58Z</time></trkpt><trkpt lat="39.3496199566765" lon="9.485326453510773"><ele>71.0</ele><time>2026-04-03T08:02:59Z</time></trkpt><trkpt lat="39.349615551194155" lon="9.485535918778613"><ele>71.0</ele><time>2026-04-03T08:03:00Z</time></trkpt><trkpt lat="39.349627683805984" lon="9.485740254876633"><ele>71.0</ele><time>2026-04-03T08:03:01Z</time></trkpt><trkpt lat="39.34968119631419" lon="9.485927678142536"><ele>71.0</ele><time>2026-04-03T08:03:02Z</time></trkpt><trkpt lat="39.34973809902663" lon="9.486098873887858"><ele>65.0</ele><time>2026-04-03T08:03:03Z</time></trkpt><trkpt lat="39.34980292061481" lon="9.486264715118347"><ele>59.0</ele><time>2026-04-03T08:03:04Z</time></trkpt><trkpt lat="39.34988560262585" lon="9.486396395241943"><ele>53.0</ele><time>2026-04-03T08:03:05Z</time></trkpt><trkpt lat="39.34998236080806" lon="9.486544946447228"><ele>47.0</ele><time>2026-04-03T08:03:06Z</time></trkpt><trkpt lat="39.350109693575156" lon="9.486720786391674"><ele>47.0</ele><time>2026-04-03T08:03:07Z</time></trkpt><trkpt lat="39.35030120793285" lon="9.486923583046426"><ele>47.0</ele><time>2026-04-03T08:03:08Z</time></trkpt><trkpt lat="39.35043234266631" lon="9.487105313499848"><ele>47.0</ele><time>2026-04-03T08:03:09Z</time></trkpt><trkpt lat="39.350566892101995" lon="9.487288648752953"><ele>46.0</ele><time>2026-04-03T08:03:10Z</time></trkpt><trkpt lat="39.350693139871204" lon="9.48747247372809"><ele>45.0</ele><time>2026-04-03T08:03:11Z</time></trkpt><trkpt lat="39.350821589594304" lon="9.4876585606118"><ele>44.0</ele><time>2026-04-03T08:03:12Z</time></trkpt><trkpt lat="39.3509485299302" lon="9.48784724151525"><ele>49.0</ele><time>2026-04-03T08:03:13Z</time></trkpt><trkpt lat="39.35107858193729" lon="9.488039762534111"><ele>54.0</ele><time>2026-04-03T08:03:14Z</time></trkpt><trkpt lat="39.35120829738526" lon="9.488227742236505"><ele>59.0</ele><time>2026-04-03T08:03:15Z</time></trkpt><trkpt lat="39.351341239321265" lon="9.488416290384519"><ele>56.333333333333336</ele><time>2026-04-03T08:03:16Z</time></trkpt><trkpt lat="39.35147436699029" lon="9.488608064400735"><ele>53.66666666666667</ele><time>2026-04-03T08:03:17Z</time></trkpt><trkpt lat="39.35160616651594" lon="9.4887999316473"><ele>51.0</ele><time>2026-04-03T08:03:18Z</time></trkpt><trkpt lat="39.351740207537" lon="9.488991532175497"><ele>51.0</ele><time>2026-04-03T08:03:19Z</time></trkpt><trkpt lat="39.35187254093613" lon="9.489183314690987"><ele>51.0</ele><time>2026-04-03T08:03:20Z</time></trkpt><trkpt lat="39.35200404870255" lon="9.489374232391059"><ele>51.0</ele><time>2026-04-03T08:03:21Z</time></trkpt><trkpt lat="39.35213650212611" lon="9.489571539080774"><ele>47.666666666666664</ele><time>2026-04-03T08:03:22Z</time></trkpt><trkpt lat="39.35227062364068" lon="9.489763173998215"><ele>44.33333333333333</ele><time>2026-04-03T08:03:23Z</time></trkpt><trkpt lat="39.352401210699476" lon="9.489950325799608"><ele>41.0</ele><time>2026-04-03T08:03:24Z</time></trkpt><trkpt lat="39.35252526895681" lon="9.490132727366504"><ele>41.0</ele><time>2026-04-03T08:03:25Z</time></trkpt><trkpt lat="39.35264317376316" lon="9.490308544465721"><ele>41.0</ele><time>2026-04-03T08:03:26Z</time></trkpt><trkpt lat="39.352759879691426" lon="9.49047367048669"><ele>41.0</ele><time>2026-04-03T08:03:27Z</time></trkpt><trkpt lat="39.352870959677176" lon="9.49063443038971"><ele>39.0</ele><time>2026-04-03T08:03:28Z</time></trkpt><trkpt lat="39.35297632893753" lon="9.490792901534432"><ele>37.0</ele><time>2026-04-03T08:03:29Z</time></trkpt><trkpt lat="39.3530721548057" lon="9.490956333305775"><ele>35.0</ele><time>2026-04-03T08:03:30Z</time></trkpt><trkpt lat="39.35315528672565" lon="9.491120451809286"><ele>36.25</ele><time>2026-04-03T08:03:31Z</time></trkpt><trkpt lat="39.35322838646237" lon="9.49128041335078"><ele>37.5</ele><time>2026-04-03T08:03:32Z</time></trkpt><trkpt lat="39.3532917274601" lon="9.491427872533201"><ele>38.75</ele><time>2026-04-03T08:03:33Z</time></trkpt><trkpt lat="39.35336338448658" lon="9.491547791966653"><ele>40.0</ele><time>2026-04-03T08:03:34Z</time></trkpt><trkpt lat="39.35341049415998" lon="9.4916574941942"><ele>40.0</ele><time>2026-04-03T08:03:35Z</time></trkpt><trkpt lat="39.35357748343315" lon="9.491617820545219"><ele>40.0</ele><time>2026-04-03T08:03:35.999Z</time></trkpt><trkpt lat="39.35368160139597" lon="9.49155541342209"><ele>40.0</ele><time>2026-04-03T08:03:36.999Z</time></trkpt><trkpt lat="39.353778215885434" lon="9.491460975876269"><ele>40.0</ele><time>2026-04-03T08:03:37.999Z</time></trkpt><trkpt lat="39.35388507125356" lon="9.491401891704964"><ele>39.5</ele><time>2026-04-03T08:03:38.999Z</time></trkpt><trkpt lat="39.35398325863083" lon="9.491309021398099"><ele>39.0</ele><time>2026-04-03T08:03:39.999Z</time></trkpt><trkpt lat="39.35409735402302" lon="9.491244974581893"><ele>38.5</ele><time>2026-04-03T08:03:40.999Z</time></trkpt><trkpt lat="39.354197021105" lon="9.491169234437328"><ele>38.0</ele><time>2026-04-03T08:03:41.999Z</time></trkpt><trkpt lat="39.35429134138799" lon="9.491120933452333"><ele>38.0</ele><time>2026-04-03T08:03:42.999Z</time></trkpt><trkpt lat="39.354381565613984" lon="9.491126522359721"><ele>38.0</ele><time>2026-04-03T08:03:43.999Z</time></trkpt><trkpt lat="39.35444356956422" lon="9.491199000675115"><ele>38.0</ele><time>2026-04-03T08:03:44.999Z</time></trkpt><trkpt lat="39.354476927492286" lon="9.491309987941502"><ele>38.0</ele><time>2026-04-03T08:03:45.999Z</time></trkpt><trkpt lat="39.354537661585226" lon="9.49143279165168"><ele>38.0</ele><time>2026-04-03T08:03:46.999Z</time></trkpt><trkpt lat="39.354608173069614" lon="9.491560976728833"><ele>37.25</ele><time>2026-04-03T08:03:47.999Z</time></trkpt><trkpt lat="39.3546843885666" lon="9.491699819797219"><ele>36.5</ele><time>2026-04-03T08:03:48.999Z</time></trkpt><trkpt lat="39.35476237624503" lon="9.491842905120281"><ele>35.75</ele><time>2026-04-03T08:03:49.999Z</time></trkpt><trkpt lat="39.35485536514796" lon="9.49199437794903"><ele>35.0</ele><time>2026-04-03T08:03:50.999Z</time></trkpt><trkpt lat="39.35494234521645" lon="9.492159235511796"><ele>35.0</ele><time>2026-04-03T08:03:51.999Z</time></trkpt><trkpt lat="39.35503364900655" lon="9.492330567225538"><ele>35.0</ele><time>2026-04-03T08:03:52.999Z</time></trkpt><trkpt lat="39.355127591849325" lon="9.492507141426936"><ele>35.0</ele><time>2026-04-03T08:03:53.999Z</time></trkpt><trkpt lat="39.35522407917061" lon="9.492690103350784"><ele>35.0</ele><time>2026-04-03T08:03:54.999Z</time></trkpt><trkpt lat="39.355321432620464" lon="9.492875805404115"><ele>35.0</ele><time>2026-04-03T08:03:55.999Z</time></trkpt><trkpt lat="39.35541562100271" lon="9.493060790582613"><ele>35.0</ele><time>2026-04-03T08:03:56.999Z</time></trkpt><trkpt lat="39.35551588896421" lon="9.493248490606723"><ele>35.33333333333333</ele><time>2026-04-03T08:03:57.999Z</time></trkpt><trkpt lat="39.35561687985426" lon="9.493437133613272"><ele>35.666666666666664</ele><time>2026-04-03T08:03:58.999Z</time></trkpt><trkpt lat="39.35571779511054" lon="9.493630293019766"><ele>36.0</ele><time>2026-04-03T08:03:59.999Z</time></trkpt><trkpt lat="39.35581119468903" lon="9.49382182023558"><ele>36.0</ele><time>2026-04-03T08:04:00.999Z</time></trkpt><trkpt lat="39.35593309518226" lon="9.4940121729382"><ele>36.0</ele><time>2026-04-03T08:04:01.999Z</time></trkpt><trkpt lat="39.35604754426071" lon="9.494193498800975"><ele>36.0</ele><time>2026-04-03T08:04:02.999Z</time></trkpt><trkpt lat="39.35617730688686" lon="9.494359071684835"><ele>36.0</ele><time>2026-04-03T08:04:03.999Z</time></trkpt><trkpt lat="39.35631969650386" lon="9.494503374497336"><ele>36.0</ele><time>2026-04-03T08:04:04.999Z</time></trkpt><trkpt lat="39.356499373257996" lon="9.494594985046803"><ele>36.0</ele><time>2026-04-03T08:04:05.999Z</time></trkpt><trkpt lat="39.3566595090461" lon="9.4947066099196"><ele>37.0</ele><time>2026-04-03T08:04:06.999Z</time></trkpt><trkpt lat="39.35681998030026" lon="9.494820152571323"><ele>38.0</ele><time>2026-04-03T08:04:07.999Z</time></trkpt><trkpt lat="39.35697263819591" lon="9.49494557097502"><ele>39.0</ele><time>2026-04-03T08:04:08.999Z</time></trkpt><trkpt lat="39.35712681716423" lon="9.495065512049278"><ele>40.666666666666664</ele><time>2026-04-03T08:04:09.999Z</time></trkpt><trkpt lat="39.35729326320933" lon="9.495163036182598"><ele>42.33333333333333</ele><time>2026-04-03T08:04:10.999Z</time></trkpt><trkpt lat="39.357468938995574" lon="9.495234857602382"><ele>44.0</ele><time>2026-04-03T08:04:11.999Z</time></trkpt><trkpt lat="39.35764490709278" lon="9.495286065840544"><ele>44.0</ele><time>2026-04-03T08:04:12.999Z</time></trkpt><trkpt lat="39.357820736848055" lon="9.495336451316682"><ele>44.0</ele><time>2026-04-03T08:04:13.999Z</time></trkpt><trkpt lat="39.357994432619584" lon="9.495362698198072"><ele>44.0</ele><time>2026-04-03T08:04:14.999Z</time></trkpt><trkpt lat="39.358176399675244" lon="9.4953653869601"><ele>45.666666666666664</ele><time>2026-04-03T08:04:15.999Z</time></trkpt><trkpt lat="39.358354569334516" lon="9.495334599932606"><ele>47.33333333333333</ele><time>2026-04-03T08:04:16.999Z</time></trkpt><trkpt lat="39.35853441629421" lon="9.495286618072882"><ele>49.0</ele><time>2026-04-03T08:04:17.999Z</time></trkpt><trkpt lat="39.35871191935836" lon="9.495223498672294"><ele>47.33333333333333</ele><time>2026-04-03T08:04:18.999Z</time></trkpt><trkpt lat="39.35888558688555" lon="9.495163541250344"><ele>45.666666666666664</ele><time>2026-04-03T08:04:19.999Z</time></trkpt><trkpt lat="39.35906314755179" lon="9.495113826575567"><ele>44.0</ele><time>2026-04-03T08:04:20.999Z</time></trkpt><trkpt lat="39.35923142641362" lon="9.495071294154693"><ele>44.0</ele><time>2026-04-03T08:04:21.999Z</time></trkpt><trkpt lat="39.359388648048814" lon="9.495029459808475"><ele>44.0</ele><time>2026-04-03T08:04:22.999Z</time></trkpt><trkpt lat="39.359539607797835" lon="9.494988972993154"><ele>44.0</ele><time>2026-04-03T08:04:23.999Z</time></trkpt><trkpt lat="39.359681212318165" lon="9.49494470657431"><ele>43.5</ele><time>2026-04-03T08:04:24.999Z</time></trkpt><trkpt lat="39.359814377890146" lon="9.494909181225664"><ele>43.0</ele><time>2026-04-03T08:04:25.999Z</time></trkpt><trkpt lat="39.35993508291559" lon="9.49491566489058"><ele>42.5</ele><time>2026-04-03T08:04:26.999Z</time></trkpt><trkpt lat="39.36004481982659" lon="9.49493150743233"><ele>42.0</ele><time>2026-04-03T08:04:27.999Z</time></trkpt><trkpt lat="39.36012190604834" lon="9.495041235260446"><ele>42.0</ele><time>2026-04-03T08:04:28.999Z</time></trkpt><trkpt lat="39.36015689042118" lon="9.495202863910059"><ele>42.0</ele><time>2026-04-03T08:04:29.999Z</time></trkpt><trkpt lat="39.36022473224433" lon="9.495348349678018"><ele>42.0</ele><time>2026-04-03T08:04:30.999Z</time></trkpt><trkpt lat="39.36028832908295" lon="9.495508939336515"><ele>42.0</ele><time>2026-04-03T08:04:31.999Z</time></trkpt><trkpt lat="39.36035999062669" lon="9.49567895707128"><ele>42.0</ele><time>2026-04-03T08:04:32.999Z</time></trkpt><trkpt lat="39.36044423297225" lon="9.495853607442319"><ele>42.0</ele><time>2026-04-03T08:04:33.999Z</time></trkpt><trkpt lat="39.36050996535892" lon="9.496031463763394"><ele>42.0</ele><time>2026-04-03T08:04:34.999Z</time></trkpt><trkpt lat="39.36056619350448" lon="9.49622833762621"><ele>43.666666666666664</ele><time>2026-04-03T08:04:36Z</time></trkpt><trkpt lat="39.3605868751352" lon="9.496439627287005"><ele>45.33333333333333</ele><time>2026-04-03T08:04:37Z</time></trkpt><trkpt lat="39.3605811689686" lon="9.496662700536264"><ele>47.0</ele><time>2026-04-03T08:04:38Z</time></trkpt><trkpt lat="39.360547980512514" lon="9.496889543010484"><ele>43.666666666666664</ele><time>2026-04-03T08:04:39Z</time></trkpt><trkpt lat="39.360497764094376" lon="9.497107712786296"><ele>40.333333333333336</ele><time>2026-04-03T08:04:40Z</time></trkpt><trkpt lat="39.360455321910585" lon="9.497328503405026"><ele>37.0</ele><time>2026-04-03T08:04:41Z</time></trkpt><trkpt lat="39.36042601775302" lon="9.49755527726303"><ele>37.0</ele><time>2026-04-03T08:04:42Z</time></trkpt><trkpt lat="39.3603955157938" lon="9.497785426634355"><ele>37.0</ele><time>2026-04-03T08:04:43Z</time></trkpt><trkpt lat="39.36036626980062" lon="9.498011607475167"><ele>37.0</ele><time>2026-04-03T08:04:44Z</time></trkpt><trkpt lat="39.36033880127639" lon="9.498237352675421"><ele>37.333333333333336</ele><time>2026-04-03T08:04:45Z</time></trkpt><trkpt lat="39.36032620130722" lon="9.49845995236198"><ele>37.666666666666664</ele><time>2026-04-03T08:04:46Z</time></trkpt><trkpt lat="39.36034272411833" lon="9.4986859717498"><ele>38.0</ele><time>2026-04-03T08:04:47Z</time></trkpt><trkpt lat="39.36038127833254" lon="9.49891110246058"><ele>38.0</ele><time>2026-04-03T08:04:48Z</time></trkpt><trkpt lat="39.36043292541088" lon="9.499134597071532"><ele>38.0</ele><time>2026-04-03T08:04:49Z</time></trkpt><trkpt lat="39.36051221134584" lon="9.499353802567596"><ele>38.0</ele><time>2026-04-03T08:04:50Z</time></trkpt><trkpt lat="39.36061308441979" lon="9.499563441210483"><ele>39.666666666666664</ele><time>2026-04-03T08:04:51Z</time></trkpt><trkpt lat="39.36072177945221" lon="9.499772319391552"><ele>41.333333333333336</ele><time>2026-04-03T08:04:52Z</time></trkpt><trkpt lat="39.36083504667762" lon="9.499982493149387"><ele>43.0</ele><time>2026-04-03T08:04:53Z</time></trkpt><trkpt lat="39.36094517971906" lon="9.500192059288652"><ele>43.0</ele><time>2026-04-03T08:04:54Z</time></trkpt><trkpt lat="39.361049902969555" lon="9.500409442301788"><ele>43.0</ele><time>2026-04-03T08:04:55Z</time></trkpt><trkpt lat="39.36115196143746" lon="9.500631175665118"><ele>43.0</ele><time>2026-04-03T08:04:56Z</time></trkpt><trkpt lat="39.361257499823" lon="9.500847526623954"><ele>41.0</ele><time>2026-04-03T08:04:57Z</time></trkpt><trkpt lat="39.361361190026344" lon="9.501062930840646"><ele>39.0</ele><time>2026-04-03T08:04:58Z</time></trkpt><trkpt lat="39.36147279304547" lon="9.501280143197421"><ele>37.0</ele><time>2026-04-03T08:04:59Z</time></trkpt><trkpt lat="39.36158322649475" lon="9.501501595627971"><ele>36.66666666666667</ele><time>2026-04-03T08:05:00Z</time></trkpt><trkpt lat="39.3616959432945" lon="9.501730245866629"><ele>36.333333333333336</ele><time>2026-04-03T08:05:01Z</time></trkpt><trkpt lat="39.36180914983262" lon="9.50195420024711"><ele>36.0</ele><time>2026-04-03T08:05:02Z</time></trkpt><trkpt lat="39.361934170541694" lon="9.502170600696527"><ele>36.0</ele><time>2026-04-03T08:05:03Z</time></trkpt><trkpt lat="39.36207274548045" lon="9.502370257397564"><ele>36.0</ele><time>2026-04-03T08:05:04Z</time></trkpt><trkpt lat="39.362220487521206" lon="9.502565664504006"><ele>36.0</ele><time>2026-04-03T08:05:05Z</time></trkpt><trkpt lat="39.36237963580307" lon="9.502741282079015"><ele>36.0</ele><time>2026-04-03T08:05:06Z</time></trkpt><trkpt lat="39.362547316555" lon="9.502902580036938"><ele>36.0</ele><time>2026-04-03T08:05:07Z</time></trkpt><trkpt lat="39.36271782549441" lon="9.503055810618813"><ele>36.0</ele><time>2026-04-03T08:05:08Z</time></trkpt><trkpt lat="39.362890249072024" lon="9.503202104120048"><ele>38.0</ele><time>2026-04-03T08:05:09Z</time></trkpt><trkpt lat="39.363061233760945" lon="9.503346898945948"><ele>40.0</ele><time>2026-04-03T08:05:10Z</time></trkpt><trkpt lat="39.36322553597038" lon="9.503494667983388"><ele>42.0</ele><time>2026-04-03T08:05:11Z</time></trkpt><trkpt lat="39.363392905797404" lon="9.50364302556007"><ele>42.0</ele><time>2026-04-03T08:05:12Z</time></trkpt><trkpt lat="39.36356107243467" lon="9.503783064667873"><ele>42.0</ele><time>2026-04-03T08:05:13Z</time></trkpt><trkpt lat="39.36373391512237" lon="9.503902318887107"><ele>42.0</ele><time>2026-04-03T08:05:14Z</time></trkpt><trkpt lat="39.363919750380795" lon="9.503997216345509"><ele>42.0</ele><time>2026-04-03T08:05:15Z</time></trkpt><trkpt lat="39.36411313150105" lon="9.504067274857645"><ele>42.0</ele><time>2026-04-03T08:05:16Z</time></trkpt><trkpt lat="39.36430879756972" lon="9.504119966426666"><ele>42.0</ele><time>2026-04-03T08:05:17Z</time></trkpt><trkpt lat="39.36450574482512" lon="9.504165945626028"><ele>43.0</ele><time>2026-04-03T08:05:18Z</time></trkpt><trkpt lat="39.36469856109688" lon="9.504221435930676"><ele>44.0</ele><time>2026-04-03T08:05:19Z</time></trkpt><trkpt lat="39.36489212024675" lon="9.50428107240704"><ele>45.0</ele><time>2026-04-03T08:05:20Z</time></trkpt><trkpt lat="39.36509088430243" lon="9.504336596401028"><ele>45.0</ele><time>2026-04-03T08:05:21Z</time></trkpt><trkpt lat="39.36528498212271" lon="9.5043677528963"><ele>45.0</ele><time>2026-04-03T08:05:22Z</time></trkpt><trkpt lat="39.365477304150296" lon="9.504384330528216"><ele>45.0</ele><time>2026-04-03T08:05:23Z</time></trkpt><trkpt lat="39.36566572239837" lon="9.504394666096092"><ele>46.0</ele><time>2026-04-03T08:05:24Z</time></trkpt><trkpt lat="39.365839420800185" lon="9.504404212830172"><ele>47.0</ele><time>2026-04-03T08:05:25Z</time></trkpt><trkpt lat="39.36600092707953" lon="9.504416102181247"><ele>48.0</ele><time>2026-04-03T08:05:26Z</time></trkpt><trkpt lat="39.36614326479603" lon="9.504426980947493"><ele>48.0</ele><time>2026-04-03T08:05:27Z</time></trkpt><trkpt lat="39.3662754043323" lon="9.504458277061207"><ele>48.0</ele><time>2026-04-03T08:05:28Z</time></trkpt><trkpt lat="39.36639501553264" lon="9.504550726927356"><ele>48.0</ele><time>2026-04-03T08:05:29Z</time></trkpt><trkpt lat="39.36648088424252" lon="9.504710192359864"><ele>48.0</ele><time>2026-04-03T08:05:30Z</time></trkpt><trkpt lat="39.3665805366428" lon="9.50487107504499"><ele>46.333333333333336</ele><time>2026-04-03T08:05:31Z</time></trkpt><trkpt lat="39.366656132385344" lon="9.50505319632676"><ele>44.66666666666667</ele><time>2026-04-03T08:05:32Z</time></trkpt><trkpt lat="39.36672567798047" lon="9.505245642228575"><ele>43.0</ele><time>2026-04-03T08:05:33Z</time></trkpt><trkpt lat="39.366765407583365" lon="9.505460235564312"><ele>43.0</ele><time>2026-04-03T08:05:34Z</time></trkpt><trkpt lat="39.366778066373584" lon="9.50569560558451"><ele>43.0</ele><time>2026-04-03T08:05:35Z</time></trkpt><trkpt lat="39.36678772419732" lon="9.505942055280858"><ele>43.0</ele><time>2026-04-03T08:05:36Z</time></trkpt><trkpt lat="39.36679480821805" lon="9.506193890649989"><ele>43.0</ele><time>2026-04-03T08:05:37Z</time></trkpt><trkpt lat="39.36681030453491" lon="9.506462252026479"><ele>43.0</ele><time>2026-04-03T08:05:38Z</time></trkpt><trkpt lat="39.36682162654135" lon="9.506723843999382"><ele>43.0</ele><time>2026-04-03T08:05:39Z</time></trkpt><trkpt lat="39.36683867559132" lon="9.506988045370496"><ele>43.0</ele><time>2026-04-03T08:05:40Z</time></trkpt><trkpt lat="39.36685133465534" lon="9.507255105990092"><ele>43.0</ele><time>2026-04-03T08:05:41Z</time></trkpt><trkpt lat="39.36686426794342" lon="9.507525714918524"><ele>43.0</ele><time>2026-04-03T08:05:42Z</time></trkpt><trkpt lat="39.36688561329172" lon="9.507800832991691"><ele>42.66666666666667</ele><time>2026-04-03T08:05:42.999Z</time></trkpt><trkpt lat="39.36690133967602" lon="9.508077731453492"><ele>42.333333333333336</ele><time>2026-04-03T08:05:43.999Z</time></trkpt><trkpt lat="39.36691654771802" lon="9.508359678942647"><ele>42.0</ele><time>2026-04-03T08:05:44.999Z</time></trkpt><trkpt lat="39.366932129244766" lon="9.508642046815742"><ele>42.0</ele><time>2026-04-03T08:05:45.999Z</time></trkpt><trkpt lat="39.366953313848434" lon="9.50892775780056"><ele>42.0</ele><time>2026-04-03T08:05:46.999Z</time></trkpt><trkpt lat="39.366973598594065" lon="9.50921246558069"><ele>42.0</ele><time>2026-04-03T08:05:47.999Z</time></trkpt><trkpt lat="39.36699066679993" lon="9.509506796897146"><ele>42.0</ele><time>2026-04-03T08:05:48.999Z</time></trkpt><trkpt lat="39.36700327902077" lon="9.509803770781732"><ele>42.0</ele><time>2026-04-03T08:05:49.999Z</time></trkpt><trkpt lat="39.36702036352928" lon="9.510100649016938"><ele>42.0</ele><time>2026-04-03T08:05:50.999Z</time></trkpt><trkpt lat="39.36703641049994" lon="9.510402332111457"><ele>42.0</ele><time>2026-04-03T08:05:51.999Z</time></trkpt><trkpt lat="39.3670497918926" lon="9.510703414069452"><ele>41.5</ele><time>2026-04-03T08:05:52.999Z</time></trkpt><trkpt lat="39.36706647395867" lon="9.511004593686794"><ele>41.0</ele><time>2026-04-03T08:05:53.999Z</time></trkpt><trkpt lat="39.36708552563968" lon="9.511303756293596"><ele>40.5</ele><time>2026-04-03T08:05:54.999Z</time></trkpt><trkpt lat="39.36710187760207" lon="9.511601303198088"><ele>40.0</ele><time>2026-04-03T08:05:55.999Z</time></trkpt><trkpt lat="39.367117063736885" lon="9.511900719337692"><ele>39.0</ele><time>2026-04-03T08:05:56.999Z</time></trkpt><trkpt lat="39.36713229346601" lon="9.51219677480203"><ele>38.0</ele><time>2026-04-03T08:05:57.999Z</time></trkpt><trkpt lat="39.36714835466409" lon="9.512488069069391"><ele>38.0</ele><time>2026-04-03T08:05:58.999Z</time></trkpt><trkpt lat="39.367166396007924" lon="9.512782203056812"><ele>38.0</ele><time>2026-04-03T08:05:59.999Z</time></trkpt><trkpt lat="39.36717970574894" lon="9.513076958068021"><ele>38.0</ele><time>2026-04-03T08:06:00.999Z</time></trkpt><trkpt lat="39.36719752476728" lon="9.513371424907582"><ele>38.0</ele><time>2026-04-03T08:06:01.999Z</time></trkpt><trkpt lat="39.367213141142315" lon="9.513668672232747"><ele>36.0</ele><time>2026-04-03T08:06:02.999Z</time></trkpt><trkpt lat="39.36722858063874" lon="9.513970152964664"><ele>34.0</ele><time>2026-04-03T08:06:03.999Z</time></trkpt><trkpt lat="39.36724380390195" lon="9.514272807681934"><ele>33.5</ele><time>2026-04-03T08:06:04.999Z</time></trkpt><trkpt lat="39.36726194099228" lon="9.514577973231997"><ele>33.0</ele><time>2026-04-03T08:06:05.999Z</time></trkpt><trkpt lat="39.36727598429613" lon="9.514883654992918"><ele>33.0</ele><time>2026-04-03T08:06:06.999Z</time></trkpt><trkpt lat="39.36728762726242" lon="9.515187266705052"><ele>33.0</ele><time>2026-04-03T08:06:07.999Z</time></trkpt><trkpt lat="39.367299564238394" lon="9.5154960135109"><ele>34.0</ele><time>2026-04-03T08:06:08.999Z</time></trkpt><trkpt lat="39.36731650349386" lon="9.515798628951371"><ele>35.0</ele><time>2026-04-03T08:06:09.999Z</time></trkpt><trkpt lat="39.3673376033609" lon="9.516101927208476"><ele>35.5</ele><time>2026-04-03T08:06:10.999Z</time></trkpt><trkpt lat="39.367361419140195" lon="9.516401216029756"><ele>36.0</ele><time>2026-04-03T08:06:11.999Z</time></trkpt><trkpt lat="39.36738234001174" lon="9.516698708544116"><ele>36.0</ele><time>2026-04-03T08:06:12.999Z</time></trkpt><trkpt lat="39.36739868429992" lon="9.516999277560414"><ele>36.0</ele><time>2026-04-03T08:06:13.999Z</time></trkpt><trkpt lat="39.36740877668547" lon="9.51729419115199"><ele>36.0</ele><time>2026-04-03T08:06:14.999Z</time></trkpt><trkpt lat="39.36742525874543" lon="9.517590995831277"><ele>36.0</ele><time>2026-04-03T08:06:15.999Z</time></trkpt><trkpt lat="39.3674440579277" lon="9.517884714753366"><ele>35.5</ele><time>2026-04-03T08:06:16.999Z</time></trkpt><trkpt lat="39.36746099641771" lon="9.518179363444506"><ele>35.0</ele><time>2026-04-03T08:06:17.999Z</time></trkpt><trkpt lat="39.36747811820144" lon="9.518475936809422"><ele>35.0</ele><time>2026-04-03T08:06:18.999Z</time></trkpt><trkpt lat="39.367494092319234" lon="9.518772919641604"><ele>35.0</ele><time>2026-04-03T08:06:19.999Z</time></trkpt><trkpt lat="39.36750918971602" lon="9.519064107954645"><ele>35.0</ele><time>2026-04-03T08:06:20.999Z</time></trkpt><trkpt lat="39.36752193218498" lon="9.5193553786939"><ele>35.0</ele><time>2026-04-03T08:06:21.999Z</time></trkpt><trkpt lat="39.36753577700815" lon="9.51964807302582"><ele>34.0</ele><time>2026-04-03T08:06:22.999Z</time></trkpt><trkpt lat="39.36755344497696" lon="9.519941376720332"><ele>33.0</ele><time>2026-04-03T08:06:23.999Z</time></trkpt><trkpt lat="39.36757068756808" lon="9.520234360480163"><ele>33.0</ele><time>2026-04-03T08:06:24.999Z</time></trkpt><trkpt lat="39.36758864335112" lon="9.520527080210556"><ele>33.0</ele><time>2026-04-03T08:06:25.999Z</time></trkpt><trkpt lat="39.36760655677039" lon="9.520818133713748"><ele>33.0</ele><time>2026-04-03T08:06:26.999Z</time></trkpt><trkpt lat="39.36762620678929" lon="9.521108763496073"><ele>33.0</ele><time>2026-04-03T08:06:27.999Z</time></trkpt><trkpt lat="39.36764209258" lon="9.521398213888961"><ele>33.333333333333336</ele><time>2026-04-03T08:06:28.999Z</time></trkpt><trkpt lat="39.367654215752246" lon="9.52168695721632"><ele>33.66666666666667</ele><time>2026-04-03T08:06:29.999Z</time></trkpt><trkpt lat="39.36766953890787" lon="9.521976318887532"><ele>34.0</ele><time>2026-04-03T08:06:30.999Z</time></trkpt><trkpt lat="39.367684730593226" lon="9.522264812613358"><ele>33.0</ele><time>2026-04-03T08:06:32Z</time></trkpt><trkpt lat="39.36770136652006" lon="9.5225552709431"><ele>32.0</ele><time>2026-04-03T08:06:33Z</time></trkpt><trkpt lat="39.36771906738316" lon="9.522849328806158"><ele>31.0</ele><time>2026-04-03T08:06:34Z</time></trkpt><trkpt lat="39.367733881182524" lon="9.523140878956676"><ele>30.0</ele><time>2026-04-03T08:06:35Z</time></trkpt><trkpt lat="39.36774799788958" lon="9.523434241079851"><ele>30.0</ele><time>2026-04-03T08:06:36Z</time></trkpt><trkpt lat="39.36776477940369" lon="9.523727755386835"><ele>30.0</ele><time>2026-04-03T08:06:37Z</time></trkpt><trkpt lat="39.367786009284075" lon="9.524023962373073"><ele>30.0</ele><time>2026-04-03T08:06:38Z</time></trkpt><trkpt lat="39.36780375146767" lon="9.524318160480846"><ele>30.0</ele><time>2026-04-03T08:06:39Z</time></trkpt><trkpt lat="39.36782179276319" lon="9.524612467798319"><ele>30.0</ele><time>2026-04-03T08:06:40Z</time></trkpt><trkpt lat="39.367836103560784" lon="9.524905843507419"><ele>30.0</ele><time>2026-04-03T08:06:41Z</time></trkpt><trkpt lat="39.36785036877969" lon="9.52519908609447"><ele>30.5</ele><time>2026-04-03T08:06:42Z</time></trkpt><trkpt lat="39.367868876631896" lon="9.525495874687707"><ele>31.0</ele><time>2026-04-03T08:06:43Z</time></trkpt><trkpt lat="39.36788285070306" lon="9.52579191921525"><ele>31.0</ele><time>2026-04-03T08:06:44Z</time></trkpt><trkpt lat="39.367897429533514" lon="9.52608778242033"><ele>31.0</ele><time>2026-04-03T08:06:45Z</time></trkpt><trkpt lat="39.367911631929715" lon="9.526383661516387"><ele>30.5</ele><time>2026-04-03T08:06:46Z</time></trkpt><trkpt lat="39.36792911547887" lon="9.52668240636905"><ele>30.0</ele><time>2026-04-03T08:06:47Z</time></trkpt><trkpt lat="39.36794590161667" lon="9.526973828235128"><ele>29.5</ele><time>2026-04-03T08:06:48Z</time></trkpt><trkpt lat="39.36796255777698" lon="9.527265090877183"><ele>29.0</ele><time>2026-04-03T08:06:49Z</time></trkpt><trkpt lat="39.36797644143409" lon="9.527554739353436"><ele>29.0</ele><time>2026-04-03T08:06:50Z</time></trkpt><trkpt lat="39.367992176492585" lon="9.527843008377497"><ele>29.0</ele><time>2026-04-03T08:06:51Z</time></trkpt><trkpt lat="39.36800970781534" lon="9.528127582557293"><ele>29.0</ele><time>2026-04-03T08:06:52Z</time></trkpt><trkpt lat="39.36802730846474" lon="9.528409487600669"><ele>29.666666666666664</ele><time>2026-04-03T08:06:53Z</time></trkpt><trkpt lat="39.36804523789543" lon="9.528689677531995"><ele>30.333333333333336</ele><time>2026-04-03T08:06:54Z</time></trkpt><trkpt lat="39.36805928603034" lon="9.52896907866099"><ele>31.0</ele><time>2026-04-03T08:06:55Z</time></trkpt><trkpt lat="39.36807462134325" lon="9.5292438746615"><ele>31.0</ele><time>2026-04-03T08:06:56Z</time></trkpt><trkpt lat="39.3680865242354" lon="9.529513743696825"><ele>31.0</ele><time>2026-04-03T08:06:57Z</time></trkpt><trkpt lat="39.368096112151385" lon="9.529783947811117"><ele>31.0</ele><time>2026-04-03T08:06:58Z</time></trkpt><trkpt lat="39.368111143114305" lon="9.530057171887284"><ele>30.666666666666668</ele><time>2026-04-03T08:06:59Z</time></trkpt><trkpt lat="39.36812622438333" lon="9.530328944831526"><ele>30.333333333333336</ele><time>2026-04-03T08:07:00Z</time></trkpt><trkpt lat="39.368141830382385" lon="9.530597099131082"><ele>30.0</ele><time>2026-04-03T08:07:01Z</time></trkpt><trkpt lat="39.36815483168859" lon="9.530858564848865"><ele>29.333333333333336</ele><time>2026-04-03T08:07:02Z</time></trkpt><trkpt lat="39.368170818852434" lon="9.531119485385329"><ele>28.666666666666668</ele><time>2026-04-03T08:07:03Z</time></trkpt><trkpt lat="39.36818830665201" lon="9.53137657820589"><ele>28.0</ele><time>2026-04-03T08:07:04Z</time></trkpt><trkpt lat="39.36820599546107" lon="9.531632279415067"><ele>27.0</ele><time>2026-04-03T08:07:05Z</time></trkpt><trkpt lat="39.368219735093525" lon="9.531883687670316"><ele>26.0</ele><time>2026-04-03T08:07:06Z</time></trkpt><trkpt lat="39.36823376721619" lon="9.532134532933782"><ele>25.0</ele><time>2026-04-03T08:07:07Z</time></trkpt><trkpt lat="39.36824643975458" lon="9.532381081500008"><ele>25.333333333333336</ele><time>2026-04-03T08:07:08Z</time></trkpt><trkpt lat="39.36825831536404" lon="9.532624033763126"><ele>25.666666666666664</ele><time>2026-04-03T08:07:09Z</time></trkpt><trkpt lat="39.368271225884456" lon="9.532863710325184"><ele>26.0</ele><time>2026-04-03T08:07:10Z</time></trkpt><trkpt lat="39.368285721664286" lon="9.533101321945741"><ele>26.0</ele><time>2026-04-03T08:07:11Z</time></trkpt><trkpt lat="39.36829944392814" lon="9.533336882485449"><ele>26.0</ele><time>2026-04-03T08:07:12Z</time></trkpt><trkpt lat="39.3683119501046" lon="9.533569878247397"><ele>26.0</ele><time>2026-04-03T08:07:13Z</time></trkpt><trkpt lat="39.36832515709465" lon="9.53380634776792"><ele>26.666666666666664</ele><time>2026-04-03T08:07:14Z</time></trkpt><trkpt lat="39.36833539309662" lon="9.534044201572133"><ele>27.333333333333336</ele><time>2026-04-03T08:07:15Z</time></trkpt><trkpt lat="39.36834136732618" lon="9.534281889762752"><ele>28.0</ele><time>2026-04-03T08:07:16Z</time></trkpt><trkpt lat="39.368345810148966" lon="9.534519684434109"><ele>28.666666666666668</ele><time>2026-04-03T08:07:17Z</time></trkpt><trkpt lat="39.36834951661331" lon="9.534757031449734"><ele>29.333333333333336</ele><time>2026-04-03T08:07:18Z</time></trkpt><trkpt lat="39.36834642937989" lon="9.534991706059722"><ele>30.0</ele><time>2026-04-03T08:07:19Z</time></trkpt><trkpt lat="39.36834202280213" lon="9.535227273880189"><ele>29.666666666666664</ele><time>2026-04-03T08:07:20Z</time></trkpt><trkpt lat="39.3683383027769" lon="9.535467116768226"><ele>29.333333333333332</ele><time>2026-04-03T08:07:21Z</time></trkpt><trkpt lat="39.36833891405078" lon="9.535708400972851"><ele>29.0</ele><time>2026-04-03T08:07:22Z</time></trkpt><trkpt lat="39.36833857935413" lon="9.535949339306812"><ele>29.0</ele><time>2026-04-03T08:07:23Z</time></trkpt><trkpt lat="39.368337635019195" lon="9.53619201327887"><ele>29.0</ele><time>2026-04-03T08:07:24Z</time></trkpt><trkpt lat="39.36833478988704" lon="9.536435586879405"><ele>29.0</ele><time>2026-04-03T08:07:25Z</time></trkpt><trkpt lat="39.368334666499315" lon="9.536683901711395"><ele>29.333333333333332</ele><time>2026-04-03T08:07:26Z</time></trkpt><trkpt lat="39.36833406214661" lon="9.536936915566889"><ele>29.666666666666664</ele><time>2026-04-03T08:07:27Z</time></trkpt><trkpt lat="39.36833374247757" lon="9.537193163439284"><ele>30.0</ele><time>2026-04-03T08:07:28Z</time></trkpt><trkpt lat="39.368331921085606" lon="9.537451874301539"><ele>30.0</ele><time>2026-04-03T08:07:29Z</time></trkpt><trkpt lat="39.368333003848825" lon="9.537714742717364"><ele>30.0</ele><time>2026-04-03T08:07:30Z</time></trkpt><trkpt lat="39.36833711427282" lon="9.537979491585498"><ele>30.0</ele><time>2026-04-03T08:07:31Z</time></trkpt><trkpt lat="39.36834212272278" lon="9.538246682127447"><ele>30.0</ele><time>2026-04-03T08:07:32Z</time></trkpt><trkpt lat="39.36834645588976" lon="9.538511699507172"><ele>30.0</ele><time>2026-04-03T08:07:33Z</time></trkpt><trkpt lat="39.368348620265714" lon="9.538775564568274"><ele>30.0</ele><time>2026-04-03T08:07:34Z</time></trkpt><trkpt lat="39.36834997761445" lon="9.53904398434424"><ele>30.0</ele><time>2026-04-03T08:07:35Z</time></trkpt><trkpt lat="39.36835105271269" lon="9.539307851155511"><ele>30.0</ele><time>2026-04-03T08:07:36Z</time></trkpt><trkpt lat="39.36835355660025" lon="9.539569777825143"><ele>30.0</ele><time>2026-04-03T08:07:37Z</time></trkpt><trkpt lat="39.36835589326331" lon="9.539829896151934"><ele>28.666666666666664</ele><time>2026-04-03T08:07:38Z</time></trkpt><trkpt lat="39.36835447405045" lon="9.540087473462442"><ele>27.333333333333332</ele><time>2026-04-03T08:07:39Z</time></trkpt><trkpt lat="39.368355964721985" lon="9.540346816874752"><ele>26.0</ele><time>2026-04-03T08:07:40Z</time></trkpt><trkpt lat="39.36835561473412" lon="9.540602682571766"><ele>25.333333333333332</ele><time>2026-04-03T08:07:41Z</time></trkpt><trkpt lat="39.368356391699145" lon="9.540856655435892"><ele>24.666666666666664</ele><time>2026-04-03T08:07:42Z</time></trkpt><trkpt lat="39.368355081207326" lon="9.541108024018527"><ele>24.0</ele><time>2026-04-03T08:07:43Z</time></trkpt><trkpt lat="39.36835555369013" lon="9.541357564320307"><ele>24.0</ele><time>2026-04-03T08:07:44Z</time></trkpt><trkpt lat="39.368359899625766" lon="9.541606795513562"><ele>24.0</ele><time>2026-04-03T08:07:45Z</time></trkpt><trkpt lat="39.368365769182844" lon="9.54185064368018"><ele>24.0</ele><time>2026-04-03T08:07:46Z</time></trkpt><trkpt lat="39.36837164932413" lon="9.54208876009829"><ele>24.666666666666664</ele><time>2026-04-03T08:07:47Z</time></trkpt><trkpt lat="39.36837620679838" lon="9.542315229832473"><ele>25.333333333333332</ele><time>2026-04-03T08:07:48Z</time></trkpt><trkpt lat="39.36836702742643" lon="9.54253259776227"><ele>26.0</ele><time>2026-04-03T08:07:49Z</time></trkpt><trkpt lat="39.36834454200816" lon="9.54275089395647"><ele>25.666666666666664</ele><time>2026-04-03T08:07:50Z</time></trkpt><trkpt lat="39.36829594519415" lon="9.542967604447542"><ele>25.333333333333336</ele><time>2026-04-03T08:07:51Z</time></trkpt><trkpt lat="39.36823816892447" lon="9.543183470539285"><ele>25.0</ele><time>2026-04-03T08:07:52Z</time></trkpt><trkpt lat="39.36818390466945" lon="9.543404727999638"><ele>25.0</ele><time>2026-04-03T08:07:53Z</time></trkpt><trkpt lat="39.36813248475024" lon="9.543633136668054"><ele>25.0</ele><time>2026-04-03T08:07:54Z</time></trkpt><trkpt lat="39.36808036453837" lon="9.543858679922801"><ele>25.0</ele><time>2026-04-03T08:07:55Z</time></trkpt><trkpt lat="39.36802925597849" lon="9.544072990510017"><ele>24.5</ele><time>2026-04-03T08:07:56Z</time></trkpt><trkpt lat="39.36797818277417" lon="9.54425710312889"><ele>24.0</ele><time>2026-04-03T08:07:57Z</time></trkpt><trkpt lat="39.36790485390959" lon="9.54441729013296"><ele>23.5</ele><time>2026-04-03T08:07:58Z</time></trkpt><trkpt lat="39.36780927153427" lon="9.544545884347329"><ele>23.0</ele><time>2026-04-03T08:07:59Z</time></trkpt><trkpt lat="39.36768017160057" lon="9.544643976497966"><ele>22.0</ele><time>2026-04-03T08:08:00Z</time></trkpt><trkpt lat="39.367531831100465" lon="9.544728333322428"><ele>21.0</ele><time>2026-04-03T08:08:01Z</time></trkpt><trkpt lat="39.36739497926482" lon="9.544822076308558"><ele>20.0</ele><time>2026-04-03T08:08:02Z</time></trkpt><trkpt lat="39.36727277978461" lon="9.544941131326851"><ele>20.0</ele><time>2026-04-03T08:08:03Z</time></trkpt><trkpt lat="39.36717817174653" lon="9.545077965753489"><ele>20.0</ele><time>2026-04-03T08:08:04Z</time></trkpt><trkpt lat="39.36712272624332" lon="9.545235837835389"><ele>20.0</ele><time>2026-04-03T08:08:05Z</time></trkpt><trkpt lat="39.367109814445236" lon="9.545404075921235"><ele>20.0</ele><time>2026-04-03T08:08:06Z</time></trkpt><trkpt lat="39.36713433954842" lon="9.545569191352323"><ele>19.5</ele><time>2026-04-03T08:08:07Z</time></trkpt><trkpt lat="39.36718896742333" lon="9.54573034157923"><ele>19.0</ele><time>2026-04-03T08:08:08Z</time></trkpt><trkpt lat="39.36725895949135" lon="9.545890250029856"><ele>18.5</ele><time>2026-04-03T08:08:09Z</time></trkpt><trkpt lat="39.367331362249814" lon="9.546057662994729"><ele>18.0</ele><time>2026-04-03T08:08:10Z</time></trkpt><trkpt lat="39.36740151792732" lon="9.546233155517449"><ele>18.0</ele><time>2026-04-03T08:08:11Z</time></trkpt><trkpt lat="39.3674558236501" lon="9.54640281247912"><ele>18.0</ele><time>2026-04-03T08:08:12Z</time></trkpt><trkpt lat="39.36747584604924" lon="9.546566930288625"><ele>18.0</ele><time>2026-04-03T08:08:13Z</time></trkpt><trkpt lat="39.367472413456916" lon="9.546740909113446"><ele>18.0</ele><time>2026-04-03T08:08:14Z</time></trkpt><trkpt lat="39.36744125819625" lon="9.546918026262242"><ele>18.0</ele><time>2026-04-03T08:08:15Z</time></trkpt><trkpt lat="39.36737943647806" lon="9.547077204120143"><ele>18.0</ele><time>2026-04-03T08:08:16Z</time></trkpt><trkpt lat="39.36728812354445" lon="9.547224593536553"><ele>18.0</ele><time>2026-04-03T08:08:17Z</time></trkpt><trkpt lat="39.36716920261617" lon="9.547352981132429"><ele>18.0</ele><time>2026-04-03T08:08:18Z</time></trkpt><trkpt lat="39.367035563927246" lon="9.54747351593405"><ele>17.666666666666668</ele><time>2026-04-03T08:08:19Z</time></trkpt><trkpt lat="39.366893421943054" lon="9.547606021145574"><ele>17.333333333333336</ele><time>2026-04-03T08:08:20Z</time></trkpt><trkpt lat="39.36675764113963" lon="9.547741711667522"><ele>17.0</ele><time>2026-04-03T08:08:21Z</time></trkpt><trkpt lat="39.36662107057002" lon="9.547883273595177"><ele>16.666666666666668</ele><time>2026-04-03T08:08:22Z</time></trkpt><trkpt lat="39.36648340363415" lon="9.548031896675445"><ele>16.333333333333332</ele><time>2026-04-03T08:08:23Z</time></trkpt><trkpt lat="39.366353859792746" lon="9.548193509291671"><ele>16.0</ele><time>2026-04-03T08:08:24Z</time></trkpt><trkpt lat="39.36622450619155" lon="9.548362488004347"><ele>16.0</ele><time>2026-04-03T08:08:25Z</time></trkpt><trkpt lat="39.36609769588915" lon="9.54853772009993"><ele>16.0</ele><time>2026-04-03T08:08:26Z</time></trkpt><trkpt lat="39.365976613388234" lon="9.548715971119096"><ele>16.0</ele><time>2026-04-03T08:08:27Z</time></trkpt><trkpt lat="39.36585867401736" lon="9.548883720414347"><ele>16.333333333333332</ele><time>2026-04-03T08:08:28Z</time></trkpt><trkpt lat="39.365732987248435" lon="9.54902758637192"><ele>16.666666666666668</ele><time>2026-04-03T08:08:29Z</time></trkpt><trkpt lat="39.36560238607147" lon="9.549143748575315"><ele>17.0</ele><time>2026-04-03T08:08:30Z</time></trkpt><trkpt lat="39.36546284844447" lon="9.54923718098768"><ele>16.333333333333336</ele><time>2026-04-03T08:08:31Z</time></trkpt><trkpt lat="39.36531438851835" lon="9.549308301702233"><ele>15.666666666666668</ele><time>2026-04-03T08:08:32Z</time></trkpt><trkpt lat="39.36515708176332" lon="9.549364269290189"><ele>15.0</ele><time>2026-04-03T08:08:33Z</time></trkpt><trkpt lat="39.36500073551116" lon="9.549420495187412"><ele>15.0</ele><time>2026-04-03T08:08:34Z</time></trkpt><trkpt lat="39.36483890954379" lon="9.549473207732998"><ele>15.0</ele><time>2026-04-03T08:08:35Z</time></trkpt><trkpt lat="39.36467432882925" lon="9.549523997068198"><ele>15.0</ele><time>2026-04-03T08:08:36Z</time></trkpt><trkpt lat="39.36451158614081" lon="9.549579310342214"><ele>15.666666666666668</ele><time>2026-04-03T08:08:37Z</time></trkpt><trkpt lat="39.36435489882342" lon="9.549668628891109"><ele>16.333333333333336</ele><time>2026-04-03T08:08:37.999Z</time></trkpt><trkpt lat="39.36421076136661" lon="9.549795237631244"><ele>17.0</ele><time>2026-04-03T08:08:38.999Z</time></trkpt><trkpt lat="39.36407988894671" lon="9.549931436786009"><ele>17.0</ele><time>2026-04-03T08:08:50.238Z</time></trkpt><trkpt lat="39.36396058770457" lon="9.550027443642762"><ele>17.0</ele><time>2026-04-03T08:08:50.999Z</time></trkpt><trkpt lat="39.36214173013763" lon="9.550414037284751"><ele>18.666666666666668</ele><time>2026-04-03T08:08:51.999Z</time></trkpt><trkpt lat="39.361989032183345" lon="9.55042767129432"><ele>20.333333333333332</ele><time>2026-04-03T08:08:52.999Z</time></trkpt><trkpt lat="39.36184564148339" lon="9.550486664527531"><ele>22.0</ele><time>2026-04-03T08:08:53.999Z</time></trkpt><trkpt lat="39.36169912602199" lon="9.550559599693443"><ele>22.0</ele><time>2026-04-03T08:08:54.999Z</time></trkpt><trkpt lat="39.3615695438645" lon="9.550666597125172"><ele>22.0</ele><time>2026-04-03T08:08:55.999Z</time></trkpt><trkpt lat="39.361463720710084" lon="9.55081881419793"><ele>22.0</ele><time>2026-04-03T08:08:56.999Z</time></trkpt><trkpt lat="39.36136208709753" lon="9.550963359132565"><ele>22.0</ele><time>2026-04-03T08:08:57.999Z</time></trkpt><trkpt lat="39.36137495599387" lon="9.5511948470283"><ele>22.0</ele><time>2026-04-03T08:08:58.999Z</time></trkpt><trkpt lat="39.36137879014237" lon="9.55136599241333"><ele>22.0</ele><time>2026-04-03T08:08:59.999Z</time></trkpt><trkpt lat="39.36143959731881" lon="9.551554549238622"><ele>22.25</ele><time>2026-04-03T08:09:00.999Z</time></trkpt><trkpt lat="39.36146912871314" lon="9.551745774452742"><ele>22.5</ele><time>2026-04-03T08:09:01.999Z</time></trkpt><trkpt lat="39.3615096663833" lon="9.551924491401115"><ele>22.75</ele><time>2026-04-03T08:09:02.999Z</time></trkpt><trkpt lat="39.36156168345191" lon="9.552091699014651"><ele>23.0</ele><time>2026-04-03T08:09:03.999Z</time></trkpt><trkpt lat="39.36157727021283" lon="9.55227653172962"><ele>23.0</ele><time>2026-04-03T08:09:04.999Z</time></trkpt><trkpt lat="39.36159677818922" lon="9.55246499645603"><ele>23.0</ele><time>2026-04-03T08:09:05.999Z</time></trkpt><trkpt lat="39.361617344160344" lon="9.552657713883752"><ele>23.0</ele><time>2026-04-03T08:09:06.999Z</time></trkpt><trkpt lat="39.361574822938046" lon="9.552842867791107"><ele>23.0</ele><time>2026-04-03T08:09:07.999Z</time></trkpt><trkpt lat="39.361528489899555" lon="9.553027185269434"><ele>23.0</ele><time>2026-04-03T08:09:08.999Z</time></trkpt><trkpt lat="39.36145024422063" lon="9.55319202859288"><ele>23.0</ele><time>2026-04-03T08:09:09.999Z</time></trkpt><trkpt lat="39.36135901454537" lon="9.553326267975205"><ele>23.0</ele><time>2026-04-03T08:09:10.999Z</time></trkpt><trkpt lat="39.36124395029041" lon="9.553470217545414"><ele>23.0</ele><time>2026-04-03T08:09:11.999Z</time></trkpt><trkpt lat="39.361121634095596" lon="9.553601744858987"><ele>21.666666666666668</ele><time>2026-04-03T08:09:12.999Z</time></trkpt><trkpt lat="39.3610017428695" lon="9.553734898928013"><ele>20.333333333333332</ele><time>2026-04-03T08:09:13.999Z</time></trkpt><trkpt lat="39.36087769569486" lon="9.553886714772036"><ele>19.0</ele><time>2026-04-03T08:09:14.999Z</time></trkpt><trkpt lat="39.36077139560291" lon="9.554039068310964"><ele>19.0</ele><time>2026-04-03T08:09:15.999Z</time></trkpt><trkpt lat="39.3606696299897" lon="9.55420236390921"><ele>19.0</ele><time>2026-04-03T08:09:16.999Z</time></trkpt><trkpt lat="39.360571827058486" lon="9.554378257042615"><ele>19.0</ele><time>2026-04-03T08:09:17.999Z</time></trkpt><trkpt lat="39.360475009687285" lon="9.554559183954444"><ele>16.666666666666664</ele><time>2026-04-03T08:09:18.999Z</time></trkpt><trkpt lat="39.360375488539965" lon="9.554738324442502"><ele>14.333333333333332</ele><time>2026-04-03T08:09:19.999Z</time></trkpt><trkpt lat="39.360277579766986" lon="9.554913530139254"><ele>12.0</ele><time>2026-04-03T08:09:20.999Z</time></trkpt><trkpt lat="39.36018679347561" lon="9.555082450426216"><ele>12.0</ele><time>2026-04-03T08:09:21.999Z</time></trkpt><trkpt lat="39.36010027665366" lon="9.555237967166368"><ele>12.0</ele><time>2026-04-03T08:09:22.999Z</time></trkpt><trkpt lat="39.360000390850374" lon="9.555382444881362"><ele>12.0</ele><time>2026-04-03T08:09:23.999Z</time></trkpt><trkpt lat="39.359924295420576" lon="9.555527945974966"><ele>12.0</ele><time>2026-04-03T08:09:24.999Z</time></trkpt><trkpt lat="39.35984609567942" lon="9.555665081832363"><ele>11.75</ele><time>2026-04-03T08:09:25.999Z</time></trkpt><trkpt lat="39.35976629762582" lon="9.555804266190737"><ele>11.5</ele><time>2026-04-03T08:09:26.999Z</time></trkpt><trkpt lat="39.35969223164784" lon="9.555952438716295"><ele>11.25</ele><time>2026-04-03T08:09:27.999Z</time></trkpt><trkpt lat="39.35961842325613" lon="9.556118169220268"><ele>11.0</ele><time>2026-04-03T08:09:28.999Z</time></trkpt><trkpt lat="39.35956591900171" lon="9.556306979181041"><ele>11.0</ele><time>2026-04-03T08:09:29.999Z</time></trkpt><trkpt lat="39.35953554493168" lon="9.556510584043336"><ele>11.0</ele><time>2026-04-03T08:09:30.999Z</time></trkpt><trkpt lat="39.3595304516495" lon="9.556727181298156"><ele>11.0</ele><time>2026-04-03T08:09:31.999Z</time></trkpt><trkpt lat="39.35953174914501" lon="9.556942331665102"><ele>11.0</ele><time>2026-04-03T08:09:32.999Z</time></trkpt><trkpt lat="39.35954470228039" lon="9.557144314019993"><ele>11.0</ele><time>2026-04-03T08:09:33.999Z</time></trkpt><trkpt lat="39.35958669497047" lon="9.557332904215162"><ele>11.0</ele><time>2026-04-03T08:09:34.999Z</time></trkpt><trkpt lat="39.35965829562723" lon="9.557514062555983"><ele>11.25</ele><time>2026-04-03T08:09:35.999Z</time></trkpt><trkpt lat="39.3597425227183" lon="9.557688502132782"><ele>11.5</ele><time>2026-04-03T08:09:36.999Z</time></trkpt><trkpt lat="39.3598190477339" lon="9.557852533500743"><ele>11.75</ele><time>2026-04-03T08:09:37.999Z</time></trkpt><trkpt lat="39.35986256891183" lon="9.558024525964536"><ele>12.0</ele><time>2026-04-03T08:09:38.999Z</time></trkpt><trkpt lat="39.359857106635516" lon="9.558197056370851"><ele>12.0</ele><time>2026-04-03T08:09:39.999Z</time></trkpt><trkpt lat="39.359801873986854" lon="9.558351634843504"><ele>12.0</ele><time>2026-04-03T08:09:40.999Z</time></trkpt><trkpt lat="39.35971430841799" lon="9.558482692703198"><ele>12.0</ele><time>2026-04-03T08:09:41.999Z</time></trkpt><trkpt lat="39.359613117944" lon="9.558610134342612"><ele>12.0</ele><time>2026-04-03T08:09:42.999Z</time></trkpt><trkpt lat="39.359511804810424" lon="9.558745554253768"><ele>12.333333333333332</ele><time>2026-04-03T08:09:43.999Z</time></trkpt><trkpt lat="39.35941238396086" lon="9.558892282070214"><ele>12.666666666666666</ele><time>2026-04-03T08:09:44.999Z</time></trkpt><trkpt lat="39.35931074694559" lon="9.559044952581743"><ele>13.0</ele><time>2026-04-03T08:09:45.999Z</time></trkpt><trkpt lat="39.359209952375224" lon="9.559198343994039"><ele>13.0</ele><time>2026-04-03T08:09:46.999Z</time></trkpt><trkpt lat="39.35911066229909" lon="9.559354849553403"><ele>13.0</ele><time>2026-04-03T08:09:47.999Z</time></trkpt><trkpt lat="39.35901856208195" lon="9.559499720062973"><ele>13.0</ele><time>2026-04-03T08:09:48.999Z</time></trkpt><trkpt lat="39.35893041809405" lon="9.559630960209269"><ele>13.0</ele><time>2026-04-03T08:09:49.999Z</time></trkpt><trkpt lat="39.358849566479805" lon="9.559758557259007"><ele>13.25</ele><time>2026-04-03T08:09:50.999Z</time></trkpt><trkpt lat="39.358765648538814" lon="9.55988855620677"><ele>13.5</ele><time>2026-04-03T08:09:51.999Z</time></trkpt><trkpt lat="39.35867736029463" lon="9.560025681934434"><ele>13.75</ele><time>2026-04-03T08:09:52.999Z</time></trkpt><trkpt lat="39.358586129580296" lon="9.560161603362157"><ele>14.0</ele><time>2026-04-03T08:09:53.999Z</time></trkpt><trkpt lat="39.3584903334684" lon="9.560295117316235"><ele>14.0</ele><time>2026-04-03T08:09:54.999Z</time></trkpt><trkpt lat="39.35840025554546" lon="9.560437106522937"><ele>14.0</ele><time>2026-04-03T08:09:55.999Z</time></trkpt><trkpt lat="39.35830260722758" lon="9.560576746068131"><ele>14.0</ele><time>2026-04-03T08:09:56.999Z</time></trkpt><trkpt lat="39.35821464816449" lon="9.560718173976051"><ele>14.0</ele><time>2026-04-03T08:09:57.999Z</time></trkpt><trkpt lat="39.35813693503051" lon="9.560854321928494"><ele>14.0</ele><time>2026-04-03T08:09:58.999Z</time></trkpt><trkpt lat="39.35807441509717" lon="9.561001091796046"><ele>14.0</ele><time>2026-04-03T08:09:59.999Z</time></trkpt><trkpt lat="39.35802830300069" lon="9.56115769856391"><ele>14.0</ele><time>2026-04-03T08:10:00.999Z</time></trkpt><trkpt lat="39.357996480768485" lon="9.561322133531508"><ele>14.0</ele><time>2026-04-03T08:10:01.999Z</time></trkpt><trkpt lat="39.35798740115765" lon="9.561494022492589"><ele>13.75</ele><time>2026-04-03T08:10:02.999Z</time></trkpt><trkpt lat="39.35799691068379" lon="9.561669270756774"><ele>13.5</ele><time>2026-04-03T08:10:03.999Z</time></trkpt><trkpt lat="39.35802695511906" lon="9.561845501098938"><ele>13.25</ele><time>2026-04-03T08:10:04.999Z</time></trkpt><trkpt lat="39.35807234685472" lon="9.562020014641272"><ele>13.0</ele><time>2026-04-03T08:10:05.999Z</time></trkpt><trkpt lat="39.358130434196575" lon="9.562191960839607"><ele>12.75</ele><time>2026-04-03T08:10:06.999Z</time></trkpt><trkpt lat="39.35819307861275" lon="9.562361041666962"><ele>12.5</ele><time>2026-04-03T08:10:07.999Z</time></trkpt><trkpt lat="39.35825826679472" lon="9.562533360681671"><ele>12.25</ele><time>2026-04-03T08:10:08.999Z</time></trkpt><trkpt lat="39.358333139330256" lon="9.562699397507696"><ele>12.0</ele><time>2026-04-03T08:10:09.999Z</time></trkpt><trkpt lat="39.35840677834335" lon="9.562869624363488"><ele>12.0</ele><time>2026-04-03T08:10:10.999Z</time></trkpt><trkpt lat="39.358479132588336" lon="9.56304365517762"><ele>12.0</ele><time>2026-04-03T08:10:11.999Z</time></trkpt><trkpt lat="39.358544548225446" lon="9.56321606820119"><ele>12.0</ele><time>2026-04-03T08:10:12.999Z</time></trkpt><trkpt lat="39.35861183366916" lon="9.563387633567611"><ele>12.0</ele><time>2026-04-03T08:10:13.999Z</time></trkpt><trkpt lat="39.35868354825904" lon="9.563559068240268"><ele>12.0</ele><time>2026-04-03T08:10:14.999Z</time></trkpt><trkpt lat="39.35874737794261" lon="9.563727772794078"><ele>12.0</ele><time>2026-04-03T08:10:15.999Z</time></trkpt><trkpt lat="39.358821811906324" lon="9.563896669571081"><ele>12.0</ele><time>2026-04-03T08:10:16.999Z</time></trkpt><trkpt lat="39.35890345480209" lon="9.564068607437786"><ele>12.0</ele><time>2026-04-03T08:10:17.999Z</time></trkpt><trkpt lat="39.35899954188762" lon="9.56424428741929"><ele>12.0</ele><time>2026-04-03T08:10:18.999Z</time></trkpt><trkpt lat="39.35910215570446" lon="9.564397291233815"><ele>12.0</ele><time>2026-04-03T08:10:19.999Z</time></trkpt><trkpt lat="39.35919652047341" lon="9.564546350286438"><ele>12.0</ele><time>2026-04-03T08:10:20.999Z</time></trkpt><trkpt lat="39.35928369407946" lon="9.564697259578"><ele>12.0</ele><time>2026-04-03T08:10:21.999Z</time></trkpt><trkpt lat="39.35937431587855" lon="9.564843842024485"><ele>12.0</ele><time>2026-04-03T08:10:22.999Z</time></trkpt><trkpt lat="39.359472732594256" lon="9.564989601163868"><ele>12.0</ele><time>2026-04-03T08:10:23.999Z</time></trkpt><trkpt lat="39.3595734859416" lon="9.565120624728698"><ele>12.0</ele><time>2026-04-03T08:10:24.999Z</time></trkpt><trkpt lat="39.35969054487624" lon="9.565224068122111"><ele>12.0</ele><time>2026-04-03T08:10:25.999Z</time></trkpt><trkpt lat="39.35980859759015" lon="9.565322246936164"><ele>12.0</ele><time>2026-04-03T08:10:26.999Z</time></trkpt><trkpt lat="39.35989742350648" lon="9.565452996902426"><ele>12.0</ele><time>2026-04-03T08:10:27.999Z</time></trkpt><trkpt lat="39.35996269361696" lon="9.565612417936103"><ele>10.75</ele><time>2026-04-03T08:10:28.999Z</time></trkpt><trkpt lat="39.35996702063743" lon="9.56578297173886"><ele>9.5</ele><time>2026-04-03T08:10:29.999Z</time></trkpt><trkpt lat="39.359979260762636" lon="9.565937288650643"><ele>8.25</ele><time>2026-04-03T08:10:30.999Z</time></trkpt><trkpt lat="39.359988739969346" lon="9.566103460517136"><ele>7.0</ele><time>2026-04-03T08:10:31.999Z</time></trkpt><trkpt lat="39.3600106414897" lon="9.566277762004676"><ele>7.0</ele><time>2026-04-03T08:10:32.999Z</time></trkpt><trkpt lat="39.36001178481814" lon="9.56645649489582"><ele>7.0</ele><time>2026-04-03T08:10:33.999Z</time></trkpt><trkpt lat="39.360030464812205" lon="9.56664017945241"><ele>7.0</ele><time>2026-04-03T08:10:34.999Z</time></trkpt><trkpt lat="39.360044520694956" lon="9.566831484177904"><ele>7.0</ele><time>2026-04-03T08:10:35.999Z</time></trkpt><trkpt lat="39.36004728403017" lon="9.567030959312397"><ele>7.0</ele><time>2026-04-03T08:10:36.999Z</time></trkpt><trkpt lat="39.36005728898176" lon="9.567231646899335"><ele>7.0</ele><time>2026-04-03T08:10:37.999Z</time></trkpt><trkpt lat="39.36006995165159" lon="9.567436821181717"><ele>7.0</ele><time>2026-04-03T08:10:38.999Z</time></trkpt><trkpt lat="39.36008628529835" lon="9.56764312215087"><ele>7.0</ele><time>2026-04-03T08:10:39.999Z</time></trkpt><trkpt lat="39.36009901964967" lon="9.567852160347343"><ele>7.0</ele><time>2026-04-03T08:10:40.999Z</time></trkpt><trkpt lat="39.36011291156378" lon="9.568061444186293"><ele>7.0</ele><time>2026-04-03T08:10:41.999Z</time></trkpt><trkpt lat="39.360129141305" lon="9.56827256900914"><ele>7.0</ele><time>2026-04-03T08:10:42.999Z</time></trkpt><trkpt lat="39.36014331860651" lon="9.568484308197043"><ele>7.0</ele><time>2026-04-03T08:10:43.998Z</time></trkpt><trkpt lat="39.3601543972424" lon="9.568692290070889"><ele>7.0</ele><time>2026-04-03T08:10:44.998Z</time></trkpt><trkpt lat="39.360170536227244" lon="9.568903536314268"><ele>7.0</ele><time>2026-04-03T08:10:45.998Z</time></trkpt><trkpt lat="39.36018181081843" lon="9.56910892822511"><ele>7.0</ele><time>2026-04-03T08:10:46.998Z</time></trkpt><trkpt lat="39.36021051670463" lon="9.569297629104959"><ele>7.0</ele><time>2026-04-03T08:10:47.998Z</time></trkpt><trkpt lat="39.360261627322" lon="9.569451749425145"><ele>7.0</ele><time>2026-04-03T08:10:48.998Z</time></trkpt><trkpt lat="39.36033700710387" lon="9.569585490473532"><ele>8.0</ele><time>2026-04-03T08:10:49.998Z</time></trkpt><trkpt lat="39.360435925346394" lon="9.569699959949219"><ele>9.0</ele><time>2026-04-03T08:10:50.998Z</time></trkpt><trkpt lat="39.36055701263762" lon="9.56977781273047"><ele>10.0</ele><time>2026-04-03T08:10:51.998Z</time></trkpt><trkpt lat="39.36069317363219" lon="9.569842624498639"><ele>11.0</ele><time>2026-04-03T08:10:52.998Z</time></trkpt><trkpt lat="39.36081613220575" lon="9.569935534729128"><ele>11.0</ele><time>2026-04-03T08:10:53.998Z</time></trkpt><trkpt lat="39.360909850980285" lon="9.57007375727276"><ele>11.0</ele><time>2026-04-03T08:10:54.998Z</time></trkpt><trkpt lat="39.360990729953755" lon="9.570248433624087"><ele>11.0</ele><time>2026-04-03T08:10:55.998Z</time></trkpt><trkpt lat="39.3610595387032" lon="9.570424673053903"><ele>12.0</ele><time>2026-04-03T08:10:56.998Z</time></trkpt><trkpt lat="39.361128318980406" lon="9.570592998919711"><ele>13.0</ele><time>2026-04-03T08:10:57.998Z</time></trkpt><trkpt lat="39.36116591362066" lon="9.570776593261467"><ele>14.0</ele><time>2026-04-03T08:10:58.998Z</time></trkpt><trkpt lat="39.3612144097707" lon="9.570956028612107"><ele>15.0</ele><time>2026-04-03T08:10:59.999Z</time></trkpt><trkpt lat="39.36125373337382" lon="9.571139266984154"><ele>15.333333333333332</ele><time>2026-04-03T08:11:00.999Z</time></trkpt><trkpt lat="39.36131073515566" lon="9.571322417753082"><ele>15.666666666666666</ele><time>2026-04-03T08:11:01.999Z</time></trkpt><trkpt lat="39.361384455493166" lon="9.571513854421621"><ele>16.0</ele><time>2026-04-03T08:11:02.999Z</time></trkpt><trkpt lat="39.36147758355298" lon="9.571713115476928"><ele>16.0</ele><time>2026-04-03T08:11:03.999Z</time></trkpt><trkpt lat="39.36158697900827" lon="9.571926951270171"><ele>16.0</ele><time>2026-04-03T08:11:04.999Z</time></trkpt><trkpt lat="39.36170611275749" lon="9.572156173967388"><ele>16.0</ele><time>2026-04-03T08:11:05.999Z</time></trkpt><trkpt lat="39.36182593416546" lon="9.572385730661683"><ele>16.333333333333332</ele><time>2026-04-03T08:11:06.999Z</time></trkpt><trkpt lat="39.36194589664368" lon="9.572610919378636"><ele>16.666666666666668</ele><time>2026-04-03T08:11:07.999Z</time></trkpt><trkpt lat="39.36206989828607" lon="9.572848124012992"><ele>17.0</ele><time>2026-04-03T08:11:08.999Z</time></trkpt><trkpt lat="39.36219835956912" lon="9.573098063061387"><ele>17.0</ele><time>2026-04-03T08:11:09.999Z</time></trkpt><trkpt lat="39.36233006949291" lon="9.573359064791068"><ele>17.0</ele><time>2026-04-03T08:11:10.999Z</time></trkpt><trkpt lat="39.36246525504665" lon="9.573625671394186"><ele>17.5</ele><time>2026-04-03T08:11:11.999Z</time></trkpt><trkpt lat="39.362602794944415" lon="9.57388836548382"><ele>18.0</ele><time>2026-04-03T08:11:12.999Z</time></trkpt><trkpt lat="39.362739178103794" lon="9.574148287209427"><ele>18.0</ele><time>2026-04-03T08:11:13.999Z</time></trkpt><trkpt lat="39.36287267275789" lon="9.574406138656464"><ele>18.0</ele><time>2026-04-03T08:11:14.999Z</time></trkpt><trkpt lat="39.363003021420006" lon="9.574658475389795"><ele>17.5</ele><time>2026-04-03T08:11:15.999Z</time></trkpt><trkpt lat="39.36313151299766" lon="9.57490694323436"><ele>17.0</ele><time>2026-04-03T08:11:16.999Z</time></trkpt><trkpt lat="39.36325618324749" lon="9.57515317934352"><ele>17.333333333333336</ele><time>2026-04-03T08:11:17.999Z</time></trkpt><trkpt lat="39.36337676733617" lon="9.575391080798722"><ele>17.666666666666668</ele><time>2026-04-03T08:11:18.999Z</time></trkpt><trkpt lat="39.36349175455047" lon="9.575614919182218"><ele>18.0</ele><time>2026-04-03T08:11:19.999Z</time></trkpt><trkpt lat="39.36360219541894" lon="9.575825510350738"><ele>18.0</ele><time>2026-04-03T08:11:20.999Z</time></trkpt><trkpt lat="39.36370019500599" lon="9.576021600615126"><ele>18.0</ele><time>2026-04-03T08:11:21.999Z</time></trkpt><trkpt lat="39.36379657878124" lon="9.576207642507496"><ele>18.0</ele><time>2026-04-03T08:11:22.999Z</time></trkpt><trkpt lat="39.36388755282738" lon="9.576380552194296"><ele>18.333333333333332</ele><time>2026-04-03T08:11:23.999Z</time></trkpt><trkpt lat="39.36397246568106" lon="9.576541844857104"><ele>18.666666666666664</ele><time>2026-04-03T08:11:24.999Z</time></trkpt><trkpt lat="39.36405409472039" lon="9.57672204184833"><ele>19.0</ele><time>2026-04-03T08:11:25.999Z</time></trkpt><trkpt lat="39.36414962283241" lon="9.576905042165274"><ele>19.0</ele><time>2026-04-03T08:11:26.999Z</time></trkpt><trkpt lat="39.36425449478486" lon="9.577093557255361"><ele>19.0</ele><time>2026-04-03T08:11:27.999Z</time></trkpt><trkpt lat="39.36436420467575" lon="9.5772968702683"><ele>19.0</ele><time>2026-04-03T08:11:28.999Z</time></trkpt><trkpt lat="39.36446999696875" lon="9.577500009384098"><ele>19.0</ele><time>2026-04-03T08:11:29.999Z</time></trkpt><trkpt lat="39.36457128854516" lon="9.577707870811928"><ele>19.0</ele><time>2026-04-03T08:11:30.999Z</time></trkpt><trkpt lat="39.364670030602454" lon="9.577911355523154"><ele>19.0</ele><time>2026-04-03T08:11:31.999Z</time></trkpt><trkpt lat="39.364769784118636" lon="9.578114675069857"><ele>18.666666666666664</ele><time>2026-04-03T08:11:32.999Z</time></trkpt><trkpt lat="39.36487149980893" lon="9.578312784244837"><ele>18.333333333333332</ele><time>2026-04-03T08:11:33.999Z</time></trkpt><trkpt lat="39.36497347640988" lon="9.578510589487266"><ele>18.0</ele><time>2026-04-03T08:11:34.999Z</time></trkpt><trkpt lat="39.36507483124386" lon="9.578709348390886"><ele>17.333333333333332</ele><time>2026-04-03T08:11:35.999Z</time></trkpt><trkpt lat="39.36517493817846" lon="9.578908916243465"><ele>16.666666666666664</ele><time>2026-04-03T08:11:36.999Z</time></trkpt><trkpt lat="39.36527762679796" lon="9.579107363468074"><ele>16.0</ele><time>2026-04-03T08:11:37.999Z</time></trkpt><trkpt lat="39.36538314783092" lon="9.579309309873029"><ele>16.0</ele><time>2026-04-03T08:11:38.999Z</time></trkpt><trkpt lat="39.36548896055605" lon="9.579516014623627"><ele>16.0</ele><time>2026-04-03T08:11:39.999Z</time></trkpt><trkpt lat="39.36559654696647" lon="9.579724851980083"><ele>16.0</ele><time>2026-04-03T08:11:40.999Z</time></trkpt><trkpt lat="39.365706952652886" lon="9.57993840059072"><ele>15.333333333333332</ele><time>2026-04-03T08:11:41.999Z</time></trkpt><trkpt lat="39.36581602247826" lon="9.580152722387531"><ele>14.666666666666668</ele><time>2026-04-03T08:11:42.999Z</time></trkpt><trkpt lat="39.36592636819403" lon="9.580370391290895"><ele>14.0</ele><time>2026-04-03T08:11:43.999Z</time></trkpt><trkpt lat="39.366038590592375" lon="9.580585273484347"><ele>13.333333333333334</ele><time>2026-04-03T08:11:44.999Z</time></trkpt><trkpt lat="39.36614809032045" lon="9.580800685538922"><ele>12.666666666666668</ele><time>2026-04-03T08:11:45.999Z</time></trkpt><trkpt lat="39.36625705713373" lon="9.58101623433623"><ele>12.0</ele><time>2026-04-03T08:11:46.999Z</time></trkpt><trkpt lat="39.36636497965994" lon="9.581230223600734"><ele>13.333333333333332</ele><time>2026-04-03T08:11:47.999Z</time></trkpt><trkpt lat="39.36647318343438" lon="9.581441556026759"><ele>14.666666666666666</ele><time>2026-04-03T08:11:48.999Z</time></trkpt><trkpt lat="39.36658128363706" lon="9.581652208647412"><ele>16.0</ele><time>2026-04-03T08:11:49.999Z</time></trkpt><trkpt lat="39.36668966168572" lon="9.581860678016243"><ele>15.0</ele><time>2026-04-03T08:11:50.999Z</time></trkpt><trkpt lat="39.366797225566984" lon="9.582070611869849"><ele>14.0</ele><time>2026-04-03T08:11:51.999Z</time></trkpt><trkpt lat="39.36690690225738" lon="9.582279885738604"><ele>13.0</ele><time>2026-04-03T08:11:52.999Z</time></trkpt><trkpt lat="39.36702020640838" lon="9.58248893199294"><ele>13.0</ele><time>2026-04-03T08:11:53.999Z</time></trkpt><trkpt lat="39.36713960695778" lon="9.58269460081931"><ele>13.0</ele><time>2026-04-03T08:11:54.999Z</time></trkpt><trkpt lat="39.367259113753" lon="9.582900831188455"><ele>13.0</ele><time>2026-04-03T08:11:55.999Z</time></trkpt><trkpt lat="39.367378598168685" lon="9.58310275711244"><ele>13.333333333333332</ele><time>2026-04-03T08:11:56.999Z</time></trkpt><trkpt lat="39.36750046623911" lon="9.583302890144518"><ele>13.666666666666668</ele><time>2026-04-03T08:11:57.999Z</time></trkpt><trkpt lat="39.367624616341594" lon="9.58349672829095"><ele>14.0</ele><time>2026-04-03T08:11:58.999Z</time></trkpt><trkpt lat="39.36775100996609" lon="9.583688012806189"><ele>14.0</ele><time>2026-04-03T08:11:59.999Z</time></trkpt><trkpt lat="39.36787996420394" lon="9.583877207080159"><ele>14.0</ele><time>2026-04-03T08:12:00.999Z</time></trkpt><trkpt lat="39.368012966290415" lon="9.584061211787025"><ele>14.0</ele><time>2026-04-03T08:12:01.999Z</time></trkpt><trkpt lat="39.36814854838753" lon="9.584240367493436"><ele>13.666666666666668</ele><time>2026-04-03T08:12:02.999Z</time></trkpt><trkpt lat="39.36828731459287" lon="9.584415107387668"><ele>13.333333333333332</ele><time>2026-04-03T08:12:03.999Z</time></trkpt><trkpt lat="39.36842682167395" lon="9.584589260304218"><ele>13.0</ele><time>2026-04-03T08:12:04.999Z</time></trkpt><trkpt lat="39.36856989527462" lon="9.58476258885262"><ele>13.0</ele><time>2026-04-03T08:12:05.999Z</time></trkpt><trkpt lat="39.36871286310011" lon="9.584926178141602"><ele>13.0</ele><time>2026-04-03T08:12:06.999Z</time></trkpt><trkpt lat="39.36885375319789" lon="9.585072627090131"><ele>13.0</ele><time>2026-04-03T08:12:07.999Z</time></trkpt><trkpt lat="39.368996103471176" lon="9.58521309935575"><ele>12.666666666666666</ele><time>2026-04-03T08:12:08.999Z</time></trkpt><trkpt lat="39.36914021088529" lon="9.585356594303345"><ele>12.333333333333332</ele><time>2026-04-03T08:12:09.999Z</time></trkpt><trkpt lat="39.36928962494394" lon="9.585502158649891"><ele>12.0</ele><time>2026-04-03T08:12:10.999Z</time></trkpt><trkpt lat="39.36945077619638" lon="9.58564200729328"><ele>12.0</ele><time>2026-04-03T08:12:11.999Z</time></trkpt><trkpt lat="39.369620695265" lon="9.58577361749663"><ele>12.0</ele><time>2026-04-03T08:12:13Z</time></trkpt><trkpt lat="39.36979284027424" lon="9.585903637112208"><ele>12.0</ele><time>2026-04-03T08:12:14Z</time></trkpt><trkpt lat="39.36996847555963" lon="9.586031140944112"><ele>12.0</ele><time>2026-04-03T08:12:15Z</time></trkpt><trkpt lat="39.37014318468091" lon="9.586153503832405"><ele>12.0</ele><time>2026-04-03T08:12:16Z</time></trkpt><trkpt lat="39.37031628996494" lon="9.586268273900192"><ele>12.0</ele><time>2026-04-03T08:12:17Z</time></trkpt><trkpt lat="39.37049145461728" lon="9.586381109162378"><ele>11.666666666666666</ele><time>2026-04-03T08:12:18Z</time></trkpt><trkpt lat="39.37066610920608" lon="9.586494671266914"><ele>11.333333333333332</ele><time>2026-04-03T08:12:19Z</time></trkpt><trkpt lat="39.370845208233" lon="9.586604375357329"><ele>11.0</ele><time>2026-04-03T08:12:20Z</time></trkpt><trkpt lat="39.371048623514454" lon="9.586710920175546"><ele>11.0</ele><time>2026-04-03T08:12:21Z</time></trkpt><trkpt lat="39.371253847137815" lon="9.586855575811718"><ele>11.0</ele><time>2026-04-03T08:12:22Z</time></trkpt><trkpt lat="39.37148946746692" lon="9.586959903381693"><ele>9.0</ele><time>2026-04-03T08:12:23Z</time></trkpt><trkpt lat="39.3717176471887" lon="9.587103850320876"><ele>7.0</ele><time>2026-04-03T08:12:24Z</time></trkpt><trkpt lat="39.371949824086634" lon="9.587253865134604"><ele>7.0</ele><time>2026-04-03T08:12:25Z</time></trkpt><trkpt lat="39.37218876194674" lon="9.58741308918824"><ele>7.0</ele><time>2026-04-03T08:12:26Z</time></trkpt><trkpt lat="39.37243931805293" lon="9.587580442577313"><ele>7.0</ele><time>2026-04-03T08:12:27Z</time></trkpt><trkpt lat="39.37270288003925" lon="9.587755010664267"><ele>7.0</ele><time>2026-04-03T08:12:28Z</time></trkpt><trkpt lat="39.3729767578818" lon="9.587935817061965"><ele>7.0</ele><time>2026-04-03T08:12:29Z</time></trkpt><trkpt lat="39.37324144370757" lon="9.58810111707206"><ele>7.0</ele><time>2026-04-03T08:12:30Z</time></trkpt><trkpt lat="39.37350175009536" lon="9.58826709719847"><ele>7.0</ele><time>2026-04-03T08:12:31Z</time></trkpt><trkpt lat="39.37376812969569" lon="9.588437941073709"><ele>7.0</ele><time>2026-04-03T08:12:32Z</time></trkpt><trkpt lat="39.37404497511945" lon="9.588611788629457"><ele>9.0</ele><time>2026-04-03T08:12:33Z</time></trkpt><trkpt lat="39.37433204944539" lon="9.588786564764115"><ele>11.0</ele><time>2026-04-03T08:12:34Z</time></trkpt><trkpt lat="39.37461804325033" lon="9.58896325760279"><ele>11.0</ele><time>2026-04-03T08:12:35Z</time></trkpt><trkpt lat="39.374912375429936" lon="9.589154105627609"><ele>11.0</ele><time>2026-04-03T08:12:36Z</time></trkpt><trkpt lat="39.375218819569845" lon="9.589348845926208"><ele>12.5</ele><time>2026-04-03T08:12:37Z</time></trkpt><trkpt lat="39.37553494689782" lon="9.589547367098119"><ele>14.0</ele><time>2026-04-03T08:12:38Z</time></trkpt><trkpt lat="39.3758656733518" lon="9.589742774512477"><ele>14.0</ele><time>2026-04-03T08:12:39Z</time></trkpt><trkpt lat="39.37617783349786" lon="9.589936675421622"><ele>14.0</ele><time>2026-04-03T08:12:40Z</time></trkpt><trkpt lat="39.376460597418664" lon="9.590114387815687"><ele>14.0</ele><time>2026-04-03T08:12:41Z</time></trkpt><trkpt lat="39.37673306971235" lon="9.590288138893992"><ele>14.0</ele><time>2026-04-03T08:12:42Z</time></trkpt><trkpt lat="39.37698567772483" lon="9.590444016944888"><ele>15.5</ele><time>2026-04-03T08:12:43Z</time></trkpt><trkpt lat="39.37721641412517" lon="9.590594507570033"><ele>17.0</ele><time>2026-04-03T08:12:44Z</time></trkpt><trkpt lat="39.37743319534937" lon="9.590727162556135"><ele>17.0</ele><time>2026-04-03T08:12:45Z</time></trkpt><trkpt lat="39.377635712769944" lon="9.590868652115642"><ele>17.0</ele><time>2026-04-03T08:12:46Z</time></trkpt><trkpt lat="39.37783733410845" lon="9.590999290231881"><ele>17.0</ele><time>2026-04-03T08:12:47Z</time></trkpt><trkpt lat="39.37802557790393" lon="9.591109523904183"><ele>17.0</ele><time>2026-04-03T08:12:48Z</time></trkpt><trkpt lat="39.37821578487329" lon="9.591230336158953"><ele>17.0</ele><time>2026-04-03T08:12:49Z</time></trkpt><trkpt lat="39.37840120250437" lon="9.591345007599472"><ele>17.0</ele><time>2026-04-03T08:12:49.999Z</time></trkpt><trkpt lat="39.378542864676525" lon="9.591417766337877"><ele>17.0</ele><time>2026-04-03T08:12:50.999Z</time></trkpt><trkpt lat="39.37866367736423" lon="9.591491000113596"><ele>17.0</ele><time>2026-04-03T08:12:51.999Z</time></trkpt><trkpt lat="39.37883169646155" lon="9.591598320618148"><ele>17.333333333333336</ele><time>2026-04-03T08:12:52.999Z</time></trkpt><trkpt lat="39.37900084892216" lon="9.591704915629117"><ele>17.666666666666668</ele><time>2026-04-03T08:12:53.999Z</time></trkpt><trkpt lat="39.3791658715312" lon="9.591810399032882"><ele>18.0</ele><time>2026-04-03T08:12:54.999Z</time></trkpt><trkpt lat="39.379331983197766" lon="9.59191899187037"><ele>18.0</ele><time>2026-04-03T08:12:55.999Z</time></trkpt><trkpt lat="39.3794978268052" lon="9.592026388597986"><ele>18.0</ele><time>2026-04-03T08:12:56.999Z</time></trkpt><trkpt lat="39.379667315289296" lon="9.592131907296482"><ele>18.0</ele><time>2026-04-03T08:12:57.999Z</time></trkpt><trkpt lat="39.37983724906215" lon="9.592236044075163"><ele>18.0</ele><time>2026-04-03T08:12:58.999Z</time></trkpt><trkpt lat="39.380010188042014" lon="9.592343114223748"><ele>18.0</ele><time>2026-04-03T08:12:59.999Z</time></trkpt><trkpt lat="39.380184953574044" lon="9.592445936435338"><ele>18.0</ele><time>2026-04-03T08:13:00.999Z</time></trkpt><trkpt lat="39.38035901077948" lon="9.592546305252387"><ele>18.666666666666668</ele><time>2026-04-03T08:13:01.999Z</time></trkpt><trkpt lat="39.380532458456166" lon="9.592646274691779"><ele>19.333333333333336</ele><time>2026-04-03T08:13:02.999Z</time></trkpt><trkpt lat="39.38070543178846" lon="9.59274457983927"><ele>20.0</ele><time>2026-04-03T08:13:03.999Z</time></trkpt><trkpt lat="39.38087700091924" lon="9.592842320859518"><ele>20.0</ele><time>2026-04-03T08:13:04.999Z</time></trkpt><trkpt lat="39.381039363050924" lon="9.592943625454907"><ele>20.0</ele><time>2026-04-03T08:13:05.999Z</time></trkpt><trkpt lat="39.3811943576715" lon="9.593045919498788"><ele>20.0</ele><time>2026-04-03T08:13:06.999Z</time></trkpt><trkpt lat="39.38133638580068" lon="9.593146211788689"><ele>20.333333333333336</ele><time>2026-04-03T08:13:07.999Z</time></trkpt><trkpt lat="39.38147135354566" lon="9.593245891420969"><ele>20.666666666666668</ele><time>2026-04-03T08:13:08.999Z</time></trkpt><trkpt lat="39.38160013713314" lon="9.59334265367971"><ele>21.0</ele><time>2026-04-03T08:13:09.999Z</time></trkpt><trkpt lat="39.38173462072536" lon="9.593435300914255"><ele>21.0</ele><time>2026-04-03T08:13:10.999Z</time></trkpt><trkpt lat="39.381875784451296" lon="9.593516908455639"><ele>21.0</ele><time>2026-04-03T08:13:11.999Z</time></trkpt><trkpt lat="39.382016777450566" lon="9.593606660197704"><ele>21.0</ele><time>2026-04-03T08:13:12.999Z</time></trkpt><trkpt lat="39.38215691250124" lon="9.593702151192007"><ele>21.666666666666668</ele><time>2026-04-03T08:13:13.999Z</time></trkpt><trkpt lat="39.382305941983645" lon="9.593786738382569"><ele>22.333333333333336</ele><time>2026-04-03T08:13:14.999Z</time></trkpt><trkpt lat="39.382464266204686" lon="9.593872983605538"><ele>23.0</ele><time>2026-04-03T08:13:15.999Z</time></trkpt><trkpt lat="39.38261604672753" lon="9.593958412279118"><ele>23.0</ele><time>2026-04-03T08:13:16.999Z</time></trkpt><trkpt lat="39.38276845110831" lon="9.594039643676073"><ele>23.0</ele><time>2026-04-03T08:13:17.999Z</time></trkpt><trkpt lat="39.382932944232984" lon="9.594115060105368"><ele>23.0</ele><time>2026-04-03T08:13:18.999Z</time></trkpt><trkpt lat="39.38309324546528" lon="9.594192126365657"><ele>23.333333333333336</ele><time>2026-04-03T08:13:20Z</time></trkpt><trkpt lat="39.38325462852921" lon="9.594276967726044"><ele>23.666666666666668</ele><time>2026-04-03T08:13:21Z</time></trkpt><trkpt lat="39.38340845344983" lon="9.59439738966567"><ele>24.0</ele><time>2026-04-03T08:13:22Z</time></trkpt><trkpt lat="39.38354856090289" lon="9.594542573527708"><ele>23.666666666666668</ele><time>2026-04-03T08:13:23Z</time></trkpt><trkpt lat="39.383709964095765" lon="9.594649278202231"><ele>23.333333333333336</ele><time>2026-04-03T08:13:24Z</time></trkpt><trkpt lat="39.383878056740585" lon="9.59475733223325"><ele>23.0</ele><time>2026-04-03T08:13:25Z</time></trkpt><trkpt lat="39.38404990778479" lon="9.594870182219614"><ele>23.0</ele><time>2026-04-03T08:13:26Z</time></trkpt><trkpt lat="39.38423008002552" lon="9.594984289677265"><ele>23.0</ele><time>2026-04-03T08:13:27Z</time></trkpt><trkpt lat="39.38441078244633" lon="9.59510636083085"><ele>23.0</ele><time>2026-04-03T08:13:28Z</time></trkpt><trkpt lat="39.38459889163458" lon="9.595229527797617"><ele>22.333333333333336</ele><time>2026-04-03T08:13:29Z</time></trkpt><trkpt lat="39.38479229262527" lon="9.595347948876029"><ele>21.666666666666668</ele><time>2026-04-03T08:13:30Z</time></trkpt><trkpt lat="39.38498225277163" lon="9.59545964018127"><ele>21.0</ele><time>2026-04-03T08:13:31Z</time></trkpt><trkpt lat="39.38517351152921" lon="9.595583280032765"><ele>21.0</ele><time>2026-04-03T08:13:32Z</time></trkpt><trkpt lat="39.385354732012566" lon="9.595726022198582"><ele>21.0</ele><time>2026-04-03T08:13:33Z</time></trkpt><trkpt lat="39.38552351845647" lon="9.595890290850663"><ele>21.0</ele><time>2026-04-03T08:13:34Z</time></trkpt><trkpt lat="39.38569415303485" lon="9.596087382105049"><ele>19.5</ele><time>2026-04-03T08:13:35Z</time></trkpt><trkpt lat="39.38583873051905" lon="9.596296545134933"><ele>18.0</ele><time>2026-04-03T08:13:36Z</time></trkpt><trkpt lat="39.386070334104495" lon="9.596522732357386"><ele>18.0</ele><time>2026-04-03T08:13:37Z</time></trkpt><trkpt lat="39.386251731918925" lon="9.596743222217347"><ele>18.0</ele><time>2026-04-03T08:13:38Z</time></trkpt><trkpt lat="39.386428208964574" lon="9.596965603695788"><ele>16.5</ele><time>2026-04-03T08:13:39Z</time></trkpt><trkpt lat="39.386608202478385" lon="9.597190730808045"><ele>15.0</ele><time>2026-04-03T08:13:40Z</time></trkpt><trkpt lat="39.386788799662256" lon="9.597418307601705"><ele>15.0</ele><time>2026-04-03T08:13:41Z</time></trkpt><trkpt lat="39.38696900983305" lon="9.597646757899826"><ele>15.0</ele><time>2026-04-03T08:13:42Z</time></trkpt><trkpt lat="39.38714880913425" lon="9.597879956706594"><ele>15.0</ele><time>2026-04-03T08:13:43Z</time></trkpt><trkpt lat="39.38732960690626" lon="9.598113710121345"><ele>15.0</ele><time>2026-04-03T08:13:44Z</time></trkpt><trkpt lat="39.38751003511926" lon="9.598347566941262"><ele>15.0</ele><time>2026-04-03T08:13:45Z</time></trkpt><trkpt lat="39.38769069907274" lon="9.598582864243529"><ele>15.0</ele><time>2026-04-03T08:13:46Z</time></trkpt><trkpt lat="39.38787375245838" lon="9.598817931791004"><ele>15.0</ele><time>2026-04-03T08:13:47Z</time></trkpt><trkpt lat="39.38805751246138" lon="9.599050504216148"><ele>15.0</ele><time>2026-04-03T08:13:48Z</time></trkpt><trkpt lat="39.38823798522394" lon="9.599282667554542"><ele>14.5</ele><time>2026-04-03T08:13:49Z</time></trkpt><trkpt lat="39.38841622153639" lon="9.599515399346162"><ele>14.0</ele><time>2026-04-03T08:13:50Z</time></trkpt><trkpt lat="39.38859338648337" lon="9.59975026799437"><ele>14.0</ele><time>2026-04-03T08:13:51Z</time></trkpt><trkpt lat="39.388776327207914" lon="9.599978636577516"><ele>14.0</ele><time>2026-04-03T08:13:52Z</time></trkpt><trkpt lat="39.38895879352617" lon="9.600203685191602"><ele>14.0</ele><time>2026-04-03T08:13:53Z</time></trkpt><trkpt lat="39.389135955906035" lon="9.600429549201314"><ele>14.0</ele><time>2026-04-03T08:13:54Z</time></trkpt><trkpt lat="39.389308545444656" lon="9.600649839979486"><ele>14.0</ele><time>2026-04-03T08:13:55Z</time></trkpt><trkpt lat="39.38947596408648" lon="9.600868022799048"><ele>14.0</ele><time>2026-04-03T08:13:56Z</time></trkpt><trkpt lat="39.389641405940445" lon="9.60108345296866"><ele>14.0</ele><time>2026-04-03T08:13:57Z</time></trkpt><trkpt lat="39.38980731754632" lon="9.601296074557904"><ele>14.0</ele><time>2026-04-03T08:13:58Z</time></trkpt><trkpt lat="39.389970550623595" lon="9.60150591786298"><ele>14.0</ele><time>2026-04-03T08:13:59Z</time></trkpt><trkpt lat="39.39013068247682" lon="9.601714403978347"><ele>14.0</ele><time>2026-04-03T08:14:00Z</time></trkpt><trkpt lat="39.39029132893507" lon="9.601923277484511"><ele>14.5</ele><time>2026-04-03T08:14:01Z</time></trkpt><trkpt lat="39.39045393225623" lon="9.602131761183022"><ele>15.0</ele><time>2026-04-03T08:14:02Z</time></trkpt><trkpt lat="39.3906180480077" lon="9.602341211618336"><ele>15.0</ele><time>2026-04-03T08:14:03Z</time></trkpt><trkpt lat="39.390782500356224" lon="9.602550995022478"><ele>15.0</ele><time>2026-04-03T08:14:04Z</time></trkpt><trkpt lat="39.390946164238954" lon="9.602758500502544"><ele>13.5</ele><time>2026-04-03T08:14:05Z</time></trkpt><trkpt lat="39.3911079198493" lon="9.602963964814876"><ele>12.0</ele><time>2026-04-03T08:14:06Z</time></trkpt><trkpt lat="39.39126918793978" lon="9.603170901635623"><ele>13.5</ele><time>2026-04-03T08:14:07Z</time></trkpt><trkpt lat="39.39142714155023" lon="9.603377678521815"><ele>15.0</ele><time>2026-04-03T08:14:08Z</time></trkpt><trkpt lat="39.391586145297715" lon="9.603585889914857"><ele>14.0</ele><time>2026-04-03T08:14:09Z</time></trkpt><trkpt lat="39.39174755815228" lon="9.603795358324032"><ele>13.0</ele><time>2026-04-03T08:14:10Z</time></trkpt><trkpt lat="39.39189880908058" lon="9.603990515795484"><ele>12.0</ele><time>2026-04-03T08:14:11Z</time></trkpt><trkpt lat="39.39204638532235" lon="9.604184705106553"><ele>12.666666666666668</ele><time>2026-04-03T08:14:12Z</time></trkpt><trkpt lat="39.39219254742693" lon="9.604377725917972"><ele>13.333333333333334</ele><time>2026-04-03T08:14:13Z</time></trkpt><trkpt lat="39.392340024281474" lon="9.60457057809316"><ele>14.0</ele><time>2026-04-03T08:14:14Z</time></trkpt><trkpt lat="39.392482202471456" lon="9.604757687688693"><ele>12.666666666666668</ele><time>2026-04-03T08:14:15Z</time></trkpt><trkpt lat="39.39262305373278" lon="9.604931047237153"><ele>11.333333333333334</ele><time>2026-04-03T08:14:16Z</time></trkpt><trkpt lat="39.39276755775836" lon="9.605089267354787"><ele>10.0</ele><time>2026-04-03T08:14:17Z</time></trkpt><trkpt lat="39.392930680470464" lon="9.605218952451226"><ele>9.666666666666668</ele><time>2026-04-03T08:14:18Z</time></trkpt><trkpt lat="39.3931027808672" lon="9.605326356616262"><ele>9.333333333333334</ele><time>2026-04-03T08:14:19Z</time></trkpt><trkpt lat="39.39328482231496" lon="9.605402107193699"><ele>9.0</ele><time>2026-04-03T08:14:20Z</time></trkpt><trkpt lat="39.39348023434174" lon="9.605451059862073"><ele>9.0</ele><time>2026-04-03T08:14:21Z</time></trkpt><trkpt lat="39.393691446233596" lon="9.605475143539163"><ele>9.0</ele><time>2026-04-03T08:14:22Z</time></trkpt><trkpt lat="39.39389871179697" lon="9.605488883274026"><ele>9.0</ele><time>2026-04-03T08:14:23Z</time></trkpt><trkpt lat="39.39410385402264" lon="9.60550838242127"><ele>9.333333333333334</ele><time>2026-04-03T08:14:24Z</time></trkpt><trkpt lat="39.39430911094112" lon="9.605541750543296"><ele>9.666666666666668</ele><time>2026-04-03T08:14:25Z</time></trkpt><trkpt lat="39.39451658631444" lon="9.605575713203567"><ele>10.0</ele><time>2026-04-03T08:14:26Z</time></trkpt><trkpt lat="39.39472639138721" lon="9.605607336080654"><ele>10.0</ele><time>2026-04-03T08:14:27Z</time></trkpt><trkpt lat="39.39493778849732" lon="9.60563619108597"><ele>10.0</ele><time>2026-04-03T08:14:28Z</time></trkpt><trkpt lat="39.39514971302511" lon="9.605666501970695"><ele>10.0</ele><time>2026-04-03T08:14:29Z</time></trkpt><trkpt lat="39.39535983700109" lon="9.605695000831235"><ele>10.5</ele><time>2026-04-03T08:14:30Z</time></trkpt><trkpt lat="39.39558064892319" lon="9.605731810913042"><ele>11.0</ele><time>2026-04-03T08:14:31Z</time></trkpt><trkpt lat="39.39580750662795" lon="9.60577462635219"><ele>11.0</ele><time>2026-04-03T08:14:32Z</time></trkpt><trkpt lat="39.396042955912336" lon="9.605814556793947"><ele>11.0</ele><time>2026-04-03T08:14:33Z</time></trkpt><trkpt lat="39.39627847476913" lon="9.60584165108474"><ele>10.0</ele><time>2026-04-03T08:14:34Z</time></trkpt><trkpt lat="39.39651740831675" lon="9.605874453308548"><ele>9.0</ele><time>2026-04-03T08:14:35Z</time></trkpt><trkpt lat="39.39675866500045" lon="9.60590744410232"><ele>9.0</ele><time>2026-04-03T08:14:36Z</time></trkpt><trkpt lat="39.396989015083214" lon="9.605935053469942"><ele>9.0</ele><time>2026-04-03T08:14:37Z</time></trkpt><trkpt lat="39.39720966910683" lon="9.605941471983877"><ele>8.0</ele><time>2026-04-03T08:14:38Z</time></trkpt><trkpt lat="39.39743198297692" lon="9.605920850723814"><ele>7.0</ele><time>2026-04-03T08:14:39Z</time></trkpt><trkpt lat="39.39766255926375" lon="9.605873295991618"><ele>7.0</ele><time>2026-04-03T08:14:40Z</time></trkpt><trkpt lat="39.397907425001755" lon="9.605798904035579"><ele>7.0</ele><time>2026-04-03T08:14:41Z</time></trkpt><trkpt lat="39.39814823341522" lon="9.605707394777518"><ele>6.5</ele><time>2026-04-03T08:14:42Z</time></trkpt><trkpt lat="39.398376199931135" lon="9.605608810381014"><ele>6.0</ele><time>2026-04-03T08:14:43Z</time></trkpt><trkpt lat="39.39860640281514" lon="9.605542568888946"><ele>6.0</ele><time>2026-04-03T08:14:44Z</time></trkpt><trkpt lat="39.3988252944849" lon="9.605458792427099"><ele>6.0</ele><time>2026-04-03T08:14:45Z</time></trkpt><trkpt lat="39.39903789726555" lon="9.60535708262066"><ele>6.333333333333334</ele><time>2026-04-03T08:14:46Z</time></trkpt><trkpt lat="39.39925461347134" lon="9.605282209482441"><ele>6.666666666666667</ele><time>2026-04-03T08:14:47Z</time></trkpt><trkpt lat="39.39946427505232" lon="9.605199822974601"><ele>7.0</ele><time>2026-04-03T08:14:48Z</time></trkpt><trkpt lat="39.39966690628473" lon="9.60511381305159"><ele>6.333333333333334</ele><time>2026-04-03T08:14:49Z</time></trkpt><trkpt lat="39.3998643530265" lon="9.605024797367673"><ele>5.666666666666667</ele><time>2026-04-03T08:14:50Z</time></trkpt><trkpt lat="39.400060199531836" lon="9.604924411122612"><ele>5.0</ele><time>2026-04-03T08:14:51Z</time></trkpt><trkpt lat="39.40024495783672" lon="9.60482542444284"><ele>5.0</ele><time>2026-04-03T08:14:52Z</time></trkpt><trkpt lat="39.400427054901215" lon="9.604733030514495"><ele>5.0</ele><time>2026-04-03T08:14:53Z</time></trkpt><trkpt lat="39.40061223355162" lon="9.604633232570173"><ele>5.0</ele><time>2026-04-03T08:14:54Z</time></trkpt><trkpt lat="39.40079807641756" lon="9.604534187119928"><ele>5.0</ele><time>2026-04-03T08:14:55Z</time></trkpt><trkpt lat="39.400980370190595" lon="9.604427679755569"><ele>5.0</ele><time>2026-04-03T08:14:55.999Z</time></trkpt><trkpt lat="39.4011630843939" lon="9.60431385171718"><ele>5.0</ele><time>2026-04-03T08:14:56.999Z</time></trkpt><trkpt lat="39.4013514414098" lon="9.604191335896964"><ele>5.0</ele><time>2026-04-03T08:14:57.999Z</time></trkpt><trkpt lat="39.40153740784933" lon="9.604070350691908"><ele>5.0</ele><time>2026-04-03T08:14:58.999Z</time></trkpt><trkpt lat="39.40172252499761" lon="9.603954986071525"><ele>5.0</ele><time>2026-04-03T08:14:59.999Z</time></trkpt><trkpt lat="39.4019093797336" lon="9.603842553924892"><ele>5.0</ele><time>2026-04-03T08:15:00.999Z</time></trkpt><trkpt lat="39.40209423925978" lon="9.603724680358765"><ele>5.0</ele><time>2026-04-03T08:15:01.999Z</time></trkpt><trkpt lat="39.40228533677069" lon="9.603628698307022"><ele>5.0</ele><time>2026-04-03T08:15:02.999Z</time></trkpt><trkpt lat="39.40246274646528" lon="9.603490501354244"><ele>5.666666666666667</ele><time>2026-04-03T08:15:03.999Z</time></trkpt><trkpt lat="39.40264831527544" lon="9.603374493927886"><ele>6.333333333333334</ele><time>2026-04-03T08:15:04.999Z</time></trkpt><trkpt lat="39.40283517251933" lon="9.603261055968503"><ele>7.0</ele><time>2026-04-03T08:15:06Z</time></trkpt><trkpt lat="39.40302410528112" lon="9.603143495248393"><ele>7.0</ele><time>2026-04-03T08:15:07Z</time></trkpt><trkpt lat="39.40321066804501" lon="9.603025148391692"><ele>7.0</ele><time>2026-04-03T08:15:08Z</time></trkpt><trkpt lat="39.403401493689756" lon="9.602910055570538"><ele>7.0</ele><time>2026-04-03T08:15:09Z</time></trkpt><trkpt lat="39.40358917235736" lon="9.602797328340374"><ele>7.666666666666667</ele><time>2026-04-03T08:15:10Z</time></trkpt><trkpt lat="39.40377837610452" lon="9.602685422373998"><ele>8.333333333333334</ele><time>2026-04-03T08:15:11Z</time></trkpt><trkpt lat="39.40396141662359" lon="9.602573009625395"><ele>9.0</ele><time>2026-04-03T08:15:12Z</time></trkpt><trkpt lat="39.404140941299396" lon="9.602459158538695"><ele>9.0</ele><time>2026-04-03T08:15:13Z</time></trkpt><trkpt lat="39.40431285622736" lon="9.602351216202205"><ele>9.0</ele><time>2026-04-03T08:15:14Z</time></trkpt><trkpt lat="39.404481617296945" lon="9.602252504637494"><ele>9.0</ele><time>2026-04-03T08:15:15Z</time></trkpt><trkpt lat="39.404644364450704" lon="9.602152162672974"><ele>9.333333333333334</ele><time>2026-04-03T08:15:16Z</time></trkpt><trkpt lat="39.40480642623427" lon="9.602056224539247"><ele>9.666666666666668</ele><time>2026-04-03T08:15:17Z</time></trkpt><trkpt lat="39.40496530346829" lon="9.60195111736948"><ele>10.0</ele><time>2026-04-03T08:15:18Z</time></trkpt><trkpt lat="39.405116551997054" lon="9.601857635439789"><ele>10.0</ele><time>2026-04-03T08:15:19Z</time></trkpt><trkpt lat="39.40526837175666" lon="9.601750087692912"><ele>10.0</ele><time>2026-04-03T08:15:20Z</time></trkpt><trkpt lat="39.40540955717214" lon="9.601660069165428"><ele>10.0</ele><time>2026-04-03T08:15:21Z</time></trkpt><trkpt lat="39.40554933038991" lon="9.60156163154552"><ele>9.333333333333334</ele><time>2026-04-03T08:15:22Z</time></trkpt><trkpt lat="39.405713373400175" lon="9.601493375229243"><ele>8.666666666666666</ele><time>2026-04-03T08:15:23Z</time></trkpt><trkpt lat="39.4058503064101" lon="9.601399153364932"><ele>8.0</ele><time>2026-04-03T08:15:24Z</time></trkpt><trkpt lat="39.4059980371676" lon="9.601312112846964"><ele>8.0</ele><time>2026-04-03T08:15:25Z</time></trkpt><trkpt lat="39.40614834618731" lon="9.601218853200509"><ele>8.0</ele><time>2026-04-03T08:15:26Z</time></trkpt><trkpt lat="39.40629846430027" lon="9.601121025626052"><ele>8.0</ele><time>2026-04-03T08:15:27Z</time></trkpt><trkpt lat="39.40644919682836" lon="9.601018956890513"><ele>8.0</ele><time>2026-04-03T08:15:28Z</time></trkpt><trkpt lat="39.40660263927223" lon="9.600916648626676"><ele>8.0</ele><time>2026-04-03T08:15:29Z</time></trkpt><trkpt lat="39.40675908908462" lon="9.600816734983715"><ele>8.0</ele><time>2026-04-03T08:15:30Z</time></trkpt><trkpt lat="39.406910342050516" lon="9.600717799533369"><ele>8.0</ele><time>2026-04-03T08:15:31Z</time></trkpt><trkpt lat="39.40706862251541" lon="9.60061427536925"><ele>8.0</ele><time>2026-04-03T08:15:32Z</time></trkpt><trkpt lat="39.40722756725417" lon="9.600512205519772"><ele>8.0</ele><time>2026-04-03T08:15:33Z</time></trkpt><trkpt lat="39.407386843769814" lon="9.600409307556282"><ele>8.0</ele><time>2026-04-03T08:15:34Z</time></trkpt><trkpt lat="39.40754348125634" lon="9.600315160881443"><ele>8.0</ele><time>2026-04-03T08:15:35Z</time></trkpt><trkpt lat="39.40770237930882" lon="9.600212301877812"><ele>8.0</ele><time>2026-04-03T08:15:36Z</time></trkpt><trkpt lat="39.40786481796884" lon="9.600102069173504"><ele>7.333333333333333</ele><time>2026-04-03T08:15:37Z</time></trkpt><trkpt lat="39.40803037151497" lon="9.60000748346364"><ele>6.666666666666666</ele><time>2026-04-03T08:15:38Z</time></trkpt><trkpt lat="39.40819462150541" lon="9.599907770187432"><ele>6.0</ele><time>2026-04-03T08:15:39Z</time></trkpt><trkpt lat="39.40835798237594" lon="9.599806592100094"><ele>6.0</ele><time>2026-04-03T08:15:40Z</time></trkpt><trkpt lat="39.40852151872062" lon="9.599702090302856"><ele>6.0</ele><time>2026-04-03T08:15:41Z</time></trkpt><trkpt lat="39.40868832547801" lon="9.599596453176726"><ele>6.0</ele><time>2026-04-03T08:15:42Z</time></trkpt><trkpt lat="39.40885387766475" lon="9.599491580357537"><ele>5.666666666666667</ele><time>2026-04-03T08:15:43Z</time></trkpt><trkpt lat="39.409023198098765" lon="9.599386085944483"><ele>5.333333333333334</ele><time>2026-04-03T08:15:44Z</time></trkpt><trkpt lat="39.40919943630423" lon="9.599281119280215"><ele>5.0</ele><time>2026-04-03T08:15:45Z</time></trkpt><trkpt lat="39.40937879964251" lon="9.599166354044744"><ele>5.0</ele><time>2026-04-03T08:15:46Z</time></trkpt><trkpt lat="39.40955568890598" lon="9.599063473212922"><ele>5.0</ele><time>2026-04-03T08:15:47Z</time></trkpt><trkpt lat="39.40973575701899" lon="9.598952214394235"><ele>5.0</ele><time>2026-04-03T08:15:48Z</time></trkpt><trkpt lat="39.40992675178555" lon="9.598823876174835"><ele>4.666666666666667</ele><time>2026-04-03T08:15:49Z</time></trkpt><trkpt lat="39.41011005821916" lon="9.5987169464255"><ele>4.333333333333333</ele><time>2026-04-03T08:15:50Z</time></trkpt><trkpt lat="39.41029430266729" lon="9.598603750721903"><ele>4.0</ele><time>2026-04-03T08:15:51Z</time></trkpt><trkpt lat="39.41047036148504" lon="9.59849814020072"><ele>4.333333333333333</ele><time>2026-04-03T08:15:52Z</time></trkpt><trkpt lat="39.41064195663348" lon="9.598392814163402"><ele>4.666666666666667</ele><time>2026-04-03T08:15:53Z</time></trkpt><trkpt lat="39.41080563491029" lon="9.598283562747781"><ele>5.0</ele><time>2026-04-03T08:15:54Z</time></trkpt><trkpt lat="39.41095947712794" lon="9.598185065927964"><ele>5.0</ele><time>2026-04-03T08:15:55Z</time></trkpt><trkpt lat="39.41110963659632" lon="9.59809048560623"><ele>5.0</ele><time>2026-04-03T08:15:56Z</time></trkpt><trkpt lat="39.41124982390416" lon="9.598000241162314"><ele>5.0</ele><time>2026-04-03T08:15:57Z</time></trkpt><trkpt lat="39.41138877096361" lon="9.597912593856751"><ele>5.0</ele><time>2026-04-03T08:15:58Z</time></trkpt><trkpt lat="39.41155060893482" lon="9.597815286697035"><ele>5.0</ele><time>2026-04-03T08:15:59Z</time></trkpt><trkpt lat="39.41169866111204" lon="9.597724444952352"><ele>5.0</ele><time>2026-04-03T08:16:00Z</time></trkpt><trkpt lat="39.41184724336609" lon="9.597640545927916"><ele>5.0</ele><time>2026-04-03T08:16:01Z</time></trkpt><trkpt lat="39.41199769397941" lon="9.597549612331754"><ele>5.0</ele><time>2026-04-03T08:16:02Z</time></trkpt><trkpt lat="39.41214743333118" lon="9.597442794192295"><ele>5.0</ele><time>2026-04-03T08:16:03Z</time></trkpt><trkpt lat="39.412298953417505" lon="9.597350733299423"><ele>4.333333333333334</ele><time>2026-04-03T08:16:04Z</time></trkpt><trkpt lat="39.41245138335999" lon="9.597230543034073"><ele>3.666666666666667</ele><time>2026-04-03T08:16:05Z</time></trkpt><trkpt lat="39.41260454911926" lon="9.597145274400262"><ele>3.0</ele><time>2026-04-03T08:16:06Z</time></trkpt><trkpt lat="39.412755473342244" lon="9.597026279513537"><ele>4.0</ele><time>2026-04-03T08:16:07Z</time></trkpt><trkpt lat="39.412898778991675" lon="9.596896635791547"><ele>5.0</ele><time>2026-04-03T08:16:08Z</time></trkpt><trkpt lat="39.41304327137548" lon="9.596755893695251"><ele>6.0</ele><time>2026-04-03T08:16:09Z</time></trkpt><trkpt lat="39.41317509595012" lon="9.596618559301344"><ele>6.0</ele><time>2026-04-03T08:16:10Z</time></trkpt><trkpt lat="39.413290906653906" lon="9.596443693808721"><ele>6.0</ele><time>2026-04-03T08:16:11Z</time></trkpt><trkpt lat="39.4133971204365" lon="9.596259300980865"><ele>6.0</ele><time>2026-04-03T08:16:12Z</time></trkpt><trkpt lat="39.413496384991916" lon="9.596066205378417"><ele>6.666666666666666</ele><time>2026-04-03T08:16:13Z</time></trkpt><trkpt lat="39.413581671568565" lon="9.595856242005302"><ele>7.333333333333333</ele><time>2026-04-03T08:16:14Z</time></trkpt><trkpt lat="39.41366024622587" lon="9.595630695467317"><ele>8.0</ele><time>2026-04-03T08:16:15Z</time></trkpt><trkpt lat="39.41374157921702" lon="9.595403583726203"><ele>7.666666666666666</ele><time>2026-04-03T08:16:16Z</time></trkpt><trkpt lat="39.413817185709156" lon="9.595151505469856"><ele>7.333333333333334</ele><time>2026-04-03T08:16:17Z</time></trkpt><trkpt lat="39.413893203642836" lon="9.594893833924631"><ele>7.0</ele><time>2026-04-03T08:16:18Z</time></trkpt><trkpt lat="39.41396972684221" lon="9.59463501930884"><ele>8.333333333333334</ele><time>2026-04-03T08:16:19Z</time></trkpt><trkpt lat="39.41405383605372" lon="9.594369294870475"><ele>9.666666666666666</ele><time>2026-04-03T08:16:20Z</time></trkpt><trkpt lat="39.41413630176497" lon="9.594100755900309"><ele>11.0</ele><time>2026-04-03T08:16:21Z</time></trkpt><trkpt lat="39.4142146272697" lon="9.593834362745403"><ele>12.0</ele><time>2026-04-03T08:16:22Z</time></trkpt><trkpt lat="39.414283921506964" lon="9.593573317377679"><ele>13.0</ele><time>2026-04-03T08:16:23Z</time></trkpt><trkpt lat="39.414351780829136" lon="9.593324109311302"><ele>14.0</ele><time>2026-04-03T08:16:24Z</time></trkpt><trkpt lat="39.41440540519492" lon="9.593091375897377"><ele>14.0</ele><time>2026-04-03T08:16:25Z</time></trkpt><trkpt lat="39.41446329353727" lon="9.592880267053388"><ele>14.0</ele><time>2026-04-03T08:16:26Z</time></trkpt><trkpt lat="39.4145227531176" lon="9.592646281503555"><ele>14.0</ele><time>2026-04-03T08:16:27Z</time></trkpt><trkpt lat="39.41459141993353" lon="9.59238541723802"><ele>13.0</ele><time>2026-04-03T08:16:28Z</time></trkpt><trkpt lat="39.41466668448198" lon="9.592109095267247"><ele>12.0</ele><time>2026-04-03T08:16:29Z</time></trkpt><trkpt lat="39.41475200471617" lon="9.591828388797692"><ele>12.0</ele><time>2026-04-03T08:16:30Z</time></trkpt><trkpt lat="39.414834320423495" lon="9.591558357732753"><ele>12.0</ele><time>2026-04-03T08:16:31.001Z</time></trkpt><trkpt lat="39.414910081784605" lon="9.59128337500054"><ele>12.0</ele><time>2026-04-03T08:16:32.001Z</time></trkpt><trkpt lat="39.414985473899925" lon="9.591003721906537"><ele>12.0</ele><time>2026-04-03T08:16:33.001Z</time></trkpt><trkpt lat="39.415061319742065" lon="9.590724746759154"><ele>12.0</ele><time>2026-04-03T08:16:34.001Z</time></trkpt><trkpt lat="39.415139253252626" lon="9.590443048435187"><ele>12.0</ele><time>2026-04-03T08:16:35.001Z</time></trkpt><trkpt lat="39.415231650266065" lon="9.590154161833684"><ele>12.0</ele><time>2026-04-03T08:16:36.001Z</time></trkpt><trkpt lat="39.41529191487157" lon="9.589874195918684"><ele>12.0</ele><time>2026-04-03T08:16:37.001Z</time></trkpt><trkpt lat="39.4153653413565" lon="9.589611168678402"><ele>12.0</ele><time>2026-04-03T08:16:38.001Z</time></trkpt><trkpt lat="39.415432313292776" lon="9.58936117614081"><ele>10.333333333333334</ele><time>2026-04-03T08:16:39.001Z</time></trkpt><trkpt lat="39.41550285711667" lon="9.589119058788206"><ele>8.666666666666668</ele><time>2026-04-03T08:16:40.001Z</time></trkpt><trkpt lat="39.415572243899966" lon="9.588878954756074"><ele>7.0</ele><time>2026-04-03T08:16:41.001Z</time></trkpt><trkpt lat="39.41563810835298" lon="9.588636803286558"><ele>7.0</ele><time>2026-04-03T08:16:42.001Z</time></trkpt><trkpt lat="39.415702625104586" lon="9.58838764424498"><ele>7.0</ele><time>2026-04-03T08:16:43.001Z</time></trkpt><trkpt lat="39.415772401987006" lon="9.58814349829786"><ele>7.0</ele><time>2026-04-03T08:16:44.001Z</time></trkpt><trkpt lat="39.41584062771311" lon="9.587915495823129"><ele>7.666666666666667</ele><time>2026-04-03T08:16:45.001Z</time></trkpt><trkpt lat="39.41590635131605" lon="9.587698931532685"><ele>8.333333333333334</ele><time>2026-04-03T08:16:46.001Z</time></trkpt><trkpt lat="39.415966979434536" lon="9.587492936679736"><ele>9.0</ele><time>2026-04-03T08:16:47.001Z</time></trkpt><trkpt lat="39.416022891038175" lon="9.587291484102723"><ele>9.0</ele><time>2026-04-03T08:16:48.001Z</time></trkpt><trkpt lat="39.41608115608334" lon="9.587101228487407"><ele>9.0</ele><time>2026-04-03T08:16:49.001Z</time></trkpt><trkpt lat="39.41614065817254" lon="9.58690688220671"><ele>9.0</ele><time>2026-04-03T08:16:50.001Z</time></trkpt><trkpt lat="39.41624295455195" lon="9.586729590261086"><ele>8.666666666666666</ele><time>2026-04-03T08:16:51.001Z</time></trkpt><trkpt lat="39.41634558802908" lon="9.586548478060028"><ele>8.333333333333332</ele><time>2026-04-03T08:16:52.001Z</time></trkpt><trkpt lat="39.41645418555105" lon="9.586360880136526"><ele>8.0</ele><time>2026-04-03T08:16:53.001Z</time></trkpt><trkpt lat="39.41657050658683" lon="9.586146810146227"><ele>9.0</ele><time>2026-04-03T08:16:54.001Z</time></trkpt><trkpt lat="39.41669755522843" lon="9.585929601864507"><ele>10.0</ele><time>2026-04-03T08:16:55.001Z</time></trkpt><trkpt lat="39.416812457594254" lon="9.585713137937734"><ele>11.0</ele><time>2026-04-03T08:16:56.001Z</time></trkpt><trkpt lat="39.41693009010573" lon="9.585508699246201"><ele>11.0</ele><time>2026-04-03T08:16:57.001Z</time></trkpt><trkpt lat="39.41704142948853" lon="9.585317944598334"><ele>11.0</ele><time>2026-04-03T08:16:58.001Z</time></trkpt><trkpt lat="39.41714945321008" lon="9.585138504767055"><ele>11.0</ele><time>2026-04-03T08:16:59.001Z</time></trkpt><trkpt lat="39.41724995655295" lon="9.584966948726978"><ele>11.0</ele><time>2026-04-03T08:17:00.001Z</time></trkpt><trkpt lat="39.417351859512735" lon="9.584801569652925"><ele>11.0</ele><time>2026-04-03T08:17:01.001Z</time></trkpt><trkpt lat="39.41745446481394" lon="9.584633401510416"><ele>11.0</ele><time>2026-04-03T08:17:02Z</time></trkpt><trkpt lat="39.41755314950333" lon="9.584469319412296"><ele>11.75</ele><time>2026-04-03T08:17:03Z</time></trkpt><trkpt lat="39.41764348721167" lon="9.584320260229628"><ele>12.5</ele><time>2026-04-03T08:17:04Z</time></trkpt><trkpt lat="39.41773060340686" lon="9.584178488528707"><ele>13.25</ele><time>2026-04-03T08:17:05Z</time></trkpt><trkpt lat="39.41780854028022" lon="9.584043596058146"><ele>14.0</ele><time>2026-04-03T08:17:06Z</time></trkpt><trkpt lat="39.417877829751234" lon="9.583918806200387"><ele>14.0</ele><time>2026-04-03T08:17:07Z</time></trkpt><trkpt lat="39.417938817454704" lon="9.583796691559108"><ele>13.999999999999998</ele><time>2026-04-03T08:17:08Z</time></trkpt><trkpt lat="39.417994629507916" lon="9.583680367502115"><ele>13.999999999999998</ele><time>2026-04-03T08:17:09Z</time></trkpt><trkpt lat="39.418055235924015" lon="9.58357761684202"><ele>14.0</ele><time>2026-04-03T08:17:10Z</time></trkpt><trkpt lat="39.418107445475336" lon="9.583499328700443"><ele>14.0</ele><time>2026-04-03T08:17:11Z</time></trkpt><trkpt lat="39.41817965567266" lon="9.583439041204686"><ele>13.833333333333334</ele><time>2026-04-03T08:17:13Z</time></trkpt><trkpt lat="39.41823655157422" lon="9.583371283765121"><ele>13.666666666666668</ele><time>2026-04-03T08:17:15Z</time></trkpt><trkpt lat="39.41827634919333" lon="9.583282297168603"><ele>13.5</ele><time>2026-04-03T08:17:17Z</time></trkpt><trkpt lat="39.41832314912936" lon="9.583219212493324"><ele>13.333333333333332</ele><time>2026-04-03T08:17:19Z</time></trkpt><trkpt lat="39.41835993278874" lon="9.583107635470427"><ele>13.166666666666666</ele><time>2026-04-03T08:18:13.001Z</time></trkpt><trkpt lat="39.418405542947305" lon="9.583050011423577"><ele>13.0</ele><time>2026-04-03T08:18:14.001Z</time></trkpt><trkpt lat="39.41845133398049" lon="9.582974423122067"><ele>13.0</ele><time>2026-04-03T08:18:15.001Z</time></trkpt><trkpt lat="39.41850523729848" lon="9.58288215878617"><ele>13.0</ele><time>2026-04-03T08:18:16.001Z</time></trkpt><trkpt lat="39.41855792278471" lon="9.582791581749374"><ele>13.0</ele><time>2026-04-03T08:18:17.001Z</time></trkpt><trkpt lat="39.41860053587565" lon="9.58271832119418"><ele>13.0</ele><time>2026-04-03T08:18:18.001Z</time></trkpt><trkpt lat="39.41867554130204" lon="9.582589371655473"><ele>13.0</ele><time>2026-04-03T08:18:20.001Z</time></trkpt><trkpt lat="39.418747996781704" lon="9.58246605161834"><ele>12.8</ele><time>2026-04-03T08:18:22.001Z</time></trkpt><trkpt lat="39.418803217642" lon="9.582372303837909"><ele>12.600000000000001</ele><time>2026-04-03T08:18:24.001Z</time></trkpt><trkpt lat="39.41885835389572" lon="9.582278699689518"><ele>12.399999999999999</ele><time>2026-04-03T08:18:26.001Z</time></trkpt><trkpt lat="39.418916727442614" lon="9.582179106042439"><ele>12.2</ele><time>2026-04-03T08:18:28.001Z</time></trkpt><trkpt lat="39.41897406245538" lon="9.582081241541804"><ele>12.0</ele><time>2026-04-03T08:18:30.001Z</time></trkpt><trkpt lat="39.41903999793605" lon="9.581968696997635"><ele>12.0</ele><time>2026-04-03T08:18:32.001Z</time></trkpt><trkpt lat="39.41911914797298" lon="9.581833997799952"><ele>12.0</ele><time>2026-04-03T08:18:34.001Z</time></trkpt><trkpt lat="39.419161904671306" lon="9.581761625666797"><ele>12.0</ele><time>2026-04-03T08:18:35.001Z</time></trkpt><trkpt lat="39.4192029537278" lon="9.58169214396398"><ele>12.0</ele><time>2026-04-03T08:18:36.001Z</time></trkpt><trkpt lat="39.41924186516134" lon="9.581624350611945"><ele>12.0</ele><time>2026-04-03T08:18:37.001Z</time></trkpt><trkpt lat="39.41927390127382" lon="9.581551329782"><ele>12.0</ele><time>2026-04-03T08:18:38.001Z</time></trkpt><trkpt lat="39.41930879314093" lon="9.581481798469458"><ele>12.0</ele><time>2026-04-03T08:18:39.001Z</time></trkpt><trkpt lat="39.41934768206331" lon="9.581410647625697"><ele>12.0</ele><time>2026-04-03T08:18:40.001Z</time></trkpt><trkpt lat="39.41942597135486" lon="9.581302566785542"><ele>12.0</ele><time>2026-04-03T08:18:42.001Z</time></trkpt><trkpt lat="39.41946798729389" lon="9.58123517647502"><ele>12.0</ele><time>2026-04-03T08:18:43.001Z</time></trkpt><trkpt lat="39.41949918609842" lon="9.581161247336105"><ele>12.0</ele><time>2026-04-03T08:18:44.001Z</time></trkpt><trkpt lat="39.41952881226391" lon="9.581082106858386"><ele>12.0</ele><time>2026-04-03T08:18:45.001Z</time></trkpt><trkpt lat="39.4195886844029" lon="9.580950844509681"><ele>11.857142857142856</ele><time>2026-04-03T08:18:47.001Z</time></trkpt><trkpt lat="39.419644316418506" lon="9.580844867569688"><ele>11.714285714285714</ele><time>2026-04-03T08:18:49.001Z</time></trkpt><trkpt lat="39.419684505040294" lon="9.58077007048674"><ele>11.571428571428571</ele><time>2026-04-03T08:18:51.001Z</time></trkpt><trkpt lat="39.419724858815364" lon="9.580695536506061"><ele>11.428571428571427</ele><time>2026-04-03T08:18:53.001Z</time></trkpt><trkpt lat="39.419773172861014" lon="9.580628959400324"><ele>11.285714285714285</ele><time>2026-04-03T08:18:55.001Z</time></trkpt><trkpt lat="39.419776777626446" lon="9.5805471715636"><ele>11.142857142857142</ele><time>2026-04-03T08:19:07.001Z</time></trkpt><trkpt lat="39.41974926546981" lon="9.580627809953283"><ele>11.0</ele><time>2026-04-03T08:20:28.001Z</time></trkpt><trkpt lat="39.419793156114125" lon="9.5805691266808"><ele>10.600000000000001</ele><time>2026-04-03T08:35:44.001Z</time></trkpt><trkpt lat="39.419767511925755" lon="9.580481404820869"><ele>10.200000000000001</ele><time>2026-04-03T08:38:36Z</time></trkpt><trkpt lat="39.4197967995436" lon="9.58039289494347"><ele>9.8</ele><time>2026-04-03T08:38:47Z</time></trkpt><trkpt lat="39.41983105537815" lon="9.580287385020632"><ele>9.4</ele><time>2026-04-03T08:38:49Z</time></trkpt><trkpt lat="39.41989835431496" lon="9.580198256616633"><ele>9.0</ele><time>2026-04-03T08:38:51Z</time></trkpt><trkpt lat="39.420048829446564" lon="9.58027166013558"><ele>9.0</ele><time>2026-04-03T08:38:54Z</time></trkpt><trkpt lat="39.4200919606443" lon="9.580342144863371"><ele>9.0</ele><time>2026-04-03T08:38:56Z</time></trkpt><trkpt lat="39.42017799573598" lon="9.580350732182092"><ele>9.0</ele><time>2026-04-03T08:39:06Z</time></trkpt><trkpt lat="39.420266962675626" lon="9.58041929467888"><ele>9.0</ele><time>2026-04-03T08:39:08Z</time></trkpt><trkpt lat="39.42038017786399" lon="9.58050960161666"><ele>9.0</ele><time>2026-04-03T08:39:10Z</time></trkpt><trkpt lat="39.420443733478464" lon="9.580558585320706"><ele>9.0</ele><time>2026-04-03T08:39:11Z</time></trkpt><trkpt lat="39.42050174251914" lon="9.580613348881647"><ele>9.0</ele><time>2026-04-03T08:39:12Z</time></trkpt><trkpt lat="39.420565620367675" lon="9.580661010700613"><ele>9.0</ele><time>2026-04-03T08:39:13Z</time></trkpt><trkpt lat="39.42067545094547" lon="9.580730517032169"><ele>9.0</ele><time>2026-04-03T08:39:15Z</time></trkpt><trkpt lat="39.42075200906744" lon="9.580799290538627"><ele>9.0</ele><time>2026-04-03T08:39:17Z</time></trkpt><trkpt lat="39.420823525764455" lon="9.580844391086174"><ele>9.0</ele><time>2026-04-03T08:39:19Z</time></trkpt><trkpt lat="39.42089432026002" lon="9.580892663335106"><ele>9.0</ele><time>2026-04-03T08:39:21Z</time></trkpt><trkpt lat="39.42097448445074" lon="9.580957561851761"><ele>9.0</ele><time>2026-04-03T08:39:23Z</time></trkpt><trkpt lat="39.42103649317876" lon="9.580988716948369"><ele>9.0</ele><time>2026-04-03T08:39:25Z</time></trkpt><trkpt lat="39.42112615239465" lon="9.581045954485802"><ele>9.0</ele><time>2026-04-03T08:39:27Z</time></trkpt><trkpt lat="39.42120039926219" lon="9.58111934309716"><ele>9.0</ele><time>2026-04-03T08:39:29Z</time></trkpt><trkpt lat="39.42125758817644" lon="9.581170122460888"><ele>9.0</ele><time>2026-04-03T08:39:31Z</time></trkpt><trkpt lat="39.42132677952599" lon="9.581233053220588"><ele>8.666666666666666</ele><time>2026-04-03T08:39:35Z</time></trkpt><trkpt lat="39.42139136321842" lon="9.581277570476098"><ele>8.333333333333334</ele><time>2026-04-03T08:39:38Z</time></trkpt><trkpt lat="39.42145506316457" lon="9.581333603632716"><ele>8.0</ele><time>2026-04-03T08:39:41Z</time></trkpt><trkpt lat="39.42151723643396" lon="9.581360919507917"><ele>7.666666666666667</ele><time>2026-04-03T08:39:43Z</time></trkpt><trkpt lat="39.42160683764467" lon="9.58131302853681"><ele>7.333333333333334</ele><time>2026-04-03T08:39:46Z</time></trkpt><trkpt lat="39.42165557972003" lon="9.581178511989766"><ele>7.0</ele><time>2026-04-03T08:39:48Z</time></trkpt><trkpt lat="39.4216685699991" lon="9.581096483594658"><ele>7.000000000000001</ele><time>2026-04-03T08:39:49Z</time></trkpt><trkpt lat="39.42169782916453" lon="9.580999951889156"><ele>7.0</ele><time>2026-04-03T08:39:50Z</time></trkpt><trkpt lat="39.42172645771046" lon="9.580894842378601"><ele>7.0</ele><time>2026-04-03T08:39:51Z</time></trkpt><trkpt lat="39.421764774025114" lon="9.580796386798307"><ele>7.0</ele><time>2026-04-03T08:39:52Z</time></trkpt><trkpt lat="39.42181131270124" lon="9.580688352477507"><ele>7.000000000000001</ele><time>2026-04-03T08:39:53.001Z</time></trkpt><trkpt lat="39.421844725329784" lon="9.580571264686757"><ele>7.0</ele><time>2026-04-03T08:39:54.001Z</time></trkpt><trkpt lat="39.421870632529526" lon="9.580444818115183"><ele>7.0</ele><time>2026-04-03T08:39:55.001Z</time></trkpt><trkpt lat="39.42189226744517" lon="9.580311244125086"><ele>6.999999999999999</ele><time>2026-04-03T08:39:56.001Z</time></trkpt><trkpt lat="39.42191477831968" lon="9.580174455090349"><ele>6.999999999999999</ele><time>2026-04-03T08:39:57.001Z</time></trkpt><trkpt lat="39.4219348485685" lon="9.58003276907676"><ele>7.0</ele><time>2026-04-03T08:39:58.001Z</time></trkpt><trkpt lat="39.42195346736676" lon="9.579891411653456"><ele>7.0</ele><time>2026-04-03T08:39:59.001Z</time></trkpt><trkpt lat="39.42197226393327" lon="9.579761251969156"><ele>7.0</ele><time>2026-04-03T08:40:00.001Z</time></trkpt><trkpt lat="39.421988514347966" lon="9.579633038584227"><ele>6.999999999999999</ele><time>2026-04-03T08:40:01.001Z</time></trkpt><trkpt lat="39.422009277173075" lon="9.579503763648303"><ele>6.999999999999999</ele><time>2026-04-03T08:40:02.001Z</time></trkpt><trkpt lat="39.42202986776296" lon="9.579371947643864"><ele>7.0</ele><time>2026-04-03T08:40:03.001Z</time></trkpt><trkpt lat="39.42204923485279" lon="9.579240590101481"><ele>7.0</ele><time>2026-04-03T08:40:04.001Z</time></trkpt><trkpt lat="39.42207250095022" lon="9.579105308162296"><ele>7.0</ele><time>2026-04-03T08:40:05.001Z</time></trkpt><trkpt lat="39.42209825807384" lon="9.578969928282579"><ele>6.999999999999999</ele><time>2026-04-03T08:40:06.001Z</time></trkpt><trkpt lat="39.42212210344796" lon="9.578830585797023"><ele>6.999999999999999</ele><time>2026-04-03T08:40:07.001Z</time></trkpt><trkpt lat="39.42214586098479" lon="9.578693231703737"><ele>7.0</ele><time>2026-04-03T08:40:07.999Z</time></trkpt><trkpt lat="39.42216838838043" lon="9.578550258367356"><ele>7.0</ele><time>2026-04-03T08:40:08.999Z</time></trkpt><trkpt lat="39.42219565876193" lon="9.578406368812889"><ele>7.0</ele><time>2026-04-03T08:40:09.999Z</time></trkpt><trkpt lat="39.422224464519665" lon="9.578262692819242"><ele>7.0</ele><time>2026-04-03T08:40:10.999Z</time></trkpt><trkpt lat="39.42224648866536" lon="9.578116911747074"><ele>7.0</ele><time>2026-04-03T08:40:11.999Z</time></trkpt><trkpt lat="39.42227035846697" lon="9.577970466793468"><ele>7.0</ele><time>2026-04-03T08:40:12.999Z</time></trkpt><trkpt lat="39.422290930381806" lon="9.577837017177002"><ele>7.199999999999999</ele><time>2026-04-03T08:40:13.999Z</time></trkpt><trkpt lat="39.4223254323036" lon="9.577704799027597"><ele>7.3999999999999995</ele><time>2026-04-03T08:40:14.999Z</time></trkpt><trkpt lat="39.4223402127713" lon="9.577578135214525"><ele>7.6000000000000005</ele><time>2026-04-03T08:40:15.999Z</time></trkpt><trkpt lat="39.422352746568926" lon="9.577456492423657"><ele>7.800000000000001</ele><time>2026-04-03T08:40:16.999Z</time></trkpt><trkpt lat="39.42237212536" lon="9.577337363628699"><ele>8.0</ele><time>2026-04-03T08:40:17.999Z</time></trkpt><trkpt lat="39.42239403095257" lon="9.577222073403076"><ele>7.999999999999999</ele><time>2026-04-03T08:40:18.999Z</time></trkpt><trkpt lat="39.4224121141534" lon="9.577111129869433"><ele>8.0</ele><time>2026-04-03T08:40:19.999Z</time></trkpt><trkpt lat="39.422426804585456" lon="9.57700741799948"><ele>8.0</ele><time>2026-04-03T08:40:20.999Z</time></trkpt><trkpt lat="39.42244208257233" lon="9.57690311768053"><ele>8.0</ele><time>2026-04-03T08:40:21.999Z</time></trkpt><trkpt lat="39.42246646176469" lon="9.576788911487485"><ele>7.999999999999999</ele><time>2026-04-03T08:40:22.999Z</time></trkpt><trkpt lat="39.42250057576015" lon="9.576675333105593"><ele>8.0</ele><time>2026-04-03T08:40:23.999Z</time></trkpt><trkpt lat="39.422532887445236" lon="9.576557221149598"><ele>7.800000000000001</ele><time>2026-04-03T08:40:24.999Z</time></trkpt><trkpt lat="39.42255325689132" lon="9.576438151012798"><ele>7.6000000000000005</ele><time>2026-04-03T08:40:25.999Z</time></trkpt><trkpt lat="39.422573374098995" lon="9.576316624589992"><ele>7.3999999999999995</ele><time>2026-04-03T08:40:26.999Z</time></trkpt><trkpt lat="39.42259204310854" lon="9.57619357846926"><ele>7.199999999999999</ele><time>2026-04-03T08:40:27.999Z</time></trkpt><trkpt lat="39.422631114570045" lon="9.57606988852447"><ele>7.0</ele><time>2026-04-03T08:40:28.999Z</time></trkpt><trkpt lat="39.42267450663847" lon="9.575939249499244"><ele>7.0</ele><time>2026-04-03T08:40:29.999Z</time></trkpt><trkpt lat="39.42270733493895" lon="9.575805547407628"><ele>6.999999999999999</ele><time>2026-04-03T08:40:30.999Z</time></trkpt><trkpt lat="39.4227392152986" lon="9.575677676977815"><ele>6.999999999999999</ele><time>2026-04-03T08:40:31.999Z</time></trkpt><trkpt lat="39.42277186178543" lon="9.57555649422115"><ele>7.0</ele><time>2026-04-03T08:40:32.999Z</time></trkpt><trkpt lat="39.422802041077254" lon="9.575448250234821"><ele>7.0</ele><time>2026-04-03T08:40:33.999Z</time></trkpt><trkpt lat="39.42283039346935" lon="9.575349576527081"><ele>7.199999999999999</ele><time>2026-04-03T08:40:34.999Z</time></trkpt><trkpt lat="39.4228608421921" lon="9.575253454819702"><ele>7.3999999999999995</ele><time>2026-04-03T08:40:35.999Z</time></trkpt><trkpt lat="39.422886380978376" lon="9.57515780674928"><ele>7.6000000000000005</ele><time>2026-04-03T08:40:37Z</time></trkpt><trkpt lat="39.422930995031315" lon="9.574964637679926"><ele>7.800000000000001</ele><time>2026-04-03T08:40:39Z</time></trkpt><trkpt lat="39.42295159028775" lon="9.574846519767865"><ele>8.0</ele><time>2026-04-03T08:40:40Z</time></trkpt><trkpt lat="39.422966470855485" lon="9.574716096370038"><ele>8.0</ele><time>2026-04-03T08:40:41Z</time></trkpt><trkpt lat="39.4229663635962" lon="9.57457977281654"><ele>8.0</ele><time>2026-04-03T08:40:42Z</time></trkpt><trkpt lat="39.42295161618639" lon="9.574435195418262"><ele>8.0</ele><time>2026-04-03T08:40:43Z</time></trkpt><trkpt lat="39.42291692356173" lon="9.574284412791513"><ele>8.0</ele><time>2026-04-03T08:40:44Z</time></trkpt><trkpt lat="39.42287186478606" lon="9.574134345423023"><ele>7.75</ele><time>2026-04-03T08:40:45Z</time></trkpt><trkpt lat="39.422814287114605" lon="9.573994515336175"><ele>7.5</ele><time>2026-04-03T08:40:46Z</time></trkpt><trkpt lat="39.42274651021528" lon="9.573858932081507"><ele>7.25</ele><time>2026-04-03T08:40:47Z</time></trkpt><trkpt lat="39.42268639692708" lon="9.573712745534825"><ele>7.0</ele><time>2026-04-03T08:40:48Z</time></trkpt><trkpt lat="39.42262701904161" lon="9.573562270149583"><ele>7.0</ele><time>2026-04-03T08:40:49Z</time></trkpt><trkpt lat="39.42256521895236" lon="9.573411201043442"><ele>7.0</ele><time>2026-04-03T08:40:50Z</time></trkpt><trkpt lat="39.42249758145099" lon="9.57325862418716"><ele>7.0</ele><time>2026-04-03T08:40:51Z</time></trkpt><trkpt lat="39.422428715015954" lon="9.57310580495608"><ele>7.0</ele><time>2026-04-03T08:40:52Z</time></trkpt><trkpt lat="39.42236571381937" lon="9.572957205008267"><ele>7.0</ele><time>2026-04-03T08:40:53Z</time></trkpt><trkpt lat="39.42230994774035" lon="9.572815223958994"><ele>7.0</ele><time>2026-04-03T08:40:54Z</time></trkpt><trkpt lat="39.42225322252382" lon="9.572676959734768"><ele>7.0</ele><time>2026-04-03T08:40:55Z</time></trkpt><trkpt lat="39.42219373526129" lon="9.572537538516086"><ele>7.0</ele><time>2026-04-03T08:40:56Z</time></trkpt><trkpt lat="39.422132574964586" lon="9.572397097897483"><ele>7.75</ele><time>2026-04-03T08:40:57Z</time></trkpt><trkpt lat="39.42207175232805" lon="9.572256583389251"><ele>8.5</ele><time>2026-04-03T08:40:58Z</time></trkpt><trkpt lat="39.422013377206476" lon="9.572115366612008"><ele>9.25</ele><time>2026-04-03T08:40:59Z</time></trkpt><trkpt lat="39.421961380365026" lon="9.571981994356618"><ele>10.0</ele><time>2026-04-03T08:41:00Z</time></trkpt><trkpt lat="39.42192018069941" lon="9.57185698678507"><ele>10.0</ele><time>2026-04-03T08:41:01Z</time></trkpt><trkpt lat="39.42189543652583" lon="9.571732420261283"><ele>10.0</ele><time>2026-04-03T08:41:02Z</time></trkpt><trkpt lat="39.42187794660938" lon="9.571619997079843"><ele>10.0</ele><time>2026-04-03T08:41:03Z</time></trkpt><trkpt lat="39.421864388347615" lon="9.571516652683133"><ele>10.0</ele><time>2026-04-03T08:41:04Z</time></trkpt><trkpt lat="39.42185101116472" lon="9.571426110343804"><ele>10.0</ele><time>2026-04-03T08:41:05Z</time></trkpt><trkpt lat="39.421852079427076" lon="9.571336755632439"><ele>10.0</ele><time>2026-04-03T08:41:06Z</time></trkpt><trkpt lat="39.421861164369716" lon="9.571238432803396"><ele>9.6</ele><time>2026-04-03T08:41:07Z</time></trkpt><trkpt lat="39.42186874653642" lon="9.571127532486228"><ele>9.2</ele><time>2026-04-03T08:41:08Z</time></trkpt><trkpt lat="39.421874779458285" lon="9.571006270325462"><ele>8.8</ele><time>2026-04-03T08:41:09Z</time></trkpt><trkpt lat="39.421877185194624" lon="9.57087673059858"><ele>8.4</ele><time>2026-04-03T08:41:10Z</time></trkpt><trkpt lat="39.421881462706864" lon="9.570750424655863"><ele>8.0</ele><time>2026-04-03T08:41:11Z</time></trkpt><trkpt lat="39.42188953620086" lon="9.570624115391187"><ele>8.0</ele><time>2026-04-03T08:41:12Z</time></trkpt><trkpt lat="39.42189447424097" lon="9.57048995298713"><ele>8.0</ele><time>2026-04-03T08:41:13Z</time></trkpt><trkpt lat="39.421899173444956" lon="9.570349950350515"><ele>8.0</ele><time>2026-04-03T08:41:14Z</time></trkpt><trkpt lat="39.42190600491632" lon="9.57020834843375"><ele>8.0</ele><time>2026-04-03T08:41:15Z</time></trkpt><trkpt lat="39.421910847100705" lon="9.570065854599019"><ele>8.0</ele><time>2026-04-03T08:41:16Z</time></trkpt><trkpt lat="39.42191830625973" lon="9.569925513349496"><ele>8.5</ele><time>2026-04-03T08:41:17Z</time></trkpt><trkpt lat="39.421924123655636" lon="9.569785376992135"><ele>9.0</ele><time>2026-04-03T08:41:18Z</time></trkpt><trkpt lat="39.421929458405536" lon="9.569641612069177"><ele>9.5</ele><time>2026-04-03T08:41:19Z</time></trkpt><trkpt lat="39.42193490580549" lon="9.5694943897225"><ele>10.0</ele><time>2026-04-03T08:41:20Z</time></trkpt><trkpt lat="39.42194023906621" lon="9.569343095142996"><ele>10.25</ele><time>2026-04-03T08:41:21Z</time></trkpt><trkpt lat="39.421947623681135" lon="9.569189193716284"><ele>10.5</ele><time>2026-04-03T08:41:22Z</time></trkpt><trkpt lat="39.42195338712099" lon="9.569044131071365"><ele>10.75</ele><time>2026-04-03T08:41:23Z</time></trkpt><trkpt lat="39.42195781329839" lon="9.568900358461764"><ele>11.0</ele><time>2026-04-03T08:41:24Z</time></trkpt><trkpt lat="39.421965511917996" lon="9.568750824678013"><ele>11.0</ele><time>2026-04-03T08:41:25Z</time></trkpt><trkpt lat="39.421971671277625" lon="9.56859526489314"><ele>11.0</ele><time>2026-04-03T08:41:26Z</time></trkpt><trkpt lat="39.421981914174935" lon="9.568437329041402"><ele>11.0</ele><time>2026-04-03T08:41:27Z</time></trkpt><trkpt lat="39.421991258692216" lon="9.568277518237988"><ele>11.0</ele><time>2026-04-03T08:41:28Z</time></trkpt><trkpt lat="39.421998472322954" lon="9.568120426827608"><ele>11.0</ele><time>2026-04-03T08:41:29Z</time></trkpt><trkpt lat="39.422006097850364" lon="9.567972219347727"><ele>11.0</ele><time>2026-04-03T08:41:30Z</time></trkpt><trkpt lat="39.422009715647825" lon="9.567829938692915"><ele>11.0</ele><time>2026-04-03T08:41:31Z</time></trkpt><trkpt lat="39.42200704090952" lon="9.567699652882652"><ele>11.0</ele><time>2026-04-03T08:41:32Z</time></trkpt><trkpt lat="39.421993836233064" lon="9.567575169649533"><ele>11.0</ele><time>2026-04-03T08:41:33Z</time></trkpt><trkpt lat="39.421972334958944" lon="9.567453890520238"><ele>10.8</ele><time>2026-04-03T08:41:34Z</time></trkpt><trkpt lat="39.42194955082226" lon="9.567331087818252"><ele>10.600000000000001</ele><time>2026-04-03T08:41:35Z</time></trkpt><trkpt lat="39.42193098276305" lon="9.56720830910656"><ele>10.4</ele><time>2026-04-03T08:41:36Z</time></trkpt><trkpt lat="39.42191683248999" lon="9.567080572197339"><ele>10.2</ele><time>2026-04-03T08:41:37Z</time></trkpt><trkpt lat="39.42191267910552" lon="9.566946865731394"><ele>10.0</ele><time>2026-04-03T08:41:38Z</time></trkpt><trkpt lat="39.421919375153976" lon="9.566808194343798"><ele>9.8</ele><time>2026-04-03T08:41:39Z</time></trkpt><trkpt lat="39.42193937429674" lon="9.566681017951616"><ele>9.6</ele><time>2026-04-03T08:41:40Z</time></trkpt><trkpt lat="39.42196725230891" lon="9.566559395451398"><ele>9.4</ele><time>2026-04-03T08:41:41Z</time></trkpt><trkpt lat="39.42200545637557" lon="9.56644583169048"><ele>9.2</ele><time>2026-04-03T08:41:42Z</time></trkpt><trkpt lat="39.42205818003443" lon="9.566342250631152"><ele>9.0</ele><time>2026-04-03T08:41:43Z</time></trkpt><trkpt lat="39.422123228779085" lon="9.566259653506469"><ele>9.2</ele><time>2026-04-03T08:41:44Z</time></trkpt><trkpt lat="39.422200810925" lon="9.566194811645863"><ele>9.4</ele><time>2026-04-03T08:41:45Z</time></trkpt><trkpt lat="39.422294251623114" lon="9.566180010625088"><ele>9.6</ele><time>2026-04-03T08:41:46Z</time></trkpt><trkpt lat="39.42238615742371" lon="9.56620302520606"><ele>9.8</ele><time>2026-04-03T08:41:47Z</time></trkpt><trkpt lat="39.422477997737495" lon="9.566249578650124"><ele>10.0</ele><time>2026-04-03T08:41:48Z</time></trkpt><trkpt lat="39.42256810027194" lon="9.566286397765154"><ele>10.0</ele><time>2026-04-03T08:41:49Z</time></trkpt><trkpt lat="39.42265645607972" lon="9.566311066512636"><ele>10.0</ele><time>2026-04-03T08:41:50Z</time></trkpt><trkpt lat="39.42274041477284" lon="9.5663210168292"><ele>10.0</ele><time>2026-04-03T08:41:51Z</time></trkpt><trkpt lat="39.422815930262345" lon="9.566317658191577"><ele>10.0</ele><time>2026-04-03T08:41:52Z</time></trkpt><trkpt lat="39.42288330985769" lon="9.566308510386852"><ele>10.0</ele><time>2026-04-03T08:41:53Z</time></trkpt><trkpt lat="39.422988583988065" lon="9.566289362669442"><ele>10.0</ele><time>2026-04-03T08:41:55Z</time></trkpt><trkpt lat="39.423011412651924" lon="9.566119151962754"><ele>10.0</ele><time>2026-04-03T08:41:59Z</time></trkpt><trkpt lat="39.42299011317051" lon="9.566004395404928"><ele>10.0</ele><time>2026-04-03T08:42:02Z</time></trkpt><trkpt lat="39.42297068441679" lon="9.565907895091346"><ele>10.0</ele><time>2026-04-03T08:42:10Z</time></trkpt><trkpt lat="39.42294750105114" lon="9.565822720211406"><ele>10.0</ele><time>2026-04-03T08:42:12Z</time></trkpt><trkpt lat="39.42292790683537" lon="9.565726766324316"><ele>10.0</ele><time>2026-04-03T08:42:14.998Z</time></trkpt><trkpt lat="39.42291169971146" lon="9.56562927405598"><ele>10.0</ele><time>2026-04-03T08:42:20.998Z</time></trkpt><trkpt lat="39.423045151763006" lon="9.565584952817375"><ele>10.166666666666668</ele><time>2026-04-03T08:42:21.998Z</time></trkpt><trkpt lat="39.423108357977185" lon="9.56556813790763"><ele>10.333333333333334</ele><time>2026-04-03T08:42:22.998Z</time></trkpt><trkpt lat="39.42317556680842" lon="9.565536355077082"><ele>10.5</ele><time>2026-04-03T08:42:23.998Z</time></trkpt><trkpt lat="39.42324472399002" lon="9.565506892229623"><ele>10.666666666666666</ele><time>2026-04-03T08:42:24.998Z</time></trkpt><trkpt lat="39.42331830894188" lon="9.565473671373859"><ele>10.833333333333332</ele><time>2026-04-03T08:42:25.998Z</time></trkpt><trkpt lat="39.42339774552305" lon="9.56544074076029"><ele>11.0</ele><time>2026-04-03T08:42:26.998Z</time></trkpt><trkpt lat="39.42347929289784" lon="9.565402630399745"><ele>11.0</ele><time>2026-04-03T08:42:27.998Z</time></trkpt><trkpt lat="39.42355653269848" lon="9.565363018763911"><ele>11.0</ele><time>2026-04-03T08:42:28.998Z</time></trkpt><trkpt lat="39.42363963342899" lon="9.565325358510645"><ele>11.0</ele><time>2026-04-03T08:42:29.999Z</time></trkpt><trkpt lat="39.423729679719266" lon="9.565289297676408"><ele>11.0</ele><time>2026-04-03T08:42:30.999Z</time></trkpt><trkpt lat="39.42382140756827" lon="9.565252098391566"><ele>11.0</ele><time>2026-04-03T08:42:31.999Z</time></trkpt><trkpt lat="39.423911602721745" lon="9.56521212602276"><ele>11.600000000000001</ele><time>2026-04-03T08:42:32.999Z</time></trkpt><trkpt lat="39.424001284459166" lon="9.565176978631563"><ele>12.2</ele><time>2026-04-03T08:42:33.999Z</time></trkpt><trkpt lat="39.424096792580414" lon="9.565141475112098"><ele>12.799999999999999</ele><time>2026-04-03T08:42:34.999Z</time></trkpt><trkpt lat="39.42419556147159" lon="9.565099505868249"><ele>13.399999999999999</ele><time>2026-04-03T08:42:35.999Z</time></trkpt><trkpt lat="39.424297331279135" lon="9.56505666492019"><ele>14.0</ele><time>2026-04-03T08:42:36.999Z</time></trkpt><trkpt lat="39.424403527489865" lon="9.565013986179709"><ele>14.0</ele><time>2026-04-03T08:42:37.999Z</time></trkpt><trkpt lat="39.424506624094285" lon="9.564969917268398"><ele>14.0</ele><time>2026-04-03T08:42:38.999Z</time></trkpt><trkpt lat="39.424613573062956" lon="9.564920584251077"><ele>14.0</ele><time>2026-04-03T08:42:39.999Z</time></trkpt><trkpt lat="39.424720520836736" lon="9.564872543120678"><ele>14.0</ele><time>2026-04-03T08:42:40.999Z</time></trkpt><trkpt lat="39.42483542617299" lon="9.564847397245504"><ele>13.5</ele><time>2026-04-03T08:42:41.999Z</time></trkpt><trkpt lat="39.42494434374633" lon="9.564802736287142"><ele>13.0</ele><time>2026-04-03T08:42:42.999Z</time></trkpt><trkpt lat="39.42505458788634" lon="9.564757531376436"><ele>12.5</ele><time>2026-04-03T08:42:43.999Z</time></trkpt><trkpt lat="39.425165390048875" lon="9.564712097651213"><ele>12.0</ele><time>2026-04-03T08:42:44.999Z</time></trkpt><trkpt lat="39.4252802452685" lon="9.564665002071804"><ele>12.0</ele><time>2026-04-03T08:42:45.999Z</time></trkpt><trkpt lat="39.425397006643905" lon="9.564617897705356"><ele>12.0</ele><time>2026-04-03T08:42:46.999Z</time></trkpt><trkpt lat="39.425515222680836" lon="9.564570733529868"><ele>12.0</ele><time>2026-04-03T08:42:47.999Z</time></trkpt><trkpt lat="39.42562948302581" lon="9.564523980017375"><ele>12.0</ele><time>2026-04-03T08:42:48.999Z</time></trkpt><trkpt lat="39.425737719679184" lon="9.564478815155791"><ele>12.399999999999999</ele><time>2026-04-03T08:42:49.999Z</time></trkpt><trkpt lat="39.42584130969319" lon="9.564435589239704"><ele>12.799999999999999</ele><time>2026-04-03T08:42:50.999Z</time></trkpt><trkpt lat="39.42593892416838" lon="9.564393728854"><ele>13.2</ele><time>2026-04-03T08:42:51.999Z</time></trkpt><trkpt lat="39.42603124013723" lon="9.56434908866668"><ele>13.6</ele><time>2026-04-03T08:42:52.999Z</time></trkpt><trkpt lat="39.42611275953267" lon="9.56428558864216"><ele>14.0</ele><time>2026-04-03T08:42:53.999Z</time></trkpt><trkpt lat="39.4261827422827" lon="9.564218752038107"><ele>14.0</ele><time>2026-04-03T08:42:54.999Z</time></trkpt><trkpt lat="39.4262380979494" lon="9.564133985874667"><ele>13.999999999999998</ele><time>2026-04-03T08:42:55.999Z</time></trkpt><trkpt lat="39.42625919414929" lon="9.564026597062954"><ele>13.999999999999998</ele><time>2026-04-03T08:42:56.999Z</time></trkpt><trkpt lat="39.42626242685109" lon="9.563912018095198"><ele>14.0</ele><time>2026-04-03T08:42:58Z</time></trkpt><trkpt lat="39.42625321116447" lon="9.563794633834226"><ele>14.0</ele><time>2026-04-03T08:42:59Z</time></trkpt><trkpt lat="39.42625638556987" lon="9.563663269415887"><ele>14.75</ele><time>2026-04-03T08:43:00Z</time></trkpt><trkpt lat="39.426273364997684" lon="9.563525025779203"><ele>15.5</ele><time>2026-04-03T08:43:01Z</time></trkpt><trkpt lat="39.42631139793347" lon="9.563391026617783"><ele>16.25</ele><time>2026-04-03T08:43:02Z</time></trkpt><trkpt lat="39.426375081005176" lon="9.56326546757235"><ele>17.0</ele><time>2026-04-03T08:43:03Z</time></trkpt><trkpt lat="39.4264550494025" lon="9.563149937090325"><ele>15.0</ele><time>2026-04-03T08:43:04Z</time></trkpt><trkpt lat="39.426535799284466" lon="9.56303320238479"><ele>13.0</ele><time>2026-04-03T08:43:05Z</time></trkpt><trkpt lat="39.42661300748073" lon="9.562910725522697"><ele>11.0</ele><time>2026-04-03T08:43:06Z</time></trkpt><trkpt lat="39.426690313798225" lon="9.562787027450756"><ele>9.0</ele><time>2026-04-03T08:43:07Z</time></trkpt><trkpt lat="39.42676909840677" lon="9.562665436606595"><ele>9.0</ele><time>2026-04-03T08:43:08Z</time></trkpt><trkpt lat="39.42685304545926" lon="9.56254568042161"><ele>9.0</ele><time>2026-04-03T08:43:09Z</time></trkpt><trkpt lat="39.42693981102109" lon="9.56242373631371"><ele>9.0</ele><time>2026-04-03T08:43:10Z</time></trkpt><trkpt lat="39.42702752338525" lon="9.562300237069342"><ele>9.0</ele><time>2026-04-03T08:43:11Z</time></trkpt><trkpt lat="39.42711524783708" lon="9.562172332463925"><ele>9.0</ele><time>2026-04-03T08:43:12Z</time></trkpt><trkpt lat="39.427205591687574" lon="9.56203842152446"><ele>9.0</ele><time>2026-04-03T08:43:13Z</time></trkpt><trkpt lat="39.42729793189765" lon="9.561899097515031"><ele>9.0</ele><time>2026-04-03T08:43:14Z</time></trkpt><trkpt lat="39.42739612319035" lon="9.561761164170168"><ele>9.0</ele><time>2026-04-03T08:43:15Z</time></trkpt><trkpt lat="39.42749573215526" lon="9.561622215558515"><ele>9.0</ele><time>2026-04-03T08:43:16Z</time></trkpt><trkpt lat="39.4275941616584" lon="9.5614894942489"><ele>9.0</ele><time>2026-04-03T08:43:17Z</time></trkpt><trkpt lat="39.42769945222709" lon="9.56137595544838"><ele>9.0</ele><time>2026-04-03T08:43:18Z</time></trkpt><trkpt lat="39.427761996779914" lon="9.561189315798634"><ele>9.0</ele><time>2026-04-03T08:43:19Z</time></trkpt><trkpt lat="39.42786795493843" lon="9.561106594098833"><ele>9.0</ele><time>2026-04-03T08:43:20Z</time></trkpt><trkpt lat="39.42802891943666" lon="9.561113214044962"><ele>9.0</ele><time>2026-04-03T08:43:21Z</time></trkpt><trkpt lat="39.428143778351945" lon="9.56102252009731"><ele>9.0</ele><time>2026-04-03T08:43:22Z</time></trkpt><trkpt lat="39.42828021917455" lon="9.560952683849584"><ele>9.0</ele><time>2026-04-03T08:43:23Z</time></trkpt><trkpt lat="39.42814173833835" lon="9.56062574761472"><ele>9.0</ele><time>2026-04-03T08:43:24Z</time></trkpt><trkpt lat="39.428228869239135" lon="9.560498379298465"><ele>9.0</ele><time>2026-04-03T08:43:25Z</time></trkpt><trkpt lat="39.4283099648076" lon="9.560370786550358"><ele>9.0</ele><time>2026-04-03T08:43:26Z</time></trkpt><trkpt lat="39.428392898131726" lon="9.560240177236702"><ele>9.0</ele><time>2026-04-03T08:43:27Z</time></trkpt><trkpt lat="39.42847748918013" lon="9.560109961938585"><ele>8.5</ele><time>2026-04-03T08:43:28Z</time></trkpt><trkpt lat="39.428566514201435" lon="9.559976338909602"><ele>8.0</ele><time>2026-04-03T08:43:29Z</time></trkpt><trkpt lat="39.42865881864944" lon="9.5598345116107"><ele>7.5</ele><time>2026-04-03T08:43:30Z</time></trkpt><trkpt lat="39.42875105811479" lon="9.559695665518948"><ele>7.0</ele><time>2026-04-03T08:43:31Z</time></trkpt><trkpt lat="39.42884828262777" lon="9.55955550242996"><ele>7.0</ele><time>2026-04-03T08:43:32Z</time></trkpt><trkpt lat="39.428945812870616" lon="9.559416527521666"><ele>7.0</ele><time>2026-04-03T08:43:33Z</time></trkpt><trkpt lat="39.429051042291114" lon="9.559291038772415"><ele>7.0</ele><time>2026-04-03T08:43:34Z</time></trkpt><trkpt lat="39.42913107433124" lon="9.559161113170852"><ele>7.0</ele><time>2026-04-03T08:43:35Z</time></trkpt><trkpt lat="39.4292237181214" lon="9.559026138259826"><ele>7.0</ele><time>2026-04-03T08:43:36Z</time></trkpt><trkpt lat="39.429298194742934" lon="9.558917571488838"><ele>7.0</ele><time>2026-04-03T08:43:37Z</time></trkpt><trkpt lat="39.42938150098598" lon="9.558802671259706"><ele>7.0</ele><time>2026-04-03T08:43:38Z</time></trkpt><trkpt lat="39.429464007994724" lon="9.558667385530375"><ele>7.0</ele><time>2026-04-03T08:43:39Z</time></trkpt><trkpt lat="39.42954368666214" lon="9.558527138926813"><ele>7.5</ele><time>2026-04-03T08:43:40Z</time></trkpt><trkpt lat="39.42962992445611" lon="9.558385081660099"><ele>8.0</ele><time>2026-04-03T08:43:41Z</time></trkpt><trkpt lat="39.42971597648222" lon="9.558238325724636"><ele>8.5</ele><time>2026-04-03T08:43:42Z</time></trkpt><trkpt lat="39.429803906822045" lon="9.558103666864504"><ele>9.0</ele><time>2026-04-03T08:43:43Z</time></trkpt><trkpt lat="39.429895353917914" lon="9.55797050377781"><ele>9.25</ele><time>2026-04-03T08:43:44Z</time></trkpt><trkpt lat="39.429988909280425" lon="9.5578303505976"><ele>9.5</ele><time>2026-04-03T08:43:45Z</time></trkpt><trkpt lat="39.43008488528454" lon="9.557678119694387"><ele>9.75</ele><time>2026-04-03T08:43:46Z</time></trkpt><trkpt lat="39.43016929881715" lon="9.55753964222093"><ele>10.0</ele><time>2026-04-03T08:43:47Z</time></trkpt><trkpt lat="39.43025995698232" lon="9.557402622463083"><ele>10.0</ele><time>2026-04-03T08:43:48Z</time></trkpt><trkpt lat="39.43035435496621" lon="9.557263514049144"><ele>10.0</ele><time>2026-04-03T08:43:49Z</time></trkpt><trkpt lat="39.43044522428354" lon="9.557126401414605"><ele>10.0</ele><time>2026-04-03T08:43:50Z</time></trkpt><trkpt lat="39.43052991950133" lon="9.55699035426579"><ele>10.0</ele><time>2026-04-03T08:43:51Z</time></trkpt><trkpt lat="39.43061953398578" lon="9.55685095469817"><ele>9.75</ele><time>2026-04-03T08:43:52Z</time></trkpt><trkpt lat="39.43071188778003" lon="9.556709576679443"><ele>9.5</ele><time>2026-04-03T08:43:53Z</time></trkpt><trkpt lat="39.430802628929285" lon="9.556567304011125"><ele>9.25</ele><time>2026-04-03T08:43:54Z</time></trkpt><trkpt lat="39.43089435097579" lon="9.556422267767129"><ele>9.0</ele><time>2026-04-03T08:43:55Z</time></trkpt><trkpt lat="39.43098365848737" lon="9.556283631449906"><ele>9.5</ele><time>2026-04-03T08:43:56Z</time></trkpt><trkpt lat="39.43106772169478" lon="9.556155538276142"><ele>10.0</ele><time>2026-04-03T08:43:57Z</time></trkpt><trkpt lat="39.431157081721736" lon="9.556022778409435"><ele>10.5</ele><time>2026-04-03T08:43:58Z</time></trkpt><trkpt lat="39.431247848063144" lon="9.555884406562267"><ele>11.0</ele><time>2026-04-03T08:43:59Z</time></trkpt><trkpt lat="39.43133876537858" lon="9.555748250997794"><ele>11.0</ele><time>2026-04-03T08:44:00Z</time></trkpt><trkpt lat="39.43142688637007" lon="9.555612710175149"><ele>11.0</ele><time>2026-04-03T08:44:01Z</time></trkpt><trkpt lat="39.431516810484965" lon="9.55547415081217"><ele>11.0</ele><time>2026-04-03T08:44:02Z</time></trkpt><trkpt lat="39.43159986808252" lon="9.555344891555775"><ele>11.0</ele><time>2026-04-03T08:44:03Z</time></trkpt><trkpt lat="39.431677105293915" lon="9.555222011177595"><ele>11.200000000000001</ele><time>2026-04-03T08:44:04Z</time></trkpt><trkpt lat="39.43175476688644" lon="9.555105307694243"><ele>11.4</ele><time>2026-04-03T08:44:05Z</time></trkpt><trkpt lat="39.43182889984656" lon="9.554999614975843"><ele>11.6</ele><time>2026-04-03T08:44:06Z</time></trkpt><trkpt lat="39.43190025584487" lon="9.554898500853223"><ele>11.8</ele><time>2026-04-03T08:44:07.001Z</time></trkpt><trkpt lat="39.43196581177973" lon="9.554804522628116"><ele>12.0</ele><time>2026-04-03T08:44:08.001Z</time></trkpt><trkpt lat="39.432030797660246" lon="9.554714818900667"><ele>12.0</ele><time>2026-04-03T08:44:09.001Z</time></trkpt><trkpt lat="39.432097869259074" lon="9.554620546097146"><ele>12.0</ele><time>2026-04-03T08:44:10.001Z</time></trkpt><trkpt lat="39.43217482724141" lon="9.554521865240034"><ele>12.0</ele><time>2026-04-03T08:44:11.001Z</time></trkpt><trkpt lat="39.43225606816999" lon="9.554423135843068"><ele>12.0</ele><time>2026-04-03T08:44:12.001Z</time></trkpt><trkpt lat="39.43234186926116" lon="9.554319493743163"><ele>12.0</ele><time>2026-04-03T08:44:13.001Z</time></trkpt><trkpt lat="39.43242317429032" lon="9.554209337751592"><ele>12.0</ele><time>2026-04-03T08:44:14.001Z</time></trkpt><trkpt lat="39.432511944325306" lon="9.554099040234966"><ele>12.0</ele><time>2026-04-03T08:44:15.001Z</time></trkpt><trkpt lat="39.43260021040466" lon="9.554000834792456"><ele>12.0</ele><time>2026-04-03T08:44:16.001Z</time></trkpt><trkpt lat="39.432680762192454" lon="9.553900404869633"><ele>12.0</ele><time>2026-04-03T08:44:17.001Z</time></trkpt><trkpt lat="39.432760107866926" lon="9.55379822766047"><ele>12.0</ele><time>2026-04-03T08:44:18.001Z</time></trkpt><trkpt lat="39.432845922961505" lon="9.553691093306728"><ele>12.0</ele><time>2026-04-03T08:44:19.001Z</time></trkpt><trkpt lat="39.43293206216821" lon="9.553586245210141"><ele>12.0</ele><time>2026-04-03T08:44:20Z</time></trkpt><trkpt lat="39.43302258400394" lon="9.553478067195488"><ele>12.0</ele><time>2026-04-03T08:44:21Z</time></trkpt><trkpt lat="39.43311451388952" lon="9.553366001727474"><ele>12.0</ele><time>2026-04-03T08:44:22Z</time></trkpt><trkpt lat="39.43320454227049" lon="9.553253442418265"><ele>12.0</ele><time>2026-04-03T08:44:23Z</time></trkpt><trkpt lat="39.433294121336225" lon="9.553140952874783"><ele>12.0</ele><time>2026-04-03T08:44:24Z</time></trkpt><trkpt lat="39.433385249146056" lon="9.553029752578235"><ele>12.0</ele><time>2026-04-03T08:44:25Z</time></trkpt><trkpt lat="39.43347533121258" lon="9.552923370082304"><ele>12.2</ele><time>2026-04-03T08:44:26Z</time></trkpt><trkpt lat="39.433560095252595" lon="9.552824401845417"><ele>12.399999999999999</ele><time>2026-04-03T08:44:27Z</time></trkpt><trkpt lat="39.433640328811144" lon="9.552725126849635"><ele>12.600000000000001</ele><time>2026-04-03T08:44:28Z</time></trkpt><trkpt lat="39.43372054282211" lon="9.552625025276061"><ele>12.8</ele><time>2026-04-03T08:44:29Z</time></trkpt><trkpt lat="39.43380046736827" lon="9.55252416649686"><ele>13.0</ele><time>2026-04-03T08:44:30Z</time></trkpt><trkpt lat="39.433882017150545" lon="9.552421735446602"><ele>13.0</ele><time>2026-04-03T08:44:31Z</time></trkpt><trkpt lat="39.43396618418902" lon="9.552316708652619"><ele>13.0</ele><time>2026-04-03T08:44:32Z</time></trkpt><trkpt lat="39.43405135643669" lon="9.552209969572303"><ele>13.0</ele><time>2026-04-03T08:44:33Z</time></trkpt><trkpt lat="39.434139312394464" lon="9.552102541413142"><ele>13.0</ele><time>2026-04-03T08:44:34Z</time></trkpt><trkpt lat="39.434229355179134" lon="9.551992066129225"><ele>13.0</ele><time>2026-04-03T08:44:35Z</time></trkpt><trkpt lat="39.43432205735323" lon="9.551876603876249"><ele>13.0</ele><time>2026-04-03T08:44:36Z</time></trkpt><trkpt lat="39.434421945897036" lon="9.551760103596864"><ele>13.0</ele><time>2026-04-03T08:44:37Z</time></trkpt><trkpt lat="39.43452061006785" lon="9.551641190016563"><ele>13.0</ele><time>2026-04-03T08:44:38Z</time></trkpt><trkpt lat="39.43461899351919" lon="9.551528355332968"><ele>12.8</ele><time>2026-04-03T08:44:39Z</time></trkpt><trkpt lat="39.434712064805225" lon="9.551422690127858"><ele>12.600000000000001</ele><time>2026-04-03T08:44:40Z</time></trkpt><trkpt lat="39.43479357493583" lon="9.551321427410672"><ele>12.399999999999999</ele><time>2026-04-03T08:44:41Z</time></trkpt><trkpt lat="39.43486368810483" lon="9.551234885728267"><ele>12.2</ele><time>2026-04-03T08:44:42Z</time></trkpt><trkpt lat="39.434931501256" lon="9.551151803879272"><ele>12.0</ele><time>2026-04-03T08:44:43Z</time></trkpt><trkpt lat="39.43500144031002" lon="9.551067390623453"><ele>12.0</ele><time>2026-04-03T08:44:44Z</time></trkpt><trkpt lat="39.43507216564957" lon="9.550973429681981"><ele>12.0</ele><time>2026-04-03T08:44:45Z</time></trkpt><trkpt lat="39.435139838959664" lon="9.550872139180337"><ele>12.0</ele><time>2026-04-03T08:44:46Z</time></trkpt><trkpt lat="39.43520768187712" lon="9.550756873433984"><ele>12.0</ele><time>2026-04-03T08:44:47Z</time></trkpt><trkpt lat="39.435269993152296" lon="9.550627007489274"><ele>12.0</ele><time>2026-04-03T08:44:48Z</time></trkpt><trkpt lat="39.43531569254999" lon="9.550482452108142"><ele>11.75</ele><time>2026-04-03T08:44:49Z</time></trkpt><trkpt lat="39.43535901167649" lon="9.550327874220748"><ele>11.5</ele><time>2026-04-03T08:44:50Z</time></trkpt><trkpt lat="39.43539613176412" lon="9.550162607199631"><ele>11.25</ele><time>2026-04-03T08:44:51.001Z</time></trkpt><trkpt lat="39.43543464057293" lon="9.549993481836689"><ele>11.0</ele><time>2026-04-03T08:44:52.001Z</time></trkpt><trkpt lat="39.435477434528984" lon="9.549821802911634"><ele>11.0</ele><time>2026-04-03T08:44:53.001Z</time></trkpt><trkpt lat="39.435513521339146" lon="9.549648331213954"><ele>11.0</ele><time>2026-04-03T08:44:54.001Z</time></trkpt><trkpt lat="39.43555193428727" lon="9.549476928351277"><ele>11.0</ele><time>2026-04-03T08:44:55.001Z</time></trkpt><trkpt lat="39.435591144976115" lon="9.54929589885656"><ele>11.0</ele><time>2026-04-03T08:44:56.001Z</time></trkpt><trkpt lat="39.43563379760124" lon="9.5491123710033"><ele>11.0</ele><time>2026-04-03T08:44:57.001Z</time></trkpt><trkpt lat="39.435674114341566" lon="9.548926836466036"><ele>11.0</ele><time>2026-04-03T08:44:58.001Z</time></trkpt><trkpt lat="39.43571808118258" lon="9.548737630567551"><ele>11.0</ele><time>2026-04-03T08:44:59.001Z</time></trkpt><trkpt lat="39.435760995709025" lon="9.548556542971513"><ele>11.0</ele><time>2026-04-03T08:45:00.001Z</time></trkpt><trkpt lat="39.43580064430515" lon="9.548383592533234"><ele>11.25</ele><time>2026-04-03T08:45:01.001Z</time></trkpt><trkpt lat="39.43583986908657" lon="9.54820531226613"><ele>11.5</ele><time>2026-04-03T08:45:02.001Z</time></trkpt><trkpt lat="39.43587783303468" lon="9.54802308895321"><ele>11.75</ele><time>2026-04-03T08:45:03.001Z</time></trkpt><trkpt lat="39.435918546144435" lon="9.547842305798738"><ele>12.0</ele><time>2026-04-03T08:45:04.001Z</time></trkpt><trkpt lat="39.43595879645805" lon="9.547658824161699"><ele>12.0</ele><time>2026-04-03T08:45:05.001Z</time></trkpt><trkpt lat="39.43600189043314" lon="9.547472205154122"><ele>12.0</ele><time>2026-04-03T08:45:06.001Z</time></trkpt><trkpt lat="39.43603859267566" lon="9.547283492407644"><ele>12.0</ele><time>2026-04-03T08:45:07.001Z</time></trkpt><trkpt lat="39.43608154918906" lon="9.547094519835046"><ele>11.666666666666666</ele><time>2026-04-03T08:45:08.001Z</time></trkpt><trkpt lat="39.43612760875704" lon="9.546905550800316"><ele>11.333333333333332</ele><time>2026-04-03T08:45:09.001Z</time></trkpt><trkpt lat="39.436169023962435" lon="9.546718197917805"><ele>11.0</ele><time>2026-04-03T08:45:10.001Z</time></trkpt><trkpt lat="39.436211371634876" lon="9.54652854589634"><ele>11.0</ele><time>2026-04-03T08:45:11.001Z</time></trkpt><trkpt lat="39.43624794277107" lon="9.546343882720503"><ele>11.0</ele><time>2026-04-03T08:45:12.001Z</time></trkpt><trkpt lat="39.43628770487609" lon="9.546164001319536"><ele>11.0</ele><time>2026-04-03T08:45:13.001Z</time></trkpt><trkpt lat="39.436323872830634" lon="9.545984215993904"><ele>11.0</ele><time>2026-04-03T08:45:14.001Z</time></trkpt><trkpt lat="39.436364225739375" lon="9.545806628521888"><ele>11.25</ele><time>2026-04-03T08:45:15.001Z</time></trkpt><trkpt lat="39.43640372334391" lon="9.545627604343709"><ele>11.5</ele><time>2026-04-03T08:45:16.001Z</time></trkpt><trkpt lat="39.4364438416539" lon="9.545446647800055"><ele>11.75</ele><time>2026-04-03T08:45:17.001Z</time></trkpt><trkpt lat="39.43648014967353" lon="9.545266953664706"><ele>12.0</ele><time>2026-04-03T08:45:18.001Z</time></trkpt><trkpt lat="39.436512552685784" lon="9.545085313032622"><ele>12.25</ele><time>2026-04-03T08:45:19.001Z</time></trkpt><trkpt lat="39.43653726238833" lon="9.544902244259383"><ele>12.5</ele><time>2026-04-03T08:45:20.001Z</time></trkpt><trkpt lat="39.436561183391674" lon="9.544721578042529"><ele>12.75</ele><time>2026-04-03T08:45:21.001Z</time></trkpt><trkpt lat="39.43657498963422" lon="9.544538944240605"><ele>13.0</ele><time>2026-04-03T08:45:22.001Z</time></trkpt><trkpt lat="39.436590258035096" lon="9.544354007469638"><ele>13.0</ele><time>2026-04-03T08:45:23.001Z</time></trkpt><trkpt lat="39.4366096615359" lon="9.544176434712403"><ele>13.0</ele><time>2026-04-03T08:45:24.001Z</time></trkpt><trkpt lat="39.43662979358904" lon="9.543999083825998"><ele>13.0</ele><time>2026-04-03T08:45:25.001Z</time></trkpt><trkpt lat="39.43665196509501" lon="9.543831603997367"><ele>13.0</ele><time>2026-04-03T08:45:26.001Z</time></trkpt><trkpt lat="39.43668710730987" lon="9.543671105549498"><ele>13.5</ele><time>2026-04-03T08:45:27.001Z</time></trkpt><trkpt lat="39.43675017936318" lon="9.543548868884907"><ele>14.0</ele><time>2026-04-03T08:45:28.001Z</time></trkpt><trkpt lat="39.436838182259706" lon="9.543456317310742"><ele>14.5</ele><time>2026-04-03T08:45:29.001Z</time></trkpt><trkpt lat="39.436934070698875" lon="9.54337950951737"><ele>15.0</ele><time>2026-04-03T08:45:30.001Z</time></trkpt><trkpt lat="39.437028891759596" lon="9.543302192902914"><ele>15.0</ele><time>2026-04-03T08:45:31.001Z</time></trkpt><trkpt lat="39.43712206842984" lon="9.543219602544513"><ele>15.0</ele><time>2026-04-03T08:45:32.001Z</time></trkpt><trkpt lat="39.43720969400954" lon="9.543135922644264"><ele>15.0</ele><time>2026-04-03T08:45:33.001Z</time></trkpt><trkpt lat="39.4372996199272" lon="9.543045617171266"><ele>15.0</ele><time>2026-04-03T08:45:34.001Z</time></trkpt><trkpt lat="39.437388044255584" lon="9.542959622421566"><ele>15.0</ele><time>2026-04-03T08:45:35.001Z</time></trkpt><trkpt lat="39.43746738999779" lon="9.542884872652303"><ele>15.0</ele><time>2026-04-03T08:45:36.001Z</time></trkpt><trkpt lat="39.43752540342507" lon="9.542828899821856"><ele>15.0</ele><time>2026-04-03T08:45:37.001Z</time></trkpt><trkpt lat="39.43757889916746" lon="9.542780141100547"><ele>15.0</ele><time>2026-04-03T08:45:38.001Z</time></trkpt><trkpt lat="39.437629768318395" lon="9.542730319931822"><ele>15.0</ele><time>2026-04-03T08:45:39.001Z</time></trkpt><trkpt lat="39.437685381663236" lon="9.54268363937081"><ele>15.0</ele><time>2026-04-03T08:45:40.001Z</time></trkpt><trkpt lat="39.43774914689191" lon="9.542644439733438"><ele>15.0</ele><time>2026-04-03T08:45:41.001Z</time></trkpt><trkpt lat="39.43782154419726" lon="9.542614680634752"><ele>15.0</ele><time>2026-04-03T08:45:42.001Z</time></trkpt><trkpt lat="39.43790166596186" lon="9.5425901900694"><ele>15.2</ele><time>2026-04-03T08:45:43.001Z</time></trkpt><trkpt lat="39.437991160480976" lon="9.542573208030948"><ele>15.4</ele><time>2026-04-03T08:45:44.001Z</time></trkpt><trkpt lat="39.438085174406055" lon="9.542560722254132"><ele>15.600000000000001</ele><time>2026-04-03T08:45:45.001Z</time></trkpt><trkpt lat="39.43818003421029" lon="9.54254719535122"><ele>15.8</ele><time>2026-04-03T08:45:46.001Z</time></trkpt><trkpt lat="39.43827555569266" lon="9.542538595497069"><ele>16.0</ele><time>2026-04-03T08:45:47.001Z</time></trkpt><trkpt lat="39.4383668879554" lon="9.542521450236796"><ele>15.999999999999998</ele><time>2026-04-03T08:45:48.001Z</time></trkpt><trkpt lat="39.4384530816894" lon="9.542515955234167"><ele>16.0</ele><time>2026-04-03T08:45:49.001Z</time></trkpt><trkpt lat="39.43853142748026" lon="9.542504132579188"><ele>16.0</ele><time>2026-04-03T08:45:50.001Z</time></trkpt><trkpt lat="39.43860544289762" lon="9.542491214742023"><ele>16.0</ele><time>2026-04-03T08:45:51.001Z</time></trkpt><trkpt lat="39.438675348875506" lon="9.542483119132408"><ele>15.999999999999998</ele><time>2026-04-03T08:45:52.001Z</time></trkpt><trkpt lat="39.43873964053435" lon="9.542473353595707"><ele>16.0</ele><time>2026-04-03T08:45:53.001Z</time></trkpt><trkpt lat="39.43884962680009" lon="9.542467214449152"><ele>15.8</ele><time>2026-04-03T08:45:55.001Z</time></trkpt><trkpt lat="39.43893240362491" lon="9.542454595051273"><ele>15.600000000000001</ele><time>2026-04-03T08:45:57.001Z</time></trkpt><trkpt lat="39.439022102876976" lon="9.542435656542802"><ele>15.4</ele><time>2026-04-03T08:45:59.001Z</time></trkpt><trkpt lat="39.43913686062079" lon="9.542421001439976"><ele>15.2</ele><time>2026-04-03T08:46:01.001Z</time></trkpt><trkpt lat="39.43924904286435" lon="9.542398248603405"><ele>15.0</ele><time>2026-04-03T08:46:03.001Z</time></trkpt><trkpt lat="39.439335989024414" lon="9.542397665882119"><ele>15.0</ele><time>2026-04-03T08:46:05.001Z</time></trkpt><trkpt lat="39.43940524513201" lon="9.542389155151591"><ele>15.0</ele><time>2026-04-03T08:46:07.001Z</time></trkpt><trkpt lat="39.439495770840594" lon="9.542375476988571"><ele>15.0</ele><time>2026-04-03T08:46:09.001Z</time></trkpt><trkpt lat="39.439627644824945" lon="9.542355431232151"><ele>15.0</ele><time>2026-04-03T08:46:11.001Z</time></trkpt><trkpt lat="39.4397031628019" lon="9.542342045785308"><ele>15.0</ele><time>2026-04-03T08:46:12.001Z</time></trkpt><trkpt lat="39.43978180295457" lon="9.542328106925508"><ele>15.0</ele><time>2026-04-03T08:46:13.001Z</time></trkpt><trkpt lat="39.43986377761005" lon="9.542314826102983"><ele>15.0</ele><time>2026-04-03T08:46:14.001Z</time></trkpt><trkpt lat="39.439944599184244" lon="9.54230174072213"><ele>15.0</ele><time>2026-04-03T08:46:15.001Z</time></trkpt><trkpt lat="39.44001996372092" lon="9.542291298356428"><ele>15.0</ele><time>2026-04-03T08:46:16.001Z</time></trkpt><trkpt lat="39.44009439135118" lon="9.54228285222866"><ele>15.0</ele><time>2026-04-03T08:46:17.001Z</time></trkpt><trkpt lat="39.4401668268913" lon="9.542264351430656"><ele>15.0</ele><time>2026-04-03T08:46:18.001Z</time></trkpt><trkpt lat="39.44023461762652" lon="9.542278164641203"><ele>15.0</ele><time>2026-04-03T08:46:19.001Z</time></trkpt><trkpt lat="39.440298091957686" lon="9.542293880050378"><ele>15.0</ele><time>2026-04-03T08:46:20.001Z</time></trkpt><trkpt lat="39.44035174764739" lon="9.542337401540493"><ele>15.0</ele><time>2026-04-03T08:46:21.001Z</time></trkpt><trkpt lat="39.44041032967414" lon="9.542369662665232"><ele>15.0</ele><time>2026-04-03T08:46:22.001Z</time></trkpt><trkpt lat="39.440477522750996" lon="9.54240574238065"><ele>15.0</ele><time>2026-04-03T08:46:23.001Z</time></trkpt><trkpt lat="39.44054578322638" lon="9.54244622957773"><ele>15.0</ele><time>2026-04-03T08:46:24.001Z</time></trkpt><trkpt lat="39.44062648216938" lon="9.542478847996154"><ele>15.0</ele><time>2026-04-03T08:46:25.002Z</time></trkpt><trkpt lat="39.44070444107955" lon="9.542531359009487"><ele>15.0</ele><time>2026-04-03T08:46:26.002Z</time></trkpt><trkpt lat="39.44078446198913" lon="9.542574023108955"><ele>15.0</ele><time>2026-04-03T08:46:27.002Z</time></trkpt><trkpt lat="39.44086773772031" lon="9.542613175803583"><ele>15.0</ele><time>2026-04-03T08:46:28.002Z</time></trkpt><trkpt lat="39.44094903010815" lon="9.54265600839365"><ele>15.0</ele><time>2026-04-03T08:46:29.002Z</time></trkpt><trkpt lat="39.441029786562915" lon="9.542697250920142"><ele>15.0</ele><time>2026-04-03T08:46:30.002Z</time></trkpt><trkpt lat="39.44110798492964" lon="9.542742251022768"><ele>15.0</ele><time>2026-04-03T08:46:31.002Z</time></trkpt><trkpt lat="39.44118913417574" lon="9.542786622728466"><ele>15.0</ele><time>2026-04-03T08:46:32.002Z</time></trkpt><trkpt lat="39.441270073680904" lon="9.542834964677324"><ele>15.166666666666666</ele><time>2026-04-03T08:46:33.002Z</time></trkpt><trkpt lat="39.44135268601237" lon="9.5428684890345"><ele>15.333333333333332</ele><time>2026-04-03T08:46:34.002Z</time></trkpt><trkpt lat="39.44142673869375" lon="9.542907957124003"><ele>15.5</ele><time>2026-04-03T08:46:35.002Z</time></trkpt><trkpt lat="39.44149954203379" lon="9.54294791307822"><ele>15.666666666666666</ele><time>2026-04-03T08:46:36.002Z</time></trkpt><trkpt lat="39.441569818866924" lon="9.542977143110473"><ele>15.833333333333332</ele><time>2026-04-03T08:46:37.002Z</time></trkpt><trkpt lat="39.44165403098886" lon="9.542964957634778"><ele>16.0</ele><time>2026-04-03T08:46:38.001Z</time></trkpt><trkpt lat="39.44172365240223" lon="9.54289662071616"><ele>15.999999999999998</ele><time>2026-04-03T08:46:39.001Z</time></trkpt><trkpt lat="39.44180298266518" lon="9.542865462119588"><ele>16.0</ele><time>2026-04-03T08:46:40.001Z</time></trkpt><trkpt lat="39.44187755303709" lon="9.542815696010061"><ele>16.0</ele><time>2026-04-03T08:46:41.001Z</time></trkpt><trkpt lat="39.44195485231651" lon="9.542764113046713"><ele>16.0</ele><time>2026-04-03T08:46:42.001Z</time></trkpt><trkpt lat="39.4420342294146" lon="9.542713570543768"><ele>15.999999999999998</ele><time>2026-04-03T08:46:43.001Z</time></trkpt><trkpt lat="39.44211446762293" lon="9.54266657557447"><ele>16.0</ele><time>2026-04-03T08:46:44.001Z</time></trkpt><trkpt lat="39.44219460403477" lon="9.54260288517401"><ele>16.166666666666664</ele><time>2026-04-03T08:46:45.001Z</time></trkpt><trkpt lat="39.442243228118976" lon="9.542480422917821"><ele>16.333333333333332</ele><time>2026-04-03T08:46:46.001Z</time></trkpt><trkpt lat="39.442307263054666" lon="9.542408669375456"><ele>16.5</ele><time>2026-04-03T08:46:47.001Z</time></trkpt><trkpt lat="39.44236473475976" lon="9.542354574381285"><ele>16.666666666666668</ele><time>2026-04-03T08:46:48.001Z</time></trkpt><trkpt lat="39.44243301129355" lon="9.542335740430007"><ele>16.833333333333336</ele><time>2026-04-03T08:46:49.001Z</time></trkpt><trkpt lat="39.442497907831296" lon="9.542300768478311"><ele>17.0</ele><time>2026-04-03T08:46:50.001Z</time></trkpt><trkpt lat="39.44256108262499" lon="9.542266040422406"><ele>17.0</ele><time>2026-04-03T08:46:51.001Z</time></trkpt><trkpt lat="39.44267633645948" lon="9.542189907352736"><ele>17.0</ele><time>2026-04-03T08:46:53.001Z</time></trkpt><trkpt lat="39.44274159780145" lon="9.542145564416037"><ele>17.0</ele><time>2026-04-03T08:46:54.001Z</time></trkpt><trkpt lat="39.44281146625728" lon="9.542096515747218"><ele>17.0</ele><time>2026-04-03T08:46:55.001Z</time></trkpt><trkpt lat="39.44288737109999" lon="9.542041294084006"><ele>17.0</ele><time>2026-04-03T08:46:56.001Z</time></trkpt><trkpt lat="39.44296106075671" lon="9.541988187019422"><ele>17.166666666666668</ele><time>2026-04-03T08:46:57.001Z</time></trkpt><trkpt lat="39.44302850720999" lon="9.54194021207667"><ele>17.333333333333336</ele><time>2026-04-03T08:46:58.001Z</time></trkpt><trkpt lat="39.443084552038385" lon="9.541898977058223"><ele>17.5</ele><time>2026-04-03T08:46:59.001Z</time></trkpt><trkpt lat="39.44314288753985" lon="9.541857671005111"><ele>17.666666666666668</ele><time>2026-04-03T08:47:09.001Z</time></trkpt><trkpt lat="39.443215799965444" lon="9.541803084391956"><ele>17.833333333333332</ele><time>2026-04-03T08:47:11.001Z</time></trkpt><trkpt lat="39.44334090616221" lon="9.541739427560318"><ele>18.0</ele><time>2026-04-03T08:47:13.001Z</time></trkpt><trkpt lat="39.44341792951907" lon="9.541705354571478"><ele>18.0</ele><time>2026-04-03T08:47:14.001Z</time></trkpt><trkpt lat="39.44349817654865" lon="9.541665089047196"><ele>18.0</ele><time>2026-04-03T08:47:15.001Z</time></trkpt><trkpt lat="39.44359336383221" lon="9.541636469842057"><ele>18.0</ele><time>2026-04-03T08:47:16.001Z</time></trkpt><trkpt lat="39.44368877461167" lon="9.541588449465856"><ele>18.0</ele><time>2026-04-03T08:47:17.001Z</time></trkpt><trkpt lat="39.44379166079895" lon="9.541530385362085"><ele>18.0</ele><time>2026-04-03T08:47:18.001Z</time></trkpt><trkpt lat="39.44389596794049" lon="9.541461406115006"><ele>17.25</ele><time>2026-04-03T08:47:19.001Z</time></trkpt><trkpt lat="39.44400727559429" lon="9.541388606937023"><ele>16.5</ele><time>2026-04-03T08:47:20.001Z</time></trkpt><trkpt lat="39.44411831755472" lon="9.541315832547063"><ele>15.75</ele><time>2026-04-03T08:47:21.001Z</time></trkpt><trkpt lat="39.444216428489426" lon="9.541249837439771"><ele>15.0</ele><time>2026-04-03T08:47:22.001Z</time></trkpt><trkpt lat="39.444308606931685" lon="9.54115817548853"><ele>15.0</ele><time>2026-04-03T08:47:23.001Z</time></trkpt><trkpt lat="39.444374862271026" lon="9.54102474565358"><ele>15.0</ele><time>2026-04-03T08:47:24.001Z</time></trkpt><trkpt lat="39.444428443730466" lon="9.540892960656"><ele>15.0</ele><time>2026-04-03T08:47:25.001Z</time></trkpt><trkpt lat="39.4444830630544" lon="9.540757281467066"><ele>15.0</ele><time>2026-04-03T08:47:26.001Z</time></trkpt><trkpt lat="39.44454896182324" lon="9.54064366017108"><ele>15.0</ele><time>2026-04-03T08:47:27.001Z</time></trkpt><trkpt lat="39.44462253153929" lon="9.540536982402857"><ele>15.0</ele><time>2026-04-03T08:47:28.001Z</time></trkpt><trkpt lat="39.44469972257821" lon="9.540448310756707"><ele>15.0</ele><time>2026-04-03T08:47:29.001Z</time></trkpt><trkpt lat="39.444768794111305" lon="9.540361013211966"><ele>15.0</ele><time>2026-04-03T08:47:30.001Z</time></trkpt><trkpt lat="39.44482438144547" lon="9.54026837993382"><ele>15.0</ele><time>2026-04-03T08:47:31.001Z</time></trkpt><trkpt lat="39.444896020037056" lon="9.540216619355999"><ele>15.6</ele><time>2026-04-03T08:47:32.001Z</time></trkpt><trkpt lat="39.444982413384906" lon="9.540203972968198"><ele>16.2</ele><time>2026-04-03T08:47:33.001Z</time></trkpt><trkpt lat="39.44507227317539" lon="9.54024097934782"><ele>16.8</ele><time>2026-04-03T08:47:34.001Z</time></trkpt><trkpt lat="39.445165320528254" lon="9.540237557378328"><ele>17.4</ele><time>2026-04-03T08:47:35.001Z</time></trkpt><trkpt lat="39.445263942258514" lon="9.54025540200301"><ele>18.0</ele><time>2026-04-03T08:47:36.001Z</time></trkpt><trkpt lat="39.44537110485014" lon="9.540271705706546"><ele>18.0</ele><time>2026-04-03T08:47:37.001Z</time></trkpt><trkpt lat="39.44547442643714" lon="9.540288349478196"><ele>18.0</ele><time>2026-04-03T08:47:38.001Z</time></trkpt><trkpt lat="39.445579190626766" lon="9.540303451358465"><ele>18.0</ele><time>2026-04-03T08:47:39.001Z</time></trkpt><trkpt lat="39.445679546599614" lon="9.540333981990244"><ele>18.0</ele><time>2026-04-03T08:47:40.001Z</time></trkpt><trkpt lat="39.44578182381818" lon="9.540353907045406"><ele>18.0</ele><time>2026-04-03T08:47:41.001Z</time></trkpt><trkpt lat="39.44588012821681" lon="9.540376716950876"><ele>17.6</ele><time>2026-04-03T08:47:42.001Z</time></trkpt><trkpt lat="39.44597197575185" lon="9.540408395781535"><ele>17.200000000000003</ele><time>2026-04-03T08:47:43.001Z</time></trkpt><trkpt lat="39.44606732326528" lon="9.540445381512265"><ele>16.8</ele><time>2026-04-03T08:47:44.001Z</time></trkpt><trkpt lat="39.44616332107485" lon="9.540484953867585"><ele>16.400000000000002</ele><time>2026-04-03T08:47:45.001Z</time></trkpt><trkpt lat="39.44626916091393" lon="9.540523890816564"><ele>16.0</ele><time>2026-04-03T08:47:46.001Z</time></trkpt><trkpt lat="39.446378497286574" lon="9.540564321983556"><ele>15.5</ele><time>2026-04-03T08:47:47.001Z</time></trkpt><trkpt lat="39.446497207340975" lon="9.540605369932184"><ele>15.0</ele><time>2026-04-03T08:47:48.001Z</time></trkpt><trkpt lat="39.44662502785687" lon="9.540612957721372"><ele>14.5</ele><time>2026-04-03T08:47:49.001Z</time></trkpt><trkpt lat="39.44674427701798" lon="9.54062483532919"><ele>14.0</ele><time>2026-04-03T08:47:50.001Z</time></trkpt><trkpt lat="39.446867289210886" lon="9.540644660863085"><ele>14.0</ele><time>2026-04-03T08:47:51.001Z</time></trkpt><trkpt lat="39.44699221470732" lon="9.540643117867004"><ele>14.0</ele><time>2026-04-03T08:47:52.001Z</time></trkpt><trkpt lat="39.44711845432731" lon="9.540639847235202"><ele>14.0</ele><time>2026-04-03T08:47:53.001Z</time></trkpt><trkpt lat="39.44723914723978" lon="9.540634304680268"><ele>14.0</ele><time>2026-04-03T08:47:54.001Z</time></trkpt><trkpt lat="39.4473503653098" lon="9.540632171683553"><ele>14.399999999999999</ele><time>2026-04-03T08:47:55.001Z</time></trkpt><trkpt lat="39.44745548862304" lon="9.540636396786196"><ele>14.799999999999999</ele><time>2026-04-03T08:47:56.001Z</time></trkpt><trkpt lat="39.44756062899009" lon="9.540647892388277"><ele>15.200000000000001</ele><time>2026-04-03T08:47:57.001Z</time></trkpt><trkpt lat="39.44767314297783" lon="9.540650726502918"><ele>15.600000000000001</ele><time>2026-04-03T08:47:58.001Z</time></trkpt><trkpt lat="39.447786311363444" lon="9.540680153119984"><ele>16.0</ele><time>2026-04-03T08:47:59.001Z</time></trkpt><trkpt lat="39.447903210666446" lon="9.540705533357789"><ele>16.75</ele><time>2026-04-03T08:48:00.001Z</time></trkpt><trkpt lat="39.448024758718645" lon="9.54072418996228"><ele>17.5</ele><time>2026-04-03T08:48:01.001Z</time></trkpt><trkpt lat="39.44814926566666" lon="9.540751288862106"><ele>18.25</ele><time>2026-04-03T08:48:02.001Z</time></trkpt><trkpt lat="39.44827305669461" lon="9.540784014329247"><ele>19.0</ele><time>2026-04-03T08:48:03.001Z</time></trkpt><trkpt lat="39.44840069141442" lon="9.540823298205527"><ele>19.0</ele><time>2026-04-03T08:48:04.001Z</time></trkpt><trkpt lat="39.44853453724737" lon="9.540802862571393"><ele>19.0</ele><time>2026-04-03T08:48:05.001Z</time></trkpt><trkpt lat="39.44866913068433" lon="9.54080130029428"><ele>19.0</ele><time>2026-04-03T08:48:06.001Z</time></trkpt><trkpt lat="39.44880949427158" lon="9.540804543834879"><ele>19.0</ele><time>2026-04-03T08:48:07.001Z</time></trkpt><trkpt lat="39.44894631072441" lon="9.540786722531188"><ele>19.0</ele><time>2026-04-03T08:48:08.001Z</time></trkpt><trkpt lat="39.44908283058082" lon="9.540766822519256"><ele>19.0</ele><time>2026-04-03T08:48:09.001Z</time></trkpt><trkpt lat="39.449221274595196" lon="9.540755765042775"><ele>19.0</ele><time>2026-04-03T08:48:10.001Z</time></trkpt><trkpt lat="39.449360310196326" lon="9.540748319579492"><ele>19.0</ele><time>2026-04-03T08:48:11.001Z</time></trkpt><trkpt lat="39.44950291704059" lon="9.540747636051508"><ele>18.5</ele><time>2026-04-03T08:48:12.001Z</time></trkpt><trkpt lat="39.44964239128543" lon="9.540735513317095"><ele>18.0</ele><time>2026-04-03T08:48:13.001Z</time></trkpt><trkpt lat="39.449783974368195" lon="9.540738784937266"><ele>17.5</ele><time>2026-04-03T08:48:14.001Z</time></trkpt><trkpt lat="39.44992888234186" lon="9.540743492767021"><ele>17.0</ele><time>2026-04-03T08:48:15.001Z</time></trkpt><trkpt lat="39.45007102153078" lon="9.5407594041145"><ele>17.0</ele><time>2026-04-03T08:48:16.001Z</time></trkpt><trkpt lat="39.45022028512186" lon="9.540774847045647"><ele>17.0</ele><time>2026-04-03T08:48:17.001Z</time></trkpt><trkpt lat="39.45037065829217" lon="9.540780212688562"><ele>17.0</ele><time>2026-04-03T08:48:18.001Z</time></trkpt><trkpt lat="39.450514787363474" lon="9.540813566835705"><ele>17.0</ele><time>2026-04-03T08:48:19.001Z</time></trkpt><trkpt lat="39.45064905912881" lon="9.540841140336827"><ele>16.75</ele><time>2026-04-03T08:48:20.002Z</time></trkpt><trkpt lat="39.45077675964468" lon="9.540862285587854"><ele>16.5</ele><time>2026-04-03T08:48:21.002Z</time></trkpt><trkpt lat="39.45089617060413" lon="9.540886199858303"><ele>16.25</ele><time>2026-04-03T08:48:22.002Z</time></trkpt><trkpt lat="39.451008209219566" lon="9.540909227236016"><ele>16.0</ele><time>2026-04-03T08:48:23.002Z</time></trkpt><trkpt lat="39.451114870538625" lon="9.540927080179149"><ele>16.0</ele><time>2026-04-03T08:48:24.002Z</time></trkpt><trkpt lat="39.45122861152713" lon="9.540912238075375"><ele>16.0</ele><time>2026-04-03T08:48:25.002Z</time></trkpt><trkpt lat="39.45134038102256" lon="9.540843296071031"><ele>16.0</ele><time>2026-04-03T08:48:26.002Z</time></trkpt><trkpt lat="39.451461396364884" lon="9.54079900042872"><ele>16.0</ele><time>2026-04-03T08:48:27.002Z</time></trkpt><trkpt lat="39.45158051017651" lon="9.54074692166973"><ele>16.0</ele><time>2026-04-03T08:48:28.002Z</time></trkpt><trkpt lat="39.451702526308935" lon="9.540670623496144"><ele>16.0</ele><time>2026-04-03T08:48:29.002Z</time></trkpt><trkpt lat="39.45184330930756" lon="9.54061420113587"><ele>16.0</ele><time>2026-04-03T08:48:30.002Z</time></trkpt><trkpt lat="39.45199563450107" lon="9.540558266719273"><ele>16.0</ele><time>2026-04-03T08:48:31.002Z</time></trkpt><trkpt lat="39.45214973223663" lon="9.54050570453146"><ele>15.0</ele><time>2026-04-03T08:48:32.002Z</time></trkpt><trkpt lat="39.452303423132896" lon="9.540466213760878"><ele>14.0</ele><time>2026-04-03T08:48:33.002Z</time></trkpt><trkpt lat="39.45246486878513" lon="9.540453343456157"><ele>13.0</ele><time>2026-04-03T08:48:34.002Z</time></trkpt><trkpt lat="39.45262688951992" lon="9.540463520053494"><ele>13.0</ele><time>2026-04-03T08:48:35.001Z</time></trkpt><trkpt lat="39.452795982721554" lon="9.54046726605939"><ele>13.0</ele><time>2026-04-03T08:48:36.001Z</time></trkpt><trkpt lat="39.45298568967056" lon="9.540488025560828"><ele>13.0</ele><time>2026-04-03T08:48:37.001Z</time></trkpt><trkpt lat="39.45317789975264" lon="9.540473046408785"><ele>14.0</ele><time>2026-04-03T08:48:38.001Z</time></trkpt><trkpt lat="39.45336661291191" lon="9.540486191265918"><ele>15.0</ele><time>2026-04-03T08:48:39.001Z</time></trkpt><trkpt lat="39.453544639155545" lon="9.54049883870696"><ele>16.0</ele><time>2026-04-03T08:48:40.001Z</time></trkpt><trkpt lat="39.453722504921515" lon="9.540505965232832"><ele>17.0</ele><time>2026-04-03T08:48:41.001Z</time></trkpt><trkpt lat="39.45390421205095" lon="9.540510615719347"><ele>18.0</ele><time>2026-04-03T08:48:42.001Z</time></trkpt><trkpt lat="39.45407932651913" lon="9.540515103856881"><ele>19.0</ele><time>2026-04-03T08:48:43.001Z</time></trkpt><trkpt lat="39.45425353799356" lon="9.540517666652201"><ele>19.0</ele><time>2026-04-03T08:48:44.001Z</time></trkpt><trkpt lat="39.45442622231201" lon="9.54052188344879"><ele>19.0</ele><time>2026-04-03T08:48:45.001Z</time></trkpt><trkpt lat="39.45459606052043" lon="9.540548381538244"><ele>19.0</ele><time>2026-04-03T08:48:46.001Z</time></trkpt><trkpt lat="39.454763521598494" lon="9.54056470298778"><ele>19.333333333333332</ele><time>2026-04-03T08:48:47.001Z</time></trkpt><trkpt lat="39.454932595422925" lon="9.540605386353741"><ele>19.666666666666668</ele><time>2026-04-03T08:48:48.001Z</time></trkpt><trkpt lat="39.45510112046478" lon="9.540676494390702"><ele>20.0</ele><time>2026-04-03T08:48:49.001Z</time></trkpt><trkpt lat="39.455258675409745" lon="9.54077640702377"><ele>20.0</ele><time>2026-04-03T08:48:50.001Z</time></trkpt><trkpt lat="39.45540464224789" lon="9.540905426276469"><ele>20.0</ele><time>2026-04-03T08:48:51.001Z</time></trkpt><trkpt lat="39.455548928043896" lon="9.541044023534473"><ele>20.0</ele><time>2026-04-03T08:48:52.001Z</time></trkpt><trkpt lat="39.455690667357054" lon="9.5411909229242"><ele>20.333333333333336</ele><time>2026-04-03T08:48:53.001Z</time></trkpt><trkpt lat="39.45583024008912" lon="9.541335057079642"><ele>20.666666666666668</ele><time>2026-04-03T08:48:54.001Z</time></trkpt><trkpt lat="39.45598022806816" lon="9.541470048986099"><ele>21.0</ele><time>2026-04-03T08:48:55.001Z</time></trkpt><trkpt lat="39.45612045816138" lon="9.541615149904338"><ele>21.0</ele><time>2026-04-03T08:48:56.001Z</time></trkpt><trkpt lat="39.45626235008708" lon="9.541751435258979"><ele>21.0</ele><time>2026-04-03T08:48:57.001Z</time></trkpt><trkpt lat="39.456408339089016" lon="9.541876478909487"><ele>21.0</ele><time>2026-04-03T08:48:58.001Z</time></trkpt><trkpt lat="39.45656846865726" lon="9.541974149891555"><ele>24.0</ele><time>2026-04-03T08:48:59.001Z</time></trkpt><trkpt lat="39.456747357825336" lon="9.542005802135302"><ele>27.0</ele><time>2026-04-03T08:49:00.001Z</time></trkpt><trkpt lat="39.456927009720985" lon="9.542015598374366"><ele>30.0</ele><time>2026-04-03T08:49:01.001Z</time></trkpt><trkpt lat="39.45711188812496" lon="9.542008735152844"><ele>32.666666666666664</ele><time>2026-04-03T08:49:02.001Z</time></trkpt><trkpt lat="39.45729321197199" lon="9.541989043888327"><ele>35.33333333333333</ele><time>2026-04-03T08:49:03.001Z</time></trkpt><trkpt lat="39.457475045546005" lon="9.541965722272419"><ele>38.0</ele><time>2026-04-03T08:49:04.001Z</time></trkpt><trkpt lat="39.457653709605914" lon="9.541935716434562"><ele>38.0</ele><time>2026-04-03T08:49:05.001Z</time></trkpt><trkpt lat="39.45783549541273" lon="9.541918873509095"><ele>38.0</ele><time>2026-04-03T08:49:06.001Z</time></trkpt><trkpt lat="39.45801810294356" lon="9.54191897791219"><ele>38.0</ele><time>2026-04-03T08:49:07.001Z</time></trkpt><trkpt lat="39.45820127179799" lon="9.541959840336265"><ele>39.666666666666664</ele><time>2026-04-03T08:49:08.001Z</time></trkpt><trkpt lat="39.45838545622018" lon="9.541966325130913"><ele>41.333333333333336</ele><time>2026-04-03T08:49:09.001Z</time></trkpt><trkpt lat="39.45856985465546" lon="9.541987426201052"><ele>43.0</ele><time>2026-04-03T08:49:10.001Z</time></trkpt><trkpt lat="39.458753722449245" lon="9.542002215822913"><ele>45.0</ele><time>2026-04-03T08:49:11.001Z</time></trkpt><trkpt lat="39.45894028513932" lon="9.542013744699775"><ele>47.0</ele><time>2026-04-03T08:49:12.001Z</time></trkpt><trkpt lat="39.459126436162045" lon="9.542015616917304"><ele>49.0</ele><time>2026-04-03T08:49:13.001Z</time></trkpt><trkpt lat="39.45931292980737" lon="9.542009695525103"><ele>49.0</ele><time>2026-04-03T08:49:14.001Z</time></trkpt><trkpt lat="39.459501023750526" lon="9.541996577266469"><ele>49.0</ele><time>2026-04-03T08:49:15.001Z</time></trkpt><trkpt lat="39.459688600655305" lon="9.541979949150893"><ele>49.0</ele><time>2026-04-03T08:49:16.001Z</time></trkpt><trkpt lat="39.45987618432806" lon="9.541956013802913"><ele>45.666666666666664</ele><time>2026-04-03T08:49:17.001Z</time></trkpt><trkpt lat="39.46006336570142" lon="9.54191884400719"><ele>42.33333333333333</ele><time>2026-04-03T08:49:18.001Z</time></trkpt><trkpt lat="39.46024987816591" lon="9.541866932307379"><ele>39.0</ele><time>2026-04-03T08:49:19.001Z</time></trkpt><trkpt lat="39.460430924822184" lon="9.541798131413987"><ele>34.333333333333336</ele><time>2026-04-03T08:49:20.001Z</time></trkpt><trkpt lat="39.46060969445868" lon="9.541713799755877"><ele>29.666666666666668</ele><time>2026-04-03T08:49:21.001Z</time></trkpt><trkpt lat="39.46078763987388" lon="9.541623852271906"><ele>25.0</ele><time>2026-04-03T08:49:22.001Z</time></trkpt><trkpt lat="39.46096409793619" lon="9.541528639885648"><ele>25.0</ele><time>2026-04-03T08:49:23.001Z</time></trkpt><trkpt lat="39.461135194040835" lon="9.541420871170592"><ele>25.0</ele><time>2026-04-03T08:49:24.001Z</time></trkpt><trkpt lat="39.46130097272544" lon="9.541307521962256"><ele>25.0</ele><time>2026-04-03T08:49:25.001Z</time></trkpt><trkpt lat="39.46146287813158" lon="9.541186301104444"><ele>28.0</ele><time>2026-04-03T08:49:26.001Z</time></trkpt><trkpt lat="39.461615339289786" lon="9.54105381080846"><ele>31.0</ele><time>2026-04-03T08:49:27.001Z</time></trkpt><trkpt lat="39.46176257698974" lon="9.540907071813539"><ele>34.0</ele><time>2026-04-03T08:49:28.001Z</time></trkpt><trkpt lat="39.461898801615" lon="9.540741374917"><ele>34.0</ele><time>2026-04-03T08:49:29.001Z</time></trkpt><trkpt lat="39.46201941451451" lon="9.540556871487718"><ele>34.0</ele><time>2026-04-03T08:49:30.001Z</time></trkpt><trkpt lat="39.462128600734935" lon="9.540365048936222"><ele>34.0</ele><time>2026-04-03T08:49:31.001Z</time></trkpt><trkpt lat="39.46224831202394" lon="9.540180757901"><ele>33.333333333333336</ele><time>2026-04-03T08:49:32.001Z</time></trkpt><trkpt lat="39.462393137774235" lon="9.540025723724769"><ele>32.666666666666664</ele><time>2026-04-03T08:49:33.001Z</time></trkpt><trkpt lat="39.462530065945344" lon="9.53985863407923"><ele>32.0</ele><time>2026-04-03T08:49:34.001Z</time></trkpt><trkpt lat="39.46266569091956" lon="9.539693134941343"><ele>32.33333333333333</ele><time>2026-04-03T08:49:35.001Z</time></trkpt><trkpt lat="39.46278741782404" lon="9.539516885866114"><ele>32.666666666666664</ele><time>2026-04-03T08:49:36.001Z</time></trkpt><trkpt lat="39.46293085011973" lon="9.539380316963427"><ele>33.0</ele><time>2026-04-03T08:49:37.001Z</time></trkpt><trkpt lat="39.463076745201086" lon="9.539263576460378"><ele>33.0</ele><time>2026-04-03T08:49:38.001Z</time></trkpt><trkpt lat="39.463233552356314" lon="9.539182130048548"><ele>33.0</ele><time>2026-04-03T08:49:39.001Z</time></trkpt><trkpt lat="39.463403957435396" lon="9.539125841746262"><ele>33.0</ele><time>2026-04-03T08:49:40.001Z</time></trkpt><trkpt lat="39.46358047999095" lon="9.5391170485822"><ele>33.0</ele><time>2026-04-03T08:49:41.001Z</time></trkpt><trkpt lat="39.46376003252455" lon="9.539119413649708"><ele>33.0</ele><time>2026-04-03T08:49:42.001Z</time></trkpt><trkpt lat="39.46394515406189" lon="9.539126494038058"><ele>33.0</ele><time>2026-04-03T08:49:43.001Z</time></trkpt><trkpt lat="39.46413357860121" lon="9.539121524910028"><ele>34.333333333333336</ele><time>2026-04-03T08:49:44.001Z</time></trkpt><trkpt lat="39.46431704142321" lon="9.539130681005899"><ele>35.66666666666667</ele><time>2026-04-03T08:49:45.001Z</time></trkpt><trkpt lat="39.46450144171629" lon="9.539133639717242"><ele>37.0</ele><time>2026-04-03T08:49:46.001Z</time></trkpt><trkpt lat="39.4646861912272" lon="9.539137139591794"><ele>37.0</ele><time>2026-04-03T08:49:47.001Z</time></trkpt><trkpt lat="39.46486981297518" lon="9.539136178345343"><ele>37.0</ele><time>2026-04-03T08:49:48.001Z</time></trkpt><trkpt lat="39.46505480225769" lon="9.539133143711604"><ele>37.0</ele><time>2026-04-03T08:49:49.001Z</time></trkpt><trkpt lat="39.46524364386554" lon="9.539128841605203"><ele>37.0</ele><time>2026-04-03T08:49:50.001Z</time></trkpt><trkpt lat="39.465436827298035" lon="9.539122593177527"><ele>37.0</ele><time>2026-04-03T08:49:51.001Z</time></trkpt><trkpt lat="39.46562965354074" lon="9.539119210760656"><ele>37.0</ele><time>2026-04-03T08:49:52.001Z</time></trkpt><trkpt lat="39.46582602893253" lon="9.53911781386238"><ele>36.66666666666667</ele><time>2026-04-03T08:49:53.001Z</time></trkpt><trkpt lat="39.466027852818215" lon="9.539128886744086"><ele>36.333333333333336</ele><time>2026-04-03T08:49:54.001Z</time></trkpt><trkpt lat="39.46623021078614" lon="9.539149591313597"><ele>36.0</ele><time>2026-04-03T08:49:55.001Z</time></trkpt><trkpt lat="39.46643365868262" lon="9.539177924970785"><ele>36.666666666666664</ele><time>2026-04-03T08:49:56.001Z</time></trkpt><trkpt lat="39.46663599769016" lon="9.539214912193026"><ele>37.33333333333333</ele><time>2026-04-03T08:49:57.001Z</time></trkpt><trkpt lat="39.46683199473453" lon="9.539250318338057"><ele>38.0</ele><time>2026-04-03T08:49:58.001Z</time></trkpt><trkpt lat="39.46701790026312" lon="9.53928261912011"><ele>38.0</ele><time>2026-04-03T08:49:59.001Z</time></trkpt><trkpt lat="39.467200218723754" lon="9.539309040161868"><ele>38.0</ele><time>2026-04-03T08:50:00.001Z</time></trkpt><trkpt lat="39.467393993052674" lon="9.53931304704304"><ele>38.0</ele><time>2026-04-03T08:50:01.001Z</time></trkpt><trkpt lat="39.46757949671922" lon="9.539274095722572"><ele>38.0</ele><time>2026-04-03T08:50:02.001Z</time></trkpt><trkpt lat="39.46776410860293" lon="9.539209195753543"><ele>38.0</ele><time>2026-04-03T08:50:03.001Z</time></trkpt><trkpt lat="39.467946822429965" lon="9.539131628131772"><ele>38.0</ele><time>2026-04-03T08:50:04.001Z</time></trkpt><trkpt lat="39.4681318172025" lon="9.539059788147178"><ele>34.666666666666664</ele><time>2026-04-03T08:50:05.001Z</time></trkpt><trkpt lat="39.46831853655855" lon="9.538991396723913"><ele>31.333333333333336</ele><time>2026-04-03T08:50:06.001Z</time></trkpt><trkpt lat="39.46850691944576" lon="9.538927240994262"><ele>28.0</ele><time>2026-04-03T08:50:07.001Z</time></trkpt><trkpt lat="39.46869581352475" lon="9.53886494891822"><ele>26.0</ele><time>2026-04-03T08:50:08.001Z</time></trkpt><trkpt lat="39.46888586962495" lon="9.538810177406576"><ele>24.0</ele><time>2026-04-03T08:50:09.001Z</time></trkpt><trkpt lat="39.469077316325475" lon="9.538773288262"><ele>22.0</ele><time>2026-04-03T08:50:10.001Z</time></trkpt><trkpt lat="39.469269824930045" lon="9.53874338785223"><ele>27.666666666666664</ele><time>2026-04-03T08:50:11.001Z</time></trkpt><trkpt lat="39.469460848536535" lon="9.538705952865977"><ele>33.333333333333336</ele><time>2026-04-03T08:50:12.001Z</time></trkpt><trkpt lat="39.4696476811217" lon="9.538650887306266"><ele>39.0</ele><time>2026-04-03T08:50:13.001Z</time></trkpt><trkpt lat="39.46983348820018" lon="9.538582567495988"><ele>39.0</ele><time>2026-04-03T08:50:14.001Z</time></trkpt><trkpt lat="39.470018844225166" lon="9.538507267632609"><ele>39.0</ele><time>2026-04-03T08:50:15.001Z</time></trkpt><trkpt lat="39.470203945669894" lon="9.538427212971499"><ele>39.0</ele><time>2026-04-03T08:50:16.001Z</time></trkpt><trkpt lat="39.470388293399594" lon="9.538355860649968"><ele>38.333333333333336</ele><time>2026-04-03T08:50:17.001Z</time></trkpt><trkpt lat="39.470581768334426" lon="9.538310367315498"><ele>37.66666666666667</ele><time>2026-04-03T08:50:18.001Z</time></trkpt><trkpt lat="39.47077906162971" lon="9.538300127095697"><ele>37.0</ele><time>2026-04-03T08:50:19.001Z</time></trkpt><trkpt lat="39.47097678022383" lon="9.538318011113342"><ele>37.0</ele><time>2026-04-03T08:50:20.001Z</time></trkpt><trkpt lat="39.47117211580219" lon="9.53832273946209"><ele>37.0</ele><time>2026-04-03T08:50:21.001Z</time></trkpt><trkpt lat="39.47137254713021" lon="9.538297234695506"><ele>37.0</ele><time>2026-04-03T08:50:22.001Z</time></trkpt><trkpt lat="39.47156979974308" lon="9.538259898325995"><ele>36.0</ele><time>2026-04-03T08:50:23.001Z</time></trkpt><trkpt lat="39.47176973313539" lon="9.53824519691043"><ele>35.0</ele><time>2026-04-03T08:50:24.001Z</time></trkpt><trkpt lat="39.47197189673749" lon="9.538270013353452"><ele>34.0</ele><time>2026-04-03T08:50:25.001Z</time></trkpt><trkpt lat="39.47217208222699" lon="9.538332727300215"><ele>36.333333333333336</ele><time>2026-04-03T08:50:26.001Z</time></trkpt><trkpt lat="39.47237136380575" lon="9.53840691299703"><ele>38.666666666666664</ele><time>2026-04-03T08:50:27.001Z</time></trkpt><trkpt lat="39.47257419502083" lon="9.538461075478892"><ele>41.0</ele><time>2026-04-03T08:50:28.001Z</time></trkpt><trkpt lat="39.472776403543634" lon="9.538502846933438"><ele>47.33333333333333</ele><time>2026-04-03T08:50:29.001Z</time></trkpt><trkpt lat="39.47297667095696" lon="9.538544609984777"><ele>53.666666666666664</ele><time>2026-04-03T08:50:30.001Z</time></trkpt><trkpt lat="39.47317302661782" lon="9.538589747259143"><ele>60.0</ele><time>2026-04-03T08:50:31.001Z</time></trkpt><trkpt lat="39.473368851198956" lon="9.538644499008184"><ele>60.0</ele><time>2026-04-03T08:50:32.001Z</time></trkpt><trkpt lat="39.4735588717756" lon="9.53871083001986"><ele>60.0</ele><time>2026-04-03T08:50:33.001Z</time></trkpt><trkpt lat="39.47374866944254" lon="9.538793332416923"><ele>60.0</ele><time>2026-04-03T08:50:34.001Z</time></trkpt><trkpt lat="39.47393818989969" lon="9.53888183369014"><ele>52.666666666666664</ele><time>2026-04-03T08:50:35.001Z</time></trkpt><trkpt lat="39.47412571580373" lon="9.538966854540378"><ele>45.33333333333333</ele><time>2026-04-03T08:50:36.001Z</time></trkpt><trkpt lat="39.47431473393103" lon="9.539050481624702"><ele>38.0</ele><time>2026-04-03T08:50:37.001Z</time></trkpt><trkpt lat="39.474497588475984" lon="9.539135529722756"><ele>43.666666666666664</ele><time>2026-04-03T08:50:38.001Z</time></trkpt><trkpt lat="39.474677857050004" lon="9.539233227438324"><ele>49.33333333333333</ele><time>2026-04-03T08:50:39.001Z</time></trkpt><trkpt lat="39.47487100866141" lon="9.53936751116827"><ele>55.0</ele><time>2026-04-03T08:50:40.001Z</time></trkpt><trkpt lat="39.475022080482056" lon="9.5395091934061"><ele>50.666666666666664</ele><time>2026-04-03T08:50:41.001Z</time></trkpt><trkpt lat="39.47518722748767" lon="9.539652221745351"><ele>46.33333333333333</ele><time>2026-04-03T08:50:42.001Z</time></trkpt><trkpt lat="39.47535553615993" lon="9.539760699144667"><ele>42.0</ele><time>2026-04-03T08:50:43.001Z</time></trkpt><trkpt lat="39.475522623951186" lon="9.539832859937913"><ele>42.0</ele><time>2026-04-03T08:50:44.001Z</time></trkpt><trkpt lat="39.4756841230954" lon="9.539844066648888"><ele>42.0</ele><time>2026-04-03T08:50:45.001Z</time></trkpt><trkpt lat="39.47581695918497" lon="9.53979602463088"><ele>42.0</ele><time>2026-04-03T08:50:46.001Z</time></trkpt><trkpt lat="39.475909154766946" lon="9.539703551807213"><ele>42.0</ele><time>2026-04-03T08:50:47.001Z</time></trkpt><trkpt lat="39.47595384678504" lon="9.539561216622525"><ele>42.25</ele><time>2026-04-03T08:50:48.001Z</time></trkpt><trkpt lat="39.47597322853823" lon="9.539388425164143"><ele>42.5</ele><time>2026-04-03T08:50:49.001Z</time></trkpt><trkpt lat="39.47595332198808" lon="9.539203787613863"><ele>42.75</ele><time>2026-04-03T08:50:50.001Z</time></trkpt><trkpt lat="39.475925756555114" lon="9.53901289790916"><ele>43.0</ele><time>2026-04-03T08:50:51.001Z</time></trkpt><trkpt lat="39.47590383910886" lon="9.538812549817345"><ele>40.66666666666667</ele><time>2026-04-03T08:50:52.001Z</time></trkpt><trkpt lat="39.475853691495104" lon="9.538608280543555"><ele>38.333333333333336</ele><time>2026-04-03T08:50:53.001Z</time></trkpt><trkpt lat="39.4757946975413" lon="9.538416125628332"><ele>36.0</ele><time>2026-04-03T08:50:54.001Z</time></trkpt><trkpt lat="39.47572160961667" lon="9.538220924884335"><ele>36.0</ele><time>2026-04-03T08:50:55.001Z</time></trkpt><trkpt lat="39.47565137823271" lon="9.53801735570655"><ele>36.0</ele><time>2026-04-03T08:50:56.001Z</time></trkpt><trkpt lat="39.47558730721701" lon="9.53780824047225"><ele>36.0</ele><time>2026-04-03T08:50:57.001Z</time></trkpt><trkpt lat="39.475518688473336" lon="9.537619337766545"><ele>39.666666666666664</ele><time>2026-04-03T08:50:58.001Z</time></trkpt><trkpt lat="39.47542609797002" lon="9.537404318253438"><ele>43.33333333333333</ele><time>2026-04-03T08:50:59.001Z</time></trkpt><trkpt lat="39.475332390452884" lon="9.537203286546328"><ele>47.0</ele><time>2026-04-03T08:51:00.001Z</time></trkpt><trkpt lat="39.475251116566305" lon="9.536997483343322"><ele>47.0</ele><time>2026-04-03T08:51:01.001Z</time></trkpt><trkpt lat="39.47518196740904" lon="9.536777997033312"><ele>47.0</ele><time>2026-04-03T08:51:02.001Z</time></trkpt><trkpt lat="39.47513017076761" lon="9.536546356669618"><ele>47.0</ele><time>2026-04-03T08:51:03.001Z</time></trkpt><trkpt lat="39.47510072127987" lon="9.536308178604928"><ele>46.0</ele><time>2026-04-03T08:51:04.001Z</time></trkpt><trkpt lat="39.475090723590895" lon="9.536066241869253"><ele>45.0</ele><time>2026-04-03T08:51:05.001Z</time></trkpt><trkpt lat="39.4750912238876" lon="9.53582446339077"><ele>44.0</ele><time>2026-04-03T08:51:06.001Z</time></trkpt><trkpt lat="39.47511104250015" lon="9.535581307732903"><ele>44.33333333333333</ele><time>2026-04-03T08:51:07.001Z</time></trkpt><trkpt lat="39.47515174865634" lon="9.535344854729424"><ele>44.666666666666664</ele><time>2026-04-03T08:51:08.001Z</time></trkpt><trkpt lat="39.47520193657961" lon="9.535105549425248"><ele>45.0</ele><time>2026-04-03T08:51:09.001Z</time></trkpt><trkpt lat="39.475260796954124" lon="9.534875102714702"><ele>45.0</ele><time>2026-04-03T08:51:10.001Z</time></trkpt><trkpt lat="39.47533731808926" lon="9.534655055008079"><ele>45.0</ele><time>2026-04-03T08:51:11.001Z</time></trkpt><trkpt lat="39.47541320168169" lon="9.534438818027676"><ele>45.0</ele><time>2026-04-03T08:51:12.001Z</time></trkpt><trkpt lat="39.47549197169108" lon="9.534223097889347"><ele>41.333333333333336</ele><time>2026-04-03T08:51:13.001Z</time></trkpt><trkpt lat="39.47557034779481" lon="9.534008533488402"><ele>37.66666666666667</ele><time>2026-04-03T08:51:14.001Z</time></trkpt><trkpt lat="39.475646453000984" lon="9.533792350711833"><ele>34.0</ele><time>2026-04-03T08:51:15.001Z</time></trkpt><trkpt lat="39.475719241307395" lon="9.533578009507103"><ele>34.0</ele><time>2026-04-03T08:51:16.001Z</time></trkpt><trkpt lat="39.47579080299433" lon="9.53336378966911"><ele>34.0</ele><time>2026-04-03T08:51:17.001Z</time></trkpt><trkpt lat="39.47586720969306" lon="9.53315096065773"><ele>34.0</ele><time>2026-04-03T08:51:18.001Z</time></trkpt><trkpt lat="39.47594207916935" lon="9.532938242681425"><ele>36.333333333333336</ele><time>2026-04-03T08:51:19.001Z</time></trkpt><trkpt lat="39.47601422661399" lon="9.532723395426059"><ele>38.666666666666664</ele><time>2026-04-03T08:51:20.001Z</time></trkpt><trkpt lat="39.47608695458593" lon="9.532507740857877"><ele>41.0</ele><time>2026-04-03T08:51:21.001Z</time></trkpt><trkpt lat="39.47616068646295" lon="9.53229156171897"><ele>41.0</ele><time>2026-04-03T08:51:22.001Z</time></trkpt><trkpt lat="39.47623771059449" lon="9.532071818638855"><ele>41.0</ele><time>2026-04-03T08:51:23.001Z</time></trkpt><trkpt lat="39.47631409368453" lon="9.531852693269961"><ele>41.0</ele><time>2026-04-03T08:51:24.001Z</time></trkpt><trkpt lat="39.47638863442692" lon="9.531629451529268"><ele>36.0</ele><time>2026-04-03T08:51:25Z</time></trkpt><trkpt lat="39.47645824154838" lon="9.531402554560023"><ele>31.0</ele><time>2026-04-03T08:51:26Z</time></trkpt><trkpt lat="39.476518245798" lon="9.531164946251913"><ele>26.0</ele><time>2026-04-03T08:51:27Z</time></trkpt><trkpt lat="39.47657044989948" lon="9.530923161647966"><ele>26.0</ele><time>2026-04-03T08:51:28Z</time></trkpt><trkpt lat="39.47661377827683" lon="9.530675174326507"><ele>26.0</ele><time>2026-04-03T08:51:29Z</time></trkpt><trkpt lat="39.47665181004362" lon="9.53042385218598"><ele>26.0</ele><time>2026-04-03T08:51:30Z</time></trkpt><trkpt lat="39.476682574848724" lon="9.530172498413565"><ele>27.333333333333332</ele><time>2026-04-03T08:51:31Z</time></trkpt><trkpt lat="39.47671546898444" lon="9.529921689828601"><ele>28.666666666666664</ele><time>2026-04-03T08:51:32Z</time></trkpt><trkpt lat="39.47675225418827" lon="9.529672623791944"><ele>30.0</ele><time>2026-04-03T08:51:33Z</time></trkpt><trkpt lat="39.47678576586489" lon="9.52942700957522"><ele>34.0</ele><time>2026-04-03T08:51:34Z</time></trkpt><trkpt lat="39.47681529483653" lon="9.529181203849346"><ele>38.0</ele><time>2026-04-03T08:51:35Z</time></trkpt><trkpt lat="39.476836743006096" lon="9.528937809117808"><ele>42.0</ele><time>2026-04-03T08:51:36Z</time></trkpt><trkpt lat="39.476857495029265" lon="9.528697586787503"><ele>45.0</ele><time>2026-04-03T08:51:37Z</time></trkpt><trkpt lat="39.47688181669285" lon="9.528461820997856"><ele>48.0</ele><time>2026-04-03T08:51:38Z</time></trkpt><trkpt lat="39.4769156536693" lon="9.528229196257705"><ele>51.0</ele><time>2026-04-03T08:51:39Z</time></trkpt><trkpt lat="39.4769485462215" lon="9.527997646093011"><ele>53.33333333333333</ele><time>2026-04-03T08:51:40Z</time></trkpt><trkpt lat="39.47698738705626" lon="9.527765933227355"><ele>55.666666666666664</ele><time>2026-04-03T08:51:41Z</time></trkpt><trkpt lat="39.477019222188794" lon="9.527537913769645"><ele>58.0</ele><time>2026-04-03T08:51:42Z</time></trkpt><trkpt lat="39.47704233630663" lon="9.527308269850474"><ele>58.0</ele><time>2026-04-03T08:51:43Z</time></trkpt><trkpt lat="39.47704997974044" lon="9.527075370733387"><ele>58.0</ele><time>2026-04-03T08:51:44Z</time></trkpt><trkpt lat="39.47704767683593" lon="9.526849228702066"><ele>58.0</ele><time>2026-04-03T08:51:45Z</time></trkpt><trkpt lat="39.47704871766293" lon="9.526620743263317"><ele>58.33333333333333</ele><time>2026-04-03T08:51:46Z</time></trkpt><trkpt lat="39.477059708637555" lon="9.526387653032582"><ele>58.66666666666667</ele><time>2026-04-03T08:51:47Z</time></trkpt><trkpt lat="39.47707584667115" lon="9.526155452829682"><ele>59.0</ele><time>2026-04-03T08:51:48Z</time></trkpt><trkpt lat="39.47708860201808" lon="9.525928028978317"><ele>48.333333333333336</ele><time>2026-04-03T08:51:49Z</time></trkpt><trkpt lat="39.477108556413995" lon="9.525694384434905"><ele>37.66666666666667</ele><time>2026-04-03T08:51:50Z</time></trkpt><trkpt lat="39.47713957238528" lon="9.525461248776287"><ele>27.0</ele><time>2026-04-03T08:51:51Z</time></trkpt><trkpt lat="39.47718893223527" lon="9.525235549422327"><ele>27.0</ele><time>2026-04-03T08:51:52Z</time></trkpt><trkpt lat="39.47725376845568" lon="9.525018605113388"><ele>27.0</ele><time>2026-04-03T08:51:53Z</time></trkpt><trkpt lat="39.477327922335405" lon="9.524797172199255"><ele>27.0</ele><time>2026-04-03T08:51:54Z</time></trkpt><trkpt lat="39.477404140891856" lon="9.524579170859548"><ele>32.666666666666664</ele><time>2026-04-03T08:51:55Z</time></trkpt><trkpt lat="39.47748557999086" lon="9.524347444604341"><ele>38.33333333333333</ele><time>2026-04-03T08:51:56Z</time></trkpt><trkpt lat="39.477566594439416" lon="9.52410615887917"><ele>44.0</ele><time>2026-04-03T08:51:57Z</time></trkpt><trkpt lat="39.47764465065365" lon="9.5238670267385"><ele>50.33333333333333</ele><time>2026-04-03T08:51:58Z</time></trkpt><trkpt lat="39.47770840288836" lon="9.523623551501958"><ele>56.666666666666664</ele><time>2026-04-03T08:51:59Z</time></trkpt><trkpt lat="39.47777033390657" lon="9.52336679941656"><ele>63.0</ele><time>2026-04-03T08:52:00Z</time></trkpt><trkpt lat="39.477825324040246" lon="9.52312556201041"><ele>67.33333333333333</ele><time>2026-04-03T08:52:01Z</time></trkpt><trkpt lat="39.477885653479596" lon="9.52288498529387"><ele>71.66666666666666</ele><time>2026-04-03T08:52:02Z</time></trkpt><trkpt lat="39.47795201041138" lon="9.522645902829389"><ele>76.0</ele><time>2026-04-03T08:52:03Z</time></trkpt><trkpt lat="39.47802116857662" lon="9.522407324051082"><ele>62.33333333333333</ele><time>2026-04-03T08:52:04Z</time></trkpt><trkpt lat="39.47809504070811" lon="9.52216947294954"><ele>48.666666666666664</ele><time>2026-04-03T08:52:05Z</time></trkpt><trkpt lat="39.47816304465712" lon="9.5219257295181"><ele>35.0</ele><time>2026-04-03T08:52:06Z</time></trkpt><trkpt lat="39.47822528163167" lon="9.521682726010253"><ele>35.0</ele><time>2026-04-03T08:52:07Z</time></trkpt><trkpt lat="39.47829869132668" lon="9.521425813717675"><ele>35.0</ele><time>2026-04-03T08:52:08Z</time></trkpt><trkpt lat="39.47837990249899" lon="9.521190095374473"><ele>35.0</ele><time>2026-04-03T08:52:09Z</time></trkpt><trkpt lat="39.47848293897793" lon="9.520980635318054"><ele>33.33333333333333</ele><time>2026-04-03T08:52:10Z</time></trkpt><trkpt lat="39.478611616355934" lon="9.52079040407997"><ele>31.666666666666664</ele><time>2026-04-03T08:52:11Z</time></trkpt><trkpt lat="39.47874939317516" lon="9.520602381518582"><ele>30.0</ele><time>2026-04-03T08:52:12Z</time></trkpt><trkpt lat="39.478868794938045" lon="9.520399390046142"><ele>30.0</ele><time>2026-04-03T08:52:13Z</time></trkpt><trkpt lat="39.478983845992836" lon="9.520196778513752"><ele>30.0</ele><time>2026-04-03T08:52:14Z</time></trkpt><trkpt lat="39.47908284051866" lon="9.519977021782418"><ele>30.0</ele><time>2026-04-03T08:52:15Z</time></trkpt><trkpt lat="39.4791638466448" lon="9.519740413758694"><ele>29.333333333333336</ele><time>2026-04-03T08:52:16Z</time></trkpt><trkpt lat="39.47921515824263" lon="9.519492873993846"><ele>28.666666666666668</ele><time>2026-04-03T08:52:17Z</time></trkpt><trkpt lat="39.47928209001753" lon="9.519231411897275"><ele>28.0</ele><time>2026-04-03T08:52:18Z</time></trkpt><trkpt lat="39.47934283085806" lon="9.518970303911251"><ele>28.0</ele><time>2026-04-03T08:52:19Z</time></trkpt><trkpt lat="39.47941126046975" lon="9.518711473930091"><ele>28.0</ele><time>2026-04-03T08:52:20Z</time></trkpt><trkpt lat="39.47947887748927" lon="9.518449317041574"><ele>28.0</ele><time>2026-04-03T08:52:21Z</time></trkpt><trkpt lat="39.479542260602166" lon="9.518187235737983"><ele>26.666666666666668</ele><time>2026-04-03T08:52:22Z</time></trkpt><trkpt lat="39.47960926085252" lon="9.517925699543753"><ele>25.333333333333336</ele><time>2026-04-03T08:52:23Z</time></trkpt><trkpt lat="39.47968498181391" lon="9.517672636514739"><ele>24.0</ele><time>2026-04-03T08:52:24Z</time></trkpt><trkpt lat="39.47976752773075" lon="9.5174287388996"><ele>24.0</ele><time>2026-04-03T08:52:25Z</time></trkpt><trkpt lat="39.47985604727844" lon="9.517188463784873"><ele>24.0</ele><time>2026-04-03T08:52:26Z</time></trkpt><trkpt lat="39.479946650370465" lon="9.51695169003794"><ele>24.0</ele><time>2026-04-03T08:52:27Z</time></trkpt><trkpt lat="39.48004667278423" lon="9.516722163207005"><ele>27.333333333333336</ele><time>2026-04-03T08:52:28Z</time></trkpt><trkpt lat="39.4801444799929" lon="9.516496692260946"><ele>30.666666666666668</ele><time>2026-04-03T08:52:29Z</time></trkpt><trkpt lat="39.48023947410885" lon="9.516266945794492"><ele>34.0</ele><time>2026-04-03T08:52:30Z</time></trkpt><trkpt lat="39.48032347212662" lon="9.516030594279048"><ele>37.0</ele><time>2026-04-03T08:52:31Z</time></trkpt><trkpt lat="39.480384376315236" lon="9.515780939737079"><ele>40.0</ele><time>2026-04-03T08:52:32Z</time></trkpt><trkpt lat="39.48042590082194" lon="9.515513149986898"><ele>43.0</ele><time>2026-04-03T08:52:33Z</time></trkpt><trkpt lat="39.480455051484384" lon="9.515230324643207"><ele>37.66666666666667</ele><time>2026-04-03T08:52:34Z</time></trkpt><trkpt lat="39.480475471287264" lon="9.514953489572493"><ele>32.333333333333336</ele><time>2026-04-03T08:52:35Z</time></trkpt><trkpt lat="39.480494856672856" lon="9.514679022537472"><ele>27.0</ele><time>2026-04-03T08:52:36Z</time></trkpt><trkpt lat="39.48050839900973" lon="9.514403657976828"><ele>27.0</ele><time>2026-04-03T08:52:37Z</time></trkpt><trkpt lat="39.48050127306688" lon="9.514127573134282"><ele>27.0</ele><time>2026-04-03T08:52:38Z</time></trkpt><trkpt lat="39.480481454180634" lon="9.513850959714276"><ele>27.0</ele><time>2026-04-03T08:52:39Z</time></trkpt><trkpt lat="39.48045887574461" lon="9.513581179392153"><ele>27.0</ele><time>2026-04-03T08:52:40Z</time></trkpt><trkpt lat="39.48043451043382" lon="9.513311652705225"><ele>27.0</ele><time>2026-04-03T08:52:41Z</time></trkpt><trkpt lat="39.48041679681654" lon="9.513050656585824"><ele>27.0</ele><time>2026-04-03T08:52:42.001Z</time></trkpt><trkpt lat="39.48039964432631" lon="9.5127926796952"><ele>34.33333333333333</ele><time>2026-04-03T08:52:43.001Z</time></trkpt><trkpt lat="39.48038553123679" lon="9.512535878436443"><ele>41.666666666666664</ele><time>2026-04-03T08:52:44Z</time></trkpt><trkpt lat="39.48037102146173" lon="9.512281174864308"><ele>49.0</ele><time>2026-04-03T08:52:45Z</time></trkpt><trkpt lat="39.48034813968808" lon="9.512027982676027"><ele>49.0</ele><time>2026-04-03T08:52:46Z</time></trkpt><trkpt lat="39.480290750816906" lon="9.511781028277193"><ele>49.0</ele><time>2026-04-03T08:52:47Z</time></trkpt><trkpt lat="39.48020426362437" lon="9.511547524741934"><ele>49.0</ele><time>2026-04-03T08:52:48Z</time></trkpt><trkpt lat="39.48010789734449" lon="9.511314385317355"><ele>43.0</ele><time>2026-04-03T08:52:49Z</time></trkpt><trkpt lat="39.48000795359165" lon="9.511079417419758"><ele>37.0</ele><time>2026-04-03T08:52:50Z</time></trkpt><trkpt lat="39.47991435874304" lon="9.510841569341006"><ele>31.0</ele><time>2026-04-03T08:52:51Z</time></trkpt><trkpt lat="39.47981558157404" lon="9.510601967664448"><ele>27.666666666666668</ele><time>2026-04-03T08:52:52Z</time></trkpt><trkpt lat="39.479713134888534" lon="9.510368282205745"><ele>24.333333333333336</ele><time>2026-04-03T08:52:53Z</time></trkpt><trkpt lat="39.47961261716627" lon="9.510131101717878"><ele>21.0</ele><time>2026-04-03T08:52:54Z</time></trkpt><trkpt lat="39.479523856174545" lon="9.509883841964179"><ele>24.0</ele><time>2026-04-03T08:52:55Z</time></trkpt><trkpt lat="39.479444835333595" lon="9.509620324987509"><ele>27.0</ele><time>2026-04-03T08:52:56Z</time></trkpt><trkpt lat="39.47937390529917" lon="9.509346391138804"><ele>30.0</ele><time>2026-04-03T08:52:57Z</time></trkpt><trkpt lat="39.47931408180986" lon="9.509068941221647"><ele>30.0</ele><time>2026-04-03T08:52:58Z</time></trkpt><trkpt lat="39.47926448379253" lon="9.508787431067088"><ele>30.0</ele><time>2026-04-03T08:52:59Z</time></trkpt><trkpt lat="39.479218266993044" lon="9.508506511713932"><ele>30.0</ele><time>2026-04-03T08:53:00Z</time></trkpt><trkpt lat="39.47917388520501" lon="9.508226078951681"><ele>32.0</ele><time>2026-04-03T08:53:01Z</time></trkpt><trkpt lat="39.479130015366636" lon="9.507946998282357"><ele>34.0</ele><time>2026-04-03T08:53:02Z</time></trkpt><trkpt lat="39.479085607776156" lon="9.507671746389033"><ele>36.0</ele><time>2026-04-03T08:53:03Z</time></trkpt><trkpt lat="39.47904152645419" lon="9.507397698009715"><ele>36.666666666666664</ele><time>2026-04-03T08:53:04Z</time></trkpt><trkpt lat="39.47900025804935" lon="9.507125656253397"><ele>37.33333333333333</ele><time>2026-04-03T08:53:05Z</time></trkpt><trkpt lat="39.47896076631103" lon="9.506858280404062"><ele>38.0</ele><time>2026-04-03T08:53:06Z</time></trkpt><trkpt lat="39.47892568179011" lon="9.506592692337472"><ele>39.0</ele><time>2026-04-03T08:53:07Z</time></trkpt><trkpt lat="39.47890258781691" lon="9.506321061162174"><ele>40.0</ele><time>2026-04-03T08:53:08Z</time></trkpt><trkpt lat="39.478885563330856" lon="9.506038437918074"><ele>41.0</ele><time>2026-04-03T08:53:09Z</time></trkpt><trkpt lat="39.47886986117163" lon="9.505752951229962"><ele>41.666666666666664</ele><time>2026-04-03T08:53:10Z</time></trkpt><trkpt lat="39.47885346289429" lon="9.505465651882604"><ele>42.333333333333336</ele><time>2026-04-03T08:53:11Z</time></trkpt><trkpt lat="39.47883402258331" lon="9.50517858186054"><ele>43.0</ele><time>2026-04-03T08:53:12Z</time></trkpt><trkpt lat="39.47881328016606" lon="9.504890664614296"><ele>41.0</ele><time>2026-04-03T08:53:13Z</time></trkpt><trkpt lat="39.47881095489828" lon="9.504599058210134"><ele>39.0</ele><time>2026-04-03T08:53:14Z</time></trkpt><trkpt lat="39.47879782586375" lon="9.504305219947222"><ele>36.0</ele><time>2026-04-03T08:53:15Z</time></trkpt><trkpt lat="39.47878263548707" lon="9.50401394554569"><ele>33.0</ele><time>2026-04-03T08:53:16Z</time></trkpt><trkpt lat="39.478768367945065" lon="9.50372322263245"><ele>33.0</ele><time>2026-04-03T08:53:17Z</time></trkpt><trkpt lat="39.47876116872827" lon="9.503430871637615"><ele>33.0</ele><time>2026-04-03T08:53:18Z</time></trkpt><trkpt lat="39.47877156830087" lon="9.503136308362327"><ele>33.5</ele><time>2026-04-03T08:53:19Z</time></trkpt><trkpt lat="39.47880597313827" lon="9.502846817115119"><ele>34.0</ele><time>2026-04-03T08:53:20Z</time></trkpt><trkpt lat="39.47887374170865" lon="9.502564492036301"><ele>34.0</ele><time>2026-04-03T08:53:21Z</time></trkpt><trkpt lat="39.478960368879925" lon="9.502284925222368"><ele>34.0</ele><time>2026-04-03T08:53:22Z</time></trkpt><trkpt lat="39.47906507955857" lon="9.50200154070117"><ele>36.5</ele><time>2026-04-03T08:53:23Z</time></trkpt><trkpt lat="39.47917252276483" lon="9.501728182389146"><ele>39.0</ele><time>2026-04-03T08:53:24Z</time></trkpt><trkpt lat="39.47928545218439" lon="9.501442944235032"><ele>41.0</ele><time>2026-04-03T08:53:25Z</time></trkpt><trkpt lat="39.479387239253874" lon="9.501147205129055"><ele>43.0</ele><time>2026-04-03T08:53:26Z</time></trkpt><trkpt lat="39.479474414615964" lon="9.500884583255793"><ele>43.0</ele><time>2026-04-03T08:53:27Z</time></trkpt><trkpt lat="39.47957156271356" lon="9.500633312733664"><ele>43.0</ele><time>2026-04-03T08:53:28Z</time></trkpt><trkpt lat="39.479660782976126" lon="9.500374319515256"><ele>43.0</ele><time>2026-04-03T08:53:29Z</time></trkpt><trkpt lat="39.47971645131831" lon="9.500103123645708"><ele>41.0</ele><time>2026-04-03T08:53:30Z</time></trkpt><trkpt lat="39.47974645659306" lon="9.49981604372209"><ele>39.0</ele><time>2026-04-03T08:53:31Z</time></trkpt><trkpt lat="39.479748148635956" lon="9.499533981391401"><ele>37.0</ele><time>2026-04-03T08:53:32Z</time></trkpt><trkpt lat="39.479728556953866" lon="9.499257750157511"><ele>37.0</ele><time>2026-04-03T08:53:33Z</time></trkpt><trkpt lat="39.47969862913652" lon="9.498978507164724"><ele>37.0</ele><time>2026-04-03T08:53:34Z</time></trkpt><trkpt lat="39.47967574701786" lon="9.49870332388843"><ele>37.0</ele><time>2026-04-03T08:53:35Z</time></trkpt><trkpt lat="39.479661549171276" lon="9.498428423647699"><ele>37.0</ele><time>2026-04-03T08:53:36Z</time></trkpt><trkpt lat="39.47964976275825" lon="9.498155011237825"><ele>37.0</ele><time>2026-04-03T08:53:37Z</time></trkpt><trkpt lat="39.47965090410509" lon="9.497885577846997"><ele>37.0</ele><time>2026-04-03T08:53:38Z</time></trkpt><trkpt lat="39.47965511929967" lon="9.497610075677299"><ele>37.0</ele><time>2026-04-03T08:53:39Z</time></trkpt><trkpt lat="39.479669395519785" lon="9.497338017602894"><ele>37.0</ele><time>2026-04-03T08:53:40Z</time></trkpt><trkpt lat="39.4796957254712" lon="9.497070605145751"><ele>37.0</ele><time>2026-04-03T08:53:41Z</time></trkpt><trkpt lat="39.47972495820022" lon="9.496802639948687"><ele>37.66666666666667</ele><time>2026-04-03T08:53:42Z</time></trkpt><trkpt lat="39.479756413096" lon="9.49652427846226"><ele>38.333333333333336</ele><time>2026-04-03T08:53:43Z</time></trkpt><trkpt lat="39.47977787836751" lon="9.496253398570481"><ele>39.0</ele><time>2026-04-03T08:53:44Z</time></trkpt><trkpt lat="39.47978646422703" lon="9.495996786020143"><ele>40.333333333333336</ele><time>2026-04-03T08:53:45Z</time></trkpt><trkpt lat="39.47981488734888" lon="9.495700123477642"><ele>41.66666666666667</ele><time>2026-04-03T08:53:46Z</time></trkpt><trkpt lat="39.47984188102657" lon="9.495426824205431"><ele>43.0</ele><time>2026-04-03T08:53:47Z</time></trkpt><trkpt lat="39.47986655568211" lon="9.495149697219155"><ele>43.66666666666667</ele><time>2026-04-03T08:53:48Z</time></trkpt><trkpt lat="39.479890907281984" lon="9.494873443480849"><ele>44.333333333333336</ele><time>2026-04-03T08:53:49Z</time></trkpt><trkpt lat="39.479916556783856" lon="9.494596531547026"><ele>45.0</ele><time>2026-04-03T08:53:50Z</time></trkpt><trkpt lat="39.47994089438453" lon="9.494317285284524"><ele>45.666666666666664</ele><time>2026-04-03T08:53:51Z</time></trkpt><trkpt lat="39.47996666700556" lon="9.494039240455159"><ele>46.33333333333333</ele><time>2026-04-03T08:53:52Z</time></trkpt><trkpt lat="39.47999231026771" lon="9.493757763154557"><ele>47.0</ele><time>2026-04-03T08:53:53Z</time></trkpt><trkpt lat="39.48000333910042" lon="9.493475414977903"><ele>48.0</ele><time>2026-04-03T08:53:54Z</time></trkpt><trkpt lat="39.4799901340646" lon="9.493194275585095"><ele>49.0</ele><time>2026-04-03T08:53:55Z</time></trkpt><trkpt lat="39.47994234385988" lon="9.492921547424439"><ele>50.0</ele><time>2026-04-03T08:53:56Z</time></trkpt><trkpt lat="39.479866411309935" lon="9.49265561811713"><ele>50.0</ele><time>2026-04-03T08:53:57Z</time></trkpt><trkpt lat="39.47978622924217" lon="9.492389837233526"><ele>50.0</ele><time>2026-04-03T08:53:58Z</time></trkpt><trkpt lat="39.47970613059427" lon="9.492124936349857"><ele>50.0</ele><time>2026-04-03T08:53:59Z</time></trkpt><trkpt lat="39.47962974139306" lon="9.49185532038725"><ele>51.0</ele><time>2026-04-03T08:54:00Z</time></trkpt><trkpt lat="39.47955885028422" lon="9.491587166195782"><ele>52.0</ele><time>2026-04-03T08:54:01Z</time></trkpt><trkpt lat="39.4795024419757" lon="9.491312176600232"><ele>53.0</ele><time>2026-04-03T08:54:02Z</time></trkpt><trkpt lat="39.479467428594596" lon="9.49102962092365"><ele>52.0</ele><time>2026-04-03T08:54:03Z</time></trkpt><trkpt lat="39.47945885627476" lon="9.490739641484497"><ele>51.0</ele><time>2026-04-03T08:54:04Z</time></trkpt><trkpt lat="39.47947396447471" lon="9.490452227128548"><ele>50.0</ele><time>2026-04-03T08:54:05Z</time></trkpt><trkpt lat="39.479516783380575" lon="9.490164332010364"><ele>50.0</ele><time>2026-04-03T08:54:06Z</time></trkpt><trkpt lat="39.479592007666284" lon="9.489885316979201"><ele>50.0</ele><time>2026-04-03T08:54:07Z</time></trkpt><trkpt lat="39.47969092579204" lon="9.489620026431227"><ele>53.5</ele><time>2026-04-03T08:54:08Z</time></trkpt><trkpt lat="39.47985140746684" lon="9.48938624066348"><ele>57.0</ele><time>2026-04-03T08:54:09Z</time></trkpt><trkpt lat="39.4799924319024" lon="9.489160352411993"><ele>57.0</ele><time>2026-04-03T08:54:10Z</time></trkpt><trkpt lat="39.48014143665206" lon="9.488946003713894"><ele>57.0</ele><time>2026-04-03T08:54:11Z</time></trkpt><trkpt lat="39.48029604125109" lon="9.488734641658407"><ele>57.0</ele><time>2026-04-03T08:54:12Z</time></trkpt><trkpt lat="39.48044738492139" lon="9.488523721606382"><ele>56.33333333333333</ele><time>2026-04-03T08:54:13Z</time></trkpt><trkpt lat="39.48058449996539" lon="9.488298291045064"><ele>55.666666666666664</ele><time>2026-04-03T08:54:14Z</time></trkpt><trkpt lat="39.480691873765394" lon="9.488047151875579"><ele>55.0</ele><time>2026-04-03T08:54:15Z</time></trkpt><trkpt lat="39.480783275284594" lon="9.487791143455018"><ele>55.0</ele><time>2026-04-03T08:54:16Z</time></trkpt><trkpt lat="39.48086918303757" lon="9.48753590347656"><ele>55.0</ele><time>2026-04-03T08:54:17Z</time></trkpt><trkpt lat="39.48094960532345" lon="9.487263263830023"><ele>55.0</ele><time>2026-04-03T08:54:18Z</time></trkpt><trkpt lat="39.48099149128433" lon="9.487003861943887"><ele>58.33333333333333</ele><time>2026-04-03T08:54:19Z</time></trkpt><trkpt lat="39.481031993852355" lon="9.486743648330377"><ele>61.66666666666667</ele><time>2026-04-03T08:54:20Z</time></trkpt><trkpt lat="39.48106585042055" lon="9.48648107754628"><ele>65.0</ele><time>2026-04-03T08:54:21Z</time></trkpt><trkpt lat="39.481101152761845" lon="9.486228911766874"><ele>67.33333333333334</ele><time>2026-04-03T08:54:22Z</time></trkpt><trkpt lat="39.4811460713991" lon="9.485990029432596"><ele>69.66666666666667</ele><time>2026-04-03T08:54:23Z</time></trkpt><trkpt lat="39.48121336979263" lon="9.485760004415008"><ele>72.0</ele><time>2026-04-03T08:54:24Z</time></trkpt><trkpt lat="39.48129798736026" lon="9.485541144660708"><ele>67.33333333333333</ele><time>2026-04-03T08:54:25Z</time></trkpt><trkpt lat="39.481392643056104" lon="9.485332946156905"><ele>62.666666666666664</ele><time>2026-04-03T08:54:26Z</time></trkpt><trkpt lat="39.48149328391533" lon="9.485122612601836"><ele>58.0</ele><time>2026-04-03T08:54:27Z</time></trkpt><trkpt lat="39.481600834372166" lon="9.484916484429966"><ele>58.0</ele><time>2026-04-03T08:54:28Z</time></trkpt><trkpt lat="39.4817221739024" lon="9.484725117600917"><ele>58.0</ele><time>2026-04-03T08:54:29Z</time></trkpt><trkpt lat="39.48186057340444" lon="9.484545858625188"><ele>58.0</ele><time>2026-04-03T08:54:30Z</time></trkpt><trkpt lat="39.48201228280507" lon="9.48437455237168"><ele>57.33333333333333</ele><time>2026-04-03T08:54:31Z</time></trkpt><trkpt lat="39.48217775300261" lon="9.48420898476128"><ele>56.66666666666667</ele><time>2026-04-03T08:54:32Z</time></trkpt><trkpt lat="39.48235072741651" lon="9.484060105939953"><ele>56.0</ele><time>2026-04-03T08:54:33Z</time></trkpt><trkpt lat="39.48253095528289" lon="9.483929792498698"><ele>56.0</ele><time>2026-04-03T08:54:34Z</time></trkpt><trkpt lat="39.48271476463874" lon="9.483804717970386"><ele>56.0</ele><time>2026-04-03T08:54:35Z</time></trkpt><trkpt lat="39.482897539185075" lon="9.483681075521304"><ele>56.0</ele><time>2026-04-03T08:54:36Z</time></trkpt><trkpt lat="39.48308202198287" lon="9.483548865914683"><ele>58.66666666666667</ele><time>2026-04-03T08:54:37Z</time></trkpt><trkpt lat="39.483259660990534" lon="9.483415510906736"><ele>61.33333333333333</ele><time>2026-04-03T08:54:38Z</time></trkpt><trkpt lat="39.48340299362346" lon="9.483295229005101"><ele>64.0</ele><time>2026-04-03T08:54:39Z</time></trkpt><trkpt lat="39.483540061138264" lon="9.483159617301178"><ele>64.0</ele><time>2026-04-03T08:54:40Z</time></trkpt><trkpt lat="39.483666776611344" lon="9.48299624026494"><ele>64.0</ele><time>2026-04-03T08:54:41Z</time></trkpt><trkpt lat="39.48377686371918" lon="9.48283721191147"><ele>64.0</ele><time>2026-04-03T08:54:42Z</time></trkpt><trkpt lat="39.483879737811385" lon="9.482667365327094"><ele>65.75</ele><time>2026-04-03T08:54:43Z</time></trkpt><trkpt lat="39.483969071910415" lon="9.482492748902763"><ele>67.5</ele><time>2026-04-03T08:54:44Z</time></trkpt><trkpt lat="39.48403544069587" lon="9.482339386174933"><ele>69.25</ele><time>2026-04-03T08:54:45Z</time></trkpt><trkpt lat="39.48409807928246" lon="9.482173103397624"><ele>71.0</ele><time>2026-04-03T08:54:46Z</time></trkpt><trkpt lat="39.48414827830285" lon="9.482025048454304"><ele>71.0</ele><time>2026-04-03T08:54:47Z</time></trkpt><trkpt lat="39.48418853943089" lon="9.481859043384004"><ele>71.0</ele><time>2026-04-03T08:54:48Z</time></trkpt><trkpt lat="39.48423580221281" lon="9.4817357486416"><ele>71.0</ele><time>2026-04-03T08:54:49Z</time></trkpt><trkpt lat="39.48421553350728" lon="9.481157830832236"><ele>75.5</ele><time>2026-04-03T08:54:50Z</time></trkpt><trkpt lat="39.48438986795482" lon="9.480835844674338"><ele>80.0</ele><time>2026-04-03T08:54:51Z</time></trkpt><trkpt lat="39.484177363974815" lon="9.480592885137904"><ele>79.33333333333334</ele><time>2026-04-03T08:54:52Z</time></trkpt><trkpt lat="39.48416460105232" lon="9.480363065084697"><ele>78.66666666666667</ele><time>2026-04-03T08:54:53Z</time></trkpt><trkpt lat="39.48410852091303" lon="9.48012166233061"><ele>78.0</ele><time>2026-04-03T08:54:54Z</time></trkpt><trkpt lat="39.48406097558163" lon="9.479887388614523"><ele>78.0</ele><time>2026-04-03T08:54:55Z</time></trkpt><trkpt lat="39.48400142824292" lon="9.479649292315015"><ele>78.0</ele><time>2026-04-03T08:54:56Z</time></trkpt><trkpt lat="39.4839356782832" lon="9.479413792213391"><ele>78.0</ele><time>2026-04-03T08:54:57Z</time></trkpt><trkpt lat="39.48387727049862" lon="9.479180565883206"><ele>79.66666666666667</ele><time>2026-04-03T08:54:58Z</time></trkpt><trkpt lat="39.48381636446391" lon="9.478946401128656"><ele>81.33333333333334</ele><time>2026-04-03T08:54:59Z</time></trkpt><trkpt lat="39.4837651423583" lon="9.478707151429232"><ele>83.0</ele><time>2026-04-03T08:55:00Z</time></trkpt><trkpt lat="39.48372442272357" lon="9.47847220843329"><ele>83.0</ele><time>2026-04-03T08:55:01Z</time></trkpt><trkpt lat="39.48370880406662" lon="9.478233747196533"><ele>83.0</ele><time>2026-04-03T08:55:02Z</time></trkpt><trkpt lat="39.48370882305282" lon="9.47799043182571"><ele>83.0</ele><time>2026-04-03T08:55:03Z</time></trkpt><trkpt lat="39.483726395655545" lon="9.477742331633213"><ele>81.66666666666667</ele><time>2026-04-03T08:55:04Z</time></trkpt><trkpt lat="39.48376640655521" lon="9.477494001797583"><ele>80.33333333333333</ele><time>2026-04-03T08:55:05Z</time></trkpt><trkpt lat="39.48382753424186" lon="9.477256268010814"><ele>79.0</ele><time>2026-04-03T08:55:06Z</time></trkpt><trkpt lat="39.48391144873378" lon="9.47702820369108"><ele>85.33333333333333</ele><time>2026-04-03T08:55:07Z</time></trkpt><trkpt lat="39.48401613443218" lon="9.47681270171052"><ele>91.66666666666666</ele><time>2026-04-03T08:55:08Z</time></trkpt><trkpt lat="39.484124073118274" lon="9.476611702647277"><ele>98.0</ele><time>2026-04-03T08:55:09Z</time></trkpt><trkpt lat="39.48424148566668" lon="9.476413443602922"><ele>93.66666666666666</ele><time>2026-04-03T08:55:10Z</time></trkpt><trkpt lat="39.48435770688426" lon="9.476245039116378"><ele>89.33333333333333</ele><time>2026-04-03T08:55:11Z</time></trkpt><trkpt lat="39.48448825911717" lon="9.476036019929596"><ele>85.0</ele><time>2026-04-03T08:55:12Z</time></trkpt><trkpt lat="39.484619766069414" lon="9.475836810955233"><ele>85.0</ele><time>2026-04-03T08:55:13Z</time></trkpt><trkpt lat="39.484746259284975" lon="9.47563751324045"><ele>85.0</ele><time>2026-04-03T08:55:14Z</time></trkpt><trkpt lat="39.48485949964521" lon="9.475438613304146"><ele>85.0</ele><time>2026-04-03T08:55:15Z</time></trkpt><trkpt lat="39.48498228541418" lon="9.475247798395161"><ele>92.33333333333333</ele><time>2026-04-03T08:55:16Z</time></trkpt><trkpt lat="39.48510004765367" lon="9.475062644461444"><ele>99.66666666666666</ele><time>2026-04-03T08:55:17Z</time></trkpt><trkpt lat="39.48521773677857" lon="9.474875397173086"><ele>107.0</ele><time>2026-04-03T08:55:18Z</time></trkpt><trkpt lat="39.48533422248589" lon="9.474694972870516"><ele>105.0</ele><time>2026-04-03T08:55:19Z</time></trkpt><trkpt lat="39.48544690027179" lon="9.474515057955088"><ele>103.0</ele><time>2026-04-03T08:55:20Z</time></trkpt><trkpt lat="39.48554460118363" lon="9.47432455218548"><ele>101.0</ele><time>2026-04-03T08:55:21Z</time></trkpt><trkpt lat="39.48560678902485" lon="9.474109829665089"><ele>101.0</ele><time>2026-04-03T08:55:22Z</time></trkpt><trkpt lat="39.4856629522508" lon="9.47388401729773"><ele>101.0</ele><time>2026-04-03T08:55:23Z</time></trkpt><trkpt lat="39.48567495706509" lon="9.473645798746114"><ele>101.0</ele><time>2026-04-03T08:55:24Z</time></trkpt><trkpt lat="39.48566073379222" lon="9.473408913242794"><ele>100.66666666666666</ele><time>2026-04-03T08:55:25Z</time></trkpt><trkpt lat="39.48561079387622" lon="9.473169623361592"><ele>100.33333333333334</ele><time>2026-04-03T08:55:26Z</time></trkpt><trkpt lat="39.485534877280266" lon="9.472941769070356"><ele>100.0</ele><time>2026-04-03T08:55:27Z</time></trkpt><trkpt lat="39.48542379518057" lon="9.472734188485033"><ele>100.0</ele><time>2026-04-03T08:55:28Z</time></trkpt><trkpt lat="39.485282839404356" lon="9.47256017769028"><ele>100.0</ele><time>2026-04-03T08:55:29Z</time></trkpt><trkpt lat="39.48512610807954" lon="9.472421994258541"><ele>100.0</ele><time>2026-04-03T08:55:30Z</time></trkpt><trkpt lat="39.485003036407505" lon="9.472243514030435"><ele>96.33333333333334</ele><time>2026-04-03T08:55:31Z</time></trkpt><trkpt lat="39.48490153483758" lon="9.472041857322717"><ele>92.66666666666667</ele><time>2026-04-03T08:55:32Z</time></trkpt><trkpt lat="39.48484923074185" lon="9.471810305981537"><ele>89.0</ele><time>2026-04-03T08:55:33Z</time></trkpt><trkpt lat="39.48482757891782" lon="9.471560016686785"><ele>89.0</ele><time>2026-04-03T08:55:34Z</time></trkpt><trkpt lat="39.48485956007489" lon="9.471310795275494"><ele>89.0</ele><time>2026-04-03T08:55:35Z</time></trkpt><trkpt lat="39.48493167183185" lon="9.47106583855624"><ele>89.0</ele><time>2026-04-03T08:55:36Z</time></trkpt><trkpt lat="39.48502117185861" lon="9.470816441607482"><ele>89.0</ele><time>2026-04-03T08:55:37Z</time></trkpt><trkpt lat="39.48511361147107" lon="9.470558953966574"><ele>89.0</ele><time>2026-04-03T08:55:38Z</time></trkpt><trkpt lat="39.48519215997632" lon="9.470305536509558"><ele>89.0</ele><time>2026-04-03T08:55:39Z</time></trkpt><trkpt lat="39.48527358969417" lon="9.470048605001775"><ele>89.0</ele><time>2026-04-03T08:55:40Z</time></trkpt><trkpt lat="39.48534493137797" lon="9.469788277728956"><ele>89.0</ele><time>2026-04-03T08:55:41Z</time></trkpt><trkpt lat="39.485383578452804" lon="9.469514383242073"><ele>89.0</ele><time>2026-04-03T08:55:42Z</time></trkpt><trkpt lat="39.485404851607626" lon="9.469239416295695"><ele>90.66666666666667</ele><time>2026-04-03T08:55:43Z</time></trkpt><trkpt lat="39.48541714543133" lon="9.468969416983363"><ele>92.33333333333333</ele><time>2026-04-03T08:55:44Z</time></trkpt><trkpt lat="39.48542790432524" lon="9.46869557686058"><ele>94.0</ele><time>2026-04-03T08:55:45Z</time></trkpt><trkpt lat="39.48543745179373" lon="9.468416538161938"><ele>85.0</ele><time>2026-04-03T08:55:46Z</time></trkpt><trkpt lat="39.48544418625996" lon="9.46813853075411"><ele>76.0</ele><time>2026-04-03T08:55:47Z</time></trkpt><trkpt lat="39.485449087387174" lon="9.467870277896697"><ele>67.0</ele><time>2026-04-03T08:55:48Z</time></trkpt><trkpt lat="39.48544894068262" lon="9.46760561267885"><ele>67.0</ele><time>2026-04-03T08:55:49Z</time></trkpt><trkpt lat="39.485443544307444" lon="9.467344605314281"><ele>67.0</ele><time>2026-04-03T08:55:50Z</time></trkpt><trkpt lat="39.485421101617014" lon="9.467078596401963"><ele>67.0</ele><time>2026-04-03T08:55:51Z</time></trkpt><trkpt lat="39.485386246836555" lon="9.466808362528317"><ele>65.66666666666666</ele><time>2026-04-03T08:55:52Z</time></trkpt><trkpt lat="39.485341638355166" lon="9.466537470025619"><ele>64.33333333333333</ele><time>2026-04-03T08:55:53Z</time></trkpt><trkpt lat="39.485290934412774" lon="9.466254968083076"><ele>63.0</ele><time>2026-04-03T08:55:54Z</time></trkpt><trkpt lat="39.48523681797108" lon="9.465943263820996"><ele>63.0</ele><time>2026-04-03T08:55:55Z</time></trkpt><trkpt lat="39.485187040891944" lon="9.46564415174172"><ele>63.0</ele><time>2026-04-03T08:55:56Z</time></trkpt><trkpt lat="39.48513949528372" lon="9.465356936707796"><ele>59.0</ele><time>2026-04-03T08:55:57Z</time></trkpt><trkpt lat="39.48508927635828" lon="9.465067020548116"><ele>55.0</ele><time>2026-04-03T08:55:58Z</time></trkpt><trkpt lat="39.48503899225572" lon="9.464773228365598"><ele>52.5</ele><time>2026-04-03T08:55:59Z</time></trkpt><trkpt lat="39.48498975318581" lon="9.464475320756664"><ele>50.0</ele><time>2026-04-03T08:56:00Z</time></trkpt><trkpt lat="39.48493913693773" lon="9.464176074146605"><ele>50.0</ele><time>2026-04-03T08:56:01Z</time></trkpt><trkpt lat="39.48489303193972" lon="9.463876714022588"><ele>50.0</ele><time>2026-04-03T08:56:02Z</time></trkpt><trkpt lat="39.4848531477489" lon="9.463571406927361"><ele>47.5</ele><time>2026-04-03T08:56:03Z</time></trkpt><trkpt lat="39.48483284343366" lon="9.463262709256778"><ele>45.0</ele><time>2026-04-03T08:56:04Z</time></trkpt><trkpt lat="39.48483953885807" lon="9.462957196897024"><ele>44.0</ele><time>2026-04-03T08:56:05Z</time></trkpt><trkpt lat="39.48486278420606" lon="9.462650613571805"><ele>43.0</ele><time>2026-04-03T08:56:06Z</time></trkpt><trkpt lat="39.484888754600775" lon="9.46234683261973"><ele>45.0</ele><time>2026-04-03T08:56:07Z</time></trkpt><trkpt lat="39.4849106187635" lon="9.462040317262472"><ele>47.0</ele><time>2026-04-03T08:56:08Z</time></trkpt><trkpt lat="39.48492472771245" lon="9.461740207223624"><ele>47.0</ele><time>2026-04-03T08:56:09Z</time></trkpt><trkpt lat="39.48493727495434" lon="9.461439439540735"><ele>47.0</ele><time>2026-04-03T08:56:10Z</time></trkpt><trkpt lat="39.48494993982445" lon="9.461141836381163"><ele>46.0</ele><time>2026-04-03T08:56:11Z</time></trkpt><trkpt lat="39.48496296642882" lon="9.460847394449267"><ele>45.0</ele><time>2026-04-03T08:56:12Z</time></trkpt><trkpt lat="39.48499312779879" lon="9.460550973353426"><ele>47.0</ele><time>2026-04-03T08:56:13Z</time></trkpt><trkpt lat="39.48504029231464" lon="9.460261318473053"><ele>49.0</ele><time>2026-04-03T08:56:14Z</time></trkpt><trkpt lat="39.48511567220923" lon="9.459987993100489"><ele>49.0</ele><time>2026-04-03T08:56:15Z</time></trkpt><trkpt lat="39.48520093775853" lon="9.459706950234569"><ele>49.0</ele><time>2026-04-03T08:56:16Z</time></trkpt><trkpt lat="39.48530334516478" lon="9.459456220440995"><ele>49.33333333333333</ele><time>2026-04-03T08:56:17Z</time></trkpt><trkpt lat="39.48540860824376" lon="9.459203169029935"><ele>49.66666666666667</ele><time>2026-04-03T08:56:18Z</time></trkpt><trkpt lat="39.4855016738329" lon="9.4589664836452"><ele>50.0</ele><time>2026-04-03T08:56:19Z</time></trkpt><trkpt lat="39.485589154432525" lon="9.458691421092105"><ele>50.0</ele><time>2026-04-03T08:56:20Z</time></trkpt><trkpt lat="39.485675274461414" lon="9.45842364537125"><ele>50.0</ele><time>2026-04-03T08:56:21Z</time></trkpt><trkpt lat="39.4857645112279" lon="9.458177294110675"><ele>50.0</ele><time>2026-04-03T08:56:22Z</time></trkpt><trkpt lat="39.48585241314267" lon="9.457923489524717"><ele>49.0</ele><time>2026-04-03T08:56:23Z</time></trkpt><trkpt lat="39.485927887941656" lon="9.457665351897473"><ele>48.0</ele><time>2026-04-03T08:56:24Z</time></trkpt><trkpt lat="39.485972106574984" lon="9.457393532228355"><ele>47.0</ele><time>2026-04-03T08:56:25Z</time></trkpt><trkpt lat="39.48601645399725" lon="9.4571124401789"><ele>47.0</ele><time>2026-04-03T08:56:26Z</time></trkpt><trkpt lat="39.48600941710705" lon="9.456816233134441"><ele>47.0</ele><time>2026-04-03T08:56:27Z</time></trkpt><trkpt lat="39.48598884796594" lon="9.456539049112369"><ele>47.0</ele><time>2026-04-03T08:56:28Z</time></trkpt><trkpt lat="39.48597548535212" lon="9.4562572010564"><ele>45.33333333333333</ele><time>2026-04-03T08:56:29Z</time></trkpt><trkpt lat="39.48597554014606" lon="9.455964142726833"><ele>43.666666666666664</ele><time>2026-04-03T08:56:30Z</time></trkpt><trkpt lat="39.485978400250026" lon="9.455687135187326"><ele>42.0</ele><time>2026-04-03T08:56:31Z</time></trkpt><trkpt lat="39.48598162559101" lon="9.455412755131846"><ele>42.0</ele><time>2026-04-03T08:56:32Z</time></trkpt><trkpt lat="39.48597762272517" lon="9.455139053683581"><ele>42.0</ele><time>2026-04-03T08:56:33Z</time></trkpt><trkpt lat="39.48596954543287" lon="9.454870152044213"><ele>42.0</ele><time>2026-04-03T08:56:34Z</time></trkpt><trkpt lat="39.485963622090594" lon="9.454601399152182"><ele>41.666666666666664</ele><time>2026-04-03T08:56:35Z</time></trkpt><trkpt lat="39.485971075433234" lon="9.4543312583003"><ele>41.33333333333333</ele><time>2026-04-03T08:56:36Z</time></trkpt><trkpt lat="39.4860087151416" lon="9.454065256307493"><ele>41.0</ele><time>2026-04-03T08:56:37Z</time></trkpt><trkpt lat="39.48608564514087" lon="9.453814217781652"><ele>41.0</ele><time>2026-04-03T08:56:38Z</time></trkpt><trkpt lat="39.48619110118683" lon="9.453575945465369"><ele>41.0</ele><time>2026-04-03T08:56:39Z</time></trkpt><trkpt lat="39.48632207125295" lon="9.453349961900958"><ele>41.0</ele><time>2026-04-03T08:56:40Z</time></trkpt><trkpt lat="39.48648608251939" lon="9.453156056337882"><ele>41.0</ele><time>2026-04-03T08:56:41Z</time></trkpt><trkpt lat="39.486679517818004" lon="9.45300579483802"><ele>41.0</ele><time>2026-04-03T08:56:42Z</time></trkpt><trkpt lat="39.48688769756401" lon="9.452880915565313"><ele>45.5</ele><time>2026-04-03T08:56:43Z</time></trkpt><trkpt lat="39.48710641420463" lon="9.452803619139134"><ele>50.0</ele><time>2026-04-03T08:56:44Z</time></trkpt><trkpt lat="39.48732921364341" lon="9.45277428452116"><ele>50.0</ele><time>2026-04-03T08:56:45Z</time></trkpt><trkpt lat="39.4875555099374" lon="9.452794253218942"><ele>50.0</ele><time>2026-04-03T08:56:46Z</time></trkpt><trkpt lat="39.48778104315088" lon="9.452832327542719"><ele>50.333333333333336</ele><time>2026-04-03T08:56:47Z</time></trkpt><trkpt lat="39.488005284441364" lon="9.452870978645153"><ele>50.66666666666667</ele><time>2026-04-03T08:56:48Z</time></trkpt><trkpt lat="39.488227284201486" lon="9.452896156446506"><ele>51.0</ele><time>2026-04-03T08:56:49Z</time></trkpt><trkpt lat="39.488449355157" lon="9.452918329629044"><ele>51.0</ele><time>2026-04-03T08:56:50Z</time></trkpt><trkpt lat="39.48867247345134" lon="9.452941246567688"><ele>51.0</ele><time>2026-04-03T08:56:51Z</time></trkpt><trkpt lat="39.4888932683505" lon="9.452955440721388"><ele>51.0</ele><time>2026-04-03T08:56:52Z</time></trkpt><trkpt lat="39.48911432731129" lon="9.452951665587726"><ele>51.0</ele><time>2026-04-03T08:56:53Z</time></trkpt><trkpt lat="39.48933627880232" lon="9.452919563389756"><ele>51.0</ele><time>2026-04-03T08:56:54Z</time></trkpt><trkpt lat="39.489556349158725" lon="9.452861090551318"><ele>51.0</ele><time>2026-04-03T08:56:55Z</time></trkpt><trkpt lat="39.48977396706566" lon="9.45278383201332"><ele>50.5</ele><time>2026-04-03T08:56:56.001Z</time></trkpt><trkpt lat="39.48999318639686" lon="9.452699910096099"><ele>50.0</ele><time>2026-04-03T08:56:57.001Z</time></trkpt><trkpt lat="39.49021373129512" lon="9.452617404967024"><ele>47.0</ele><time>2026-04-03T08:56:58.001Z</time></trkpt><trkpt lat="39.49043108676092" lon="9.452535623652071"><ele>44.0</ele><time>2026-04-03T08:56:59.001Z</time></trkpt><trkpt lat="39.49065024694551" lon="9.45244816182852"><ele>44.0</ele><time>2026-04-03T08:57:00.001Z</time></trkpt><trkpt lat="39.49086555222638" lon="9.452370985748871"><ele>44.0</ele><time>2026-04-03T08:57:01.001Z</time></trkpt><trkpt lat="39.491075490010935" lon="9.452295893514963"><ele>44.0</ele><time>2026-04-03T08:57:02.001Z</time></trkpt><trkpt lat="39.4912810014668" lon="9.45223660640499"><ele>42.5</ele><time>2026-04-03T08:57:03.001Z</time></trkpt><trkpt lat="39.49151955566862" lon="9.452211087069726"><ele>41.0</ele><time>2026-04-03T08:57:04Z</time></trkpt><trkpt lat="39.491752358710876" lon="9.452181002757312"><ele>41.0</ele><time>2026-04-03T08:57:05Z</time></trkpt><trkpt lat="39.49198405245956" lon="9.452159914131247"><ele>41.0</ele><time>2026-04-03T08:57:06Z</time></trkpt><trkpt lat="39.492215267263454" lon="9.452130871905851"><ele>54.0</ele><time>2026-04-03T08:57:07Z</time></trkpt><trkpt lat="39.492443098863376" lon="9.452093023719602"><ele>67.0</ele><time>2026-04-03T08:57:08Z</time></trkpt><trkpt lat="39.49266776123967" lon="9.452056124201127"><ele>67.0</ele><time>2026-04-03T08:57:09Z</time></trkpt><trkpt lat="39.49289491268453" lon="9.452031437375041"><ele>67.0</ele><time>2026-04-03T08:57:10Z</time></trkpt><trkpt lat="39.49312155090972" lon="9.451988737453693"><ele>59.5</ele><time>2026-04-03T08:57:11Z</time></trkpt><trkpt lat="39.49334591343138" lon="9.451933835399423"><ele>52.0</ele><time>2026-04-03T08:57:12Z</time></trkpt><trkpt lat="39.49357306470827" lon="9.451862437729812"><ele>48.666666666666664</ele><time>2026-04-03T08:57:13Z</time></trkpt><trkpt lat="39.493791961920124" lon="9.451796138100866"><ele>45.33333333333333</ele><time>2026-04-03T08:57:14Z</time></trkpt><trkpt lat="39.49400836034615" lon="9.451719528443387"><ele>42.0</ele><time>2026-04-03T08:57:15Z</time></trkpt><trkpt lat="39.494229625281065" lon="9.451656021123728"><ele>42.0</ele><time>2026-04-03T08:57:16Z</time></trkpt><trkpt lat="39.49445143053568" lon="9.451602309301753"><ele>42.0</ele><time>2026-04-03T08:57:17Z</time></trkpt><trkpt lat="39.49467958623468" lon="9.451581537096345"><ele>45.0</ele><time>2026-04-03T08:57:18Z</time></trkpt><trkpt lat="39.49490586955654" lon="9.45158497376203"><ele>48.0</ele><time>2026-04-03T08:57:19Z</time></trkpt><trkpt lat="39.49513265479356" lon="9.451604157235598"><ele>48.0</ele><time>2026-04-03T08:57:20Z</time></trkpt><trkpt lat="39.49535917410743" lon="9.451620299958819"><ele>48.0</ele><time>2026-04-03T08:57:21Z</time></trkpt><trkpt lat="39.49558083402357" lon="9.4516500020232"><ele>48.33333333333333</ele><time>2026-04-03T08:57:22Z</time></trkpt><trkpt lat="39.49580162642292" lon="9.45169775952683"><ele>48.666666666666664</ele><time>2026-04-03T08:57:23Z</time></trkpt><trkpt lat="39.49601622566503" lon="9.451761530591856"><ele>49.0</ele><time>2026-04-03T08:57:24Z</time></trkpt><trkpt lat="39.49622339111323" lon="9.45184006813731"><ele>52.0</ele><time>2026-04-03T08:57:25Z</time></trkpt><trkpt lat="39.49642949828485" lon="9.45191824833127"><ele>55.0</ele><time>2026-04-03T08:57:26Z</time></trkpt><trkpt lat="39.496638596394256" lon="9.451982969966116"><ele>58.0</ele><time>2026-04-03T08:57:27Z</time></trkpt><trkpt lat="39.496856282822066" lon="9.452003270173247"><ele>58.0</ele><time>2026-04-03T08:57:28Z</time></trkpt><trkpt lat="39.4970783921329" lon="9.452067702776572"><ele>58.0</ele><time>2026-04-03T08:57:29Z</time></trkpt><trkpt lat="39.49730643134467" lon="9.452106610325128"><ele>56.0</ele><time>2026-04-03T08:57:30Z</time></trkpt><trkpt lat="39.49752510245097" lon="9.452134976519316"><ele>54.0</ele><time>2026-04-03T08:57:31Z</time></trkpt><trkpt lat="39.49773796855875" lon="9.452154455779702"><ele>52.0</ele><time>2026-04-03T08:57:32Z</time></trkpt><trkpt lat="39.49795061135697" lon="9.45216985185227"><ele>52.0</ele><time>2026-04-03T08:57:33Z</time></trkpt><trkpt lat="39.49815773877621" lon="9.45218057911241"><ele>52.0</ele><time>2026-04-03T08:57:34Z</time></trkpt><trkpt lat="39.49835449330935" lon="9.452178218510356"><ele>52.0</ele><time>2026-04-03T08:57:35Z</time></trkpt><trkpt lat="39.49854900517251" lon="9.452172138760506"><ele>52.0</ele><time>2026-04-03T08:57:36Z</time></trkpt><trkpt lat="39.49873193618021" lon="9.452160025223668"><ele>52.0</ele><time>2026-04-03T08:57:37Z</time></trkpt><trkpt lat="39.49890842561367" lon="9.452132256524042"><ele>52.0</ele><time>2026-04-03T08:57:38Z</time></trkpt><trkpt lat="39.49908212466945" lon="9.452097077048146"><ele>60.0</ele><time>2026-04-03T08:57:39Z</time></trkpt><trkpt lat="39.49941729518666" lon="9.452079736340876"><ele>68.0</ele><time>2026-04-03T08:57:40Z</time></trkpt><trkpt lat="39.49962177067502" lon="9.452004180765066"><ele>68.0</ele><time>2026-04-03T08:57:41Z</time></trkpt><trkpt lat="39.49982132655527" lon="9.451902320057838"><ele>68.0</ele><time>2026-04-03T08:57:42Z</time></trkpt><trkpt lat="39.50001582392394" lon="9.451786216531017"><ele>68.0</ele><time>2026-04-03T08:57:43Z</time></trkpt><trkpt lat="39.50021212148957" lon="9.451663190755621"><ele>68.0</ele><time>2026-04-03T08:57:44Z</time></trkpt><trkpt lat="39.50039431689525" lon="9.45151476023267"><ele>68.0</ele><time>2026-04-03T08:57:45Z</time></trkpt><trkpt lat="39.50057092834202" lon="9.45134968247472"><ele>68.0</ele><time>2026-04-03T08:57:46Z</time></trkpt><trkpt lat="39.50075198815175" lon="9.45116309948122"><ele>71.0</ele><time>2026-04-03T08:57:47Z</time></trkpt><trkpt lat="39.50092773729232" lon="9.450954209812451"><ele>74.0</ele><time>2026-04-03T08:57:48Z</time></trkpt><trkpt lat="39.501094822780615" lon="9.450715893139606"><ele>68.5</ele><time>2026-04-03T08:57:49Z</time></trkpt><trkpt lat="39.50125035832301" lon="9.450454100803105"><ele>63.0</ele><time>2026-04-03T08:57:50Z</time></trkpt><trkpt lat="39.501420051883294" lon="9.450170140946476"><ele>63.0</ele><time>2026-04-03T08:57:51Z</time></trkpt><trkpt lat="39.50153613553456" lon="9.449851210922498"><ele>63.0</ele><time>2026-04-03T08:57:52Z</time></trkpt><trkpt lat="39.50164575823851" lon="9.449520957007111"><ele>68.0</ele><time>2026-04-03T08:57:53Z</time></trkpt><trkpt lat="39.50172134095523" lon="9.449219018388154"><ele>73.0</ele><time>2026-04-03T08:57:54Z</time></trkpt><trkpt lat="39.50177094281858" lon="9.44891318767095"><ele>77.33333333333333</ele><time>2026-04-03T08:57:55Z</time></trkpt><trkpt lat="39.50179961357904" lon="9.448629575686818"><ele>81.66666666666667</ele><time>2026-04-03T08:57:56Z</time></trkpt><trkpt lat="39.501820747355445" lon="9.448366850146316"><ele>86.0</ele><time>2026-04-03T08:57:57Z</time></trkpt><trkpt lat="39.50183740841953" lon="9.448122222958936"><ele>87.0</ele><time>2026-04-03T08:57:58Z</time></trkpt><trkpt lat="39.501856425364196" lon="9.447898586823937"><ele>88.0</ele><time>2026-04-03T08:57:59Z</time></trkpt><trkpt lat="39.50188005709677" lon="9.447688354294256"><ele>89.0</ele><time>2026-04-03T08:58:00Z</time></trkpt><trkpt lat="39.501907379160166" lon="9.447472518967025"><ele>89.0</ele><time>2026-04-03T08:58:01Z</time></trkpt><trkpt lat="39.50191684032932" lon="9.447266264344291"><ele>89.0</ele><time>2026-04-03T08:58:02Z</time></trkpt><trkpt lat="39.501943024149405" lon="9.447032215212522"><ele>89.0</ele><time>2026-04-03T08:58:03Z</time></trkpt><trkpt lat="39.501968294299964" lon="9.446794906534029"><ele>91.0</ele><time>2026-04-03T08:58:04Z</time></trkpt><trkpt lat="39.50199615135814" lon="9.446553688576365"><ele>93.0</ele><time>2026-04-03T08:58:05Z</time></trkpt><trkpt lat="39.502025400278406" lon="9.446312649252576"><ele>95.0</ele><time>2026-04-03T08:58:06Z</time></trkpt><trkpt lat="39.50205177828014" lon="9.446066969770971"><ele>95.66666666666667</ele><time>2026-04-03T08:58:07Z</time></trkpt><trkpt lat="39.50207845289845" lon="9.445817534199575"><ele>96.33333333333334</ele><time>2026-04-03T08:58:08Z</time></trkpt><trkpt lat="39.502100962627345" lon="9.445567700794568"><ele>97.0</ele><time>2026-04-03T08:58:09Z</time></trkpt><trkpt lat="39.50212717130959" lon="9.445312938489034"><ele>92.0</ele><time>2026-04-03T08:58:10Z</time></trkpt><trkpt lat="39.50215962465518" lon="9.445059605461818"><ele>87.0</ele><time>2026-04-03T08:58:11Z</time></trkpt><trkpt lat="39.502180502220746" lon="9.444793729681638"><ele>82.0</ele><time>2026-04-03T08:58:12Z</time></trkpt><trkpt lat="39.50220966273898" lon="9.444531093381633"><ele>82.0</ele><time>2026-04-03T08:58:13Z</time></trkpt><trkpt lat="39.50224089334769" lon="9.444267663615097"><ele>82.0</ele><time>2026-04-03T08:58:14Z</time></trkpt><trkpt lat="39.50227094484182" lon="9.444003828516827"><ele>82.0</ele><time>2026-04-03T08:58:15Z</time></trkpt><trkpt lat="39.502300502133956" lon="9.443741242743979"><ele>82.66666666666666</ele><time>2026-04-03T08:58:16Z</time></trkpt><trkpt lat="39.50232315011664" lon="9.443473892761178"><ele>83.33333333333333</ele><time>2026-04-03T08:58:17Z</time></trkpt><trkpt lat="39.5023672099718" lon="9.443210907979031"><ele>84.0</ele><time>2026-04-03T08:58:18Z</time></trkpt><trkpt lat="39.50240770420581" lon="9.442948240464874"><ele>84.66666666666667</ele><time>2026-04-03T08:58:19Z</time></trkpt><trkpt lat="39.502438568821994" lon="9.442680836925225"><ele>85.33333333333334</ele><time>2026-04-03T08:58:20Z</time></trkpt><trkpt lat="39.5024661144919" lon="9.442413204549297"><ele>86.0</ele><time>2026-04-03T08:58:21Z</time></trkpt><trkpt lat="39.502492709589916" lon="9.44215347008493"><ele>88.33333333333334</ele><time>2026-04-03T08:58:22Z</time></trkpt><trkpt lat="39.502522826510535" lon="9.441892055212513"><ele>90.66666666666667</ele><time>2026-04-03T08:58:23Z</time></trkpt><trkpt lat="39.502557722687605" lon="9.441631442225601"><ele>93.0</ele><time>2026-04-03T08:58:24Z</time></trkpt><trkpt lat="39.50258866909739" lon="9.441342938107871"><ele>93.66666666666667</ele><time>2026-04-03T08:58:25Z</time></trkpt><trkpt lat="39.50262087701766" lon="9.441098350228819"><ele>94.33333333333334</ele><time>2026-04-03T08:58:26Z</time></trkpt><trkpt lat="39.50265174121243" lon="9.440825392180285"><ele>95.0</ele><time>2026-04-03T08:58:27Z</time></trkpt><trkpt lat="39.50269877206971" lon="9.440570008050292"><ele>94.66666666666667</ele><time>2026-04-03T08:58:28Z</time></trkpt><trkpt lat="39.50274368472053" lon="9.440283757357953"><ele>94.33333333333333</ele><time>2026-04-03T08:58:29Z</time></trkpt><trkpt lat="39.50278802535523" lon="9.440007820370502"><ele>94.0</ele><time>2026-04-03T08:58:30Z</time></trkpt><trkpt lat="39.502839713965585" lon="9.439729909437824"><ele>96.33333333333333</ele><time>2026-04-03T08:58:31Z</time></trkpt><trkpt lat="39.50288644172859" lon="9.4394490158621"><ele>98.66666666666666</ele><time>2026-04-03T08:58:32Z</time></trkpt><trkpt lat="39.502939965256154" lon="9.439167398704038"><ele>101.0</ele><time>2026-04-03T08:58:33Z</time></trkpt><trkpt lat="39.50300248585555" lon="9.438885241850226"><ele>101.5</ele><time>2026-04-03T08:58:34Z</time></trkpt><trkpt lat="39.50307002039135" lon="9.438599572867028"><ele>102.0</ele><time>2026-04-03T08:58:35Z</time></trkpt><trkpt lat="39.503159470624695" lon="9.438332756613235"><ele>102.0</ele><time>2026-04-03T08:58:36Z</time></trkpt><trkpt lat="39.50323616424289" lon="9.438063884459233"><ele>102.0</ele><time>2026-04-03T08:58:37Z</time></trkpt><trkpt lat="39.503315611454425" lon="9.43779425471992"><ele>102.0</ele><time>2026-04-03T08:58:38Z</time></trkpt><trkpt lat="39.50339487918327" lon="9.437519523020711"><ele>105.0</ele><time>2026-04-03T08:58:39.014Z</time></trkpt><trkpt lat="39.50347179175073" lon="9.437247571275611"><ele>108.0</ele><time>2026-04-03T08:58:40.024Z</time></trkpt><trkpt lat="39.50354662710416" lon="9.436997150897923"><ele>111.0</ele><time>2026-04-03T08:58:41.026Z</time></trkpt><trkpt lat="39.50350690535334" lon="9.436706276111318"><ele>102.0</ele><time>2026-04-03T08:58:42Z</time></trkpt><trkpt lat="39.50327245416449" lon="9.43632530885692"><ele>93.0</ele><time>2026-04-03T08:58:43Z</time></trkpt><trkpt lat="39.50321331849736" lon="9.4360943210508"><ele>85.0</ele><time>2026-04-03T08:58:44Z</time></trkpt><trkpt lat="39.50314364146207" lon="9.435773045274502"><ele>77.0</ele><time>2026-04-03T08:58:45Z</time></trkpt><trkpt lat="39.50309015933203" lon="9.435476034545104"><ele>75.0</ele><time>2026-04-03T08:58:46Z</time></trkpt><trkpt lat="39.50307681792176" lon="9.435182657266218"><ele>73.0</ele><time>2026-04-03T08:58:47Z</time></trkpt><trkpt lat="39.50308177501703" lon="9.434880111764917"><ele>75.0</ele><time>2026-04-03T08:58:48Z</time></trkpt><trkpt lat="39.50312172222035" lon="9.434576589150911"><ele>77.0</ele><time>2026-04-03T08:58:49Z</time></trkpt><trkpt lat="39.50319025291359" lon="9.43427928464503"><ele>77.0</ele><time>2026-04-03T08:58:50Z</time></trkpt><trkpt lat="39.50328019917095" lon="9.433970899681382"><ele>77.0</ele><time>2026-04-03T08:58:51Z</time></trkpt><trkpt lat="39.5033868209715" lon="9.43364722173798"><ele>82.0</ele><time>2026-04-03T08:58:52Z</time></trkpt><trkpt lat="39.503493209646805" lon="9.433305444702413"><ele>87.0</ele><time>2026-04-03T08:58:53Z</time></trkpt><trkpt lat="39.50358014776829" lon="9.432981755290516"><ele>91.0</ele><time>2026-04-03T08:58:54Z</time></trkpt><trkpt lat="39.503646050786664" lon="9.432678852281386"><ele>95.0</ele><time>2026-04-03T08:58:55Z</time></trkpt><trkpt lat="39.50368606493906" lon="9.432401213859073"><ele>92.5</ele><time>2026-04-03T08:58:56Z</time></trkpt><trkpt lat="39.503712793731175" lon="9.43209332210997"><ele>90.0</ele><time>2026-04-03T08:58:57Z</time></trkpt><trkpt lat="39.50370110557253" lon="9.431792717078649"><ele>90.0</ele><time>2026-04-03T08:58:58Z</time></trkpt><trkpt lat="39.50368315766016" lon="9.43149062918368"><ele>90.0</ele><time>2026-04-03T08:58:59Z</time></trkpt><trkpt lat="39.50365003862432" lon="9.431196351459183"><ele>84.0</ele><time>2026-04-03T08:59:00Z</time></trkpt><trkpt lat="39.5036233741405" lon="9.430900688406341"><ele>78.0</ele><time>2026-04-03T08:59:01Z</time></trkpt><trkpt lat="39.50360316957062" lon="9.430601762088093"><ele>76.5</ele><time>2026-04-03T08:59:02Z</time></trkpt><trkpt lat="39.50358492448782" lon="9.430303388540514"><ele>75.0</ele><time>2026-04-03T08:59:03Z</time></trkpt><trkpt lat="39.503559847024555" lon="9.430000393464818"><ele>75.0</ele><time>2026-04-03T08:59:04Z</time></trkpt><trkpt lat="39.503530297411054" lon="9.429691226690032"><ele>75.0</ele><time>2026-04-03T08:59:05Z</time></trkpt><trkpt lat="39.50350364867415" lon="9.42938507043883"><ele>77.5</ele><time>2026-04-03T08:59:06Z</time></trkpt><trkpt lat="39.503473911881244" lon="9.429087128369604"><ele>80.0</ele><time>2026-04-03T08:59:07Z</time></trkpt><trkpt lat="39.50345592670791" lon="9.428793105062379"><ele>82.33333333333334</ele><time>2026-04-03T08:59:08Z</time></trkpt><trkpt lat="39.503450747610955" lon="9.428500667132798"><ele>84.66666666666667</ele><time>2026-04-03T08:59:09Z</time></trkpt><trkpt lat="39.5034540467525" lon="9.428213540335047"><ele>87.0</ele><time>2026-04-03T08:59:10Z</time></trkpt><trkpt lat="39.50347768955452" lon="9.427927709874684"><ele>87.33333333333333</ele><time>2026-04-03T08:59:11Z</time></trkpt><trkpt lat="39.50351849993291" lon="9.427647548790047"><ele>87.66666666666666</ele><time>2026-04-03T08:59:12Z</time></trkpt><trkpt lat="39.50357743866014" lon="9.427375812114766"><ele>88.0</ele><time>2026-04-03T08:59:13Z</time></trkpt><trkpt lat="39.50365154561089" lon="9.427112524162057"><ele>86.0</ele><time>2026-04-03T08:59:14Z</time></trkpt><trkpt lat="39.50374371269466" lon="9.426865271084422"><ele>84.0</ele><time>2026-04-03T08:59:15Z</time></trkpt><trkpt lat="39.50383451941221" lon="9.426609792941125"><ele>82.0</ele><time>2026-04-03T08:59:16Z</time></trkpt><trkpt lat="39.50393322123363" lon="9.426363359156165"><ele>76.0</ele><time>2026-04-03T08:59:17Z</time></trkpt><trkpt lat="39.50403561644785" lon="9.426124978522598"><ele>70.0</ele><time>2026-04-03T08:59:18Z</time></trkpt><trkpt lat="39.50415113161467" lon="9.425882141056698"><ele>64.0</ele><time>2026-04-03T08:59:19Z</time></trkpt><trkpt lat="39.504261294736416" lon="9.425639858242278"><ele>62.666666666666664</ele><time>2026-04-03T08:59:20Z</time></trkpt><trkpt lat="39.5043592732303" lon="9.425393060741216"><ele>61.33333333333333</ele><time>2026-04-03T08:59:21Z</time></trkpt><trkpt lat="39.504459971988034" lon="9.425146875620058"><ele>60.0</ele><time>2026-04-03T08:59:22Z</time></trkpt><trkpt lat="39.504563060070815" lon="9.424900065476157"><ele>60.66666666666667</ele><time>2026-04-03T08:59:23Z</time></trkpt><trkpt lat="39.504668035021595" lon="9.42465386877907"><ele>61.333333333333336</ele><time>2026-04-03T08:59:24Z</time></trkpt><trkpt lat="39.50477477560246" lon="9.424413780738789"><ele>62.0</ele><time>2026-04-03T08:59:25Z</time></trkpt><trkpt lat="39.50487509474716" lon="9.424180216377794"><ele>68.0</ele><time>2026-04-03T08:59:26Z</time></trkpt><trkpt lat="39.504976668421634" lon="9.423944298975162"><ele>74.0</ele><time>2026-04-03T08:59:27Z</time></trkpt><trkpt lat="39.50506392238143" lon="9.42373899441954"><ele>80.0</ele><time>2026-04-03T08:59:28Z</time></trkpt><trkpt lat="39.50514964709948" lon="9.423515331385909"><ele>85.33333333333334</ele><time>2026-04-03T08:59:29Z</time></trkpt><trkpt lat="39.50523263863587" lon="9.42328673007001"><ele>90.66666666666667</ele><time>2026-04-03T08:59:30Z</time></trkpt><trkpt lat="39.50531391037161" lon="9.42305919268281"><ele>96.0</ele><time>2026-04-03T08:59:31Z</time></trkpt><trkpt lat="39.505395613109464" lon="9.42283051780335"><ele>89.0</ele><time>2026-04-03T08:59:32Z</time></trkpt><trkpt lat="39.50547650437779" lon="9.422603056032377"><ele>82.0</ele><time>2026-04-03T08:59:33Z</time></trkpt><trkpt lat="39.50555608597393" lon="9.42237499996148"><ele>75.0</ele><time>2026-04-03T08:59:34Z</time></trkpt><trkpt lat="39.505628365103604" lon="9.422145080000593"><ele>75.0</ele><time>2026-04-03T08:59:35Z</time></trkpt><trkpt lat="39.50585796897837" lon="9.422034828208943"><ele>75.0</ele><time>2026-04-03T08:59:36Z</time></trkpt><trkpt lat="39.5058170153829" lon="9.421633580610749"><ele>75.0</ele><time>2026-04-03T08:59:37Z</time></trkpt><trkpt lat="39.50589866561857" lon="9.421384913264093"><ele>75.0</ele><time>2026-04-03T08:59:38Z</time></trkpt><trkpt lat="39.505981855153486" lon="9.421133989417864"><ele>75.0</ele><time>2026-04-03T08:59:39Z</time></trkpt><trkpt lat="39.50607769115982" lon="9.42088678505175"><ele>73.66666666666667</ele><time>2026-04-03T08:59:40Z</time></trkpt><trkpt lat="39.50616613894756" lon="9.420645267146735"><ele>72.33333333333334</ele><time>2026-04-03T08:59:41Z</time></trkpt><trkpt lat="39.506262744370964" lon="9.420398491619109"><ele>71.0</ele><time>2026-04-03T08:59:42Z</time></trkpt><trkpt lat="39.506361010258914" lon="9.420157560862146"><ele>71.0</ele><time>2026-04-03T08:59:43Z</time></trkpt><trkpt lat="39.506468883631705" lon="9.419930730375029"><ele>71.0</ele><time>2026-04-03T08:59:44Z</time></trkpt><trkpt lat="39.50658422046212" lon="9.419702995022577"><ele>71.0</ele><time>2026-04-03T08:59:45Z</time></trkpt><trkpt lat="39.506705534780295" lon="9.419477799154793"><ele>68.0</ele><time>2026-04-03T08:59:46Z</time></trkpt><trkpt lat="39.506826590878205" lon="9.419264891093118"><ele>65.0</ele><time>2026-04-03T08:59:47Z</time></trkpt><trkpt lat="39.506947105038805" lon="9.419046481065145"><ele>62.0</ele><time>2026-04-03T08:59:48Z</time></trkpt><trkpt lat="39.50708344693042" lon="9.418847567267719"><ele>67.66666666666667</ele><time>2026-04-03T08:59:49Z</time></trkpt><trkpt lat="39.50725431874842" lon="9.418700931486065"><ele>73.33333333333333</ele><time>2026-04-03T08:59:50Z</time></trkpt><trkpt lat="39.50742759508213" lon="9.418548048070823"><ele>79.0</ele><time>2026-04-03T08:59:51Z</time></trkpt><trkpt lat="39.507609455088904" lon="9.418424745945615"><ele>79.0</ele><time>2026-04-03T08:59:52Z</time></trkpt><trkpt lat="39.50780210538437" lon="9.418326786927842"><ele>79.0</ele><time>2026-04-03T08:59:53Z</time></trkpt><trkpt lat="39.508001013993585" lon="9.41825170762809"><ele>79.0</ele><time>2026-04-03T08:59:54Z</time></trkpt><trkpt lat="39.5082049375707" lon="9.418183857740495"><ele>77.33333333333333</ele><time>2026-04-03T08:59:55Z</time></trkpt><trkpt lat="39.50840555705216" lon="9.418106569602182"><ele>75.66666666666667</ele><time>2026-04-03T08:59:56Z</time></trkpt><trkpt lat="39.50857880629951" lon="9.41802462480812"><ele>74.0</ele><time>2026-04-03T08:59:57Z</time></trkpt><trkpt lat="39.50877961097738" lon="9.41788382066578"><ele>86.33333333333334</ele><time>2026-04-03T08:59:58Z</time></trkpt><trkpt lat="39.50894905099612" lon="9.417720559062808"><ele>98.66666666666667</ele><time>2026-04-03T08:59:59Z</time></trkpt><trkpt lat="39.50910835757093" lon="9.417569933360188"><ele>111.0</ele><time>2026-04-03T09:00:00Z</time></trkpt><trkpt lat="39.509255140955034" lon="9.417410359548667"><ele>111.0</ele><time>2026-04-03T09:00:01Z</time></trkpt><trkpt lat="39.50940525131468" lon="9.417250410350425"><ele>111.0</ele><time>2026-04-03T09:00:02.021Z</time></trkpt><trkpt lat="39.50955555599766" lon="9.417097993056261"><ele>111.0</ele><time>2026-04-03T09:00:03.024Z</time></trkpt><trkpt lat="39.50970759860364" lon="9.416938583540244"><ele>101.0</ele><time>2026-04-03T09:00:04.023Z</time></trkpt><trkpt lat="39.509850838726244" lon="9.416765098365723"><ele>91.0</ele><time>2026-04-03T09:00:05.026Z</time></trkpt><trkpt lat="39.5099947566693" lon="9.416599126944174"><ele>81.0</ele><time>2026-04-03T09:00:06.025Z</time></trkpt><trkpt lat="39.51064299795731" lon="9.414004795262043"><ele>82.66666666666667</ele><time>2026-04-03T09:00:15Z</time></trkpt><trkpt lat="39.51073346432443" lon="9.413749810958072"><ele>84.33333333333334</ele><time>2026-04-03T09:00:16Z</time></trkpt><trkpt lat="39.51079585864004" lon="9.413476680171325"><ele>86.0</ele><time>2026-04-03T09:00:17Z</time></trkpt><trkpt lat="39.51086342222165" lon="9.413199075185124"><ele>88.0</ele><time>2026-04-03T09:00:18Z</time></trkpt><trkpt lat="39.51092251332949" lon="9.412922368390825"><ele>90.0</ele><time>2026-04-03T09:00:19Z</time></trkpt><trkpt lat="39.51097736854499" lon="9.412646268588949"><ele>92.0</ele><time>2026-04-03T09:00:20Z</time></trkpt><trkpt lat="39.51102667155503" lon="9.412368675907627"><ele>92.66666666666667</ele><time>2026-04-03T09:00:21Z</time></trkpt><trkpt lat="39.51107966541497" lon="9.412092000588759"><ele>93.33333333333333</ele><time>2026-04-03T09:00:22Z</time></trkpt><trkpt lat="39.51112983926674" lon="9.411815976065204"><ele>94.0</ele><time>2026-04-03T09:00:23Z</time></trkpt><trkpt lat="39.511178396650465" lon="9.411541447599332"><ele>95.66666666666666</ele><time>2026-04-03T09:00:24Z</time></trkpt><trkpt lat="39.511227775696625" lon="9.411268885179004"><ele>97.33333333333333</ele><time>2026-04-03T09:00:25Z</time></trkpt><trkpt lat="39.51128168804863" lon="9.410999062557297"><ele>99.0</ele><time>2026-04-03T09:00:26Z</time></trkpt><trkpt lat="39.51134727459763" lon="9.410736217210431"><ele>94.0</ele><time>2026-04-03T09:00:27Z</time></trkpt><trkpt lat="39.5114332972786" lon="9.410485998001118"><ele>89.0</ele><time>2026-04-03T09:00:28Z</time></trkpt><trkpt lat="39.51154029489218" lon="9.410250430010782"><ele>84.0</ele><time>2026-04-03T09:00:29Z</time></trkpt><trkpt lat="39.51167387758704" lon="9.410042790237421"><ele>84.0</ele><time>2026-04-03T09:00:30Z</time></trkpt><trkpt lat="39.51181137903141" lon="9.409842168884209"><ele>84.0</ele><time>2026-04-03T09:00:31Z</time></trkpt><trkpt lat="39.5119689638486" lon="9.409662276366797"><ele>84.0</ele><time>2026-04-03T09:00:32Z</time></trkpt><trkpt lat="39.512139277459305" lon="9.409509113038684"><ele>86.66666666666667</ele><time>2026-04-03T09:00:33Z</time></trkpt><trkpt lat="39.51232167510267" lon="9.409383581966946"><ele>89.33333333333334</ele><time>2026-04-03T09:00:34Z</time></trkpt><trkpt lat="39.512508707263876" lon="9.409276726983228"><ele>92.0</ele><time>2026-04-03T09:00:35Z</time></trkpt><trkpt lat="39.5126999780483" lon="9.409175235079706"><ele>92.0</ele><time>2026-04-03T09:00:36Z</time></trkpt><trkpt lat="39.51289092969906" lon="9.409066951855806"><ele>92.0</ele><time>2026-04-03T09:00:37Z</time></trkpt><trkpt lat="39.513079260734564" lon="9.408948354944405"><ele>92.0</ele><time>2026-04-03T09:00:38Z</time></trkpt><trkpt lat="39.513265911150995" lon="9.408812772640191"><ele>93.33333333333334</ele><time>2026-04-03T09:00:39Z</time></trkpt><trkpt lat="39.513448747085704" lon="9.408656528036039"><ele>94.66666666666667</ele><time>2026-04-03T09:00:40Z</time></trkpt><trkpt lat="39.513626059706866" lon="9.408486003330308"><ele>96.0</ele><time>2026-04-03T09:00:41Z</time></trkpt><trkpt lat="39.513792092592475" lon="9.40830259014019"><ele>95.66666666666667</ele><time>2026-04-03T09:00:42Z</time></trkpt><trkpt lat="39.513950047697655" lon="9.40811164784272"><ele>95.33333333333334</ele><time>2026-04-03T09:00:43Z</time></trkpt><trkpt lat="39.514109697905916" lon="9.407917642351055"><ele>95.0</ele><time>2026-04-03T09:00:44Z</time></trkpt><trkpt lat="39.51427690667049" lon="9.407730174471272"><ele>95.0</ele><time>2026-04-03T09:00:45Z</time></trkpt><trkpt lat="39.51444885692145" lon="9.407550290746931"><ele>95.0</ele><time>2026-04-03T09:00:46Z</time></trkpt><trkpt lat="39.51462808795237" lon="9.407379001917237"><ele>95.0</ele><time>2026-04-03T09:00:47Z</time></trkpt><trkpt lat="39.514812649116294" lon="9.407213680460892"><ele>95.66666666666667</ele><time>2026-04-03T09:00:48Z</time></trkpt><trkpt lat="39.51499971675113" lon="9.407057080395914"><ele>96.33333333333334</ele><time>2026-04-03T09:00:49Z</time></trkpt><trkpt lat="39.515193437199855" lon="9.406905642564249"><ele>97.0</ele><time>2026-04-03T09:00:50Z</time></trkpt><trkpt lat="39.51538725338146" lon="9.40675868641783"><ele>103.0</ele><time>2026-04-03T09:00:51Z</time></trkpt><trkpt lat="39.5155757269096" lon="9.4066085019602"><ele>109.0</ele><time>2026-04-03T09:00:52Z</time></trkpt><trkpt lat="39.51576338802642" lon="9.406459550633523"><ele>115.0</ele><time>2026-04-03T09:00:53Z</time></trkpt><trkpt lat="39.51595519500795" lon="9.406307060560602"><ele>122.33333333333334</ele><time>2026-04-03T09:00:54.023Z</time></trkpt><trkpt lat="39.51614268720352" lon="9.406160975875663"><ele>129.66666666666666</ele><time>2026-04-03T09:00:55.027Z</time></trkpt><trkpt lat="39.5163260609265" lon="9.406016738695316"><ele>137.0</ele><time>2026-04-03T09:00:56.021Z</time></trkpt><trkpt lat="39.516510104952296" lon="9.405870869904604"><ele>65.0</ele><time>2026-04-03T09:00:57.025Z</time></trkpt><trkpt lat="39.51809245631054" lon="9.404734577992377"><ele>70.66666666666667</ele><time>2026-04-03T09:01:05Z</time></trkpt><trkpt lat="39.51828865711993" lon="9.404601167107883"><ele>76.33333333333333</ele><time>2026-04-03T09:01:06Z</time></trkpt><trkpt lat="39.518481085981456" lon="9.404467147180085"><ele>82.0</ele><time>2026-04-03T09:01:07Z</time></trkpt><trkpt lat="39.51868511080352" lon="9.404359129512375"><ele>76.33333333333333</ele><time>2026-04-03T09:01:08Z</time></trkpt><trkpt lat="39.51889242671425" lon="9.40426012135066"><ele>70.66666666666667</ele><time>2026-04-03T09:01:09Z</time></trkpt><trkpt lat="39.51910249650667" lon="9.404167909496673"><ele>65.0</ele><time>2026-04-03T09:01:10Z</time></trkpt><trkpt lat="39.519315195118075" lon="9.40407971272462"><ele>65.0</ele><time>2026-04-03T09:01:11.001Z</time></trkpt><trkpt lat="39.519533862117285" lon="9.403997936681984"><ele>65.0</ele><time>2026-04-03T09:01:12.001Z</time></trkpt><trkpt lat="39.51975382609932" lon="9.403925587069319"><ele>65.0</ele><time>2026-04-03T09:01:13.001Z</time></trkpt><trkpt lat="39.51997616671754" lon="9.403862369856057"><ele>65.0</ele><time>2026-04-03T09:01:14.001Z</time></trkpt><trkpt lat="39.52019961876422" lon="9.403806009294279"><ele>69.5</ele><time>2026-04-03T09:01:15.001Z</time></trkpt><trkpt lat="39.520424630298294" lon="9.40376258336161"><ele>74.0</ele><time>2026-04-03T09:01:16.001Z</time></trkpt><trkpt lat="39.52065156223357" lon="9.403724965072525"><ele>74.0</ele><time>2026-04-03T09:01:17.001Z</time></trkpt><trkpt lat="39.52087884357211" lon="9.403691775481148"><ele>74.0</ele><time>2026-04-03T09:01:18.001Z</time></trkpt><trkpt lat="39.52110401797938" lon="9.403652423927797"><ele>77.0</ele><time>2026-04-03T09:01:19.001Z</time></trkpt><trkpt lat="39.52133391410986" lon="9.403606264795876"><ele>80.0</ele><time>2026-04-03T09:01:20.001Z</time></trkpt><trkpt lat="39.52156097728941" lon="9.403561509261573"><ele>80.0</ele><time>2026-04-03T09:01:21.001Z</time></trkpt><trkpt lat="39.52179053379541" lon="9.40351995696064"><ele>80.0</ele><time>2026-04-03T09:01:22.001Z</time></trkpt><trkpt lat="39.52202091833399" lon="9.403480179457866"><ele>77.5</ele><time>2026-04-03T09:01:23.001Z</time></trkpt><trkpt lat="39.522248824309216" lon="9.403438060562387"><ele>75.0</ele><time>2026-04-03T09:01:24.001Z</time></trkpt><trkpt lat="39.52247622821202" lon="9.403396612279352"><ele>75.0</ele><time>2026-04-03T09:01:25.001Z</time></trkpt><trkpt lat="39.52269898838028" lon="9.40336025633634"><ele>75.0</ele><time>2026-04-03T09:01:26Z</time></trkpt><trkpt lat="39.52291814143251" lon="9.403324704082786"><ele>75.0</ele><time>2026-04-03T09:01:27Z</time></trkpt><trkpt lat="39.523134521607886" lon="9.403289103482102"><ele>74.66666666666667</ele><time>2026-04-03T09:01:28Z</time></trkpt><trkpt lat="39.52334717030473" lon="9.403254783421948"><ele>74.33333333333334</ele><time>2026-04-03T09:01:29Z</time></trkpt><trkpt lat="39.52355676760205" lon="9.40321849775048"><ele>74.0</ele><time>2026-04-03T09:01:30Z</time></trkpt><trkpt lat="39.52376480458953" lon="9.403190282552986"><ele>74.0</ele><time>2026-04-03T09:01:31Z</time></trkpt><trkpt lat="39.52397310154723" lon="9.40316810529755"><ele>74.0</ele><time>2026-04-03T09:01:32Z</time></trkpt><trkpt lat="39.52418266198711" lon="9.403153979032519"><ele>74.0</ele><time>2026-04-03T09:01:33Z</time></trkpt><trkpt lat="39.524391510605206" lon="9.403145980454484"><ele>75.66666666666667</ele><time>2026-04-03T09:01:34Z</time></trkpt><trkpt lat="39.524599317277236" lon="9.40315024476225"><ele>77.33333333333333</ele><time>2026-04-03T09:01:35Z</time></trkpt><trkpt lat="39.524806621893624" lon="9.403159809361403"><ele>79.0</ele><time>2026-04-03T09:01:36Z</time></trkpt><trkpt lat="39.5250130801528" lon="9.403173013755673"><ele>79.0</ele><time>2026-04-03T09:01:37Z</time></trkpt><trkpt lat="39.525218912307494" lon="9.40319558643701"><ele>79.0</ele><time>2026-04-03T09:01:38Z</time></trkpt><trkpt lat="39.52542337966179" lon="9.403226885793673"><ele>79.0</ele><time>2026-04-03T09:01:39Z</time></trkpt><trkpt lat="39.52562658304133" lon="9.403266546749164"><ele>80.0</ele><time>2026-04-03T09:01:40Z</time></trkpt><trkpt lat="39.52582907266197" lon="9.40331141329308"><ele>81.0</ele><time>2026-04-03T09:01:41Z</time></trkpt><trkpt lat="39.52603037841292" lon="9.403362698058082"><ele>82.0</ele><time>2026-04-03T09:01:42Z</time></trkpt><trkpt lat="39.526229487039394" lon="9.403407182015492"><ele>83.33333333333333</ele><time>2026-04-03T09:01:43Z</time></trkpt><trkpt lat="39.52643207091339" lon="9.403446573299265"><ele>84.66666666666667</ele><time>2026-04-03T09:01:44Z</time></trkpt><trkpt lat="39.52663495032004" lon="9.40348829877468"><ele>86.0</ele><time>2026-04-03T09:01:45Z</time></trkpt><trkpt lat="39.52683776384281" lon="9.403535754496625"><ele>86.0</ele><time>2026-04-03T09:01:46Z</time></trkpt><trkpt lat="39.527037287138185" lon="9.403585428944359"><ele>86.0</ele><time>2026-04-03T09:01:47Z</time></trkpt><trkpt lat="39.52723674154817" lon="9.403631896870033"><ele>86.0</ele><time>2026-04-03T09:01:48Z</time></trkpt><trkpt lat="39.527437348301696" lon="9.403670700689027"><ele>86.66666666666667</ele><time>2026-04-03T09:01:49Z</time></trkpt><trkpt lat="39.527639087326875" lon="9.403698086469285"><ele>87.33333333333333</ele><time>2026-04-03T09:01:50Z</time></trkpt><trkpt lat="39.527841252548924" lon="9.403720079689272"><ele>88.0</ele><time>2026-04-03T09:01:51Z</time></trkpt><trkpt lat="39.52804480346335" lon="9.403733113297044"><ele>89.0</ele><time>2026-04-03T09:01:52Z</time></trkpt><trkpt lat="39.52825044213845" lon="9.40373620714136"><ele>90.0</ele><time>2026-04-03T09:01:53Z</time></trkpt><trkpt lat="39.52845703299767" lon="9.403729840605182"><ele>91.0</ele><time>2026-04-03T09:01:54Z</time></trkpt><trkpt lat="39.52866184184354" lon="9.403714291633216"><ele>93.33333333333333</ele><time>2026-04-03T09:01:55Z</time></trkpt><trkpt lat="39.52886372927845" lon="9.403691226248812"><ele>95.66666666666666</ele><time>2026-04-03T09:01:56Z</time></trkpt><trkpt lat="39.52906234543255" lon="9.403659554685563"><ele>98.0</ele><time>2026-04-03T09:01:57Z</time></trkpt><trkpt lat="39.529259920878985" lon="9.403616305087041"><ele>98.0</ele><time>2026-04-03T09:01:58Z</time></trkpt><trkpt lat="39.52945769961479" lon="9.403563294677788"><ele>98.0</ele><time>2026-04-03T09:01:59Z</time></trkpt><trkpt lat="39.52965644204351" lon="9.403507188533723"><ele>98.0</ele><time>2026-04-03T09:02:00Z</time></trkpt><trkpt lat="39.52985161232384" lon="9.403439385919883"><ele>95.0</ele><time>2026-04-03T09:02:01Z</time></trkpt><trkpt lat="39.530043514492164" lon="9.403360541032033"><ele>92.0</ele><time>2026-04-03T09:02:02Z</time></trkpt><trkpt lat="39.530232086096" lon="9.403272144863886"><ele>89.0</ele><time>2026-04-03T09:02:03Z</time></trkpt><trkpt lat="39.53042179259844" lon="9.403172089254847"><ele>82.66666666666667</ele><time>2026-04-03T09:02:04Z</time></trkpt><trkpt lat="39.53060948439276" lon="9.403058060651855"><ele>76.33333333333333</ele><time>2026-04-03T09:02:05Z</time></trkpt><trkpt lat="39.53079559549026" lon="9.402931166176725"><ele>70.0</ele><time>2026-04-03T09:02:06Z</time></trkpt><trkpt lat="39.53099846455918" lon="9.40281226625926"><ele>70.0</ele><time>2026-04-03T09:02:07Z</time></trkpt><trkpt lat="39.53118973523409" lon="9.402639368305868"><ele>70.0</ele><time>2026-04-03T09:02:08Z</time></trkpt><trkpt lat="39.531378494873344" lon="9.40247142958594"><ele>71.0</ele><time>2026-04-03T09:02:09Z</time></trkpt><trkpt lat="39.53157307151641" lon="9.402315577071207"><ele>72.0</ele><time>2026-04-03T09:02:10Z</time></trkpt><trkpt lat="39.53172799333513" lon="9.402131502881769"><ele>73.0</ele><time>2026-04-03T09:02:11Z</time></trkpt><trkpt lat="39.5318973735927" lon="9.40194120385687"><ele>77.0</ele><time>2026-04-03T09:02:12Z</time></trkpt><trkpt lat="39.5320630923682" lon="9.401742875443935"><ele>81.0</ele><time>2026-04-03T09:02:13Z</time></trkpt><trkpt lat="39.53222324165939" lon="9.40153898422231"><ele>80.0</ele><time>2026-04-03T09:02:14Z</time></trkpt><trkpt lat="39.53238179840901" lon="9.401328510116349"><ele>79.0</ele><time>2026-04-03T09:02:15Z</time></trkpt><trkpt lat="39.53254009660497" lon="9.40111308135644"><ele>79.0</ele><time>2026-04-03T09:02:16Z</time></trkpt><trkpt lat="39.532698771085755" lon="9.400884055055869"><ele>79.0</ele><time>2026-04-03T09:02:17Z</time></trkpt><trkpt lat="39.53285380337993" lon="9.400657903698841"><ele>81.5</ele><time>2026-04-03T09:02:18Z</time></trkpt><trkpt lat="39.533004077499626" lon="9.400428099825271"><ele>84.0</ele><time>2026-04-03T09:02:19Z</time></trkpt><trkpt lat="39.533157282189954" lon="9.40019907434806"><ele>84.0</ele><time>2026-04-03T09:02:20Z</time></trkpt><trkpt lat="39.533309188876" lon="9.399971362631927"><ele>84.0</ele><time>2026-04-03T09:02:21Z</time></trkpt><trkpt lat="39.533459098262554" lon="9.399742576089869"><ele>80.5</ele><time>2026-04-03T09:02:22Z</time></trkpt><trkpt lat="39.53361103219083" lon="9.399516334002689"><ele>77.0</ele><time>2026-04-03T09:02:23Z</time></trkpt><trkpt lat="39.53376376441801" lon="9.399291288044461"><ele>77.0</ele><time>2026-04-03T09:02:24Z</time></trkpt><trkpt lat="39.53391441897245" lon="9.39906372930857"><ele>77.0</ele><time>2026-04-03T09:02:25Z</time></trkpt><trkpt lat="39.53406500573364" lon="9.398838367994554"><ele>72.5</ele><time>2026-04-03T09:02:26Z</time></trkpt><trkpt lat="39.53421413365667" lon="9.398611329601483"><ele>68.0</ele><time>2026-04-03T09:02:27Z</time></trkpt><trkpt lat="39.53436354086053" lon="9.39838097598347"><ele>68.0</ele><time>2026-04-03T09:02:28Z</time></trkpt><trkpt lat="39.53451298582766" lon="9.398151045456832"><ele>68.0</ele><time>2026-04-03T09:02:29Z</time></trkpt><trkpt lat="39.53466444159101" lon="9.397920073146517"><ele>68.0</ele><time>2026-04-03T09:02:30Z</time></trkpt><trkpt lat="39.53481440859659" lon="9.397689120278692"><ele>68.0</ele><time>2026-04-03T09:02:31Z</time></trkpt><trkpt lat="39.53496472592035" lon="9.397458799796679"><ele>68.0</ele><time>2026-04-03T09:02:32Z</time></trkpt><trkpt lat="39.53511489881393" lon="9.397225860384461"><ele>68.0</ele><time>2026-04-03T09:02:33Z</time></trkpt><trkpt lat="39.535265965815235" lon="9.396992789782091"><ele>74.0</ele><time>2026-04-03T09:02:34Z</time></trkpt><trkpt lat="39.5354180623011" lon="9.396760668377194"><ele>80.0</ele><time>2026-04-03T09:02:35Z</time></trkpt><trkpt lat="39.53557117151335" lon="9.396526931173716"><ele>89.5</ele><time>2026-04-03T09:02:36Z</time></trkpt><trkpt lat="39.53572364587284" lon="9.396298033806273"><ele>99.0</ele><time>2026-04-03T09:02:37Z</time></trkpt><trkpt lat="39.53587535607326" lon="9.396070681240982"><ele>99.0</ele><time>2026-04-03T09:02:38Z</time></trkpt><trkpt lat="39.536026728159925" lon="9.395844745207519"><ele>99.0</ele><time>2026-04-03T09:02:39Z</time></trkpt><trkpt lat="39.53618075001348" lon="9.395618782042257"><ele>109.0</ele><time>2026-04-03T09:02:40Z</time></trkpt><trkpt lat="39.53634031315115" lon="9.395399574242512"><ele>119.0</ele><time>2026-04-03T09:02:41Z</time></trkpt><trkpt lat="39.5365097874192" lon="9.395193707335224"><ele>119.0</ele><time>2026-04-03T09:02:42Z</time></trkpt><trkpt lat="39.536701561272785" lon="9.395031520952356"><ele>119.0</ele><time>2026-04-03T09:02:43Z</time></trkpt><trkpt lat="39.53689887313581" lon="9.394880936846729"><ele>120.33333333333333</ele><time>2026-04-03T09:02:44Z</time></trkpt><trkpt lat="39.53709162073182" lon="9.394724118159031"><ele>121.66666666666666</ele><time>2026-04-03T09:02:45Z</time></trkpt><trkpt lat="39.53725909760795" lon="9.394578627060545"><ele>123.0</ele><time>2026-04-03T09:02:46Z</time></trkpt><trkpt lat="39.53746068424868" lon="9.394398516236864"><ele>123.0</ele><time>2026-04-03T09:02:47Z</time></trkpt><trkpt lat="39.53765138199077" lon="9.39424112802223"><ele>123.0</ele><time>2026-04-03T09:02:48Z</time></trkpt><trkpt lat="39.53784089024395" lon="9.394084196891951"><ele>121.66666666666666</ele><time>2026-04-03T09:02:49Z</time></trkpt><trkpt lat="39.538028675238586" lon="9.393930497096674"><ele>120.33333333333333</ele><time>2026-04-03T09:02:50Z</time></trkpt><trkpt lat="39.53821037885221" lon="9.393775838659648"><ele>119.0</ele><time>2026-04-03T09:02:51Z</time></trkpt><trkpt lat="39.5383792130842" lon="9.393601364287882"><ele>120.33333333333333</ele><time>2026-04-03T09:02:52Z</time></trkpt><trkpt lat="39.53852727927684" lon="9.393400503330303"><ele>121.66666666666666</ele><time>2026-04-03T09:02:53Z</time></trkpt><trkpt lat="39.5386482633652" lon="9.393174565581345"><ele>123.0</ele><time>2026-04-03T09:02:54Z</time></trkpt><trkpt lat="39.538742103014" lon="9.39292539031914"><ele>123.0</ele><time>2026-04-03T09:02:55Z</time></trkpt><trkpt lat="39.53881203029077" lon="9.392661049921289"><ele>123.0</ele><time>2026-04-03T09:02:56Z</time></trkpt><trkpt lat="39.538861642103925" lon="9.392386203300344"><ele>123.0</ele><time>2026-04-03T09:02:57Z</time></trkpt><trkpt lat="39.538905618057036" lon="9.392109286758973"><ele>123.66666666666666</ele><time>2026-04-03T09:02:58Z</time></trkpt><trkpt lat="39.538950898290985" lon="9.391839912431202"><ele>124.33333333333333</ele><time>2026-04-03T09:02:59Z</time></trkpt><trkpt lat="39.53899541748959" lon="9.391567300494422"><ele>125.0</ele><time>2026-04-03T09:03:00Z</time></trkpt><trkpt lat="39.53904041081749" lon="9.391290607527992"><ele>126.0</ele><time>2026-04-03T09:03:01Z</time></trkpt><trkpt lat="39.5390872000765" lon="9.391016430375696"><ele>127.0</ele><time>2026-04-03T09:03:02Z</time></trkpt><trkpt lat="39.53913334164499" lon="9.39074317880855"><ele>128.0</ele><time>2026-04-03T09:03:03Z</time></trkpt><trkpt lat="39.53918054208015" lon="9.390469422766957"><ele>130.0</ele><time>2026-04-03T09:03:04Z</time></trkpt><trkpt lat="39.53922890672023" lon="9.390195345321882"><ele>132.0</ele><time>2026-04-03T09:03:05Z</time></trkpt><trkpt lat="39.53927646649548" lon="9.389921416507617"><ele>134.0</ele><time>2026-04-03T09:03:06Z</time></trkpt><trkpt lat="39.53932381874443" lon="9.389647986815435"><ele>141.33333333333331</ele><time>2026-04-03T09:03:07Z</time></trkpt><trkpt lat="39.53936890181064" lon="9.389370388216463"><ele>148.66666666666666</ele><time>2026-04-03T09:03:08Z</time></trkpt><trkpt lat="39.53941189097754" lon="9.389087382375097"><ele>156.0</ele><time>2026-04-03T09:03:09Z</time></trkpt><trkpt lat="39.53944343601549" lon="9.38880569460517"><ele>160.0</ele><time>2026-04-03T09:03:10Z</time></trkpt><trkpt lat="39.53945476591891" lon="9.388519608612908"><ele>164.0</ele><time>2026-04-03T09:03:11Z</time></trkpt><trkpt lat="39.53945046449649" lon="9.388231656171342"><ele>168.0</ele><time>2026-04-03T09:03:12Z</time></trkpt><trkpt lat="39.539443477345586" lon="9.387945370459484"><ele>168.66666666666666</ele><time>2026-04-03T09:03:13Z</time></trkpt><trkpt lat="39.53943877163004" lon="9.387657644980312"><ele>169.33333333333331</ele><time>2026-04-03T09:03:14Z</time></trkpt><trkpt lat="39.53943582958078" lon="9.387366646629221"><ele>170.0</ele><time>2026-04-03T09:03:15Z</time></trkpt><trkpt lat="39.539433251857346" lon="9.387078893688866"><ele>172.0</ele><time>2026-04-03T09:03:16Z</time></trkpt><trkpt lat="39.53943140433921" lon="9.386789821909156"><ele>174.0</ele><time>2026-04-03T09:03:17Z</time></trkpt><trkpt lat="39.539436268725304" lon="9.386500101253581"><ele>176.0</ele><time>2026-04-03T09:03:18Z</time></trkpt><trkpt lat="39.53945589975102" lon="9.386209223945785"><ele>177.5</ele><time>2026-04-03T09:03:19Z</time></trkpt><trkpt lat="39.539506822560945" lon="9.385921122704909"><ele>179.0</ele><time>2026-04-03T09:03:20Z</time></trkpt><trkpt lat="39.53958998561244" lon="9.385645368156405"><ele>166.5</ele><time>2026-04-03T09:03:21Z</time></trkpt><trkpt lat="39.53969596174992" lon="9.38538107507536"><ele>154.0</ele><time>2026-04-03T09:03:22Z</time></trkpt><trkpt lat="39.53981712649724" lon="9.385126919260967"><ele>154.0</ele><time>2026-04-03T09:03:23Z</time></trkpt><trkpt lat="39.539940196480856" lon="9.384871758846854"><ele>154.0</ele><time>2026-04-03T09:03:24Z</time></trkpt><trkpt lat="39.54005548897338" lon="9.384616867832195"><ele>160.0</ele><time>2026-04-03T09:03:25Z</time></trkpt><trkpt lat="39.54016497763035" lon="9.384369266542919"><ele>166.0</ele><time>2026-04-03T09:03:26Z</time></trkpt><trkpt lat="39.540255528555846" lon="9.38412691738381"><ele>172.0</ele><time>2026-04-03T09:03:27Z</time></trkpt><trkpt lat="39.54032311237768" lon="9.383855193105484"><ele>176.33333333333334</ele><time>2026-04-03T09:03:28Z</time></trkpt><trkpt lat="39.54035842878242" lon="9.383587734524207"><ele>180.66666666666666</ele><time>2026-04-03T09:03:29Z</time></trkpt><trkpt lat="39.54036981810403" lon="9.383305051808241"><ele>185.0</ele><time>2026-04-03T09:03:30Z</time></trkpt><trkpt lat="39.540384331781524" lon="9.383009508113775"><ele>171.0</ele><time>2026-04-03T09:03:31Z</time></trkpt><trkpt lat="39.54039285153985" lon="9.382718995175129"><ele>157.0</ele><time>2026-04-03T09:03:32Z</time></trkpt><trkpt lat="39.54040505034843" lon="9.382433566438626"><ele>143.0</ele><time>2026-04-03T09:03:33Z</time></trkpt><trkpt lat="39.540416905087554" lon="9.382150026666096"><ele>143.0</ele><time>2026-04-03T09:03:34Z</time></trkpt><trkpt lat="39.540424834755285" lon="9.381866503634427"><ele>143.0</ele><time>2026-04-03T09:03:35Z</time></trkpt><trkpt lat="39.54043949991516" lon="9.38158207765631"><ele>143.0</ele><time>2026-04-03T09:03:36Z</time></trkpt><trkpt lat="39.540470959799585" lon="9.3812965435458"><ele>146.66666666666666</ele><time>2026-04-03T09:03:37Z</time></trkpt><trkpt lat="39.5405235757823" lon="9.381020157079886"><ele>150.33333333333334</ele><time>2026-04-03T09:03:38Z</time></trkpt><trkpt lat="39.540613970101106" lon="9.380765834327546"><ele>154.0</ele><time>2026-04-03T09:03:39Z</time></trkpt><trkpt lat="39.54074505171528" lon="9.38054359482275"><ele>156.0</ele><time>2026-04-03T09:03:40Z</time></trkpt><trkpt lat="39.54090365728034" lon="9.380355639480882"><ele>158.0</ele><time>2026-04-03T09:03:41Z</time></trkpt><trkpt lat="39.54108814771541" lon="9.380203470482524"><ele>160.0</ele><time>2026-04-03T09:03:42Z</time></trkpt><trkpt lat="39.54128380824782" lon="9.380078302043978"><ele>160.0</ele><time>2026-04-03T09:03:43Z</time></trkpt><trkpt lat="39.54148121573016" lon="9.379948483190303"><ele>160.0</ele><time>2026-04-03T09:03:44Z</time></trkpt><trkpt lat="39.54167119380741" lon="9.379806820135752"><ele>160.0</ele><time>2026-04-03T09:03:45Z</time></trkpt><trkpt lat="39.54184320001542" lon="9.379637245046505"><ele>157.66666666666669</ele><time>2026-04-03T09:03:46Z</time></trkpt><trkpt lat="39.541989161596646" lon="9.379429591860339"><ele>155.33333333333334</ele><time>2026-04-03T09:03:47Z</time></trkpt><trkpt lat="39.54211790195428" lon="9.379206012206344"><ele>153.0</ele><time>2026-04-03T09:03:48Z</time></trkpt><trkpt lat="39.54221053112581" lon="9.378946320478192"><ele>152.66666666666666</ele><time>2026-04-03T09:03:49Z</time></trkpt><trkpt lat="39.542253132034695" lon="9.378665280880165"><ele>152.33333333333331</ele><time>2026-04-03T09:03:50Z</time></trkpt><trkpt lat="39.54229328561548" lon="9.37838307616278"><ele>152.0</ele><time>2026-04-03T09:03:51Z</time></trkpt><trkpt lat="39.54227671480105" lon="9.378096736226155"><ele>149.0</ele><time>2026-04-03T09:03:52Z</time></trkpt><trkpt lat="39.54221243681489" lon="9.377823171905932"><ele>146.0</ele><time>2026-04-03T09:03:53Z</time></trkpt><trkpt lat="39.542127527410514" lon="9.37756772656445"><ele>143.0</ele><time>2026-04-03T09:03:54Z</time></trkpt><trkpt lat="39.542021196754796" lon="9.377325082964287"><ele>147.0</ele><time>2026-04-03T09:03:55Z</time></trkpt><trkpt lat="39.54186361026153" lon="9.377134378329327"><ele>151.0</ele><time>2026-04-03T09:03:56Z</time></trkpt><trkpt lat="39.541697519077985" lon="9.376961527550023"><ele>155.0</ele><time>2026-04-03T09:03:57Z</time></trkpt><trkpt lat="39.54150978742307" lon="9.37682339623854"><ele>155.0</ele><time>2026-04-03T09:03:58Z</time></trkpt><trkpt lat="39.54131783182072" lon="9.376705163144464"><ele>155.0</ele><time>2026-04-03T09:03:59Z</time></trkpt><trkpt lat="39.54112674484038" lon="9.376591808573354"><ele>155.0</ele><time>2026-04-03T09:04:00Z</time></trkpt><trkpt lat="39.540949268322535" lon="9.376454491286552"><ele>157.33333333333331</ele><time>2026-04-03T09:04:01Z</time></trkpt><trkpt lat="39.54078692308125" lon="9.376291621695339"><ele>159.66666666666666</ele><time>2026-04-03T09:04:02Z</time></trkpt><trkpt lat="39.540655441553916" lon="9.376097388775767"><ele>162.0</ele><time>2026-04-03T09:04:03Z</time></trkpt><trkpt lat="39.54055354956887" lon="9.375870258556786"><ele>162.0</ele><time>2026-04-03T09:04:04Z</time></trkpt><trkpt lat="39.540490293565945" lon="9.375611066085451"><ele>162.0</ele><time>2026-04-03T09:04:05Z</time></trkpt><trkpt lat="39.54045670189245" lon="9.375355102124425"><ele>162.0</ele><time>2026-04-03T09:04:06Z</time></trkpt><trkpt lat="39.540465551035744" lon="9.375097185508736"><ele>162.0</ele><time>2026-04-03T09:04:07Z</time></trkpt><trkpt lat="39.54050135959044" lon="9.374841103926189"><ele>162.0</ele><time>2026-04-03T09:04:08Z</time></trkpt><trkpt lat="39.54056518547688" lon="9.374588462803628"><ele>162.0</ele><time>2026-04-03T09:04:09Z</time></trkpt><trkpt lat="39.54064281852453" lon="9.374336987686686"><ele>162.0</ele><time>2026-04-03T09:04:10Z</time></trkpt><trkpt lat="39.540714849111616" lon="9.374078605544621"><ele>162.0</ele><time>2026-04-03T09:04:11Z</time></trkpt><trkpt lat="39.540760599630175" lon="9.37381131642885"><ele>162.0</ele><time>2026-04-03T09:04:12Z</time></trkpt><trkpt lat="39.54076865891825" lon="9.373537682273017"><ele>163.0</ele><time>2026-04-03T09:04:13Z</time></trkpt><trkpt lat="39.540748510850854" lon="9.373267250230901"><ele>164.0</ele><time>2026-04-03T09:04:14Z</time></trkpt><trkpt lat="39.54070245160353" lon="9.37298675806672"><ele>165.0</ele><time>2026-04-03T09:04:15Z</time></trkpt><trkpt lat="39.54064919181756" lon="9.372718045688595"><ele>163.0</ele><time>2026-04-03T09:04:16Z</time></trkpt><trkpt lat="39.54060506695399" lon="9.37246817537585"><ele>161.0</ele><time>2026-04-03T09:04:17Z</time></trkpt><trkpt lat="39.54055708201044" lon="9.372217402368497"><ele>159.0</ele><time>2026-04-03T09:04:18Z</time></trkpt><trkpt lat="39.54050535788914" lon="9.371967387530814"><ele>159.0</ele><time>2026-04-03T09:04:19Z</time></trkpt><trkpt lat="39.54045373101217" lon="9.371721177556356"><ele>159.0</ele><time>2026-04-03T09:04:20Z</time></trkpt><trkpt lat="39.54040713316463" lon="9.371474135623092"><ele>159.0</ele><time>2026-04-03T09:04:21Z</time></trkpt><trkpt lat="39.54036026622602" lon="9.371227449065511"><ele>168.0</ele><time>2026-04-03T09:04:22Z</time></trkpt><trkpt lat="39.54031357713095" lon="9.37098068092425"><ele>177.0</ele><time>2026-04-03T09:04:23Z</time></trkpt><trkpt lat="39.54026271116039" lon="9.370731925439514"><ele>186.0</ele><time>2026-04-03T09:04:24Z</time></trkpt><trkpt lat="39.54021548662905" lon="9.370484256699985"><ele>186.0</ele><time>2026-04-03T09:04:25Z</time></trkpt><trkpt lat="39.54017649328225" lon="9.370235591430973"><ele>186.0</ele><time>2026-04-03T09:04:26Z</time></trkpt><trkpt lat="39.54018167184147" lon="9.36998261057615"><ele>186.0</ele><time>2026-04-03T09:04:27Z</time></trkpt><trkpt lat="39.540212410177844" lon="9.369743760806406"><ele>192.33333333333331</ele><time>2026-04-03T09:04:28Z</time></trkpt><trkpt lat="39.54027292410759" lon="9.369502886804495"><ele>198.66666666666666</ele><time>2026-04-03T09:04:29Z</time></trkpt><trkpt lat="39.54036633295249" lon="9.36928448204322"><ele>205.0</ele><time>2026-04-03T09:04:30Z</time></trkpt><trkpt lat="39.540488020175886" lon="9.369083594224785"><ele>199.66666666666666</ele><time>2026-04-03T09:04:31Z</time></trkpt><trkpt lat="39.540633997982006" lon="9.368909275570996"><ele>194.33333333333331</ele><time>2026-04-03T09:04:32Z</time></trkpt><trkpt lat="39.54080186058744" lon="9.368771167661837"><ele>189.0</ele><time>2026-04-03T09:04:33Z</time></trkpt><trkpt lat="39.54098390097299" lon="9.368673247052968"><ele>189.0</ele><time>2026-04-03T09:04:34Z</time></trkpt><trkpt lat="39.5411764863282" lon="9.368616217038"><ele>189.0</ele><time>2026-04-03T09:04:35Z</time></trkpt><trkpt lat="39.54138370098913" lon="9.368568261529896"><ele>189.0</ele><time>2026-04-03T09:04:36Z</time></trkpt><trkpt lat="39.54159458371476" lon="9.368520035896688"><ele>182.33333333333334</ele><time>2026-04-03T09:04:37Z</time></trkpt><trkpt lat="39.54180296931627" lon="9.368472381333548"><ele>175.66666666666669</ele><time>2026-04-03T09:04:38Z</time></trkpt><trkpt lat="39.542002136498354" lon="9.368390550727426"><ele>169.0</ele><time>2026-04-03T09:04:39Z</time></trkpt><trkpt lat="39.54219715392492" lon="9.368304849238443"><ele>169.33333333333334</ele><time>2026-04-03T09:04:40Z</time></trkpt><trkpt lat="39.54237932045371" lon="9.368175173931265"><ele>169.66666666666666</ele><time>2026-04-03T09:04:41Z</time></trkpt><trkpt lat="39.5425394667317" lon="9.36802020633655"><ele>170.0</ele><time>2026-04-03T09:04:42Z</time></trkpt><trkpt lat="39.542676337807116" lon="9.367847524513408"><ele>170.0</ele><time>2026-04-03T09:04:43Z</time></trkpt><trkpt lat="39.542788956558134" lon="9.367663542950453"><ele>170.0</ele><time>2026-04-03T09:04:44Z</time></trkpt><trkpt lat="39.542878673278764" lon="9.367471321076053"><ele>170.0</ele><time>2026-04-03T09:04:45Z</time></trkpt><trkpt lat="39.542944734594364" lon="9.367264548299802"><ele>165.66666666666666</ele><time>2026-04-03T09:04:46Z</time></trkpt><trkpt lat="39.54298818749625" lon="9.36706180749752"><ele>161.33333333333334</ele><time>2026-04-03T09:04:47Z</time></trkpt><trkpt lat="39.54301783970839" lon="9.366858698155875"><ele>157.0</ele><time>2026-04-03T09:04:48Z</time></trkpt><trkpt lat="39.543026489936466" lon="9.366641813612956"><ele>157.0</ele><time>2026-04-03T09:04:49Z</time></trkpt><trkpt lat="39.5430512910156" lon="9.366441366522745"><ele>157.0</ele><time>2026-04-03T09:04:50Z</time></trkpt><trkpt lat="39.54307943698755" lon="9.366248619899531"><ele>157.0</ele><time>2026-04-03T09:04:51Z</time></trkpt><trkpt lat="39.54311436403916" lon="9.366057223614803"><ele>156.66666666666669</ele><time>2026-04-03T09:04:52Z</time></trkpt><trkpt lat="39.5431446552599" lon="9.365865528523472"><ele>156.33333333333334</ele><time>2026-04-03T09:04:53Z</time></trkpt><trkpt lat="39.543177658233155" lon="9.365661542272695"><ele>156.0</ele><time>2026-04-03T09:04:54Z</time></trkpt><trkpt lat="39.54320868938197" lon="9.365437531073571"><ele>157.33333333333334</ele><time>2026-04-03T09:04:55Z</time></trkpt><trkpt lat="39.54324721394892" lon="9.36520944466745"><ele>158.66666666666669</ele><time>2026-04-03T09:04:56Z</time></trkpt><trkpt lat="39.54329759594021" lon="9.364976482457175"><ele>160.0</ele><time>2026-04-03T09:04:57Z</time></trkpt><trkpt lat="39.54339449176536" lon="9.364761572654436"><ele>157.66666666666669</ele><time>2026-04-03T09:04:58Z</time></trkpt><trkpt lat="39.543514838590774" lon="9.364565020827248"><ele>155.33333333333334</ele><time>2026-04-03T09:04:59Z</time></trkpt><trkpt lat="39.54366257571481" lon="9.364393513870413"><ele>153.0</ele><time>2026-04-03T09:05:00Z</time></trkpt><trkpt lat="39.54383620380509" lon="9.364255560428857"><ele>153.0</ele><time>2026-04-03T09:05:01Z</time></trkpt><trkpt lat="39.5440266720065" lon="9.364139655064745"><ele>153.0</ele><time>2026-04-03T09:05:02Z</time></trkpt><trkpt lat="39.54423377217801" lon="9.364111866122434"><ele>153.0</ele><time>2026-04-03T09:05:03Z</time></trkpt><trkpt lat="39.544439496810845" lon="9.364110531350567"><ele>152.0</ele><time>2026-04-03T09:05:04Z</time></trkpt><trkpt lat="39.544640698465685" lon="9.36416105740303"><ele>151.0</ele><time>2026-04-03T09:05:05Z</time></trkpt><trkpt lat="39.54484196892447" lon="9.364236785248176"><ele>150.0</ele><time>2026-04-03T09:05:06Z</time></trkpt><trkpt lat="39.545042453631865" lon="9.364309290798507"><ele>150.0</ele><time>2026-04-03T09:05:07Z</time></trkpt><trkpt lat="39.54522988505367" lon="9.364385460969316"><ele>150.0</ele><time>2026-04-03T09:05:08Z</time></trkpt><trkpt lat="39.54541623463335" lon="9.364393086362147"><ele>150.0</ele><time>2026-04-03T09:05:09Z</time></trkpt><trkpt lat="39.545612536592905" lon="9.364348175300487"><ele>145.0</ele><time>2026-04-03T09:05:10Z</time></trkpt><trkpt lat="39.545803126537166" lon="9.364254167264662"><ele>140.0</ele><time>2026-04-03T09:05:11Z</time></trkpt><trkpt lat="39.54596013276927" lon="9.36414218445121"><ele>135.0</ele><time>2026-04-03T09:05:12Z</time></trkpt><trkpt lat="39.546098912950136" lon="9.364031620978162"><ele>133.8</ele><time>2026-04-03T09:05:13Z</time></trkpt><trkpt lat="39.54622406501425" lon="9.363937528228744"><ele>132.6</ele><time>2026-04-03T09:05:14Z</time></trkpt><trkpt lat="39.54633112812799" lon="9.36387461024663"><ele>131.4</ele><time>2026-04-03T09:05:15Z</time></trkpt><trkpt lat="39.54640277459924" lon="9.363835665816614"><ele>130.2</ele><time>2026-04-03T09:05:16Z</time></trkpt><trkpt lat="39.54645681585672" lon="9.36377140599246"><ele>129.0</ele><time>2026-04-03T09:06:41Z</time></trkpt><trkpt lat="39.546558554079546" lon="9.363722061038738"><ele>129.0</ele><time>2026-04-03T09:06:43Z</time></trkpt><trkpt lat="39.54661034295796" lon="9.363662712685475"><ele>129.0</ele><time>2026-04-03T09:06:44Z</time></trkpt><trkpt lat="39.54667671620407" lon="9.363625621071089"><ele>129.0</ele><time>2026-04-03T09:06:45Z</time></trkpt><trkpt lat="39.546751510065214" lon="9.363573010237864"><ele>129.0</ele><time>2026-04-03T09:06:46Z</time></trkpt><trkpt lat="39.546838500474806" lon="9.36353297710026"><ele>129.0</ele><time>2026-04-03T09:06:47Z</time></trkpt><trkpt lat="39.54692731130381" lon="9.36345915605762"><ele>129.0</ele><time>2026-04-03T09:06:48Z</time></trkpt><trkpt lat="39.54700597898422" lon="9.363357951123414"><ele>125.6</ele><time>2026-04-03T09:06:49Z</time></trkpt><trkpt lat="39.5470681874385" lon="9.36325380194898"><ele>122.2</ele><time>2026-04-03T09:06:50Z</time></trkpt><trkpt lat="39.54711323940033" lon="9.363134518742184"><ele>118.79999999999998</ele><time>2026-04-03T09:06:51Z</time></trkpt><trkpt lat="39.54713842277501" lon="9.363007697681908"><ele>115.39999999999999</ele><time>2026-04-03T09:06:52Z</time></trkpt><trkpt lat="39.5471659258335" lon="9.36288843468884"><ele>112.0</ele><time>2026-04-03T09:06:53Z</time></trkpt><trkpt lat="39.54719373273833" lon="9.362767854095372"><ele>112.00000000000001</ele><time>2026-04-03T09:06:54Z</time></trkpt><trkpt lat="39.54720483835402" lon="9.362646766721324"><ele>112.0</ele><time>2026-04-03T09:06:55Z</time></trkpt><trkpt lat="39.54723291569296" lon="9.362533139714081"><ele>112.0</ele><time>2026-04-03T09:06:56Z</time></trkpt><trkpt lat="39.54725679264203" lon="9.362420344772632"><ele>112.0</ele><time>2026-04-03T09:06:57Z</time></trkpt><trkpt lat="39.547274933321845" lon="9.362310318608518"><ele>112.00000000000001</ele><time>2026-04-03T09:06:58Z</time></trkpt><trkpt lat="39.547288733517675" lon="9.362203932560767"><ele>112.0</ele><time>2026-04-03T09:06:59Z</time></trkpt><trkpt lat="39.547306451486875" lon="9.362091953914407"><ele>113.50000000000001</ele><time>2026-04-03T09:07:00Z</time></trkpt><trkpt lat="39.547337516430154" lon="9.361998861714518"><ele>115.0</ele><time>2026-04-03T09:07:01Z</time></trkpt><trkpt lat="39.547384826364265" lon="9.36192730436855"><ele>116.5</ele><time>2026-04-03T09:07:02Z</time></trkpt><trkpt lat="39.54746305156943" lon="9.361899068939902"><ele>118.0</ele><time>2026-04-03T09:07:03Z</time></trkpt><trkpt lat="39.54754830440978" lon="9.361849367180508"><ele>119.50000000000001</ele><time>2026-04-03T09:07:04Z</time></trkpt><trkpt lat="39.547648650974" lon="9.361847998231674"><ele>121.0</ele><time>2026-04-03T09:07:05Z</time></trkpt><trkpt lat="39.547755141087315" lon="9.36185695784136"><ele>121.0</ele><time>2026-04-03T09:07:06Z</time></trkpt><trkpt lat="39.54786179231039" lon="9.36187750817824"><ele>121.0</ele><time>2026-04-03T09:07:07Z</time></trkpt><trkpt lat="39.547951745659404" lon="9.361937401366964"><ele>121.0</ele><time>2026-04-03T09:07:08Z</time></trkpt><trkpt lat="39.548047290688245" lon="9.361969130710753"><ele>121.0</ele><time>2026-04-03T09:07:09Z</time></trkpt><trkpt lat="39.54814268467598" lon="9.36199867834981"><ele>121.0</ele><time>2026-04-03T09:07:10Z</time></trkpt><trkpt lat="39.548243945465934" lon="9.362012584146427"><ele>119.19999999999999</ele><time>2026-04-03T09:07:11Z</time></trkpt><trkpt lat="39.54834366801177" lon="9.361983947261193"><ele>117.39999999999999</ele><time>2026-04-03T09:07:12Z</time></trkpt><trkpt lat="39.548438308050365" lon="9.361961611962075"><ele>115.6</ele><time>2026-04-03T09:07:13Z</time></trkpt><trkpt lat="39.54850160532145" lon="9.361862306834666"><ele>113.8</ele><time>2026-04-03T09:07:14Z</time></trkpt><trkpt lat="39.548579494259045" lon="9.361792886207894"><ele>112.0</ele><time>2026-04-03T09:07:15Z</time></trkpt><trkpt lat="39.548655203138956" lon="9.361687728280003"><ele>108.0</ele><time>2026-04-03T09:07:16Z</time></trkpt><trkpt lat="39.54872596314799" lon="9.361567981873277"><ele>104.0</ele><time>2026-04-03T09:07:17Z</time></trkpt><trkpt lat="39.54877498681151" lon="9.361422172714438"><ele>100.0</ele><time>2026-04-03T09:07:18Z</time></trkpt><trkpt lat="39.54879579320358" lon="9.361271557802855"><ele>96.0</ele><time>2026-04-03T09:07:19Z</time></trkpt><trkpt lat="39.54881434587202" lon="9.361128481965737"><ele>95.8</ele><time>2026-04-03T09:07:20Z</time></trkpt><trkpt lat="39.54883705799822" lon="9.360990193430212"><ele>95.6</ele><time>2026-04-03T09:07:21Z</time></trkpt><trkpt lat="39.54886316251641" lon="9.360848750691536"><ele>95.4</ele><time>2026-04-03T09:07:22Z</time></trkpt><trkpt lat="39.54881589026641" lon="9.360718252868615"><ele>95.2</ele><time>2026-04-03T09:07:23Z</time></trkpt><trkpt lat="39.54877762590368" lon="9.360584122890966"><ele>95.0</ele><time>2026-04-03T09:07:24Z</time></trkpt><trkpt lat="39.54872387378787" lon="9.360457081984402"><ele>95.4</ele><time>2026-04-03T09:07:25Z</time></trkpt><trkpt lat="39.54865483995134" lon="9.360341731164969"><ele>95.8</ele><time>2026-04-03T09:07:26Z</time></trkpt><trkpt lat="39.548557043584196" lon="9.360278656452486"><ele>96.19999999999999</ele><time>2026-04-03T09:07:27Z</time></trkpt><trkpt lat="39.548451775839204" lon="9.360248250872266"><ele>96.6</ele><time>2026-04-03T09:07:28Z</time></trkpt><trkpt lat="39.548337717615176" lon="9.360214761206157"><ele>97.0</ele><time>2026-04-03T09:07:28.999Z</time></trkpt><trkpt lat="39.548227451160926" lon="9.360192244962631"><ele>97.0</ele><time>2026-04-03T09:07:29.999Z</time></trkpt><trkpt lat="39.54812245906573" lon="9.360151219409792"><ele>97.0</ele><time>2026-04-03T09:07:30.999Z</time></trkpt><trkpt lat="39.548051591511005" lon="9.360044792032006"><ele>97.0</ele><time>2026-04-03T09:07:31.999Z</time></trkpt><trkpt lat="39.547984416145624" lon="9.359948128938338"><ele>97.0</ele><time>2026-04-03T09:07:32.999Z</time></trkpt><trkpt lat="39.547931973797255" lon="9.359841954466638"><ele>97.0</ele><time>2026-04-03T09:07:33.999Z</time></trkpt><trkpt lat="39.54793379373992" lon="9.35972357070644"><ele>96.39999999999999</ele><time>2026-04-03T09:07:34.999Z</time></trkpt><trkpt lat="39.547977012027545" lon="9.359627539808505"><ele>95.8</ele><time>2026-04-03T09:07:35.999Z</time></trkpt><trkpt lat="39.54804132588635" lon="9.359562323383587"><ele>95.2</ele><time>2026-04-03T09:07:36.999Z</time></trkpt><trkpt lat="39.54810647756819" lon="9.359526043147017"><ele>94.6</ele><time>2026-04-03T09:07:37.999Z</time></trkpt><trkpt lat="39.54823680734214" lon="9.359594791188023"><ele>94.0</ele><time>2026-04-03T09:07:39.999Z</time></trkpt><trkpt lat="39.548282575699474" lon="9.359679384148235"><ele>94.5</ele><time>2026-04-03T09:07:40.999Z</time></trkpt><trkpt lat="39.548335445685744" lon="9.359752726863826"><ele>95.0</ele><time>2026-04-03T09:07:41.999Z</time></trkpt><trkpt lat="39.54841238819104" lon="9.359832750655515"><ele>95.5</ele><time>2026-04-03T09:07:42.999Z</time></trkpt><trkpt lat="39.54849322802393" lon="9.359901467984583"><ele>96.0</ele><time>2026-04-03T09:07:43.999Z</time></trkpt><trkpt lat="39.548556437405594" lon="9.359980791373376"><ele>96.50000000000001</ele><time>2026-04-03T09:07:44.999Z</time></trkpt><trkpt lat="39.548612866969584" lon="9.36004961179713"><ele>97.0</ele><time>2026-04-03T09:07:45.999Z</time></trkpt><trkpt lat="39.54867186051251" lon="9.36011610807186"><ele>96.66666666666667</ele><time>2026-04-03T09:07:46.999Z</time></trkpt><trkpt lat="39.54872817555772" lon="9.36018106097117"><ele>96.33333333333334</ele><time>2026-04-03T09:07:47.999Z</time></trkpt><trkpt lat="39.548788197320654" lon="9.360251906401784"><ele>96.0</ele><time>2026-04-03T09:07:48.999Z</time></trkpt><trkpt lat="39.54885588946897" lon="9.360330012101715"><ele>95.66666666666667</ele><time>2026-04-03T09:07:49.999Z</time></trkpt><trkpt lat="39.5489262368511" lon="9.36040115700527"><ele>95.33333333333334</ele><time>2026-04-03T09:07:50.999Z</time></trkpt><trkpt lat="39.54899914383516" lon="9.36046734732327"><ele>95.0</ele><time>2026-04-03T09:07:52Z</time></trkpt><trkpt lat="39.54906068559681" lon="9.360558238527661"><ele>95.0</ele><time>2026-04-03T09:07:53Z</time></trkpt><trkpt lat="39.54913591284152" lon="9.36064637728427"><ele>95.0</ele><time>2026-04-03T09:07:54Z</time></trkpt><trkpt lat="39.54921341455227" lon="9.360747492862238"><ele>95.0</ele><time>2026-04-03T09:07:55Z</time></trkpt><trkpt lat="39.54927363875899" lon="9.360870296358348"><ele>95.0</ele><time>2026-04-03T09:07:56Z</time></trkpt><trkpt lat="39.549295237892686" lon="9.361017532851942"><ele>95.0</ele><time>2026-04-03T09:07:57Z</time></trkpt><trkpt lat="39.54930465660056" lon="9.361168047250032"><ele>95.0</ele><time>2026-04-03T09:07:58Z</time></trkpt><trkpt lat="39.54932808450002" lon="9.36132008341752"><ele>95.0</ele><time>2026-04-03T09:07:59Z</time></trkpt><trkpt lat="39.54934886271751" lon="9.361465978372248"><ele>95.0</ele><time>2026-04-03T09:08:00Z</time></trkpt><trkpt lat="39.54936284012789" lon="9.36160271816692"><ele>95.0</ele><time>2026-04-03T09:08:01Z</time></trkpt><trkpt lat="39.54938739558948" lon="9.361725243622212"><ele>95.0</ele><time>2026-04-03T09:08:02Z</time></trkpt><trkpt lat="39.54938250837255" lon="9.361840936776778"><ele>95.16666666666667</ele><time>2026-04-03T09:08:03Z</time></trkpt><trkpt lat="39.549384237463705" lon="9.361944418700602"><ele>95.33333333333334</ele><time>2026-04-03T09:08:04Z</time></trkpt><trkpt lat="39.54937570952086" lon="9.36204505095243"><ele>95.5</ele><time>2026-04-03T09:08:05Z</time></trkpt><trkpt lat="39.54936579703064" lon="9.36215121895812"><ele>95.66666666666667</ele><time>2026-04-03T09:08:06Z</time></trkpt><trkpt lat="39.54935337438722" lon="9.362247961203094"><ele>95.83333333333333</ele><time>2026-04-03T09:08:07Z</time></trkpt><trkpt lat="39.54933563550206" lon="9.36233268336859"><ele>96.0</ele><time>2026-04-03T09:08:08Z</time></trkpt><trkpt lat="39.549539129290636" lon="9.362412933046574"><ele>95.0</ele><time>2026-04-03T09:08:11Z</time></trkpt><trkpt lat="39.54960916052354" lon="9.362369399370813"><ele>94.0</ele><time>2026-04-03T09:08:12Z</time></trkpt><trkpt lat="39.54969101409978" lon="9.362323904077472"><ele>93.0</ele><time>2026-04-03T09:08:13Z</time></trkpt><trkpt lat="39.549783147938335" lon="9.36229084814388"><ele>92.0</ele><time>2026-04-03T09:08:14Z</time></trkpt><trkpt lat="39.54988340796196" lon="9.36225682523944"><ele>91.0</ele><time>2026-04-03T09:08:15Z</time></trkpt><trkpt lat="39.54999390644963" lon="9.362214385994104"><ele>90.75</ele><time>2026-04-03T09:08:16Z</time></trkpt><trkpt lat="39.55010620276017" lon="9.36216188185809"><ele>90.5</ele><time>2026-04-03T09:08:17Z</time></trkpt><trkpt lat="39.5502132313964" lon="9.362102657606554"><ele>90.25</ele><time>2026-04-03T09:08:18Z</time></trkpt><trkpt lat="39.55032477678686" lon="9.362048802930028"><ele>90.0</ele><time>2026-04-03T09:08:19Z</time></trkpt><trkpt lat="39.55043044405979" lon="9.36199168472013"><ele>89.25</ele><time>2026-04-03T09:08:20Z</time></trkpt><trkpt lat="39.55053818031781" lon="9.361945161144481"><ele>88.5</ele><time>2026-04-03T09:08:21Z</time></trkpt><trkpt lat="39.55062836658945" lon="9.36184689427137"><ele>87.75</ele><time>2026-04-03T09:08:22Z</time></trkpt><trkpt lat="39.55069403176603" lon="9.361722183882526"><ele>87.0</ele><time>2026-04-03T09:08:23Z</time></trkpt><trkpt lat="39.550770754744484" lon="9.361600136969788"><ele>87.0</ele><time>2026-04-03T09:08:24.001Z</time></trkpt><trkpt lat="39.55084839196331" lon="9.36147541766657"><ele>87.0</ele><time>2026-04-03T09:08:25Z</time></trkpt><trkpt lat="39.55092823144111" lon="9.36134863583416"><ele>87.0</ele><time>2026-04-03T09:08:26Z</time></trkpt><trkpt lat="39.55101278138537" lon="9.361215675380986"><ele>87.0</ele><time>2026-04-03T09:08:27Z</time></trkpt><trkpt lat="39.55111221673824" lon="9.361092319235242"><ele>87.25</ele><time>2026-04-03T09:08:28Z</time></trkpt><trkpt lat="39.55120236144161" lon="9.360950344769403"><ele>87.5</ele><time>2026-04-03T09:08:29Z</time></trkpt><trkpt lat="39.55129103022412" lon="9.360802449828478"><ele>87.75</ele><time>2026-04-03T09:08:30Z</time></trkpt><trkpt lat="39.551375071673704" lon="9.360642247365213"><ele>88.0</ele><time>2026-04-03T09:08:31Z</time></trkpt><trkpt lat="39.55144991066192" lon="9.36047448044506"><ele>87.5</ele><time>2026-04-03T09:08:32Z</time></trkpt><trkpt lat="39.55148789010837" lon="9.360285503137433"><ele>87.0</ele><time>2026-04-03T09:08:33Z</time></trkpt><trkpt lat="39.551543591809114" lon="9.360117954484489"><ele>86.5</ele><time>2026-04-03T09:08:34Z</time></trkpt><trkpt lat="39.55159129532122" lon="9.35995767202521"><ele>86.0</ele><time>2026-04-03T09:08:35Z</time></trkpt><trkpt lat="39.55163935612535" lon="9.359803617448607"><ele>86.0</ele><time>2026-04-03T09:08:36Z</time></trkpt><trkpt lat="39.551688854972205" lon="9.359653413030838"><ele>86.0</ele><time>2026-04-03T09:08:37Z</time></trkpt><trkpt lat="39.5517591650517" lon="9.359507402995108"><ele>86.0</ele><time>2026-04-03T09:08:38Z</time></trkpt><trkpt lat="39.551799939772366" lon="9.359336230414401"><ele>86.0</ele><time>2026-04-03T09:08:39Z</time></trkpt><trkpt lat="39.551854258373965" lon="9.359166013589164"><ele>86.0</ele><time>2026-04-03T09:08:40Z</time></trkpt><trkpt lat="39.55192491099629" lon="9.359002192086963"><ele>86.0</ele><time>2026-04-03T09:08:41Z</time></trkpt><trkpt lat="39.55197946814636" lon="9.358831181521456"><ele>86.0</ele><time>2026-04-03T09:08:42Z</time></trkpt><trkpt lat="39.552034753019385" lon="9.358656180014815"><ele>86.0</ele><time>2026-04-03T09:08:43Z</time></trkpt><trkpt lat="39.55208949222131" lon="9.358482905807042"><ele>85.66666666666667</ele><time>2026-04-03T09:08:44Z</time></trkpt><trkpt lat="39.55214825921586" lon="9.358298208321054"><ele>85.33333333333333</ele><time>2026-04-03T09:08:45Z</time></trkpt><trkpt lat="39.55220894796141" lon="9.358109023359845"><ele>85.0</ele><time>2026-04-03T09:08:46Z</time></trkpt><trkpt lat="39.552257224001075" lon="9.357911597355429"><ele>85.0</ele><time>2026-04-03T09:08:47Z</time></trkpt><trkpt lat="39.552327797714604" lon="9.357719698429893"><ele>85.0</ele><time>2026-04-03T09:08:48Z</time></trkpt><trkpt lat="39.55239435575552" lon="9.357512452329239"><ele>85.0</ele><time>2026-04-03T09:08:49Z</time></trkpt><trkpt lat="39.55245821565392" lon="9.357301964933086"><ele>84.66666666666666</ele><time>2026-04-03T09:08:50Z</time></trkpt><trkpt lat="39.552526472184525" lon="9.357088277258603"><ele>84.33333333333333</ele><time>2026-04-03T09:08:51Z</time></trkpt><trkpt lat="39.55259524695104" lon="9.356871496459716"><ele>84.0</ele><time>2026-04-03T09:08:51.999Z</time></trkpt><trkpt lat="39.55266413016522" lon="9.356651971452083"><ele>84.0</ele><time>2026-04-03T09:08:52.999Z</time></trkpt><trkpt lat="39.55273062224552" lon="9.356442351242151"><ele>84.0</ele><time>2026-04-03T09:08:53.999Z</time></trkpt><trkpt lat="39.55279739052596" lon="9.35623210520967"><ele>84.0</ele><time>2026-04-03T09:08:54.999Z</time></trkpt><trkpt lat="39.552866208953276" lon="9.35601959217162"><ele>83.66666666666667</ele><time>2026-04-03T09:08:55.999Z</time></trkpt><trkpt lat="39.55293619222629" lon="9.355806483109369"><ele>83.33333333333334</ele><time>2026-04-03T09:08:56.999Z</time></trkpt><trkpt lat="39.55300864652629" lon="9.355592912609096"><ele>83.0</ele><time>2026-04-03T09:08:57.999Z</time></trkpt><trkpt lat="39.55307960269302" lon="9.355376526668863"><ele>83.0</ele><time>2026-04-03T09:08:58.999Z</time></trkpt><trkpt lat="39.55314738790945" lon="9.355159369526135"><ele>83.0</ele><time>2026-04-03T09:08:59.999Z</time></trkpt><trkpt lat="39.553216435088885" lon="9.354945644242258"><ele>83.0</ele><time>2026-04-03T09:09:00.999Z</time></trkpt><trkpt lat="39.553287385381424" lon="9.354729996455196"><ele>84.0</ele><time>2026-04-03T09:09:01.999Z</time></trkpt><trkpt lat="39.55335690984905" lon="9.354512573854347"><ele>85.0</ele><time>2026-04-03T09:09:02.999Z</time></trkpt><trkpt lat="39.55342549821006" lon="9.3542960686721"><ele>86.0</ele><time>2026-04-03T09:09:03.999Z</time></trkpt><trkpt lat="39.55349005424542" lon="9.354086050816148"><ele>86.0</ele><time>2026-04-03T09:09:04.999Z</time></trkpt><trkpt lat="39.55354608888716" lon="9.35388845680201"><ele>86.0</ele><time>2026-04-03T09:09:05.999Z</time></trkpt><trkpt lat="39.55362001080545" lon="9.353718153893544"><ele>86.0</ele><time>2026-04-03T09:09:06.999Z</time></trkpt><trkpt lat="39.553672551698355" lon="9.353566381068422"><ele>86.0</ele><time>2026-04-03T09:09:07.999Z</time></trkpt><trkpt lat="39.55377028095448" lon="9.353469715709604"><ele>85.75</ele><time>2026-04-03T09:09:08.999Z</time></trkpt><trkpt lat="39.55388441026501" lon="9.353429288145058"><ele>85.5</ele><time>2026-04-03T09:09:09.999Z</time></trkpt><trkpt lat="39.554005047920114" lon="9.353458104545618"><ele>85.25</ele><time>2026-04-03T09:09:10.999Z</time></trkpt><trkpt lat="39.55412563945814" lon="9.353513902020847"><ele>85.0</ele><time>2026-04-03T09:09:11.999Z</time></trkpt><trkpt lat="39.55425614732619" lon="9.35357337240898"><ele>85.0</ele><time>2026-04-03T09:09:12.999Z</time></trkpt><trkpt lat="39.55439229585837" lon="9.353632266611074"><ele>85.0</ele><time>2026-04-03T09:09:13.999Z</time></trkpt><trkpt lat="39.55454052510673" lon="9.353697639831584"><ele>85.0</ele><time>2026-04-03T09:09:14.999Z</time></trkpt><trkpt lat="39.554695774038215" lon="9.35376991393103"><ele>84.66666666666666</ele><time>2026-04-03T09:09:15.999Z</time></trkpt><trkpt lat="39.55484948102729" lon="9.353840564461294"><ele>84.33333333333333</ele><time>2026-04-03T09:09:16.999Z</time></trkpt><trkpt lat="39.55501336799957" lon="9.353906672932473"><ele>84.0</ele><time>2026-04-03T09:09:17.999Z</time></trkpt><trkpt lat="39.55517037111929" lon="9.353976734558419"><ele>83.66666666666667</ele><time>2026-04-03T09:09:18.999Z</time></trkpt><trkpt lat="39.55531974540759" lon="9.354043339215858"><ele>83.33333333333334</ele><time>2026-04-03T09:09:19.999Z</time></trkpt><trkpt lat="39.555470447704735" lon="9.354076877066506"><ele>83.0</ele><time>2026-04-03T09:09:20.999Z</time></trkpt><trkpt lat="39.55562995713204" lon="9.354063270435951"><ele>83.66666666666667</ele><time>2026-04-03T09:09:21.999Z</time></trkpt><trkpt lat="39.555782460123105" lon="9.353998274058014"><ele>84.33333333333333</ele><time>2026-04-03T09:09:22.999Z</time></trkpt><trkpt lat="39.55592069801517" lon="9.353867609492475"><ele>85.0</ele><time>2026-04-03T09:09:23.999Z</time></trkpt><trkpt lat="39.55602897814647" lon="9.353687007074164"><ele>85.0</ele><time>2026-04-03T09:09:24.999Z</time></trkpt><trkpt lat="39.55611513177207" lon="9.353476728840457"><ele>85.0</ele><time>2026-04-03T09:09:25.999Z</time></trkpt><trkpt lat="39.55620400518936" lon="9.353264500029841"><ele>85.0</ele><time>2026-04-03T09:09:26.999Z</time></trkpt><trkpt lat="39.556323287928144" lon="9.353084373985961"><ele>86.0</ele><time>2026-04-03T09:09:27.999Z</time></trkpt><trkpt lat="39.55643879568672" lon="9.352892656262343"><ele>87.0</ele><time>2026-04-03T09:09:28.999Z</time></trkpt><trkpt lat="39.55657872919502" lon="9.35274397413243"><ele>88.0</ele><time>2026-04-03T09:09:29.999Z</time></trkpt><trkpt lat="39.55673160066607" lon="9.352624846324913"><ele>88.0</ele><time>2026-04-03T09:09:30.999Z</time></trkpt><trkpt lat="39.55688985444465" lon="9.352528177915689"><ele>88.0</ele><time>2026-04-03T09:09:31.999Z</time></trkpt><trkpt lat="39.557049874282626" lon="9.352434971040582"><ele>88.0</ele><time>2026-04-03T09:09:32.999Z</time></trkpt><trkpt lat="39.55720922974926" lon="9.35233735846841"><ele>88.0</ele><time>2026-04-03T09:09:33.999Z</time></trkpt><trkpt lat="39.55736946414194" lon="9.352231901098973"><ele>88.0</ele><time>2026-04-03T09:09:35Z</time></trkpt><trkpt lat="39.557531236928696" lon="9.352124155316911"><ele>88.0</ele><time>2026-04-03T09:09:36Z</time></trkpt><trkpt lat="39.55769585356016" lon="9.352016081065702"><ele>88.0</ele><time>2026-04-03T09:09:37Z</time></trkpt><trkpt lat="39.55786048988841" lon="9.351903490578263"><ele>88.0</ele><time>2026-04-03T09:09:38Z</time></trkpt><trkpt lat="39.55802861738303" lon="9.351791035660419"><ele>88.0</ele><time>2026-04-03T09:09:39Z</time></trkpt><trkpt lat="39.55819687272724" lon="9.351678559477033"><ele>88.33333333333333</ele><time>2026-04-03T09:09:40Z</time></trkpt><trkpt lat="39.55836693576959" lon="9.351567229816213"><ele>88.66666666666667</ele><time>2026-04-03T09:09:41Z</time></trkpt><trkpt lat="39.55853836100513" lon="9.351455895519631"><ele>89.0</ele><time>2026-04-03T09:09:42Z</time></trkpt><trkpt lat="39.55871008057981" lon="9.351343465780214"><ele>89.33333333333334</ele><time>2026-04-03T09:09:43Z</time></trkpt><trkpt lat="39.55888264742853" lon="9.351230506593595"><ele>89.66666666666667</ele><time>2026-04-03T09:09:44Z</time></trkpt><trkpt lat="39.55905420166955" lon="9.351118805772224"><ele>90.0</ele><time>2026-04-03T09:09:45Z</time></trkpt><trkpt lat="39.55922802248172" lon="9.351010292830587"><ele>90.0</ele><time>2026-04-03T09:09:46Z</time></trkpt><trkpt lat="39.55940117028571" lon="9.350898636762649"><ele>90.0</ele><time>2026-04-03T09:09:47Z</time></trkpt><trkpt lat="39.55957314007542" lon="9.350784497215255"><ele>90.0</ele><time>2026-04-03T09:09:48Z</time></trkpt><trkpt lat="39.55974401044691" lon="9.35066891272399"><ele>89.66666666666667</ele><time>2026-04-03T09:09:49Z</time></trkpt><trkpt lat="39.559916294855135" lon="9.350555716901283"><ele>89.33333333333334</ele><time>2026-04-03T09:09:50Z</time></trkpt><trkpt lat="39.560087830840764" lon="9.350441328194549"><ele>89.0</ele><time>2026-04-03T09:09:51Z</time></trkpt><trkpt lat="39.56026085151308" lon="9.350329159820173"><ele>89.0</ele><time>2026-04-03T09:09:52Z</time></trkpt><trkpt lat="39.56043528408874" lon="9.350216040585181"><ele>89.0</ele><time>2026-04-03T09:09:53Z</time></trkpt><trkpt lat="39.56060982745342" lon="9.35010291751314"><ele>89.0</ele><time>2026-04-03T09:09:54Z</time></trkpt><trkpt lat="39.560783696698" lon="9.349995905170205"><ele>89.0</ele><time>2026-04-03T09:09:55Z</time></trkpt><trkpt lat="39.56096368437847" lon="9.34991386938437"><ele>89.0</ele><time>2026-04-03T09:09:56Z</time></trkpt><trkpt lat="39.5611501334555" lon="9.349872744673926"><ele>89.0</ele><time>2026-04-03T09:09:57Z</time></trkpt><trkpt lat="39.56134104612873" lon="9.349871251057525"><ele>89.0</ele><time>2026-04-03T09:09:58Z</time></trkpt><trkpt lat="39.56153176027099" lon="9.349888582921833"><ele>89.0</ele><time>2026-04-03T09:09:59Z</time></trkpt><trkpt lat="39.56172291499302" lon="9.349903415912415"><ele>89.0</ele><time>2026-04-03T09:10:00Z</time></trkpt><trkpt lat="39.5619159223804" lon="9.349910302358905"><ele>90.33333333333334</ele><time>2026-04-03T09:10:01Z</time></trkpt><trkpt lat="39.56210853803201" lon="9.34991424367685"><ele>91.66666666666667</ele><time>2026-04-03T09:10:02Z</time></trkpt><trkpt lat="39.56230104902249" lon="9.349917910206647"><ele>93.0</ele><time>2026-04-03T09:10:03Z</time></trkpt><trkpt lat="39.562492379422125" lon="9.349925081707115"><ele>93.0</ele><time>2026-04-03T09:10:04Z</time></trkpt><trkpt lat="39.56268502720426" lon="9.349930676646869"><ele>93.0</ele><time>2026-04-03T09:10:05Z</time></trkpt><trkpt lat="39.56287492243734" lon="9.349933649742146"><ele>93.0</ele><time>2026-04-03T09:10:06Z</time></trkpt><trkpt lat="39.56306415216053" lon="9.349940799197825"><ele>93.66666666666667</ele><time>2026-04-03T09:10:07Z</time></trkpt><trkpt lat="39.563252491581004" lon="9.349950364508683"><ele>94.33333333333334</ele><time>2026-04-03T09:10:08Z</time></trkpt><trkpt lat="39.56344095016147" lon="9.349959187073338"><ele>95.0</ele><time>2026-04-03T09:10:09Z</time></trkpt><trkpt lat="39.563630333166394" lon="9.349967446749098"><ele>95.66666666666667</ele><time>2026-04-03T09:10:10Z</time></trkpt><trkpt lat="39.5638210037903" lon="9.349973990339699"><ele>96.33333333333334</ele><time>2026-04-03T09:10:11Z</time></trkpt><trkpt lat="39.564009858851875" lon="9.349978761977214"><ele>97.0</ele><time>2026-04-03T09:10:12Z</time></trkpt><trkpt lat="39.56420029118886" lon="9.349984355810179"><ele>97.0</ele><time>2026-04-03T09:10:13Z</time></trkpt><trkpt lat="39.56439105859571" lon="9.34999221337681"><ele>97.0</ele><time>2026-04-03T09:10:14Z</time></trkpt><trkpt lat="39.5645806874916" lon="9.349999118099506"><ele>97.0</ele><time>2026-04-03T09:10:15Z</time></trkpt><trkpt lat="39.56476937227593" lon="9.35000634450386"><ele>97.66666666666667</ele><time>2026-04-03T09:10:16Z</time></trkpt><trkpt lat="39.564957399351364" lon="9.350012324810134"><ele>98.33333333333334</ele><time>2026-04-03T09:10:17Z</time></trkpt><trkpt lat="39.56514498482649" lon="9.350016394309128"><ele>99.0</ele><time>2026-04-03T09:10:18Z</time></trkpt><trkpt lat="39.565334186246965" lon="9.35001892186585"><ele>100.33333333333334</ele><time>2026-04-03T09:10:19Z</time></trkpt><trkpt lat="39.56552305862983" lon="9.350026054340697"><ele>101.66666666666667</ele><time>2026-04-03T09:10:20Z</time></trkpt><trkpt lat="39.56571087905412" lon="9.350031853668778"><ele>103.0</ele><time>2026-04-03T09:10:21Z</time></trkpt><trkpt lat="39.56589838005193" lon="9.350036666582081"><ele>103.0</ele><time>2026-04-03T09:10:22Z</time></trkpt><trkpt lat="39.56608538860679" lon="9.350034770374759"><ele>103.0</ele><time>2026-04-03T09:10:23Z</time></trkpt><trkpt lat="39.56627249920352" lon="9.350009865920782"><ele>103.0</ele><time>2026-04-03T09:10:24Z</time></trkpt><trkpt lat="39.566457606243205" lon="9.349955625472594"><ele>104.0</ele><time>2026-04-03T09:10:25Z</time></trkpt><trkpt lat="39.56663610099231" lon="9.349874009084301"><ele>105.0</ele><time>2026-04-03T09:10:26Z</time></trkpt><trkpt lat="39.56680997953839" lon="9.349783477217729"><ele>106.0</ele><time>2026-04-03T09:10:27Z</time></trkpt><trkpt lat="39.56698820414511" lon="9.349698403473907"><ele>107.0</ele><time>2026-04-03T09:10:28Z</time></trkpt><trkpt lat="39.56716837761132" lon="9.349618995212932"><ele>108.0</ele><time>2026-04-03T09:10:29Z</time></trkpt><trkpt lat="39.567348644584854" lon="9.349540389726405"><ele>109.0</ele><time>2026-04-03T09:10:30Z</time></trkpt><trkpt lat="39.567525884387535" lon="9.349451838588607"><ele>109.0</ele><time>2026-04-03T09:10:31Z</time></trkpt><trkpt lat="39.56770018348122" lon="9.349357648315285"><ele>109.0</ele><time>2026-04-03T09:10:32Z</time></trkpt><trkpt lat="39.567872614778885" lon="9.34926094228243"><ele>109.0</ele><time>2026-04-03T09:10:33Z</time></trkpt><trkpt lat="39.56804052049241" lon="9.349159883659695"><ele>111.66666666666667</ele><time>2026-04-03T09:10:34Z</time></trkpt><trkpt lat="39.568205501564925" lon="9.349055334740456"><ele>114.33333333333334</ele><time>2026-04-03T09:10:35Z</time></trkpt><trkpt lat="39.568373463927934" lon="9.348957132260699"><ele>117.0</ele><time>2026-04-03T09:10:36Z</time></trkpt><trkpt lat="39.568545413543966" lon="9.348874567633702"><ele>119.0</ele><time>2026-04-03T09:10:37Z</time></trkpt><trkpt lat="39.56872394452858" lon="9.34881582412057"><ele>121.0</ele><time>2026-04-03T09:10:38Z</time></trkpt><trkpt lat="39.56890741753956" lon="9.34878271471944"><ele>123.0</ele><time>2026-04-03T09:10:39Z</time></trkpt><trkpt lat="39.56909361720961" lon="9.348766069052541"><ele>123.0</ele><time>2026-04-03T09:10:40Z</time></trkpt><trkpt lat="39.56927936349776" lon="9.348762039542914"><ele>123.0</ele><time>2026-04-03T09:10:41Z</time></trkpt><trkpt lat="39.569464229383" lon="9.348772241071678"><ele>123.0</ele><time>2026-04-03T09:10:42Z</time></trkpt><trkpt lat="39.56964732459717" lon="9.348793634274367"><ele>124.33333333333334</ele><time>2026-04-03T09:10:43Z</time></trkpt><trkpt lat="39.56982871909357" lon="9.348829094814072"><ele>125.66666666666667</ele><time>2026-04-03T09:10:44Z</time></trkpt><trkpt lat="39.5700100940036" lon="9.348874643965917"><ele>127.0</ele><time>2026-04-03T09:10:45Z</time></trkpt><trkpt lat="39.57019254021801" lon="9.3489275661704"><ele>128.66666666666669</ele><time>2026-04-03T09:10:46Z</time></trkpt><trkpt lat="39.570373689103334" lon="9.348979389671236"><ele>130.33333333333334</ele><time>2026-04-03T09:10:47Z</time></trkpt><trkpt lat="39.57055560958948" lon="9.349025160565258"><ele>132.0</ele><time>2026-04-03T09:10:48Z</time></trkpt><trkpt lat="39.570736505302655" lon="9.349078171529625"><ele>132.0</ele><time>2026-04-03T09:10:49Z</time></trkpt><trkpt lat="39.570917097600294" lon="9.349132310801883"><ele>132.0</ele><time>2026-04-03T09:10:50Z</time></trkpt><trkpt lat="39.57109684189803" lon="9.349185043600908"><ele>132.0</ele><time>2026-04-03T09:10:51Z</time></trkpt><trkpt lat="39.57127635623602" lon="9.349240544972304"><ele>133.0</ele><time>2026-04-03T09:10:52Z</time></trkpt><trkpt lat="39.57145340212812" lon="9.349302759855599"><ele>134.0</ele><time>2026-04-03T09:10:53Z</time></trkpt><trkpt lat="39.57162773224025" lon="9.349371887712326"><ele>135.0</ele><time>2026-04-03T09:10:54Z</time></trkpt><trkpt lat="39.57179870262037" lon="9.349447970966619"><ele>135.0</ele><time>2026-04-03T09:10:55Z</time></trkpt><trkpt lat="39.5719699233494" lon="9.349524977903874"><ele>135.0</ele><time>2026-04-03T09:10:56Z</time></trkpt><trkpt lat="39.57214227846489" lon="9.349594935058859"><ele>135.0</ele><time>2026-04-03T09:10:57Z</time></trkpt><trkpt lat="39.572307928020095" lon="9.349671024921733"><ele>139.33333333333334</ele><time>2026-04-03T09:10:58Z</time></trkpt><trkpt lat="39.57247147277523" lon="9.349761942123383"><ele>143.66666666666669</ele><time>2026-04-03T09:10:59Z</time></trkpt><trkpt lat="39.572625796512064" lon="9.349890720417005"><ele>148.0</ele><time>2026-04-03T09:11:00Z</time></trkpt><trkpt lat="39.572775632685975" lon="9.350028501663388"><ele>148.33333333333334</ele><time>2026-04-03T09:11:01Z</time></trkpt><trkpt lat="39.57291459679777" lon="9.350185686416635"><ele>148.66666666666666</ele><time>2026-04-03T09:11:02Z</time></trkpt><trkpt lat="39.57303173580422" lon="9.350364916917984"><ele>149.0</ele><time>2026-04-03T09:11:03Z</time></trkpt><trkpt lat="39.573121716923694" lon="9.350571433387124"><ele>150.66666666666666</ele><time>2026-04-03T09:11:04Z</time></trkpt><trkpt lat="39.57318495413691" lon="9.350792909548186"><ele>152.33333333333334</ele><time>2026-04-03T09:11:05Z</time></trkpt><trkpt lat="39.573227893890284" lon="9.351020979884574"><ele>154.0</ele><time>2026-04-03T09:11:06Z</time></trkpt><trkpt lat="39.573271559691555" lon="9.351249418525152"><ele>156.66666666666669</ele><time>2026-04-03T09:11:07Z</time></trkpt><trkpt lat="39.57332929015929" lon="9.351472174947737"><ele>159.33333333333334</ele><time>2026-04-03T09:11:08Z</time></trkpt><trkpt lat="39.57341362402699" lon="9.351681166449918"><ele>162.0</ele><time>2026-04-03T09:11:09Z</time></trkpt><trkpt lat="39.573521865289585" lon="9.351873965975946"><ele>162.0</ele><time>2026-04-03T09:11:10Z</time></trkpt><trkpt lat="39.57364624463775" lon="9.352050382347757"><ele>162.0</ele><time>2026-04-03T09:11:11Z</time></trkpt><trkpt lat="39.57377551575053" lon="9.352226381117543"><ele>162.0</ele><time>2026-04-03T09:11:12Z</time></trkpt><trkpt lat="39.573903739160976" lon="9.352401030743042"><ele>163.0</ele><time>2026-04-03T09:11:13Z</time></trkpt><trkpt lat="39.574035671787755" lon="9.352574044002127"><ele>164.0</ele><time>2026-04-03T09:11:14Z</time></trkpt><trkpt lat="39.574167320276615" lon="9.35274741489387"><ele>165.0</ele><time>2026-04-03T09:11:15Z</time></trkpt><trkpt lat="39.5743011848872" lon="9.35292958335754"><ele>165.33333333333334</ele><time>2026-04-03T09:11:16Z</time></trkpt><trkpt lat="39.574461043862264" lon="9.353107254418488"><ele>165.66666666666669</ele><time>2026-04-03T09:11:17Z</time></trkpt><trkpt lat="39.574617741259736" lon="9.353276406672304"><ele>166.0</ele><time>2026-04-03T09:11:18Z</time></trkpt><trkpt lat="39.574780864071386" lon="9.353441022360334"><ele>166.0</ele><time>2026-04-03T09:11:19Z</time></trkpt><trkpt lat="39.574958979967164" lon="9.353574155174565"><ele>166.0</ele><time>2026-04-03T09:11:20Z</time></trkpt><trkpt lat="39.575138215714944" lon="9.353698879494894"><ele>166.0</ele><time>2026-04-03T09:11:21Z</time></trkpt><trkpt lat="39.57531559190281" lon="9.353822808872057"><ele>168.33333333333334</ele><time>2026-04-03T09:11:22Z</time></trkpt><trkpt lat="39.575495282627855" lon="9.353934661977743"><ele>170.66666666666666</ele><time>2026-04-03T09:11:23Z</time></trkpt><trkpt lat="39.57568028915997" lon="9.35402836637269"><ele>173.0</ele><time>2026-04-03T09:11:24Z</time></trkpt><trkpt lat="39.57586981693382" lon="9.35409342379414"><ele>173.0</ele><time>2026-04-03T09:11:25Z</time></trkpt><trkpt lat="39.57606583326117" lon="9.354123981336318"><ele>173.0</ele><time>2026-04-03T09:11:26Z</time></trkpt><trkpt lat="39.57626573541914" lon="9.354133318519802"><ele>173.0</ele><time>2026-04-03T09:11:27Z</time></trkpt><trkpt lat="39.5764680751809" lon="9.354132077078575"><ele>175.33333333333331</ele><time>2026-04-03T09:11:28Z</time></trkpt><trkpt lat="39.57666905321723" lon="9.354129464274365"><ele>177.66666666666666</ele><time>2026-04-03T09:11:29Z</time></trkpt><trkpt lat="39.57687260051131" lon="9.354128380721038"><ele>180.0</ele><time>2026-04-03T09:11:30Z</time></trkpt><trkpt lat="39.577076451230894" lon="9.354127181662333"><ele>181.66666666666666</ele><time>2026-04-03T09:11:31Z</time></trkpt><trkpt lat="39.57728170030362" lon="9.35413043526648"><ele>183.33333333333331</ele><time>2026-04-03T09:11:32Z</time></trkpt><trkpt lat="39.57748816482772" lon="9.354135555282811"><ele>185.0</ele><time>2026-04-03T09:11:33Z</time></trkpt><trkpt lat="39.57769442816931" lon="9.354139863680958"><ele>186.0</ele><time>2026-04-03T09:11:34Z</time></trkpt><trkpt lat="39.577904108581606" lon="9.354143115003499"><ele>187.0</ele><time>2026-04-03T09:11:35Z</time></trkpt><trkpt lat="39.57811354421334" lon="9.354146465337058"><ele>188.0</ele><time>2026-04-03T09:11:36Z</time></trkpt><trkpt lat="39.57832281808934" lon="9.354153397866874"><ele>188.0</ele><time>2026-04-03T09:11:37Z</time></trkpt><trkpt lat="39.578530715804966" lon="9.354168282384583"><ele>188.0</ele><time>2026-04-03T09:11:38Z</time></trkpt><trkpt lat="39.57873847382797" lon="9.354170983383627"><ele>188.0</ele><time>2026-04-03T09:11:39Z</time></trkpt><trkpt lat="39.57894644980295" lon="9.354142643982808"><ele>189.33333333333331</ele><time>2026-04-03T09:11:40Z</time></trkpt><trkpt lat="39.57914555133907" lon="9.354101594229922"><ele>190.66666666666666</ele><time>2026-04-03T09:11:41Z</time></trkpt><trkpt lat="39.57935328686821" lon="9.354053155119049"><ele>192.0</ele><time>2026-04-03T09:11:42Z</time></trkpt><trkpt lat="39.579559152863" lon="9.35400237864226"><ele>193.33333333333331</ele><time>2026-04-03T09:11:43Z</time></trkpt><trkpt lat="39.57975922096598" lon="9.353953833305713"><ele>194.66666666666666</ele><time>2026-04-03T09:11:44Z</time></trkpt><trkpt lat="39.57995550797589" lon="9.353923555516646"><ele>196.0</ele><time>2026-04-03T09:11:45Z</time></trkpt><trkpt lat="39.580151738719984" lon="9.353935250823818"><ele>196.0</ele><time>2026-04-03T09:11:46Z</time></trkpt><trkpt lat="39.580342542646726" lon="9.354003274646026"><ele>196.0</ele><time>2026-04-03T09:11:47Z</time></trkpt><trkpt lat="39.580530494640364" lon="9.354095091626684"><ele>196.0</ele><time>2026-04-03T09:11:48Z</time></trkpt><trkpt lat="39.58068837375297" lon="9.354215486533967"><ele>197.66666666666666</ele><time>2026-04-03T09:11:49Z</time></trkpt><trkpt lat="39.5808054102154" lon="9.354366887495692"><ele>199.33333333333331</ele><time>2026-04-03T09:11:50Z</time></trkpt><trkpt lat="39.58088144509105" lon="9.354547156151101"><ele>201.0</ele><time>2026-04-03T09:11:51Z</time></trkpt><trkpt lat="39.58093472146412" lon="9.354764664537774"><ele>202.33333333333331</ele><time>2026-04-03T09:11:52Z</time></trkpt><trkpt lat="39.580968558393366" lon="9.35500451051317"><ele>203.66666666666666</ele><time>2026-04-03T09:11:53Z</time></trkpt><trkpt lat="39.58099398909247" lon="9.355244330210994"><ele>205.0</ele><time>2026-04-03T09:11:54Z</time></trkpt><trkpt lat="39.58102429913727" lon="9.35549380427308"><ele>203.33333333333331</ele><time>2026-04-03T09:11:55Z</time></trkpt><trkpt lat="39.581061747600344" lon="9.355754105252139"><ele>201.66666666666669</ele><time>2026-04-03T09:11:56Z</time></trkpt><trkpt lat="39.58109838017702" lon="9.356014550794644"><ele>200.0</ele><time>2026-04-03T09:11:57Z</time></trkpt><trkpt lat="39.581125278606315" lon="9.356270462755365"><ele>200.33333333333334</ele><time>2026-04-03T09:11:58Z</time></trkpt><trkpt lat="39.5811484602283" lon="9.356527616236967"><ele>200.66666666666669</ele><time>2026-04-03T09:11:59Z</time></trkpt><trkpt lat="39.581158549298735" lon="9.356780728784118"><ele>201.0</ele><time>2026-04-03T09:12:00Z</time></trkpt><trkpt lat="39.58115641743327" lon="9.357012158384082"><ele>205.0</ele><time>2026-04-03T09:12:01Z</time></trkpt><trkpt lat="39.58112412090291" lon="9.357246539283675"><ele>209.0</ele><time>2026-04-03T09:12:02Z</time></trkpt><trkpt lat="39.581066935829405" lon="9.357473385786541"><ele>213.0</ele><time>2026-04-03T09:12:03Z</time></trkpt><trkpt lat="39.580978116647515" lon="9.357678736218533"><ele>213.0</ele><time>2026-04-03T09:12:04Z</time></trkpt><trkpt lat="39.580860752869114" lon="9.357858679375951"><ele>213.0</ele><time>2026-04-03T09:12:05Z</time></trkpt><trkpt lat="39.58073701742697" lon="9.358036953542232"><ele>213.0</ele><time>2026-04-03T09:12:06Z</time></trkpt><trkpt lat="39.58062218478412" lon="9.358232183092019"><ele>217.0</ele><time>2026-04-03T09:12:07Z</time></trkpt><trkpt lat="39.58052346508201" lon="9.358442776684212"><ele>221.0</ele><time>2026-04-03T09:12:08Z</time></trkpt><trkpt lat="39.5804486038975" lon="9.358666018327742"><ele>225.0</ele><time>2026-04-03T09:12:09Z</time></trkpt><trkpt lat="39.580412236351705" lon="9.358895337216847"><ele>226.0</ele><time>2026-04-03T09:12:10Z</time></trkpt><trkpt lat="39.58042153003202" lon="9.359114956139749"><ele>227.0</ele><time>2026-04-03T09:12:11Z</time></trkpt><trkpt lat="39.58047225065215" lon="9.359326207324703"><ele>228.0</ele><time>2026-04-03T09:12:12Z</time></trkpt><trkpt lat="39.58054405787961" lon="9.35952689062364"><ele>225.0</ele><time>2026-04-03T09:12:13Z</time></trkpt><trkpt lat="39.58062381610811" lon="9.359723570538607"><ele>222.0</ele><time>2026-04-03T09:12:14Z</time></trkpt><trkpt lat="39.58070538175891" lon="9.359912392059655"><ele>219.0</ele><time>2026-04-03T09:12:15Z</time></trkpt><trkpt lat="39.580805258832925" lon="9.360072709092186"><ele>219.0</ele><time>2026-04-03T09:12:16Z</time></trkpt><trkpt lat="39.58093371424969" lon="9.360189313499959"><ele>219.0</ele><time>2026-04-03T09:12:17Z</time></trkpt><trkpt lat="39.581082874239584" lon="9.360257885301543"><ele>219.0</ele><time>2026-04-03T09:12:18Z</time></trkpt><trkpt lat="39.58124485001461" lon="9.360294200701036"><ele>225.0</ele><time>2026-04-03T09:12:19Z</time></trkpt><trkpt lat="39.58140803204871" lon="9.360326664262862"><ele>231.0</ele><time>2026-04-03T09:12:20Z</time></trkpt><trkpt lat="39.581575773743246" lon="9.360340256369673"><ele>237.0</ele><time>2026-04-03T09:12:21Z</time></trkpt><trkpt lat="39.581746862498974" lon="9.360318036844395"><ele>237.0</ele><time>2026-04-03T09:12:22Z</time></trkpt><trkpt lat="39.58191129191826" lon="9.360249971776945"><ele>237.0</ele><time>2026-04-03T09:12:23Z</time></trkpt><trkpt lat="39.58205865217634" lon="9.360140750448126"><ele>237.0</ele><time>2026-04-03T09:12:24Z</time></trkpt><trkpt lat="39.58218455667394" lon="9.35998957669519"><ele>242.66666666666669</ele><time>2026-04-03T09:12:25Z</time></trkpt><trkpt lat="39.582290280706005" lon="9.359807268005392"><ele>248.33333333333334</ele><time>2026-04-03T09:12:26Z</time></trkpt><trkpt lat="39.58238969548608" lon="9.359596139434034"><ele>254.0</ele><time>2026-04-03T09:12:27Z</time></trkpt><trkpt lat="39.58251406469328" lon="9.359407051167834"><ele>254.0</ele><time>2026-04-03T09:12:28Z</time></trkpt><trkpt lat="39.58264378394274" lon="9.35922629138048"><ele>254.0</ele><time>2026-04-03T09:12:29Z</time></trkpt><trkpt lat="39.582782217660494" lon="9.359055528781498"><ele>254.0</ele><time>2026-04-03T09:12:30Z</time></trkpt><trkpt lat="39.58291360245269" lon="9.358876761593999"><ele>253.33333333333334</ele><time>2026-04-03T09:12:31Z</time></trkpt><trkpt lat="39.583062238916426" lon="9.358716145141264"><ele>252.66666666666669</ele><time>2026-04-03T09:12:32Z</time></trkpt><trkpt lat="39.583210015259674" lon="9.35855444892816"><ele>252.0</ele><time>2026-04-03T09:12:33Z</time></trkpt><trkpt lat="39.58335459200493" lon="9.358388871012068"><ele>252.0</ele><time>2026-04-03T09:12:34Z</time></trkpt><trkpt lat="39.58349758970297" lon="9.35822844890544"><ele>252.0</ele><time>2026-04-03T09:12:35Z</time></trkpt><trkpt lat="39.58363027623872" lon="9.358083959436584"><ele>252.0</ele><time>2026-04-03T09:12:36Z</time></trkpt><trkpt lat="39.58375245730853" lon="9.357956017682156"><ele>250.5</ele><time>2026-04-03T09:12:37Z</time></trkpt><trkpt lat="39.58387397221785" lon="9.357856698696999"><ele>249.0</ele><time>2026-04-03T09:12:38Z</time></trkpt><trkpt lat="39.58401257311858" lon="9.357825414401296"><ele>247.5</ele><time>2026-04-03T09:12:39Z</time></trkpt><trkpt lat="39.58415442707944" lon="9.35777880036852"><ele>246.0</ele><time>2026-04-03T09:12:40Z</time></trkpt><trkpt lat="39.584305167928875" lon="9.357762244552779"><ele>246.0</ele><time>2026-04-03T09:12:41Z</time></trkpt><trkpt lat="39.584444226867845" lon="9.35773336080393"><ele>246.0</ele><time>2026-04-03T09:12:42Z</time></trkpt><trkpt lat="39.584595312375725" lon="9.35769399317684"><ele>246.0</ele><time>2026-04-03T09:12:43Z</time></trkpt><trkpt lat="39.58474945921638" lon="9.35765374412585"><ele>250.66666666666669</ele><time>2026-04-03T09:12:44Z</time></trkpt><trkpt lat="39.584906643634284" lon="9.357616789192651"><ele>255.33333333333334</ele><time>2026-04-03T09:12:45Z</time></trkpt><trkpt lat="39.58506477727155" lon="9.357583168730578"><ele>260.0</ele><time>2026-04-03T09:12:46Z</time></trkpt><trkpt lat="39.585225543243006" lon="9.357553337650131"><ele>263.6666666666667</ele><time>2026-04-03T09:12:47Z</time></trkpt><trkpt lat="39.58538799926902" lon="9.35751959369705"><ele>267.3333333333333</ele><time>2026-04-03T09:12:48Z</time></trkpt><trkpt lat="39.585548957167866" lon="9.357478274151063"><ele>271.0</ele><time>2026-04-03T09:12:49Z</time></trkpt><trkpt lat="39.58586871147602" lon="9.357378254606482"><ele>271.0</ele><time>2026-04-03T09:12:51Z</time></trkpt><trkpt lat="39.58603553883437" lon="9.357306583295507"><ele>271.0</ele><time>2026-04-03T09:12:52Z</time></trkpt><trkpt lat="39.58620351032322" lon="9.35722964630145"><ele>271.0</ele><time>2026-04-03T09:12:53Z</time></trkpt><trkpt lat="39.58636328320749" lon="9.357163425536925"><ele>271.5</ele><time>2026-04-03T09:12:54Z</time></trkpt><trkpt lat="39.58650584841045" lon="9.357099980918482"><ele>272.0</ele><time>2026-04-03T09:12:55Z</time></trkpt><trkpt lat="39.58663156782492" lon="9.357006747657085"><ele>272.5</ele><time>2026-04-03T09:12:56Z</time></trkpt><trkpt lat="39.58673436516935" lon="9.356865428142502"><ele>273.0</ele><time>2026-04-03T09:12:57Z</time></trkpt><trkpt lat="39.58681105036919" lon="9.356671386433623"><ele>273.0</ele><time>2026-04-03T09:12:58Z</time></trkpt><trkpt lat="39.58687924223712" lon="9.356454750601475"><ele>273.0</ele><time>2026-04-03T09:12:59Z</time></trkpt><trkpt lat="39.58694440955475" lon="9.356229211322614"><ele>273.0</ele><time>2026-04-03T09:13:00Z</time></trkpt><trkpt lat="39.587002547890556" lon="9.35602222484106"><ele>275.5</ele><time>2026-04-03T09:13:01Z</time></trkpt><trkpt lat="39.587087935233356" lon="9.35585372940825"><ele>278.0</ele><time>2026-04-03T09:13:02Z</time></trkpt><trkpt lat="39.58719547074081" lon="9.355738940708127"><ele>280.5</ele><time>2026-04-03T09:13:03Z</time></trkpt><trkpt lat="39.58732556743209" lon="9.355721825400009"><ele>283.0</ele><time>2026-04-03T09:13:04Z</time></trkpt><trkpt lat="39.58745711405128" lon="9.355737477110933"><ele>283.0</ele><time>2026-04-03T09:13:05Z</time></trkpt><trkpt lat="39.58760710199883" lon="9.355752429312497"><ele>283.0</ele><time>2026-04-03T09:13:06Z</time></trkpt><trkpt lat="39.587758635743384" lon="9.355785101993076"><ele>283.0</ele><time>2026-04-03T09:13:07Z</time></trkpt><trkpt lat="39.58790194670533" lon="9.355769878628996"><ele>283.0</ele><time>2026-04-03T09:13:08Z</time></trkpt><trkpt lat="39.58803888641677" lon="9.355688432911313"><ele>282.66666666666663</ele><time>2026-04-03T09:13:09Z</time></trkpt><trkpt lat="39.58815187920227" lon="9.35553463752617"><ele>282.3333333333333</ele><time>2026-04-03T09:13:10Z</time></trkpt><trkpt lat="39.58825444064045" lon="9.35535377838598"><ele>282.0</ele><time>2026-04-03T09:13:11Z</time></trkpt><trkpt lat="39.58836130604573" lon="9.355182571559359"><ele>282.0</ele><time>2026-04-03T09:13:12Z</time></trkpt><trkpt lat="39.58846926208747" lon="9.355014220156699"><ele>282.0</ele><time>2026-04-03T09:13:13Z</time></trkpt><trkpt lat="39.588579362069744" lon="9.354854619975333"><ele>282.0</ele><time>2026-04-03T09:13:14Z</time></trkpt><trkpt lat="39.58869083527871" lon="9.354716103354498"><ele>280.3333333333333</ele><time>2026-04-03T09:13:15Z</time></trkpt><trkpt lat="39.588817366435" lon="9.354603802723712"><ele>278.66666666666663</ele><time>2026-04-03T09:13:16Z</time></trkpt><trkpt lat="39.58896447702566" lon="9.35454494977017"><ele>277.0</ele><time>2026-04-03T09:13:17Z</time></trkpt><trkpt lat="39.5891165727036" lon="9.354544829008038"><ele>277.0</ele><time>2026-04-03T09:13:18Z</time></trkpt><trkpt lat="39.5892659617755" lon="9.354579684280285"><ele>277.0</ele><time>2026-04-03T09:13:19Z</time></trkpt><trkpt lat="39.58941679240049" lon="9.354605921142038"><ele>277.0</ele><time>2026-04-03T09:13:20Z</time></trkpt><trkpt lat="39.58956954760982" lon="9.354601711654116"><ele>284.0</ele><time>2026-04-03T09:13:21Z</time></trkpt><trkpt lat="39.58971425327904" lon="9.35454094285377"><ele>291.0</ele><time>2026-04-03T09:13:22Z</time></trkpt><trkpt lat="39.589833163955184" lon="9.35441780912604"><ele>298.0</ele><time>2026-04-03T09:13:23Z</time></trkpt><trkpt lat="39.58991148936625" lon="9.354248618395053"><ele>298.0</ele><time>2026-04-03T09:13:24Z</time></trkpt><trkpt lat="39.58994617013206" lon="9.354049207849021"><ele>298.0</ele><time>2026-04-03T09:13:25Z</time></trkpt><trkpt lat="39.58996220682548" lon="9.353842122056628"><ele>298.0</ele><time>2026-04-03T09:13:26Z</time></trkpt><trkpt lat="39.58998824074715" lon="9.353640613733868"><ele>295.66666666666663</ele><time>2026-04-03T09:13:27Z</time></trkpt><trkpt lat="39.59003761136059" lon="9.353447715557445"><ele>293.3333333333333</ele><time>2026-04-03T09:13:28Z</time></trkpt><trkpt lat="39.59011717645967" lon="9.353278234076862"><ele>291.0</ele><time>2026-04-03T09:13:29Z</time></trkpt><trkpt lat="39.590248572665836" lon="9.353172702421428"><ele>295.6666666666667</ele><time>2026-04-03T09:13:30Z</time></trkpt><trkpt lat="39.590364517022266" lon="9.35303531394937"><ele>300.33333333333337</ele><time>2026-04-03T09:13:31Z</time></trkpt><trkpt lat="39.59049723362043" lon="9.352918358918917"><ele>305.0</ele><time>2026-04-03T09:13:32Z</time></trkpt><trkpt lat="39.5906272908303" lon="9.352790355431345"><ele>305.0</ele><time>2026-04-03T09:13:33Z</time></trkpt><trkpt lat="39.59075872185484" lon="9.352656023152958"><ele>305.0</ele><time>2026-04-03T09:13:34Z</time></trkpt><trkpt lat="39.59088769274339" lon="9.352524807927626"><ele>305.0</ele><time>2026-04-03T09:13:35Z</time></trkpt><trkpt lat="39.59100711650453" lon="9.352403172344417"><ele>305.0</ele><time>2026-04-03T09:13:36Z</time></trkpt><trkpt lat="39.59110887152422" lon="9.352265785504537"><ele>305.0</ele><time>2026-04-03T09:13:37Z</time></trkpt><trkpt lat="39.59117863376968" lon="9.352087846588134"><ele>305.0</ele><time>2026-04-03T09:13:38Z</time></trkpt><trkpt lat="39.59121902328446" lon="9.351889159683152"><ele>302.33333333333337</ele><time>2026-04-03T09:13:39Z</time></trkpt><trkpt lat="39.59126493114184" lon="9.35169786903262"><ele>299.6666666666667</ele><time>2026-04-03T09:13:40Z</time></trkpt><trkpt lat="39.59136865194155" lon="9.351557224881248"><ele>297.0</ele><time>2026-04-03T09:13:41Z</time></trkpt><trkpt lat="39.59148328121023" lon="9.351420151410371"><ele>305.0</ele><time>2026-04-03T09:13:42Z</time></trkpt><trkpt lat="39.59163568699786" lon="9.351352201469005"><ele>313.0</ele><time>2026-04-03T09:13:43Z</time></trkpt><trkpt lat="39.591801052870224" lon="9.35133715037481"><ele>321.0</ele><time>2026-04-03T09:13:44Z</time></trkpt><trkpt lat="39.59196885428606" lon="9.351352168541407"><ele>318.6666666666667</ele><time>2026-04-03T09:13:45Z</time></trkpt><trkpt lat="39.59213273805865" lon="9.351369061116463"><ele>316.33333333333337</ele><time>2026-04-03T09:13:46Z</time></trkpt><trkpt lat="39.59230335675581" lon="9.351371602907994"><ele>314.0</ele><time>2026-04-03T09:13:46.999Z</time></trkpt><trkpt lat="39.5924768719336" lon="9.351373169391794"><ele>314.0</ele><time>2026-04-03T09:13:47.999Z</time></trkpt><trkpt lat="39.59264972380168" lon="9.351371151197593"><ele>314.0</ele><time>2026-04-03T09:13:48.999Z</time></trkpt><trkpt lat="39.592827250868474" lon="9.351338494802068"><ele>314.0</ele><time>2026-04-03T09:13:49.999Z</time></trkpt><trkpt lat="39.593002674551066" lon="9.351277112474428"><ele>310.33333333333337</ele><time>2026-04-03T09:13:50.999Z</time></trkpt><trkpt lat="39.59317703057186" lon="9.351205448350484"><ele>306.6666666666667</ele><time>2026-04-03T09:13:51.999Z</time></trkpt><trkpt lat="39.5933488888644" lon="9.351134840619569"><ele>303.0</ele><time>2026-04-03T09:13:52.999Z</time></trkpt><trkpt lat="39.593512293149985" lon="9.351064818349197"><ele>303.0</ele><time>2026-04-03T09:13:53.999Z</time></trkpt><trkpt lat="39.59366845543962" lon="9.350996119883899"><ele>303.0</ele><time>2026-04-03T09:13:54.999Z</time></trkpt><trkpt lat="39.59381887808218" lon="9.350924092497083"><ele>303.0</ele><time>2026-04-03T09:13:55.999Z</time></trkpt><trkpt lat="39.59396362958627" lon="9.350839977311624"><ele>299.0</ele><time>2026-04-03T09:13:56.999Z</time></trkpt><trkpt lat="39.59411210350827" lon="9.350762571219962"><ele>295.0</ele><time>2026-04-03T09:13:57.999Z</time></trkpt><trkpt lat="39.59425349313591" lon="9.350669630045939"><ele>291.0</ele><time>2026-04-03T09:13:58.999Z</time></trkpt><trkpt lat="39.594394423706255" lon="9.350585860840798"><ele>291.0</ele><time>2026-04-03T09:14:00Z</time></trkpt><trkpt lat="39.59453650274511" lon="9.350525260301831"><ele>291.0</ele><time>2026-04-03T09:14:01Z</time></trkpt><trkpt lat="39.59467711203459" lon="9.350547091763515"><ele>291.0</ele><time>2026-04-03T09:14:02Z</time></trkpt><trkpt lat="39.59480428920683" lon="9.350609111168568"><ele>291.0</ele><time>2026-04-03T09:14:03Z</time></trkpt><trkpt lat="39.59490479525377" lon="9.350727897717144"><ele>291.0</ele><time>2026-04-03T09:14:04Z</time></trkpt><trkpt lat="39.59499750490746" lon="9.350881382008838"><ele>291.0</ele><time>2026-04-03T09:14:05Z</time></trkpt><trkpt lat="39.59505587165328" lon="9.35105468184477"><ele>291.0</ele><time>2026-04-03T09:14:06Z</time></trkpt><trkpt lat="39.59512284600748" lon="9.35123115215823"><ele>291.0</ele><time>2026-04-03T09:14:07Z</time></trkpt><trkpt lat="39.59520864733052" lon="9.351404987093884"><ele>290.6666666666667</ele><time>2026-04-03T09:14:08Z</time></trkpt><trkpt lat="39.59531938461096" lon="9.351559955796105"><ele>290.33333333333337</ele><time>2026-04-03T09:14:09Z</time></trkpt><trkpt lat="39.5954445972069" lon="9.351704672366747"><ele>290.0</ele><time>2026-04-03T09:14:10Z</time></trkpt><trkpt lat="39.59559759698685" lon="9.351836358518877"><ele>290.0</ele><time>2026-04-03T09:14:11Z</time></trkpt><trkpt lat="39.59578101660849" lon="9.351939919681584"><ele>290.0</ele><time>2026-04-03T09:14:12Z</time></trkpt><trkpt lat="39.595979336854235" lon="9.352012538532271"><ele>290.0</ele><time>2026-04-03T09:14:13Z</time></trkpt><trkpt lat="39.596183661001355" lon="9.352069741267268"><ele>292.33333333333337</ele><time>2026-04-03T09:14:14Z</time></trkpt><trkpt lat="39.59637402430809" lon="9.352114485722105"><ele>294.6666666666667</ele><time>2026-04-03T09:14:15Z</time></trkpt><trkpt lat="39.596554747980434" lon="9.352158698573765"><ele>297.0</ele><time>2026-04-03T09:14:16Z</time></trkpt><trkpt lat="39.596726259392106" lon="9.352202441871372"><ele>291.3333333333333</ele><time>2026-04-03T09:14:17Z</time></trkpt><trkpt lat="39.59690451581266" lon="9.352248182578835"><ele>285.66666666666663</ele><time>2026-04-03T09:14:18Z</time></trkpt><trkpt lat="39.59704366327929" lon="9.35228388792084"><ele>280.0</ele><time>2026-04-03T09:14:19Z</time></trkpt><trkpt lat="39.5971758584156" lon="9.352317809274611"><ele>280.0</ele><time>2026-04-03T09:14:20Z</time></trkpt><trkpt lat="39.59734018091569" lon="9.352359974053023"><ele>280.0</ele><time>2026-04-03T09:14:21Z</time></trkpt><trkpt lat="39.597512423998914" lon="9.352404171029146"><ele>280.0</ele><time>2026-04-03T09:14:22Z</time></trkpt><trkpt lat="39.59768709132717" lon="9.352448990058702"><ele>283.0</ele><time>2026-04-03T09:14:23Z</time></trkpt><trkpt lat="39.59786391323487" lon="9.352477121459122"><ele>286.0</ele><time>2026-04-03T09:14:24Z</time></trkpt><trkpt lat="39.598025045415355" lon="9.352557826179812"><ele>289.0</ele><time>2026-04-03T09:14:25Z</time></trkpt><trkpt lat="39.59818122808037" lon="9.352635026982979"><ele>289.0</ele><time>2026-04-03T09:14:26Z</time></trkpt><trkpt lat="39.598340511113875" lon="9.35269923181942"><ele>289.0</ele><time>2026-04-03T09:14:27Z</time></trkpt><trkpt lat="39.59849424833928" lon="9.352756140403566"><ele>289.0</ele><time>2026-04-03T09:14:28Z</time></trkpt><trkpt lat="39.598642501727554" lon="9.352801987914093"><ele>289.25</ele><time>2026-04-03T09:14:29Z</time></trkpt><trkpt lat="39.59878850591701" lon="9.352833312736697"><ele>289.5</ele><time>2026-04-03T09:14:30Z</time></trkpt><trkpt lat="39.59892853347113" lon="9.352865811403849"><ele>289.75</ele><time>2026-04-03T09:14:31Z</time></trkpt><trkpt lat="39.59906637629071" lon="9.35289857366306"><ele>290.0</ele><time>2026-04-03T09:14:32Z</time></trkpt><trkpt lat="39.59920057384999" lon="9.352938344591848"><ele>290.0</ele><time>2026-04-03T09:14:33Z</time></trkpt><trkpt lat="39.59932037475103" lon="9.353005411181654"><ele>290.0</ele><time>2026-04-03T09:14:34Z</time></trkpt><trkpt lat="39.59941605740807" lon="9.353118792982805"><ele>290.0</ele><time>2026-04-03T09:14:35Z</time></trkpt><trkpt lat="39.59948104932556" lon="9.353273532023026"><ele>290.0</ele><time>2026-04-03T09:14:36Z</time></trkpt><trkpt lat="39.59950417310847" lon="9.353466386611986"><ele>285.5</ele><time>2026-04-03T09:14:37Z</time></trkpt><trkpt lat="39.59947925225731" lon="9.353657411073234"><ele>281.0</ele><time>2026-04-03T09:14:38Z</time></trkpt><trkpt lat="39.59943369643411" lon="9.353846554444123"><ele>276.5</ele><time>2026-04-03T09:14:39Z</time></trkpt><trkpt lat="39.59939675249466" lon="9.354023023870653"><ele>272.0</ele><time>2026-04-03T09:14:40Z</time></trkpt><trkpt lat="39.599355976950854" lon="9.354208500084448"><ele>270.33333333333337</ele><time>2026-04-03T09:14:41Z</time></trkpt><trkpt lat="39.59929984718678" lon="9.354403202847305"><ele>268.6666666666667</ele><time>2026-04-03T09:14:42Z</time></trkpt><trkpt lat="39.59921920170249" lon="9.354579598338722"><ele>267.0</ele><time>2026-04-03T09:14:43Z</time></trkpt><trkpt lat="39.59913748884505" lon="9.354748408423916"><ele>267.0</ele><time>2026-04-03T09:14:44Z</time></trkpt><trkpt lat="39.59908485715618" lon="9.354935636167355"><ele>267.0</ele><time>2026-04-03T09:14:45Z</time></trkpt><trkpt lat="39.59906817678679" lon="9.355139799656143"><ele>267.0</ele><time>2026-04-03T09:14:46Z</time></trkpt><trkpt lat="39.59908641304134" lon="9.355361874004895"><ele>265.6666666666667</ele><time>2026-04-03T09:14:47Z</time></trkpt><trkpt lat="39.5991019831001" lon="9.355571203124603"><ele>264.33333333333337</ele><time>2026-04-03T09:14:48Z</time></trkpt><trkpt lat="39.59912076657022" lon="9.355772022333383"><ele>263.0</ele><time>2026-04-03T09:14:49Z</time></trkpt><trkpt lat="39.599147570524295" lon="9.355965336413972"><ele>263.0</ele><time>2026-04-03T09:14:50Z</time></trkpt><trkpt lat="39.599211561791435" lon="9.356143895461598"><ele>263.0</ele><time>2026-04-03T09:14:51Z</time></trkpt><trkpt lat="39.599320322132094" lon="9.356300759444226"><ele>263.0</ele><time>2026-04-03T09:14:52Z</time></trkpt><trkpt lat="39.59944575086081" lon="9.356444505774817"><ele>262.6666666666667</ele><time>2026-04-03T09:14:53Z</time></trkpt><trkpt lat="39.599574916738085" lon="9.356594540068356"><ele>262.3333333333333</ele><time>2026-04-03T09:14:54Z</time></trkpt><trkpt lat="39.599699078561535" lon="9.356741566379881"><ele>262.0</ele><time>2026-04-03T09:14:55Z</time></trkpt><trkpt lat="39.5998242470953" lon="9.356876559474472"><ele>262.0</ele><time>2026-04-03T09:14:56Z</time></trkpt><trkpt lat="39.599956350473015" lon="9.356991950653727"><ele>262.0</ele><time>2026-04-03T09:14:57Z</time></trkpt><trkpt lat="39.60009437150421" lon="9.357074613240517"><ele>262.0</ele><time>2026-04-03T09:14:58Z</time></trkpt><trkpt lat="39.600241960636296" lon="9.357111360917914"><ele>259.0</ele><time>2026-04-03T09:14:59Z</time></trkpt><trkpt lat="39.600398288728265" lon="9.35711161290805"><ele>256.0</ele><time>2026-04-03T09:15:00Z</time></trkpt><trkpt lat="39.60055203872416" lon="9.3570802572117"><ele>253.0</ele><time>2026-04-03T09:15:01Z</time></trkpt><trkpt lat="39.60070341535477" lon="9.35701831154933"><ele>253.0</ele><time>2026-04-03T09:15:02Z</time></trkpt><trkpt lat="39.60085240154097" lon="9.356926370067178"><ele>253.0</ele><time>2026-04-03T09:15:03Z</time></trkpt><trkpt lat="39.600986274669836" lon="9.356800480253476"><ele>253.0</ele><time>2026-04-03T09:15:04Z</time></trkpt><trkpt lat="39.60110353937857" lon="9.35664269541468"><ele>248.0</ele><time>2026-04-03T09:15:05Z</time></trkpt><trkpt lat="39.60120028848573" lon="9.356452991996003"><ele>243.0</ele><time>2026-04-03T09:15:06Z</time></trkpt><trkpt lat="39.60129204563446" lon="9.35624468938607"><ele>238.0</ele><time>2026-04-03T09:15:07Z</time></trkpt><trkpt lat="39.601386459134694" lon="9.356043423904108"><ele>238.0</ele><time>2026-04-03T09:15:08Z</time></trkpt><trkpt lat="39.60148555532538" lon="9.355836530326266"><ele>238.0</ele><time>2026-04-03T09:15:09Z</time></trkpt><trkpt lat="39.60158739527734" lon="9.355632290327298"><ele>238.0</ele><time>2026-04-03T09:15:10Z</time></trkpt><trkpt lat="39.601687975156246" lon="9.355428670408363"><ele>240.33333333333331</ele><time>2026-04-03T09:15:11Z</time></trkpt><trkpt lat="39.601778908448765" lon="9.355229763852549"><ele>242.66666666666669</ele><time>2026-04-03T09:15:12Z</time></trkpt><trkpt lat="39.6018549529538" lon="9.35502325928251"><ele>245.0</ele><time>2026-04-03T09:15:13Z</time></trkpt><trkpt lat="39.60191943798976" lon="9.354809379663477"><ele>245.66666666666669</ele><time>2026-04-03T09:15:14Z</time></trkpt><trkpt lat="39.60198284800006" lon="9.354584410199493"><ele>246.33333333333331</ele><time>2026-04-03T09:15:15Z</time></trkpt><trkpt lat="39.6020509581474" lon="9.354353509948966"><ele>247.0</ele><time>2026-04-03T09:15:16Z</time></trkpt><trkpt lat="39.60211367225197" lon="9.354118295616443"><ele>239.33333333333331</ele><time>2026-04-03T09:15:17Z</time></trkpt><trkpt lat="39.60216129150455" lon="9.353883187440992"><ele>231.66666666666669</ele><time>2026-04-03T09:15:18Z</time></trkpt><trkpt lat="39.602197835054035" lon="9.353647405483205"><ele>224.0</ele><time>2026-04-03T09:15:19Z</time></trkpt><trkpt lat="39.60223401407075" lon="9.353411890379613"><ele>224.0</ele><time>2026-04-03T09:15:20Z</time></trkpt><trkpt lat="39.60227672212964" lon="9.353183729116223"><ele>224.0</ele><time>2026-04-03T09:15:21Z</time></trkpt><trkpt lat="39.602334100722" lon="9.352967914767751"><ele>224.0</ele><time>2026-04-03T09:15:22Z</time></trkpt><trkpt lat="39.60241704477669" lon="9.352775483592968"><ele>224.33333333333334</ele><time>2026-04-03T09:15:23Z</time></trkpt><trkpt lat="39.602533691608166" lon="9.352613990659963"><ele>224.66666666666669</ele><time>2026-04-03T09:15:24Z</time></trkpt><trkpt lat="39.60267137109604" lon="9.352487418763445"><ele>225.0</ele><time>2026-04-03T09:15:25Z</time></trkpt><trkpt lat="39.60282911169787" lon="9.352395537243709"><ele>221.33333333333331</ele><time>2026-04-03T09:15:26Z</time></trkpt><trkpt lat="39.60300105708436" lon="9.35232290128942"><ele>217.66666666666666</ele><time>2026-04-03T09:15:27Z</time></trkpt><trkpt lat="39.60317553804345" lon="9.352248978909731"><ele>214.0</ele><time>2026-04-03T09:15:28Z</time></trkpt><trkpt lat="39.60334491241386" lon="9.35216768619037"><ele>213.66666666666666</ele><time>2026-04-03T09:15:29Z</time></trkpt><trkpt lat="39.60351985255166" lon="9.352082842616644"><ele>213.33333333333331</ele><time>2026-04-03T09:15:30Z</time></trkpt><trkpt lat="39.60370187306192" lon="9.351998230253518"><ele>213.0</ele><time>2026-04-03T09:15:31Z</time></trkpt><trkpt lat="39.60388508626255" lon="9.351909642972613"><ele>211.66666666666669</ele><time>2026-04-03T09:15:32Z</time></trkpt><trkpt lat="39.60407339082802" lon="9.351818201711797"><ele>210.33333333333334</ele><time>2026-04-03T09:15:33Z</time></trkpt><trkpt lat="39.60426031741993" lon="9.351724682262372"><ele>209.0</ele><time>2026-04-03T09:15:34Z</time></trkpt><trkpt lat="39.60444555031547" lon="9.351629207695277"><ele>208.33333333333334</ele><time>2026-04-03T09:15:35Z</time></trkpt><trkpt lat="39.604634548827384" lon="9.351536710786025"><ele>207.66666666666669</ele><time>2026-04-03T09:15:36Z</time></trkpt><trkpt lat="39.60482393605209" lon="9.351444109166353"><ele>207.0</ele><time>2026-04-03T09:15:37Z</time></trkpt><trkpt lat="39.60501201627992" lon="9.351354750237213"><ele>206.66666666666669</ele><time>2026-04-03T09:15:38Z</time></trkpt><trkpt lat="39.60519900611936" lon="9.35126782688055"><ele>206.33333333333334</ele><time>2026-04-03T09:15:39Z</time></trkpt><trkpt lat="39.60538386692656" lon="9.351181041859611"><ele>206.0</ele><time>2026-04-03T09:15:40Z</time></trkpt><trkpt lat="39.605567312382405" lon="9.351091191859798"><ele>204.66666666666669</ele><time>2026-04-03T09:15:41Z</time></trkpt><trkpt lat="39.605749883782835" lon="9.35100285677403"><ele>203.33333333333331</ele><time>2026-04-03T09:15:42Z</time></trkpt><trkpt lat="39.6059340148658" lon="9.350916329456883"><ele>202.0</ele><time>2026-04-03T09:15:43Z</time></trkpt><trkpt lat="39.60611838726134" lon="9.350828304018503"><ele>202.0</ele><time>2026-04-03T09:15:44Z</time></trkpt><trkpt lat="39.60630270893295" lon="9.350741231749373"><ele>202.0</ele><time>2026-04-03T09:15:45Z</time></trkpt><trkpt lat="39.606485852742644" lon="9.350650551157845"><ele>202.0</ele><time>2026-04-03T09:15:46Z</time></trkpt><trkpt lat="39.606670233052476" lon="9.350561864732533"><ele>202.66666666666666</ele><time>2026-04-03T09:15:47Z</time></trkpt><trkpt lat="39.60685489056991" lon="9.35047203576531"><ele>203.33333333333331</ele><time>2026-04-03T09:15:48Z</time></trkpt><trkpt lat="39.60703809586874" lon="9.350383132967764"><ele>204.0</ele><time>2026-04-03T09:15:49Z</time></trkpt><trkpt lat="39.607217771833184" lon="9.350292299508434"><ele>204.0</ele><time>2026-04-03T09:15:50Z</time></trkpt><trkpt lat="39.60739530219024" lon="9.350197522107196"><ele>204.0</ele><time>2026-04-03T09:15:51Z</time></trkpt><trkpt lat="39.607565735890084" lon="9.350093208722306"><ele>204.0</ele><time>2026-04-03T09:15:52Z</time></trkpt><trkpt lat="39.607730831251516" lon="9.349975122199966"><ele>204.0</ele><time>2026-04-03T09:15:53Z</time></trkpt><trkpt lat="39.60789045897247" lon="9.349844054540235"><ele>204.0</ele><time>2026-04-03T09:15:54Z</time></trkpt><trkpt lat="39.608045146546694" lon="9.349699345307817"><ele>204.0</ele><time>2026-04-03T09:15:55Z</time></trkpt><trkpt lat="39.60820001801381" lon="9.349550227500673"><ele>204.66666666666669</ele><time>2026-04-03T09:15:56Z</time></trkpt><trkpt lat="39.60835702779683" lon="9.349401106189665"><ele>205.33333333333334</ele><time>2026-04-03T09:15:57Z</time></trkpt><trkpt lat="39.60851492139061" lon="9.349251369457646"><ele>206.0</ele><time>2026-04-03T09:15:58Z</time></trkpt><trkpt lat="39.60867441367604" lon="9.349099400068853"><ele>206.0</ele><time>2026-04-03T09:15:59Z</time></trkpt><trkpt lat="39.608833010328645" lon="9.348949027466164"><ele>206.0</ele><time>2026-04-03T09:16:00Z</time></trkpt><trkpt lat="39.608988664174746" lon="9.348796803011291"><ele>206.0</ele><time>2026-04-03T09:16:01Z</time></trkpt><trkpt lat="39.6091437072174" lon="9.348646549919023"><ele>206.66666666666669</ele><time>2026-04-03T09:16:02Z</time></trkpt><trkpt lat="39.60929520797806" lon="9.348494098899067"><ele>207.33333333333331</ele><time>2026-04-03T09:16:03Z</time></trkpt><trkpt lat="39.60943583914216" lon="9.348324959828714"><ele>208.0</ele><time>2026-04-03T09:16:04Z</time></trkpt><trkpt lat="39.60955402126739" lon="9.348130562619792"><ele>208.33333333333331</ele><time>2026-04-03T09:16:05Z</time></trkpt><trkpt lat="39.60964087935307" lon="9.347908199294931"><ele>208.66666666666669</ele><time>2026-04-03T09:16:06Z</time></trkpt><trkpt lat="39.609693992848555" lon="9.34766824393995"><ele>209.0</ele><time>2026-04-03T09:16:07Z</time></trkpt><trkpt lat="39.609729240272756" lon="9.347420516901687"><ele>209.0</ele><time>2026-04-03T09:16:08Z</time></trkpt><trkpt lat="39.60976707888543" lon="9.347175826817566"><ele>209.0</ele><time>2026-04-03T09:16:09Z</time></trkpt><trkpt lat="39.609815258085604" lon="9.346944888243346"><ele>209.0</ele><time>2026-04-03T09:16:10Z</time></trkpt><trkpt lat="39.60988361202505" lon="9.34674153114055"><ele>209.0</ele><time>2026-04-03T09:16:11Z</time></trkpt><trkpt lat="39.60999145143819" lon="9.346571779990304"><ele>209.0</ele><time>2026-04-03T09:16:12Z</time></trkpt><trkpt lat="39.61013057475564" lon="9.34645117011592"><ele>209.0</ele><time>2026-04-03T09:16:13Z</time></trkpt><trkpt lat="39.610287837011064" lon="9.346357140281583"><ele>211.0</ele><time>2026-04-03T09:16:14Z</time></trkpt><trkpt lat="39.61044607588327" lon="9.346256921072628"><ele>213.0</ele><time>2026-04-03T09:16:15Z</time></trkpt><trkpt lat="39.61060833558143" lon="9.346141390501307"><ele>215.0</ele><time>2026-04-03T09:16:16Z</time></trkpt><trkpt lat="39.61077607480518" lon="9.346020888145413"><ele>215.0</ele><time>2026-04-03T09:16:17Z</time></trkpt><trkpt lat="39.61094117924747" lon="9.345893652273494"><ele>215.0</ele><time>2026-04-03T09:16:18Z</time></trkpt><trkpt lat="39.61110594619732" lon="9.345753335478042"><ele>215.0</ele><time>2026-04-03T09:16:19Z</time></trkpt><trkpt lat="39.61126449505885" lon="9.345603702233609"><ele>215.66666666666669</ele><time>2026-04-03T09:16:20Z</time></trkpt><trkpt lat="39.61141927797754" lon="9.345444799393297"><ele>216.33333333333331</ele><time>2026-04-03T09:16:21Z</time></trkpt><trkpt lat="39.61156990216945" lon="9.345282600837415"><ele>217.0</ele><time>2026-04-03T09:16:22Z</time></trkpt><trkpt lat="39.61172359979432" lon="9.345125995143215"><ele>217.0</ele><time>2026-04-03T09:16:23Z</time></trkpt><trkpt lat="39.61187766714923" lon="9.344963697186943"><ele>217.0</ele><time>2026-04-03T09:16:24Z</time></trkpt><trkpt lat="39.612035364589005" lon="9.344798207032936"><ele>217.0</ele><time>2026-04-03T09:16:25Z</time></trkpt><trkpt lat="39.612194827801794" lon="9.344634093484881"><ele>216.33333333333331</ele><time>2026-04-03T09:16:26Z</time></trkpt><trkpt lat="39.61235386699586" lon="9.344471509390653"><ele>215.66666666666669</ele><time>2026-04-03T09:16:27Z</time></trkpt><trkpt lat="39.61251607676917" lon="9.344309720242558"><ele>215.0</ele><time>2026-04-03T09:16:28Z</time></trkpt><trkpt lat="39.612678664752345" lon="9.344150206901595"><ele>216.0</ele><time>2026-04-03T09:16:29Z</time></trkpt><trkpt lat="39.61284331214014" lon="9.34399094569181"><ele>217.0</ele><time>2026-04-03T09:16:30Z</time></trkpt><trkpt lat="39.61300572023364" lon="9.343836234226996"><ele>218.0</ele><time>2026-04-03T09:16:31Z</time></trkpt><trkpt lat="39.61316526533315" lon="9.343678431735967"><ele>218.0</ele><time>2026-04-03T09:16:32Z</time></trkpt><trkpt lat="39.61331993585673" lon="9.343514669172912"><ele>218.0</ele><time>2026-04-03T09:16:33Z</time></trkpt><trkpt lat="39.61347457702542" lon="9.343348014694747"><ele>218.0</ele><time>2026-04-03T09:16:34Z</time></trkpt><trkpt lat="39.613636101978265" lon="9.343185058599982"><ele>220.0</ele><time>2026-04-03T09:16:35Z</time></trkpt><trkpt lat="39.61380014685845" lon="9.343019566253918"><ele>222.0</ele><time>2026-04-03T09:16:36Z</time></trkpt><trkpt lat="39.61396995977995" lon="9.342846648997144"><ele>224.0</ele><time>2026-04-03T09:16:37Z</time></trkpt><trkpt lat="39.61414300468391" lon="9.342665475096943"><ele>224.0</ele><time>2026-04-03T09:16:38Z</time></trkpt><trkpt lat="39.614309619703185" lon="9.342489016522615"><ele>224.0</ele><time>2026-04-03T09:16:39Z</time></trkpt><trkpt lat="39.61446716881807" lon="9.342303690293475"><ele>224.0</ele><time>2026-04-03T09:16:40Z</time></trkpt><trkpt lat="39.614607762535805" lon="9.342104151772197"><ele>224.33333333333334</ele><time>2026-04-03T09:16:41Z</time></trkpt><trkpt lat="39.61472789803845" lon="9.34188378823335"><ele>224.66666666666669</ele><time>2026-04-03T09:16:42Z</time></trkpt><trkpt lat="39.61484046339145" lon="9.34164840470205"><ele>225.0</ele><time>2026-04-03T09:16:43Z</time></trkpt><trkpt lat="39.61495278530264" lon="9.341408968543565"><ele>228.0</ele><time>2026-04-03T09:16:44Z</time></trkpt><trkpt lat="39.615065394636844" lon="9.341174193682962"><ele>231.0</ele><time>2026-04-03T09:16:45Z</time></trkpt><trkpt lat="39.61517906785895" lon="9.340952888091481"><ele>234.0</ele><time>2026-04-03T09:16:46Z</time></trkpt><trkpt lat="39.61528809033834" lon="9.340735707061189"><ele>235.66666666666669</ele><time>2026-04-03T09:16:47Z</time></trkpt><trkpt lat="39.61539328861934" lon="9.340523447225776"><ele>237.33333333333334</ele><time>2026-04-03T09:16:48Z</time></trkpt><trkpt lat="39.61549911469502" lon="9.340314350608036"><ele>239.0</ele><time>2026-04-03T09:16:49Z</time></trkpt><trkpt lat="39.615608419415985" lon="9.340107414081455"><ele>239.0</ele><time>2026-04-03T09:16:50Z</time></trkpt><trkpt lat="39.61572184429588" lon="9.339904441912074"><ele>239.0</ele><time>2026-04-03T09:16:51Z</time></trkpt><trkpt lat="39.61583677207943" lon="9.339700349905508"><ele>239.0</ele><time>2026-04-03T09:16:52Z</time></trkpt><trkpt lat="39.61595299769687" lon="9.339496372825254"><ele>241.33333333333334</ele><time>2026-04-03T09:16:53Z</time></trkpt><trkpt lat="39.61606955437694" lon="9.339293454300112"><ele>243.66666666666669</ele><time>2026-04-03T09:16:54Z</time></trkpt><trkpt lat="39.61618443483171" lon="9.339091156716472"><ele>246.0</ele><time>2026-04-03T09:16:55Z</time></trkpt><trkpt lat="39.61630229365176" lon="9.338885906081734"><ele>249.0</ele><time>2026-04-03T09:16:56Z</time></trkpt><trkpt lat="39.616421979422775" lon="9.338677759257497"><ele>252.0</ele><time>2026-04-03T09:16:57Z</time></trkpt><trkpt lat="39.61654023077501" lon="9.338459228090727"><ele>255.0</ele><time>2026-04-03T09:16:58Z</time></trkpt><trkpt lat="39.61664936385192" lon="9.338229666273302"><ele>261.0</ele><time>2026-04-03T09:16:59Z</time></trkpt><trkpt lat="39.616745371756885" lon="9.338000197600712"><ele>267.0</ele><time>2026-04-03T09:17:00Z</time></trkpt><trkpt lat="39.61683449429617" lon="9.337773754162596"><ele>273.0</ele><time>2026-04-03T09:17:01Z</time></trkpt><trkpt lat="39.61692000394795" lon="9.337549960317517"><ele>272.6666666666667</ele><time>2026-04-03T09:17:02Z</time></trkpt><trkpt lat="39.61701049311525" lon="9.337330858932443"><ele>272.33333333333337</ele><time>2026-04-03T09:17:03Z</time></trkpt><trkpt lat="39.61710539728776" lon="9.33711091392245"><ele>272.0</ele><time>2026-04-03T09:17:04Z</time></trkpt><trkpt lat="39.61719924147729" lon="9.336889213256235"><ele>272.0</ele><time>2026-04-03T09:17:05Z</time></trkpt><trkpt lat="39.617286748122396" lon="9.336666448773487"><ele>272.0</ele><time>2026-04-03T09:17:06Z</time></trkpt><trkpt lat="39.617376997913574" lon="9.33645293527414"><ele>272.0</ele><time>2026-04-03T09:17:07Z</time></trkpt><trkpt lat="39.61748197345541" lon="9.336268586499965"><ele>274.0</ele><time>2026-04-03T09:17:08Z</time></trkpt><trkpt lat="39.6176153257822" lon="9.336125519427751"><ele>276.0</ele><time>2026-04-03T09:17:09Z</time></trkpt><trkpt lat="39.61777117984879" lon="9.33602713228241"><ele>278.0</ele><time>2026-04-03T09:17:10Z</time></trkpt><trkpt lat="39.61794254249283" lon="9.33598240131821"><ele>278.0</ele><time>2026-04-03T09:17:11Z</time></trkpt><trkpt lat="39.61810722023815" lon="9.335980590366436"><ele>278.0</ele><time>2026-04-03T09:17:12Z</time></trkpt><trkpt lat="39.61825833107937" lon="9.335987758880602"><ele>278.0</ele><time>2026-04-03T09:17:13Z</time></trkpt><trkpt lat="39.618417137676694" lon="9.335991930247474"><ele>278.0</ele><time>2026-04-03T09:17:14Z</time></trkpt><trkpt lat="39.61859233132002" lon="9.336013059297535"><ele>278.0</ele><time>2026-04-03T09:17:15Z</time></trkpt><trkpt lat="39.61878137914613" lon="9.336056175277658"><ele>278.0</ele><time>2026-04-03T09:17:16Z</time></trkpt><trkpt lat="39.6189788778601" lon="9.33611123424233"><ele>278.0</ele><time>2026-04-03T09:17:17Z</time></trkpt><trkpt lat="39.61916457584948" lon="9.336159516111202"><ele>278.0</ele><time>2026-04-03T09:17:18Z</time></trkpt><trkpt lat="39.61934308592999" lon="9.336202461385296"><ele>278.0</ele><time>2026-04-03T09:17:19Z</time></trkpt><trkpt lat="39.61950787521092" lon="9.336264119061651"><ele>278.6666666666667</ele><time>2026-04-03T09:17:20Z</time></trkpt><trkpt lat="39.61965985883659" lon="9.336368146657321"><ele>279.3333333333333</ele><time>2026-04-03T09:17:21Z</time></trkpt><trkpt lat="39.6197796652044" lon="9.336510824070242"><ele>280.0</ele><time>2026-04-03T09:17:22Z</time></trkpt><trkpt lat="39.61987098766716" lon="9.33669224900839"><ele>278.0</ele><time>2026-04-03T09:17:23Z</time></trkpt><trkpt lat="39.61994478499488" lon="9.336904765304647"><ele>276.0</ele><time>2026-04-03T09:17:24Z</time></trkpt><trkpt lat="39.62001319582837" lon="9.337122221328851"><ele>274.0</ele><time>2026-04-03T09:17:25Z</time></trkpt><trkpt lat="39.62008118246615" lon="9.337341498887891"><ele>273.66666666666663</ele><time>2026-04-03T09:17:26Z</time></trkpt><trkpt lat="39.620143832670436" lon="9.337573975876902"><ele>273.3333333333333</ele><time>2026-04-03T09:17:27Z</time></trkpt><trkpt lat="39.62018133628374" lon="9.33782575887457"><ele>273.0</ele><time>2026-04-03T09:17:28Z</time></trkpt><trkpt lat="39.62018604926225" lon="9.338086713442177"><ele>269.6666666666667</ele><time>2026-04-03T09:17:29Z</time></trkpt><trkpt lat="39.62017472181633" lon="9.338348370230491"><ele>266.33333333333337</ele><time>2026-04-03T09:17:30Z</time></trkpt><trkpt lat="39.62019076073046" lon="9.338610170873777"><ele>263.0</ele><time>2026-04-03T09:17:31Z</time></trkpt><trkpt lat="39.62020066541385" lon="9.338869731418383"><ele>260.33333333333337</ele><time>2026-04-03T09:17:32Z</time></trkpt><trkpt lat="39.62020397413271" lon="9.339134738041484"><ele>257.6666666666667</ele><time>2026-04-03T09:17:33Z</time></trkpt><trkpt lat="39.62020846289558" lon="9.339401533195977"><ele>255.0</ele><time>2026-04-03T09:17:34Z</time></trkpt><trkpt lat="39.62022577127871" lon="9.33965431972509"><ele>255.33333333333331</ele><time>2026-04-03T09:17:35Z</time></trkpt><trkpt lat="39.62026266919675" lon="9.33988695969963"><ele>255.66666666666666</ele><time>2026-04-03T09:17:36Z</time></trkpt><trkpt lat="39.62032411363695" lon="9.340103071956767"><ele>256.0</ele><time>2026-04-03T09:17:37Z</time></trkpt><trkpt lat="39.620413024549805" lon="9.340299162232318"><ele>257.3333333333333</ele><time>2026-04-03T09:17:38Z</time></trkpt><trkpt lat="39.62053272893895" lon="9.340482787558576"><ele>258.6666666666667</ele><time>2026-04-03T09:17:39Z</time></trkpt><trkpt lat="39.62067514400191" lon="9.34064580366507"><ele>260.0</ele><time>2026-04-03T09:17:40Z</time></trkpt><trkpt lat="39.620817007811986" lon="9.340803171661088"><ele>260.0</ele><time>2026-04-03T09:17:41Z</time></trkpt><trkpt lat="39.62095257580086" lon="9.340963788269015"><ele>260.0</ele><time>2026-04-03T09:17:42Z</time></trkpt><trkpt lat="39.621086717762" lon="9.341130579598564"><ele>260.0</ele><time>2026-04-03T09:17:43Z</time></trkpt><trkpt lat="39.62122632712832" lon="9.341282158531838"><ele>258.33333333333337</ele><time>2026-04-03T09:17:44Z</time></trkpt><trkpt lat="39.62138431470323" lon="9.34139239447342"><ele>256.6666666666667</ele><time>2026-04-03T09:17:45Z</time></trkpt><trkpt lat="39.62156168744372" lon="9.341458860285767"><ele>255.0</ele><time>2026-04-03T09:17:46Z</time></trkpt><trkpt lat="39.621743269922874" lon="9.341521742900907"><ele>255.0</ele><time>2026-04-03T09:17:47Z</time></trkpt><trkpt lat="39.621925243362924" lon="9.34159233322416"><ele>255.0</ele><time>2026-04-03T09:17:48Z</time></trkpt><trkpt lat="39.622104319159405" lon="9.341677502629413"><ele>255.0</ele><time>2026-04-03T09:17:49Z</time></trkpt><trkpt lat="39.62227940832697" lon="9.341780130222446"><ele>255.66666666666669</ele><time>2026-04-03T09:17:50Z</time></trkpt><trkpt lat="39.62245227749111" lon="9.341888039243079"><ele>256.33333333333337</ele><time>2026-04-03T09:17:51Z</time></trkpt><trkpt lat="39.622629568886225" lon="9.34198425063993"><ele>257.0</ele><time>2026-04-03T09:17:52Z</time></trkpt><trkpt lat="39.62281237346709" lon="9.34206789548786"><ele>258.6666666666667</ele><time>2026-04-03T09:17:53Z</time></trkpt><trkpt lat="39.62299920107901" lon="9.342142627034306"><ele>260.3333333333333</ele><time>2026-04-03T09:17:54Z</time></trkpt><trkpt lat="39.6231845544889" lon="9.342218056877762"><ele>262.0</ele><time>2026-04-03T09:17:55Z</time></trkpt><trkpt lat="39.623370942859495" lon="9.34229782735553"><ele>261.0</ele><time>2026-04-03T09:17:56Z</time></trkpt><trkpt lat="39.62355074910424" lon="9.342391226927463"><ele>260.0</ele><time>2026-04-03T09:17:57Z</time></trkpt><trkpt lat="39.6237172969818" lon="9.342512042676363"><ele>259.0</ele><time>2026-04-03T09:17:58Z</time></trkpt><trkpt lat="39.623867646170844" lon="9.342661208353286"><ele>259.0</ele><time>2026-04-03T09:17:59Z</time></trkpt><trkpt lat="39.62400935701749" lon="9.342815821544598"><ele>259.0</ele><time>2026-04-03T09:18:00Z</time></trkpt><trkpt lat="39.62416413089784" lon="9.34295734244478"><ele>259.0</ele><time>2026-04-03T09:18:01Z</time></trkpt><trkpt lat="39.624322363549666" lon="9.343087659002492"><ele>261.0</ele><time>2026-04-03T09:18:02Z</time></trkpt><trkpt lat="39.624479993630786" lon="9.34321672670546"><ele>263.0</ele><time>2026-04-03T09:18:03Z</time></trkpt><trkpt lat="39.624637278021716" lon="9.3433490076673"><ele>265.0</ele><time>2026-04-03T09:18:04Z</time></trkpt><trkpt lat="39.624795705147136" lon="9.343468847159093"><ele>265.0</ele><time>2026-04-03T09:18:05Z</time></trkpt><trkpt lat="39.62495735047294" lon="9.343579389381015"><ele>265.0</ele><time>2026-04-03T09:18:06Z</time></trkpt><trkpt lat="39.625108368466464" lon="9.343685821355667"><ele>265.0</ele><time>2026-04-03T09:18:07Z</time></trkpt><trkpt lat="39.62525701924866" lon="9.343786108893006"><ele>264.3333333333333</ele><time>2026-04-03T09:18:08Z</time></trkpt><trkpt lat="39.6254151840676" lon="9.343878888872144"><ele>263.6666666666667</ele><time>2026-04-03T09:18:09Z</time></trkpt><trkpt lat="39.62558332698949" lon="9.343952085845663"><ele>263.0</ele><time>2026-04-03T09:18:10Z</time></trkpt><trkpt lat="39.62575876848494" lon="9.344008354822076"><ele>263.0</ele><time>2026-04-03T09:18:11Z</time></trkpt><trkpt lat="39.625945874536086" lon="9.344040387257904"><ele>263.0</ele><time>2026-04-03T09:18:12Z</time></trkpt><trkpt lat="39.62613406060671" lon="9.34404985711931"><ele>263.0</ele><time>2026-04-03T09:18:13Z</time></trkpt><trkpt lat="39.62632031982449" lon="9.344020596351957"><ele>265.0</ele><time>2026-04-03T09:18:14Z</time></trkpt><trkpt lat="39.62650215456606" lon="9.343979096674458"><ele>267.0</ele><time>2026-04-03T09:18:15Z</time></trkpt><trkpt lat="39.626683859574385" lon="9.343914011967204"><ele>269.0</ele><time>2026-04-03T09:18:16Z</time></trkpt><trkpt lat="39.62685825569907" lon="9.343823482982636"><ele>271.0</ele><time>2026-04-03T09:18:17Z</time></trkpt><trkpt lat="39.627027022993744" lon="9.343714341283656"><ele>273.0</ele><time>2026-04-03T09:18:18Z</time></trkpt><trkpt lat="39.62718784681342" lon="9.343585839724245"><ele>275.0</ele><time>2026-04-03T09:18:19Z</time></trkpt><trkpt lat="39.627344298925905" lon="9.34343268213991"><ele>275.0</ele><time>2026-04-03T09:18:20Z</time></trkpt><trkpt lat="39.627500377508106" lon="9.343280485405817"><ele>275.0</ele><time>2026-04-03T09:18:21Z</time></trkpt><trkpt lat="39.62765528682161" lon="9.343130033664059"><ele>275.0</ele><time>2026-04-03T09:18:22Z</time></trkpt><trkpt lat="39.62781036819052" lon="9.342977993592225"><ele>276.33333333333337</ele><time>2026-04-03T09:18:23Z</time></trkpt><trkpt lat="39.62796208282622" lon="9.342832340421127"><ele>277.6666666666667</ele><time>2026-04-03T09:18:24Z</time></trkpt><trkpt lat="39.62811344592337" lon="9.342682821213742"><ele>279.0</ele><time>2026-04-03T09:18:25Z</time></trkpt><trkpt lat="39.62826507228724" lon="9.342536665005031"><ele>279.0</ele><time>2026-04-03T09:18:26Z</time></trkpt><trkpt lat="39.62841536837968" lon="9.342391198403087"><ele>279.0</ele><time>2026-04-03T09:18:27Z</time></trkpt><trkpt lat="39.62856585487331" lon="9.342247126574534"><ele>279.0</ele><time>2026-04-03T09:18:28Z</time></trkpt><trkpt lat="39.628714967004576" lon="9.34210694439187"><ele>281.3333333333333</ele><time>2026-04-03T09:18:29Z</time></trkpt><trkpt lat="39.62886432262028" lon="9.341973211111625"><ele>283.66666666666663</ele><time>2026-04-03T09:18:30Z</time></trkpt><trkpt lat="39.62901799206603" lon="9.34185136093293"><ele>286.0</ele><time>2026-04-03T09:18:31Z</time></trkpt><trkpt lat="39.62917912545949" lon="9.341739493922661"><ele>286.0</ele><time>2026-04-03T09:18:32Z</time></trkpt><trkpt lat="39.62935040823733" lon="9.341634536753594"><ele>286.0</ele><time>2026-04-03T09:18:33Z</time></trkpt><trkpt lat="39.62952582902618" lon="9.341545183897548"><ele>286.0</ele><time>2026-04-03T09:18:34Z</time></trkpt><trkpt lat="39.62970529044996" lon="9.341473419581645"><ele>286.3333333333333</ele><time>2026-04-03T09:18:35Z</time></trkpt><trkpt lat="39.62988673948874" lon="9.341423530301643"><ele>286.6666666666667</ele><time>2026-04-03T09:18:36Z</time></trkpt><trkpt lat="39.630070740482694" lon="9.341390334633415"><ele>287.0</ele><time>2026-04-03T09:18:37Z</time></trkpt><trkpt lat="39.63025541164594" lon="9.34136651846243"><ele>289.33333333333337</ele><time>2026-04-03T09:18:38Z</time></trkpt><trkpt lat="39.630441335445155" lon="9.341359045054435"><ele>291.6666666666667</ele><time>2026-04-03T09:18:39Z</time></trkpt><trkpt lat="39.63062777756828" lon="9.341372402601827"><ele>294.0</ele><time>2026-04-03T09:18:40Z</time></trkpt><trkpt lat="39.630817006322175" lon="9.341396474378863"><ele>294.0</ele><time>2026-04-03T09:18:41Z</time></trkpt><trkpt lat="39.63100701515848" lon="9.34143457532706"><ele>294.0</ele><time>2026-04-03T09:18:42Z</time></trkpt><trkpt lat="39.63118938615637" lon="9.341483652151846"><ele>294.0</ele><time>2026-04-03T09:18:43Z</time></trkpt><trkpt lat="39.63136875825165" lon="9.341540043408926"><ele>296.6666666666667</ele><time>2026-04-03T09:18:44Z</time></trkpt><trkpt lat="39.631548581119304" lon="9.341605772424915"><ele>299.33333333333337</ele><time>2026-04-03T09:18:45Z</time></trkpt><trkpt lat="39.63173141209972" lon="9.341684567680016"><ele>302.0</ele><time>2026-04-03T09:18:46Z</time></trkpt><trkpt lat="39.63191761651064" lon="9.341770759010883"><ele>306.0</ele><time>2026-04-03T09:18:47Z</time></trkpt><trkpt lat="39.632102562576236" lon="9.341865411615105"><ele>310.0</ele><time>2026-04-03T09:18:48Z</time></trkpt><trkpt lat="39.63228175279312" lon="9.34197046418569"><ele>314.0</ele><time>2026-04-03T09:18:49Z</time></trkpt><trkpt lat="39.63245510113494" lon="9.34208944537471"><ele>312.0</ele><time>2026-04-03T09:18:50Z</time></trkpt><trkpt lat="39.63262011049079" lon="9.342221513378812"><ele>310.0</ele><time>2026-04-03T09:18:51Z</time></trkpt><trkpt lat="39.63276994724775" lon="9.342370334788692"><ele>308.0</ele><time>2026-04-03T09:18:52Z</time></trkpt><trkpt lat="39.632905305324094" lon="9.342545733301431"><ele>312.6666666666667</ele><time>2026-04-03T09:18:53Z</time></trkpt><trkpt lat="39.63302298604301" lon="9.342746638355337"><ele>317.3333333333333</ele><time>2026-04-03T09:18:54Z</time></trkpt><trkpt lat="39.63312300729906" lon="9.342969576085917"><ele>322.0</ele><time>2026-04-03T09:18:55Z</time></trkpt><trkpt lat="39.63320548604971" lon="9.34319702301421"><ele>322.0</ele><time>2026-04-03T09:18:56Z</time></trkpt><trkpt lat="39.633267359021424" lon="9.343435422396903"><ele>322.0</ele><time>2026-04-03T09:18:57Z</time></trkpt><trkpt lat="39.63331233171045" lon="9.343679411737847"><ele>322.0</ele><time>2026-04-03T09:18:58Z</time></trkpt><trkpt lat="39.6333405130321" lon="9.343925356441767"><ele>324.3333333333333</ele><time>2026-04-03T09:18:59Z</time></trkpt><trkpt lat="39.6333510578108" lon="9.344171742920333"><ele>326.6666666666667</ele><time>2026-04-03T09:19:00Z</time></trkpt><trkpt lat="39.633347735913816" lon="9.344413615175258"><ele>329.0</ele><time>2026-04-03T09:19:01Z</time></trkpt><trkpt lat="39.633329217037975" lon="9.344649496967538"><ele>331.33333333333337</ele><time>2026-04-03T09:19:02Z</time></trkpt><trkpt lat="39.633307167765665" lon="9.344889900958393"><ele>333.6666666666667</ele><time>2026-04-03T09:19:03Z</time></trkpt><trkpt lat="39.63328557814861" lon="9.345137450697825"><ele>336.0</ele><time>2026-04-03T09:19:04Z</time></trkpt><trkpt lat="39.63326746043563" lon="9.345386499273431"><ele>334.6666666666667</ele><time>2026-04-03T09:19:05Z</time></trkpt><trkpt lat="39.633254457013194" lon="9.345638281626654"><ele>333.33333333333337</ele><time>2026-04-03T09:19:06Z</time></trkpt><trkpt lat="39.63324159445453" lon="9.345898081947768"><ele>332.0</ele><time>2026-04-03T09:19:07Z</time></trkpt><trkpt lat="39.63323309217077" lon="9.34615947986705"><ele>332.33333333333337</ele><time>2026-04-03T09:19:08Z</time></trkpt><trkpt lat="39.6332294195258" lon="9.346428661450343"><ele>332.6666666666667</ele><time>2026-04-03T09:19:09Z</time></trkpt><trkpt lat="39.63323083903203" lon="9.346699936095591"><ele>333.0</ele><time>2026-04-03T09:19:10Z</time></trkpt><trkpt lat="39.633242036358375" lon="9.346978430041483"><ele>333.6666666666667</ele><time>2026-04-03T09:19:11Z</time></trkpt><trkpt lat="39.63326589824402" lon="9.347264621103305"><ele>334.33333333333337</ele><time>2026-04-03T09:19:12Z</time></trkpt><trkpt lat="39.63328855392224" lon="9.347548158595046"><ele>335.0</ele><time>2026-04-03T09:19:13Z</time></trkpt><trkpt lat="39.6333101346691" lon="9.347829462285485"><ele>335.0</ele><time>2026-04-03T09:19:14Z</time></trkpt><trkpt lat="39.63332860278107" lon="9.348112187405627"><ele>335.0</ele><time>2026-04-03T09:19:15Z</time></trkpt><trkpt lat="39.63334450341891" lon="9.348394105087822"><ele>335.0</ele><time>2026-04-03T09:19:16Z</time></trkpt><trkpt lat="39.633365730737914" lon="9.348676138402876"><ele>335.0</ele><time>2026-04-03T09:19:17Z</time></trkpt><trkpt lat="39.6333876453393" lon="9.348956459746416"><ele>335.0</ele><time>2026-04-03T09:19:18Z</time></trkpt><trkpt lat="39.6334086556321" lon="9.349233294297312"><ele>335.0</ele><time>2026-04-03T09:19:19Z</time></trkpt><trkpt lat="39.63343232523924" lon="9.349509663325396"><ele>335.0</ele><time>2026-04-03T09:19:20Z</time></trkpt><trkpt lat="39.63345611068952" lon="9.349781812646212"><ele>335.0</ele><time>2026-04-03T09:19:21Z</time></trkpt><trkpt lat="39.633476794996255" lon="9.350055836292874"><ele>335.0</ele><time>2026-04-03T09:19:22Z</time></trkpt><trkpt lat="39.633498653049166" lon="9.350328127922241"><ele>334.6666666666667</ele><time>2026-04-03T09:19:23Z</time></trkpt><trkpt lat="39.63351773151004" lon="9.35059707333368"><ele>334.3333333333333</ele><time>2026-04-03T09:19:24Z</time></trkpt><trkpt lat="39.63353661376027" lon="9.350860990525272"><ele>334.0</ele><time>2026-04-03T09:19:25Z</time></trkpt><trkpt lat="39.63356044650021" lon="9.351122594716463"><ele>335.0</ele><time>2026-04-03T09:19:26Z</time></trkpt><trkpt lat="39.63358381475091" lon="9.351383908637615"><ele>336.0</ele><time>2026-04-03T09:19:27Z</time></trkpt><trkpt lat="39.63360393889795" lon="9.351645804610351"><ele>337.0</ele><time>2026-04-03T09:19:28Z</time></trkpt><trkpt lat="39.63361956256802" lon="9.351910268936757"><ele>337.0</ele><time>2026-04-03T09:19:29Z</time></trkpt><trkpt lat="39.63362903200999" lon="9.352174519176346"><ele>337.0</ele><time>2026-04-03T09:19:30Z</time></trkpt><trkpt lat="39.633628951927754" lon="9.35244243228221"><ele>337.0</ele><time>2026-04-03T09:19:31Z</time></trkpt><trkpt lat="39.633614682502134" lon="9.352709826436937"><ele>337.66666666666663</ele><time>2026-04-03T09:19:32Z</time></trkpt><trkpt lat="39.63358404424869" lon="9.352963061358913"><ele>338.3333333333333</ele><time>2026-04-03T09:19:33Z</time></trkpt><trkpt lat="39.63354689965311" lon="9.353211914620186"><ele>339.0</ele><time>2026-04-03T09:19:34Z</time></trkpt><trkpt lat="39.63350772843877" lon="9.353449808327628"><ele>339.6666666666667</ele><time>2026-04-03T09:19:35Z</time></trkpt><trkpt lat="39.63347184518703" lon="9.353677426539008"><ele>340.33333333333337</ele><time>2026-04-03T09:19:36Z</time></trkpt><trkpt lat="39.633444057146214" lon="9.353898744094506"><ele>341.0</ele><time>2026-04-03T09:19:37Z</time></trkpt><trkpt lat="39.63342277744084" lon="9.35412349270525"><ele>342.0</ele><time>2026-04-03T09:19:38Z</time></trkpt><trkpt lat="39.63341195162546" lon="9.35434843461235"><ele>343.0</ele><time>2026-04-03T09:19:39Z</time></trkpt><trkpt lat="39.633396016392716" lon="9.35457715720599"><ele>344.0</ele><time>2026-04-03T09:19:40Z</time></trkpt><trkpt lat="39.63338698987044" lon="9.354811054167357"><ele>345.0</ele><time>2026-04-03T09:19:41Z</time></trkpt><trkpt lat="39.63339758324333" lon="9.355052462359936"><ele>346.0</ele><time>2026-04-03T09:19:42Z</time></trkpt><trkpt lat="39.63342739161447" lon="9.355291235450972"><ele>347.0</ele><time>2026-04-03T09:19:43Z</time></trkpt><trkpt lat="39.63346623276864" lon="9.355520060184729"><ele>348.33333333333337</ele><time>2026-04-03T09:19:44Z</time></trkpt><trkpt lat="39.63350433592657" lon="9.355745388998336"><ele>349.6666666666667</ele><time>2026-04-03T09:19:45Z</time></trkpt><trkpt lat="39.633534903878" lon="9.355966973128249"><ele>351.0</ele><time>2026-04-03T09:19:46Z</time></trkpt><trkpt lat="39.63356720231006" lon="9.3561880396097"><ele>352.0</ele><time>2026-04-03T09:19:47Z</time></trkpt><trkpt lat="39.63359549021224" lon="9.356404859159431"><ele>353.0</ele><time>2026-04-03T09:19:48Z</time></trkpt><trkpt lat="39.633617697085" lon="9.356607459900749"><ele>354.0</ele><time>2026-04-03T09:19:49Z</time></trkpt><trkpt lat="39.633639427066704" lon="9.356781203540832"><ele>354.4</ele><time>2026-04-03T09:19:50Z</time></trkpt><trkpt lat="39.63364498937751" lon="9.356927419805052"><ele>354.79999999999995</ele><time>2026-04-03T09:19:51Z</time></trkpt><trkpt lat="39.633648014138394" lon="9.357046199724882"><ele>355.20000000000005</ele><time>2026-04-03T09:19:52Z</time></trkpt><trkpt lat="39.63366707697563" lon="9.357124526078671"><ele>355.6</ele><time>2026-04-03T09:19:53Z</time></trkpt><trkpt lat="39.63376519627447" lon="9.357176150715777"><ele>356.0</ele><time>2026-04-03T09:20:00Z</time></trkpt><trkpt lat="39.63390612330776" lon="9.357151225383737"><ele>356.0</ele><time>2026-04-03T09:20:02Z</time></trkpt><trkpt lat="39.63399528219577" lon="9.35710078402181"><ele>356.0</ele><time>2026-04-03T09:20:03Z</time></trkpt><trkpt lat="39.63409071568799" lon="9.357049686835893"><ele>356.0</ele><time>2026-04-03T09:20:04Z</time></trkpt><trkpt lat="39.63420052158192" lon="9.356998163043396"><ele>356.0</ele><time>2026-04-03T09:20:05.001Z</time></trkpt><trkpt lat="39.63432224797707" lon="9.356948293951023"><ele>356.0</ele><time>2026-04-03T09:20:06.001Z</time></trkpt><trkpt lat="39.63444540409229" lon="9.356899065341734"><ele>356.75</ele><time>2026-04-03T09:20:07.001Z</time></trkpt><trkpt lat="39.63456929790887" lon="9.356843113814373"><ele>357.5</ele><time>2026-04-03T09:20:08.001Z</time></trkpt><trkpt lat="39.63470367735688" lon="9.356787695283467"><ele>358.25</ele><time>2026-04-03T09:20:09.001Z</time></trkpt><trkpt lat="39.63484434953808" lon="9.3567246482969"><ele>359.0</ele><time>2026-04-03T09:20:10.001Z</time></trkpt><trkpt lat="39.63498514636985" lon="9.356649444750083"><ele>359.0</ele><time>2026-04-03T09:20:11.001Z</time></trkpt><trkpt lat="39.63513453829356" lon="9.35657795234878"><ele>359.0</ele><time>2026-04-03T09:20:12.001Z</time></trkpt><trkpt lat="39.635287898078985" lon="9.356516597007978"><ele>359.0</ele><time>2026-04-03T09:20:13.001Z</time></trkpt><trkpt lat="39.63544023032493" lon="9.356439931841544"><ele>359.6666666666667</ele><time>2026-04-03T09:20:14.001Z</time></trkpt><trkpt lat="39.635596724680006" lon="9.356358051528398"><ele>360.3333333333333</ele><time>2026-04-03T09:20:15.001Z</time></trkpt><trkpt lat="39.63575883398464" lon="9.356259865268152"><ele>361.0</ele><time>2026-04-03T09:20:16.001Z</time></trkpt><trkpt lat="39.63592764393618" lon="9.3561711861121"><ele>361.0</ele><time>2026-04-03T09:20:17.001Z</time></trkpt><trkpt lat="39.636092983214276" lon="9.356077872703395"><ele>361.0</ele><time>2026-04-03T09:20:18.001Z</time></trkpt><trkpt lat="39.63625467514833" lon="9.35599151263543"><ele>361.0</ele><time>2026-04-03T09:20:19.001Z</time></trkpt><trkpt lat="39.63641883720412" lon="9.355913648112521"><ele>360.0</ele><time>2026-04-03T09:20:20.001Z</time></trkpt><trkpt lat="39.636589240206135" lon="9.355845546805353"><ele>359.0</ele><time>2026-04-03T09:20:21.001Z</time></trkpt><trkpt lat="39.63676667729409" lon="9.35580598627464"><ele>358.0</ele><time>2026-04-03T09:20:22.001Z</time></trkpt><trkpt lat="39.63694515398406" lon="9.355743391479173"><ele>357.66666666666663</ele><time>2026-04-03T09:20:23.001Z</time></trkpt><trkpt lat="39.637120878691405" lon="9.355670386495463"><ele>357.3333333333333</ele><time>2026-04-03T09:20:24.001Z</time></trkpt><trkpt lat="39.637297911257264" lon="9.355596249470318"><ele>357.0</ele><time>2026-04-03T09:20:25.001Z</time></trkpt><trkpt lat="39.637476974474524" lon="9.355521090138135"><ele>356.6666666666667</ele><time>2026-04-03T09:20:26.001Z</time></trkpt><trkpt lat="39.637658684309095" lon="9.355447192513843"><ele>356.33333333333337</ele><time>2026-04-03T09:20:27Z</time></trkpt><trkpt lat="39.63784042542206" lon="9.355365735136553"><ele>356.0</ele><time>2026-04-03T09:20:28Z</time></trkpt><trkpt lat="39.63802329385435" lon="9.355280372641927"><ele>357.0</ele><time>2026-04-03T09:20:29Z</time></trkpt><trkpt lat="39.638208997730516" lon="9.355200975790535"><ele>358.0</ele><time>2026-04-03T09:20:30Z</time></trkpt><trkpt lat="39.63840079520199" lon="9.355111157427434"><ele>359.0</ele><time>2026-04-03T09:20:31Z</time></trkpt><trkpt lat="39.63859302154905" lon="9.355029981170487"><ele>359.33333333333337</ele><time>2026-04-03T09:20:32Z</time></trkpt><trkpt lat="39.63878436941703" lon="9.354949085428075"><ele>359.6666666666667</ele><time>2026-04-03T09:20:33Z</time></trkpt><trkpt lat="39.63897600566215" lon="9.354858246079298"><ele>360.0</ele><time>2026-04-03T09:20:34Z</time></trkpt><trkpt lat="39.63916686174115" lon="9.35477150893774"><ele>359.6666666666667</ele><time>2026-04-03T09:20:35Z</time></trkpt><trkpt lat="39.639359263077075" lon="9.354689615383405"><ele>359.33333333333337</ele><time>2026-04-03T09:20:36Z</time></trkpt><trkpt lat="39.63955086526556" lon="9.35460335093179"><ele>359.0</ele><time>2026-04-03T09:20:37Z</time></trkpt><trkpt lat="39.63974415713326" lon="9.354516063229113"><ele>359.0</ele><time>2026-04-03T09:20:38Z</time></trkpt><trkpt lat="39.63993619685971" lon="9.354430817448378"><ele>359.0</ele><time>2026-04-03T09:20:39Z</time></trkpt><trkpt lat="39.64012548486455" lon="9.354345166739249"><ele>359.0</ele><time>2026-04-03T09:20:40Z</time></trkpt><trkpt lat="39.64031354696674" lon="9.354262057074799"><ele>359.6666666666667</ele><time>2026-04-03T09:20:41Z</time></trkpt><trkpt lat="39.64050058410742" lon="9.354180353436739"><ele>360.3333333333333</ele><time>2026-04-03T09:20:42Z</time></trkpt><trkpt lat="39.64068507160884" lon="9.354096781676489"><ele>361.0</ele><time>2026-04-03T09:20:43Z</time></trkpt><trkpt lat="39.64086948688358" lon="9.35401584792928"><ele>361.0</ele><time>2026-04-03T09:20:44Z</time></trkpt><trkpt lat="39.64105348416758" lon="9.353941322380399"><ele>361.0</ele><time>2026-04-03T09:20:45Z</time></trkpt><trkpt lat="39.64123683521408" lon="9.353878305212945"><ele>361.0</ele><time>2026-04-03T09:20:46Z</time></trkpt><trkpt lat="39.6414242220877" lon="9.353846313400156"><ele>362.66666666666663</ele><time>2026-04-03T09:20:47Z</time></trkpt><trkpt lat="39.64161280246612" lon="9.353853330742957"><ele>364.3333333333333</ele><time>2026-04-03T09:20:48Z</time></trkpt><trkpt lat="39.64180073224778" lon="9.353895281743343"><ele>366.0</ele><time>2026-04-03T09:20:49Z</time></trkpt><trkpt lat="39.64198000554732" lon="9.353969086206309"><ele>367.6666666666667</ele><time>2026-04-03T09:20:50Z</time></trkpt><trkpt lat="39.64214969475907" lon="9.354070026510218"><ele>369.33333333333337</ele><time>2026-04-03T09:20:51Z</time></trkpt><trkpt lat="39.64231172219372" lon="9.354194000818344"><ele>371.0</ele><time>2026-04-03T09:20:52Z</time></trkpt><trkpt lat="39.64246933257195" lon="9.354330157467594"><ele>371.0</ele><time>2026-04-03T09:20:53Z</time></trkpt><trkpt lat="39.642628869762596" lon="9.354467931045658"><ele>371.0</ele><time>2026-04-03T09:20:54Z</time></trkpt><trkpt lat="39.642793241133695" lon="9.354599399938476"><ele>371.0</ele><time>2026-04-03T09:20:55Z</time></trkpt><trkpt lat="39.64295247336834" lon="9.354732585463012"><ele>373.0</ele><time>2026-04-03T09:20:56Z</time></trkpt><trkpt lat="39.643110737082345" lon="9.354863196071452"><ele>375.0</ele><time>2026-04-03T09:20:57Z</time></trkpt><trkpt lat="39.643272990563226" lon="9.35499358556196"><ele>377.0</ele><time>2026-04-03T09:20:58Z</time></trkpt><trkpt lat="39.64344047377851" lon="9.355117098951744"><ele>377.0</ele><time>2026-04-03T09:20:59Z</time></trkpt><trkpt lat="39.643618953621385" lon="9.355215082835292"><ele>377.0</ele><time>2026-04-03T09:21:00Z</time></trkpt><trkpt lat="39.64381643355765" lon="9.355259477657821"><ele>377.0</ele><time>2026-04-03T09:21:01Z</time></trkpt><trkpt lat="39.64401766421366" lon="9.355270459934047"><ele>376.6666666666667</ele><time>2026-04-03T09:21:02Z</time></trkpt><trkpt lat="39.64421705984908" lon="9.355267541517655"><ele>376.3333333333333</ele><time>2026-04-03T09:21:03Z</time></trkpt><trkpt lat="39.644416004680494" lon="9.35526699113844"><ele>376.0</ele><time>2026-04-03T09:21:04Z</time></trkpt><trkpt lat="39.64461206698373" lon="9.35526700106214"><ele>377.0</ele><time>2026-04-03T09:21:05Z</time></trkpt><trkpt lat="39.64480589523393" lon="9.355265330930802"><ele>378.0</ele><time>2026-04-03T09:21:06Z</time></trkpt><trkpt lat="39.64500128856967" lon="9.355269056571311"><ele>379.0</ele><time>2026-04-03T09:21:07Z</time></trkpt><trkpt lat="39.64518659518635" lon="9.35527450424394"><ele>378.3333333333333</ele><time>2026-04-03T09:21:08Z</time></trkpt><trkpt lat="39.64536005190123" lon="9.355293562764276"><ele>377.6666666666667</ele><time>2026-04-03T09:21:09Z</time></trkpt><trkpt lat="39.6455260748215" lon="9.355341397613419"><ele>377.0</ele><time>2026-04-03T09:21:10Z</time></trkpt><trkpt lat="39.645679747247534" lon="9.35543041003046"><ele>380.0</ele><time>2026-04-03T09:21:11Z</time></trkpt><trkpt lat="39.645816014761934" lon="9.355563177577695"><ele>383.0</ele><time>2026-04-03T09:21:12Z</time></trkpt><trkpt lat="39.64593439240046" lon="9.355727896822799"><ele>386.0</ele><time>2026-04-03T09:21:13Z</time></trkpt><trkpt lat="39.64604188477127" lon="9.355914689416714"><ele>386.0</ele><time>2026-04-03T09:21:14Z</time></trkpt><trkpt lat="39.646150528727745" lon="9.356117415277584"><ele>386.0</ele><time>2026-04-03T09:21:15Z</time></trkpt><trkpt lat="39.64626931811868" lon="9.35632152094344"><ele>386.0</ele><time>2026-04-03T09:21:16Z</time></trkpt><trkpt lat="39.64639482015618" lon="9.356531126441242"><ele>388.0</ele><time>2026-04-03T09:21:17Z</time></trkpt><trkpt lat="39.646514958462085" lon="9.356737780798447"><ele>390.0</ele><time>2026-04-03T09:21:18Z</time></trkpt><trkpt lat="39.6466345783635" lon="9.356932952057344"><ele>392.0</ele><time>2026-04-03T09:21:19Z</time></trkpt><trkpt lat="39.646764800614086" lon="9.357101374719111"><ele>392.3333333333333</ele><time>2026-04-03T09:21:20Z</time></trkpt><trkpt lat="39.64691962546717" lon="9.357207754255551"><ele>392.66666666666663</ele><time>2026-04-03T09:21:21Z</time></trkpt><trkpt lat="39.64709487113424" lon="9.357244351887337"><ele>393.0</ele><time>2026-04-03T09:21:22Z</time></trkpt><trkpt lat="39.64727666062156" lon="9.3572485517818"><ele>394.0</ele><time>2026-04-03T09:21:23Z</time></trkpt><trkpt lat="39.64745598763592" lon="9.357233694675005"><ele>395.0</ele><time>2026-04-03T09:21:24Z</time></trkpt><trkpt lat="39.647614514051824" lon="9.357220203708243"><ele>396.0</ele><time>2026-04-03T09:21:25Z</time></trkpt><trkpt lat="39.64775804450601" lon="9.357215402911917"><ele>397.5</ele><time>2026-04-03T09:21:26Z</time></trkpt><trkpt lat="39.64788534920831" lon="9.35723655650355"><ele>399.0</ele><time>2026-04-03T09:21:27Z</time></trkpt><trkpt lat="39.64799541193678" lon="9.357301585185102"><ele>400.5</ele><time>2026-04-03T09:21:28Z</time></trkpt><trkpt lat="39.64809847638793" lon="9.357393084914467"><ele>402.0</ele><time>2026-04-03T09:21:29Z</time></trkpt><trkpt lat="39.64820359631696" lon="9.357491692220165"><ele>402.0</ele><time>2026-04-03T09:21:30Z</time></trkpt><trkpt lat="39.64832285482734" lon="9.357588704824588"><ele>402.0</ele><time>2026-04-03T09:21:31Z</time></trkpt><trkpt lat="39.64845656864845" lon="9.357681219357918"><ele>402.0</ele><time>2026-04-03T09:21:32Z</time></trkpt><trkpt lat="39.64860360253417" lon="9.357764401182358"><ele>402.25</ele><time>2026-04-03T09:21:33Z</time></trkpt><trkpt lat="39.64875603631317" lon="9.357821536863705"><ele>402.5</ele><time>2026-04-03T09:21:34Z</time></trkpt><trkpt lat="39.648899710291694" lon="9.35785189425804"><ele>402.75</ele><time>2026-04-03T09:21:35Z</time></trkpt><trkpt lat="39.64902958041662" lon="9.357868971740793"><ele>403.0</ele><time>2026-04-03T09:21:36Z</time></trkpt><trkpt lat="39.649166308227855" lon="9.357853403075206"><ele>403.0</ele><time>2026-04-03T09:21:37Z</time></trkpt><trkpt lat="39.649284675294275" lon="9.35786659013398"><ele>403.0</ele><time>2026-04-03T09:21:38Z</time></trkpt><trkpt lat="39.64939981809252" lon="9.357909968920724"><ele>403.0</ele><time>2026-04-03T09:21:39Z</time></trkpt><trkpt lat="39.64950891517381" lon="9.357984595334615"><ele>403.0</ele><time>2026-04-03T09:21:40Z</time></trkpt><trkpt lat="39.64959066455344" lon="9.358102281887442"><ele>403.25</ele><time>2026-04-03T09:21:41Z</time></trkpt><trkpt lat="39.649643174643856" lon="9.358227341841701"><ele>403.5</ele><time>2026-04-03T09:21:42Z</time></trkpt><trkpt lat="39.649680004124676" lon="9.358369649517558"><ele>403.75</ele><time>2026-04-03T09:21:43Z</time></trkpt><trkpt lat="39.64970293905256" lon="9.358513443556799"><ele>404.0</ele><time>2026-04-03T09:21:44Z</time></trkpt><trkpt lat="39.649720534443055" lon="9.358659721282438"><ele>403.99999999999994</ele><time>2026-04-03T09:21:45Z</time></trkpt><trkpt lat="39.649741135308936" lon="9.358797589468141"><ele>404.0</ele><time>2026-04-03T09:21:46Z</time></trkpt><trkpt lat="39.649764370870116" lon="9.358915590547499"><ele>404.0</ele><time>2026-04-03T09:21:47Z</time></trkpt><trkpt lat="39.64978781545114" lon="9.359018946971116"><ele>404.0</ele><time>2026-04-03T09:21:48Z</time></trkpt><trkpt lat="39.64980089025432" lon="9.359109417308407"><ele>403.99999999999994</ele><time>2026-04-03T09:21:49Z</time></trkpt><trkpt lat="39.6498139208915" lon="9.359214644188373"><ele>404.0</ele><time>2026-04-03T09:21:51Z</time></trkpt><trkpt lat="39.649846411707436" lon="9.359339402886498"><ele>404.16666666666663</ele><time>2026-04-03T09:21:53Z</time></trkpt><trkpt lat="39.649879138106705" lon="9.359411978340654"><ele>404.3333333333333</ele><time>2026-04-03T09:21:54Z</time></trkpt><trkpt lat="39.64992111021998" lon="9.359480416543496"><ele>404.5</ele><time>2026-04-03T09:21:55Z</time></trkpt><trkpt lat="39.650020245102795" lon="9.359554731826417"><ele>404.66666666666663</ele><time>2026-04-03T09:21:57Z</time></trkpt><trkpt lat="39.650082948376365" lon="9.35959336351366"><ele>404.8333333333333</ele><time>2026-04-03T09:21:59Z</time></trkpt><trkpt lat="39.650068563886116" lon="9.359508506760662"><ele>405.0</ele><time>2026-04-03T09:22:04Z</time></trkpt><trkpt lat="39.649974616576785" lon="9.359499057223834"><ele>405.0</ele><time>2026-04-03T09:22:06Z</time></trkpt><trkpt lat="39.64990045726521" lon="9.359457127598104"><ele>405.0</ele><time>2026-04-03T09:22:08Z</time></trkpt><trkpt lat="39.64984436769187" lon="9.359368664340291"><ele>405.0</ele><time>2026-04-03T09:22:10Z</time></trkpt><trkpt lat="39.649830086742575" lon="9.359272256748664"><ele>405.0</ele><time>2026-04-03T09:22:12.001Z</time></trkpt><trkpt lat="39.64983363988356" lon="9.359173755621363"><ele>405.0</ele><time>2026-04-03T09:22:14.001Z</time></trkpt><trkpt lat="39.64983491489491" lon="9.359085927930217"><ele>405.0</ele><time>2026-04-03T09:22:16.001Z</time></trkpt><trkpt lat="39.64982201309116" lon="9.358957958868347"><ele>404.8</ele><time>2026-04-03T09:22:18.001Z</time></trkpt><trkpt lat="39.6498037281623" lon="9.358830234306273"><ele>404.6</ele><time>2026-04-03T09:22:20.001Z</time></trkpt><trkpt lat="39.64977870160936" lon="9.358704326940497"><ele>404.4</ele><time>2026-04-03T09:22:22.001Z</time></trkpt><trkpt lat="39.6497546710014" lon="9.358581593787049"><ele>404.2</ele><time>2026-04-03T09:22:24.001Z</time></trkpt><trkpt lat="39.64973180216812" lon="9.35846459167644"><ele>404.0</ele><time>2026-04-03T09:22:26.001Z</time></trkpt><trkpt lat="39.649702867665944" lon="9.35833553740788"><ele>404.0</ele><time>2026-04-03T09:22:28.001Z</time></trkpt><trkpt lat="39.64966600758042" lon="9.358217052875483"><ele>404.0</ele><time>2026-04-03T09:22:30Z</time></trkpt><trkpt lat="39.649615235632844" lon="9.358102977546734"><ele>404.0</ele><time>2026-04-03T09:22:32Z</time></trkpt><trkpt lat="39.649549327766174" lon="9.358014519988199"><ele>404.0</ele><time>2026-04-03T09:22:34Z</time></trkpt><trkpt lat="39.64947619509847" lon="9.357946424266702"><ele>404.0</ele><time>2026-04-03T09:22:36Z</time></trkpt><trkpt lat="39.64939263774533" lon="9.35788574390811"><ele>403.79999999999995</ele><time>2026-04-03T09:22:38Z</time></trkpt><trkpt lat="39.6492949238666" lon="9.357856703126666"><ele>403.59999999999997</ele><time>2026-04-03T09:22:40Z</time></trkpt><trkpt lat="39.64919966492189" lon="9.357840084271636"><ele>403.4</ele><time>2026-04-03T09:22:42Z</time></trkpt><trkpt lat="39.64910454530628" lon="9.357836061557402"><ele>403.2</ele><time>2026-04-03T09:22:44Z</time></trkpt><trkpt lat="39.649012894073174" lon="9.357831565478216"><ele>403.0</ele><time>2026-04-03T09:22:46Z</time></trkpt><trkpt lat="39.64891548461982" lon="9.35783409489496"><ele>403.0</ele><time>2026-04-03T09:22:48Z</time></trkpt><trkpt lat="39.64881620367274" lon="9.357816980837146"><ele>403.0</ele><time>2026-04-03T09:22:50Z</time></trkpt><trkpt lat="39.64872278403845" lon="9.357773329637505"><ele>403.0</ele><time>2026-04-03T09:22:52Z</time></trkpt><trkpt lat="39.64862882813085" lon="9.35772603048812"><ele>403.0</ele><time>2026-04-03T09:22:54Z</time></trkpt><trkpt lat="39.648530631633726" lon="9.357680600773884"><ele>403.0</ele><time>2026-04-03T09:22:56Z</time></trkpt><trkpt lat="39.6484356728148" lon="9.357635744932278"><ele>402.83333333333337</ele><time>2026-04-03T09:22:58Z</time></trkpt><trkpt lat="39.648342085027814" lon="9.357573007404062"><ele>402.6666666666667</ele><time>2026-04-03T09:23:00Z</time></trkpt><trkpt lat="39.6482480321606" lon="9.357506121973879"><ele>402.5</ele><time>2026-04-03T09:23:02Z</time></trkpt><trkpt lat="39.648172351148304" lon="9.357445635152576"><ele>402.33333333333337</ele><time>2026-04-03T09:23:04Z</time></trkpt><trkpt lat="39.64813648627276" lon="9.357375787169337"><ele>402.1666666666667</ele><time>2026-04-03T09:23:10Z</time></trkpt><trkpt lat="39.64816439664404" lon="9.357297813106445"><ele>402.0</ele><time>2026-04-03T09:23:13Z</time></trkpt><trkpt lat="39.64822259819262" lon="9.357261683194142"><ele>402.0</ele><time>2026-04-03T09:23:15Z</time></trkpt><trkpt lat="39.64829421986702" lon="9.357232302151033"><ele>402.0</ele><time>2026-04-03T09:23:18Z</time></trkpt><trkpt lat="39.64838004723641" lon="9.357162758003168"><ele>402.0</ele><time>2026-04-03T09:23:32Z</time></trkpt><trkpt lat="39.64848920553856" lon="9.357122853348951"><ele>402.0</ele><time>2026-04-03T09:23:34Z</time></trkpt><trkpt lat="39.64856442854576" lon="9.357126997471337"><ele>402.0</ele><time>2026-04-03T09:23:35Z</time></trkpt><trkpt lat="39.6486499185285" lon="9.357126140371198"><ele>401.6</ele><time>2026-04-03T09:23:36Z</time></trkpt><trkpt lat="39.64874195424225" lon="9.357122170279467"><ele>401.20000000000005</ele><time>2026-04-03T09:23:37Z</time></trkpt><trkpt lat="39.64883664628609" lon="9.357109762331822"><ele>400.8</ele><time>2026-04-03T09:23:38Z</time></trkpt><trkpt lat="39.64893838798407" lon="9.357082578371745"><ele>400.4</ele><time>2026-04-03T09:23:39Z</time></trkpt><trkpt lat="39.649048224632544" lon="9.357040918104104"><ele>400.0</ele><time>2026-04-03T09:23:40Z</time></trkpt><trkpt lat="39.64916287301662" lon="9.356990859453498"><ele>400.0</ele><time>2026-04-03T09:23:41Z</time></trkpt><trkpt lat="39.64928260527377" lon="9.35694294622077"><ele>400.0</ele><time>2026-04-03T09:23:42Z</time></trkpt><trkpt lat="39.64940425976806" lon="9.356890914239992"><ele>400.0</ele><time>2026-04-03T09:23:43Z</time></trkpt><trkpt lat="39.649532662169484" lon="9.3568329553008"><ele>400.0</ele><time>2026-04-03T09:23:44Z</time></trkpt><trkpt lat="39.649658001871224" lon="9.356768519318926"><ele>401.5</ele><time>2026-04-03T09:23:45Z</time></trkpt><trkpt lat="39.64978496250914" lon="9.35669761996694"><ele>403.0</ele><time>2026-04-03T09:23:46Z</time></trkpt><trkpt lat="39.64991868343718" lon="9.356623630571022"><ele>404.5</ele><time>2026-04-03T09:23:47Z</time></trkpt><trkpt lat="39.650059238021335" lon="9.356548530176994"><ele>406.0</ele><time>2026-04-03T09:23:48Z</time></trkpt><trkpt lat="39.650203995211875" lon="9.356474839074439"><ele>406.6666666666667</ele><time>2026-04-03T09:23:49Z</time></trkpt><trkpt lat="39.650349154960274" lon="9.356412264768585"><ele>407.33333333333337</ele><time>2026-04-03T09:23:50Z</time></trkpt><trkpt lat="39.650497182342995" lon="9.356352641518587"><ele>408.0</ele><time>2026-04-03T09:23:51Z</time></trkpt><trkpt lat="39.65065121478989" lon="9.356298053461483"><ele>408.66666666666663</ele><time>2026-04-03T09:23:52Z</time></trkpt><trkpt lat="39.65080700924462" lon="9.356248487401153"><ele>409.3333333333333</ele><time>2026-04-03T09:23:53Z</time></trkpt><trkpt lat="39.65096077572476" lon="9.3562046978003"><ele>410.0</ele><time>2026-04-03T09:23:54Z</time></trkpt><trkpt lat="39.65111316963341" lon="9.3561604043974"><ele>411.3333333333333</ele><time>2026-04-03T09:23:55Z</time></trkpt><trkpt lat="39.651263385658986" lon="9.356118158074509"><ele>412.66666666666663</ele><time>2026-04-03T09:23:56Z</time></trkpt><trkpt lat="39.65141420429711" lon="9.356092914847524"><ele>414.0</ele><time>2026-04-03T09:23:57Z</time></trkpt><trkpt lat="39.6515638284268" lon="9.356099717250283"><ele>414.0</ele><time>2026-04-03T09:23:58Z</time></trkpt><trkpt lat="39.65170788501771" lon="9.35614148790512"><ele>414.0</ele><time>2026-04-03T09:23:59Z</time></trkpt><trkpt lat="39.65184836788423" lon="9.356198915306951"><ele>414.0</ele><time>2026-04-03T09:24:00Z</time></trkpt><trkpt lat="39.651993857939544" lon="9.356261643673106"><ele>414.0</ele><time>2026-04-03T09:24:01Z</time></trkpt><trkpt lat="39.652141014554836" lon="9.356323504248442"><ele>415.75</ele><time>2026-04-03T09:24:02Z</time></trkpt><trkpt lat="39.65228513066576" lon="9.356381029156925"><ele>417.5</ele><time>2026-04-03T09:24:03Z</time></trkpt><trkpt lat="39.65241495883443" lon="9.356443890322069"><ele>419.25</ele><time>2026-04-03T09:24:04Z</time></trkpt><trkpt lat="39.65253944740964" lon="9.356534036801431"><ele>421.0</ele><time>2026-04-03T09:24:05Z</time></trkpt><trkpt lat="39.652651161099215" lon="9.356650212772628"><ele>421.0</ele><time>2026-04-03T09:24:06Z</time></trkpt><trkpt lat="39.652756964614326" lon="9.356780552360473"><ele>421.0</ele><time>2026-04-03T09:24:07Z</time></trkpt><trkpt lat="39.65286318424367" lon="9.356908821619792"><ele>421.0</ele><time>2026-04-03T09:24:08Z</time></trkpt><trkpt lat="39.65297075218977" lon="9.357012972484295"><ele>421.0</ele><time>2026-04-03T09:24:09Z</time></trkpt><trkpt lat="39.65309642075685" lon="9.357070319296607"><ele>421.75</ele><time>2026-04-03T09:24:10Z</time></trkpt><trkpt lat="39.65322355928342" lon="9.35707060436949"><ele>422.5</ele><time>2026-04-03T09:24:11Z</time></trkpt><trkpt lat="39.65334968651648" lon="9.357011273172727"><ele>423.25</ele><time>2026-04-03T09:24:12Z</time></trkpt><trkpt lat="39.6534669664382" lon="9.356908516919193"><ele>424.0</ele><time>2026-04-03T09:24:13Z</time></trkpt><trkpt lat="39.653576595604406" lon="9.356783575955138"><ele>425.33333333333337</ele><time>2026-04-03T09:24:14Z</time></trkpt><trkpt lat="39.65369422126707" lon="9.356658045763428"><ele>426.66666666666663</ele><time>2026-04-03T09:24:15Z</time></trkpt><trkpt lat="39.653818647128254" lon="9.35653069172676"><ele>428.0</ele><time>2026-04-03T09:24:16Z</time></trkpt><trkpt lat="39.65395684367126" lon="9.356407947065614"><ele>427.66666666666663</ele><time>2026-04-03T09:24:17.001Z</time></trkpt><trkpt lat="39.65410731099691" lon="9.356315233934486"><ele>427.33333333333337</ele><time>2026-04-03T09:24:18.001Z</time></trkpt><trkpt lat="39.654269929815364" lon="9.356246085517409"><ele>427.0</ele><time>2026-04-03T09:24:19Z</time></trkpt><trkpt lat="39.654421710464455" lon="9.356187085031596"><ele>428.6666666666667</ele><time>2026-04-03T09:24:20Z</time></trkpt><trkpt lat="39.65455544112406" lon="9.356110018298788"><ele>430.33333333333337</ele><time>2026-04-03T09:24:21Z</time></trkpt><trkpt lat="39.65466881455936" lon="9.355987366341164"><ele>432.0</ele><time>2026-04-03T09:24:22Z</time></trkpt><trkpt lat="39.65474523060337" lon="9.355809984029307"><ele>432.0</ele><time>2026-04-03T09:24:23Z</time></trkpt><trkpt lat="39.654808370912924" lon="9.355618769052546"><ele>432.0</ele><time>2026-04-03T09:24:24Z</time></trkpt><trkpt lat="39.654869850301154" lon="9.35542141207364"><ele>432.0</ele><time>2026-04-03T09:24:25Z</time></trkpt><trkpt lat="39.654928095853606" lon="9.35523437936365"><ele>434.0</ele><time>2026-04-03T09:24:26Z</time></trkpt><trkpt lat="39.654991132519925" lon="9.355069984628626"><ele>436.0</ele><time>2026-04-03T09:24:27Z</time></trkpt><trkpt lat="39.6550907764876" lon="9.354934473348186"><ele>438.0</ele><time>2026-04-03T09:24:28Z</time></trkpt><trkpt lat="39.655222364848356" lon="9.354819332549472"><ele>440.0</ele><time>2026-04-03T09:24:29Z</time></trkpt><trkpt lat="39.65535287907913" lon="9.354706721956473"><ele>441.3333333333333</ele><time>2026-04-03T09:24:30Z</time></trkpt><trkpt lat="39.65548782250633" lon="9.354605086774376"><ele>442.66666666666663</ele><time>2026-04-03T09:24:31Z</time></trkpt><trkpt lat="39.6556353690577" lon="9.354529501139472"><ele>444.0</ele><time>2026-04-03T09:24:32Z</time></trkpt><trkpt lat="39.65580078246706" lon="9.35448784902512"><ele>444.0</ele><time>2026-04-03T09:24:33Z</time></trkpt><trkpt lat="39.65597828157963" lon="9.354444952421977"><ele>444.0</ele><time>2026-04-03T09:24:34Z</time></trkpt><trkpt lat="39.656160148810635" lon="9.354402631535603"><ele>444.0</ele><time>2026-04-03T09:24:35Z</time></trkpt><trkpt lat="39.656341269270946" lon="9.354362404130933"><ele>444.66666666666663</ele><time>2026-04-03T09:24:36Z</time></trkpt><trkpt lat="39.656520973481946" lon="9.354321053454834"><ele>445.3333333333333</ele><time>2026-04-03T09:24:37Z</time></trkpt><trkpt lat="39.65669166077934" lon="9.354270856830645"><ele>446.0</ele><time>2026-04-03T09:24:38Z</time></trkpt><trkpt lat="39.65685274782433" lon="9.354222197562631"><ele>445.66666666666663</ele><time>2026-04-03T09:24:39Z</time></trkpt><trkpt lat="39.657011323541994" lon="9.354178820749317"><ele>445.33333333333337</ele><time>2026-04-03T09:24:40Z</time></trkpt><trkpt lat="39.65716001596014" lon="9.354129828748164"><ele>445.0</ele><time>2026-04-03T09:24:41Z</time></trkpt><trkpt lat="39.657293409339154" lon="9.354061862930616"><ele>445.0</ele><time>2026-04-03T09:24:42Z</time></trkpt><trkpt lat="39.65741254314355" lon="9.353974546817204"><ele>445.0</ele><time>2026-04-03T09:24:43Z</time></trkpt><trkpt lat="39.65752312482823" lon="9.353885425587855"><ele>445.0</ele><time>2026-04-03T09:24:44Z</time></trkpt><trkpt lat="39.65762596032875" lon="9.353802606805402"><ele>445.0</ele><time>2026-04-03T09:24:45Z</time></trkpt><trkpt lat="39.65772452127395" lon="9.353731499497204"><ele>445.6666666666667</ele><time>2026-04-03T09:24:46Z</time></trkpt><trkpt lat="39.65781523044043" lon="9.353675292849966"><ele>446.33333333333337</ele><time>2026-04-03T09:24:47Z</time></trkpt><trkpt lat="39.657881558672386" lon="9.353628274808118"><ele>447.0</ele><time>2026-04-03T09:24:48Z</time></trkpt><trkpt lat="39.65793290359802" lon="9.35356968954048"><ele>447.66666666666663</ele><time>2026-04-03T09:25:27Z</time></trkpt><trkpt lat="39.6579986703758" lon="9.35351831508273"><ele>448.3333333333333</ele><time>2026-04-03T09:25:30Z</time></trkpt><trkpt lat="39.658053368855036" lon="9.353452369720202"><ele>449.0</ele><time>2026-04-03T09:25:33Z</time></trkpt><trkpt lat="39.65797452105826" lon="9.35335836205931"><ele>449.0</ele><time>2026-04-03T09:25:34Z</time></trkpt><trkpt lat="39.65801807153899" lon="9.353430625645476"><ele>449.0</ele><time>2026-04-03T09:25:38Z</time></trkpt><trkpt lat="39.657874142242115" lon="9.353579086684961"><ele>449.0</ele><time>2026-04-03T09:25:39Z</time></trkpt><trkpt lat="39.65777054727681" lon="9.353636925816536"><ele>449.0</ele><time>2026-04-03T09:25:41Z</time></trkpt><trkpt lat="39.65768034339808" lon="9.353725228490218"><ele>449.66666666666663</ele><time>2026-04-03T09:25:43Z</time></trkpt><trkpt lat="39.65747279696509" lon="9.353867948700264"><ele>450.33333333333337</ele><time>2026-04-03T09:25:47Z</time></trkpt><trkpt lat="39.65737584404142" lon="9.35395822243182"><ele>451.0</ele><time>2026-04-03T09:25:49Z</time></trkpt><trkpt lat="39.65727280326225" lon="9.354039511965585"><ele>450.1666666666667</ele><time>2026-04-03T09:25:51Z</time></trkpt><trkpt lat="39.657160606252184" lon="9.354105400191719"><ele>449.33333333333337</ele><time>2026-04-03T09:25:53Z</time></trkpt><trkpt lat="39.657098902786814" lon="9.354131433541957"><ele>448.5</ele><time>2026-04-03T09:25:54Z</time></trkpt><trkpt lat="39.657030238964715" lon="9.354156834358259"><ele>447.66666666666663</ele><time>2026-04-03T09:25:55Z</time></trkpt><trkpt lat="39.656954515748716" lon="9.354179270615687"><ele>446.8333333333333</ele><time>2026-04-03T09:25:56Z</time></trkpt><trkpt lat="39.65687798430298" lon="9.35420405281439"><ele>446.0</ele><time>2026-04-03T09:25:57Z</time></trkpt><trkpt lat="39.65680192016052" lon="9.354221336812845"><ele>445.99999999999994</ele><time>2026-04-03T09:25:58Z</time></trkpt><trkpt lat="39.656723045872674" lon="9.354234541167427"><ele>446.0</ele><time>2026-04-03T09:25:59Z</time></trkpt><trkpt lat="39.65663803903027" lon="9.354250858014302"><ele>446.0</ele><time>2026-04-03T09:26:00Z</time></trkpt><trkpt lat="39.65655217532187" lon="9.354268798827736"><ele>446.0</ele><time>2026-04-03T09:26:01Z</time></trkpt><trkpt lat="39.6564619042904" lon="9.354292276480436"><ele>445.99999999999994</ele><time>2026-04-03T09:26:02Z</time></trkpt><trkpt lat="39.65636620920656" lon="9.354317304768543"><ele>446.0</ele><time>2026-04-03T09:26:03Z</time></trkpt><trkpt lat="39.65626595642092" lon="9.354343506449608"><ele>446.0</ele><time>2026-04-03T09:26:04Z</time></trkpt><trkpt lat="39.6561612134371" lon="9.354373383251406"><ele>446.0</ele><time>2026-04-03T09:26:05Z</time></trkpt><trkpt lat="39.65606610787391" lon="9.354399560477676"><ele>446.0</ele><time>2026-04-03T09:26:06Z</time></trkpt><trkpt lat="39.65597186616082" lon="9.354418628074939"><ele>446.0</ele><time>2026-04-03T09:26:07Z</time></trkpt><trkpt lat="39.65588369008924" lon="9.354437217308227"><ele>446.0</ele><time>2026-04-03T09:26:08Z</time></trkpt><trkpt lat="39.6557999029264" lon="9.35445532830093"><ele>445.66666666666663</ele><time>2026-04-03T09:26:09Z</time></trkpt><trkpt lat="39.65572146575331" lon="9.354478107994337"><ele>445.3333333333333</ele><time>2026-04-03T09:26:10Z</time></trkpt><trkpt lat="39.65564652136931" lon="9.35451038347662"><ele>445.0</ele><time>2026-04-03T09:26:11Z</time></trkpt><trkpt lat="39.655572710953244" lon="9.354542770754975"><ele>444.66666666666663</ele><time>2026-04-03T09:26:12Z</time></trkpt><trkpt lat="39.65549877512634" lon="9.354577562356452"><ele>444.3333333333333</ele><time>2026-04-03T09:26:13Z</time></trkpt><trkpt lat="39.65542810391484" lon="9.354615869810795"><ele>444.0</ele><time>2026-04-03T09:26:14Z</time></trkpt><trkpt lat="39.65536036179211" lon="9.354664978376787"><ele>444.3333333333333</ele><time>2026-04-03T09:26:14.999Z</time></trkpt><trkpt lat="39.65529511854806" lon="9.354721121627843"><ele>444.66666666666663</ele><time>2026-04-03T09:26:15.999Z</time></trkpt><trkpt lat="39.65523582471287" lon="9.354785239451438"><ele>445.0</ele><time>2026-04-03T09:26:16.999Z</time></trkpt><trkpt lat="39.65517656744065" lon="9.354849160616922"><ele>445.3333333333333</ele><time>2026-04-03T09:26:17.999Z</time></trkpt><trkpt lat="39.65511100204508" lon="9.35491166322728"><ele>445.66666666666663</ele><time>2026-04-03T09:26:18.999Z</time></trkpt><trkpt lat="39.65504033028816" lon="9.354980093892943"><ele>446.0</ele><time>2026-04-03T09:26:19.999Z</time></trkpt><trkpt lat="39.654970090506964" lon="9.35506421493571"><ele>444.8</ele><time>2026-04-03T09:26:20.999Z</time></trkpt><trkpt lat="39.654918609282966" lon="9.355174328955961"><ele>443.6</ele><time>2026-04-03T09:26:21.999Z</time></trkpt><trkpt lat="39.654886149527805" lon="9.355306552173424"><ele>442.4</ele><time>2026-04-03T09:26:22.999Z</time></trkpt><trkpt lat="39.65485471799307" lon="9.355440931857009"><ele>441.2</ele><time>2026-04-03T09:26:23.999Z</time></trkpt><trkpt lat="39.6548096098799" lon="9.355581678708814"><ele>440.0</ele><time>2026-04-03T09:26:24.999Z</time></trkpt><trkpt lat="39.65476045831818" lon="9.355728993623053"><ele>438.0</ele><time>2026-04-03T09:26:25.999Z</time></trkpt><trkpt lat="39.654705195606475" lon="9.355877581095836"><ele>436.0</ele><time>2026-04-03T09:26:26.999Z</time></trkpt><trkpt lat="39.65463627414102" lon="9.356013618409694"><ele>434.0</ele><time>2026-04-03T09:26:27.999Z</time></trkpt><trkpt lat="39.65453921775415" lon="9.356114322464542"><ele>432.0</ele><time>2026-04-03T09:26:28.999Z</time></trkpt><trkpt lat="39.65441994274144" lon="9.356170434133514"><ele>431.0</ele><time>2026-04-03T09:26:29.999Z</time></trkpt><trkpt lat="39.654300610015845" lon="9.35620335144847"><ele>430.0</ele><time>2026-04-03T09:26:30.999Z</time></trkpt><trkpt lat="39.65418474054781" lon="9.356254208527195"><ele>429.0</ele><time>2026-04-03T09:26:31.999Z</time></trkpt><trkpt lat="39.65406961108619" lon="9.356315310785643"><ele>428.0</ele><time>2026-04-03T09:26:32.999Z</time></trkpt><trkpt lat="39.65394549016149" lon="9.356383136431516"><ele>428.0</ele><time>2026-04-03T09:26:33.999Z</time></trkpt><trkpt lat="39.65382302345479" lon="9.356482073879146"><ele>428.0</ele><time>2026-04-03T09:26:34.999Z</time></trkpt><trkpt lat="39.65370714623818" lon="9.356617858481856"><ele>428.0</ele><time>2026-04-03T09:26:35.999Z</time></trkpt><trkpt lat="39.65358600911384" lon="9.356746326155967"><ele>427.0</ele><time>2026-04-03T09:26:36.999Z</time></trkpt><trkpt lat="39.653468031038564" lon="9.356859876430665"><ele>426.0</ele><time>2026-04-03T09:26:37.999Z</time></trkpt><trkpt lat="39.65336283642737" lon="9.356958604905614"><ele>425.0</ele><time>2026-04-03T09:26:38.999Z</time></trkpt><trkpt lat="39.653247330416015" lon="9.357030251472075"><ele>424.0</ele><time>2026-04-03T09:26:39.999Z</time></trkpt><trkpt lat="39.65311486977672" lon="9.357054713025697"><ele>424.0</ele><time>2026-04-03T09:26:40.999Z</time></trkpt><trkpt lat="39.65297978590122" lon="9.357019081013561"><ele>424.0</ele><time>2026-04-03T09:26:41.999Z</time></trkpt><trkpt lat="39.652875499223015" lon="9.356902999718866"><ele>424.0</ele><time>2026-04-03T09:26:42.999Z</time></trkpt><trkpt lat="39.65277089638335" lon="9.356792786364228"><ele>424.0</ele><time>2026-04-03T09:26:43.999Z</time></trkpt><trkpt lat="39.65267368387244" lon="9.356667158292604"><ele>423.25</ele><time>2026-04-03T09:26:44.999Z</time></trkpt><trkpt lat="39.652565025655676" lon="9.35654946886672"><ele>422.5</ele><time>2026-04-03T09:26:45.999Z</time></trkpt><trkpt lat="39.65244938506883" lon="9.356444646292864"><ele>421.75</ele><time>2026-04-03T09:26:46.999Z</time></trkpt><trkpt lat="39.652325239933916" lon="9.356377811847748"><ele>421.0</ele><time>2026-04-03T09:26:47.999Z</time></trkpt><trkpt lat="39.6521912436639" lon="9.356332536164029"><ele>419.25</ele><time>2026-04-03T09:26:48.999Z</time></trkpt><trkpt lat="39.65205615579047" lon="9.356283728204971"><ele>417.5</ele><time>2026-04-03T09:26:49.999Z</time></trkpt><trkpt lat="39.65191502145336" lon="9.356218695967456"><ele>415.75</ele><time>2026-04-03T09:26:50.999Z</time></trkpt><trkpt lat="39.65177026804985" lon="9.356157284654977"><ele>414.0</ele><time>2026-04-03T09:26:51.999Z</time></trkpt><trkpt lat="39.65162880542107" lon="9.356098073654863"><ele>414.0</ele><time>2026-04-03T09:26:52.999Z</time></trkpt><trkpt lat="39.65147683263223" lon="9.35606992890189"><ele>414.0</ele><time>2026-04-03T09:26:53.999Z</time></trkpt><trkpt lat="39.65131419340366" lon="9.356076185036324"><ele>414.0</ele><time>2026-04-03T09:26:54.999Z</time></trkpt><trkpt lat="39.651138146479084" lon="9.35611386630213"><ele>412.66666666666663</ele><time>2026-04-03T09:26:55.999Z</time></trkpt><trkpt lat="39.65094511294094" lon="9.356179212525337"><ele>411.3333333333333</ele><time>2026-04-03T09:26:56.999Z</time></trkpt><trkpt lat="39.65074511613413" lon="9.3562450362427"><ele>410.0</ele><time>2026-04-03T09:26:57.999Z</time></trkpt><trkpt lat="39.65052512642613" lon="9.356312563548736"><ele>409.3333333333333</ele><time>2026-04-03T09:26:58.999Z</time></trkpt><trkpt lat="39.65030007341166" lon="9.356395897240686"><ele>408.66666666666663</ele><time>2026-04-03T09:26:59.999Z</time></trkpt><trkpt lat="39.65010121486703" lon="9.356492109147455"><ele>408.0</ele><time>2026-04-03T09:27:00.999Z</time></trkpt><trkpt lat="39.649915954311645" lon="9.356590653684517"><ele>407.33333333333337</ele><time>2026-04-03T09:27:01.999Z</time></trkpt><trkpt lat="39.649729094486204" lon="9.356683539683445"><ele>406.6666666666667</ele><time>2026-04-03T09:27:02.999Z</time></trkpt><trkpt lat="39.64954266532384" lon="9.356773095922655"><ele>406.0</ele><time>2026-04-03T09:27:03.999Z</time></trkpt><trkpt lat="39.64936382817767" lon="9.35686338552475"><ele>404.0</ele><time>2026-04-03T09:27:04.999Z</time></trkpt><trkpt lat="39.64918129945971" lon="9.356939819397958"><ele>402.0</ele><time>2026-04-03T09:27:05.999Z</time></trkpt><trkpt lat="39.64901042147257" lon="9.357015793066315"><ele>400.0</ele><time>2026-04-03T09:27:06.999Z</time></trkpt><trkpt lat="39.64885267230037" lon="9.357068240240578"><ele>400.0</ele><time>2026-04-03T09:27:07.999Z</time></trkpt><trkpt lat="39.64869681942744" lon="9.357094147402014"><ele>400.0</ele><time>2026-04-03T09:27:08.999Z</time></trkpt><trkpt lat="39.6485507285918" lon="9.357095838621106"><ele>400.0</ele><time>2026-04-03T09:27:09.999Z</time></trkpt><trkpt lat="39.6484300516837" lon="9.357108582610977"><ele>400.0</ele><time>2026-04-03T09:27:10.999Z</time></trkpt><trkpt lat="39.64832174194266" lon="9.357106515126128"><ele>399.6</ele><time>2026-04-03T09:27:11.999Z</time></trkpt><trkpt lat="39.6482344064913" lon="9.357153568898122"><ele>399.2</ele><time>2026-04-03T09:27:12.999Z</time></trkpt><trkpt lat="39.648169311567145" lon="9.357219677897081"><ele>398.79999999999995</ele><time>2026-04-03T09:27:13.999Z</time></trkpt><trkpt lat="39.64813028843253" lon="9.357290123020393"><ele>398.4</ele><time>2026-04-03T09:27:14.999Z</time></trkpt><trkpt lat="39.648085270138466" lon="9.357366770821534"><ele>398.0</ele><time>2026-04-03T09:27:16.999Z</time></trkpt><trkpt lat="39.64819610758151" lon="9.35750880748448"><ele>398.79999999999995</ele><time>2026-04-03T09:27:19.999Z</time></trkpt><trkpt lat="39.648286676050866" lon="9.35756263474079"><ele>399.6</ele><time>2026-04-03T09:27:21.999Z</time></trkpt><trkpt lat="39.64834656851813" lon="9.357603848727294"><ele>400.4</ele><time>2026-04-03T09:27:22.999Z</time></trkpt><trkpt lat="39.64850194838068" lon="9.357688113464587"><ele>401.20000000000005</ele><time>2026-04-03T09:27:24.999Z</time></trkpt><trkpt lat="39.64859389345267" lon="9.357749215622492"><ele>402.0</ele><time>2026-04-03T09:27:25.999Z</time></trkpt><trkpt lat="39.64869931012066" lon="9.357804555425743"><ele>402.25</ele><time>2026-04-03T09:27:26.999Z</time></trkpt><trkpt lat="39.648809359761415" lon="9.357851947252119"><ele>402.5</ele><time>2026-04-03T09:27:27.999Z</time></trkpt><trkpt lat="39.648923926310694" lon="9.357883307485313"><ele>402.75</ele><time>2026-04-03T09:27:28.999Z</time></trkpt><trkpt lat="39.649054079839075" lon="9.357882133320501"><ele>403.0</ele><time>2026-04-03T09:27:29.999Z</time></trkpt><trkpt lat="39.64918019542811" lon="9.357873433364057"><ele>403.0</ele><time>2026-04-03T09:27:30.999Z</time></trkpt><trkpt lat="39.6493073013572" lon="9.35788863245284"><ele>403.0</ele><time>2026-04-03T09:27:31.999Z</time></trkpt><trkpt lat="39.64943016236398" lon="9.357942591024768"><ele>403.0</ele><time>2026-04-03T09:27:32.999Z</time></trkpt><trkpt lat="39.64954482086469" lon="9.358054781286583"><ele>403.0</ele><time>2026-04-03T09:27:33.999Z</time></trkpt><trkpt lat="39.64963266357209" lon="9.358208368872887"><ele>403.25</ele><time>2026-04-03T09:27:34.999Z</time></trkpt><trkpt lat="39.64968817165945" lon="9.358379483274799"><ele>403.5</ele><time>2026-04-03T09:27:35.999Z</time></trkpt><trkpt lat="39.649714118746886" lon="9.35856103862182"><ele>403.75</ele><time>2026-04-03T09:27:36.999Z</time></trkpt><trkpt lat="39.649739378194745" lon="9.358735833982854"><ele>404.0</ele><time>2026-04-03T09:27:37.999Z</time></trkpt><trkpt lat="39.649769654837485" lon="9.358903231390617"><ele>404.25</ele><time>2026-04-03T09:27:38.999Z</time></trkpt><trkpt lat="39.64979711170937" lon="9.359067950734536"><ele>404.5</ele><time>2026-04-03T09:27:39.999Z</time></trkpt><trkpt lat="39.64984768576137" lon="9.359218044766648"><ele>404.75</ele><time>2026-04-03T09:27:40.999Z</time></trkpt><trkpt lat="39.64993572025896" lon="9.359343224116037"><ele>405.0</ele><time>2026-04-03T09:27:41.999Z</time></trkpt><trkpt lat="39.650060659624586" lon="9.359428456108873"><ele>405.0</ele><time>2026-04-03T09:27:42.999Z</time></trkpt><trkpt lat="39.6501898337927" lon="9.359457750782317"><ele>405.0</ele><time>2026-04-03T09:27:43.999Z</time></trkpt><trkpt lat="39.65034541140383" lon="9.359400757598051"><ele>405.0</ele><time>2026-04-03T09:27:44.999Z</time></trkpt><trkpt lat="39.650480290766815" lon="9.3593253849269"><ele>405.0</ele><time>2026-04-03T09:27:45.999Z</time></trkpt><trkpt lat="39.65061940419011" lon="9.359264020320193"><ele>404.5</ele><time>2026-04-03T09:27:46.999Z</time></trkpt><trkpt lat="39.6507604731202" lon="9.359223521734883"><ele>404.0</ele><time>2026-04-03T09:27:47.999Z</time></trkpt><trkpt lat="39.65090088108914" lon="9.35923085611469"><ele>403.5</ele><time>2026-04-03T09:27:48.999Z</time></trkpt><trkpt lat="39.65105163129621" lon="9.359301056007803"><ele>403.0</ele><time>2026-04-03T09:27:49.999Z</time></trkpt><trkpt lat="39.65119160123019" lon="9.359442440656109"><ele>403.0</ele><time>2026-04-03T09:27:50.999Z</time></trkpt><trkpt lat="39.65130433503241" lon="9.359627820242947"><ele>403.0</ele><time>2026-04-03T09:27:51.999Z</time></trkpt><trkpt lat="39.65130048922379" lon="9.359885785781346"><ele>403.0</ele><time>2026-04-03T09:27:52.999Z</time></trkpt><trkpt lat="39.651282804658194" lon="9.359700908393098"><ele>401.5</ele><time>2026-04-03T09:27:53.999Z</time></trkpt><trkpt lat="39.651299598175264" lon="9.359879766688207"><ele>400.0</ele><time>2026-04-03T09:27:54.999Z</time></trkpt><trkpt lat="39.651342971361764" lon="9.36005343985817"><ele>398.5</ele><time>2026-04-03T09:27:55.999Z</time></trkpt><trkpt lat="39.651381023009286" lon="9.360214279552727"><ele>397.0</ele><time>2026-04-03T09:27:56.999Z</time></trkpt><trkpt lat="39.651466605328764" lon="9.36034817153043"><ele>397.0</ele><time>2026-04-03T09:27:57.999Z</time></trkpt><trkpt lat="39.65159474773988" lon="9.360433782293518"><ele>397.0</ele><time>2026-04-03T09:27:58.999Z</time></trkpt><trkpt lat="39.65173743850976" lon="9.36047763936121"><ele>397.0</ele><time>2026-04-03T09:27:59.999Z</time></trkpt><trkpt lat="39.651898907100275" lon="9.360463226773051"><ele>395.0</ele><time>2026-04-03T09:28:00.999Z</time></trkpt><trkpt lat="39.652061840512076" lon="9.360409940714963"><ele>393.0</ele><time>2026-04-03T09:28:01.999Z</time></trkpt><trkpt lat="39.65221540862979" lon="9.360337664052617"><ele>391.0</ele><time>2026-04-03T09:28:02.999Z</time></trkpt><trkpt lat="39.652362709136895" lon="9.360248462411764"><ele>391.0</ele><time>2026-04-03T09:28:03.999Z</time></trkpt><trkpt lat="39.652515905218415" lon="9.360158097434754"><ele>391.0</ele><time>2026-04-03T09:28:04.999Z</time></trkpt><trkpt lat="39.65267267597952" lon="9.360069512778573"><ele>391.0</ele><time>2026-04-03T09:28:05.999Z</time></trkpt><trkpt lat="39.652829182640694" lon="9.359971341013768"><ele>384.6666666666667</ele><time>2026-04-03T09:28:06.999Z</time></trkpt><trkpt lat="39.65298103319426" lon="9.359856437815038"><ele>378.33333333333337</ele><time>2026-04-03T09:28:07.999Z</time></trkpt><trkpt lat="39.65312472639134" lon="9.359759490531642"><ele>372.0</ele><time>2026-04-03T09:28:08.999Z</time></trkpt><trkpt lat="39.65328125410717" lon="9.359700884310463"><ele>372.0</ele><time>2026-04-03T09:28:09.999Z</time></trkpt><trkpt lat="39.653432431300615" lon="9.359670588990982"><ele>372.0</ele><time>2026-04-03T09:28:10.999Z</time></trkpt><trkpt lat="39.65357346342603" lon="9.359695404683807"><ele>372.0</ele><time>2026-04-03T09:28:11.999Z</time></trkpt><trkpt lat="39.65369166716483" lon="9.359778662532777"><ele>372.0</ele><time>2026-04-03T09:28:12.999Z</time></trkpt><trkpt lat="39.65377116617377" lon="9.359909265252387"><ele>372.0</ele><time>2026-04-03T09:28:13.999Z</time></trkpt><trkpt lat="39.65382823237329" lon="9.360057922885701"><ele>372.0</ele><time>2026-04-03T09:28:14.999Z</time></trkpt><trkpt lat="39.6538577085092" lon="9.360278434781616"><ele>372.0</ele><time>2026-04-03T09:28:15.999Z</time></trkpt><trkpt lat="39.65385169331849" lon="9.360471108338755"><ele>372.0</ele><time>2026-04-03T09:28:16.999Z</time></trkpt><trkpt lat="39.65380156267012" lon="9.360664181737967"><ele>373.0</ele><time>2026-04-03T09:28:17.999Z</time></trkpt><trkpt lat="39.653773171952196" lon="9.360853527625737"><ele>374.0</ele><time>2026-04-03T09:28:18.999Z</time></trkpt><trkpt lat="39.65378571624143" lon="9.361048702068041"><ele>375.0</ele><time>2026-04-03T09:28:19.999Z</time></trkpt><trkpt lat="39.653836998004245" lon="9.361218150660495"><ele>376.0</ele><time>2026-04-03T09:28:20.999Z</time></trkpt><trkpt lat="39.65392233399665" lon="9.36135224369136"><ele>375.75</ele><time>2026-04-03T09:28:21.999Z</time></trkpt><trkpt lat="39.65402817348413" lon="9.361448781593165"><ele>375.5</ele><time>2026-04-03T09:28:22.999Z</time></trkpt><trkpt lat="39.65414351354843" lon="9.361536273843008"><ele>375.25</ele><time>2026-04-03T09:28:23.999Z</time></trkpt><trkpt lat="39.654271213562794" lon="9.36162836766566"><ele>375.0</ele><time>2026-04-03T09:28:24.999Z</time></trkpt><trkpt lat="39.65439353570898" lon="9.361741403144986"><ele>375.3333333333333</ele><time>2026-04-03T09:28:25.999Z</time></trkpt><trkpt lat="39.65452655699459" lon="9.361862007580392"><ele>375.66666666666663</ele><time>2026-04-03T09:28:26.999Z</time></trkpt><trkpt lat="39.65467311975151" lon="9.36198240755543"><ele>376.0</ele><time>2026-04-03T09:28:27.999Z</time></trkpt><trkpt lat="39.654808455000136" lon="9.362111596383418"><ele>373.0</ele><time>2026-04-03T09:28:28.997Z</time></trkpt><trkpt lat="39.65495222175252" lon="9.36222434832596"><ele>370.0</ele><time>2026-04-03T09:28:29.997Z</time></trkpt><trkpt lat="39.65509906569479" lon="9.362337801999542"><ele>367.0</ele><time>2026-04-03T09:28:30.997Z</time></trkpt><trkpt lat="39.655243887534915" lon="9.362449861961624"><ele>370.3333333333333</ele><time>2026-04-03T09:28:31.997Z</time></trkpt><trkpt lat="39.65539207759688" lon="9.362563557775477"><ele>373.6666666666667</ele><time>2026-04-03T09:28:32.997Z</time></trkpt><trkpt lat="39.65553530153981" lon="9.362679813592422"><ele>377.0</ele><time>2026-04-03T09:28:33.997Z</time></trkpt><trkpt lat="39.6556809561722" lon="9.362797853725693"><ele>377.0</ele><time>2026-04-03T09:28:34.997Z</time></trkpt><trkpt lat="39.65583380922961" lon="9.362918280730055"><ele>377.0</ele><time>2026-04-03T09:28:35.997Z</time></trkpt><trkpt lat="39.65597985531026" lon="9.36303186736776"><ele>377.0</ele><time>2026-04-03T09:28:36.997Z</time></trkpt><trkpt lat="39.65611350365143" lon="9.36313059400461"><ele>376.75</ele><time>2026-04-03T09:28:37.998Z</time></trkpt><trkpt lat="39.6562378507687" lon="9.363229247825828"><ele>376.5</ele><time>2026-04-03T09:28:38.998Z</time></trkpt><trkpt lat="39.656346945980935" lon="9.363344366131198"><ele>376.25</ele><time>2026-04-03T09:28:39.998Z</time></trkpt><trkpt lat="39.656437407465624" lon="9.363487960826946"><ele>376.0</ele><time>2026-04-03T09:28:40.998Z</time></trkpt><trkpt lat="39.65647576077806" lon="9.363665829043297"><ele>376.0</ele><time>2026-04-03T09:28:41.998Z</time></trkpt><trkpt lat="39.6564796497195" lon="9.363845026745798"><ele>376.0</ele><time>2026-04-03T09:28:42.998Z</time></trkpt><trkpt lat="39.65647472927132" lon="9.364033077031065"><ele>376.0</ele><time>2026-04-03T09:28:43.998Z</time></trkpt><trkpt lat="39.656423995677116" lon="9.364217446952921"><ele>376.0</ele><time>2026-04-03T09:28:44.998Z</time></trkpt><trkpt lat="39.65636004983887" lon="9.364402317805887"><ele>377.66666666666663</ele><time>2026-04-03T09:28:45.998Z</time></trkpt><trkpt lat="39.656290225085115" lon="9.364591755600717"><ele>379.3333333333333</ele><time>2026-04-03T09:28:46.998Z</time></trkpt><trkpt lat="39.656219405707155" lon="9.364785147370922"><ele>381.0</ele><time>2026-04-03T09:28:47.998Z</time></trkpt><trkpt lat="39.656148356828865" lon="9.364981460070805"><ele>381.0</ele><time>2026-04-03T09:28:48.998Z</time></trkpt><trkpt lat="39.65608104458275" lon="9.365173935379785"><ele>381.0</ele><time>2026-04-03T09:28:49.998Z</time></trkpt><trkpt lat="39.65601804404419" lon="9.365366068877874"><ele>381.0</ele><time>2026-04-03T09:28:50.998Z</time></trkpt><trkpt lat="39.65595034144643" lon="9.365560703855687"><ele>382.33333333333337</ele><time>2026-04-03T09:28:51.998Z</time></trkpt><trkpt lat="39.65588066855321" lon="9.36575988269731"><ele>383.6666666666667</ele><time>2026-04-03T09:28:52.998Z</time></trkpt><trkpt lat="39.65580640635768" lon="9.365965980636766"><ele>385.0</ele><time>2026-04-03T09:28:53.999Z</time></trkpt><trkpt lat="39.65573223020138" lon="9.366178526500006"><ele>385.6666666666667</ele><time>2026-04-03T09:28:54.999Z</time></trkpt><trkpt lat="39.65565825659717" lon="9.366392445667405"><ele>386.33333333333337</ele><time>2026-04-03T09:28:55.999Z</time></trkpt><trkpt lat="39.65558687163458" lon="9.366603571145001"><ele>387.0</ele><time>2026-04-03T09:28:56.999Z</time></trkpt><trkpt lat="39.65550752641891" lon="9.366806392704992"><ele>387.0</ele><time>2026-04-03T09:28:57.999Z</time></trkpt><trkpt lat="39.65542329902045" lon="9.36700961316322"><ele>387.0</ele><time>2026-04-03T09:28:58.999Z</time></trkpt><trkpt lat="39.655330742067406" lon="9.367210957324756"><ele>387.0</ele><time>2026-04-03T09:28:59.999Z</time></trkpt><trkpt lat="39.65523134976925" lon="9.367409043460698"><ele>386.0</ele><time>2026-04-03T09:29:00.999Z</time></trkpt><trkpt lat="39.655128689289164" lon="9.367613188684897"><ele>385.0</ele><time>2026-04-03T09:29:01.999Z</time></trkpt><trkpt lat="39.65502396708704" lon="9.36781481442058"><ele>384.0</ele><time>2026-04-03T09:29:02.999Z</time></trkpt><trkpt lat="39.65491820657545" lon="9.36802119837041"><ele>386.33333333333337</ele><time>2026-04-03T09:29:03.999Z</time></trkpt><trkpt lat="39.65481092573425" lon="9.368222113581343"><ele>388.6666666666667</ele><time>2026-04-03T09:29:04.999Z</time></trkpt><trkpt lat="39.654702730960885" lon="9.368427258173202"><ele>391.0</ele><time>2026-04-03T09:29:05.999Z</time></trkpt><trkpt lat="39.65458892853271" lon="9.368624972498708"><ele>391.0</ele><time>2026-04-03T09:29:06.999Z</time></trkpt><trkpt lat="39.65447045301981" lon="9.368829027571099"><ele>391.0</ele><time>2026-04-03T09:29:07.999Z</time></trkpt><trkpt lat="39.65435277219816" lon="9.369029933406686"><ele>391.0</ele><time>2026-04-03T09:29:08.999Z</time></trkpt><trkpt lat="39.65424229784518" lon="9.369221645186455"><ele>389.0</ele><time>2026-04-03T09:29:09.999Z</time></trkpt><trkpt lat="39.65413205240333" lon="9.369414916820427"><ele>387.0</ele><time>2026-04-03T09:29:10.999Z</time></trkpt><trkpt lat="39.654023002783795" lon="9.369608522344476"><ele>385.0</ele><time>2026-04-03T09:29:11.999Z</time></trkpt><trkpt lat="39.65391075226857" lon="9.36980407909488"><ele>384.0</ele><time>2026-04-03T09:29:12.999Z</time></trkpt><trkpt lat="39.653795861509266" lon="9.36999906952963"><ele>383.0</ele><time>2026-04-03T09:29:13.999Z</time></trkpt><trkpt lat="39.65367403661325" lon="9.37019093266024"><ele>382.0</ele><time>2026-04-03T09:29:14.999Z</time></trkpt><trkpt lat="39.65353517664948" lon="9.37036975760565"><ele>381.66666666666663</ele><time>2026-04-03T09:29:15.999Z</time></trkpt><trkpt lat="39.65338703162537" lon="9.370528702725732"><ele>381.3333333333333</ele><time>2026-04-03T09:29:16.999Z</time></trkpt><trkpt lat="39.65322295322537" lon="9.3706663964287"><ele>381.0</ele><time>2026-04-03T09:29:17.999Z</time></trkpt><trkpt lat="39.65304951365356" lon="9.370789840073318"><ele>381.0</ele><time>2026-04-03T09:29:18.999Z</time></trkpt><trkpt lat="39.65286872272042" lon="9.37089124597031"><ele>381.0</ele><time>2026-04-03T09:29:19.999Z</time></trkpt><trkpt lat="39.65268125945762" lon="9.370979726672319"><ele>381.0</ele><time>2026-04-03T09:29:20.999Z</time></trkpt><trkpt lat="39.65249122165994" lon="9.371060606546767"><ele>380.0</ele><time>2026-04-03T09:29:21.999Z</time></trkpt><trkpt lat="39.65230075522694" lon="9.371140295263386"><ele>379.0</ele><time>2026-04-03T09:29:22.999Z</time></trkpt><trkpt lat="39.652110274957344" lon="9.371222825892847"><ele>378.0</ele><time>2026-04-03T09:29:23.999Z</time></trkpt><trkpt lat="39.65191447952818" lon="9.37130781470602"><ele>380.0</ele><time>2026-04-03T09:29:24.999Z</time></trkpt><trkpt lat="39.651722229150444" lon="9.37139267342213"><ele>382.0</ele><time>2026-04-03T09:29:25.999Z</time></trkpt><trkpt lat="39.65153291378312" lon="9.371481410659944"><ele>384.0</ele><time>2026-04-03T09:29:26.999Z</time></trkpt><trkpt lat="39.65134561400578" lon="9.371566322897582"><ele>384.0</ele><time>2026-04-03T09:29:27.999Z</time></trkpt><trkpt lat="39.65116770004502" lon="9.371646432174138"><ele>384.0</ele><time>2026-04-03T09:29:28.999Z</time></trkpt><trkpt lat="39.65099031371999" lon="9.37172137756413"><ele>384.0</ele><time>2026-04-03T09:29:29.999Z</time></trkpt><trkpt lat="39.65081595692788" lon="9.371804091781065"><ele>383.0</ele><time>2026-04-03T09:29:30.999Z</time></trkpt><trkpt lat="39.65064347367778" lon="9.37190019494556"><ele>382.0</ele><time>2026-04-03T09:29:31.999Z</time></trkpt><trkpt lat="39.65049440324306" lon="9.372031931365301"><ele>381.0</ele><time>2026-04-03T09:29:32.999Z</time></trkpt><trkpt lat="39.65037047543587" lon="9.372213169252458"><ele>378.6666666666667</ele><time>2026-04-03T09:29:33.999Z</time></trkpt><trkpt lat="39.65026950646831" lon="9.372423266709822"><ele>376.33333333333337</ele><time>2026-04-03T09:29:34.999Z</time></trkpt><trkpt lat="39.650175618369424" lon="9.372634984465869"><ele>374.0</ele><time>2026-04-03T09:29:35.999Z</time></trkpt><trkpt lat="39.650074712627465" lon="9.372844589515916"><ele>374.6666666666667</ele><time>2026-04-03T09:29:36.999Z</time></trkpt><trkpt lat="39.6499579839798" lon="9.373045531587294"><ele>375.3333333333333</ele><time>2026-04-03T09:29:37.999Z</time></trkpt><trkpt lat="39.649830084776234" lon="9.373229970107197"><ele>376.0</ele><time>2026-04-03T09:29:38.999Z</time></trkpt><trkpt lat="39.649693574703655" lon="9.373396538812313"><ele>376.0</ele><time>2026-04-03T09:29:39.999Z</time></trkpt><trkpt lat="39.64955448171642" lon="9.373549319398046"><ele>376.0</ele><time>2026-04-03T09:29:40.999Z</time></trkpt><trkpt lat="39.649399264901774" lon="9.373676222805601"><ele>376.0</ele><time>2026-04-03T09:29:41.999Z</time></trkpt><trkpt lat="39.64922748617599" lon="9.373761153080821"><ele>371.3333333333333</ele><time>2026-04-03T09:29:42.999Z</time></trkpt><trkpt lat="39.64904636659063" lon="9.373791650147913"><ele>366.6666666666667</ele><time>2026-04-03T09:29:43.999Z</time></trkpt><trkpt lat="39.648866832476266" lon="9.373749814069875"><ele>362.0</ele><time>2026-04-03T09:29:44.999Z</time></trkpt><trkpt lat="39.64871149315295" lon="9.373645126597452"><ele>361.33333333333337</ele><time>2026-04-03T09:29:45.999Z</time></trkpt><trkpt lat="39.64858851748785" lon="9.373487968371924"><ele>360.6666666666667</ele><time>2026-04-03T09:29:46.999Z</time></trkpt><trkpt lat="39.648497452984834" lon="9.373297799403062"><ele>360.0</ele><time>2026-04-03T09:29:47.999Z</time></trkpt><trkpt lat="39.648418684193295" lon="9.373096835623222"><ele>356.3333333333333</ele><time>2026-04-03T09:29:48.999Z</time></trkpt><trkpt lat="39.648324112990494" lon="9.372922742967397"><ele>352.66666666666663</ele><time>2026-04-03T09:29:49.999Z</time></trkpt><trkpt lat="39.64822257031216" lon="9.372767758484509"><ele>349.0</ele><time>2026-04-03T09:29:50.999Z</time></trkpt><trkpt lat="39.6481149169579" lon="9.372634284556302"><ele>349.0</ele><time>2026-04-03T09:29:51.999Z</time></trkpt><trkpt lat="39.6479811256488" lon="9.372544230127547"><ele>349.0</ele><time>2026-04-03T09:29:52.999Z</time></trkpt><trkpt lat="39.647821042173256" lon="9.37250236445286"><ele>349.0</ele><time>2026-04-03T09:29:53.999Z</time></trkpt><trkpt lat="39.647647769004564" lon="9.372492030637506"><ele>348.66666666666663</ele><time>2026-04-03T09:29:54.999Z</time></trkpt><trkpt lat="39.64747029173705" lon="9.372485284675998"><ele>348.3333333333333</ele><time>2026-04-03T09:29:55.999Z</time></trkpt><trkpt lat="39.64728345007622" lon="9.372478444380675"><ele>348.0</ele><time>2026-04-03T09:29:56.999Z</time></trkpt><trkpt lat="39.64709727513677" lon="9.37247346857826"><ele>346.0</ele><time>2026-04-03T09:29:57.999Z</time></trkpt><trkpt lat="39.64691730539875" lon="9.37247753103567"><ele>344.0</ele><time>2026-04-03T09:29:58.999Z</time></trkpt><trkpt lat="39.646745400491575" lon="9.372490121905496"><ele>342.0</ele><time>2026-04-03T09:29:59.999Z</time></trkpt><trkpt lat="39.646575487096186" lon="9.372505766255506"><ele>342.0</ele><time>2026-04-03T09:30:00.999Z</time></trkpt><trkpt lat="39.64639846666359" lon="9.372527075498336"><ele>342.0</ele><time>2026-04-03T09:30:01.999Z</time></trkpt><trkpt lat="39.64621210116205" lon="9.372547139080039"><ele>342.0</ele><time>2026-04-03T09:30:02.999Z</time></trkpt><trkpt lat="39.6460235953151" lon="9.372564115609155"><ele>338.3333333333333</ele><time>2026-04-03T09:30:03.999Z</time></trkpt><trkpt lat="39.645843697809276" lon="9.37257840848445"><ele>334.66666666666663</ele><time>2026-04-03T09:30:04.999Z</time></trkpt><trkpt lat="39.645670552748626" lon="9.372592799928212"><ele>331.0</ele><time>2026-04-03T09:30:05.999Z</time></trkpt><trkpt lat="39.64550765819552" lon="9.372613615124727"><ele>331.0</ele><time>2026-04-03T09:30:06.999Z</time></trkpt><trkpt lat="39.64535532502613" lon="9.372670666357122"><ele>331.0</ele><time>2026-04-03T09:30:07.999Z</time></trkpt><trkpt lat="39.645214162437206" lon="9.372782656287086"><ele>331.0</ele><time>2026-04-03T09:30:08.999Z</time></trkpt><trkpt lat="39.645089600060224" lon="9.372943108782723"><ele>330.3333333333333</ele><time>2026-04-03T09:30:09.999Z</time></trkpt><trkpt lat="39.644977669151906" lon="9.373138026183504"><ele>329.6666666666667</ele><time>2026-04-03T09:30:10.999Z</time></trkpt><trkpt lat="39.644868085867984" lon="9.373348536588114"><ele>329.0</ele><time>2026-04-03T09:30:11.999Z</time></trkpt><trkpt lat="39.64476888732528" lon="9.373554264861323"><ele>329.0</ele><time>2026-04-03T09:30:12.999Z</time></trkpt><trkpt lat="39.64468778882668" lon="9.373763602682608"><ele>329.0</ele><time>2026-04-03T09:30:13.999Z</time></trkpt><trkpt lat="39.64463334267844" lon="9.373983035139098"><ele>329.0</ele><time>2026-04-03T09:30:14.999Z</time></trkpt><trkpt lat="39.64460226591985" lon="9.374198332971098"><ele>329.0</ele><time>2026-04-03T09:30:15.999Z</time></trkpt><trkpt lat="39.644572119221735" lon="9.374400677267756"><ele>329.0</ele><time>2026-04-03T09:30:16.999Z</time></trkpt><trkpt lat="39.64452121093112" lon="9.374576535381838"><ele>329.0</ele><time>2026-04-03T09:30:17.999Z</time></trkpt><trkpt lat="39.644429792618254" lon="9.374725096247433"><ele>321.6666666666667</ele><time>2026-04-03T09:30:18.999Z</time></trkpt><trkpt lat="39.64429927423452" lon="9.374829047336274"><ele>314.3333333333333</ele><time>2026-04-03T09:30:19.999Z</time></trkpt><trkpt lat="39.64414659004096" lon="9.374869858512286"><ele>307.0</ele><time>2026-04-03T09:30:20.999Z</time></trkpt><trkpt lat="39.64397715343871" lon="9.374847212413531"><ele>307.0</ele><time>2026-04-03T09:30:21.999Z</time></trkpt><trkpt lat="39.64381840864623" lon="9.374813439730037"><ele>307.0</ele><time>2026-04-03T09:30:22.999Z</time></trkpt><trkpt lat="39.643678324978914" lon="9.374811918116425"><ele>307.0</ele><time>2026-04-03T09:30:23.999Z</time></trkpt><trkpt lat="39.643561532872916" lon="9.374866666839882"><ele>307.0</ele><time>2026-04-03T09:30:24.999Z</time></trkpt><trkpt lat="39.64349380384185" lon="9.374979723435631"><ele>307.0</ele><time>2026-04-03T09:30:25.999Z</time></trkpt><trkpt lat="39.643465644214245" lon="9.375127511899404"><ele>307.0</ele><time>2026-04-03T09:30:26.999Z</time></trkpt><trkpt lat="39.64347478873526" lon="9.37527711442075"><ele>307.0</ele><time>2026-04-03T09:30:27.999Z</time></trkpt><trkpt lat="39.64354711853903" lon="9.375413603407166"><ele>307.0</ele><time>2026-04-03T09:30:28.999Z</time></trkpt><trkpt lat="39.64365286080304" lon="9.375495546842656"><ele>307.0</ele><time>2026-04-03T09:30:29.999Z</time></trkpt><trkpt lat="39.6437615958979" lon="9.375532528705735"><ele>307.0</ele><time>2026-04-03T09:30:30.999Z</time></trkpt><trkpt lat="39.64382286045931" lon="9.375569379118012"><ele>307.0</ele><time>2026-04-03T09:30:31.999Z</time></trkpt><trkpt lat="39.64396093379396" lon="9.375490580032686"><ele>307.0</ele><time>2026-04-03T09:30:32.999Z</time></trkpt><trkpt lat="39.644079210159376" lon="9.375365776945427"><ele>307.0</ele><time>2026-04-03T09:30:33.999Z</time></trkpt><trkpt lat="39.64420543383995" lon="9.375232349051426"><ele>307.0</ele><time>2026-04-03T09:30:35Z</time></trkpt><trkpt lat="39.64434415170352" lon="9.375128036690535"><ele>307.0</ele><time>2026-04-03T09:30:36Z</time></trkpt><trkpt lat="39.64449482599739" lon="9.37504896803177"><ele>307.3333333333333</ele><time>2026-04-03T09:30:37Z</time></trkpt><trkpt lat="39.64465141853563" lon="9.37496855858467"><ele>307.6666666666667</ele><time>2026-04-03T09:30:38Z</time></trkpt><trkpt lat="39.644802017554674" lon="9.374894138480684"><ele>308.0</ele><time>2026-04-03T09:30:39Z</time></trkpt><trkpt lat="39.644949618056636" lon="9.374855700664103"><ele>308.0</ele><time>2026-04-03T09:30:40Z</time></trkpt><trkpt lat="39.64510090242441" lon="9.374867833832402"><ele>308.0</ele><time>2026-04-03T09:30:41Z</time></trkpt><trkpt lat="39.64524679321462" lon="9.3749228835471"><ele>308.0</ele><time>2026-04-03T09:30:42Z</time></trkpt><trkpt lat="39.64539758525425" lon="9.375009872994239"><ele>311.6666666666667</ele><time>2026-04-03T09:30:43Z</time></trkpt><trkpt lat="39.645537984600075" lon="9.375123215863354"><ele>315.3333333333333</ele><time>2026-04-03T09:30:44Z</time></trkpt><trkpt lat="39.64566593752194" lon="9.375256298537867"><ele>319.0</ele><time>2026-04-03T09:30:45Z</time></trkpt><trkpt lat="39.64577312496446" lon="9.375417195805694"><ele>312.0</ele><time>2026-04-03T09:30:46Z</time></trkpt><trkpt lat="39.64584695269205" lon="9.375595214164964"><ele>305.0</ele><time>2026-04-03T09:30:47Z</time></trkpt><trkpt lat="39.64591115769266" lon="9.375770571319839"><ele>298.0</ele><time>2026-04-03T09:30:48Z</time></trkpt><trkpt lat="39.645986181800815" lon="9.375909947470777"><ele>291.0</ele><time>2026-04-03T09:30:49Z</time></trkpt><trkpt lat="39.64609393144461" lon="9.376004203701305"><ele>294.25</ele><time>2026-04-03T09:30:50Z</time></trkpt><trkpt lat="39.64622467225838" lon="9.376037712159972"><ele>297.5</ele><time>2026-04-03T09:30:51Z</time></trkpt><trkpt lat="39.64636978730448" lon="9.376027931330254"><ele>300.75</ele><time>2026-04-03T09:30:52Z</time></trkpt><trkpt lat="39.64651899808435" lon="9.376014481903189"><ele>304.0</ele><time>2026-04-03T09:30:53Z</time></trkpt><trkpt lat="39.646677036172136" lon="9.376014381347428"><ele>304.0</ele><time>2026-04-03T09:30:54Z</time></trkpt><trkpt lat="39.6468243535764" lon="9.376031267746184"><ele>304.0</ele><time>2026-04-03T09:30:55Z</time></trkpt><trkpt lat="39.646954200794184" lon="9.376084377337815"><ele>304.0</ele><time>2026-04-03T09:30:56Z</time></trkpt><trkpt lat="39.64705659383493" lon="9.376198091346197"><ele>304.0</ele><time>2026-04-03T09:30:57Z</time></trkpt><trkpt lat="39.647112224928854" lon="9.376370695301004"><ele>301.5</ele><time>2026-04-03T09:30:58Z</time></trkpt><trkpt lat="39.647133187954296" lon="9.376559127014302"><ele>299.0</ele><time>2026-04-03T09:30:59Z</time></trkpt><trkpt lat="39.64714714494282" lon="9.37673623411491"><ele>296.5</ele><time>2026-04-03T09:31:00Z</time></trkpt><trkpt lat="39.64718129568027" lon="9.376898895789877"><ele>294.0</ele><time>2026-04-03T09:31:01Z</time></trkpt><trkpt lat="39.64725523274784" lon="9.377037232019694"><ele>294.0</ele><time>2026-04-03T09:31:02Z</time></trkpt><trkpt lat="39.647369334527006" lon="9.377123137314548"><ele>294.0</ele><time>2026-04-03T09:31:03Z</time></trkpt><trkpt lat="39.647507763461874" lon="9.377149738468379"><ele>294.0</ele><time>2026-04-03T09:31:04Z</time></trkpt><trkpt lat="39.64765366560972" lon="9.37712804052387"><ele>294.0</ele><time>2026-04-03T09:31:05Z</time></trkpt><trkpt lat="39.647799246222235" lon="9.377102722130482"><ele>297.5</ele><time>2026-04-03T09:31:06Z</time></trkpt><trkpt lat="39.647939291646914" lon="9.377141242224631"><ele>301.0</ele><time>2026-04-03T09:31:07Z</time></trkpt><trkpt lat="39.64807143788756" lon="9.377233548573786"><ele>304.5</ele><time>2026-04-03T09:31:08Z</time></trkpt><trkpt lat="39.648197606454964" lon="9.377330035307107"><ele>308.0</ele><time>2026-04-03T09:31:09Z</time></trkpt><trkpt lat="39.64833716884026" lon="9.37740284282063"><ele>308.25</ele><time>2026-04-03T09:31:10Z</time></trkpt><trkpt lat="39.64846921099847" lon="9.377484716507427"><ele>308.5</ele><time>2026-04-03T09:31:11Z</time></trkpt><trkpt lat="39.64857859036073" lon="9.377599321692182"><ele>308.75</ele><time>2026-04-03T09:31:12Z</time></trkpt><trkpt lat="39.64865750608306" lon="9.377746669686413"><ele>309.0</ele><time>2026-04-03T09:31:13Z</time></trkpt><trkpt lat="39.64870496755715" lon="9.377916510051218"><ele>306.75</ele><time>2026-04-03T09:31:14Z</time></trkpt><trkpt lat="39.648708443492204" lon="9.378104954250496"><ele>304.5</ele><time>2026-04-03T09:31:15Z</time></trkpt><trkpt lat="39.648684454500376" lon="9.378293827486075"><ele>302.25</ele><time>2026-04-03T09:31:16Z</time></trkpt><trkpt lat="39.64865029452394" lon="9.378480188656745"><ele>300.0</ele><time>2026-04-03T09:31:17Z</time></trkpt><trkpt lat="39.64861998275504" lon="9.378667579371673"><ele>297.0</ele><time>2026-04-03T09:31:18Z</time></trkpt><trkpt lat="39.64861148236246" lon="9.378856447000231"><ele>294.0</ele><time>2026-04-03T09:31:19Z</time></trkpt><trkpt lat="39.64862950330726" lon="9.379052526626843"><ele>291.0</ele><time>2026-04-03T09:31:20Z</time></trkpt><trkpt lat="39.648668678047095" lon="9.379249769890249"><ele>291.0</ele><time>2026-04-03T09:31:21Z</time></trkpt><trkpt lat="39.648707730168795" lon="9.379442196207862"><ele>291.0</ele><time>2026-04-03T09:31:22Z</time></trkpt><trkpt lat="39.64871970394631" lon="9.37965198246027"><ele>291.0</ele><time>2026-04-03T09:31:23Z</time></trkpt><trkpt lat="39.6486993763052" lon="9.379865697632257"><ele>287.6666666666667</ele><time>2026-04-03T09:31:24Z</time></trkpt><trkpt lat="39.648669136744445" lon="9.380077841221837"><ele>284.33333333333337</ele><time>2026-04-03T09:31:25Z</time></trkpt><trkpt lat="39.648660645095454" lon="9.380293083643535"><ele>281.0</ele><time>2026-04-03T09:31:26Z</time></trkpt><trkpt lat="39.64869005958502" lon="9.380510633575568"><ele>277.6666666666667</ele><time>2026-04-03T09:31:27Z</time></trkpt><trkpt lat="39.64875476015787" lon="9.380713191865844"><ele>274.3333333333333</ele><time>2026-04-03T09:31:28Z</time></trkpt><trkpt lat="39.64882531213494" lon="9.38090940500044"><ele>271.0</ele><time>2026-04-03T09:31:29Z</time></trkpt><trkpt lat="39.648876274218374" lon="9.381108032418439"><ele>271.0</ele><time>2026-04-03T09:31:30Z</time></trkpt><trkpt lat="39.64888989199808" lon="9.38131856391629"><ele>271.0</ele><time>2026-04-03T09:31:31Z</time></trkpt><trkpt lat="39.6488667902901" lon="9.38152900437379"><ele>271.0</ele><time>2026-04-03T09:31:32Z</time></trkpt><trkpt lat="39.64882337394438" lon="9.381728876330671"><ele>269.66666666666663</ele><time>2026-04-03T09:31:33Z</time></trkpt><trkpt lat="39.64877598875018" lon="9.381932868298753"><ele>268.3333333333333</ele><time>2026-04-03T09:31:34Z</time></trkpt><trkpt lat="39.6487402734453" lon="9.382135930758379"><ele>267.0</ele><time>2026-04-03T09:31:35Z</time></trkpt><trkpt lat="39.64871392110441" lon="9.382345927685709"><ele>266.3333333333333</ele><time>2026-04-03T09:31:36Z</time></trkpt><trkpt lat="39.648697000069106" lon="9.382560370087324"><ele>265.66666666666663</ele><time>2026-04-03T09:31:37Z</time></trkpt><trkpt lat="39.648687117229635" lon="9.382780776182818"><ele>265.0</ele><time>2026-04-03T09:31:38Z</time></trkpt><trkpt lat="39.64868012131863" lon="9.383004685153075"><ele>261.0</ele><time>2026-04-03T09:31:39Z</time></trkpt><trkpt lat="39.648673100078646" lon="9.383219667129307"><ele>257.0</ele><time>2026-04-03T09:31:40Z</time></trkpt><trkpt lat="39.64867170091881" lon="9.38342779079723"><ele>253.0</ele><time>2026-04-03T09:31:41Z</time></trkpt><trkpt lat="39.64867062408169" lon="9.383623902927374"><ele>253.0</ele><time>2026-04-03T09:31:42Z</time></trkpt><trkpt lat="39.64867659795742" lon="9.383796298678169"><ele>253.0</ele><time>2026-04-03T09:31:43Z</time></trkpt><trkpt lat="39.64871691828968" lon="9.383950780750224"><ele>253.0</ele><time>2026-04-03T09:31:44Z</time></trkpt><trkpt lat="39.64880420207628" lon="9.384068264671335"><ele>253.0</ele><time>2026-04-03T09:31:45Z</time></trkpt><trkpt lat="39.64892968450972" lon="9.384131517412795"><ele>253.0</ele><time>2026-04-03T09:31:46Z</time></trkpt><trkpt lat="39.64907200462906" lon="9.384126255617383"><ele>253.0</ele><time>2026-04-03T09:31:47Z</time></trkpt><trkpt lat="39.64921060315488" lon="9.384051332886717"><ele>253.0</ele><time>2026-04-03T09:31:48Z</time></trkpt><trkpt lat="39.64932377342398" lon="9.383915402377406"><ele>253.0</ele><time>2026-04-03T09:31:49Z</time></trkpt><trkpt lat="39.64941844165259" lon="9.383752201208507"><ele>244.33333333333331</ele><time>2026-04-03T09:31:50Z</time></trkpt><trkpt lat="39.64950593546738" lon="9.383569092247773"><ele>235.66666666666669</ele><time>2026-04-03T09:31:51Z</time></trkpt><trkpt lat="39.64960571393329" lon="9.383393898715385"><ele>227.0</ele><time>2026-04-03T09:31:52Z</time></trkpt><trkpt lat="39.64970811660414" lon="9.383213588279139"><ele>227.0</ele><time>2026-04-03T09:31:53Z</time></trkpt><trkpt lat="39.64980832758948" lon="9.383025960563183"><ele>227.0</ele><time>2026-04-03T09:31:54Z</time></trkpt><trkpt lat="39.649907146401716" lon="9.38283258744621"><ele>227.0</ele><time>2026-04-03T09:31:55Z</time></trkpt><trkpt lat="39.65000721196046" lon="9.382643836497207"><ele>230.66666666666669</ele><time>2026-04-03T09:31:56Z</time></trkpt><trkpt lat="39.65010830726748" lon="9.382459800027176"><ele>234.33333333333331</ele><time>2026-04-03T09:31:57Z</time></trkpt><trkpt lat="39.65020323531845" lon="9.382271071052887"><ele>238.0</ele><time>2026-04-03T09:31:58Z</time></trkpt><trkpt lat="39.650300530784435" lon="9.38209113317814"><ele>230.0</ele><time>2026-04-03T09:31:59Z</time></trkpt><trkpt lat="39.65039721059687" lon="9.38191416113714"><ele>222.0</ele><time>2026-04-03T09:32:00Z</time></trkpt><trkpt lat="39.6504791697393" lon="9.381738436936994"><ele>214.0</ele><time>2026-04-03T09:32:01Z</time></trkpt><trkpt lat="39.65053149875268" lon="9.381544320080133"><ele>215.75</ele><time>2026-04-03T09:32:02Z</time></trkpt><trkpt lat="39.650537211113665" lon="9.38134094916916"><ele>217.5</ele><time>2026-04-03T09:32:03Z</time></trkpt><trkpt lat="39.65053323629737" lon="9.381146387082277"><ele>219.25</ele><time>2026-04-03T09:32:04Z</time></trkpt><trkpt lat="39.65057882521194" lon="9.380978298392952"><ele>221.0</ele><time>2026-04-03T09:32:05Z</time></trkpt><trkpt lat="39.65068084020454" lon="9.380835672022572"><ele>221.0</ele><time>2026-04-03T09:32:06Z</time></trkpt><trkpt lat="39.65081407157617" lon="9.380712618283308"><ele>221.0</ele><time>2026-04-03T09:32:07Z</time></trkpt><trkpt lat="39.650949906132745" lon="9.38058296971694"><ele>221.0</ele><time>2026-04-03T09:32:08Z</time></trkpt><trkpt lat="39.65106012508216" lon="9.380434483818629"><ele>222.5</ele><time>2026-04-03T09:32:09Z</time></trkpt><trkpt lat="39.65115669568242" lon="9.380292009594795"><ele>224.0</ele><time>2026-04-03T09:32:10Z</time></trkpt><trkpt lat="39.65125138857657" lon="9.380185292065496"><ele>225.5</ele><time>2026-04-03T09:32:11Z</time></trkpt><trkpt lat="39.65136166303713" lon="9.380144372658359"><ele>227.0</ele><time>2026-04-03T09:32:12Z</time></trkpt><trkpt lat="39.65148794458894" lon="9.3801655872705"><ele>227.0</ele><time>2026-04-03T09:32:13Z</time></trkpt><trkpt lat="39.65160470916355" lon="9.380242126405797"><ele>227.0</ele><time>2026-04-03T09:32:14Z</time></trkpt><trkpt lat="39.65170001118573" lon="9.380359063615241"><ele>227.0</ele><time>2026-04-03T09:32:15Z</time></trkpt><trkpt lat="39.65175418643987" lon="9.380513096896403"><ele>227.0</ele><time>2026-04-03T09:32:16Z</time></trkpt><trkpt lat="39.65177397390812" lon="9.38068283819386"><ele>222.25</ele><time>2026-04-03T09:32:17Z</time></trkpt><trkpt lat="39.65178976357323" lon="9.380848918093438"><ele>217.5</ele><time>2026-04-03T09:32:18Z</time></trkpt><trkpt lat="39.65184150946783" lon="9.380998786501335"><ele>212.75</ele><time>2026-04-03T09:32:19Z</time></trkpt><trkpt lat="39.65194053152491" lon="9.381116467915575"><ele>208.0</ele><time>2026-04-03T09:32:20Z</time></trkpt><trkpt lat="39.6520760825535" lon="9.381168336878247"><ele>208.0</ele><time>2026-04-03T09:32:21Z</time></trkpt><trkpt lat="39.65222274534634" lon="9.381165581028448"><ele>208.0</ele><time>2026-04-03T09:32:22Z</time></trkpt><trkpt lat="39.65236001566332" lon="9.381110924592008"><ele>208.0</ele><time>2026-04-03T09:32:23Z</time></trkpt><trkpt lat="39.65248786448936" lon="9.381014773345353"><ele>208.0</ele><time>2026-04-03T09:32:24Z</time></trkpt><trkpt lat="39.65261050524874" lon="9.380888937790262"><ele>208.0</ele><time>2026-04-03T09:32:25Z</time></trkpt><trkpt lat="39.65274633748991" lon="9.380776058379803"><ele>208.0</ele><time>2026-04-03T09:32:26Z</time></trkpt><trkpt lat="39.65288996781598" lon="9.380678595745742"><ele>208.0</ele><time>2026-04-03T09:32:27Z</time></trkpt><trkpt lat="39.653052842428664" lon="9.380610173999152"><ele>201.66666666666666</ele><time>2026-04-03T09:32:28Z</time></trkpt><trkpt lat="39.6532299285733" lon="9.380571657936125"><ele>195.33333333333331</ele><time>2026-04-03T09:32:29Z</time></trkpt><trkpt lat="39.65342166538868" lon="9.38055738905825"><ele>189.0</ele><time>2026-04-03T09:32:30Z</time></trkpt><trkpt lat="39.65360595362456" lon="9.380534451490481"><ele>187.66666666666666</ele><time>2026-04-03T09:32:31Z</time></trkpt><trkpt lat="39.653794583887354" lon="9.38050796922679"><ele>186.33333333333331</ele><time>2026-04-03T09:32:32Z</time></trkpt><trkpt lat="39.65399160172051" lon="9.380501520947194"><ele>185.0</ele><time>2026-04-03T09:32:33Z</time></trkpt><trkpt lat="39.6541865834683" lon="9.380529299562879"><ele>185.0</ele><time>2026-04-03T09:32:34Z</time></trkpt><trkpt lat="39.65437994934204" lon="9.38061079458722"><ele>185.0</ele><time>2026-04-03T09:32:35Z</time></trkpt><trkpt lat="39.65456168404511" lon="9.380705873378417"><ele>185.0</ele><time>2026-04-03T09:32:36Z</time></trkpt><trkpt lat="39.654743272622284" lon="9.380794023563476"><ele>185.0</ele><time>2026-04-03T09:32:37Z</time></trkpt><trkpt lat="39.65492640420228" lon="9.380876973024218"><ele>185.0</ele><time>2026-04-03T09:32:38Z</time></trkpt><trkpt lat="39.65510871023208" lon="9.380960095510675"><ele>185.0</ele><time>2026-04-03T09:32:39Z</time></trkpt><trkpt lat="39.65529091435141" lon="9.381041840529894"><ele>189.0</ele><time>2026-04-03T09:32:40Z</time></trkpt><trkpt lat="39.65547321048379" lon="9.381125517627941"><ele>193.0</ele><time>2026-04-03T09:32:41.001Z</time></trkpt><trkpt lat="39.65565481945941" lon="9.381207430136195"><ele>197.0</ele><time>2026-04-03T09:32:42.001Z</time></trkpt><trkpt lat="39.65583813433307" lon="9.381286189516622"><ele>193.0</ele><time>2026-04-03T09:32:43.001Z</time></trkpt><trkpt lat="39.65602069468424" lon="9.381363085247743"><ele>189.0</ele><time>2026-04-03T09:32:44.001Z</time></trkpt><trkpt lat="39.656202852171965" lon="9.381439859376517"><ele>185.0</ele><time>2026-04-03T09:32:45.001Z</time></trkpt><trkpt lat="39.656380789403386" lon="9.381520956687392"><ele>185.0</ele><time>2026-04-03T09:32:46.001Z</time></trkpt><trkpt lat="39.65655565440614" lon="9.381606516194545"><ele>185.0</ele><time>2026-04-03T09:32:47.001Z</time></trkpt><trkpt lat="39.6567215577256" lon="9.381716414626865"><ele>185.0</ele><time>2026-04-03T09:32:48.001Z</time></trkpt><trkpt lat="39.65686561028617" lon="9.381868399253358"><ele>186.0</ele><time>2026-04-03T09:32:49.001Z</time></trkpt><trkpt lat="39.656980066478475" lon="9.382062103731355"><ele>187.0</ele><time>2026-04-03T09:32:50.001Z</time></trkpt><trkpt lat="39.65706790349036" lon="9.38228045926266"><ele>188.0</ele><time>2026-04-03T09:32:51.001Z</time></trkpt><trkpt lat="39.65712738543848" lon="9.3825112288653"><ele>188.0</ele><time>2026-04-03T09:32:52.001Z</time></trkpt><trkpt lat="39.65716457203018" lon="9.382749345676075"><ele>188.0</ele><time>2026-04-03T09:32:53.001Z</time></trkpt><trkpt lat="39.65719421593521" lon="9.382989486147729"><ele>188.0</ele><time>2026-04-03T09:32:54.001Z</time></trkpt><trkpt lat="39.65723902230082" lon="9.383222586624674"><ele>188.0</ele><time>2026-04-03T09:32:55.001Z</time></trkpt><trkpt lat="39.65729178887919" lon="9.383455636027893"><ele>188.0</ele><time>2026-04-03T09:32:56.001Z</time></trkpt><trkpt lat="39.65734185676015" lon="9.38369282353998"><ele>188.0</ele><time>2026-04-03T09:32:57.001Z</time></trkpt><trkpt lat="39.657390781842274" lon="9.383929685185642"><ele>188.0</ele><time>2026-04-03T09:32:58.001Z</time></trkpt><trkpt lat="39.65744055687391" lon="9.384165232900802"><ele>188.0</ele><time>2026-04-03T09:32:59.001Z</time></trkpt><trkpt lat="39.65749072858245" lon="9.384399417000253"><ele>188.0</ele><time>2026-04-03T09:33:00.001Z</time></trkpt><trkpt lat="39.65754050930977" lon="9.384629042216432"><ele>187.33333333333331</ele><time>2026-04-03T09:33:01.001Z</time></trkpt><trkpt lat="39.657588688234966" lon="9.384857005031652"><ele>186.66666666666666</ele><time>2026-04-03T09:33:02.001Z</time></trkpt><trkpt lat="39.65763780809741" lon="9.385081039572306"><ele>186.0</ele><time>2026-04-03T09:33:03.001Z</time></trkpt><trkpt lat="39.657685644694276" lon="9.38530495650335"><ele>185.66666666666666</ele><time>2026-04-03T09:33:04.001Z</time></trkpt><trkpt lat="39.65772592665071" lon="9.385527535872038"><ele>185.33333333333331</ele><time>2026-04-03T09:33:05.001Z</time></trkpt><trkpt lat="39.657769030543825" lon="9.385746885703893"><ele>185.0</ele><time>2026-04-03T09:33:06.001Z</time></trkpt><trkpt lat="39.657810019228705" lon="9.385967024851325"><ele>186.0</ele><time>2026-04-03T09:33:07.001Z</time></trkpt><trkpt lat="39.65785424755504" lon="9.38618519533719"><ele>187.0</ele><time>2026-04-03T09:33:08.001Z</time></trkpt><trkpt lat="39.65790009697546" lon="9.386403709072503"><ele>188.0</ele><time>2026-04-03T09:33:09.001Z</time></trkpt><trkpt lat="39.657947921479014" lon="9.386619206164546"><ele>188.33333333333331</ele><time>2026-04-03T09:33:10.001Z</time></trkpt><trkpt lat="39.65799380340378" lon="9.386837151886596"><ele>188.66666666666666</ele><time>2026-04-03T09:33:11.001Z</time></trkpt><trkpt lat="39.65802931770815" lon="9.387057935865958"><ele>189.0</ele><time>2026-04-03T09:33:12.001Z</time></trkpt><trkpt lat="39.65805757365604" lon="9.387281405200104"><ele>189.0</ele><time>2026-04-03T09:33:13.001Z</time></trkpt><trkpt lat="39.658071225887305" lon="9.387505849713826"><ele>189.0</ele><time>2026-04-03T09:33:14.001Z</time></trkpt><trkpt lat="39.658060046013816" lon="9.387731751308566"><ele>189.0</ele><time>2026-04-03T09:33:15.001Z</time></trkpt><trkpt lat="39.65801771508478" lon="9.38794990438104"><ele>188.33333333333334</ele><time>2026-04-03T09:33:16.001Z</time></trkpt><trkpt lat="39.65795503020075" lon="9.38815945747817"><ele>187.66666666666669</ele><time>2026-04-03T09:33:17.001Z</time></trkpt><trkpt lat="39.65787563336445" lon="9.388367317798364"><ele>187.0</ele><time>2026-04-03T09:33:18.001Z</time></trkpt><trkpt lat="39.657794367713386" lon="9.388580803654287"><ele>186.33333333333334</ele><time>2026-04-03T09:33:19.001Z</time></trkpt><trkpt lat="39.65771779508237" lon="9.388796119401778"><ele>185.66666666666666</ele><time>2026-04-03T09:33:20.001Z</time></trkpt><trkpt lat="39.65764396358043" lon="9.389016831613075"><ele>185.0</ele><time>2026-04-03T09:33:21.001Z</time></trkpt><trkpt lat="39.65756572898013" lon="9.38924099401413"><ele>185.0</ele><time>2026-04-03T09:33:22.001Z</time></trkpt><trkpt lat="39.65748613619654" lon="9.38946410263053"><ele>185.0</ele><time>2026-04-03T09:33:23.001Z</time></trkpt><trkpt lat="39.657405916157046" lon="9.389688517196142"><ele>185.0</ele><time>2026-04-03T09:33:24.001Z</time></trkpt><trkpt lat="39.65732492409963" lon="9.389915918195769"><ele>185.33333333333331</ele><time>2026-04-03T09:33:25.001Z</time></trkpt><trkpt lat="39.65724561160629" lon="9.390145044380473"><ele>185.66666666666666</ele><time>2026-04-03T09:33:26.001Z</time></trkpt><trkpt lat="39.65716437454204" lon="9.390377947660388"><ele>186.0</ele><time>2026-04-03T09:33:27.001Z</time></trkpt><trkpt lat="39.657086607518394" lon="9.39061361233833"><ele>186.33333333333334</ele><time>2026-04-03T09:33:28.001Z</time></trkpt><trkpt lat="39.657012628021036" lon="9.39084161255628"><ele>186.66666666666669</ele><time>2026-04-03T09:33:29.001Z</time></trkpt><trkpt lat="39.65694811030667" lon="9.391072489961687"><ele>187.0</ele><time>2026-04-03T09:33:30.001Z</time></trkpt><trkpt lat="39.65690691535872" lon="9.391309512605098"><ele>195.33333333333334</ele><time>2026-04-03T09:33:31.001Z</time></trkpt><trkpt lat="39.65689013750408" lon="9.391550960526624"><ele>203.66666666666669</ele><time>2026-04-03T09:33:32.001Z</time></trkpt><trkpt lat="39.65689496822473" lon="9.391797836815714"><ele>212.0</ele><time>2026-04-03T09:33:33.001Z</time></trkpt><trkpt lat="39.65692776371933" lon="9.39204376121672"><ele>204.0</ele><time>2026-04-03T09:33:34.001Z</time></trkpt><trkpt lat="39.65698542008335" lon="9.392280984625936"><ele>196.0</ele><time>2026-04-03T09:33:35.001Z</time></trkpt><trkpt lat="39.65706669169798" lon="9.39250574964773"><ele>188.0</ele><time>2026-04-03T09:33:36.001Z</time></trkpt><trkpt lat="39.65717668431308" lon="9.39271154309063"><ele>188.0</ele><time>2026-04-03T09:33:37.001Z</time></trkpt><trkpt lat="39.65731263796311" lon="9.392896124417339"><ele>188.0</ele><time>2026-04-03T09:33:38.001Z</time></trkpt><trkpt lat="39.65746803126016" lon="9.393058297741142"><ele>188.0</ele><time>2026-04-03T09:33:39.001Z</time></trkpt><trkpt lat="39.65763788427358" lon="9.393199004552715"><ele>189.66666666666666</ele><time>2026-04-03T09:33:40.001Z</time></trkpt><trkpt lat="39.65781455724077" lon="9.393326293727213"><ele>191.33333333333331</ele><time>2026-04-03T09:33:41.001Z</time></trkpt><trkpt lat="39.65799690860622" lon="9.393440254842666"><ele>193.0</ele><time>2026-04-03T09:33:42.001Z</time></trkpt><trkpt lat="39.658181278272245" lon="9.393552372203448"><ele>193.0</ele><time>2026-04-03T09:33:43.001Z</time></trkpt><trkpt lat="39.65836300319934" lon="9.39366971600479"><ele>193.0</ele><time>2026-04-03T09:33:44.001Z</time></trkpt><trkpt lat="39.65854360321803" lon="9.393790468796608"><ele>193.0</ele><time>2026-04-03T09:33:45.001Z</time></trkpt><trkpt lat="39.65872415335503" lon="9.39390908484552"><ele>196.33333333333331</ele><time>2026-04-03T09:33:46.001Z</time></trkpt><trkpt lat="39.658904835297285" lon="9.394018996330884"><ele>199.66666666666669</ele><time>2026-04-03T09:33:47.001Z</time></trkpt><trkpt lat="39.65908453438684" lon="9.394125569339005"><ele>203.0</ele><time>2026-04-03T09:33:48.001Z</time></trkpt><trkpt lat="39.65926240281371" lon="9.39423872696811"><ele>203.0</ele><time>2026-04-03T09:33:49.001Z</time></trkpt><trkpt lat="39.65943879915266" lon="9.39435941030534"><ele>203.0</ele><time>2026-04-03T09:33:50.001Z</time></trkpt><trkpt lat="39.65961922053651" lon="9.394478129745076"><ele>203.0</ele><time>2026-04-03T09:33:51.001Z</time></trkpt><trkpt lat="39.65979999073017" lon="9.394596430308765"><ele>204.66666666666669</ele><time>2026-04-03T09:33:52.001Z</time></trkpt><trkpt lat="39.65998216978245" lon="9.394710974493837"><ele>206.33333333333331</ele><time>2026-04-03T09:33:53.001Z</time></trkpt><trkpt lat="39.66016250595834" lon="9.394823381362528"><ele>208.0</ele><time>2026-04-03T09:33:54.001Z</time></trkpt><trkpt lat="39.6603450658553" lon="9.39493814556852"><ele>208.0</ele><time>2026-04-03T09:33:55.001Z</time></trkpt><trkpt lat="39.660530516263464" lon="9.395052864705194"><ele>208.0</ele><time>2026-04-03T09:33:56.001Z</time></trkpt><trkpt lat="39.66071566275925" lon="9.395168912097501"><ele>208.0</ele><time>2026-04-03T09:33:57.001Z</time></trkpt><trkpt lat="39.66089950694231" lon="9.395286970237759"><ele>208.0</ele><time>2026-04-03T09:33:58.001Z</time></trkpt><trkpt lat="39.66108480961611" lon="9.395402799580095"><ele>208.0</ele><time>2026-04-03T09:33:59.001Z</time></trkpt><trkpt lat="39.661267528584546" lon="9.395516058545214"><ele>208.0</ele><time>2026-04-03T09:34:00.001Z</time></trkpt><trkpt lat="39.661445713894956" lon="9.395627636361883"><ele>206.33333333333331</ele><time>2026-04-03T09:34:01.001Z</time></trkpt><trkpt lat="39.66162209527997" lon="9.395737413866325"><ele>204.66666666666669</ele><time>2026-04-03T09:34:02.001Z</time></trkpt><trkpt lat="39.66179580468084" lon="9.39584945564623"><ele>203.0</ele><time>2026-04-03T09:34:03.001Z</time></trkpt><trkpt lat="39.661950172232565" lon="9.395977543970869"><ele>203.0</ele><time>2026-04-03T09:34:04.001Z</time></trkpt><trkpt lat="39.66206389388547" lon="9.396134046079634"><ele>203.0</ele><time>2026-04-03T09:34:05.001Z</time></trkpt><trkpt lat="39.662137300159166" lon="9.396313437634197"><ele>203.0</ele><time>2026-04-03T09:34:06.001Z</time></trkpt><trkpt lat="39.662173965739335" lon="9.39652038988783"><ele>206.33333333333334</ele><time>2026-04-03T09:34:07.001Z</time></trkpt><trkpt lat="39.66216267895624" lon="9.396749580557758"><ele>209.66666666666669</ele><time>2026-04-03T09:34:08.001Z</time></trkpt><trkpt lat="39.662109630463" lon="9.396969492442997"><ele>213.0</ele><time>2026-04-03T09:34:09.001Z</time></trkpt><trkpt lat="39.662016925118955" lon="9.39716328605123"><ele>222.0</ele><time>2026-04-03T09:34:10.001Z</time></trkpt><trkpt lat="39.66189224456021" lon="9.397330290530242"><ele>231.0</ele><time>2026-04-03T09:34:11.001Z</time></trkpt><trkpt lat="39.66174178114812" lon="9.3974690664121"><ele>240.0</ele><time>2026-04-03T09:34:12.001Z</time></trkpt><trkpt lat="39.66158209170151" lon="9.397603271607208"><ele>240.0</ele><time>2026-04-03T09:34:13.001Z</time></trkpt><trkpt lat="39.66142364925768" lon="9.397749976285418"><ele>240.0</ele><time>2026-04-03T09:34:14.001Z</time></trkpt><trkpt lat="39.661267898386804" lon="9.397903096701052"><ele>240.0</ele><time>2026-04-03T09:34:15.001Z</time></trkpt><trkpt lat="39.661117211824525" lon="9.398063065737414"><ele>245.66666666666669</ele><time>2026-04-03T09:34:16.001Z</time></trkpt><trkpt lat="39.66097828712119" lon="9.398238102965706"><ele>251.33333333333334</ele><time>2026-04-03T09:34:17.001Z</time></trkpt><trkpt lat="39.660853107126826" lon="9.398431949908403"><ele>257.0</ele><time>2026-04-03T09:34:18.001Z</time></trkpt><trkpt lat="39.660734075295096" lon="9.398635409825516"><ele>251.66666666666669</ele><time>2026-04-03T09:34:19.001Z</time></trkpt><trkpt lat="39.66061579416618" lon="9.398838057815448"><ele>246.33333333333331</ele><time>2026-04-03T09:34:20.001Z</time></trkpt><trkpt lat="39.66049547248957" lon="9.399039373743301"><ele>241.0</ele><time>2026-04-03T09:34:21.001Z</time></trkpt><trkpt lat="39.6603724877463" lon="9.399235407463994"><ele>245.66666666666666</ele><time>2026-04-03T09:34:22.001Z</time></trkpt><trkpt lat="39.660239580293826" lon="9.399419569102829"><ele>250.33333333333331</ele><time>2026-04-03T09:34:23.001Z</time></trkpt><trkpt lat="39.66009342303082" lon="9.39958072942993"><ele>255.0</ele><time>2026-04-03T09:34:24.001Z</time></trkpt><trkpt lat="39.65993642057453" lon="9.399722865278866"><ele>255.0</ele><time>2026-04-03T09:34:25.001Z</time></trkpt><trkpt lat="39.65977066931097" lon="9.399844250837436"><ele>255.0</ele><time>2026-04-03T09:34:26.001Z</time></trkpt><trkpt lat="39.659596057011335" lon="9.399949194378145"><ele>255.0</ele><time>2026-04-03T09:34:27.001Z</time></trkpt><trkpt lat="39.65941488238585" lon="9.400041609664209"><ele>264.6666666666667</ele><time>2026-04-03T09:34:28.001Z</time></trkpt><trkpt lat="39.65923528373698" lon="9.400132583057733"><ele>274.33333333333337</ele><time>2026-04-03T09:34:29.001Z</time></trkpt><trkpt lat="39.65907194894934" lon="9.40021721169362"><ele>284.0</ele><time>2026-04-03T09:34:30.001Z</time></trkpt><trkpt lat="39.658928352260844" lon="9.40030159671424"><ele>284.0</ele><time>2026-04-03T09:34:31.001Z</time></trkpt><trkpt lat="39.658811755116375" lon="9.400408890459225"><ele>284.0</ele><time>2026-04-03T09:34:32.001Z</time></trkpt><trkpt lat="39.65872567245828" lon="9.400559173395994"><ele>284.0</ele><time>2026-04-03T09:34:33.001Z</time></trkpt><trkpt lat="39.658673269507325" lon="9.400739918320234"><ele>284.0</ele><time>2026-04-03T09:34:34.001Z</time></trkpt><trkpt lat="39.65866136161193" lon="9.400930484213797"><ele>281.25</ele><time>2026-04-03T09:34:35.001Z</time></trkpt><trkpt lat="39.65869991177322" lon="9.401109296026352"><ele>278.5</ele><time>2026-04-03T09:34:36.001Z</time></trkpt><trkpt lat="39.6587864535815" lon="9.401264455018259"><ele>275.75</ele><time>2026-04-03T09:34:37.001Z</time></trkpt><trkpt lat="39.658910769736245" lon="9.401382634504081"><ele>273.0</ele><time>2026-04-03T09:34:38.001Z</time></trkpt><trkpt lat="39.659059449600086" lon="9.401452758609928"><ele>276.6666666666667</ele><time>2026-04-03T09:34:39.001Z</time></trkpt><trkpt lat="39.65921022145002" lon="9.40146993601891"><ele>280.33333333333337</ele><time>2026-04-03T09:34:40.001Z</time></trkpt><trkpt lat="39.6593601325506" lon="9.401517325648205"><ele>284.0</ele><time>2026-04-03T09:34:41.001Z</time></trkpt><trkpt lat="39.6595077938346" lon="9.401555245487616"><ele>284.0</ele><time>2026-04-03T09:34:42.001Z</time></trkpt><trkpt lat="39.65963862853792" lon="9.401666462326551"><ele>284.0</ele><time>2026-04-03T09:34:43.001Z</time></trkpt><trkpt lat="39.65975930660866" lon="9.40180312682369"><ele>284.0</ele><time>2026-04-03T09:34:44.001Z</time></trkpt><trkpt lat="39.65985301522877" lon="9.401974881560493"><ele>284.0</ele><time>2026-04-03T09:34:45.001Z</time></trkpt><trkpt lat="39.659942896157496" lon="9.402139097722188"><ele>284.0</ele><time>2026-04-03T09:34:46.001Z</time></trkpt><trkpt lat="39.659987407931474" lon="9.402335083563294"><ele>284.0</ele><time>2026-04-03T09:34:47.001Z</time></trkpt><trkpt lat="39.6599953113936" lon="9.402540716992942"><ele>287.75</ele><time>2026-04-03T09:34:48.001Z</time></trkpt><trkpt lat="39.659962750572454" lon="9.402735876824757"><ele>291.5</ele><time>2026-04-03T09:34:49.001Z</time></trkpt><trkpt lat="39.65990237023462" lon="9.402869372795037"><ele>295.25</ele><time>2026-04-03T09:34:50.001Z</time></trkpt><trkpt lat="39.65981187566812" lon="9.402958929148978"><ele>299.0</ele><time>2026-04-03T09:34:51.001Z</time></trkpt><trkpt lat="39.659693023828936" lon="9.40301040216244"><ele>302.75</ele><time>2026-04-03T09:34:52.001Z</time></trkpt><trkpt lat="39.659555875106456" lon="9.4030089390413"><ele>306.5</ele><time>2026-04-03T09:34:53.001Z</time></trkpt><trkpt lat="39.65941720075039" lon="9.402951876159074"><ele>310.25</ele><time>2026-04-03T09:34:54.001Z</time></trkpt><trkpt lat="39.65928824353216" lon="9.402851277415927"><ele>314.0</ele><time>2026-04-03T09:34:55.001Z</time></trkpt><trkpt lat="39.65916248374929" lon="9.402726212506813"><ele>314.33333333333337</ele><time>2026-04-03T09:34:56.001Z</time></trkpt><trkpt lat="39.65903963140511" lon="9.402603004691441"><ele>314.6666666666667</ele><time>2026-04-03T09:34:57.001Z</time></trkpt><trkpt lat="39.65890463766184" lon="9.402486178267381"><ele>315.0</ele><time>2026-04-03T09:34:58.001Z</time></trkpt><trkpt lat="39.658764720148866" lon="9.402379757753389"><ele>315.0</ele><time>2026-04-03T09:34:59.001Z</time></trkpt><trkpt lat="39.65862791768062" lon="9.402266316640485"><ele>315.0</ele><time>2026-04-03T09:35:00.001Z</time></trkpt><trkpt lat="39.658492315592184" lon="9.402147539536857"><ele>315.0</ele><time>2026-04-03T09:35:01.001Z</time></trkpt><trkpt lat="39.65834833867201" lon="9.402028996815243"><ele>315.6666666666667</ele><time>2026-04-03T09:35:02.001Z</time></trkpt><trkpt lat="39.65819704657466" lon="9.401920656448953"><ele>316.33333333333337</ele><time>2026-04-03T09:35:03.001Z</time></trkpt><trkpt lat="39.65804124362456" lon="9.401823036793083"><ele>317.0</ele><time>2026-04-03T09:35:04.001Z</time></trkpt><trkpt lat="39.657875727551975" lon="9.401736158608827"><ele>323.6666666666667</ele><time>2026-04-03T09:35:05.001Z</time></trkpt><trkpt lat="39.657702873338216" lon="9.401663947631574"><ele>330.3333333333333</ele><time>2026-04-03T09:35:06Z</time></trkpt><trkpt lat="39.657529315626185" lon="9.401603523485644"><ele>337.0</ele><time>2026-04-03T09:35:07Z</time></trkpt><trkpt lat="39.65735742499918" lon="9.4015391385751"><ele>337.0</ele><time>2026-04-03T09:35:08Z</time></trkpt><trkpt lat="39.65719327495641" lon="9.40145420104508"><ele>337.0</ele><time>2026-04-03T09:35:09Z</time></trkpt><trkpt lat="39.657036416733256" lon="9.401345669353766"><ele>337.0</ele><time>2026-04-03T09:35:10Z</time></trkpt><trkpt lat="39.65688268849054" lon="9.401222324054443"><ele>341.0</ele><time>2026-04-03T09:35:11Z</time></trkpt><trkpt lat="39.6567292670415" lon="9.401098123307404"><ele>345.0</ele><time>2026-04-03T09:35:12Z</time></trkpt><trkpt lat="39.656574180818026" lon="9.400982376047399"><ele>349.0</ele><time>2026-04-03T09:35:13Z</time></trkpt><trkpt lat="39.65641314596615" lon="9.40088295098095"><ele>349.0</ele><time>2026-04-03T09:35:14Z</time></trkpt><trkpt lat="39.65624988995906" lon="9.400792806065201"><ele>349.0</ele><time>2026-04-03T09:35:15Z</time></trkpt><trkpt lat="39.656084965226114" lon="9.400702345037994"><ele>349.0</ele><time>2026-04-03T09:35:16Z</time></trkpt><trkpt lat="39.65591865558013" lon="9.40061425882891"><ele>355.66666666666663</ele><time>2026-04-03T09:35:17Z</time></trkpt><trkpt lat="39.65575745030541" lon="9.40052450817853"><ele>362.3333333333333</ele><time>2026-04-03T09:35:18Z</time></trkpt><trkpt lat="39.65559617144051" lon="9.400439187008466"><ele>369.0</ele><time>2026-04-03T09:35:19Z</time></trkpt><trkpt lat="39.65544062022108" lon="9.400354829730842"><ele>371.6666666666667</ele><time>2026-04-03T09:35:20Z</time></trkpt><trkpt lat="39.65528790999053" lon="9.400274300151628"><ele>374.33333333333337</ele><time>2026-04-03T09:35:21Z</time></trkpt><trkpt lat="39.65513036856808" lon="9.400199129302457"><ele>377.0</ele><time>2026-04-03T09:35:22Z</time></trkpt><trkpt lat="39.65497015833494" lon="9.400150846661115"><ele>377.6666666666667</ele><time>2026-04-03T09:35:23Z</time></trkpt><trkpt lat="39.65480248609521" lon="9.400137248873225"><ele>378.3333333333333</ele><time>2026-04-03T09:35:24Z</time></trkpt><trkpt lat="39.65463772796433" lon="9.400165365025124"><ele>379.0</ele><time>2026-04-03T09:35:25Z</time></trkpt><trkpt lat="39.65447339487726" lon="9.400224773249333"><ele>377.0</ele><time>2026-04-03T09:35:26Z</time></trkpt><trkpt lat="39.65431648847751" lon="9.40030528345598"><ele>375.0</ele><time>2026-04-03T09:35:27Z</time></trkpt><trkpt lat="39.65416409654317" lon="9.400403173689377"><ele>373.0</ele><time>2026-04-03T09:35:28Z</time></trkpt><trkpt lat="39.65402345892879" lon="9.400523017169457"><ele>373.0</ele><time>2026-04-03T09:35:29Z</time></trkpt><trkpt lat="39.65388976561858" lon="9.400662558167529"><ele>373.0</ele><time>2026-04-03T09:35:30Z</time></trkpt><trkpt lat="39.65377243727021" lon="9.400824871309506"><ele>373.0</ele><time>2026-04-03T09:35:31Z</time></trkpt><trkpt lat="39.65367573654072" lon="9.401010218873056"><ele>373.0</ele><time>2026-04-03T09:35:32Z</time></trkpt><trkpt lat="39.653596036961616" lon="9.401209617592306"><ele>373.0</ele><time>2026-04-03T09:35:33Z</time></trkpt><trkpt lat="39.653519701682804" lon="9.401407946020283"><ele>373.0</ele><time>2026-04-03T09:35:34Z</time></trkpt><trkpt lat="39.653438346979605" lon="9.40160121214109"><ele>373.0</ele><time>2026-04-03T09:35:35Z</time></trkpt><trkpt lat="39.65335964379423" lon="9.401791978676636"><ele>373.0</ele><time>2026-04-03T09:35:36Z</time></trkpt><trkpt lat="39.65326855815796" lon="9.401977436110633"><ele>373.0</ele><time>2026-04-03T09:35:37Z</time></trkpt><trkpt lat="39.653158216711695" lon="9.4021405864712"><ele>377.66666666666663</ele><time>2026-04-03T09:35:38Z</time></trkpt><trkpt lat="39.65305796747337" lon="9.402307569119015"><ele>382.3333333333333</ele><time>2026-04-03T09:35:39Z</time></trkpt><trkpt lat="39.65299699412164" lon="9.4024981603236"><ele>387.0</ele><time>2026-04-03T09:35:40Z</time></trkpt><trkpt lat="39.652983966271066" lon="9.402703531700485"><ele>387.0</ele><time>2026-04-03T09:35:41Z</time></trkpt><trkpt lat="39.653013276597925" lon="9.402909628022075"><ele>387.0</ele><time>2026-04-03T09:35:42Z</time></trkpt><trkpt lat="39.653084606283265" lon="9.403095011988807"><ele>387.0</ele><time>2026-04-03T09:35:43Z</time></trkpt><trkpt lat="39.65319199880246" lon="9.403248806038071"><ele>385.3333333333333</ele><time>2026-04-03T09:35:44Z</time></trkpt><trkpt lat="39.65332972559795" lon="9.403358985759338"><ele>383.66666666666663</ele><time>2026-04-03T09:35:45Z</time></trkpt><trkpt lat="39.653483277513686" lon="9.40343849294404"><ele>382.0</ele><time>2026-04-03T09:35:46Z</time></trkpt><trkpt lat="39.65364671748549" lon="9.403507042447616"><ele>389.0</ele><time>2026-04-03T09:35:47Z</time></trkpt><trkpt lat="39.6538098805086" lon="9.403593232015174"><ele>396.0</ele><time>2026-04-03T09:35:48Z</time></trkpt><trkpt lat="39.65398352261799" lon="9.403645840809117"><ele>403.0</ele><time>2026-04-03T09:35:49Z</time></trkpt><trkpt lat="39.65414690918762" lon="9.403720529599957"><ele>403.0</ele><time>2026-04-03T09:35:50Z</time></trkpt><trkpt lat="39.65430844601399" lon="9.403784830109068"><ele>403.0</ele><time>2026-04-03T09:35:51Z</time></trkpt><trkpt lat="39.65446075345625" lon="9.403857901090886"><ele>403.0</ele><time>2026-04-03T09:35:52Z</time></trkpt><trkpt lat="39.654595075692455" lon="9.403966713139628"><ele>402.6666666666667</ele><time>2026-04-03T09:35:53Z</time></trkpt><trkpt lat="39.654710635245245" lon="9.404110072134864"><ele>402.33333333333337</ele><time>2026-04-03T09:35:54Z</time></trkpt><trkpt lat="39.6548256331159" lon="9.404266315945328"><ele>402.0</ele><time>2026-04-03T09:35:55Z</time></trkpt><trkpt lat="39.65494416170035" lon="9.404425205399953"><ele>402.0</ele><time>2026-04-03T09:35:56Z</time></trkpt><trkpt lat="39.655063472404805" lon="9.40458815169555"><ele>402.0</ele><time>2026-04-03T09:35:57Z</time></trkpt><trkpt lat="39.655183616719505" lon="9.404749544292224"><ele>402.0</ele><time>2026-04-03T09:35:58Z</time></trkpt><trkpt lat="39.655300583716915" lon="9.404902349317972"><ele>405.5</ele><time>2026-04-03T09:35:59Z</time></trkpt><trkpt lat="39.655407115380754" lon="9.405045526591396"><ele>409.0</ele><time>2026-04-03T09:36:00Z</time></trkpt><trkpt lat="39.65548593230146" lon="9.405197981842115"><ele>412.5</ele><time>2026-04-03T09:36:01Z</time></trkpt><trkpt lat="39.655526519625816" lon="9.40536507801941"><ele>416.0</ele><time>2026-04-03T09:36:02Z</time></trkpt><trkpt lat="39.65553620271848" lon="9.405554984223425"><ele>416.0</ele><time>2026-04-03T09:36:03Z</time></trkpt><trkpt lat="39.6555378123629" lon="9.40574810356369"><ele>416.0</ele><time>2026-04-03T09:36:04Z</time></trkpt><trkpt lat="39.655536648074374" lon="9.405947848106381"><ele>416.0</ele><time>2026-04-03T09:36:05Z</time></trkpt><trkpt lat="39.655534397936776" lon="9.406131893384343"><ele>416.0</ele><time>2026-04-03T09:36:06Z</time></trkpt><trkpt lat="39.655509287341424" lon="9.406312991854882"><ele>416.75</ele><time>2026-04-03T09:36:07Z</time></trkpt><trkpt lat="39.65543395835454" lon="9.406467942413895"><ele>417.5</ele><time>2026-04-03T09:36:08Z</time></trkpt><trkpt lat="39.65532517810478" lon="9.406596732406204"><ele>418.25</ele><time>2026-04-03T09:36:09Z</time></trkpt><trkpt lat="39.65521586428407" lon="9.406681609044885"><ele>419.0</ele><time>2026-04-03T09:36:10Z</time></trkpt><trkpt lat="39.65508977843388" lon="9.406765207044048"><ele>413.66666666666663</ele><time>2026-04-03T09:36:11Z</time></trkpt><trkpt lat="39.65494223160384" lon="9.406816818673041"><ele>408.33333333333337</ele><time>2026-04-03T09:36:12Z</time></trkpt><trkpt lat="39.65478832668798" lon="9.406822375369666"><ele>403.0</ele><time>2026-04-03T09:36:13Z</time></trkpt><trkpt lat="39.65463785844025" lon="9.40681454060287"><ele>403.0</ele><time>2026-04-03T09:36:14Z</time></trkpt><trkpt lat="39.65450160086943" lon="9.406830184495211"><ele>403.0</ele><time>2026-04-03T09:36:15Z</time></trkpt><trkpt lat="39.65438034790343" lon="9.406895465512555"><ele>403.0</ele><time>2026-04-03T09:36:16Z</time></trkpt><trkpt lat="39.654280855030336" lon="9.407013263928402"><ele>403.0</ele><time>2026-04-03T09:36:17Z</time></trkpt><trkpt lat="39.654208417450214" lon="9.407161408557776"><ele>403.25</ele><time>2026-04-03T09:36:18Z</time></trkpt><trkpt lat="39.65417566878541" lon="9.407330863917329"><ele>403.5</ele><time>2026-04-03T09:36:19Z</time></trkpt><trkpt lat="39.65419691667777" lon="9.407503117412963"><ele>403.75</ele><time>2026-04-03T09:36:20Z</time></trkpt><trkpt lat="39.65426070561916" lon="9.40766146158005"><ele>404.0</ele><time>2026-04-03T09:36:21Z</time></trkpt><trkpt lat="39.654356052548245" lon="9.407794548038966"><ele>405.5</ele><time>2026-04-03T09:36:22Z</time></trkpt><trkpt lat="39.65446840205445" lon="9.407903797781563"><ele>407.0</ele><time>2026-04-03T09:36:23Z</time></trkpt><trkpt lat="39.65459333255478" lon="9.407982140173875"><ele>408.5</ele><time>2026-04-03T09:36:24Z</time></trkpt><trkpt lat="39.65473386296482" lon="9.408014955780581"><ele>410.0</ele><time>2026-04-03T09:36:25Z</time></trkpt><trkpt lat="39.65487596554187" lon="9.408023209743176"><ele>411.25</ele><time>2026-04-03T09:36:26Z</time></trkpt><trkpt lat="39.655008915578954" lon="9.407987613053233"><ele>412.5</ele><time>2026-04-03T09:36:27Z</time></trkpt><trkpt lat="39.65513570197502" lon="9.407935933804294"><ele>413.75</ele><time>2026-04-03T09:36:28Z</time></trkpt><trkpt lat="39.65525777054035" lon="9.407862861641528"><ele>415.0</ele><time>2026-04-03T09:36:29Z</time></trkpt><trkpt lat="39.65537311531167" lon="9.407768819543135"><ele>418.6666666666667</ele><time>2026-04-03T09:36:30Z</time></trkpt><trkpt lat="39.655501342254375" lon="9.407677342178632"><ele>422.33333333333337</ele><time>2026-04-03T09:36:31Z</time></trkpt><trkpt lat="39.655635333234834" lon="9.407565357367975"><ele>426.0</ele><time>2026-04-03T09:36:32Z</time></trkpt><trkpt lat="39.65576551249715" lon="9.407441827892637"><ele>426.0</ele><time>2026-04-03T09:36:33Z</time></trkpt><trkpt lat="39.65588721580872" lon="9.407315068212341"><ele>426.0</ele><time>2026-04-03T09:36:34Z</time></trkpt><trkpt lat="39.65600950744391" lon="9.40718257338668"><ele>426.0</ele><time>2026-04-03T09:36:35Z</time></trkpt><trkpt lat="39.65613867998493" lon="9.407062308861242"><ele>430.33333333333337</ele><time>2026-04-03T09:36:36Z</time></trkpt><trkpt lat="39.65624876802878" lon="9.406906552471188"><ele>434.6666666666667</ele><time>2026-04-03T09:36:37Z</time></trkpt><trkpt lat="39.65634514872104" lon="9.406736412940207"><ele>439.0</ele><time>2026-04-03T09:36:38Z</time></trkpt><trkpt lat="39.65640557261753" lon="9.406534656792514"><ele>438.0</ele><time>2026-04-03T09:36:39Z</time></trkpt><trkpt lat="39.65647673263336" lon="9.406326713837904"><ele>437.0</ele><time>2026-04-03T09:36:40Z</time></trkpt><trkpt lat="39.65653114666324" lon="9.406106615929293"><ele>436.0</ele><time>2026-04-03T09:36:41Z</time></trkpt><trkpt lat="39.65658495595474" lon="9.40589170094977"><ele>436.0</ele><time>2026-04-03T09:36:42Z</time></trkpt><trkpt lat="39.65663425839693" lon="9.405700946199637"><ele>436.0</ele><time>2026-04-03T09:36:43Z</time></trkpt><trkpt lat="39.65669593079266" lon="9.405538173271674"><ele>436.0</ele><time>2026-04-03T09:36:44Z</time></trkpt><trkpt lat="39.65678620401331" lon="9.405414172587841"><ele>436.0</ele><time>2026-04-03T09:36:45Z</time></trkpt><trkpt lat="39.65690490206639" lon="9.405350811909981"><ele>434.25</ele><time>2026-04-03T09:36:46Z</time></trkpt><trkpt lat="39.65703665027043" lon="9.405321196547268"><ele>432.5</ele><time>2026-04-03T09:36:47Z</time></trkpt><trkpt lat="39.657183126603236" lon="9.405310185663513"><ele>430.75</ele><time>2026-04-03T09:36:48Z</time></trkpt><trkpt lat="39.65733544090782" lon="9.40537130101287"><ele>429.0</ele><time>2026-04-03T09:36:49Z</time></trkpt><trkpt lat="39.657488043261026" lon="9.405465121072979"><ele>432.0</ele><time>2026-04-03T09:36:50Z</time></trkpt><trkpt lat="39.6576408940852" lon="9.405580247527718"><ele>435.0</ele><time>2026-04-03T09:36:51Z</time></trkpt><trkpt lat="39.65779294817528" lon="9.405700886526555"><ele>438.0</ele><time>2026-04-03T09:36:52Z</time></trkpt><trkpt lat="39.657950744106515" lon="9.405826044146444"><ele>438.0</ele><time>2026-04-03T09:36:53Z</time></trkpt><trkpt lat="39.65810693860806" lon="9.405947271715268"><ele>438.0</ele><time>2026-04-03T09:36:54Z</time></trkpt><trkpt lat="39.65826708379133" lon="9.406066004043856"><ele>438.0</ele><time>2026-04-03T09:36:55Z</time></trkpt><trkpt lat="39.65841336728969" lon="9.40619644611499"><ele>440.66666666666663</ele><time>2026-04-03T09:36:56Z</time></trkpt><trkpt lat="39.658548814409244" lon="9.406358553744164"><ele>443.3333333333333</ele><time>2026-04-03T09:36:57Z</time></trkpt><trkpt lat="39.6586783542859" lon="9.406532083717916"><ele>446.0</ele><time>2026-04-03T09:36:58Z</time></trkpt><trkpt lat="39.65881448520941" lon="9.40670450490907"><ele>446.0</ele><time>2026-04-03T09:36:59Z</time></trkpt><trkpt lat="39.65896256150337" lon="9.406864895312223"><ele>446.0</ele><time>2026-04-03T09:37:00Z</time></trkpt><trkpt lat="39.659119678186165" lon="9.407014952842959"><ele>446.0</ele><time>2026-04-03T09:37:01Z</time></trkpt><trkpt lat="39.65927726790437" lon="9.407163165605075"><ele>451.0</ele><time>2026-04-03T09:37:02Z</time></trkpt><trkpt lat="39.65942649404675" lon="9.40731163018954"><ele>456.0</ele><time>2026-04-03T09:37:03Z</time></trkpt><trkpt lat="39.65956250927147" lon="9.40746667914076"><ele>461.0</ele><time>2026-04-03T09:37:04Z</time></trkpt><trkpt lat="39.65967011164767" lon="9.407639149489192"><ele>461.0</ele><time>2026-04-03T09:37:05Z</time></trkpt><trkpt lat="39.65973986029909" lon="9.407833508060946"><ele>461.0</ele><time>2026-04-03T09:37:06Z</time></trkpt><trkpt lat="39.65975821408209" lon="9.408040607248486"><ele>461.0</ele><time>2026-04-03T09:37:07Z</time></trkpt><trkpt lat="39.659755413640006" lon="9.408252342739464"><ele>460.0</ele><time>2026-04-03T09:37:08Z</time></trkpt><trkpt lat="39.659736364228046" lon="9.40847207760388"><ele>459.0</ele><time>2026-04-03T09:37:09Z</time></trkpt><trkpt lat="39.65969126784834" lon="9.408689883662241"><ele>458.0</ele><time>2026-04-03T09:37:10Z</time></trkpt><trkpt lat="39.65961803200422" lon="9.408902746528161"><ele>458.0</ele><time>2026-04-03T09:37:11Z</time></trkpt><trkpt lat="39.65952943609579" lon="9.409114280547227"><ele>458.0</ele><time>2026-04-03T09:37:12Z</time></trkpt><trkpt lat="39.65943447413989" lon="9.40932920964914"><ele>458.0</ele><time>2026-04-03T09:37:13Z</time></trkpt><trkpt lat="39.65933700361539" lon="9.409546409131067"><ele>460.66666666666663</ele><time>2026-04-03T09:37:14Z</time></trkpt><trkpt lat="39.65923632593087" lon="9.409765520421825"><ele>463.33333333333337</ele><time>2026-04-03T09:37:15Z</time></trkpt><trkpt lat="39.65914300449598" lon="9.409985951453441"><ele>466.0</ele><time>2026-04-03T09:37:16Z</time></trkpt><trkpt lat="39.65905254241873" lon="9.410207323503263"><ele>466.0</ele><time>2026-04-03T09:37:17Z</time></trkpt><trkpt lat="39.65896368712397" lon="9.410427025145818"><ele>466.0</ele><time>2026-04-03T09:37:18Z</time></trkpt><trkpt lat="39.658887813303444" lon="9.410656610639755"><ele>466.0</ele><time>2026-04-03T09:37:19Z</time></trkpt><trkpt lat="39.65883486077141" lon="9.41089975654396"><ele>466.6666666666667</ele><time>2026-04-03T09:37:20Z</time></trkpt><trkpt lat="39.65880195466136" lon="9.411149805833015"><ele>467.33333333333337</ele><time>2026-04-03T09:37:21Z</time></trkpt><trkpt lat="39.65879092824508" lon="9.411402884992903"><ele>468.0</ele><time>2026-04-03T09:37:22Z</time></trkpt><trkpt lat="39.658803740650626" lon="9.411662221868655"><ele>469.66666666666663</ele><time>2026-04-03T09:37:23Z</time></trkpt><trkpt lat="39.65883023104619" lon="9.411918351735968"><ele>471.3333333333333</ele><time>2026-04-03T09:37:24Z</time></trkpt><trkpt lat="39.65886947645238" lon="9.41217259419621"><ele>473.0</ele><time>2026-04-03T09:37:25Z</time></trkpt><trkpt lat="39.65892034277876" lon="9.412424105494377"><ele>474.3333333333333</ele><time>2026-04-03T09:37:26Z</time></trkpt><trkpt lat="39.658955810421574" lon="9.412681089389222"><ele>475.66666666666663</ele><time>2026-04-03T09:37:27Z</time></trkpt><trkpt lat="39.65898822580753" lon="9.412934752220526"><ele>477.0</ele><time>2026-04-03T09:37:28Z</time></trkpt><trkpt lat="39.65904307352528" lon="9.413181866116936"><ele>479.0</ele><time>2026-04-03T09:37:29Z</time></trkpt><trkpt lat="39.65909684071328" lon="9.413428057388073"><ele>481.0</ele><time>2026-04-03T09:37:30Z</time></trkpt><trkpt lat="39.65915877184173" lon="9.413667880238261"><ele>483.0</ele><time>2026-04-03T09:37:31Z</time></trkpt><trkpt lat="39.659251785373506" lon="9.413892101386367"><ele>484.66666666666663</ele><time>2026-04-03T09:37:32Z</time></trkpt><trkpt lat="39.659369253528666" lon="9.414101313045954"><ele>486.3333333333333</ele><time>2026-04-03T09:37:33Z</time></trkpt><trkpt lat="39.659494394381895" lon="9.4143023147526"><ele>488.0</ele><time>2026-04-03T09:37:34Z</time></trkpt><trkpt lat="39.65962868739048" lon="9.414498083146029"><ele>489.3333333333333</ele><time>2026-04-03T09:37:35Z</time></trkpt><trkpt lat="39.65977170011877" lon="9.414687188653367"><ele>490.66666666666663</ele><time>2026-04-03T09:37:36Z</time></trkpt><trkpt lat="39.65991691082181" lon="9.41488285237347"><ele>492.0</ele><time>2026-04-03T09:37:37Z</time></trkpt><trkpt lat="39.66004923735957" lon="9.415099531124827"><ele>492.0</ele><time>2026-04-03T09:37:38Z</time></trkpt><trkpt lat="39.660200194049494" lon="9.415290221260982"><ele>492.0</ele><time>2026-04-03T09:37:39Z</time></trkpt><trkpt lat="39.66034312885016" lon="9.415495802883338"><ele>492.0</ele><time>2026-04-03T09:37:40Z</time></trkpt><trkpt lat="39.66048784037019" lon="9.415693122670596"><ele>494.33333333333337</ele><time>2026-04-03T09:37:41Z</time></trkpt><trkpt lat="39.66063568009782" lon="9.415896793466201"><ele>496.6666666666667</ele><time>2026-04-03T09:37:42Z</time></trkpt><trkpt lat="39.66077786746867" lon="9.416101953063707"><ele>499.0</ele><time>2026-04-03T09:37:43Z</time></trkpt><trkpt lat="39.660905238384146" lon="9.416319512319241"><ele>501.6666666666667</ele><time>2026-04-03T09:37:44Z</time></trkpt><trkpt lat="39.66104804903509" lon="9.416515765953655"><ele>504.33333333333337</ele><time>2026-04-03T09:37:45Z</time></trkpt><trkpt lat="39.66120075188699" lon="9.41670258100221"><ele>507.0</ele><time>2026-04-03T09:37:46Z</time></trkpt><trkpt lat="39.6613469655841" lon="9.416896960559306"><ele>507.0</ele><time>2026-04-03T09:37:47Z</time></trkpt><trkpt lat="39.661481223357505" lon="9.417104491991758"><ele>507.0</ele><time>2026-04-03T09:37:48Z</time></trkpt><trkpt lat="39.66158308113803" lon="9.41733787916735"><ele>507.0</ele><time>2026-04-03T09:37:49Z</time></trkpt><trkpt lat="39.661692362369116" lon="9.417565091649706"><ele>510.0</ele><time>2026-04-03T09:37:50Z</time></trkpt><trkpt lat="39.66176514321797" lon="9.417812882025062"><ele>513.0</ele><time>2026-04-03T09:37:51Z</time></trkpt><trkpt lat="39.66182424113569" lon="9.418068665189724"><ele>516.0</ele><time>2026-04-03T09:37:52Z</time></trkpt><trkpt lat="39.66187309843766" lon="9.418330956039785"><ele>515.0</ele><time>2026-04-03T09:37:53Z</time></trkpt><trkpt lat="39.66192056373363" lon="9.418595338677028"><ele>514.0</ele><time>2026-04-03T09:37:54Z</time></trkpt><trkpt lat="39.661969079987806" lon="9.418859567798284"><ele>513.0</ele><time>2026-04-03T09:37:55Z</time></trkpt><trkpt lat="39.66202074739587" lon="9.419127671149246"><ele>513.0</ele><time>2026-04-03T09:37:56Z</time></trkpt><trkpt lat="39.66207593566549" lon="9.419396484906839"><ele>513.0</ele><time>2026-04-03T09:37:57Z</time></trkpt><trkpt lat="39.66211171047027" lon="9.41967527659296"><ele>513.0</ele><time>2026-04-03T09:37:58Z</time></trkpt><trkpt lat="39.66216187205372" lon="9.419950863354853"><ele>514.0</ele><time>2026-04-03T09:37:59Z</time></trkpt><trkpt lat="39.662226365214" lon="9.420224881036871"><ele>515.0</ele><time>2026-04-03T09:38:00Z</time></trkpt><trkpt lat="39.66227481898047" lon="9.420505416271531"><ele>516.0</ele><time>2026-04-03T09:38:01Z</time></trkpt><trkpt lat="39.662320983373604" lon="9.420791955499771"><ele>516.0</ele><time>2026-04-03T09:38:02Z</time></trkpt><trkpt lat="39.66237372732746" lon="9.421073559960531"><ele>516.0</ele><time>2026-04-03T09:38:03Z</time></trkpt><trkpt lat="39.66242651707952" lon="9.421358439925635"><ele>516.0</ele><time>2026-04-03T09:38:04Z</time></trkpt><trkpt lat="39.66247945083366" lon="9.42164781450298"><ele>516.0</ele><time>2026-04-03T09:38:05Z</time></trkpt><trkpt lat="39.66253032548467" lon="9.421937086599668"><ele>516.0</ele><time>2026-04-03T09:38:06Z</time></trkpt><trkpt lat="39.662587560594545" lon="9.422227675223196"><ele>517.0</ele><time>2026-04-03T09:38:07Z</time></trkpt><trkpt lat="39.66264336243328" lon="9.42251991019982"><ele>518.0</ele><time>2026-04-03T09:38:08Z</time></trkpt><trkpt lat="39.66270932348908" lon="9.422802403742416"><ele>518.6666666666666</ele><time>2026-04-03T09:38:09Z</time></trkpt><trkpt lat="39.66277806781271" lon="9.423071890226863"><ele>519.3333333333334</ele><time>2026-04-03T09:38:10Z</time></trkpt><trkpt lat="39.662866994752065" lon="9.423338790589694"><ele>520.0</ele><time>2026-04-03T09:38:11Z</time></trkpt><trkpt lat="39.662961723238446" lon="9.423598160615159"><ele>522.3333333333334</ele><time>2026-04-03T09:38:12Z</time></trkpt><trkpt lat="39.663063911078105" lon="9.42385102835938"><ele>524.6666666666666</ele><time>2026-04-03T09:38:13Z</time></trkpt><trkpt lat="39.663172272858894" lon="9.424096808996358"><ele>527.0</ele><time>2026-04-03T09:38:14Z</time></trkpt><trkpt lat="39.66328287263945" lon="9.424335431376884"><ele>527.0</ele><time>2026-04-03T09:38:15Z</time></trkpt><trkpt lat="39.663391641219015" lon="9.424575998582792"><ele>527.0</ele><time>2026-04-03T09:38:16Z</time></trkpt><trkpt lat="39.66349978583736" lon="9.424815967995373"><ele>527.0</ele><time>2026-04-03T09:38:17Z</time></trkpt><trkpt lat="39.663603991656764" lon="9.425061601079726"><ele>527.6666666666666</ele><time>2026-04-03T09:38:18Z</time></trkpt><trkpt lat="39.663705336134896" lon="9.425313330229521"><ele>528.3333333333334</ele><time>2026-04-03T09:38:19Z</time></trkpt><trkpt lat="39.663811453106675" lon="9.425558691061134"><ele>529.0</ele><time>2026-04-03T09:38:20Z</time></trkpt><trkpt lat="39.66392050877016" lon="9.425799663176273"><ele>530.6666666666667</ele><time>2026-04-03T09:38:21Z</time></trkpt><trkpt lat="39.664033510515004" lon="9.426039144998795"><ele>532.3333333333334</ele><time>2026-04-03T09:38:22Z</time></trkpt><trkpt lat="39.664143738385654" lon="9.426280994486847"><ele>534.0</ele><time>2026-04-03T09:38:23Z</time></trkpt><trkpt lat="39.66425093448257" lon="9.426526785695755"><ele>536.0</ele><time>2026-04-03T09:38:24Z</time></trkpt><trkpt lat="39.66435560619758" lon="9.4267753082135"><ele>538.0</ele><time>2026-04-03T09:38:25Z</time></trkpt><trkpt lat="39.664463563600926" lon="9.427021352321388"><ele>540.0</ele><time>2026-04-03T09:38:26Z</time></trkpt><trkpt lat="39.664571932749695" lon="9.427265249118207"><ele>542.0</ele><time>2026-04-03T09:38:27Z</time></trkpt><trkpt lat="39.66467972421605" lon="9.427507276038071"><ele>544.0</ele><time>2026-04-03T09:38:28Z</time></trkpt><trkpt lat="39.664783364016635" lon="9.427752453555176"><ele>546.0</ele><time>2026-04-03T09:38:29Z</time></trkpt><trkpt lat="39.664891784573584" lon="9.427992120422067"><ele>546.6666666666666</ele><time>2026-04-03T09:38:30Z</time></trkpt><trkpt lat="39.66499668094415" lon="9.428236237270937"><ele>547.3333333333333</ele><time>2026-04-03T09:38:31Z</time></trkpt><trkpt lat="39.66508674446902" lon="9.428493195012624"><ele>548.0</ele><time>2026-04-03T09:38:32Z</time></trkpt><trkpt lat="39.66517358078557" lon="9.428751448774179"><ele>550.0</ele><time>2026-04-03T09:38:33Z</time></trkpt><trkpt lat="39.665248938115454" lon="9.429018476162756"><ele>552.0</ele><time>2026-04-03T09:38:34Z</time></trkpt><trkpt lat="39.66531582836022" lon="9.429289887597964"><ele>554.0</ele><time>2026-04-03T09:38:35Z</time></trkpt><trkpt lat="39.66537552907704" lon="9.42956540101814"><ele>549.6666666666666</ele><time>2026-04-03T09:38:36Z</time></trkpt><trkpt lat="39.66543555166888" lon="9.429836611601997"><ele>545.3333333333334</ele><time>2026-04-03T09:38:37Z</time></trkpt><trkpt lat="39.665493881517676" lon="9.430109032411837"><ele>541.0</ele><time>2026-04-03T09:38:38Z</time></trkpt><trkpt lat="39.665548361628204" lon="9.43038121913618"><ele>541.3333333333334</ele><time>2026-04-03T09:38:39Z</time></trkpt><trkpt lat="39.66560387728641" lon="9.430652440723865"><ele>541.6666666666666</ele><time>2026-04-03T09:38:40Z</time></trkpt><trkpt lat="39.665658601589634" lon="9.430918890321875"><ele>542.0</ele><time>2026-04-03T09:38:41Z</time></trkpt><trkpt lat="39.66571737844276" lon="9.431184099016516"><ele>544.6666666666666</ele><time>2026-04-03T09:38:42Z</time></trkpt><trkpt lat="39.665795149772194" lon="9.431447091117931"><ele>547.3333333333334</ele><time>2026-04-03T09:38:43Z</time></trkpt><trkpt lat="39.66590009111062" lon="9.431696043578436"><ele>550.0</ele><time>2026-04-03T09:38:44Z</time></trkpt><trkpt lat="39.66601945272851" lon="9.431934783657182"><ele>544.6666666666667</ele><time>2026-04-03T09:38:45Z</time></trkpt><trkpt lat="39.666138612772876" lon="9.432169634032416"><ele>539.3333333333334</ele><time>2026-04-03T09:38:46Z</time></trkpt><trkpt lat="39.666241337469835" lon="9.432412296510092"><ele>534.0</ele><time>2026-04-03T09:38:47Z</time></trkpt><trkpt lat="39.66632088930298" lon="9.432672348398086"><ele>534.0</ele><time>2026-04-03T09:38:48Z</time></trkpt><trkpt lat="39.66638136393723" lon="9.432941840677827"><ele>534.0</ele><time>2026-04-03T09:38:49Z</time></trkpt><trkpt lat="39.666416795046494" lon="9.433216564963287"><ele>534.0</ele><time>2026-04-03T09:38:50Z</time></trkpt><trkpt lat="39.66641873423991" lon="9.433489322867267"><ele>534.0</ele><time>2026-04-03T09:38:51Z</time></trkpt><trkpt lat="39.666389704940556" lon="9.433763257963887"><ele>534.0</ele><time>2026-04-03T09:38:52Z</time></trkpt><trkpt lat="39.666333519278375" lon="9.434029353416417"><ele>534.0</ele><time>2026-04-03T09:38:53Z</time></trkpt><trkpt lat="39.66625005521454" lon="9.434282662925119"><ele>534.0</ele><time>2026-04-03T09:38:54Z</time></trkpt><trkpt lat="39.666149160394205" lon="9.434519852945057"><ele>534.0</ele><time>2026-04-03T09:38:55Z</time></trkpt><trkpt lat="39.66603452434738" lon="9.434728518461808"><ele>534.0</ele><time>2026-04-03T09:38:56Z</time></trkpt><trkpt lat="39.66592500580572" lon="9.434928237184742"><ele>537.0</ele><time>2026-04-03T09:38:57Z</time></trkpt><trkpt lat="39.665846713381384" lon="9.435132460960183"><ele>540.0</ele><time>2026-04-03T09:38:58Z</time></trkpt><trkpt lat="39.665815780139404" lon="9.435337774914027"><ele>543.0</ele><time>2026-04-03T09:38:59Z</time></trkpt><trkpt lat="39.66582255467236" lon="9.435547007693774"><ele>543.0</ele><time>2026-04-03T09:39:00Z</time></trkpt><trkpt lat="39.6658711276705" lon="9.435742219160575"><ele>543.0</ele><time>2026-04-03T09:39:01Z</time></trkpt><trkpt lat="39.66595682297824" lon="9.435899375567116"><ele>543.0</ele><time>2026-04-03T09:39:02Z</time></trkpt><trkpt lat="39.66606634030121" lon="9.436028606804163"><ele>544.6666666666666</ele><time>2026-04-03T09:39:03Z</time></trkpt><trkpt lat="39.666198732935634" lon="9.43611625124177"><ele>546.3333333333333</ele><time>2026-04-03T09:39:04Z</time></trkpt><trkpt lat="39.666350153636756" lon="9.436149814249246"><ele>548.0</ele><time>2026-04-03T09:39:05Z</time></trkpt><trkpt lat="39.66650775920398" lon="9.43613171231834"><ele>548.0</ele><time>2026-04-03T09:39:06Z</time></trkpt><trkpt lat="39.66665857862585" lon="9.43605561297384"><ele>548.0</ele><time>2026-04-03T09:39:07Z</time></trkpt><trkpt lat="39.66679210220053" lon="9.43591774604576"><ele>548.0</ele><time>2026-04-03T09:39:08Z</time></trkpt><trkpt lat="39.66692211192895" lon="9.435766774472299"><ele>552.0</ele><time>2026-04-03T09:39:09Z</time></trkpt><trkpt lat="39.66706948409598" lon="9.435642034938738"><ele>556.0</ele><time>2026-04-03T09:39:10Z</time></trkpt><trkpt lat="39.66722889775667" lon="9.435561264710687"><ele>560.0</ele><time>2026-04-03T09:39:11Z</time></trkpt><trkpt lat="39.66738952592478" lon="9.435510325423635"><ele>560.0</ele><time>2026-04-03T09:39:12Z</time></trkpt><trkpt lat="39.667545545994386" lon="9.43549993100166"><ele>560.0</ele><time>2026-04-03T09:39:13Z</time></trkpt><trkpt lat="39.66770528796129" lon="9.435529131030586"><ele>560.0</ele><time>2026-04-03T09:39:14Z</time></trkpt><trkpt lat="39.66786438891671" lon="9.435583586190605"><ele>560.0</ele><time>2026-04-03T09:39:15Z</time></trkpt><trkpt lat="39.66802325754531" lon="9.435652723298478"><ele>560.0</ele><time>2026-04-03T09:39:16Z</time></trkpt><trkpt lat="39.668186263838" lon="9.435736168499567"><ele>560.0</ele><time>2026-04-03T09:39:17Z</time></trkpt><trkpt lat="39.668351261735125" lon="9.435834714894998"><ele>560.0</ele><time>2026-04-03T09:39:18Z</time></trkpt><trkpt lat="39.66852120813572" lon="9.435947263813297"><ele>560.0</ele><time>2026-04-03T09:39:19Z</time></trkpt><trkpt lat="39.66869938673082" lon="9.43606871560718"><ele>560.0</ele><time>2026-04-03T09:39:20Z</time></trkpt><trkpt lat="39.66887561315928" lon="9.43620125161812"><ele>565.0</ele><time>2026-04-03T09:39:21Z</time></trkpt><trkpt lat="39.669051118196734" lon="9.436336641751609"><ele>570.0</ele><time>2026-04-03T09:39:22Z</time></trkpt><trkpt lat="39.669235322112215" lon="9.436459626676118"><ele>575.0</ele><time>2026-04-03T09:39:23Z</time></trkpt><trkpt lat="39.66941657792382" lon="9.43655065124699"><ele>575.3333333333333</ele><time>2026-04-03T09:39:24Z</time></trkpt><trkpt lat="39.669602910750065" lon="9.43660959480965"><ele>575.6666666666666</ele><time>2026-04-03T09:39:25Z</time></trkpt><trkpt lat="39.66979440141689" lon="9.436635935973477"><ele>576.0</ele><time>2026-04-03T09:39:26Z</time></trkpt><trkpt lat="39.669987304794844" lon="9.436645401312154"><ele>576.0</ele><time>2026-04-03T09:39:27Z</time></trkpt><trkpt lat="39.67018148292963" lon="9.436658015963113"><ele>576.0</ele><time>2026-04-03T09:39:28Z</time></trkpt><trkpt lat="39.67037758555227" lon="9.436676053792432"><ele>576.0</ele><time>2026-04-03T09:39:29Z</time></trkpt><trkpt lat="39.67057515993274" lon="9.436699484717925"><ele>576.6666666666666</ele><time>2026-04-03T09:39:30Z</time></trkpt><trkpt lat="39.670765756860526" lon="9.436740976607844"><ele>577.3333333333333</ele><time>2026-04-03T09:39:31Z</time></trkpt><trkpt lat="39.67094691547167" lon="9.436814158504527"><ele>578.0</ele><time>2026-04-03T09:39:32Z</time></trkpt><trkpt lat="39.671123604703936" lon="9.436911886051606"><ele>578.0</ele><time>2026-04-03T09:39:33Z</time></trkpt><trkpt lat="39.67129923405768" lon="9.43702341884287"><ele>578.0</ele><time>2026-04-03T09:39:34Z</time></trkpt><trkpt lat="39.671479466977964" lon="9.43714140487201"><ele>578.0</ele><time>2026-04-03T09:39:35Z</time></trkpt><trkpt lat="39.67166235866439" lon="9.437261674200517"><ele>577.0</ele><time>2026-04-03T09:39:36Z</time></trkpt><trkpt lat="39.67184491024422" lon="9.43738514252519"><ele>576.0</ele><time>2026-04-03T09:39:37Z</time></trkpt><trkpt lat="39.67202502225932" lon="9.437501928794505"><ele>575.0</ele><time>2026-04-03T09:39:38Z</time></trkpt><trkpt lat="39.67220331175084" lon="9.437619447793992"><ele>575.0</ele><time>2026-04-03T09:39:39Z</time></trkpt><trkpt lat="39.6723768959091" lon="9.437750010782764"><ele>575.0</ele><time>2026-04-03T09:39:40Z</time></trkpt><trkpt lat="39.67254264650981" lon="9.437896046813895"><ele>575.0</ele><time>2026-04-03T09:39:41Z</time></trkpt><trkpt lat="39.67270282541811" lon="9.438059077942716"><ele>575.3333333333333</ele><time>2026-04-03T09:39:42Z</time></trkpt><trkpt lat="39.67286014698925" lon="9.438232335026374"><ele>575.6666666666666</ele><time>2026-04-03T09:39:43Z</time></trkpt><trkpt lat="39.67301982762997" lon="9.438403023574367"><ele>576.0</ele><time>2026-04-03T09:39:44Z</time></trkpt><trkpt lat="39.67318452699497" lon="9.43857174424775"><ele>576.0</ele><time>2026-04-03T09:39:45Z</time></trkpt><trkpt lat="39.67335250779744" lon="9.438740011744434"><ele>576.0</ele><time>2026-04-03T09:39:46Z</time></trkpt><trkpt lat="39.67351925286681" lon="9.438911768646289"><ele>576.0</ele><time>2026-04-03T09:39:47Z</time></trkpt><trkpt lat="39.67368163311342" lon="9.43908664374102"><ele>577.0</ele><time>2026-04-03T09:39:48Z</time></trkpt><trkpt lat="39.673841966906224" lon="9.43925956805672"><ele>578.0</ele><time>2026-04-03T09:39:49Z</time></trkpt><trkpt lat="39.67399885571158" lon="9.439424446270005"><ele>579.0</ele><time>2026-04-03T09:39:50Z</time></trkpt><trkpt lat="39.674156096079535" lon="9.439578907124798"><ele>580.3333333333334</ele><time>2026-04-03T09:39:51Z</time></trkpt><trkpt lat="39.67432459176613" lon="9.439709348656784"><ele>581.6666666666667</ele><time>2026-04-03T09:39:52Z</time></trkpt><trkpt lat="39.6745071309974" lon="9.439804638186207"><ele>583.0</ele><time>2026-04-03T09:39:53Z</time></trkpt><trkpt lat="39.67469507129225" lon="9.439881220090644"><ele>583.0</ele><time>2026-04-03T09:39:54Z</time></trkpt><trkpt lat="39.67488676733687" lon="9.439963527382822"><ele>583.0</ele><time>2026-04-03T09:39:55Z</time></trkpt><trkpt lat="39.67507528859907" lon="9.440056075879944"><ele>583.0</ele><time>2026-04-03T09:39:56Z</time></trkpt><trkpt lat="39.67526405953776" lon="9.440144587218956"><ele>583.6666666666667</ele><time>2026-04-03T09:39:57Z</time></trkpt><trkpt lat="39.67545108119422" lon="9.440228227835451"><ele>584.3333333333334</ele><time>2026-04-03T09:39:58Z</time></trkpt><trkpt lat="39.6756422623442" lon="9.440297998383704"><ele>585.0</ele><time>2026-04-03T09:39:59Z</time></trkpt><trkpt lat="39.67583854572456" lon="9.44034190819679"><ele>585.0</ele><time>2026-04-03T09:40:00Z</time></trkpt><trkpt lat="39.67603625284105" lon="9.440363019890247"><ele>585.0</ele><time>2026-04-03T09:40:01Z</time></trkpt><trkpt lat="39.67623159381985" lon="9.440370085502954"><ele>585.0</ele><time>2026-04-03T09:40:02Z</time></trkpt><trkpt lat="39.676424684882356" lon="9.440368781382157"><ele>587.0</ele><time>2026-04-03T09:40:03Z</time></trkpt><trkpt lat="39.67660636007912" lon="9.440357528606869"><ele>589.0</ele><time>2026-04-03T09:40:04Z</time></trkpt><trkpt lat="39.676782541787915" lon="9.440340295693472"><ele>591.0</ele><time>2026-04-03T09:40:05Z</time></trkpt><trkpt lat="39.67694653438238" lon="9.440321253126823"><ele>592.0</ele><time>2026-04-03T09:40:06Z</time></trkpt><trkpt lat="39.67710208844419" lon="9.440300453818127"><ele>593.0</ele><time>2026-04-03T09:40:07Z</time></trkpt><trkpt lat="39.67724936075727" lon="9.440295206878975"><ele>594.0</ele><time>2026-04-03T09:40:08Z</time></trkpt><trkpt lat="39.67739664102812" lon="9.440301582103775"><ele>594.0</ele><time>2026-04-03T09:40:09Z</time></trkpt><trkpt lat="39.67754228663392" lon="9.440329414547076"><ele>594.0</ele><time>2026-04-03T09:40:10Z</time></trkpt><trkpt lat="39.67768195831422" lon="9.440381417360738"><ele>594.0</ele><time>2026-04-03T09:40:11Z</time></trkpt><trkpt lat="39.67781794994966" lon="9.44045120195111"><ele>594.0</ele><time>2026-04-03T09:40:12Z</time></trkpt><trkpt lat="39.677947741897924" lon="9.440538446755083"><ele>595.0</ele><time>2026-04-03T09:40:13Z</time></trkpt><trkpt lat="39.67807039278419" lon="9.440639475478651"><ele>596.0</ele><time>2026-04-03T09:40:14Z</time></trkpt><trkpt lat="39.67819139637768" lon="9.440745378943463"><ele>597.0</ele><time>2026-04-03T09:40:15Z</time></trkpt><trkpt lat="39.67831803805005" lon="9.4408164418788"><ele>598.0</ele><time>2026-04-03T09:40:16Z</time></trkpt><trkpt lat="39.67844150597307" lon="9.440855974390564"><ele>598.0</ele><time>2026-04-03T09:40:17Z</time></trkpt><trkpt lat="39.678550989349475" lon="9.440910517684662"><ele>598.0</ele><time>2026-04-03T09:40:18Z</time></trkpt><trkpt lat="39.67865770314124" lon="9.440921647396577"><ele>598.0</ele><time>2026-04-03T09:40:19Z</time></trkpt><trkpt lat="39.67874796981233" lon="9.440971329134225"><ele>598.0</ele><time>2026-04-03T09:40:20Z</time></trkpt><trkpt lat="39.67884325092652" lon="9.440963022215776"><ele>598.0</ele><time>2026-04-03T09:40:21Z</time></trkpt><trkpt lat="39.67893320424185" lon="9.440978991909152"><ele>598.1999999999999</ele><time>2026-04-03T09:40:22Z</time></trkpt><trkpt lat="39.6790324888279" lon="9.440984201060573"><ele>598.4</ele><time>2026-04-03T09:40:23Z</time></trkpt><trkpt lat="39.67913278372669" lon="9.44097598029603"><ele>598.5999999999999</ele><time>2026-04-03T09:40:24Z</time></trkpt><trkpt lat="39.6792390712699" lon="9.440981924677182"><ele>598.8</ele><time>2026-04-03T09:40:25Z</time></trkpt><trkpt lat="39.679348523615445" lon="9.44096391300581"><ele>599.0</ele><time>2026-04-03T09:40:26Z</time></trkpt><trkpt lat="39.67946916800257" lon="9.440921099214169"><ele>599.25</ele><time>2026-04-03T09:40:27Z</time></trkpt><trkpt lat="39.67958387017612" lon="9.440875584927051"><ele>599.5</ele><time>2026-04-03T09:40:28Z</time></trkpt><trkpt lat="39.679703742197546" lon="9.440815414945076"><ele>599.75</ele><time>2026-04-03T09:40:29Z</time></trkpt><trkpt lat="39.67982049402955" lon="9.440762735951948"><ele>600.0</ele><time>2026-04-03T09:40:30Z</time></trkpt><trkpt lat="39.67993609161966" lon="9.4407152686871"><ele>600.0</ele><time>2026-04-03T09:40:31Z</time></trkpt><trkpt lat="39.68004629643194" lon="9.440659390605667"><ele>600.0</ele><time>2026-04-03T09:40:32Z</time></trkpt><trkpt lat="39.68015873643226" lon="9.440668496804504"><ele>600.0</ele><time>2026-04-03T09:40:33Z</time></trkpt><trkpt lat="39.68026396745641" lon="9.440658122069143"><ele>600.0</ele><time>2026-04-03T09:40:34Z</time></trkpt><trkpt lat="39.680357125093444" lon="9.440627290883498"><ele>600.0</ele><time>2026-04-03T09:40:35Z</time></trkpt><trkpt lat="39.68043790210598" lon="9.44063907602658"><ele>600.1666666666666</ele><time>2026-04-03T09:40:36Z</time></trkpt><trkpt lat="39.68051144852952" lon="9.44063406320407"><ele>600.3333333333334</ele><time>2026-04-03T09:40:37Z</time></trkpt><trkpt lat="39.680583208874545" lon="9.440630173753057"><ele>600.5</ele><time>2026-04-03T09:40:38Z</time></trkpt><trkpt lat="39.68065272740974" lon="9.440624418237967"><ele>600.6666666666667</ele><time>2026-04-03T09:40:39Z</time></trkpt><trkpt lat="39.68072959921588" lon="9.44061608245611"><ele>600.8333333333334</ele><time>2026-04-03T09:40:40Z</time></trkpt><trkpt lat="39.68080695702315" lon="9.44060659560142"><ele>601.0</ele><time>2026-04-03T09:40:41Z</time></trkpt><trkpt lat="39.68090630976566" lon="9.44059441164024"><ele>601.0</ele><time>2026-04-03T09:40:42Z</time></trkpt><trkpt lat="39.68102218255773" lon="9.440586099974267"><ele>601.0</ele><time>2026-04-03T09:40:43Z</time></trkpt><trkpt lat="39.681122868419045" lon="9.440577488860336"><ele>601.0</ele><time>2026-04-03T09:40:44Z</time></trkpt><trkpt lat="39.681232845278686" lon="9.44056820669912"><ele>601.0</ele><time>2026-04-03T09:40:45Z</time></trkpt><trkpt lat="39.681340498137395" lon="9.440560539556923"><ele>601.0</ele><time>2026-04-03T09:40:46Z</time></trkpt><trkpt lat="39.68143966864851" lon="9.440553957038068"><ele>601.0</ele><time>2026-04-03T09:40:47Z</time></trkpt><trkpt lat="39.68152942940972" lon="9.440552761012714"><ele>601.0</ele><time>2026-04-03T09:40:48Z</time></trkpt><trkpt lat="39.68161351784587" lon="9.440558500821831"><ele>601.0</ele><time>2026-04-03T09:40:49Z</time></trkpt><trkpt lat="39.681690637902804" lon="9.440572113935593"><ele>601.0</ele><time>2026-04-03T09:40:50Z</time></trkpt><trkpt lat="39.681767382109975" lon="9.440597061798575"><ele>601.0</ele><time>2026-04-03T09:40:51Z</time></trkpt><trkpt lat="39.68182575147246" lon="9.440655601594452"><ele>601.0</ele><time>2026-04-03T09:40:52Z</time></trkpt><trkpt lat="39.68187782026506" lon="9.440722987161129"><ele>601.5</ele><time>2026-04-03T09:40:53Z</time></trkpt><trkpt lat="39.6819525111339" lon="9.440819931296788"><ele>602.0</ele><time>2026-04-03T09:40:55Z</time></trkpt><trkpt lat="39.681987260932424" lon="9.440912103398405"><ele>602.5</ele><time>2026-04-03T09:40:57Z</time></trkpt><trkpt lat="39.68202756091284" lon="9.441033809542965"><ele>603.0</ele><time>2026-04-03T09:40:59Z</time></trkpt><trkpt lat="39.68206000929555" lon="9.44111782436873"><ele>603.5</ele><time>2026-04-03T09:41:04Z</time></trkpt><trkpt lat="39.682087543451544" lon="9.441191402419541"><ele>604.0</ele><time>2026-04-03T09:41:06.001Z</time></trkpt><trkpt lat="39.68213899348564" lon="9.441320072206437"><ele>604.0</ele><time>2026-04-03T09:41:08Z</time></trkpt><trkpt lat="39.682204545908036" lon="9.441465172549778"><ele>604.0</ele><time>2026-04-03T09:41:10Z</time></trkpt><trkpt lat="39.68224155786233" lon="9.441540841431706"><ele>604.0</ele><time>2026-04-03T09:41:11Z</time></trkpt><trkpt lat="39.68228669889332" lon="9.44162517232472"><ele>604.0</ele><time>2026-04-03T09:41:12Z</time></trkpt><trkpt lat="39.68235430138624" lon="9.441721273623099"><ele>604.0</ele><time>2026-04-03T09:41:13Z</time></trkpt><trkpt lat="39.68246974484512" lon="9.441822069017178"><ele>604.0</ele><time>2026-04-03T09:41:14Z</time></trkpt><trkpt lat="39.68257391255853" lon="9.44189037542707"><ele>604.0</ele><time>2026-04-03T09:41:15Z</time></trkpt><trkpt lat="39.68265491761396" lon="9.441971237559935"><ele>604.0</ele><time>2026-04-03T09:41:16Z</time></trkpt><trkpt lat="39.68271675050474" lon="9.442012805073052"><ele>604.0</ele><time>2026-04-03T09:41:17Z</time></trkpt><trkpt lat="39.68285652581379" lon="9.442030214560674"><ele>604.0</ele><time>2026-04-03T09:41:19Z</time></trkpt><trkpt lat="39.682944186217014" lon="9.442069392321505"><ele>605.25</ele><time>2026-04-03T09:41:20Z</time></trkpt><trkpt lat="39.6830427384402" lon="9.442107457844568"><ele>606.5</ele><time>2026-04-03T09:41:21Z</time></trkpt><trkpt lat="39.68313152967195" lon="9.442171367876568"><ele>607.75</ele><time>2026-04-03T09:41:22Z</time></trkpt><trkpt lat="39.68325614764595" lon="9.442190426014745"><ele>609.0</ele><time>2026-04-03T09:41:23Z</time></trkpt><trkpt lat="39.683391102182384" lon="9.442215894682597"><ele>603.75</ele><time>2026-04-03T09:41:24Z</time></trkpt><trkpt lat="39.68351744692703" lon="9.442239517250828"><ele>598.5</ele><time>2026-04-03T09:41:25Z</time></trkpt><trkpt lat="39.68363636846419" lon="9.44225911869245"><ele>593.25</ele><time>2026-04-03T09:41:26Z</time></trkpt><trkpt lat="39.6837748000689" lon="9.442273101271848"><ele>588.0</ele><time>2026-04-03T09:41:27Z</time></trkpt><trkpt lat="39.68391835475472" lon="9.442267624853917"><ele>587.0</ele><time>2026-04-03T09:41:28Z</time></trkpt><trkpt lat="39.68406613761351" lon="9.442227905906144"><ele>586.0</ele><time>2026-04-03T09:41:29Z</time></trkpt><trkpt lat="39.684217903205166" lon="9.442165297885659"><ele>585.0</ele><time>2026-04-03T09:41:30Z</time></trkpt><trkpt lat="39.68437606715236" lon="9.442119181780807"><ele>583.25</ele><time>2026-04-03T09:41:31Z</time></trkpt><trkpt lat="39.68452855037724" lon="9.44212237980633"><ele>581.5</ele><time>2026-04-03T09:41:32Z</time></trkpt><trkpt lat="39.68467295233685" lon="9.442135606187401"><ele>579.75</ele><time>2026-04-03T09:41:33Z</time></trkpt><trkpt lat="39.68481307130013" lon="9.44211476725612"><ele>578.0</ele><time>2026-04-03T09:41:34Z</time></trkpt><trkpt lat="39.684945924233006" lon="9.442060434347681"><ele>580.25</ele><time>2026-04-03T09:41:35Z</time></trkpt><trkpt lat="39.685075633672106" lon="9.441996241506036"><ele>582.5</ele><time>2026-04-03T09:41:36Z</time></trkpt><trkpt lat="39.685204327791965" lon="9.441939854883275"><ele>584.75</ele><time>2026-04-03T09:41:37Z</time></trkpt><trkpt lat="39.68533332097496" lon="9.441892380079205"><ele>587.0</ele><time>2026-04-03T09:41:38Z</time></trkpt><trkpt lat="39.68546252785685" lon="9.441910993225793"><ele>587.0</ele><time>2026-04-03T09:41:39Z</time></trkpt><trkpt lat="39.685586617405754" lon="9.441942882489874"><ele>587.0</ele><time>2026-04-03T09:41:40Z</time></trkpt><trkpt lat="39.68572522483102" lon="9.441982789265683"><ele>587.0</ele><time>2026-04-03T09:41:41Z</time></trkpt><trkpt lat="39.68587193540641" lon="9.442018702714739"><ele>587.0</ele><time>2026-04-03T09:41:42Z</time></trkpt><trkpt lat="39.68602529946811" lon="9.442022729591423"><ele>584.3333333333333</ele><time>2026-04-03T09:41:43Z</time></trkpt><trkpt lat="39.6861792140679" lon="9.441960344719115"><ele>581.6666666666666</ele><time>2026-04-03T09:41:44Z</time></trkpt><trkpt lat="39.686331997858936" lon="9.441875930620286"><ele>579.0</ele><time>2026-04-03T09:41:45Z</time></trkpt><trkpt lat="39.68648556189261" lon="9.441783381610225"><ele>579.0</ele><time>2026-04-03T09:41:46Z</time></trkpt><trkpt lat="39.686649594424956" lon="9.441711635939132"><ele>579.0</ele><time>2026-04-03T09:41:47Z</time></trkpt><trkpt lat="39.68680946755565" lon="9.441659784862011"><ele>579.0</ele><time>2026-04-03T09:41:48Z</time></trkpt><trkpt lat="39.68696120442452" lon="9.441617580447732"><ele>578.25</ele><time>2026-04-03T09:41:49Z</time></trkpt><trkpt lat="39.687092340007595" lon="9.44157385494905"><ele>577.5</ele><time>2026-04-03T09:41:50Z</time></trkpt><trkpt lat="39.68721155344053" lon="9.441536446138745"><ele>576.75</ele><time>2026-04-03T09:41:51Z</time></trkpt><trkpt lat="39.687316019369646" lon="9.441519072832579"><ele>576.0</ele><time>2026-04-03T09:41:52Z</time></trkpt><trkpt lat="39.68741894185474" lon="9.441530093139034"><ele>576.0</ele><time>2026-04-03T09:41:53Z</time></trkpt><trkpt lat="39.6874760396334" lon="9.441644111149667"><ele>576.0</ele><time>2026-04-03T09:41:54Z</time></trkpt><trkpt lat="39.68750201752113" lon="9.441747614446674"><ele>576.0</ele><time>2026-04-03T09:41:55Z</time></trkpt><trkpt lat="39.687510001930754" lon="9.44186563990411"><ele>576.0</ele><time>2026-04-03T09:41:56Z</time></trkpt><trkpt lat="39.68747605711621" lon="9.441977932823537"><ele>576.0</ele><time>2026-04-03T09:41:57Z</time></trkpt><trkpt lat="39.68738327859479" lon="9.442114794667226"><ele>577.0</ele><time>2026-04-03T09:41:58Z</time></trkpt><trkpt lat="39.687262397072594" lon="9.442187760326961"><ele>578.0</ele><time>2026-04-03T09:41:59Z</time></trkpt><trkpt lat="39.68713953285508" lon="9.442257391630587"><ele>579.0</ele><time>2026-04-03T09:42:00Z</time></trkpt><trkpt lat="39.6870187893293" lon="9.442345814306192"><ele>580.0</ele><time>2026-04-03T09:42:01Z</time></trkpt><trkpt lat="39.68689259035053" lon="9.442442854251142"><ele>576.6666666666667</ele><time>2026-04-03T09:42:02Z</time></trkpt><trkpt lat="39.686777959764065" lon="9.442558608541399"><ele>573.3333333333334</ele><time>2026-04-03T09:42:03Z</time></trkpt><trkpt lat="39.68669438267638" lon="9.442722021219932"><ele>570.0</ele><time>2026-04-03T09:42:04Z</time></trkpt><trkpt lat="39.686655502511805" lon="9.44292135364315"><ele>572.0</ele><time>2026-04-03T09:42:05Z</time></trkpt><trkpt lat="39.686638475085196" lon="9.4431278647263"><ele>574.0</ele><time>2026-04-03T09:42:06Z</time></trkpt><trkpt lat="39.68655613280501" lon="9.443294182372055"><ele>576.0</ele><time>2026-04-03T09:42:07Z</time></trkpt><trkpt lat="39.68644586333544" lon="9.443447931951592"><ele>576.0</ele><time>2026-04-03T09:42:08Z</time></trkpt><trkpt lat="39.68632900645133" lon="9.443615147356317"><ele>576.0</ele><time>2026-04-03T09:42:09Z</time></trkpt><trkpt lat="39.6862048618726" lon="9.443784077917863"><ele>576.0</ele><time>2026-04-03T09:42:10Z</time></trkpt><trkpt lat="39.6860868177006" lon="9.443968250223861"><ele>576.0</ele><time>2026-04-03T09:42:11Z</time></trkpt><trkpt lat="39.685964124869244" lon="9.444143269581524"><ele>576.0</ele><time>2026-04-03T09:42:12Z</time></trkpt><trkpt lat="39.68583759805428" lon="9.444319896326142"><ele>576.0</ele><time>2026-04-03T09:42:13Z</time></trkpt><trkpt lat="39.68571391422321" lon="9.44449811886156"><ele>581.6666666666666</ele><time>2026-04-03T09:42:14Z</time></trkpt><trkpt lat="39.68560264938279" lon="9.444659650196101"><ele>587.3333333333333</ele><time>2026-04-03T09:42:15Z</time></trkpt><trkpt lat="39.685504848524644" lon="9.444803955299617"><ele>593.0</ele><time>2026-04-03T09:42:16Z</time></trkpt><trkpt lat="39.68541218398792" lon="9.444932719156684"><ele>593.0</ele><time>2026-04-03T09:42:17Z</time></trkpt><trkpt lat="39.68533400303092" lon="9.44507356794502"><ele>593.0</ele><time>2026-04-03T09:42:18Z</time></trkpt><trkpt lat="39.68527966266741" lon="9.445245380941971"><ele>593.0</ele><time>2026-04-03T09:42:19Z</time></trkpt><trkpt lat="39.68525168705344" lon="9.445428211588943"><ele>593.0</ele><time>2026-04-03T09:42:20Z</time></trkpt><trkpt lat="39.68525706493419" lon="9.44562011771775"><ele>596.3333333333333</ele><time>2026-04-03T09:42:21Z</time></trkpt><trkpt lat="39.6852936486654" lon="9.445818418357636"><ele>599.6666666666666</ele><time>2026-04-03T09:42:22Z</time></trkpt><trkpt lat="39.68536438074086" lon="9.44600391876009"><ele>603.0</ele><time>2026-04-03T09:42:23Z</time></trkpt><trkpt lat="39.685471595728835" lon="9.446165017704274"><ele>600.0</ele><time>2026-04-03T09:42:24Z</time></trkpt><trkpt lat="39.68559919114674" lon="9.44630009604551"><ele>597.0</ele><time>2026-04-03T09:42:25Z</time></trkpt><trkpt lat="39.68574468001071" lon="9.446403647783724"><ele>594.0</ele><time>2026-04-03T09:42:26Z</time></trkpt><trkpt lat="39.685890820312295" lon="9.446509536833597"><ele>594.0</ele><time>2026-04-03T09:42:27Z</time></trkpt><trkpt lat="39.68603203272015" lon="9.446630165908376"><ele>594.0</ele><time>2026-04-03T09:42:28Z</time></trkpt><trkpt lat="39.686148367170304" lon="9.446783166240328"><ele>594.0</ele><time>2026-04-03T09:42:29Z</time></trkpt><trkpt lat="39.68623600423039" lon="9.446941180880295"><ele>598.25</ele><time>2026-04-03T09:42:30Z</time></trkpt><trkpt lat="39.686292279357104" lon="9.447103023666548"><ele>602.5</ele><time>2026-04-03T09:42:31Z</time></trkpt><trkpt lat="39.68630594248161" lon="9.447273045294565"><ele>606.75</ele><time>2026-04-03T09:42:32Z</time></trkpt><trkpt lat="39.68633656619306" lon="9.44741861462491"><ele>611.0</ele><time>2026-04-03T09:42:33Z</time></trkpt><trkpt lat="39.68635278419528" lon="9.447568253113138"><ele>611.0</ele><time>2026-04-03T09:42:34Z</time></trkpt><trkpt lat="39.68639436571735" lon="9.447718704183242"><ele>611.0</ele><time>2026-04-03T09:42:35Z</time></trkpt><trkpt lat="39.686469423819425" lon="9.44785487731223"><ele>611.0</ele><time>2026-04-03T09:42:36Z</time></trkpt><trkpt lat="39.68657138509912" lon="9.4479802722928"><ele>611.0</ele><time>2026-04-03T09:42:37Z</time></trkpt><trkpt lat="39.68669200221304" lon="9.448084796389201"><ele>610.0</ele><time>2026-04-03T09:42:38Z</time></trkpt><trkpt lat="39.68682818596765" lon="9.4481559669181"><ele>609.0</ele><time>2026-04-03T09:42:39Z</time></trkpt><trkpt lat="39.686977400709715" lon="9.448185000468648"><ele>608.0</ele><time>2026-04-03T09:42:40Z</time></trkpt><trkpt lat="39.68713683442757" lon="9.448164027614562"><ele>608.0</ele><time>2026-04-03T09:42:41Z</time></trkpt><trkpt lat="39.68729824926186" lon="9.44810593448832"><ele>608.0</ele><time>2026-04-03T09:42:42Z</time></trkpt><trkpt lat="39.68746077666962" lon="9.448068748482221"><ele>608.0</ele><time>2026-04-03T09:42:43Z</time></trkpt><trkpt lat="39.6876114858964" lon="9.448031548378033"><ele>608.0</ele><time>2026-04-03T09:42:44Z</time></trkpt><trkpt lat="39.68774492913501" lon="9.44798891678406"><ele>608.0</ele><time>2026-04-03T09:42:45Z</time></trkpt><trkpt lat="39.687860213734744" lon="9.44804104033019"><ele>608.0</ele><time>2026-04-03T09:42:46Z</time></trkpt><trkpt lat="39.687933184677256" lon="9.448108417714101"><ele>608.0</ele><time>2026-04-03T09:42:47Z</time></trkpt><trkpt lat="39.687969420809104" lon="9.448207126454205"><ele>608.0</ele><time>2026-04-03T09:42:48Z</time></trkpt><trkpt lat="39.687987245469614" lon="9.448338368233754"><ele>608.5</ele><time>2026-04-03T09:42:49Z</time></trkpt><trkpt lat="39.68797916406742" lon="9.448486991752326"><ele>609.0</ele><time>2026-04-03T09:42:50Z</time></trkpt><trkpt lat="39.68790879646615" lon="9.44862601423216"><ele>609.5</ele><time>2026-04-03T09:42:51Z</time></trkpt><trkpt lat="39.6877878980082" lon="9.4487122792272"><ele>610.0</ele><time>2026-04-03T09:42:52Z</time></trkpt><trkpt lat="39.68768325280478" lon="9.448834420187424"><ele>610.0</ele><time>2026-04-03T09:42:53Z</time></trkpt><trkpt lat="39.687562937547646" lon="9.448959388039938"><ele>610.0</ele><time>2026-04-03T09:42:54Z</time></trkpt><trkpt lat="39.68746548490976" lon="9.44912071487598"><ele>610.0</ele><time>2026-04-03T09:42:55Z</time></trkpt><trkpt lat="39.68739601371323" lon="9.449321722344656"><ele>610.0</ele><time>2026-04-03T09:42:56Z</time></trkpt><trkpt lat="39.687366069681566" lon="9.449531926998933"><ele>610.0</ele><time>2026-04-03T09:42:57Z</time></trkpt><trkpt lat="39.68737406821984" lon="9.449747762042605"><ele>610.0</ele><time>2026-04-03T09:42:58Z</time></trkpt><trkpt lat="39.68742549718196" lon="9.449956193998698"><ele>611.0</ele><time>2026-04-03T09:42:59Z</time></trkpt><trkpt lat="39.68750504937557" lon="9.450158021981679"><ele>612.0</ele><time>2026-04-03T09:43:00Z</time></trkpt><trkpt lat="39.68759680504198" lon="9.450354093708315"><ele>613.0</ele><time>2026-04-03T09:43:01Z</time></trkpt><trkpt lat="39.687682422888564" lon="9.450557973557977"><ele>618.0</ele><time>2026-04-03T09:43:02Z</time></trkpt><trkpt lat="39.68776468585566" lon="9.450760313958762"><ele>623.0</ele><time>2026-04-03T09:43:03Z</time></trkpt><trkpt lat="39.687846690988465" lon="9.45096276539004"><ele>628.0</ele><time>2026-04-03T09:43:04Z</time></trkpt><trkpt lat="39.687926500030414" lon="9.451171301031074"><ele>627.0</ele><time>2026-04-03T09:43:05Z</time></trkpt><trkpt lat="39.68800358769591" lon="9.451371418446358"><ele>626.0</ele><time>2026-04-03T09:43:06Z</time></trkpt><trkpt lat="39.68807152035872" lon="9.451546836444093"><ele>625.0</ele><time>2026-04-03T09:43:07Z</time></trkpt><trkpt lat="39.688088798048874" lon="9.451726752445232"><ele>625.0</ele><time>2026-04-03T09:43:08Z</time></trkpt><trkpt lat="39.688083163090425" lon="9.451893134566777"><ele>625.0</ele><time>2026-04-03T09:43:09Z</time></trkpt><trkpt lat="39.6880480402779" lon="9.45206233892183"><ele>625.0</ele><time>2026-04-03T09:43:10Z</time></trkpt><trkpt lat="39.687938025614535" lon="9.452194005257088"><ele>625.0</ele><time>2026-04-03T09:43:11.001Z</time></trkpt><trkpt lat="39.68784776082771" lon="9.452351250991665"><ele>624.0</ele><time>2026-04-03T09:43:12.001Z</time></trkpt><trkpt lat="39.68775071740688" lon="9.452497759600956"><ele>623.0</ele><time>2026-04-03T09:43:13.001Z</time></trkpt><trkpt lat="39.687708687884204" lon="9.452693568096148"><ele>622.0</ele><time>2026-04-03T09:43:14.001Z</time></trkpt><trkpt lat="39.68771901201304" lon="9.4529010797542"><ele>621.6666666666667</ele><time>2026-04-03T09:43:15.001Z</time></trkpt><trkpt lat="39.68775451860394" lon="9.453105904963174"><ele>621.3333333333334</ele><time>2026-04-03T09:43:16.001Z</time></trkpt><trkpt lat="39.68782874933717" lon="9.453294845687973"><ele>621.0</ele><time>2026-04-03T09:43:17.001Z</time></trkpt><trkpt lat="39.68793556510897" lon="9.453457135592394"><ele>620.0</ele><time>2026-04-03T09:43:18.001Z</time></trkpt><trkpt lat="39.688064685613" lon="9.453589329020776"><ele>619.0</ele><time>2026-04-03T09:43:19.001Z</time></trkpt><trkpt lat="39.68819086612418" lon="9.453717600927861"><ele>618.0</ele><time>2026-04-03T09:43:20.001Z</time></trkpt><trkpt lat="39.68824513972188" lon="9.453908175174405"><ele>618.0</ele><time>2026-04-03T09:43:21.001Z</time></trkpt><trkpt lat="39.68827936489626" lon="9.454104437910917"><ele>618.0</ele><time>2026-04-03T09:43:22.001Z</time></trkpt><trkpt lat="39.68826935738884" lon="9.454316521683918"><ele>618.0</ele><time>2026-04-03T09:43:23.001Z</time></trkpt><trkpt lat="39.68823998588257" lon="9.454538514078573"><ele>617.0</ele><time>2026-04-03T09:43:24.001Z</time></trkpt><trkpt lat="39.68823841430453" lon="9.454750686740812"><ele>616.0</ele><time>2026-04-03T09:43:25.001Z</time></trkpt><trkpt lat="39.68827975155577" lon="9.454952875115934"><ele>615.0</ele><time>2026-04-03T09:43:26.001Z</time></trkpt><trkpt lat="39.6883761486714" lon="9.455132413144865"><ele>615.0</ele><time>2026-04-03T09:43:27Z</time></trkpt><trkpt lat="39.688504181089876" lon="9.455277788309457"><ele>615.0</ele><time>2026-04-03T09:43:28Z</time></trkpt><trkpt lat="39.688649822992396" lon="9.455384123500505"><ele>615.0</ele><time>2026-04-03T09:43:29Z</time></trkpt><trkpt lat="39.688811429882826" lon="9.455438109298763"><ele>617.6666666666666</ele><time>2026-04-03T09:43:30Z</time></trkpt><trkpt lat="39.688982276377615" lon="9.455439591613164"><ele>620.3333333333333</ele><time>2026-04-03T09:43:31Z</time></trkpt><trkpt lat="39.689152091781615" lon="9.455405938219464"><ele>623.0</ele><time>2026-04-03T09:43:32Z</time></trkpt><trkpt lat="39.6893212883763" lon="9.455387832944691"><ele>624.0</ele><time>2026-04-03T09:43:33Z</time></trkpt><trkpt lat="39.689492876159896" lon="9.455404147791324"><ele>625.0</ele><time>2026-04-03T09:43:34Z</time></trkpt><trkpt lat="39.689670818785224" lon="9.455400681656451"><ele>626.0</ele><time>2026-04-03T09:43:35Z</time></trkpt><trkpt lat="39.68984475119696" lon="9.45539631792691"><ele>626.0</ele><time>2026-04-03T09:43:36Z</time></trkpt><trkpt lat="39.6900171954813" lon="9.455374500151132"><ele>626.0</ele><time>2026-04-03T09:43:37Z</time></trkpt><trkpt lat="39.6901751340361" lon="9.455373554968741"><ele>626.0</ele><time>2026-04-03T09:43:38Z</time></trkpt><trkpt lat="39.69031944342744" lon="9.455378086317351"><ele>626.0</ele><time>2026-04-03T09:43:39Z</time></trkpt><trkpt lat="39.69044469202694" lon="9.455438566601925"><ele>626.0</ele><time>2026-04-03T09:43:40Z</time></trkpt><trkpt lat="39.69056228510026" lon="9.455522574879707"><ele>626.0</ele><time>2026-04-03T09:43:41Z</time></trkpt><trkpt lat="39.69065359259234" lon="9.455658404872123"><ele>626.0</ele><time>2026-04-03T09:43:42Z</time></trkpt><trkpt lat="39.69071817953332" lon="9.45582966513626"><ele>626.0</ele><time>2026-04-03T09:43:43Z</time></trkpt><trkpt lat="39.690734424399324" lon="9.456013092979292"><ele>626.0</ele><time>2026-04-03T09:43:44Z</time></trkpt><trkpt lat="39.69071123702476" lon="9.456195935824162"><ele>626.0</ele><time>2026-04-03T09:43:45Z</time></trkpt><trkpt lat="39.690661275549196" lon="9.456363318518656"><ele>626.0</ele><time>2026-04-03T09:43:46Z</time></trkpt><trkpt lat="39.690639307258365" lon="9.4565538640967"><ele>626.0</ele><time>2026-04-03T09:43:47Z</time></trkpt><trkpt lat="39.69063708813037" lon="9.456729239759053"><ele>626.0</ele><time>2026-04-03T09:43:48Z</time></trkpt><trkpt lat="39.69066656893083" lon="9.456895902201703"><ele>626.0</ele><time>2026-04-03T09:43:49Z</time></trkpt><trkpt lat="39.69079793770334" lon="9.457050076380293"><ele>626.0</ele><time>2026-04-03T09:43:50Z</time></trkpt><trkpt lat="39.69093133693362" lon="9.457154373918081"><ele>625.6666666666666</ele><time>2026-04-03T09:43:51Z</time></trkpt><trkpt lat="39.69107547451811" lon="9.457225734549752"><ele>625.3333333333334</ele><time>2026-04-03T09:43:52Z</time></trkpt><trkpt lat="39.69121749944308" lon="9.457300988233474"><ele>625.0</ele><time>2026-04-03T09:43:53Z</time></trkpt><trkpt lat="39.691370713291576" lon="9.457367954642043"><ele>625.0</ele><time>2026-04-03T09:43:54Z</time></trkpt><trkpt lat="39.69152248550418" lon="9.457420027291715"><ele>625.0</ele><time>2026-04-03T09:43:55Z</time></trkpt><trkpt lat="39.69166587240046" lon="9.457464084112516"><ele>625.0</ele><time>2026-04-03T09:43:56Z</time></trkpt><trkpt lat="39.691785862725254" lon="9.45749085306101"><ele>625.0</ele><time>2026-04-03T09:43:57Z</time></trkpt><trkpt lat="39.69191671566053" lon="9.457540406619845"><ele>625.2</ele><time>2026-04-03T09:43:58Z</time></trkpt><trkpt lat="39.69200839624889" lon="9.457652188507359"><ele>625.4</ele><time>2026-04-03T09:43:59Z</time></trkpt><trkpt lat="39.692026054012466" lon="9.45775724651085"><ele>625.6</ele><time>2026-04-03T09:44:00Z</time></trkpt><trkpt lat="39.6920423153068" lon="9.457876622745355"><ele>625.8</ele><time>2026-04-03T09:44:01Z</time></trkpt><trkpt lat="39.691988734087886" lon="9.458036271112533"><ele>626.0</ele><time>2026-04-03T09:44:02Z</time></trkpt><trkpt lat="39.69188614329124" lon="9.458132147182555"><ele>626.0</ele><time>2026-04-03T09:44:03Z</time></trkpt><trkpt lat="39.6917535219822" lon="9.458166221166895"><ele>626.0</ele><time>2026-04-03T09:44:04Z</time></trkpt><trkpt lat="39.69161884995841" lon="9.45813962423843"><ele>626.0</ele><time>2026-04-03T09:44:05Z</time></trkpt><trkpt lat="39.69146640588431" lon="9.458098683752658"><ele>626.0</ele><time>2026-04-03T09:44:06Z</time></trkpt><trkpt lat="39.69132582771791" lon="9.458065638186422"><ele>626.0</ele><time>2026-04-03T09:44:07Z</time></trkpt><trkpt lat="39.69115525294943" lon="9.458068153701124"><ele>626.0</ele><time>2026-04-03T09:44:08Z</time></trkpt><trkpt lat="39.69098663752041" lon="9.458059752858782"><ele>626.0</ele><time>2026-04-03T09:44:09Z</time></trkpt><trkpt lat="39.69081412111899" lon="9.458069238781235"><ele>626.6666666666666</ele><time>2026-04-03T09:44:10Z</time></trkpt><trkpt lat="39.69063694399633" lon="9.458071924279675"><ele>627.3333333333334</ele><time>2026-04-03T09:44:11Z</time></trkpt><trkpt lat="39.690435280470155" lon="9.458084321563542"><ele>628.0</ele><time>2026-04-03T09:44:12Z</time></trkpt><trkpt lat="39.69027848666505" lon="9.458072043731288"><ele>627.6666666666667</ele><time>2026-04-03T09:44:13Z</time></trkpt><trkpt lat="39.690117792039494" lon="9.458089749094572"><ele>627.3333333333334</ele><time>2026-04-03T09:44:14Z</time></trkpt><trkpt lat="39.68996246755896" lon="9.458151338970342"><ele>627.0</ele><time>2026-04-03T09:44:15Z</time></trkpt><trkpt lat="39.689814173109895" lon="9.458262595066405"><ele>627.0</ele><time>2026-04-03T09:44:16Z</time></trkpt><trkpt lat="39.68969168267902" lon="9.458417883277855"><ele>627.0</ele><time>2026-04-03T09:44:17Z</time></trkpt><trkpt lat="39.68960038595277" lon="9.4586055384427"><ele>627.0</ele><time>2026-04-03T09:44:18Z</time></trkpt><trkpt lat="39.68954215449026" lon="9.458810974688973"><ele>629.3333333333334</ele><time>2026-04-03T09:44:19Z</time></trkpt><trkpt lat="39.68952151968362" lon="9.459031972695607"><ele>631.6666666666667</ele><time>2026-04-03T09:44:20Z</time></trkpt><trkpt lat="39.689541075748565" lon="9.459256521635226"><ele>634.0</ele><time>2026-04-03T09:44:21Z</time></trkpt><trkpt lat="39.68959856849875" lon="9.459465438461557"><ele>630.3333333333334</ele><time>2026-04-03T09:44:22Z</time></trkpt><trkpt lat="39.689694356009845" lon="9.459651449586548"><ele>626.6666666666666</ele><time>2026-04-03T09:44:23Z</time></trkpt><trkpt lat="39.68981784705019" lon="9.459809022917282"><ele>623.0</ele><time>2026-04-03T09:44:24Z</time></trkpt><trkpt lat="39.689962823853044" lon="9.459913674842172"><ele>623.0</ele><time>2026-04-03T09:44:25Z</time></trkpt><trkpt lat="39.69010847093619" lon="9.459988364001555"><ele>623.0</ele><time>2026-04-03T09:44:26Z</time></trkpt><trkpt lat="39.69024503152952" lon="9.460044417850742"><ele>623.0</ele><time>2026-04-03T09:44:27Z</time></trkpt><trkpt lat="39.69035525071681" lon="9.460122352208248"><ele>623.0</ele><time>2026-04-03T09:44:28Z</time></trkpt><trkpt lat="39.690444444374606" lon="9.460237369379156"><ele>625.25</ele><time>2026-04-03T09:44:29Z</time></trkpt><trkpt lat="39.69048375320793" lon="9.460406208992081"><ele>627.5</ele><time>2026-04-03T09:44:30Z</time></trkpt><trkpt lat="39.69047278897641" lon="9.46058317809691"><ele>629.75</ele><time>2026-04-03T09:44:31Z</time></trkpt><trkpt lat="39.69041112541867" lon="9.460743559312583"><ele>632.0</ele><time>2026-04-03T09:44:32Z</time></trkpt><trkpt lat="39.690310077381675" lon="9.46086788193293"><ele>629.3333333333333</ele><time>2026-04-03T09:44:33Z</time></trkpt><trkpt lat="39.69017554272063" lon="9.460938884530798"><ele>626.6666666666666</ele><time>2026-04-03T09:44:34Z</time></trkpt><trkpt lat="39.69002565409235" lon="9.460978585446407"><ele>624.0</ele><time>2026-04-03T09:44:35Z</time></trkpt><trkpt lat="39.68986895606713" lon="9.461032269297538"><ele>624.0</ele><time>2026-04-03T09:44:36Z</time></trkpt><trkpt lat="39.689715154621794" lon="9.461098735599887"><ele>624.0</ele><time>2026-04-03T09:44:37Z</time></trkpt><trkpt lat="39.68957344673824" lon="9.461157535997623"><ele>624.0</ele><time>2026-04-03T09:44:38Z</time></trkpt><trkpt lat="39.68944709247781" lon="9.461235561353325"><ele>624.75</ele><time>2026-04-03T09:44:39Z</time></trkpt><trkpt lat="39.689341588578095" lon="9.461367221887405"><ele>625.5</ele><time>2026-04-03T09:44:40Z</time></trkpt><trkpt lat="39.68927064208394" lon="9.461537833052745"><ele>626.25</ele><time>2026-04-03T09:44:41Z</time></trkpt><trkpt lat="39.68924550402076" lon="9.46173058032081"><ele>627.0</ele><time>2026-04-03T09:44:42Z</time></trkpt><trkpt lat="39.68927245945172" lon="9.461918665505564"><ele>627.0</ele><time>2026-04-03T09:44:43Z</time></trkpt><trkpt lat="39.6893282193486" lon="9.462106476055387"><ele>627.0</ele><time>2026-04-03T09:44:44Z</time></trkpt><trkpt lat="39.689383638690785" lon="9.462304659171057"><ele>627.0</ele><time>2026-04-03T09:44:45Z</time></trkpt><trkpt lat="39.689426640430156" lon="9.46250959896183"><ele>628.0</ele><time>2026-04-03T09:44:46Z</time></trkpt><trkpt lat="39.689474626513594" lon="9.462723876367452"><ele>629.0</ele><time>2026-04-03T09:44:47Z</time></trkpt><trkpt lat="39.68953912876493" lon="9.462940518870683"><ele>630.0</ele><time>2026-04-03T09:44:48Z</time></trkpt><trkpt lat="39.689632216621604" lon="9.463143088226598"><ele>630.0</ele><time>2026-04-03T09:44:49Z</time></trkpt><trkpt lat="39.68974963155088" lon="9.463328381661611"><ele>630.0</ele><time>2026-04-03T09:44:50Z</time></trkpt><trkpt lat="39.68988327414794" lon="9.463493994656918"><ele>630.0</ele><time>2026-04-03T09:44:51Z</time></trkpt><trkpt lat="39.690036609324025" lon="9.463645956855249"><ele>630.3333333333334</ele><time>2026-04-03T09:44:52Z</time></trkpt><trkpt lat="39.69020452827631" lon="9.463787733936677"><ele>630.6666666666667</ele><time>2026-04-03T09:44:53Z</time></trkpt><trkpt lat="39.69037934926762" lon="9.463937259826151"><ele>631.0</ele><time>2026-04-03T09:44:54Z</time></trkpt><trkpt lat="39.69054778071578" lon="9.46408512955491"><ele>631.0</ele><time>2026-04-03T09:44:55Z</time></trkpt><trkpt lat="39.69071380156872" lon="9.464244300874755"><ele>631.0</ele><time>2026-04-03T09:44:56Z</time></trkpt><trkpt lat="39.69088199077619" lon="9.464403075675563"><ele>631.0</ele><time>2026-04-03T09:44:57Z</time></trkpt><trkpt lat="39.69105340056257" lon="9.464555954489724"><ele>633.3333333333334</ele><time>2026-04-03T09:44:58Z</time></trkpt><trkpt lat="39.6912230030084" lon="9.464712701512843"><ele>635.6666666666666</ele><time>2026-04-03T09:44:59Z</time></trkpt><trkpt lat="39.69139219979575" lon="9.464877548183061"><ele>638.0</ele><time>2026-04-03T09:45:00Z</time></trkpt><trkpt lat="39.69156333061012" lon="9.465038464337482"><ele>638.0</ele><time>2026-04-03T09:45:01Z</time></trkpt><trkpt lat="39.691730477732094" lon="9.465198469979612"><ele>638.0</ele><time>2026-04-03T09:45:02Z</time></trkpt><trkpt lat="39.69189866228571" lon="9.465361348960744"><ele>638.0</ele><time>2026-04-03T09:45:03Z</time></trkpt><trkpt lat="39.692064836593076" lon="9.46552395360733"><ele>638.6666666666666</ele><time>2026-04-03T09:45:04Z</time></trkpt><trkpt lat="39.69222379362163" lon="9.465684785977361"><ele>639.3333333333334</ele><time>2026-04-03T09:45:05Z</time></trkpt><trkpt lat="39.692381603447544" lon="9.465854257209568"><ele>640.0</ele><time>2026-04-03T09:45:06Z</time></trkpt><trkpt lat="39.692540778014795" lon="9.466022799917422"><ele>640.0</ele><time>2026-04-03T09:45:07Z</time></trkpt><trkpt lat="39.69270260989243" lon="9.466191071767131"><ele>640.0</ele><time>2026-04-03T09:45:08Z</time></trkpt><trkpt lat="39.69286261373611" lon="9.466355401501477"><ele>640.0</ele><time>2026-04-03T09:45:09Z</time></trkpt><trkpt lat="39.69302266548206" lon="9.466524331545912"><ele>641.0</ele><time>2026-04-03T09:45:10Z</time></trkpt><trkpt lat="39.69317839515862" lon="9.466693477711297"><ele>642.0</ele><time>2026-04-03T09:45:11Z</time></trkpt><trkpt lat="39.69333190671698" lon="9.466862950387519"><ele>643.0</ele><time>2026-04-03T09:45:12Z</time></trkpt><trkpt lat="39.69348537017374" lon="9.467029943436584"><ele>644.0</ele><time>2026-04-03T09:45:13Z</time></trkpt><trkpt lat="39.69364396776281" lon="9.467190639144247"><ele>645.0</ele><time>2026-04-03T09:45:14Z</time></trkpt><trkpt lat="39.69381389327015" lon="9.467326795759622"><ele>646.0</ele><time>2026-04-03T09:45:15Z</time></trkpt><trkpt lat="39.69399529127682" lon="9.467432732759669"><ele>646.0</ele><time>2026-04-03T09:45:16Z</time></trkpt><trkpt lat="39.694185769373284" lon="9.467512371359774"><ele>646.0</ele><time>2026-04-03T09:45:17Z</time></trkpt><trkpt lat="39.694383398638045" lon="9.46757200991095"><ele>646.0</ele><time>2026-04-03T09:45:18Z</time></trkpt><trkpt lat="39.694583395983116" lon="9.467622602481848"><ele>645.3333333333334</ele><time>2026-04-03T09:45:19Z</time></trkpt><trkpt lat="39.694787337510306" lon="9.467678163582208"><ele>644.6666666666666</ele><time>2026-04-03T09:45:20Z</time></trkpt><trkpt lat="39.69499221595661" lon="9.467744454574898"><ele>644.0</ele><time>2026-04-03T09:45:21Z</time></trkpt><trkpt lat="39.6951952494351" lon="9.467814144805658"><ele>644.0</ele><time>2026-04-03T09:45:22Z</time></trkpt><trkpt lat="39.695394366185404" lon="9.467882505507479"><ele>644.0</ele><time>2026-04-03T09:45:23Z</time></trkpt><trkpt lat="39.69559078334025" lon="9.467947509348281"><ele>644.0</ele><time>2026-04-03T09:45:24Z</time></trkpt><trkpt lat="39.6957777428178" lon="9.468015228933366"><ele>642.6666666666666</ele><time>2026-04-03T09:45:25Z</time></trkpt><trkpt lat="39.69595230568945" lon="9.468077474635376"><ele>641.3333333333334</ele><time>2026-04-03T09:45:26Z</time></trkpt><trkpt lat="39.69620664747867" lon="9.46813771015206"><ele>640.0</ele><time>2026-04-03T09:45:27Z</time></trkpt><trkpt lat="39.69638643048377" lon="9.468193291817252"><ele>640.0</ele><time>2026-04-03T09:45:28Z</time></trkpt><trkpt lat="39.69655108147753" lon="9.468262065160333"><ele>640.0</ele><time>2026-04-03T09:45:29Z</time></trkpt><trkpt lat="39.696715786394336" lon="9.468357745624784"><ele>640.0</ele><time>2026-04-03T09:45:30Z</time></trkpt><trkpt lat="39.69686982727185" lon="9.468490689279905"><ele>639.6666666666667</ele><time>2026-04-03T09:45:31Z</time></trkpt><trkpt lat="39.69700797486463" lon="9.468624430240668"><ele>639.3333333333334</ele><time>2026-04-03T09:45:32Z</time></trkpt><trkpt lat="39.69712782710476" lon="9.468820747799718"><ele>639.0</ele><time>2026-04-03T09:45:33Z</time></trkpt><trkpt lat="39.697214293963775" lon="9.469002488279454"><ele>639.5</ele><time>2026-04-03T09:45:34Z</time></trkpt><trkpt lat="39.69725449018036" lon="9.46917397658044"><ele>640.0</ele><time>2026-04-03T09:45:35Z</time></trkpt><trkpt lat="39.69724768139028" lon="9.469342911330314"><ele>640.5</ele><time>2026-04-03T09:45:36Z</time></trkpt><trkpt lat="39.6971826812015" lon="9.469501481770235"><ele>641.0</ele><time>2026-04-03T09:45:37Z</time></trkpt><trkpt lat="39.69708330768994" lon="9.469641808076005"><ele>641.3333333333333</ele><time>2026-04-03T09:45:38Z</time></trkpt><trkpt lat="39.69696577624051" lon="9.469769448994597"><ele>641.6666666666666</ele><time>2026-04-03T09:45:39Z</time></trkpt><trkpt lat="39.69684670606564" lon="9.46991076938061"><ele>642.0</ele><time>2026-04-03T09:45:40Z</time></trkpt><trkpt lat="39.69674101556602" lon="9.47005844452705"><ele>642.0</ele><time>2026-04-03T09:45:41Z</time></trkpt><trkpt lat="39.69663335472168" lon="9.470220276304566"><ele>642.0</ele><time>2026-04-03T09:45:42Z</time></trkpt><trkpt lat="39.69652573526824" lon="9.470374085307649"><ele>642.0</ele><time>2026-04-03T09:45:43Z</time></trkpt><trkpt lat="39.69642745751653" lon="9.47052837735911"><ele>646.0</ele><time>2026-04-03T09:45:44Z</time></trkpt><trkpt lat="39.696361269233314" lon="9.470716308881716"><ele>650.0</ele><time>2026-04-03T09:45:45Z</time></trkpt><trkpt lat="39.696333808375954" lon="9.470928033812225"><ele>654.0</ele><time>2026-04-03T09:45:46Z</time></trkpt><trkpt lat="39.696318041591475" lon="9.471147817381066"><ele>655.3333333333334</ele><time>2026-04-03T09:45:47Z</time></trkpt><trkpt lat="39.69629054002156" lon="9.471374062397597"><ele>656.6666666666667</ele><time>2026-04-03T09:45:48Z</time></trkpt><trkpt lat="39.69626133472654" lon="9.471599073918393"><ele>658.0</ele><time>2026-04-03T09:45:49Z</time></trkpt><trkpt lat="39.69624604906647" lon="9.471776762804186"><ele>658.0</ele><time>2026-04-03T09:45:50Z</time></trkpt><trkpt lat="39.69627357155858" lon="9.471950022436118"><ele>658.0</ele><time>2026-04-03T09:45:51Z</time></trkpt><trkpt lat="39.69635108574204" lon="9.472098538890467"><ele>658.0</ele><time>2026-04-03T09:45:52Z</time></trkpt><trkpt lat="39.696477059011045" lon="9.472204756990008"><ele>658.0</ele><time>2026-04-03T09:45:53Z</time></trkpt><trkpt lat="39.696628237483836" lon="9.472258576525276"><ele>657.3333333333334</ele><time>2026-04-03T09:45:54Z</time></trkpt><trkpt lat="39.69678913619917" lon="9.472280074883077"><ele>656.6666666666666</ele><time>2026-04-03T09:45:55Z</time></trkpt><trkpt lat="39.69695571233517" lon="9.472301002077948"><ele>656.0</ele><time>2026-04-03T09:45:56Z</time></trkpt><trkpt lat="39.697124099179206" lon="9.472331838655993"><ele>658.6666666666666</ele><time>2026-04-03T09:45:57Z</time></trkpt><trkpt lat="39.69729410854712" lon="9.472376313836545"><ele>661.3333333333334</ele><time>2026-04-03T09:45:58Z</time></trkpt><trkpt lat="39.69745774000658" lon="9.47242612704445"><ele>664.0</ele><time>2026-04-03T09:45:59Z</time></trkpt><trkpt lat="39.69762187348511" lon="9.472469329681577"><ele>665.6666666666667</ele><time>2026-04-03T09:46:00Z</time></trkpt><trkpt lat="39.69778300506794" lon="9.472507929893464"><ele>667.3333333333334</ele><time>2026-04-03T09:46:01Z</time></trkpt><trkpt lat="39.69794370441188" lon="9.472552122910727"><ele>669.0</ele><time>2026-04-03T09:46:02Z</time></trkpt><trkpt lat="39.698091133316446" lon="9.472618927608426"><ele>669.0</ele><time>2026-04-03T09:46:03Z</time></trkpt><trkpt lat="39.69821674785718" lon="9.472749630770897"><ele>669.0</ele><time>2026-04-03T09:46:04Z</time></trkpt><trkpt lat="39.69832842276392" lon="9.472909949552395"><ele>669.0</ele><time>2026-04-03T09:46:05Z</time></trkpt><trkpt lat="39.698411844264044" lon="9.473093701455964"><ele>669.6666666666666</ele><time>2026-04-03T09:46:06Z</time></trkpt><trkpt lat="39.698485898409956" lon="9.473288165943897"><ele>670.3333333333333</ele><time>2026-04-03T09:46:07Z</time></trkpt><trkpt lat="39.69855947820953" lon="9.473488763062237"><ele>671.0</ele><time>2026-04-03T09:46:08Z</time></trkpt><trkpt lat="39.69863536450831" lon="9.473688177151093"><ele>672.0</ele><time>2026-04-03T09:46:09Z</time></trkpt><trkpt lat="39.69872127980035" lon="9.473884958830913"><ele>673.0</ele><time>2026-04-03T09:46:10Z</time></trkpt><trkpt lat="39.69881070150884" lon="9.474088178607257"><ele>674.0</ele><time>2026-04-03T09:46:11Z</time></trkpt><trkpt lat="39.698902815447255" lon="9.474303081165736"><ele>674.0</ele><time>2026-04-03T09:46:12Z</time></trkpt><trkpt lat="39.6989935471337" lon="9.474521463260993"><ele>674.0</ele><time>2026-04-03T09:46:13Z</time></trkpt><trkpt lat="39.69908408035298" lon="9.474728842273992"><ele>674.0</ele><time>2026-04-03T09:46:14Z</time></trkpt><trkpt lat="39.69917227980898" lon="9.474934258657445"><ele>675.3333333333333</ele><time>2026-04-03T09:46:15Z</time></trkpt><trkpt lat="39.699257457003" lon="9.475143359901548"><ele>676.6666666666666</ele><time>2026-04-03T09:46:16Z</time></trkpt><trkpt lat="39.69934788932825" lon="9.475356571393643"><ele>678.0</ele><time>2026-04-03T09:46:17Z</time></trkpt><trkpt lat="39.699451242883356" lon="9.47556116639479"><ele>679.3333333333334</ele><time>2026-04-03T09:46:18Z</time></trkpt><trkpt lat="39.69957668621277" lon="9.475752655661939"><ele>680.6666666666667</ele><time>2026-04-03T09:46:19Z</time></trkpt><trkpt lat="39.69971834835718" lon="9.475930456043185"><ele>682.0</ele><time>2026-04-03T09:46:20Z</time></trkpt><trkpt lat="39.69986820255115" lon="9.476103954671874"><ele>682.3333333333334</ele><time>2026-04-03T09:46:21Z</time></trkpt><trkpt lat="39.7000170282297" lon="9.476279939587448"><ele>682.6666666666666</ele><time>2026-04-03T09:46:22Z</time></trkpt><trkpt lat="39.70016334076255" lon="9.476461367249811"><ele>683.0</ele><time>2026-04-03T09:46:23Z</time></trkpt><trkpt lat="39.70030589324563" lon="9.476644084080144"><ele>684.0</ele><time>2026-04-03T09:46:24Z</time></trkpt><trkpt lat="39.700446224198664" lon="9.47682361678046"><ele>685.0</ele><time>2026-04-03T09:46:25Z</time></trkpt><trkpt lat="39.70059104898473" lon="9.477003469248086"><ele>686.0</ele><time>2026-04-03T09:46:26Z</time></trkpt><trkpt lat="39.700730858112465" lon="9.477179269228373"><ele>686.6666666666666</ele><time>2026-04-03T09:46:27Z</time></trkpt><trkpt lat="39.70087385432741" lon="9.477368903751984"><ele>687.3333333333334</ele><time>2026-04-03T09:46:28Z</time></trkpt><trkpt lat="39.70100067101961" lon="9.477554641802687"><ele>688.0</ele><time>2026-04-03T09:46:29Z</time></trkpt><trkpt lat="39.7011181945376" lon="9.477764350099532"><ele>689.0</ele><time>2026-04-03T09:46:30Z</time></trkpt><trkpt lat="39.70122821985599" lon="9.477984785294975"><ele>690.0</ele><time>2026-04-03T09:46:31Z</time></trkpt><trkpt lat="39.70134138179466" lon="9.47820777990834"><ele>691.0</ele><time>2026-04-03T09:46:32Z</time></trkpt><trkpt lat="39.70146037279306" lon="9.478424390618173"><ele>691.0</ele><time>2026-04-03T09:46:33Z</time></trkpt><trkpt lat="39.701580115293815" lon="9.478639558145122"><ele>691.0</ele><time>2026-04-03T09:46:34Z</time></trkpt><trkpt lat="39.70170119379608" lon="9.478852090254591"><ele>691.0</ele><time>2026-04-03T09:46:35Z</time></trkpt><trkpt lat="39.70181850021439" lon="9.47906491009008"><ele>692.6666666666667</ele><time>2026-04-03T09:46:36Z</time></trkpt><trkpt lat="39.70193086616469" lon="9.47927564085818"><ele>694.3333333333334</ele><time>2026-04-03T09:46:37Z</time></trkpt><trkpt lat="39.70204375939501" lon="9.479508302417466"><ele>696.0</ele><time>2026-04-03T09:46:38Z</time></trkpt><trkpt lat="39.70209798188978" lon="9.47968692249291"><ele>696.6666666666666</ele><time>2026-04-03T09:46:39Z</time></trkpt><trkpt lat="39.702121228990976" lon="9.479886560627564"><ele>697.3333333333333</ele><time>2026-04-03T09:46:40Z</time></trkpt><trkpt lat="39.70210388818428" lon="9.480079860357494"><ele>698.0</ele><time>2026-04-03T09:46:41Z</time></trkpt><trkpt lat="39.702064506528515" lon="9.480288809627021"><ele>697.6666666666666</ele><time>2026-04-03T09:46:42Z</time></trkpt><trkpt lat="39.702020493188805" lon="9.480510400350315"><ele>697.3333333333334</ele><time>2026-04-03T09:46:43Z</time></trkpt><trkpt lat="39.70198605945919" lon="9.48072542527543"><ele>697.0</ele><time>2026-04-03T09:46:44Z</time></trkpt><trkpt lat="39.701946643236404" lon="9.480974663877083"><ele>697.0</ele><time>2026-04-03T09:46:45Z</time></trkpt><trkpt lat="39.70188524003393" lon="9.481205796905765"><ele>697.0</ele><time>2026-04-03T09:46:46Z</time></trkpt><trkpt lat="39.70183913745429" lon="9.481444655439004"><ele>697.0</ele><time>2026-04-03T09:46:47Z</time></trkpt><trkpt lat="39.70179223722819" lon="9.481687646589128"><ele>697.3333333333334</ele><time>2026-04-03T09:46:48Z</time></trkpt><trkpt lat="39.70174503254441" lon="9.481932215130394"><ele>697.6666666666666</ele><time>2026-04-03T09:46:49Z</time></trkpt><trkpt lat="39.70169773945953" lon="9.482183950305057"><ele>698.0</ele><time>2026-04-03T09:46:50Z</time></trkpt><trkpt lat="39.70166337614675" lon="9.482455499738482"><ele>699.0</ele><time>2026-04-03T09:46:51Z</time></trkpt><trkpt lat="39.701620519377244" lon="9.48270760175387"><ele>700.0</ele><time>2026-04-03T09:46:52Z</time></trkpt><trkpt lat="39.701577655993006" lon="9.482968678190904"><ele>701.0</ele><time>2026-04-03T09:46:53Z</time></trkpt><trkpt lat="39.701536171121816" lon="9.483232954918812"><ele>701.3333333333333</ele><time>2026-04-03T09:46:54Z</time></trkpt><trkpt lat="39.70147874986348" lon="9.483491418984544"><ele>701.6666666666666</ele><time>2026-04-03T09:46:55Z</time></trkpt><trkpt lat="39.70143758887438" lon="9.48374991234478"><ele>702.0</ele><time>2026-04-03T09:46:56Z</time></trkpt><trkpt lat="39.70139546235081" lon="9.484012489898856"><ele>702.6666666666666</ele><time>2026-04-03T09:46:57Z</time></trkpt><trkpt lat="39.70135369198935" lon="9.484274368087895"><ele>703.3333333333333</ele><time>2026-04-03T09:46:58Z</time></trkpt><trkpt lat="39.70131224556801" lon="9.484534215364752"><ele>704.0</ele><time>2026-04-03T09:46:59Z</time></trkpt><trkpt lat="39.70126952164722" lon="9.484795488309578"><ele>704.0</ele><time>2026-04-03T09:47:00Z</time></trkpt><trkpt lat="39.70122892010211" lon="9.485043283501218"><ele>704.0</ele><time>2026-04-03T09:47:01Z</time></trkpt><trkpt lat="39.70120496355159" lon="9.485277704055175"><ele>704.0</ele><time>2026-04-03T09:47:02Z</time></trkpt><trkpt lat="39.70117031803314" lon="9.485504953428531"><ele>702.0</ele><time>2026-04-03T09:47:03Z</time></trkpt><trkpt lat="39.70115853065259" lon="9.485733308716414"><ele>700.0</ele><time>2026-04-03T09:47:04Z</time></trkpt><trkpt lat="39.70119126676583" lon="9.485958722317564"><ele>698.0</ele><time>2026-04-03T09:47:05Z</time></trkpt><trkpt lat="39.70126048839315" lon="9.48617780921169"><ele>697.0</ele><time>2026-04-03T09:47:06Z</time></trkpt><trkpt lat="39.701320684154766" lon="9.48640690321452"><ele>696.0</ele><time>2026-04-03T09:47:07Z</time></trkpt><trkpt lat="39.701378175948406" lon="9.486629620974465"><ele>695.0</ele><time>2026-04-03T09:47:08Z</time></trkpt><trkpt lat="39.701398835537866" lon="9.486861042916118"><ele>696.3333333333333</ele><time>2026-04-03T09:47:09Z</time></trkpt><trkpt lat="39.701374758672294" lon="9.487095754376252"><ele>697.6666666666666</ele><time>2026-04-03T09:47:10Z</time></trkpt><trkpt lat="39.70134504814348" lon="9.487345398124706"><ele>699.0</ele><time>2026-04-03T09:47:11Z</time></trkpt><trkpt lat="39.70131656163443" lon="9.487588476504758"><ele>699.0</ele><time>2026-04-03T09:47:12Z</time></trkpt><trkpt lat="39.70129238930076" lon="9.48783468187534"><ele>699.0</ele><time>2026-04-03T09:47:13Z</time></trkpt><trkpt lat="39.701263036012215" lon="9.4880726510025"><ele>699.0</ele><time>2026-04-03T09:47:14Z</time></trkpt><trkpt lat="39.70124357044839" lon="9.488283003088007"><ele>702.75</ele><time>2026-04-03T09:47:15Z</time></trkpt><trkpt lat="39.701211988189215" lon="9.48848081288609"><ele>706.5</ele><time>2026-04-03T09:47:16Z</time></trkpt><trkpt lat="39.70118730691457" lon="9.488659422769201"><ele>710.25</ele><time>2026-04-03T09:47:17Z</time></trkpt><trkpt lat="39.7011443786142" lon="9.488812552213838"><ele>714.0</ele><time>2026-04-03T09:47:18Z</time></trkpt><trkpt lat="39.701055029773684" lon="9.488934566783303"><ele>714.25</ele><time>2026-04-03T09:47:19Z</time></trkpt><trkpt lat="39.70094382917705" lon="9.488997012316524"><ele>714.5</ele><time>2026-04-03T09:47:20Z</time></trkpt><trkpt lat="39.70080531349511" lon="9.489011240562773"><ele>714.75</ele><time>2026-04-03T09:47:21Z</time></trkpt><trkpt lat="39.700659693451705" lon="9.488972465455031"><ele>715.0</ele><time>2026-04-03T09:47:22Z</time></trkpt><trkpt lat="39.70048011282844" lon="9.48895179818338"><ele>715.0</ele><time>2026-04-03T09:47:23Z</time></trkpt><trkpt lat="39.70032502745097" lon="9.488913572130564"><ele>715.0</ele><time>2026-04-03T09:47:24Z</time></trkpt><trkpt lat="39.70014811620273" lon="9.488909303825636"><ele>715.0</ele><time>2026-04-03T09:47:25Z</time></trkpt><trkpt lat="39.699959029219805" lon="9.488959218894188"><ele>714.3333333333334</ele><time>2026-04-03T09:47:26Z</time></trkpt><trkpt lat="39.699776114447786" lon="9.489051803107065"><ele>713.6666666666666</ele><time>2026-04-03T09:47:27Z</time></trkpt><trkpt lat="39.699612608594386" lon="9.489178014145876"><ele>713.0</ele><time>2026-04-03T09:47:28Z</time></trkpt><trkpt lat="39.69945759080523" lon="9.489306587296802"><ele>713.0</ele><time>2026-04-03T09:47:29Z</time></trkpt><trkpt lat="39.69931711320345" lon="9.48943102790128"><ele>713.0</ele><time>2026-04-03T09:47:30Z</time></trkpt><trkpt lat="39.69920932627355" lon="9.489577634238929"><ele>713.0</ele><time>2026-04-03T09:47:31Z</time></trkpt><trkpt lat="39.699144261222" lon="9.489770642313033"><ele>713.0</ele><time>2026-04-03T09:47:32Z</time></trkpt><trkpt lat="39.69912430759492" lon="9.489989309963784"><ele>713.0</ele><time>2026-04-03T09:47:33Z</time></trkpt><trkpt lat="39.69912297301177" lon="9.490208408197395"><ele>713.0</ele><time>2026-04-03T09:47:34Z</time></trkpt><trkpt lat="39.69908114169871" lon="9.490410743082721"><ele>716.0</ele><time>2026-04-03T09:47:35Z</time></trkpt><trkpt lat="39.699005648516284" lon="9.490602021114372"><ele>719.0</ele><time>2026-04-03T09:47:36Z</time></trkpt><trkpt lat="39.698899741331914" lon="9.490774135460349"><ele>722.0</ele><time>2026-04-03T09:47:37Z</time></trkpt><trkpt lat="39.69877244390251" lon="9.49093319602099"><ele>722.0</ele><time>2026-04-03T09:47:38Z</time></trkpt><trkpt lat="39.69867662921021" lon="9.4910945688171"><ele>722.0</ele><time>2026-04-03T09:47:39Z</time></trkpt><trkpt lat="39.69862436665876" lon="9.491271032921677"><ele>722.0</ele><time>2026-04-03T09:47:40Z</time></trkpt><trkpt lat="39.69863559184787" lon="9.491464627217484"><ele>723.6666666666666</ele><time>2026-04-03T09:47:41Z</time></trkpt><trkpt lat="39.6987017335818" lon="9.49164508692057"><ele>725.3333333333334</ele><time>2026-04-03T09:47:42Z</time></trkpt><trkpt lat="39.69882241257874" lon="9.491780576915117"><ele>727.0</ele><time>2026-04-03T09:47:43Z</time></trkpt><trkpt lat="39.69897129770117" lon="9.491853190499324"><ele>727.0</ele><time>2026-04-03T09:47:44Z</time></trkpt><trkpt lat="39.699135548026646" lon="9.491858061227813"><ele>727.0</ele><time>2026-04-03T09:47:45Z</time></trkpt><trkpt lat="39.699299655184646" lon="9.491806983274698"><ele>727.0</ele><time>2026-04-03T09:47:46Z</time></trkpt><trkpt lat="39.69946459347389" lon="9.491732563970007"><ele>729.6666666666667</ele><time>2026-04-03T09:47:47Z</time></trkpt><trkpt lat="39.69963075743335" lon="9.4917357541267"><ele>732.3333333333334</ele><time>2026-04-03T09:47:48Z</time></trkpt><trkpt lat="39.69978608715809" lon="9.491756391559088"><ele>735.0</ele><time>2026-04-03T09:47:49Z</time></trkpt><trkpt lat="39.69993800160828" lon="9.491803701341103"><ele>735.0</ele><time>2026-04-03T09:47:50Z</time></trkpt><trkpt lat="39.70009174708466" lon="9.491848523088368"><ele>735.0</ele><time>2026-04-03T09:47:51Z</time></trkpt><trkpt lat="39.70024612098606" lon="9.49189702200644"><ele>735.0</ele><time>2026-04-03T09:47:52Z</time></trkpt><trkpt lat="39.70040845481198" lon="9.491908214947934"><ele>737.0</ele><time>2026-04-03T09:47:53Z</time></trkpt><trkpt lat="39.700572146211165" lon="9.491887818879924"><ele>739.0</ele><time>2026-04-03T09:47:54Z</time></trkpt><trkpt lat="39.700746758175214" lon="9.491854737922"><ele>741.0</ele><time>2026-04-03T09:47:55Z</time></trkpt><trkpt lat="39.700914186627465" lon="9.491812216369683"><ele>741.0</ele><time>2026-04-03T09:47:56Z</time></trkpt><trkpt lat="39.70107153082049" lon="9.491785528373795"><ele>741.0</ele><time>2026-04-03T09:47:57Z</time></trkpt><trkpt lat="39.701228748104064" lon="9.491783284664303"><ele>741.0</ele><time>2026-04-03T09:47:58Z</time></trkpt><trkpt lat="39.70137969051115" lon="9.491834403460494"><ele>742.0</ele><time>2026-04-03T09:47:59Z</time></trkpt><trkpt lat="39.70153028035924" lon="9.491954632861882"><ele>743.0</ele><time>2026-04-03T09:48:00Z</time></trkpt><trkpt lat="39.701663081734836" lon="9.49206352109502"><ele>744.0</ele><time>2026-04-03T09:48:01Z</time></trkpt><trkpt lat="39.70177364181109" lon="9.492221878558796"><ele>744.0</ele><time>2026-04-03T09:48:02Z</time></trkpt><trkpt lat="39.70185054296158" lon="9.49241876486148"><ele>744.0</ele><time>2026-04-03T09:48:03Z</time></trkpt><trkpt lat="39.701888876089654" lon="9.492635770615022"><ele>744.0</ele><time>2026-04-03T09:48:04Z</time></trkpt><trkpt lat="39.70191027570472" lon="9.492856962260094"><ele>748.3333333333334</ele><time>2026-04-03T09:48:05Z</time></trkpt><trkpt lat="39.70193516937366" lon="9.4930779622824"><ele>752.6666666666667</ele><time>2026-04-03T09:48:06Z</time></trkpt><trkpt lat="39.70196251179869" lon="9.493302806109083"><ele>757.0</ele><time>2026-04-03T09:48:07Z</time></trkpt><trkpt lat="39.70198676479454" lon="9.493534398256473"><ele>759.6666666666667</ele><time>2026-04-03T09:48:08Z</time></trkpt><trkpt lat="39.701998853613354" lon="9.49377212830545"><ele>762.3333333333334</ele><time>2026-04-03T09:48:09Z</time></trkpt><trkpt lat="39.70199176325662" lon="9.49401503940339"><ele>765.0</ele><time>2026-04-03T09:48:10Z</time></trkpt><trkpt lat="39.701972397737606" lon="9.494261950391783"><ele>765.0</ele><time>2026-04-03T09:48:11Z</time></trkpt><trkpt lat="39.701953482683976" lon="9.494510143200419"><ele>765.0</ele><time>2026-04-03T09:48:12Z</time></trkpt><trkpt lat="39.7019316879379" lon="9.494754404862448"><ele>765.0</ele><time>2026-04-03T09:48:13Z</time></trkpt><trkpt lat="39.70190764760945" lon="9.494994915544767"><ele>764.3333333333334</ele><time>2026-04-03T09:48:14Z</time></trkpt><trkpt lat="39.70189414313569" lon="9.49521629068275"><ele>763.6666666666667</ele><time>2026-04-03T09:48:15Z</time></trkpt><trkpt lat="39.701907656142666" lon="9.495430277653854"><ele>763.0</ele><time>2026-04-03T09:48:16Z</time></trkpt><trkpt lat="39.70196834662737" lon="9.495629292933714"><ele>763.0</ele><time>2026-04-03T09:48:17Z</time></trkpt><trkpt lat="39.702069014729965" lon="9.495797676055028"><ele>763.0</ele><time>2026-04-03T09:48:18Z</time></trkpt><trkpt lat="39.702208882892286" lon="9.495922317674262"><ele>763.0</ele><time>2026-04-03T09:48:19Z</time></trkpt><trkpt lat="39.70236527444955" lon="9.49599343357298"><ele>763.0</ele><time>2026-04-03T09:48:20Z</time></trkpt><trkpt lat="39.7025089921382" lon="9.496087361095414"><ele>763.0</ele><time>2026-04-03T09:48:21Z</time></trkpt><trkpt lat="39.70262442804368" lon="9.496203134269837"><ele>763.0</ele><time>2026-04-03T09:48:22Z</time></trkpt><trkpt lat="39.70269948991721" lon="9.496364230592611"><ele>763.3333333333334</ele><time>2026-04-03T09:48:23Z</time></trkpt><trkpt lat="39.70272936954685" lon="9.496562929733182"><ele>763.6666666666666</ele><time>2026-04-03T09:48:24Z</time></trkpt><trkpt lat="39.70274839758889" lon="9.496775377151566"><ele>764.0</ele><time>2026-04-03T09:48:25Z</time></trkpt><trkpt lat="39.702785672903" lon="9.496991002673209"><ele>763.6666666666666</ele><time>2026-04-03T09:48:26Z</time></trkpt><trkpt lat="39.70282192960715" lon="9.49720793424103"><ele>763.3333333333334</ele><time>2026-04-03T09:48:27Z</time></trkpt><trkpt lat="39.70287553010774" lon="9.497417546808324"><ele>763.0</ele><time>2026-04-03T09:48:28Z</time></trkpt><trkpt lat="39.702956081365485" lon="9.497616012176351"><ele>763.0</ele><time>2026-04-03T09:48:29Z</time></trkpt><trkpt lat="39.7030352613204" lon="9.497796424052716"><ele>763.0</ele><time>2026-04-03T09:48:30Z</time></trkpt><trkpt lat="39.703101892378854" lon="9.497964089342819"><ele>763.0</ele><time>2026-04-03T09:48:31Z</time></trkpt><trkpt lat="39.70315843766118" lon="9.498136735734427"><ele>763.0</ele><time>2026-04-03T09:48:32Z</time></trkpt><trkpt lat="39.70314629303343" lon="9.498332927777966"><ele>763.5</ele><time>2026-04-03T09:48:33Z</time></trkpt><trkpt lat="39.70309399434861" lon="9.498500251137855"><ele>764.0</ele><time>2026-04-03T09:48:34Z</time></trkpt><trkpt lat="39.702998944055444" lon="9.498637569489672"><ele>764.5</ele><time>2026-04-03T09:48:35Z</time></trkpt><trkpt lat="39.70286759913328" lon="9.498732925304745"><ele>765.0</ele><time>2026-04-03T09:48:36Z</time></trkpt><trkpt lat="39.70272109586475" lon="9.498785928934899"><ele>766.3333333333333</ele><time>2026-04-03T09:48:37Z</time></trkpt><trkpt lat="39.702568109094734" lon="9.49882319039932"><ele>767.6666666666666</ele><time>2026-04-03T09:48:38Z</time></trkpt><trkpt lat="39.70241013357736" lon="9.498860644806536"><ele>769.0</ele><time>2026-04-03T09:48:39Z</time></trkpt><trkpt lat="39.70224535097515" lon="9.498907228014021"><ele>769.0</ele><time>2026-04-03T09:48:40Z</time></trkpt><trkpt lat="39.70207719736156" lon="9.498971761244967"><ele>769.0</ele><time>2026-04-03T09:48:41Z</time></trkpt><trkpt lat="39.70191141822178" lon="9.49906853882447"><ele>769.0</ele><time>2026-04-03T09:48:42Z</time></trkpt><trkpt lat="39.70174708875703" lon="9.49919803129128"><ele>766.0</ele><time>2026-04-03T09:48:43Z</time></trkpt><trkpt lat="39.70159166797554" lon="9.499326730012106"><ele>763.0</ele><time>2026-04-03T09:48:44Z</time></trkpt><trkpt lat="39.701448859345554" lon="9.499442379521343"><ele>760.0</ele><time>2026-04-03T09:48:45Z</time></trkpt><trkpt lat="39.70132005351318" lon="9.499552725171895"><ele>764.0</ele><time>2026-04-03T09:48:46Z</time></trkpt><trkpt lat="39.701228312921366" lon="9.499697596320468"><ele>768.0</ele><time>2026-04-03T09:48:47Z</time></trkpt><trkpt lat="39.7011739981239" lon="9.499884385341051"><ele>772.0</ele><time>2026-04-03T09:48:48Z</time></trkpt><trkpt lat="39.70115184768212" lon="9.500090827981976"><ele>772.0</ele><time>2026-04-03T09:48:49Z</time></trkpt><trkpt lat="39.70117513837069" lon="9.500288768524168"><ele>772.0</ele><time>2026-04-03T09:48:50Z</time></trkpt><trkpt lat="39.701247333322755" lon="9.500469409379201"><ele>772.0</ele><time>2026-04-03T09:48:51Z</time></trkpt><trkpt lat="39.70135680387178" lon="9.500622646877595"><ele>770.0</ele><time>2026-04-03T09:48:52Z</time></trkpt><trkpt lat="39.70150384352825" lon="9.500727359710595"><ele>768.0</ele><time>2026-04-03T09:48:53Z</time></trkpt><trkpt lat="39.70167203431972" lon="9.50078112010481"><ele>766.0</ele><time>2026-04-03T09:48:54Z</time></trkpt><trkpt lat="39.70185124365889" lon="9.500796578757377"><ele>769.0</ele><time>2026-04-03T09:48:55Z</time></trkpt><trkpt lat="39.70204084430988" lon="9.500793196128756"><ele>772.0</ele><time>2026-04-03T09:48:56Z</time></trkpt><trkpt lat="39.702228773714864" lon="9.50079130028882"><ele>775.0</ele><time>2026-04-03T09:48:57Z</time></trkpt><trkpt lat="39.70240933287245" lon="9.500803129490766"><ele>775.0</ele><time>2026-04-03T09:48:58Z</time></trkpt><trkpt lat="39.702591577134164" lon="9.500824068955891"><ele>775.0</ele><time>2026-04-03T09:48:59Z</time></trkpt><trkpt lat="39.7027733387193" lon="9.500848952048525"><ele>775.0</ele><time>2026-04-03T09:49:00Z</time></trkpt><trkpt lat="39.70295317192654" lon="9.500889417350654"><ele>776.6666666666666</ele><time>2026-04-03T09:49:01Z</time></trkpt><trkpt lat="39.70313043168741" lon="9.500951594727034"><ele>778.3333333333333</ele><time>2026-04-03T09:49:02Z</time></trkpt><trkpt lat="39.70330516977932" lon="9.501020794477075"><ele>780.0</ele><time>2026-04-03T09:49:03Z</time></trkpt><trkpt lat="39.703479001337094" lon="9.501082067220187"><ele>780.6666666666667</ele><time>2026-04-03T09:49:04Z</time></trkpt><trkpt lat="39.70365134362317" lon="9.501141704998174"><ele>781.3333333333334</ele><time>2026-04-03T09:49:05Z</time></trkpt><trkpt lat="39.70382179703934" lon="9.501233250427864"><ele>782.0</ele><time>2026-04-03T09:49:06Z</time></trkpt><trkpt lat="39.70397526690003" lon="9.50137391456165"><ele>782.0</ele><time>2026-04-03T09:49:07Z</time></trkpt><trkpt lat="39.70409636651876" lon="9.501563268998593"><ele>782.0</ele><time>2026-04-03T09:49:08Z</time></trkpt><trkpt lat="39.70419495797954" lon="9.501779543008098"><ele>782.0</ele><time>2026-04-03T09:49:09Z</time></trkpt><trkpt lat="39.704300785570446" lon="9.501987148064881"><ele>782.3333333333334</ele><time>2026-04-03T09:49:10Z</time></trkpt><trkpt lat="39.704413661393595" lon="9.502184271639546"><ele>782.6666666666667</ele><time>2026-04-03T09:49:11Z</time></trkpt><trkpt lat="39.704530116543815" lon="9.502384532947687"><ele>783.0</ele><time>2026-04-03T09:49:12Z</time></trkpt><trkpt lat="39.704645167842706" lon="9.502591752910357"><ele>783.0</ele><time>2026-04-03T09:49:13Z</time></trkpt><trkpt lat="39.704759680110605" lon="9.502805455961314"><ele>783.0</ele><time>2026-04-03T09:49:14Z</time></trkpt><trkpt lat="39.70487611744472" lon="9.503021935297575"><ele>783.0</ele><time>2026-04-03T09:49:15Z</time></trkpt><trkpt lat="39.704991776459075" lon="9.503244633963265"><ele>784.3333333333333</ele><time>2026-04-03T09:49:16Z</time></trkpt><trkpt lat="39.70510764161106" lon="9.503465576893706"><ele>785.6666666666666</ele><time>2026-04-03T09:49:17Z</time></trkpt><trkpt lat="39.70522435945729" lon="9.50368678198353"><ele>787.0</ele><time>2026-04-03T09:49:18Z</time></trkpt><trkpt lat="39.70534287911673" lon="9.503908881224728"><ele>784.3333333333333</ele><time>2026-04-03T09:49:19Z</time></trkpt><trkpt lat="39.70546452501858" lon="9.504129569093163"><ele>781.6666666666667</ele><time>2026-04-03T09:49:20Z</time></trkpt><trkpt lat="39.70558300729215" lon="9.504350931943051"><ele>779.0</ele><time>2026-04-03T09:49:21Z</time></trkpt><trkpt lat="39.705699731381756" lon="9.504572672258526"><ele>781.0</ele><time>2026-04-03T09:49:22Z</time></trkpt><trkpt lat="39.70581214251628" lon="9.504808736244"><ele>783.0</ele><time>2026-04-03T09:49:23Z</time></trkpt><trkpt lat="39.70593085412988" lon="9.505034239508236"><ele>785.0</ele><time>2026-04-03T09:49:24Z</time></trkpt><trkpt lat="39.70605379011403" lon="9.50525813898229"><ele>783.3333333333334</ele><time>2026-04-03T09:49:25Z</time></trkpt><trkpt lat="39.70617383524255" lon="9.505479679502683"><ele>781.6666666666667</ele><time>2026-04-03T09:49:26Z</time></trkpt><trkpt lat="39.70628735693954" lon="9.505699146268912"><ele>780.0</ele><time>2026-04-03T09:49:27Z</time></trkpt><trkpt lat="39.70639072096147" lon="9.505906351340826"><ele>780.0</ele><time>2026-04-03T09:49:28Z</time></trkpt><trkpt lat="39.70650227800344" lon="9.5060838225176"><ele>780.0</ele><time>2026-04-03T09:49:29Z</time></trkpt><trkpt lat="39.70664369575888" lon="9.50621756051736"><ele>780.0</ele><time>2026-04-03T09:49:30Z</time></trkpt><trkpt lat="39.706808909657155" lon="9.506299629128172"><ele>785.3333333333333</ele><time>2026-04-03T09:49:31Z</time></trkpt><trkpt lat="39.70698290140856" lon="9.506327310997628"><ele>790.6666666666666</ele><time>2026-04-03T09:49:32Z</time></trkpt><trkpt lat="39.707162340732076" lon="9.506315169843335"><ele>796.0</ele><time>2026-04-03T09:49:33Z</time></trkpt><trkpt lat="39.70734423746358" lon="9.506292031706746"><ele>796.0</ele><time>2026-04-03T09:49:34Z</time></trkpt><trkpt lat="39.70753448634753" lon="9.50626706941642"><ele>796.0</ele><time>2026-04-03T09:49:35Z</time></trkpt><trkpt lat="39.70773005437766" lon="9.506245221030126"><ele>796.0</ele><time>2026-04-03T09:49:36Z</time></trkpt><trkpt lat="39.707915117899184" lon="9.506224683632052"><ele>798.3333333333333</ele><time>2026-04-03T09:49:37Z</time></trkpt><trkpt lat="39.70809751068385" lon="9.506204694047936"><ele>800.6666666666667</ele><time>2026-04-03T09:49:38Z</time></trkpt><trkpt lat="39.70828053949113" lon="9.506206171547024"><ele>803.0</ele><time>2026-04-03T09:49:39Z</time></trkpt><trkpt lat="39.70846440922376" lon="9.506253201532951"><ele>800.3333333333334</ele><time>2026-04-03T09:49:40Z</time></trkpt><trkpt lat="39.70864025160269" lon="9.506338889355384"><ele>797.6666666666667</ele><time>2026-04-03T09:49:41Z</time></trkpt><trkpt lat="39.70880646276412" lon="9.506457611337785"><ele>795.0</ele><time>2026-04-03T09:49:42Z</time></trkpt><trkpt lat="39.70895988806405" lon="9.506615875608874"><ele>795.0</ele><time>2026-04-03T09:49:43Z</time></trkpt><trkpt lat="39.70910560441796" lon="9.50677983757309"><ele>795.0</ele><time>2026-04-03T09:49:44Z</time></trkpt><trkpt lat="39.70925222912721" lon="9.506943763675432"><ele>795.0</ele><time>2026-04-03T09:49:45Z</time></trkpt><trkpt lat="39.70939972660614" lon="9.507106721526734"><ele>797.3333333333333</ele><time>2026-04-03T09:49:46Z</time></trkpt><trkpt lat="39.70955995216883" lon="9.50724851835587"><ele>799.6666666666666</ele><time>2026-04-03T09:49:47Z</time></trkpt><trkpt lat="39.70973277217094" lon="9.507359039115471"><ele>802.0</ele><time>2026-04-03T09:49:48Z</time></trkpt><trkpt lat="39.70991331902608" lon="9.507439206312549"><ele>802.0</ele><time>2026-04-03T09:49:49Z</time></trkpt><trkpt lat="39.71009608920259" lon="9.507473521874724"><ele>802.0</ele><time>2026-04-03T09:49:50Z</time></trkpt><trkpt lat="39.71029333504068" lon="9.507470831409119"><ele>802.0</ele><time>2026-04-03T09:49:51Z</time></trkpt><trkpt lat="39.710483719530714" lon="9.507421914739728"><ele>802.0</ele><time>2026-04-03T09:49:52Z</time></trkpt><trkpt lat="39.710668348795075" lon="9.507346804135834"><ele>802.0</ele><time>2026-04-03T09:49:53Z</time></trkpt><trkpt lat="39.71084822502314" lon="9.507254626965564"><ele>802.0</ele><time>2026-04-03T09:49:54Z</time></trkpt><trkpt lat="39.71102529492964" lon="9.507152973888676"><ele>801.6666666666666</ele><time>2026-04-03T09:49:55Z</time></trkpt><trkpt lat="39.71120683495914" lon="9.507085762739898"><ele>801.3333333333333</ele><time>2026-04-03T09:49:56Z</time></trkpt><trkpt lat="39.71138485182662" lon="9.507000132358865"><ele>801.0</ele><time>2026-04-03T09:49:57Z</time></trkpt><trkpt lat="39.711563687911344" lon="9.506914107905994"><ele>801.0</ele><time>2026-04-03T09:49:58Z</time></trkpt><trkpt lat="39.71173995112653" lon="9.506814206740168"><ele>801.0</ele><time>2026-04-03T09:49:59Z</time></trkpt><trkpt lat="39.71192531873828" lon="9.506731543740365"><ele>801.0</ele><time>2026-04-03T09:50:00Z</time></trkpt><trkpt lat="39.71210881567289" lon="9.506637238634235"><ele>801.6666666666667</ele><time>2026-04-03T09:50:01Z</time></trkpt><trkpt lat="39.71229337238542" lon="9.50654601810423"><ele>802.3333333333334</ele><time>2026-04-03T09:50:02Z</time></trkpt><trkpt lat="39.71247763718889" lon="9.50645677164731"><ele>803.0</ele><time>2026-04-03T09:50:03Z</time></trkpt><trkpt lat="39.71266631034414" lon="9.506377124383018"><ele>805.0</ele><time>2026-04-03T09:50:04Z</time></trkpt><trkpt lat="39.712854238653684" lon="9.50629232079425"><ele>807.0</ele><time>2026-04-03T09:50:05Z</time></trkpt><trkpt lat="39.713042460300535" lon="9.506196223957911"><ele>809.0</ele><time>2026-04-03T09:50:06Z</time></trkpt><trkpt lat="39.71323525758271" lon="9.5061059549219"><ele>809.0</ele><time>2026-04-03T09:50:07Z</time></trkpt><trkpt lat="39.713428513311825" lon="9.506019528868546"><ele>809.0</ele><time>2026-04-03T09:50:08Z</time></trkpt><trkpt lat="39.71361946349023" lon="9.505924694179164"><ele>809.0</ele><time>2026-04-03T09:50:09Z</time></trkpt><trkpt lat="39.71381282521438" lon="9.5058313894814"><ele>810.6666666666667</ele><time>2026-04-03T09:50:10Z</time></trkpt><trkpt lat="39.714009261610435" lon="9.505742381533725"><ele>812.3333333333333</ele><time>2026-04-03T09:50:11Z</time></trkpt><trkpt lat="39.71420593580837" lon="9.505651078089393"><ele>814.0</ele><time>2026-04-03T09:50:12Z</time></trkpt><trkpt lat="39.714402516309285" lon="9.50555317390041"><ele>813.3333333333333</ele><time>2026-04-03T09:50:13Z</time></trkpt><trkpt lat="39.714603694635734" lon="9.505448839138422"><ele>812.6666666666667</ele><time>2026-04-03T09:50:14Z</time></trkpt><trkpt lat="39.71479850281157" lon="9.505354111634427"><ele>812.0</ele><time>2026-04-03T09:50:15Z</time></trkpt><trkpt lat="39.714989631052724" lon="9.505268607848398"><ele>814.0</ele><time>2026-04-03T09:50:16Z</time></trkpt><trkpt lat="39.71517564099309" lon="9.50518261108489"><ele>816.0</ele><time>2026-04-03T09:50:17Z</time></trkpt><trkpt lat="39.71535868670974" lon="9.505076811103745"><ele>818.0</ele><time>2026-04-03T09:50:18Z</time></trkpt><trkpt lat="39.7155285493427" lon="9.504968726314297"><ele>818.0</ele><time>2026-04-03T09:50:19Z</time></trkpt><trkpt lat="39.71574534449691" lon="9.504760856905115"><ele>818.0</ele><time>2026-04-03T09:50:20Z</time></trkpt><trkpt lat="39.715907624516426" lon="9.504586853801458"><ele>819.0</ele><time>2026-04-03T09:50:21Z</time></trkpt><trkpt lat="39.71606964926318" lon="9.504414096781392"><ele>820.0</ele><time>2026-04-03T09:50:22Z</time></trkpt><trkpt lat="39.716231278720976" lon="9.504241637635085"><ele>821.0</ele><time>2026-04-03T09:50:23Z</time></trkpt><trkpt lat="39.71639278382492" lon="9.504071582982565"><ele>821.0</ele><time>2026-04-03T09:50:24Z</time></trkpt><trkpt lat="39.71655792470583" lon="9.503906808668805"><ele>821.0</ele><time>2026-04-03T09:50:25Z</time></trkpt><trkpt lat="39.71672031818847" lon="9.503737549192282"><ele>821.0</ele><time>2026-04-03T09:50:26Z</time></trkpt><trkpt lat="39.716882914469984" lon="9.50357117677472"><ele>822.3333333333334</ele><time>2026-04-03T09:50:27Z</time></trkpt><trkpt lat="39.71704416902786" lon="9.503398239154963"><ele>823.6666666666667</ele><time>2026-04-03T09:50:28Z</time></trkpt><trkpt lat="39.717206382686314" lon="9.503224178131218"><ele>825.0</ele><time>2026-04-03T09:50:29Z</time></trkpt><trkpt lat="39.717367996617114" lon="9.503054198755688"><ele>827.0</ele><time>2026-04-03T09:50:30Z</time></trkpt><trkpt lat="39.71753052568011" lon="9.502885236511455"><ele>829.0</ele><time>2026-04-03T09:50:31Z</time></trkpt><trkpt lat="39.71769548574226" lon="9.502717513173359"><ele>831.0</ele><time>2026-04-03T09:50:32Z</time></trkpt><trkpt lat="39.71785678577804" lon="9.502549882214186"><ele>831.0</ele><time>2026-04-03T09:50:33Z</time></trkpt><trkpt lat="39.718023922700816" lon="9.50238020731109"><ele>831.0</ele><time>2026-04-03T09:50:34Z</time></trkpt><trkpt lat="39.71818864166072" lon="9.502212254569288"><ele>831.0</ele><time>2026-04-03T09:50:35Z</time></trkpt><trkpt lat="39.718353303908025" lon="9.502045953894624"><ele>832.6666666666667</ele><time>2026-04-03T09:50:36Z</time></trkpt><trkpt lat="39.7185175160045" lon="9.501869542727214"><ele>834.3333333333334</ele><time>2026-04-03T09:50:37Z</time></trkpt><trkpt lat="39.718685723712404" lon="9.501701365581141"><ele>836.0</ele><time>2026-04-03T09:50:38Z</time></trkpt><trkpt lat="39.71885786567661" lon="9.501531460402477"><ele>836.6666666666667</ele><time>2026-04-03T09:50:39Z</time></trkpt><trkpt lat="39.719029557560894" lon="9.501362541486445"><ele>837.3333333333333</ele><time>2026-04-03T09:50:40Z</time></trkpt><trkpt lat="39.719196824028316" lon="9.50119171394698"><ele>838.0</ele><time>2026-04-03T09:50:41Z</time></trkpt><trkpt lat="39.71934526832463" lon="9.501033630527486"><ele>832.6666666666666</ele><time>2026-04-03T09:50:42Z</time></trkpt><trkpt lat="39.71948450353752" lon="9.500878373381585"><ele>827.3333333333333</ele><time>2026-04-03T09:50:43Z</time></trkpt><trkpt lat="39.719597253757684" lon="9.50069326507143"><ele>822.0</ele><time>2026-04-03T09:50:44Z</time></trkpt><trkpt lat="39.71967551895311" lon="9.500466121767545"><ele>824.3333333333333</ele><time>2026-04-03T09:50:45Z</time></trkpt><trkpt lat="39.71974687909845" lon="9.500228541981437"><ele>826.6666666666666</ele><time>2026-04-03T09:50:46Z</time></trkpt><trkpt lat="39.71981721180741" lon="9.499993767614328"><ele>829.0</ele><time>2026-04-03T09:50:47Z</time></trkpt><trkpt lat="39.719912282478894" lon="9.499758198744523"><ele>831.0</ele><time>2026-04-03T09:50:48Z</time></trkpt><trkpt lat="39.72000656175305" lon="9.499520585181553"><ele>833.0</ele><time>2026-04-03T09:50:49Z</time></trkpt><trkpt lat="39.72009748949166" lon="9.499274849965582"><ele>835.0</ele><time>2026-04-03T09:50:50Z</time></trkpt><trkpt lat="39.720186639671624" lon="9.499026812455588"><ele>834.6666666666666</ele><time>2026-04-03T09:50:51Z</time></trkpt><trkpt lat="39.720275659071504" lon="9.498770093788316"><ele>834.3333333333333</ele><time>2026-04-03T09:50:52Z</time></trkpt><trkpt lat="39.72036631115424" lon="9.498519092109785"><ele>834.0</ele><time>2026-04-03T09:50:53Z</time></trkpt><trkpt lat="39.720459936290325" lon="9.498274213390358"><ele>834.0</ele><time>2026-04-03T09:50:54Z</time></trkpt><trkpt lat="39.720566694466434" lon="9.498039416768158"><ele>834.0</ele><time>2026-04-03T09:50:55Z</time></trkpt><trkpt lat="39.72070626855224" lon="9.497837349848853"><ele>834.0</ele><time>2026-04-03T09:50:56Z</time></trkpt><trkpt lat="39.72088569506393" lon="9.497690546721747"><ele>834.0</ele><time>2026-04-03T09:50:57Z</time></trkpt><trkpt lat="39.721059592998884" lon="9.497526974516546"><ele>834.0</ele><time>2026-04-03T09:50:58Z</time></trkpt><trkpt lat="39.72123577529248" lon="9.497382225613881"><ele>834.0</ele><time>2026-04-03T09:50:59Z</time></trkpt><trkpt lat="39.72140145110977" lon="9.49722927182422"><ele>835.0</ele><time>2026-04-03T09:51:00Z</time></trkpt><trkpt lat="39.72156474231359" lon="9.497077095666953"><ele>836.0</ele><time>2026-04-03T09:51:01Z</time></trkpt><trkpt lat="39.721724114084324" lon="9.496928660774515"><ele>837.0</ele><time>2026-04-03T09:51:02Z</time></trkpt><trkpt lat="39.721881964608706" lon="9.496785267319405"><ele>840.3333333333333</ele><time>2026-04-03T09:51:03Z</time></trkpt><trkpt lat="39.72203525189871" lon="9.496638811973014"><ele>843.6666666666666</ele><time>2026-04-03T09:51:04Z</time></trkpt><trkpt lat="39.72218805279098" lon="9.496491954904167"><ele>847.0</ele><time>2026-04-03T09:51:05Z</time></trkpt><trkpt lat="39.72234537304096" lon="9.496344420763458"><ele>847.0</ele><time>2026-04-03T09:51:06Z</time></trkpt><trkpt lat="39.72250687970676" lon="9.49619788507999"><ele>847.0</ele><time>2026-04-03T09:51:07Z</time></trkpt><trkpt lat="39.72266828670632" lon="9.496049689631429"><ele>847.0</ele><time>2026-04-03T09:51:08Z</time></trkpt><trkpt lat="39.72282669367156" lon="9.495905125865066"><ele>847.0</ele><time>2026-04-03T09:51:09Z</time></trkpt><trkpt lat="39.72298115942342" lon="9.49576191761953"><ele>847.0</ele><time>2026-04-03T09:51:10Z</time></trkpt><trkpt lat="39.7231364786975" lon="9.495627069688503"><ele>847.0</ele><time>2026-04-03T09:51:11Z</time></trkpt><trkpt lat="39.723293381215306" lon="9.495518591513415"><ele>847.0</ele><time>2026-04-03T09:51:12Z</time></trkpt><trkpt lat="39.723450290536796" lon="9.495450542953364"><ele>847.0</ele><time>2026-04-03T09:51:13Z</time></trkpt><trkpt lat="39.72361453092106" lon="9.495425956503636"><ele>847.0</ele><time>2026-04-03T09:51:14Z</time></trkpt><trkpt lat="39.72378343362126" lon="9.49542865892031"><ele>846.3333333333333</ele><time>2026-04-03T09:51:15Z</time></trkpt><trkpt lat="39.72395731051991" lon="9.495466971311988"><ele>845.6666666666667</ele><time>2026-04-03T09:51:16Z</time></trkpt><trkpt lat="39.72411560703103" lon="9.495570492093115"><ele>845.0</ele><time>2026-04-03T09:51:17Z</time></trkpt><trkpt lat="39.72428753502427" lon="9.495656131567713"><ele>842.6666666666667</ele><time>2026-04-03T09:51:18Z</time></trkpt><trkpt lat="39.72443299715231" lon="9.495811491203265"><ele>840.3333333333333</ele><time>2026-04-03T09:51:19Z</time></trkpt><trkpt lat="39.72456924771773" lon="9.495992242574058"><ele>838.0</ele><time>2026-04-03T09:51:20Z</time></trkpt><trkpt lat="39.724699224055804" lon="9.496181889897429"><ele>839.0</ele><time>2026-04-03T09:51:21Z</time></trkpt><trkpt lat="39.72484329061666" lon="9.496370508737535"><ele>840.0</ele><time>2026-04-03T09:51:22Z</time></trkpt><trkpt lat="39.72499153382087" lon="9.4965566033527"><ele>841.0</ele><time>2026-04-03T09:51:23Z</time></trkpt><trkpt lat="39.725137925450554" lon="9.496740761646011"><ele>841.6666666666666</ele><time>2026-04-03T09:51:24Z</time></trkpt><trkpt lat="39.725291074857836" lon="9.496909867723126"><ele>842.3333333333333</ele><time>2026-04-03T09:51:25Z</time></trkpt><trkpt lat="39.72542794474909" lon="9.497086423042164"><ele>843.0</ele><time>2026-04-03T09:51:26Z</time></trkpt><trkpt lat="39.72557030344178" lon="9.497243222649521"><ele>841.6666666666667</ele><time>2026-04-03T09:51:27Z</time></trkpt><trkpt lat="39.72573855316416" lon="9.497368972743498"><ele>840.3333333333334</ele><time>2026-04-03T09:51:28Z</time></trkpt><trkpt lat="39.7259285341572" lon="9.497438513523024"><ele>839.0</ele><time>2026-04-03T09:51:29Z</time></trkpt><trkpt lat="39.72613234524153" lon="9.497468806740477"><ele>839.0</ele><time>2026-04-03T09:51:30Z</time></trkpt><trkpt lat="39.72633324695506" lon="9.497491595822993"><ele>839.0</ele><time>2026-04-03T09:51:31Z</time></trkpt><trkpt lat="39.72653146619151" lon="9.49752697010754"><ele>839.0</ele><time>2026-04-03T09:51:32Z</time></trkpt><trkpt lat="39.72673046785942" lon="9.49756761745423"><ele>838.6666666666667</ele><time>2026-04-03T09:51:33Z</time></trkpt><trkpt lat="39.72692997868759" lon="9.497608292033743"><ele>838.3333333333333</ele><time>2026-04-03T09:51:34Z</time></trkpt><trkpt lat="39.72712516264334" lon="9.497650671560002"><ele>838.0</ele><time>2026-04-03T09:51:35Z</time></trkpt><trkpt lat="39.7273068930359" lon="9.497699723470907"><ele>838.0</ele><time>2026-04-03T09:51:36Z</time></trkpt><trkpt lat="39.727468730919675" lon="9.497779454693882"><ele>838.0</ele><time>2026-04-03T09:51:37Z</time></trkpt><trkpt lat="39.72760345914781" lon="9.497908092697182"><ele>838.0</ele><time>2026-04-03T09:51:38Z</time></trkpt><trkpt lat="39.72769668454971" lon="9.498085408768663"><ele>837.6666666666666</ele><time>2026-04-03T09:51:39Z</time></trkpt><trkpt lat="39.72775683342574" lon="9.498297378522512"><ele>837.3333333333333</ele><time>2026-04-03T09:51:40Z</time></trkpt><trkpt lat="39.72778621298153" lon="9.498533716109176"><ele>837.0</ele><time>2026-04-03T09:51:41Z</time></trkpt><trkpt lat="39.72780639567241" lon="9.498776733371816"><ele>836.3333333333333</ele><time>2026-04-03T09:51:42Z</time></trkpt><trkpt lat="39.727833910051416" lon="9.49902380972692"><ele>835.6666666666666</ele><time>2026-04-03T09:51:43Z</time></trkpt><trkpt lat="39.72787159738277" lon="9.499276153279762"><ele>835.0</ele><time>2026-04-03T09:51:44Z</time></trkpt><trkpt lat="39.72791482673306" lon="9.499534535026754"><ele>834.0</ele><time>2026-04-03T09:51:45Z</time></trkpt><trkpt lat="39.727951079310465" lon="9.49979750184255"><ele>833.0</ele><time>2026-04-03T09:51:46Z</time></trkpt><trkpt lat="39.727981514806025" lon="9.500050885145978"><ele>832.0</ele><time>2026-04-03T09:51:47Z</time></trkpt><trkpt lat="39.72801438565144" lon="9.50028898595482"><ele>831.0</ele><time>2026-04-03T09:51:48Z</time></trkpt><trkpt lat="39.728046293385276" lon="9.500517493712184"><ele>830.0</ele><time>2026-04-03T09:51:49Z</time></trkpt><trkpt lat="39.72807695794047" lon="9.500738129260748"><ele>829.0</ele><time>2026-04-03T09:51:50Z</time></trkpt><trkpt lat="39.72811481285679" lon="9.500935220683267"><ele>829.0</ele><time>2026-04-03T09:51:51Z</time></trkpt><trkpt lat="39.72817355409714" lon="9.501112541900225"><ele>829.0</ele><time>2026-04-03T09:51:52Z</time></trkpt><trkpt lat="39.72827089234074" lon="9.501265491484544"><ele>829.0</ele><time>2026-04-03T09:51:53Z</time></trkpt><trkpt lat="39.72840258118134" lon="9.501385919376421"><ele>824.6666666666666</ele><time>2026-04-03T09:51:54Z</time></trkpt><trkpt lat="39.72856155222063" lon="9.50145707031009"><ele>820.3333333333333</ele><time>2026-04-03T09:51:55Z</time></trkpt><trkpt lat="39.728732380301835" lon="9.501472052482166"><ele>816.0</ele><time>2026-04-03T09:51:56Z</time></trkpt><trkpt lat="39.728903569157694" lon="9.50143307668101"><ele>816.0</ele><time>2026-04-03T09:51:57Z</time></trkpt><trkpt lat="39.72907194994126" lon="9.501377282093943"><ele>816.0</ele><time>2026-04-03T09:51:58Z</time></trkpt><trkpt lat="39.72924155381776" lon="9.50132274284573"><ele>816.0</ele><time>2026-04-03T09:51:59Z</time></trkpt><trkpt lat="39.729413236102836" lon="9.501281556029824"><ele>817.6666666666667</ele><time>2026-04-03T09:52:00Z</time></trkpt><trkpt lat="39.72958683089779" lon="9.501245868215422"><ele>819.3333333333334</ele><time>2026-04-03T09:52:01Z</time></trkpt><trkpt lat="39.72975965248672" lon="9.501204861803098"><ele>821.0</ele><time>2026-04-03T09:52:02Z</time></trkpt><trkpt lat="39.729938539620164" lon="9.501186742778899"><ele>821.0</ele><time>2026-04-03T09:52:03Z</time></trkpt><trkpt lat="39.730112501700845" lon="9.501185365652045"><ele>821.0</ele><time>2026-04-03T09:52:04Z</time></trkpt><trkpt lat="39.73028681945448" lon="9.501215146619325"><ele>821.0</ele><time>2026-04-03T09:52:05Z</time></trkpt><trkpt lat="39.73045509366581" lon="9.501273117980196"><ele>819.3333333333334</ele><time>2026-04-03T09:52:06Z</time></trkpt><trkpt lat="39.73062158706225" lon="9.501356229230108"><ele>817.6666666666667</ele><time>2026-04-03T09:52:07Z</time></trkpt><trkpt lat="39.73078354590937" lon="9.501453006772017"><ele>816.0</ele><time>2026-04-03T09:52:08Z</time></trkpt><trkpt lat="39.730947944538734" lon="9.50155653234778"><ele>817.3333333333333</ele><time>2026-04-03T09:52:09Z</time></trkpt><trkpt lat="39.73111335285252" lon="9.501653805403558"><ele>818.6666666666666</ele><time>2026-04-03T09:52:10Z</time></trkpt><trkpt lat="39.73128296735631" lon="9.501741666390963"><ele>820.0</ele><time>2026-04-03T09:52:11Z</time></trkpt><trkpt lat="39.731451364325686" lon="9.501839462548931"><ele>820.0</ele><time>2026-04-03T09:52:12Z</time></trkpt><trkpt lat="39.73161228064226" lon="9.501959732570915"><ele>820.0</ele><time>2026-04-03T09:52:13Z</time></trkpt><trkpt lat="39.731762559743586" lon="9.502107744292084"><ele>820.0</ele><time>2026-04-03T09:52:14Z</time></trkpt><trkpt lat="39.73190123893096" lon="9.502277116774126"><ele>818.3333333333333</ele><time>2026-04-03T09:52:15Z</time></trkpt><trkpt lat="39.73202975479448" lon="9.502464921609256"><ele>816.6666666666667</ele><time>2026-04-03T09:52:16Z</time></trkpt><trkpt lat="39.73214715500968" lon="9.502661963984249"><ele>815.0</ele><time>2026-04-03T09:52:17Z</time></trkpt><trkpt lat="39.732264920779414" lon="9.502859942037052"><ele>815.6666666666667</ele><time>2026-04-03T09:52:18Z</time></trkpt><trkpt lat="39.732382081700344" lon="9.503040545636669"><ele>816.3333333333333</ele><time>2026-04-03T09:52:19Z</time></trkpt><trkpt lat="39.732496186794116" lon="9.503206550410239"><ele>817.0</ele><time>2026-04-03T09:52:20Z</time></trkpt><trkpt lat="39.73261415401062" lon="9.503352837966029"><ele>818.0</ele><time>2026-04-03T09:52:21Z</time></trkpt><trkpt lat="39.73275447217152" lon="9.503458526730443"><ele>819.0</ele><time>2026-04-03T09:52:22Z</time></trkpt><trkpt lat="39.73291672645209" lon="9.503508771766086"><ele>820.0</ele><time>2026-04-03T09:52:23Z</time></trkpt><trkpt lat="39.73308746056523" lon="9.503509913209848"><ele>820.0</ele><time>2026-04-03T09:52:24Z</time></trkpt><trkpt lat="39.73325613532824" lon="9.503459284786395"><ele>820.0</ele><time>2026-04-03T09:52:25Z</time></trkpt><trkpt lat="39.733410622126385" lon="9.503364740868795"><ele>820.0</ele><time>2026-04-03T09:52:26Z</time></trkpt><trkpt lat="39.73355346764319" lon="9.503233048952119"><ele>821.0</ele><time>2026-04-03T09:52:27Z</time></trkpt><trkpt lat="39.73368660196956" lon="9.503085133375162"><ele>822.0</ele><time>2026-04-03T09:52:28Z</time></trkpt><trkpt lat="39.733823147503585" lon="9.502930539099923"><ele>823.0</ele><time>2026-04-03T09:52:29Z</time></trkpt><trkpt lat="39.73395885286023" lon="9.502775609258501"><ele>823.0</ele><time>2026-04-03T09:52:30Z</time></trkpt><trkpt lat="39.73410430076835" lon="9.502633310717169"><ele>823.0</ele><time>2026-04-03T09:52:31Z</time></trkpt><trkpt lat="39.73425948543305" lon="9.502477392380682"><ele>823.0</ele><time>2026-04-03T09:52:32Z</time></trkpt><trkpt lat="39.73442526737772" lon="9.502309390318874"><ele>824.3333333333333</ele><time>2026-04-03T09:52:33Z</time></trkpt><trkpt lat="39.73459031985537" lon="9.502140175030076"><ele>825.6666666666667</ele><time>2026-04-03T09:52:34Z</time></trkpt><trkpt lat="39.73475657076748" lon="9.501969448495448"><ele>827.0</ele><time>2026-04-03T09:52:35Z</time></trkpt><trkpt lat="39.734923551722886" lon="9.501795384045"><ele>827.0</ele><time>2026-04-03T09:52:36Z</time></trkpt><trkpt lat="39.73508999069599" lon="9.501624432941492"><ele>827.0</ele><time>2026-04-03T09:52:37Z</time></trkpt><trkpt lat="39.73525360446047" lon="9.501459424518954"><ele>827.0</ele><time>2026-04-03T09:52:38Z</time></trkpt><trkpt lat="39.73541487119825" lon="9.50129710696288"><ele>827.6666666666667</ele><time>2026-04-03T09:52:39Z</time></trkpt><trkpt lat="39.73557546866501" lon="9.501132620035774"><ele>828.3333333333333</ele><time>2026-04-03T09:52:40Z</time></trkpt><trkpt lat="39.73573500003965" lon="9.500965077170651"><ele>829.0</ele><time>2026-04-03T09:52:41Z</time></trkpt><trkpt lat="39.73589330390991" lon="9.500803275435613"><ele>829.0</ele><time>2026-04-03T09:52:42Z</time></trkpt><trkpt lat="39.73604619863757" lon="9.50065039653523"><ele>829.0</ele><time>2026-04-03T09:52:43Z</time></trkpt><trkpt lat="39.73620753663753" lon="9.50053909869944"><ele>829.0</ele><time>2026-04-03T09:52:44Z</time></trkpt><trkpt lat="39.73636052573204" lon="9.500480093167702"><ele>830.0</ele><time>2026-04-03T09:52:45Z</time></trkpt><trkpt lat="39.736517207639864" lon="9.500477378144186"><ele>831.0</ele><time>2026-04-03T09:52:46Z</time></trkpt><trkpt lat="39.73667434116483" lon="9.500519530533158"><ele>832.0</ele><time>2026-04-03T09:52:47Z</time></trkpt><trkpt lat="39.73681799101397" lon="9.500624518414293"><ele>836.0</ele><time>2026-04-03T09:52:48Z</time></trkpt><trkpt lat="39.736956102089316" lon="9.500770577828549"><ele>840.0</ele><time>2026-04-03T09:52:49Z</time></trkpt><trkpt lat="39.73709320367463" lon="9.500932070994738"><ele>844.0</ele><time>2026-04-03T09:52:50Z</time></trkpt><trkpt lat="39.737230488563824" lon="9.501093911603872"><ele>844.0</ele><time>2026-04-03T09:52:51Z</time></trkpt><trkpt lat="39.73735758159797" lon="9.501226686515665"><ele>844.0</ele><time>2026-04-03T09:52:52Z</time></trkpt><trkpt lat="39.737488113279134" lon="9.501322125328576"><ele>844.0</ele><time>2026-04-03T09:52:53Z</time></trkpt><trkpt lat="39.737637808815705" lon="9.501367744725135"><ele>842.0</ele><time>2026-04-03T09:52:54Z</time></trkpt><trkpt lat="39.73779580838286" lon="9.501347511116546"><ele>840.0</ele><time>2026-04-03T09:52:55Z</time></trkpt><trkpt lat="39.73794759037121" lon="9.501277616982756"><ele>838.0</ele><time>2026-04-03T09:52:56Z</time></trkpt><trkpt lat="39.73807642401427" lon="9.501151399968645"><ele>838.0</ele><time>2026-04-03T09:52:57Z</time></trkpt><trkpt lat="39.73817961521599" lon="9.50097870052251"><ele>838.0</ele><time>2026-04-03T09:52:58Z</time></trkpt><trkpt lat="39.738251307709675" lon="9.500766676971297"><ele>838.0</ele><time>2026-04-03T09:52:59Z</time></trkpt><trkpt lat="39.73831729761406" lon="9.500540111598031"><ele>837.6666666666666</ele><time>2026-04-03T09:53:00Z</time></trkpt><trkpt lat="39.738393919641815" lon="9.500332545768432"><ele>837.3333333333333</ele><time>2026-04-03T09:53:01Z</time></trkpt><trkpt lat="39.73848629148265" lon="9.50014933523326"><ele>837.0</ele><time>2026-04-03T09:53:02Z</time></trkpt><trkpt lat="39.73861058985576" lon="9.500014814363377"><ele>837.0</ele><time>2026-04-03T09:53:03Z</time></trkpt><trkpt lat="39.738773523146556" lon="9.499958101542049"><ele>837.0</ele><time>2026-04-03T09:53:04Z</time></trkpt><trkpt lat="39.73894353405084" lon="9.499913640337093"><ele>837.0</ele><time>2026-04-03T09:53:05Z</time></trkpt><trkpt lat="39.73912206404557" lon="9.49985763566118"><ele>837.0</ele><time>2026-04-03T09:53:06Z</time></trkpt><trkpt lat="39.739312467759426" lon="9.49981089739551"><ele>837.0</ele><time>2026-04-03T09:53:07Z</time></trkpt><trkpt lat="39.739499511583745" lon="9.499752571951676"><ele>837.0</ele><time>2026-04-03T09:53:08Z</time></trkpt><trkpt lat="39.739689813658465" lon="9.499698130910211"><ele>837.3333333333333</ele><time>2026-04-03T09:53:09Z</time></trkpt><trkpt lat="39.73988521020127" lon="9.499646248412878"><ele>837.6666666666666</ele><time>2026-04-03T09:53:10Z</time></trkpt><trkpt lat="39.74008581502576" lon="9.499597718680802"><ele>838.0</ele><time>2026-04-03T09:53:11Z</time></trkpt><trkpt lat="39.74028707675355" lon="9.499540740394181"><ele>836.6666666666666</ele><time>2026-04-03T09:53:12Z</time></trkpt><trkpt lat="39.74048655265161" lon="9.499476569273849"><ele>835.3333333333333</ele><time>2026-04-03T09:53:13Z</time></trkpt><trkpt lat="39.7406847793999" lon="9.499413370156825"><ele>834.0</ele><time>2026-04-03T09:53:14Z</time></trkpt><trkpt lat="39.7408846384183" lon="9.49935248259449"><ele>834.0</ele><time>2026-04-03T09:53:15Z</time></trkpt><trkpt lat="39.74108561992618" lon="9.499289311567239"><ele>834.0</ele><time>2026-04-03T09:53:16Z</time></trkpt><trkpt lat="39.741289131061805" lon="9.499226011278886"><ele>834.0</ele><time>2026-04-03T09:53:17Z</time></trkpt><trkpt lat="39.74149126182364" lon="9.499168437069727"><ele>834.0</ele><time>2026-04-03T09:53:18Z</time></trkpt><trkpt lat="39.74169325561175" lon="9.499113455230178"><ele>834.0</ele><time>2026-04-03T09:53:19Z</time></trkpt><trkpt lat="39.74189298372634" lon="9.499056660738141"><ele>834.0</ele><time>2026-04-03T09:53:20Z</time></trkpt><trkpt lat="39.742090615675124" lon="9.499000440387062"><ele>833.0</ele><time>2026-04-03T09:53:21Z</time></trkpt><trkpt lat="39.74228765280252" lon="9.498945324124717"><ele>832.0</ele><time>2026-04-03T09:53:22Z</time></trkpt><trkpt lat="39.74248296140221" lon="9.498874912055586"><ele>831.0</ele><time>2026-04-03T09:53:23Z</time></trkpt><trkpt lat="39.74267353072285" lon="9.498780139154446"><ele>830.0</ele><time>2026-04-03T09:53:24Z</time></trkpt><trkpt lat="39.74285771992241" lon="9.498669546442633"><ele>829.0</ele><time>2026-04-03T09:53:25Z</time></trkpt><trkpt lat="39.74303582953075" lon="9.498542264631968"><ele>828.0</ele><time>2026-04-03T09:53:26Z</time></trkpt><trkpt lat="39.74320805754277" lon="9.498401625995553"><ele>828.0</ele><time>2026-04-03T09:53:27Z</time></trkpt><trkpt lat="39.74337612045351" lon="9.498256407100452"><ele>828.0</ele><time>2026-04-03T09:53:28Z</time></trkpt><trkpt lat="39.743543890219" lon="9.498103437133254"><ele>828.0</ele><time>2026-04-03T09:53:29Z</time></trkpt><trkpt lat="39.743711757334054" lon="9.497947745376985"><ele>828.6666666666667</ele><time>2026-04-03T09:53:30Z</time></trkpt><trkpt lat="39.743880666793295" lon="9.4977944795416"><ele>829.3333333333334</ele><time>2026-04-03T09:53:31Z</time></trkpt><trkpt lat="39.744050408793996" lon="9.497644174129698"><ele>830.0</ele><time>2026-04-03T09:53:32Z</time></trkpt><trkpt lat="39.74422028122839" lon="9.497494106488455"><ele>829.6666666666667</ele><time>2026-04-03T09:53:33Z</time></trkpt><trkpt lat="39.7443871520316" lon="9.497343221388622"><ele>829.3333333333333</ele><time>2026-04-03T09:53:34Z</time></trkpt><trkpt lat="39.74455357208585" lon="9.497190146683922"><ele>829.0</ele><time>2026-04-03T09:53:35Z</time></trkpt><trkpt lat="39.74472136184355" lon="9.497040160103253"><ele>829.3333333333333</ele><time>2026-04-03T09:53:36Z</time></trkpt><trkpt lat="39.7448921601615" lon="9.496895244082829"><ele>829.6666666666667</ele><time>2026-04-03T09:53:37Z</time></trkpt><trkpt lat="39.745068242187074" lon="9.49675841865171"><ele>830.0</ele><time>2026-04-03T09:53:38Z</time></trkpt><trkpt lat="39.745251774852285" lon="9.496636592668752"><ele>830.0</ele><time>2026-04-03T09:53:39Z</time></trkpt><trkpt lat="39.74544214509619" lon="9.49652952604901"><ele>830.0</ele><time>2026-04-03T09:53:40Z</time></trkpt><trkpt lat="39.74562825323654" lon="9.49641692757898"><ele>830.0</ele><time>2026-04-03T09:53:41.001Z</time></trkpt><trkpt lat="39.74581765769611" lon="9.496323571558158"><ele>832.3333333333334</ele><time>2026-04-03T09:53:42.001Z</time></trkpt><trkpt lat="39.74600454638344" lon="9.496224180387006"><ele>834.6666666666667</ele><time>2026-04-03T09:53:43.001Z</time></trkpt><trkpt lat="39.74618821856691" lon="9.496119551820419"><ele>837.0</ele><time>2026-04-03T09:53:44.001Z</time></trkpt><trkpt lat="39.74638156818483" lon="9.496038451488976"><ele>837.0</ele><time>2026-04-03T09:53:45.001Z</time></trkpt><trkpt lat="39.74656844067054" lon="9.495932527812185"><ele>837.0</ele><time>2026-04-03T09:53:46.001Z</time></trkpt><trkpt lat="39.74674449998524" lon="9.495802561883389"><ele>837.0</ele><time>2026-04-03T09:53:47.001Z</time></trkpt><trkpt lat="39.746912551545556" lon="9.495656758536366"><ele>837.6666666666667</ele><time>2026-04-03T09:53:48.001Z</time></trkpt><trkpt lat="39.7470760484962" lon="9.495502647408687"><ele>838.3333333333334</ele><time>2026-04-03T09:53:49.001Z</time></trkpt><trkpt lat="39.74724305612922" lon="9.495352724519297"><ele>839.0</ele><time>2026-04-03T09:53:50.001Z</time></trkpt><trkpt lat="39.7474121815602" lon="9.495209572529204"><ele>839.0</ele><time>2026-04-03T09:53:51.001Z</time></trkpt><trkpt lat="39.747578706423454" lon="9.495064792735375"><ele>839.0</ele><time>2026-04-03T09:53:52.001Z</time></trkpt><trkpt lat="39.74774437427398" lon="9.494920092104113"><ele>839.0</ele><time>2026-04-03T09:53:53Z</time></trkpt><trkpt lat="39.74791473605521" lon="9.494779588982993"><ele>839.6666666666667</ele><time>2026-04-03T09:53:54Z</time></trkpt><trkpt lat="39.7480863791895" lon="9.494639430874972"><ele>840.3333333333333</ele><time>2026-04-03T09:53:55Z</time></trkpt><trkpt lat="39.748260328742006" lon="9.49450328878905"><ele>841.0</ele><time>2026-04-03T09:53:56Z</time></trkpt><trkpt lat="39.74844353710897" lon="9.494385158891546"><ele>839.3333333333333</ele><time>2026-04-03T09:53:57Z</time></trkpt><trkpt lat="39.74863640432662" lon="9.49429706848162"><ele>837.6666666666667</ele><time>2026-04-03T09:53:58Z</time></trkpt><trkpt lat="39.74883469176782" lon="9.494232278345063"><ele>836.0</ele><time>2026-04-03T09:53:59Z</time></trkpt><trkpt lat="39.74903647854334" lon="9.494194455273945"><ele>836.0</ele><time>2026-04-03T09:54:00Z</time></trkpt><trkpt lat="39.749240328911526" lon="9.494188920406986"><ele>836.0</ele><time>2026-04-03T09:54:01Z</time></trkpt><trkpt lat="39.74944511688761" lon="9.494207159109362"><ele>836.0</ele><time>2026-04-03T09:54:02Z</time></trkpt><trkpt lat="39.74964740807968" lon="9.494243433613152"><ele>837.0</ele><time>2026-04-03T09:54:03Z</time></trkpt><trkpt lat="39.749850720651246" lon="9.49428885749481"><ele>838.0</ele><time>2026-04-03T09:54:04Z</time></trkpt><trkpt lat="39.75005637386306" lon="9.494317208618128"><ele>839.0</ele><time>2026-04-03T09:54:05Z</time></trkpt><trkpt lat="39.750261217392826" lon="9.494343929032581"><ele>839.0</ele><time>2026-04-03T09:54:06Z</time></trkpt><trkpt lat="39.750465018352024" lon="9.494380233663465"><ele>839.0</ele><time>2026-04-03T09:54:07Z</time></trkpt><trkpt lat="39.75066761967567" lon="9.494416605661065"><ele>839.0</ele><time>2026-04-03T09:54:08Z</time></trkpt><trkpt lat="39.75086895431471" lon="9.494450905458356"><ele>838.0</ele><time>2026-04-03T09:54:09Z</time></trkpt><trkpt lat="39.75107027868411" lon="9.494483485789383"><ele>837.0</ele><time>2026-04-03T09:54:10Z</time></trkpt><trkpt lat="39.75127318619937" lon="9.494518830113401"><ele>836.0</ele><time>2026-04-03T09:54:11Z</time></trkpt><trkpt lat="39.75147597230751" lon="9.494556221727228"><ele>835.0</ele><time>2026-04-03T09:54:12Z</time></trkpt><trkpt lat="39.75167821240241" lon="9.49459128105244"><ele>834.0</ele><time>2026-04-03T09:54:13Z</time></trkpt><trkpt lat="39.75187936892567" lon="9.494623546406393"><ele>833.0</ele><time>2026-04-03T09:54:14Z</time></trkpt><trkpt lat="39.75208324021617" lon="9.49465483493196"><ele>835.6666666666667</ele><time>2026-04-03T09:54:15Z</time></trkpt><trkpt lat="39.75228660544765" lon="9.494685762866386"><ele>838.3333333333333</ele><time>2026-04-03T09:54:16Z</time></trkpt><trkpt lat="39.752488327916076" lon="9.494718692965005"><ele>841.0</ele><time>2026-04-03T09:54:17Z</time></trkpt><trkpt lat="39.75268914186687" lon="9.494754030736907"><ele>843.0</ele><time>2026-04-03T09:54:18Z</time></trkpt><trkpt lat="39.752890695757955" lon="9.49478900915722"><ele>845.0</ele><time>2026-04-03T09:54:19Z</time></trkpt><trkpt lat="39.75309315865629" lon="9.494824221645247"><ele>847.0</ele><time>2026-04-03T09:54:20Z</time></trkpt><trkpt lat="39.753294434789524" lon="9.494861692300532"><ele>847.0</ele><time>2026-04-03T09:54:21Z</time></trkpt><trkpt lat="39.75349416035451" lon="9.49489840699505"><ele>847.0</ele><time>2026-04-03T09:54:22Z</time></trkpt><trkpt lat="39.75369128302326" lon="9.494934965210188"><ele>847.0</ele><time>2026-04-03T09:54:23Z</time></trkpt><trkpt lat="39.75388611783934" lon="9.494969502950793"><ele>847.0</ele><time>2026-04-03T09:54:24Z</time></trkpt><trkpt lat="39.754081545646876" lon="9.495008283023104"><ele>847.0</ele><time>2026-04-03T09:54:25Z</time></trkpt><trkpt lat="39.75427743928905" lon="9.495048287387041"><ele>847.0</ele><time>2026-04-03T09:54:26Z</time></trkpt><trkpt lat="39.75447320224428" lon="9.4950938881165"><ele>847.0</ele><time>2026-04-03T09:54:27Z</time></trkpt><trkpt lat="39.754666085695085" lon="9.495154464242066"><ele>847.0</ele><time>2026-04-03T09:54:28Z</time></trkpt><trkpt lat="39.754856014749784" lon="9.495221911204442"><ele>847.0</ele><time>2026-04-03T09:54:29Z</time></trkpt><trkpt lat="39.75504712131299" lon="9.495284586619086"><ele>847.0</ele><time>2026-04-03T09:54:30Z</time></trkpt><trkpt lat="39.75524018125125" lon="9.49533717974694"><ele>847.0</ele><time>2026-04-03T09:54:31Z</time></trkpt><trkpt lat="39.755433866054744" lon="9.495378744993555"><ele>847.0</ele><time>2026-04-03T09:54:32Z</time></trkpt><trkpt lat="39.755626068908555" lon="9.495421288962163"><ele>847.0</ele><time>2026-04-03T09:54:33Z</time></trkpt><trkpt lat="39.75581655637058" lon="9.495472231338615"><ele>847.0</ele><time>2026-04-03T09:54:34Z</time></trkpt><trkpt lat="39.75600767724945" lon="9.495521336785213"><ele>847.0</ele><time>2026-04-03T09:54:35Z</time></trkpt><trkpt lat="39.756197536740736" lon="9.495567856834189"><ele>847.0</ele><time>2026-04-03T09:54:36Z</time></trkpt><trkpt lat="39.756386599104154" lon="9.495617023748382"><ele>847.0</ele><time>2026-04-03T09:54:37Z</time></trkpt><trkpt lat="39.75657443923549" lon="9.49566442676431"><ele>847.0</ele><time>2026-04-03T09:54:38Z</time></trkpt><trkpt lat="39.7567605007179" lon="9.495692585032295"><ele>843.6666666666666</ele><time>2026-04-03T09:54:39Z</time></trkpt><trkpt lat="39.75694546357234" lon="9.495683103910594"><ele>840.3333333333333</ele><time>2026-04-03T09:54:40Z</time></trkpt><trkpt lat="39.7571266586713" lon="9.495626381827977"><ele>837.0</ele><time>2026-04-03T09:54:41Z</time></trkpt><trkpt lat="39.75729766196079" lon="9.495512448181579"><ele>839.6666666666667</ele><time>2026-04-03T09:54:42Z</time></trkpt><trkpt lat="39.75745581658625" lon="9.495362608838615"><ele>842.3333333333334</ele><time>2026-04-03T09:54:43Z</time></trkpt><trkpt lat="39.75760316836082" lon="9.495195625628938"><ele>845.0</ele><time>2026-04-03T09:54:44Z</time></trkpt><trkpt lat="39.75774990362364" lon="9.495022025362514"><ele>842.6666666666667</ele><time>2026-04-03T09:54:45Z</time></trkpt><trkpt lat="39.75789741814117" lon="9.494864554424503"><ele>840.3333333333333</ele><time>2026-04-03T09:54:46Z</time></trkpt><trkpt lat="39.758042356372556" lon="9.494713781795461"><ele>838.0</ele><time>2026-04-03T09:54:47Z</time></trkpt><trkpt lat="39.75817404532872" lon="9.49456262081838"><ele>838.0</ele><time>2026-04-03T09:54:48Z</time></trkpt><trkpt lat="39.758304064700184" lon="9.494409178431418"><ele>838.0</ele><time>2026-04-03T09:54:49Z</time></trkpt><trkpt lat="39.75843283131337" lon="9.494280626873252"><ele>838.0</ele><time>2026-04-03T09:54:50Z</time></trkpt><trkpt lat="39.75856607191328" lon="9.494191122215042"><ele>836.75</ele><time>2026-04-03T09:54:51Z</time></trkpt><trkpt lat="39.75870685865605" lon="9.494151551603576"><ele>835.5</ele><time>2026-04-03T09:54:52Z</time></trkpt><trkpt lat="39.758844131166065" lon="9.4941711873058"><ele>834.25</ele><time>2026-04-03T09:54:53Z</time></trkpt><trkpt lat="39.75896177744542" lon="9.49424690389933"><ele>833.0</ele><time>2026-04-03T09:54:54Z</time></trkpt><trkpt lat="39.75904918808165" lon="9.494365979434125"><ele>833.0</ele><time>2026-04-03T09:54:55Z</time></trkpt><trkpt lat="39.7591411478984" lon="9.494485642584468"><ele>833.0</ele><time>2026-04-03T09:54:56Z</time></trkpt><trkpt lat="39.75925408703212" lon="9.494607868317553"><ele>833.0</ele><time>2026-04-03T09:54:57Z</time></trkpt><trkpt lat="39.75936447783525" lon="9.494711952908867"><ele>833.0</ele><time>2026-04-03T09:54:58Z</time></trkpt><trkpt lat="39.75948521741845" lon="9.494789577209676"><ele>828.0</ele><time>2026-04-03T09:54:59Z</time></trkpt><trkpt lat="39.75962487665628" lon="9.49482652235254"><ele>823.0</ele><time>2026-04-03T09:55:00Z</time></trkpt><trkpt lat="39.75977355814729" lon="9.49481713081033"><ele>818.0</ele><time>2026-04-03T09:55:01Z</time></trkpt><trkpt lat="39.75991714219469" lon="9.494740757206786"><ele>813.0</ele><time>2026-04-03T09:55:02Z</time></trkpt><trkpt lat="39.760052667763524" lon="9.494627203799618"><ele>811.0</ele><time>2026-04-03T09:55:03Z</time></trkpt><trkpt lat="39.76020179003653" lon="9.494521211395258"><ele>809.0</ele><time>2026-04-03T09:55:04Z</time></trkpt><trkpt lat="39.760369373089304" lon="9.494414793339928"><ele>807.0</ele><time>2026-04-03T09:55:05Z</time></trkpt><trkpt lat="39.76053261961532" lon="9.494287615774445"><ele>807.0</ele><time>2026-04-03T09:55:06Z</time></trkpt><trkpt lat="39.76069845463556" lon="9.494121542042985"><ele>807.0</ele><time>2026-04-03T09:55:07Z</time></trkpt><trkpt lat="39.760836432767825" lon="9.493883994045644"><ele>807.0</ele><time>2026-04-03T09:55:08Z</time></trkpt><trkpt lat="39.76098018518893" lon="9.493632838956545"><ele>805.6666666666667</ele><time>2026-04-03T09:55:09Z</time></trkpt><trkpt lat="39.76112311159952" lon="9.493436591306356"><ele>804.3333333333334</ele><time>2026-04-03T09:55:10Z</time></trkpt><trkpt lat="39.76126630985133" lon="9.493253022982643"><ele>803.0</ele><time>2026-04-03T09:55:11Z</time></trkpt><trkpt lat="39.761398366678215" lon="9.493086897779431"><ele>803.0</ele><time>2026-04-03T09:55:12Z</time></trkpt><trkpt lat="39.76152073875329" lon="9.492924326414519"><ele>803.0</ele><time>2026-04-03T09:55:13Z</time></trkpt><trkpt lat="39.76163701021862" lon="9.492771989693933"><ele>803.0</ele><time>2026-04-03T09:55:14Z</time></trkpt><trkpt lat="39.7617482782536" lon="9.492645807220791"><ele>805.0</ele><time>2026-04-03T09:55:15Z</time></trkpt><trkpt lat="39.76185157496157" lon="9.492664058903344"><ele>807.0</ele><time>2026-04-03T09:55:16Z</time></trkpt><trkpt lat="39.76195522734807" lon="9.492713838659972"><ele>809.0</ele><time>2026-04-03T09:55:17Z</time></trkpt><trkpt lat="39.76202655829679" lon="9.492794782381415"><ele>811.0</ele><time>2026-04-03T09:55:18Z</time></trkpt><trkpt lat="39.76205804198071" lon="9.492911008135172"><ele>813.0</ele><time>2026-04-03T09:55:19Z</time></trkpt><trkpt lat="39.76203622080236" lon="9.493052261923951"><ele>815.25</ele><time>2026-04-03T09:55:20Z</time></trkpt><trkpt lat="39.76197788708024" lon="9.493194172280258"><ele>817.5</ele><time>2026-04-03T09:55:21Z</time></trkpt><trkpt lat="39.76187973521466" lon="9.493342408295124"><ele>819.75</ele><time>2026-04-03T09:55:22Z</time></trkpt><trkpt lat="39.76178293884081" lon="9.493505044113622"><ele>822.0</ele><time>2026-04-03T09:55:23Z</time></trkpt><trkpt lat="39.76170652200502" lon="9.493713317999998"><ele>815.3333333333333</ele><time>2026-04-03T09:55:24Z</time></trkpt><trkpt lat="39.761695117746854" lon="9.493954308236372"><ele>808.6666666666666</ele><time>2026-04-03T09:55:25Z</time></trkpt><trkpt lat="39.76173275409114" lon="9.494253140815202"><ele>802.0</ele><time>2026-04-03T09:55:26Z</time></trkpt><trkpt lat="39.7617408788904" lon="9.494478495877116"><ele>801.0</ele><time>2026-04-03T09:55:27Z</time></trkpt><trkpt lat="39.76176892609851" lon="9.494730314984988"><ele>800.0</ele><time>2026-04-03T09:55:28Z</time></trkpt><trkpt lat="39.76182627908066" lon="9.494970471913808"><ele>799.0</ele><time>2026-04-03T09:55:29Z</time></trkpt><trkpt lat="39.76189740173513" lon="9.495198898392468"><ele>804.3333333333333</ele><time>2026-04-03T09:55:30Z</time></trkpt><trkpt lat="39.761957203460135" lon="9.495419065162274"><ele>809.6666666666667</ele><time>2026-04-03T09:55:31Z</time></trkpt><trkpt lat="39.76200705840731" lon="9.495633528274682"><ele>815.0</ele><time>2026-04-03T09:55:32Z</time></trkpt><trkpt lat="39.76203413748259" lon="9.495859249837707"><ele>815.0</ele><time>2026-04-03T09:55:33Z</time></trkpt><trkpt lat="39.762033615707594" lon="9.49609242740222"><ele>815.0</ele><time>2026-04-03T09:55:34Z</time></trkpt><trkpt lat="39.76202101010729" lon="9.496328237626377"><ele>815.0</ele><time>2026-04-03T09:55:35Z</time></trkpt><trkpt lat="39.762007938176176" lon="9.496566865375089"><ele>814.3333333333334</ele><time>2026-04-03T09:55:36Z</time></trkpt><trkpt lat="39.76199169667343" lon="9.496807140556193"><ele>813.6666666666667</ele><time>2026-04-03T09:55:37Z</time></trkpt><trkpt lat="39.76198230969874" lon="9.497064659863367"><ele>813.0</ele><time>2026-04-03T09:55:38Z</time></trkpt><trkpt lat="39.761961773754514" lon="9.497293290183125"><ele>813.6666666666667</ele><time>2026-04-03T09:55:39Z</time></trkpt><trkpt lat="39.761945816575754" lon="9.49753622049866"><ele>814.3333333333334</ele><time>2026-04-03T09:55:40Z</time></trkpt><trkpt lat="39.76193169858589" lon="9.497783432195696"><ele>815.0</ele><time>2026-04-03T09:55:41Z</time></trkpt><trkpt lat="39.76192045815152" lon="9.498029969893508"><ele>815.0</ele><time>2026-04-03T09:55:42Z</time></trkpt><trkpt lat="39.76189712230632" lon="9.498266361673995"><ele>815.0</ele><time>2026-04-03T09:55:43Z</time></trkpt><trkpt lat="39.76187509480291" lon="9.498503462042956"><ele>815.0</ele><time>2026-04-03T09:55:44Z</time></trkpt><trkpt lat="39.76182199175897" lon="9.49871975874991"><ele>809.6666666666667</ele><time>2026-04-03T09:55:45Z</time></trkpt><trkpt lat="39.761730412115625" lon="9.49892334369421"><ele>804.3333333333333</ele><time>2026-04-03T09:55:46Z</time></trkpt><trkpt lat="39.76162543766995" lon="9.499116761472942"><ele>799.0</ele><time>2026-04-03T09:55:47Z</time></trkpt><trkpt lat="39.76150851234638" lon="9.499309219941907"><ele>799.0</ele><time>2026-04-03T09:55:48Z</time></trkpt><trkpt lat="39.76139353112635" lon="9.49951075819731"><ele>799.0</ele><time>2026-04-03T09:55:49Z</time></trkpt><trkpt lat="39.761279950733986" lon="9.49972088288117"><ele>799.0</ele><time>2026-04-03T09:55:50Z</time></trkpt><trkpt lat="39.761166139034586" lon="9.499929505074943"><ele>798.3333333333333</ele><time>2026-04-03T09:55:51Z</time></trkpt><trkpt lat="39.7610576042578" lon="9.500124440084646"><ele>797.6666666666667</ele><time>2026-04-03T09:55:52Z</time></trkpt><trkpt lat="39.76094978736965" lon="9.500315445913792"><ele>797.0</ele><time>2026-04-03T09:55:53Z</time></trkpt><trkpt lat="39.760847323191214" lon="9.500502821560113"><ele>797.0</ele><time>2026-04-03T09:55:54Z</time></trkpt><trkpt lat="39.760748869001176" lon="9.500683732865781"><ele>797.0</ele><time>2026-04-03T09:55:55Z</time></trkpt><trkpt lat="39.76064988321269" lon="9.500851927439905"><ele>797.0</ele><time>2026-04-03T09:55:56Z</time></trkpt><trkpt lat="39.76056643951016" lon="9.501021315676796"><ele>797.0</ele><time>2026-04-03T09:55:57Z</time></trkpt><trkpt lat="39.76051432894013" lon="9.501203576711106"><ele>797.0</ele><time>2026-04-03T09:55:58Z</time></trkpt><trkpt lat="39.76050463019203" lon="9.501397343399509"><ele>797.0</ele><time>2026-04-03T09:55:59Z</time></trkpt><trkpt lat="39.760542552816766" lon="9.501593940010386"><ele>795.0</ele><time>2026-04-03T09:56:00Z</time></trkpt><trkpt lat="39.76060670829812" lon="9.501785374727385"><ele>793.0</ele><time>2026-04-03T09:56:01Z</time></trkpt><trkpt lat="39.76068029475029" lon="9.501972498509872"><ele>791.0</ele><time>2026-04-03T09:56:02Z</time></trkpt><trkpt lat="39.760751759479135" lon="9.50217505657964"><ele>789.3333333333334</ele><time>2026-04-03T09:56:03Z</time></trkpt><trkpt lat="39.760815395638126" lon="9.502388711945029"><ele>787.6666666666667</ele><time>2026-04-03T09:56:04Z</time></trkpt><trkpt lat="39.76087750782298" lon="9.502607127290881"><ele>786.0</ele><time>2026-04-03T09:56:05Z</time></trkpt><trkpt lat="39.76094857666015" lon="9.50282118084081"><ele>779.3333333333334</ele><time>2026-04-03T09:56:06Z</time></trkpt><trkpt lat="39.7610424714208" lon="9.503023840993912"><ele>772.6666666666667</ele><time>2026-04-03T09:56:07Z</time></trkpt><trkpt lat="39.76116747921124" lon="9.503200073852351"><ele>766.0</ele><time>2026-04-03T09:56:08Z</time></trkpt><trkpt lat="39.761316467617355" lon="9.503350612914069"><ele>766.0</ele><time>2026-04-03T09:56:09Z</time></trkpt><trkpt lat="39.76147416193019" lon="9.503489285120787"><ele>766.0</ele><time>2026-04-03T09:56:10Z</time></trkpt><trkpt lat="39.76163258045187" lon="9.503633541030814"><ele>766.0</ele><time>2026-04-03T09:56:11Z</time></trkpt><trkpt lat="39.76179200366198" lon="9.503785358352598"><ele>762.6666666666667</ele><time>2026-04-03T09:56:12Z</time></trkpt><trkpt lat="39.761953991294405" lon="9.503942996721689"><ele>759.3333333333334</ele><time>2026-04-03T09:56:13Z</time></trkpt><trkpt lat="39.762118344895704" lon="9.504101970060384"><ele>756.0</ele><time>2026-04-03T09:56:14Z</time></trkpt><trkpt lat="39.76228336879505" lon="9.504258540461793"><ele>756.0</ele><time>2026-04-03T09:56:15Z</time></trkpt><trkpt lat="39.76244258952805" lon="9.504411829479919"><ele>756.0</ele><time>2026-04-03T09:56:16Z</time></trkpt><trkpt lat="39.76259654777865" lon="9.504570379422812"><ele>756.0</ele><time>2026-04-03T09:56:17Z</time></trkpt><trkpt lat="39.76275084711403" lon="9.50472636972619"><ele>753.6666666666666</ele><time>2026-04-03T09:56:18Z</time></trkpt><trkpt lat="39.7629093485693" lon="9.504883831881461"><ele>751.3333333333333</ele><time>2026-04-03T09:56:19Z</time></trkpt><trkpt lat="39.763065473784664" lon="9.505037926592406"><ele>749.0</ele><time>2026-04-03T09:56:20Z</time></trkpt><trkpt lat="39.763223284821656" lon="9.50519185431738"><ele>749.0</ele><time>2026-04-03T09:56:21Z</time></trkpt><trkpt lat="39.76338071765066" lon="9.505343457301436"><ele>749.0</ele><time>2026-04-03T09:56:22Z</time></trkpt><trkpt lat="39.7635343901044" lon="9.505492528179465"><ele>749.0</ele><time>2026-04-03T09:56:23Z</time></trkpt><trkpt lat="39.76368483281017" lon="9.505637249386155"><ele>748.3333333333333</ele><time>2026-04-03T09:56:24Z</time></trkpt><trkpt lat="39.763835824820525" lon="9.505783927958948"><ele>747.6666666666666</ele><time>2026-04-03T09:56:25Z</time></trkpt><trkpt lat="39.76398408060299" lon="9.505932205553828"><ele>747.0</ele><time>2026-04-03T09:56:26Z</time></trkpt><trkpt lat="39.764131397305476" lon="9.506081471933223"><ele>747.0</ele><time>2026-04-03T09:56:27Z</time></trkpt><trkpt lat="39.76427885351295" lon="9.5062271919144"><ele>747.0</ele><time>2026-04-03T09:56:28Z</time></trkpt><trkpt lat="39.76442795241643" lon="9.506369065461795"><ele>747.0</ele><time>2026-04-03T09:56:29Z</time></trkpt><trkpt lat="39.76457916034796" lon="9.50651192569806"><ele>747.0</ele><time>2026-04-03T09:56:30Z</time></trkpt><trkpt lat="39.76472717547659" lon="9.506658791211777"><ele>747.0</ele><time>2026-04-03T09:56:31Z</time></trkpt><trkpt lat="39.76487540384761" lon="9.506807349742548"><ele>747.0</ele><time>2026-04-03T09:56:32Z</time></trkpt><trkpt lat="39.76502536754663" lon="9.506957741637189"><ele>746.6666666666666</ele><time>2026-04-03T09:56:33Z</time></trkpt><trkpt lat="39.76517670494319" lon="9.507107160738736"><ele>746.3333333333333</ele><time>2026-04-03T09:56:34Z</time></trkpt><trkpt lat="39.765330984369605" lon="9.507256485519445"><ele>746.0</ele><time>2026-04-03T09:56:35Z</time></trkpt><trkpt lat="39.7654847584721" lon="9.507404906473212"><ele>746.0</ele><time>2026-04-03T09:56:36Z</time></trkpt><trkpt lat="39.765638223374715" lon="9.507550218358299"><ele>746.0</ele><time>2026-04-03T09:56:37Z</time></trkpt><trkpt lat="39.7657890250378" lon="9.507699704187978"><ele>746.0</ele><time>2026-04-03T09:56:38Z</time></trkpt><trkpt lat="39.76594208701572" lon="9.507844539074647"><ele>747.0</ele><time>2026-04-03T09:56:39Z</time></trkpt><trkpt lat="39.766093398192375" lon="9.507988979108704"><ele>748.0</ele><time>2026-04-03T09:56:40Z</time></trkpt><trkpt lat="39.7662446143705" lon="9.508135138908626"><ele>749.0</ele><time>2026-04-03T09:56:41Z</time></trkpt><trkpt lat="39.76639600589073" lon="9.508282900863252"><ele>749.0</ele><time>2026-04-03T09:56:42Z</time></trkpt><trkpt lat="39.766549498719606" lon="9.50843019351066"><ele>749.0</ele><time>2026-04-03T09:56:43Z</time></trkpt><trkpt lat="39.76670616032917" lon="9.508578610245085"><ele>749.0</ele><time>2026-04-03T09:56:44Z</time></trkpt><trkpt lat="39.766863270979314" lon="9.508733735649322"><ele>747.6666666666666</ele><time>2026-04-03T09:56:45Z</time></trkpt><trkpt lat="39.767020653859575" lon="9.508893396978138"><ele>746.3333333333334</ele><time>2026-04-03T09:56:46Z</time></trkpt><trkpt lat="39.767182439034016" lon="9.509056293790803"><ele>745.0</ele><time>2026-04-03T09:56:47Z</time></trkpt><trkpt lat="39.76734859459183" lon="9.509211437096681"><ele>745.0</ele><time>2026-04-03T09:56:48Z</time></trkpt><trkpt lat="39.7675173928049" lon="9.509369684334596"><ele>745.0</ele><time>2026-04-03T09:56:49Z</time></trkpt><trkpt lat="39.76768420771947" lon="9.50953086396723"><ele>745.0</ele><time>2026-04-03T09:56:50Z</time></trkpt><trkpt lat="39.767851384546255" lon="9.509695689809273"><ele>742.3333333333334</ele><time>2026-04-03T09:56:51Z</time></trkpt><trkpt lat="39.76802378910964" lon="9.50986135856575"><ele>739.6666666666666</ele><time>2026-04-03T09:56:52Z</time></trkpt><trkpt lat="39.76820408277106" lon="9.510024337158246"><ele>737.0</ele><time>2026-04-03T09:56:53Z</time></trkpt><trkpt lat="39.76837960606791" lon="9.51018835528204"><ele>735.5</ele><time>2026-04-03T09:56:54Z</time></trkpt><trkpt lat="39.768569932502054" lon="9.510336956249322"><ele>734.0</ele><time>2026-04-03T09:56:55Z</time></trkpt><trkpt lat="39.76877526095098" lon="9.510481253554213"><ele>737.0</ele><time>2026-04-03T09:56:56Z</time></trkpt><trkpt lat="39.76898265583351" lon="9.510608805659178"><ele>740.0</ele><time>2026-04-03T09:56:57Z</time></trkpt><trkpt lat="39.76920540456433" lon="9.510733135056139"><ele>735.5</ele><time>2026-04-03T09:56:58Z</time></trkpt><trkpt lat="39.769426610353946" lon="9.510848588791696"><ele>731.0</ele><time>2026-04-03T09:56:59Z</time></trkpt><trkpt lat="39.76964666052889" lon="9.510950556168872"><ele>731.0</ele><time>2026-04-03T09:57:00Z</time></trkpt><trkpt lat="39.7698695080342" lon="9.511044157897711"><ele>731.0</ele><time>2026-04-03T09:57:01Z</time></trkpt><trkpt lat="39.77007921761956" lon="9.511134416097416"><ele>733.6666666666666</ele><time>2026-04-03T09:57:02Z</time></trkpt><trkpt lat="39.77027022508079" lon="9.511212007339587"><ele>736.3333333333334</ele><time>2026-04-03T09:57:03Z</time></trkpt><trkpt lat="39.77038237264062" lon="9.511305060031734"><ele>739.0</ele><time>2026-04-03T09:57:04Z</time></trkpt><trkpt lat="39.77049578697094" lon="9.511358161649607"><ele>739.0</ele><time>2026-04-03T09:57:05.001Z</time></trkpt><trkpt lat="39.77064528936676" lon="9.511355451746047"><ele>739.0</ele><time>2026-04-03T09:57:06Z</time></trkpt><trkpt lat="39.77081056264592" lon="9.511317657084449"><ele>739.0</ele><time>2026-04-03T09:57:07Z</time></trkpt><trkpt lat="39.77096549554786" lon="9.511280773077676"><ele>738.3333333333334</ele><time>2026-04-03T09:57:08Z</time></trkpt><trkpt lat="39.77113419864463" lon="9.511240793185953"><ele>737.6666666666666</ele><time>2026-04-03T09:57:09Z</time></trkpt><trkpt lat="39.77129215562966" lon="9.511206248401441"><ele>737.0</ele><time>2026-04-03T09:57:10Z</time></trkpt><trkpt lat="39.77144873160895" lon="9.51118390476195"><ele>737.0</ele><time>2026-04-03T09:57:11Z</time></trkpt><trkpt lat="39.771604598844796" lon="9.511181605316537"><ele>737.0</ele><time>2026-04-03T09:57:12Z</time></trkpt><trkpt lat="39.77176387256431" lon="9.511297619051128"><ele>737.0</ele><time>2026-04-03T09:57:13Z</time></trkpt><trkpt lat="39.77189970430103" lon="9.511306678714336"><ele>732.5</ele><time>2026-04-03T09:57:14Z</time></trkpt><trkpt lat="39.77201453513888" lon="9.51134050002037"><ele>728.0</ele><time>2026-04-03T09:57:15Z</time></trkpt><trkpt lat="39.772129143002395" lon="9.511407822934714"><ele>723.5</ele><time>2026-04-03T09:57:16Z</time></trkpt><trkpt lat="39.77223665893195" lon="9.511510416227978"><ele>719.0</ele><time>2026-04-03T09:57:17Z</time></trkpt><trkpt lat="39.772359063665824" lon="9.511637037172685"><ele>719.0</ele><time>2026-04-03T09:57:18Z</time></trkpt><trkpt lat="39.77248935302705" lon="9.51177454869036"><ele>719.0</ele><time>2026-04-03T09:57:19Z</time></trkpt><trkpt lat="39.772625336819445" lon="9.511919481074695"><ele>719.0</ele><time>2026-04-03T09:57:20Z</time></trkpt><trkpt lat="39.772762621916236" lon="9.512066034451884"><ele>715.6666666666666</ele><time>2026-04-03T09:57:21Z</time></trkpt><trkpt lat="39.77290475982724" lon="9.512217768309336"><ele>712.3333333333334</ele><time>2026-04-03T09:57:22Z</time></trkpt><trkpt lat="39.77305114168103" lon="9.51237361728079"><ele>709.0</ele><time>2026-04-03T09:57:23Z</time></trkpt><trkpt lat="39.77319770189014" lon="9.512528691211552"><ele>709.0</ele><time>2026-04-03T09:57:24Z</time></trkpt><trkpt lat="39.77334694512696" lon="9.512688628961707"><ele>709.0</ele><time>2026-04-03T09:57:25Z</time></trkpt><trkpt lat="39.77349247982574" lon="9.512844230182239"><ele>709.0</ele><time>2026-04-03T09:57:26Z</time></trkpt><trkpt lat="39.77363373257208" lon="9.512993765629634"><ele>705.3333333333334</ele><time>2026-04-03T09:57:27Z</time></trkpt><trkpt lat="39.77376332767278" lon="9.513142458136514"><ele>701.6666666666666</ele><time>2026-04-03T09:57:28Z</time></trkpt><trkpt lat="39.77387005093346" lon="9.51330318482226"><ele>698.0</ele><time>2026-04-03T09:57:29Z</time></trkpt><trkpt lat="39.77395805807522" lon="9.513485336352606"><ele>698.0</ele><time>2026-04-03T09:57:30Z</time></trkpt><trkpt lat="39.77403294984016" lon="9.513691360775878"><ele>698.0</ele><time>2026-04-03T09:57:31Z</time></trkpt><trkpt lat="39.77410835962858" lon="9.513911062330916"><ele>698.0</ele><time>2026-04-03T09:57:32Z</time></trkpt><trkpt lat="39.774189984008444" lon="9.51413538942652"><ele>698.0</ele><time>2026-04-03T09:57:33Z</time></trkpt><trkpt lat="39.774295910885634" lon="9.514352868372582"><ele>698.0</ele><time>2026-04-03T09:57:34Z</time></trkpt><trkpt lat="39.77443178767085" lon="9.514542765674038"><ele>698.0</ele><time>2026-04-03T09:57:35Z</time></trkpt><trkpt lat="39.774590927168276" lon="9.514694860084553"><ele>698.0</ele><time>2026-04-03T09:57:36Z</time></trkpt><trkpt lat="39.77475378190826" lon="9.514827448161741"><ele>698.0</ele><time>2026-04-03T09:57:37Z</time></trkpt><trkpt lat="39.774915982423565" lon="9.514959226956462"><ele>698.0</ele><time>2026-04-03T09:57:38Z</time></trkpt><trkpt lat="39.77507920127988" lon="9.515091442363024"><ele>696.3333333333333</ele><time>2026-04-03T09:57:39Z</time></trkpt><trkpt lat="39.77523894585185" lon="9.515220774703934"><ele>694.6666666666666</ele><time>2026-04-03T09:57:39.999Z</time></trkpt><trkpt lat="39.77539427044017" lon="9.515346528534646"><ele>693.0</ele><time>2026-04-03T09:57:40.999Z</time></trkpt><trkpt lat="39.77554415548759" lon="9.515470856111037"><ele>693.0</ele><time>2026-04-03T09:57:41.999Z</time></trkpt><trkpt lat="39.775683786083654" lon="9.515609695067107"><ele>693.0</ele><time>2026-04-03T09:57:42.999Z</time></trkpt><trkpt lat="39.77579613847114" lon="9.515784504502516"><ele>693.0</ele><time>2026-04-03T09:57:43.999Z</time></trkpt><trkpt lat="39.77589063533027" lon="9.515991046001776"><ele>693.0</ele><time>2026-04-03T09:57:44.999Z</time></trkpt><trkpt lat="39.77598894160631" lon="9.516207056440228"><ele>693.0</ele><time>2026-04-03T09:57:45.999Z</time></trkpt><trkpt lat="39.7760875529914" lon="9.51642187216274"><ele>693.0</ele><time>2026-04-03T09:57:46.999Z</time></trkpt><trkpt lat="39.77618421035931" lon="9.516631022509179"><ele>692.6666666666666</ele><time>2026-04-03T09:57:47.999Z</time></trkpt><trkpt lat="39.77628205396617" lon="9.51684273889272"><ele>692.3333333333333</ele><time>2026-04-03T09:57:48.999Z</time></trkpt><trkpt lat="39.77637960982346" lon="9.51705747033246"><ele>692.0</ele><time>2026-04-03T09:57:49.999Z</time></trkpt><trkpt lat="39.776482082720996" lon="9.517275160175396"><ele>691.3333333333333</ele><time>2026-04-03T09:57:50.999Z</time></trkpt><trkpt lat="39.77660042154987" lon="9.517477485229374"><ele>690.6666666666666</ele><time>2026-04-03T09:57:51.999Z</time></trkpt><trkpt lat="39.776729976787834" lon="9.517663634137472"><ele>690.0</ele><time>2026-04-03T09:57:53Z</time></trkpt><trkpt lat="39.776854751645004" lon="9.517846521368453"><ele>693.0</ele><time>2026-04-03T09:57:54Z</time></trkpt><trkpt lat="39.77697627474339" lon="9.518024930794397"><ele>696.0</ele><time>2026-04-03T09:57:55Z</time></trkpt><trkpt lat="39.77709659859574" lon="9.518200576929244"><ele>699.0</ele><time>2026-04-03T09:57:56Z</time></trkpt><trkpt lat="39.77722243302512" lon="9.518362423130151"><ele>699.0</ele><time>2026-04-03T09:57:57Z</time></trkpt><trkpt lat="39.77733533070333" lon="9.518512102534292"><ele>699.0</ele><time>2026-04-03T09:57:58Z</time></trkpt><trkpt lat="39.77747314224787" lon="9.518615042921429"><ele>699.0</ele><time>2026-04-03T09:57:59Z</time></trkpt><trkpt lat="39.77762989939236" lon="9.518682396257203"><ele>700.3333333333334</ele><time>2026-04-03T09:58:00Z</time></trkpt><trkpt lat="39.77778983302188" lon="9.51874596778896"><ele>701.6666666666667</ele><time>2026-04-03T09:58:01Z</time></trkpt><trkpt lat="39.77795622038167" lon="9.518812173458418"><ele>703.0</ele><time>2026-04-03T09:58:02Z</time></trkpt><trkpt lat="39.778131698655336" lon="9.518887866284496"><ele>703.0</ele><time>2026-04-03T09:58:03Z</time></trkpt><trkpt lat="39.77830946244218" lon="9.518964533522151"><ele>703.0</ele><time>2026-04-03T09:58:04Z</time></trkpt><trkpt lat="39.77848814969694" lon="9.519037491848806"><ele>703.0</ele><time>2026-04-03T09:58:05Z</time></trkpt><trkpt lat="39.77867138819632" lon="9.519112220534053"><ele>703.6666666666667</ele><time>2026-04-03T09:58:06Z</time></trkpt><trkpt lat="39.778849182498426" lon="9.519187443404244"><ele>704.3333333333334</ele><time>2026-04-03T09:58:07Z</time></trkpt><trkpt lat="39.77902269256971" lon="9.51925767042185"><ele>705.0</ele><time>2026-04-03T09:58:08Z</time></trkpt><trkpt lat="39.779199061068724" lon="9.519307798926393"><ele>704.6666666666666</ele><time>2026-04-03T09:58:09Z</time></trkpt><trkpt lat="39.77938307573838" lon="9.519334841597672"><ele>704.3333333333333</ele><time>2026-04-03T09:58:10Z</time></trkpt><trkpt lat="39.7795712305977" lon="9.519353827423982"><ele>704.0</ele><time>2026-04-03T09:58:11Z</time></trkpt><trkpt lat="39.77975969557373" lon="9.519368560131893"><ele>704.0</ele><time>2026-04-03T09:58:12Z</time></trkpt><trkpt lat="39.779946365756416" lon="9.519386490309603"><ele>704.0</ele><time>2026-04-03T09:58:13Z</time></trkpt><trkpt lat="39.78012218476817" lon="9.51940769077557"><ele>704.0</ele><time>2026-04-03T09:58:14Z</time></trkpt><trkpt lat="39.78029370550259" lon="9.51940870807983"><ele>699.3333333333333</ele><time>2026-04-03T09:58:15Z</time></trkpt><trkpt lat="39.78046269347924" lon="9.519369919770208"><ele>694.6666666666666</ele><time>2026-04-03T09:58:16Z</time></trkpt><trkpt lat="39.78062206438846" lon="9.519280028202703"><ele>690.0</ele><time>2026-04-03T09:58:17Z</time></trkpt><trkpt lat="39.78078519657448" lon="9.51917380608627"><ele>690.0</ele><time>2026-04-03T09:58:18Z</time></trkpt><trkpt lat="39.78093477712061" lon="9.519031410190147"><ele>690.0</ele><time>2026-04-03T09:58:19Z</time></trkpt><trkpt lat="39.78107696262606" lon="9.518879287457084"><ele>690.0</ele><time>2026-04-03T09:58:20Z</time></trkpt><trkpt lat="39.78121231476275" lon="9.518726083525546"><ele>685.6666666666666</ele><time>2026-04-03T09:58:21Z</time></trkpt><trkpt lat="39.781322451853654" lon="9.518536421282342"><ele>681.3333333333333</ele><time>2026-04-03T09:58:22Z</time></trkpt><trkpt lat="39.781419009334286" lon="9.518337077820734"><ele>677.0</ele><time>2026-04-03T09:58:23Z</time></trkpt><trkpt lat="39.78148279561257" lon="9.518111212612133"><ele>681.3333333333333</ele><time>2026-04-03T09:58:24Z</time></trkpt><trkpt lat="39.78154378362293" lon="9.517886119931175"><ele>685.6666666666666</ele><time>2026-04-03T09:58:25Z</time></trkpt><trkpt lat="39.78159334170437" lon="9.51765793094233"><ele>690.0</ele><time>2026-04-03T09:58:26Z</time></trkpt><trkpt lat="39.78164654274128" lon="9.51743154001169"><ele>690.0</ele><time>2026-04-03T09:58:27Z</time></trkpt><trkpt lat="39.781714661240144" lon="9.517213128734836"><ele>690.0</ele><time>2026-04-03T09:58:28Z</time></trkpt><trkpt lat="39.78181928784734" lon="9.517018513828013"><ele>690.0</ele><time>2026-04-03T09:58:29Z</time></trkpt><trkpt lat="39.78193969344282" lon="9.516822664414539"><ele>684.0</ele><time>2026-04-03T09:58:30Z</time></trkpt><trkpt lat="39.78205322417135" lon="9.516635989370718"><ele>678.0</ele><time>2026-04-03T09:58:31Z</time></trkpt><trkpt lat="39.78215314117183" lon="9.516446334270343"><ele>672.0</ele><time>2026-04-03T09:58:32Z</time></trkpt><trkpt lat="39.782260905279806" lon="9.516274260074349"><ele>677.3333333333334</ele><time>2026-04-03T09:58:33Z</time></trkpt><trkpt lat="39.782381467320256" lon="9.516128789186281"><ele>682.6666666666667</ele><time>2026-04-03T09:58:34Z</time></trkpt><trkpt lat="39.78252603965257" lon="9.516023675113349"><ele>688.0</ele><time>2026-04-03T09:58:35Z</time></trkpt><trkpt lat="39.78268036225226" lon="9.515927453348956"><ele>685.0</ele><time>2026-04-03T09:58:36Z</time></trkpt><trkpt lat="39.782810143463585" lon="9.51578933806468"><ele>682.0</ele><time>2026-04-03T09:58:37Z</time></trkpt><trkpt lat="39.78291482092242" lon="9.515603675263685"><ele>679.0</ele><time>2026-04-03T09:58:38Z</time></trkpt><trkpt lat="39.7830185965601" lon="9.515399931776297"><ele>679.0</ele><time>2026-04-03T09:58:39Z</time></trkpt><trkpt lat="39.78310808698727" lon="9.515203275870988"><ele>679.0</ele><time>2026-04-03T09:58:40Z</time></trkpt><trkpt lat="39.78319338348961" lon="9.515015202834238"><ele>679.0</ele><time>2026-04-03T09:58:41Z</time></trkpt><trkpt lat="39.78328014619529" lon="9.514847417884432"><ele>679.0</ele><time>2026-04-03T09:58:42Z</time></trkpt><trkpt lat="39.783394423943186" lon="9.514727818968481"><ele>679.0</ele><time>2026-04-03T09:58:43Z</time></trkpt><trkpt lat="39.78353015230734" lon="9.514654528755813"><ele>679.0</ele><time>2026-04-03T09:58:44Z</time></trkpt><trkpt lat="39.78368353453627" lon="9.514642120047357"><ele>679.0</ele><time>2026-04-03T09:58:45Z</time></trkpt><trkpt lat="39.78384401994577" lon="9.5146638140342"><ele>676.6666666666667</ele><time>2026-04-03T09:58:46Z</time></trkpt><trkpt lat="39.784003231735205" lon="9.514724214764112"><ele>674.3333333333334</ele><time>2026-04-03T09:58:47Z</time></trkpt><trkpt lat="39.78415843035306" lon="9.514765292251163"><ele>672.0</ele><time>2026-04-03T09:58:48Z</time></trkpt><trkpt lat="39.78430866030516" lon="9.514801908187454"><ele>673.0</ele><time>2026-04-03T09:58:49Z</time></trkpt><trkpt lat="39.78445315341203" lon="9.514839833391322"><ele>674.0</ele><time>2026-04-03T09:58:50Z</time></trkpt><trkpt lat="39.7845808896206" lon="9.51487488735821"><ele>675.0</ele><time>2026-04-03T09:58:51Z</time></trkpt><trkpt lat="39.784691403674756" lon="9.51491110408181"><ele>676.0</ele><time>2026-04-03T09:58:52Z</time></trkpt><trkpt lat="39.78478107661025" lon="9.514946509517092"><ele>676.0</ele><time>2026-04-03T09:58:53Z</time></trkpt><trkpt lat="39.784851489028156" lon="9.514975766443596"><ele>676.0</ele><time>2026-04-03T09:58:54Z</time></trkpt><trkpt lat="39.78493326086377" lon="9.515017726150742"><ele>676.0</ele><time>2026-04-03T09:58:56Z</time></trkpt><trkpt lat="39.784997432155116" lon="9.515023623205472"><ele>676.0</ele><time>2026-04-03T10:13:47.999Z</time></trkpt><trkpt lat="39.7850671882017" lon="9.514985969430175"><ele>676.0</ele><time>2026-04-03T10:13:49.999Z</time></trkpt><trkpt lat="39.785158741838536" lon="9.51491558340407"><ele>676.0</ele><time>2026-04-03T10:13:51.999Z</time></trkpt><trkpt lat="39.78521270009968" lon="9.514872573000375"><ele>673.0</ele><time>2026-04-03T10:13:52.999Z</time></trkpt><trkpt lat="39.78531766227929" lon="9.51482906546937"><ele>670.0</ele><time>2026-04-03T10:13:54.999Z</time></trkpt><trkpt lat="39.78542125239763" lon="9.514754038098262"><ele>667.0</ele><time>2026-04-03T10:13:56.999Z</time></trkpt><trkpt lat="39.78553535891536" lon="9.514685011184385"><ele>664.0</ele><time>2026-04-03T10:13:58.999Z</time></trkpt><trkpt lat="39.78559721675899" lon="9.514666690707283"><ele>661.0</ele><time>2026-04-03T10:13:59.999Z</time></trkpt><trkpt lat="39.7856603254891" lon="9.514660720194167"><ele>661.0</ele><time>2026-04-03T10:14:00.999Z</time></trkpt><trkpt lat="39.78572565948455" lon="9.514663028778557"><ele>661.0</ele><time>2026-04-03T10:14:01.999Z</time></trkpt><trkpt lat="39.785787981194375" lon="9.514674848098153"><ele>661.0</ele><time>2026-04-03T10:14:02.999Z</time></trkpt><trkpt lat="39.78585142796757" lon="9.51468739138958"><ele>661.0</ele><time>2026-04-03T10:14:03.999Z</time></trkpt><trkpt lat="39.78592358337929" lon="9.514694004044136"><ele>661.0</ele><time>2026-04-03T10:14:04.999Z</time></trkpt><trkpt lat="39.7859998157142" lon="9.514692275992013"><ele>661.0</ele><time>2026-04-03T10:14:05.999Z</time></trkpt><trkpt lat="39.786075198273004" lon="9.51468496546789"><ele>661.0</ele><time>2026-04-03T10:14:06.999Z</time></trkpt><trkpt lat="39.78615003432414" lon="9.5146645304518"><ele>662.2857142857142</ele><time>2026-04-03T10:14:07.999Z</time></trkpt><trkpt lat="39.78622457652783" lon="9.514635726144366"><ele>663.5714285714286</ele><time>2026-04-03T10:14:09Z</time></trkpt><trkpt lat="39.78629152761281" lon="9.514598882397308"><ele>664.8571428571429</ele><time>2026-04-03T10:14:10Z</time></trkpt><trkpt lat="39.786360389101084" lon="9.5145582931142"><ele>666.1428571428571</ele><time>2026-04-03T10:14:11Z</time></trkpt><trkpt lat="39.78642927780926" lon="9.514510540387905"><ele>667.4285714285714</ele><time>2026-04-03T10:14:12Z</time></trkpt><trkpt lat="39.78648664384124" lon="9.514451818977006"><ele>668.7142857142857</ele><time>2026-04-03T10:14:13Z</time></trkpt><trkpt lat="39.7865401528265" lon="9.514390211903358"><ele>670.0</ele><time>2026-04-03T10:14:14Z</time></trkpt><trkpt lat="39.78659251116216" lon="9.51432921019732"><ele>670.0</ele><time>2026-04-03T10:14:15Z</time></trkpt><trkpt lat="39.78664424901259" lon="9.514274159488664"><ele>670.0</ele><time>2026-04-03T10:14:16Z</time></trkpt><trkpt lat="39.786736078795805" lon="9.51417541978755"><ele>670.0</ele><time>2026-04-03T10:14:18Z</time></trkpt><trkpt lat="39.78678631470969" lon="9.51412123026648"><ele>670.0</ele><time>2026-04-03T10:14:19Z</time></trkpt><trkpt lat="39.78684213087482" lon="9.514065646538617"><ele>670.0</ele><time>2026-04-03T10:14:20Z</time></trkpt><trkpt lat="39.78690657484369" lon="9.514019383333197"><ele>670.0</ele><time>2026-04-03T10:14:21Z</time></trkpt><trkpt lat="39.786982587755396" lon="9.51399140270665"><ele>667.8</ele><time>2026-04-03T10:14:22Z</time></trkpt><trkpt lat="39.787064876305436" lon="9.513984429255252"><ele>665.6</ele><time>2026-04-03T10:14:23Z</time></trkpt><trkpt lat="39.787156015738404" lon="9.513988127022111"><ele>663.4000000000001</ele><time>2026-04-03T10:14:24Z</time></trkpt><trkpt lat="39.787250373500065" lon="9.513996699238245"><ele>661.2</ele><time>2026-04-03T10:14:25Z</time></trkpt><trkpt lat="39.7873447436726" lon="9.513997339469054"><ele>659.0</ele><time>2026-04-03T10:14:26Z</time></trkpt><trkpt lat="39.78743849355052" lon="9.513984900824632"><ele>659.0</ele><time>2026-04-03T10:14:27Z</time></trkpt><trkpt lat="39.787529218064854" lon="9.513934435598673"><ele>659.0</ele><time>2026-04-03T10:14:28Z</time></trkpt><trkpt lat="39.78761081360317" lon="9.513856394703357"><ele>659.0</ele><time>2026-04-03T10:14:29Z</time></trkpt><trkpt lat="39.78768202033013" lon="9.513763314059617"><ele>659.0</ele><time>2026-04-03T10:14:30Z</time></trkpt><trkpt lat="39.78775702934438" lon="9.513723539906486"><ele>659.0</ele><time>2026-04-03T10:14:31Z</time></trkpt><trkpt lat="39.78780816279276" lon="9.51360685600755"><ele>658.0</ele><time>2026-04-03T10:14:32Z</time></trkpt><trkpt lat="39.7878650875165" lon="9.51347233170976"><ele>657.0</ele><time>2026-04-03T10:14:33Z</time></trkpt><trkpt lat="39.787933916109495" lon="9.513336019892888"><ele>656.0</ele><time>2026-04-03T10:14:34Z</time></trkpt><trkpt lat="39.78802074789366" lon="9.513206483216473"><ele>655.0</ele><time>2026-04-03T10:14:35Z</time></trkpt><trkpt lat="39.78813844630293" lon="9.513122063105005"><ele>655.0</ele><time>2026-04-03T10:14:36Z</time></trkpt><trkpt lat="39.78827180627416" lon="9.51304446896485"><ele>655.0</ele><time>2026-04-03T10:14:37Z</time></trkpt><trkpt lat="39.78842113092959" lon="9.513005851594862"><ele>655.0</ele><time>2026-04-03T10:14:38Z</time></trkpt><trkpt lat="39.788584878251704" lon="9.51297334996377"><ele>656.3333333333334</ele><time>2026-04-03T10:14:39Z</time></trkpt><trkpt lat="39.78875444038016" lon="9.512913636907705"><ele>657.6666666666666</ele><time>2026-04-03T10:14:39.998Z</time></trkpt><trkpt lat="39.7889199339968" lon="9.512867197620126"><ele>659.0</ele><time>2026-04-03T10:14:40.998Z</time></trkpt><trkpt lat="39.78906748543879" lon="9.512769848491798"><ele>659.0</ele><time>2026-04-03T10:14:41.998Z</time></trkpt><trkpt lat="39.78919765521011" lon="9.512617919699224"><ele>659.0</ele><time>2026-04-03T10:14:42.998Z</time></trkpt><trkpt lat="39.78932631979278" lon="9.512455839266316"><ele>659.0</ele><time>2026-04-03T10:14:43.998Z</time></trkpt><trkpt lat="39.78945817851911" lon="9.512300881739694"><ele>659.3333333333333</ele><time>2026-04-03T10:14:44.999Z</time></trkpt><trkpt lat="39.78959332750718" lon="9.512149567704993"><ele>659.6666666666666</ele><time>2026-04-03T10:14:45.999Z</time></trkpt><trkpt lat="39.78972906081254" lon="9.512001962703632"><ele>660.0</ele><time>2026-04-03T10:14:46.999Z</time></trkpt><trkpt lat="39.789861029003646" lon="9.511854534552603"><ele>660.0</ele><time>2026-04-03T10:14:47.999Z</time></trkpt><trkpt lat="39.789990074673646" lon="9.511712042896244"><ele>660.0</ele><time>2026-04-03T10:14:48.999Z</time></trkpt><trkpt lat="39.79012314777931" lon="9.511571606229833"><ele>660.0</ele><time>2026-04-03T10:14:49.999Z</time></trkpt><trkpt lat="39.790256462760695" lon="9.51142396648197"><ele>659.3333333333334</ele><time>2026-04-03T10:14:50.999Z</time></trkpt><trkpt lat="39.79038589400498" lon="9.511283412651617"><ele>658.6666666666667</ele><time>2026-04-03T10:14:51.999Z</time></trkpt><trkpt lat="39.7905181088405" lon="9.51113887112138"><ele>658.0</ele><time>2026-04-03T10:14:52.999Z</time></trkpt><trkpt lat="39.79065523901631" lon="9.511002385237477"><ele>658.0</ele><time>2026-04-03T10:14:53.999Z</time></trkpt><trkpt lat="39.79080422504013" lon="9.51088331115923"><ele>658.0</ele><time>2026-04-03T10:14:54.999Z</time></trkpt><trkpt lat="39.790940808780014" lon="9.510743299911995"><ele>658.0</ele><time>2026-04-03T10:14:55.999Z</time></trkpt><trkpt lat="39.79107588288205" lon="9.510633686927235"><ele>651.0</ele><time>2026-04-03T10:14:56.999Z</time></trkpt><trkpt lat="39.79121630042113" lon="9.510539918604383"><ele>644.0</ele><time>2026-04-03T10:14:57.999Z</time></trkpt><trkpt lat="39.791376816691695" lon="9.51051777850115"><ele>637.0</ele><time>2026-04-03T10:14:58.999Z</time></trkpt><trkpt lat="39.79153998818873" lon="9.510473804715643"><ele>641.6666666666667</ele><time>2026-04-03T10:14:59.999Z</time></trkpt><trkpt lat="39.79169799426634" lon="9.51039397803067"><ele>646.3333333333334</ele><time>2026-04-03T10:15:00.999Z</time></trkpt><trkpt lat="39.79184866005142" lon="9.510290429139806"><ele>651.0</ele><time>2026-04-03T10:15:01.999Z</time></trkpt><trkpt lat="39.79198472741601" lon="9.510148959326324"><ele>651.0</ele><time>2026-04-03T10:15:02.999Z</time></trkpt><trkpt lat="39.79214634382062" lon="9.510076601102966"><ele>651.0</ele><time>2026-04-03T10:15:03.999Z</time></trkpt><trkpt lat="39.79231407565526" lon="9.509991282116212"><ele>651.0</ele><time>2026-04-03T10:15:04.999Z</time></trkpt><trkpt lat="39.79248219405466" lon="9.50992531756481"><ele>651.0</ele><time>2026-04-03T10:15:05.999Z</time></trkpt><trkpt lat="39.79264803827103" lon="9.50989201162263"><ele>651.0</ele><time>2026-04-03T10:15:06.999Z</time></trkpt><trkpt lat="39.792809209527285" lon="9.509883327419432"><ele>651.0</ele><time>2026-04-03T10:15:07.999Z</time></trkpt><trkpt lat="39.79295976880195" lon="9.509936368160341"><ele>653.0</ele><time>2026-04-03T10:15:09Z</time></trkpt><trkpt lat="39.793106205086914" lon="9.510028788033763"><ele>655.0</ele><time>2026-04-03T10:15:10Z</time></trkpt><trkpt lat="39.7932571337385" lon="9.510126156378087"><ele>657.0</ele><time>2026-04-03T10:15:11Z</time></trkpt><trkpt lat="39.793415204717135" lon="9.510220432210122"><ele>659.6666666666666</ele><time>2026-04-03T10:15:12Z</time></trkpt><trkpt lat="39.79358084445751" lon="9.510318027721647"><ele>662.3333333333333</ele><time>2026-04-03T10:15:13Z</time></trkpt><trkpt lat="39.7937417847237" lon="9.510413712677114"><ele>665.0</ele><time>2026-04-03T10:15:14Z</time></trkpt><trkpt lat="39.79390864523331" lon="9.510534479186969"><ele>658.3333333333333</ele><time>2026-04-03T10:15:15Z</time></trkpt><trkpt lat="39.79407985501617" lon="9.510603383931684"><ele>651.6666666666666</ele><time>2026-04-03T10:15:16Z</time></trkpt><trkpt lat="39.79424924971331" lon="9.510701528018348"><ele>645.0</ele><time>2026-04-03T10:15:17Z</time></trkpt><trkpt lat="39.79443816795628" lon="9.51075705885951"><ele>645.0</ele><time>2026-04-03T10:15:18Z</time></trkpt><trkpt lat="39.794611052318544" lon="9.510804592455592"><ele>645.0</ele><time>2026-04-03T10:15:19Z</time></trkpt><trkpt lat="39.794805569827844" lon="9.51079919654778"><ele>645.0</ele><time>2026-04-03T10:15:20Z</time></trkpt><trkpt lat="39.79499207810331" lon="9.510804750966624"><ele>645.3333333333334</ele><time>2026-04-03T10:15:21Z</time></trkpt><trkpt lat="39.79517104830849" lon="9.510823108172202"><ele>645.6666666666667</ele><time>2026-04-03T10:15:22Z</time></trkpt><trkpt lat="39.79533781061246" lon="9.510882009650011"><ele>646.0</ele><time>2026-04-03T10:15:23Z</time></trkpt><trkpt lat="39.795508559181144" lon="9.51093139782577"><ele>646.0</ele><time>2026-04-03T10:15:24Z</time></trkpt><trkpt lat="39.79567878463976" lon="9.51097679948533"><ele>646.0</ele><time>2026-04-03T10:15:25Z</time></trkpt><trkpt lat="39.79584082822086" lon="9.510978521362038"><ele>646.0</ele><time>2026-04-03T10:15:26Z</time></trkpt><trkpt lat="39.7960024569582" lon="9.51096873824934"><ele>646.0</ele><time>2026-04-03T10:15:27Z</time></trkpt><trkpt lat="39.796161997028925" lon="9.510943087154436"><ele>646.0</ele><time>2026-04-03T10:15:28Z</time></trkpt><trkpt lat="39.79631697670324" lon="9.510968391816796"><ele>646.0</ele><time>2026-04-03T10:15:29Z</time></trkpt><trkpt lat="39.79647294217764" lon="9.5109995531553"><ele>646.0</ele><time>2026-04-03T10:15:30Z</time></trkpt><trkpt lat="39.79663147144271" lon="9.511036062330922"><ele>646.0</ele><time>2026-04-03T10:15:31Z</time></trkpt><trkpt lat="39.796789360863414" lon="9.511073709665512"><ele>646.0</ele><time>2026-04-03T10:15:32Z</time></trkpt><trkpt lat="39.79694984262279" lon="9.511112187661045"><ele>645.0</ele><time>2026-04-03T10:15:33Z</time></trkpt><trkpt lat="39.79709068712062" lon="9.511110867293237"><ele>644.0</ele><time>2026-04-03T10:15:34Z</time></trkpt><trkpt lat="39.797228981310006" lon="9.511117587257518"><ele>643.0</ele><time>2026-04-03T10:15:35Z</time></trkpt><trkpt lat="39.79736444505736" lon="9.511117464975547"><ele>642.0</ele><time>2026-04-03T10:15:36Z</time></trkpt><trkpt lat="39.79749185093305" lon="9.511106320058913"><ele>642.0</ele><time>2026-04-03T10:15:37Z</time></trkpt><trkpt lat="39.79761559378609" lon="9.511091345456924"><ele>642.0</ele><time>2026-04-03T10:15:38Z</time></trkpt><trkpt lat="39.797731702346006" lon="9.511095023563605"><ele>642.0</ele><time>2026-04-03T10:15:39Z</time></trkpt><trkpt lat="39.7978445018717" lon="9.511090627312026"><ele>642.0</ele><time>2026-04-03T10:15:40Z</time></trkpt><trkpt lat="39.79794986893358" lon="9.511082359798525"><ele>641.6</ele><time>2026-04-03T10:15:41Z</time></trkpt><trkpt lat="39.798052348312595" lon="9.511074796826684"><ele>641.2</ele><time>2026-04-03T10:15:42Z</time></trkpt><trkpt lat="39.79815419510244" lon="9.511073983348675"><ele>640.8</ele><time>2026-04-03T10:15:43Z</time></trkpt><trkpt lat="39.798263736040695" lon="9.511075975873378"><ele>640.4</ele><time>2026-04-03T10:15:44Z</time></trkpt><trkpt lat="39.79837947599958" lon="9.51107830244954"><ele>640.0</ele><time>2026-04-03T10:15:45Z</time></trkpt><trkpt lat="39.7985030831412" lon="9.511073377636356"><ele>639.0</ele><time>2026-04-03T10:15:46Z</time></trkpt><trkpt lat="39.798634065660046" lon="9.511076540664662"><ele>638.0</ele><time>2026-04-03T10:15:47Z</time></trkpt><trkpt lat="39.798776296338104" lon="9.51108429593071"><ele>637.0</ele><time>2026-04-03T10:15:48Z</time></trkpt><trkpt lat="39.798924543592626" lon="9.511091848026403"><ele>636.0</ele><time>2026-04-03T10:15:49Z</time></trkpt><trkpt lat="39.79908776169069" lon="9.51109729042697"><ele>636.0</ele><time>2026-04-03T10:15:50Z</time></trkpt><trkpt lat="39.799259262554656" lon="9.511105986779409"><ele>636.0</ele><time>2026-04-03T10:15:51Z</time></trkpt><trkpt lat="39.799437866556616" lon="9.511111681199711"><ele>636.0</ele><time>2026-04-03T10:15:52Z</time></trkpt><trkpt lat="39.79961804523489" lon="9.511107983285791"><ele>635.6666666666666</ele><time>2026-04-03T10:15:53Z</time></trkpt><trkpt lat="39.79979846414073" lon="9.511127505584408"><ele>635.3333333333333</ele><time>2026-04-03T10:15:54Z</time></trkpt><trkpt lat="39.79997540790915" lon="9.511157938101823"><ele>635.0</ele><time>2026-04-03T10:15:55Z</time></trkpt><trkpt lat="39.80014828981096" lon="9.5111969407716"><ele>633.3333333333333</ele><time>2026-04-03T10:15:56Z</time></trkpt><trkpt lat="39.80030776203203" lon="9.511239470869931"><ele>631.6666666666666</ele><time>2026-04-03T10:15:57Z</time></trkpt><trkpt lat="39.80046315977674" lon="9.511259870932914"><ele>630.0</ele><time>2026-04-03T10:15:58Z</time></trkpt><trkpt lat="39.800633521277625" lon="9.51123564917293"><ele>630.0</ele><time>2026-04-03T10:15:59.001Z</time></trkpt><trkpt lat="39.80080516490207" lon="9.511161600339948"><ele>630.0</ele><time>2026-04-03T10:16:00.001Z</time></trkpt><trkpt lat="39.80098847673933" lon="9.511057771514924"><ele>630.0</ele><time>2026-04-03T10:16:01.001Z</time></trkpt><trkpt lat="39.801159239265516" lon="9.510987221838768"><ele>625.6666666666666</ele><time>2026-04-03T10:16:02.001Z</time></trkpt><trkpt lat="39.80131149834488" lon="9.510911065846532"><ele>621.3333333333333</ele><time>2026-04-03T10:16:03.001Z</time></trkpt><trkpt lat="39.801454164733684" lon="9.510838639826083"><ele>617.0</ele><time>2026-04-03T10:16:04.001Z</time></trkpt><trkpt lat="39.801587793674656" lon="9.510760768695068"><ele>617.0</ele><time>2026-04-03T10:16:05.001Z</time></trkpt><trkpt lat="39.80171778682995" lon="9.51069572162658"><ele>617.0</ele><time>2026-04-03T10:16:06.001Z</time></trkpt><trkpt lat="39.801839061129726" lon="9.510639510931261"><ele>617.0</ele><time>2026-04-03T10:16:07.001Z</time></trkpt><trkpt lat="39.801948899238035" lon="9.51059870091965"><ele>617.0</ele><time>2026-04-03T10:16:08.001Z</time></trkpt><trkpt lat="39.802043738477366" lon="9.510582271247358"><ele>616.4</ele><time>2026-04-03T10:16:09.001Z</time></trkpt><trkpt lat="39.80212434898323" lon="9.510613015389668"><ele>615.8000000000001</ele><time>2026-04-03T10:16:10.001Z</time></trkpt><trkpt lat="39.80217571686546" lon="9.510689774425098"><ele>615.2</ele><time>2026-04-03T10:16:11.001Z</time></trkpt><trkpt lat="39.80218148500742" lon="9.51078441534662"><ele>614.6</ele><time>2026-04-03T10:16:12.001Z</time></trkpt><trkpt lat="39.8020693228025" lon="9.510891097902867"><ele>614.0</ele><time>2026-04-03T10:16:14.001Z</time></trkpt><trkpt lat="39.80197651999881" lon="9.510923263154016"><ele>614.0</ele><time>2026-04-03T10:16:15.001Z</time></trkpt><trkpt lat="39.80188376628145" lon="9.510957462760796"><ele>614.0</ele><time>2026-04-03T10:16:16.001Z</time></trkpt><trkpt lat="39.8017734931345" lon="9.511002881381211"><ele>614.0</ele><time>2026-04-03T10:16:17.001Z</time></trkpt><trkpt lat="39.80164971282105" lon="9.511067051510981"><ele>614.0</ele><time>2026-04-03T10:16:18.001Z</time></trkpt><trkpt lat="39.80151872002759" lon="9.511145952519248"><ele>610.0</ele><time>2026-04-03T10:16:19.001Z</time></trkpt><trkpt lat="39.80137607548249" lon="9.5112441801859"><ele>606.0</ele><time>2026-04-03T10:16:20.001Z</time></trkpt><trkpt lat="39.80123160014991" lon="9.511370674712275"><ele>602.0</ele><time>2026-04-03T10:16:21.001Z</time></trkpt><trkpt lat="39.80108495044549" lon="9.511517895071359"><ele>605.3333333333333</ele><time>2026-04-03T10:16:22.001Z</time></trkpt><trkpt lat="39.80093630223359" lon="9.51166418788378"><ele>608.6666666666666</ele><time>2026-04-03T10:16:23.001Z</time></trkpt><trkpt lat="39.80078970826893" lon="9.511801571853264"><ele>612.0</ele><time>2026-04-03T10:16:24.001Z</time></trkpt><trkpt lat="39.80064025236964" lon="9.511929183472153"><ele>612.0</ele><time>2026-04-03T10:16:25.001Z</time></trkpt><trkpt lat="39.80048671610407" lon="9.512029746607087"><ele>612.0</ele><time>2026-04-03T10:16:26.001Z</time></trkpt><trkpt lat="39.80030792416303" lon="9.512065738397018"><ele>612.0</ele><time>2026-04-03T10:16:27.001Z</time></trkpt><trkpt lat="39.80014917604195" lon="9.512097206679275"><ele>606.5</ele><time>2026-04-03T10:16:28.001Z</time></trkpt><trkpt lat="39.79999015845346" lon="9.512124347832582"><ele>601.0</ele><time>2026-04-03T10:16:29.001Z</time></trkpt><trkpt lat="39.79985031462213" lon="9.512137549648086"><ele>595.5</ele><time>2026-04-03T10:16:30.001Z</time></trkpt><trkpt lat="39.79971458189665" lon="9.512171896362094"><ele>590.0</ele><time>2026-04-03T10:16:31.001Z</time></trkpt><trkpt lat="39.79957570510224" lon="9.512184311635986"><ele>590.0</ele><time>2026-04-03T10:16:32.001Z</time></trkpt><trkpt lat="39.799440229428356" lon="9.512202701540016"><ele>590.0</ele><time>2026-04-03T10:16:33.001Z</time></trkpt><trkpt lat="39.799308308604814" lon="9.512213915621748"><ele>590.0</ele><time>2026-04-03T10:16:34.001Z</time></trkpt><trkpt lat="39.799175071563965" lon="9.512220670110024"><ele>590.0</ele><time>2026-04-03T10:16:35.001Z</time></trkpt><trkpt lat="39.79903654749482" lon="9.512226575763352"><ele>589.75</ele><time>2026-04-03T10:16:36.001Z</time></trkpt><trkpt lat="39.79889440649803" lon="9.512227383808836"><ele>589.5</ele><time>2026-04-03T10:16:37.001Z</time></trkpt><trkpt lat="39.79875451812831" lon="9.512212440050504"><ele>589.25</ele><time>2026-04-03T10:16:38.001Z</time></trkpt><trkpt lat="39.798603925194485" lon="9.51220414964031"><ele>589.0</ele><time>2026-04-03T10:16:39.001Z</time></trkpt><trkpt lat="39.79844795408588" lon="9.512196022877328"><ele>585.6666666666667</ele><time>2026-04-03T10:16:40.001Z</time></trkpt><trkpt lat="39.798289698970436" lon="9.51219958061942"><ele>582.3333333333334</ele><time>2026-04-03T10:16:41.001Z</time></trkpt><trkpt lat="39.798129685721456" lon="9.51220494814893"><ele>579.0</ele><time>2026-04-03T10:16:42.001Z</time></trkpt><trkpt lat="39.79796286803562" lon="9.512209751632984"><ele>579.0</ele><time>2026-04-03T10:16:43.001Z</time></trkpt><trkpt lat="39.79779447416352" lon="9.512219302848344"><ele>579.0</ele><time>2026-04-03T10:16:44.001Z</time></trkpt><trkpt lat="39.79762081017098" lon="9.512211422947885"><ele>579.0</ele><time>2026-04-03T10:16:45.001Z</time></trkpt><trkpt lat="39.797447438385404" lon="9.512216527456083"><ele>578.6666666666666</ele><time>2026-04-03T10:16:46.001Z</time></trkpt><trkpt lat="39.797270984393045" lon="9.512218715349192"><ele>578.3333333333333</ele><time>2026-04-03T10:16:47.001Z</time></trkpt><trkpt lat="39.79709823334578" lon="9.512221456649463"><ele>578.0</ele><time>2026-04-03T10:16:48.001Z</time></trkpt><trkpt lat="39.79692449680894" lon="9.512228228121295"><ele>576.3333333333333</ele><time>2026-04-03T10:16:49.001Z</time></trkpt><trkpt lat="39.79675065477138" lon="9.512243282709424"><ele>574.6666666666666</ele><time>2026-04-03T10:16:50.001Z</time></trkpt><trkpt lat="39.79658004109402" lon="9.512282725498356"><ele>573.0</ele><time>2026-04-03T10:16:51.001Z</time></trkpt><trkpt lat="39.796412701581374" lon="9.51231276950564"><ele>573.0</ele><time>2026-04-03T10:16:52.001Z</time></trkpt><trkpt lat="39.79624158862441" lon="9.51233079051619"><ele>573.0</ele><time>2026-04-03T10:16:53.001Z</time></trkpt><trkpt lat="39.79607667189355" lon="9.512362679498004"><ele>573.0</ele><time>2026-04-03T10:16:54.001Z</time></trkpt><trkpt lat="39.79591498495518" lon="9.512396702933884"><ele>575.0</ele><time>2026-04-03T10:16:55.001Z</time></trkpt><trkpt lat="39.795762239361935" lon="9.512429096880625"><ele>577.0</ele><time>2026-04-03T10:16:56.001Z</time></trkpt><trkpt lat="39.795619588964755" lon="9.5124797510207"><ele>579.0</ele><time>2026-04-03T10:16:57.001Z</time></trkpt><trkpt lat="39.79547917636395" lon="9.512500382545824"><ele>581.0</ele><time>2026-04-03T10:16:58.001Z</time></trkpt><trkpt lat="39.79534549534586" lon="9.51252609633528"><ele>581.0</ele><time>2026-04-03T10:16:59.001Z</time></trkpt><trkpt lat="39.795217239588645" lon="9.512537970931708"><ele>581.0</ele><time>2026-04-03T10:17:00.001Z</time></trkpt><trkpt lat="39.79508225969657" lon="9.512563165770098"><ele>581.0</ele><time>2026-04-03T10:17:01.001Z</time></trkpt><trkpt lat="39.79495003733976" lon="9.51259488607002"><ele>581.0</ele><time>2026-04-03T10:17:02.001Z</time></trkpt><trkpt lat="39.79481519866188" lon="9.512625469512244"><ele>581.0</ele><time>2026-04-03T10:17:03.001Z</time></trkpt><trkpt lat="39.79467879661797" lon="9.51265342051498"><ele>581.0</ele><time>2026-04-03T10:17:04.001Z</time></trkpt><trkpt lat="39.79453701639421" lon="9.512660377988054"><ele>581.0</ele><time>2026-04-03T10:17:05.001Z</time></trkpt><trkpt lat="39.79439901505299" lon="9.512624023440566"><ele>581.0</ele><time>2026-04-03T10:17:06.001Z</time></trkpt><trkpt lat="39.79428595722461" lon="9.512539041249966"><ele>578.75</ele><time>2026-04-03T10:17:07.001Z</time></trkpt><trkpt lat="39.79418639519295" lon="9.51241684906942"><ele>576.5</ele><time>2026-04-03T10:17:08.001Z</time></trkpt><trkpt lat="39.79409475834436" lon="9.512279497157467"><ele>574.25</ele><time>2026-04-03T10:17:09.001Z</time></trkpt><trkpt lat="39.79398551485072" lon="9.512162535210125"><ele>572.0</ele><time>2026-04-03T10:17:10.001Z</time></trkpt><trkpt lat="39.7938550711953" lon="9.512099095279709"><ele>572.0</ele><time>2026-04-03T10:17:11.001Z</time></trkpt><trkpt lat="39.79370828179766" lon="9.512080037615215"><ele>572.0</ele><time>2026-04-03T10:17:12.001Z</time></trkpt><trkpt lat="39.79355768965702" lon="9.512093732283724"><ele>572.0</ele><time>2026-04-03T10:17:13.001Z</time></trkpt><trkpt lat="39.793411558702644" lon="9.51211055080675"><ele>572.0</ele><time>2026-04-03T10:17:14.001Z</time></trkpt><trkpt lat="39.79326592188863" lon="9.512115830518443"><ele>569.5</ele><time>2026-04-03T10:17:15.001Z</time></trkpt><trkpt lat="39.79311748790985" lon="9.512111983557052"><ele>567.0</ele><time>2026-04-03T10:17:16.001Z</time></trkpt><trkpt lat="39.79296408070995" lon="9.512110110589445"><ele>564.5</ele><time>2026-04-03T10:17:17.001Z</time></trkpt><trkpt lat="39.7928191406037" lon="9.512108164500482"><ele>562.0</ele><time>2026-04-03T10:17:18.001Z</time></trkpt><trkpt lat="39.79267868724498" lon="9.512108241441782"><ele>562.25</ele><time>2026-04-03T10:17:19.001Z</time></trkpt><trkpt lat="39.79254063213172" lon="9.512111881437695"><ele>562.5</ele><time>2026-04-03T10:17:20.001Z</time></trkpt><trkpt lat="39.79240607470898" lon="9.5121324475915"><ele>562.75</ele><time>2026-04-03T10:17:21.001Z</time></trkpt><trkpt lat="39.7922747514049" lon="9.512188687760885"><ele>563.0</ele><time>2026-04-03T10:17:22.001Z</time></trkpt><trkpt lat="39.79215448847687" lon="9.512284649271802"><ele>563.0</ele><time>2026-04-03T10:17:23.001Z</time></trkpt><trkpt lat="39.79205656052917" lon="9.51242412952773"><ele>563.0</ele><time>2026-04-03T10:17:24.001Z</time></trkpt><trkpt lat="39.7919880467664" lon="9.512598839942353"><ele>563.0</ele><time>2026-04-03T10:17:25.001Z</time></trkpt><trkpt lat="39.79193228200471" lon="9.512785911604043"><ele>566.3333333333333</ele><time>2026-04-03T10:17:26.001Z</time></trkpt><trkpt lat="39.791883393077846" lon="9.51298522036017"><ele>569.6666666666666</ele><time>2026-04-03T10:17:27.001Z</time></trkpt><trkpt lat="39.791845469149905" lon="9.513195584946718"><ele>573.0</ele><time>2026-04-03T10:17:28.001Z</time></trkpt><trkpt lat="39.79179368309489" lon="9.513388347747405"><ele>573.0</ele><time>2026-04-03T10:17:29.001Z</time></trkpt><trkpt lat="39.79175611800983" lon="9.513587916088374"><ele>573.0</ele><time>2026-04-03T10:17:30.001Z</time></trkpt><trkpt lat="39.7917505873066" lon="9.513783719120026"><ele>573.0</ele><time>2026-04-03T10:17:31.001Z</time></trkpt><trkpt lat="39.79177353413873" lon="9.513973352388765"><ele>570.75</ele><time>2026-04-03T10:17:32.001Z</time></trkpt><trkpt lat="39.79179254814118" lon="9.51415903562174"><ele>568.5</ele><time>2026-04-03T10:17:33.001Z</time></trkpt><trkpt lat="39.79181086017013" lon="9.514341229199848"><ele>566.25</ele><time>2026-04-03T10:17:34.001Z</time></trkpt><trkpt lat="39.79180487028094" lon="9.514515230732828"><ele>564.0</ele><time>2026-04-03T10:17:35.001Z</time></trkpt><trkpt lat="39.79181244426597" lon="9.514684337107653"><ele>562.5</ele><time>2026-04-03T10:17:36.001Z</time></trkpt><trkpt lat="39.79183829493428" lon="9.514850323447176"><ele>561.0</ele><time>2026-04-03T10:17:37.001Z</time></trkpt><trkpt lat="39.79184011822302" lon="9.515015241531028"><ele>559.5</ele><time>2026-04-03T10:17:38.001Z</time></trkpt><trkpt lat="39.79180173884637" lon="9.515181960105355"><ele>558.0</ele><time>2026-04-03T10:17:39.001Z</time></trkpt><trkpt lat="39.791767626677064" lon="9.51535469445978"><ele>553.3333333333334</ele><time>2026-04-03T10:17:40.001Z</time></trkpt><trkpt lat="39.79167372360393" lon="9.515502616285453"><ele>548.6666666666667</ele><time>2026-04-03T10:17:41.001Z</time></trkpt><trkpt lat="39.791549381519026" lon="9.515618995048266"><ele>544.0</ele><time>2026-04-03T10:17:42.001Z</time></trkpt><trkpt lat="39.791399929670675" lon="9.515705785206098"><ele>544.0</ele><time>2026-04-03T10:17:43.001Z</time></trkpt><trkpt lat="39.79122990895935" lon="9.515759541155916"><ele>544.0</ele><time>2026-04-03T10:17:44.001Z</time></trkpt><trkpt lat="39.791052168137" lon="9.515786155799056"><ele>544.0</ele><time>2026-04-03T10:17:45.001Z</time></trkpt><trkpt lat="39.790876742000165" lon="9.51577766258222"><ele>546.25</ele><time>2026-04-03T10:17:46.001Z</time></trkpt><trkpt lat="39.790815904654806" lon="9.515854869315616"><ele>548.5</ele><time>2026-04-03T10:17:47.001Z</time></trkpt><trkpt lat="39.790676469594594" lon="9.515889250708645"><ele>550.75</ele><time>2026-04-03T10:17:48.001Z</time></trkpt><trkpt lat="39.790557291977436" lon="9.51595562804431"><ele>553.0</ele><time>2026-04-03T10:17:49.001Z</time></trkpt><trkpt lat="39.79045641310125" lon="9.516030015352516"><ele>553.0</ele><time>2026-04-03T10:17:50.001Z</time></trkpt><trkpt lat="39.79038121733668" lon="9.516166118732249"><ele>553.0</ele><time>2026-04-03T10:17:51.001Z</time></trkpt><trkpt lat="39.790344523778465" lon="9.516338868109306"><ele>553.0</ele><time>2026-04-03T10:17:52.001Z</time></trkpt><trkpt lat="39.79033061646873" lon="9.516507565584638"><ele>553.0</ele><time>2026-04-03T10:17:53.001Z</time></trkpt><trkpt lat="39.79029817820174" lon="9.516660807105364"><ele>551.75</ele><time>2026-04-03T10:17:54.001Z</time></trkpt><trkpt lat="39.79023454383568" lon="9.516801979802464"><ele>550.5</ele><time>2026-04-03T10:17:55.001Z</time></trkpt><trkpt lat="39.79012617202921" lon="9.516893948103785"><ele>549.25</ele><time>2026-04-03T10:17:56.001Z</time></trkpt><trkpt lat="39.790011514791445" lon="9.516939917443416"><ele>548.0</ele><time>2026-04-03T10:17:57.001Z</time></trkpt><trkpt lat="39.78988974195322" lon="9.51696054448051"><ele>548.0</ele><time>2026-04-03T10:17:58.001Z</time></trkpt><trkpt lat="39.789760998627436" lon="9.516940687222998"><ele>548.0</ele><time>2026-04-03T10:17:59.001Z</time></trkpt><trkpt lat="39.78962038877899" lon="9.51691629493474"><ele>548.0</ele><time>2026-04-03T10:18:00.001Z</time></trkpt><trkpt lat="39.78948572137542" lon="9.516890349240612"><ele>548.0</ele><time>2026-04-03T10:18:01.001Z</time></trkpt><trkpt lat="39.78934352124904" lon="9.51687445404728"><ele>549.75</ele><time>2026-04-03T10:18:02.001Z</time></trkpt><trkpt lat="39.78920275292964" lon="9.516848387927991"><ele>551.5</ele><time>2026-04-03T10:18:03.001Z</time></trkpt><trkpt lat="39.78906189118864" lon="9.516837134886064"><ele>553.25</ele><time>2026-04-03T10:18:04.001Z</time></trkpt><trkpt lat="39.78891740932367" lon="9.51686454761486"><ele>555.0</ele><time>2026-04-03T10:18:05.001Z</time></trkpt><trkpt lat="39.78877929342771" lon="9.516936960533066"><ele>555.0</ele><time>2026-04-03T10:18:06.001Z</time></trkpt><trkpt lat="39.78865053531931" lon="9.517042496378526"><ele>555.0</ele><time>2026-04-03T10:18:07.001Z</time></trkpt><trkpt lat="39.788533110438145" lon="9.517158711295965"><ele>555.0</ele><time>2026-04-03T10:18:08.001Z</time></trkpt><trkpt lat="39.788422668529144" lon="9.517274835481144"><ele>555.0</ele><time>2026-04-03T10:18:09.001Z</time></trkpt><trkpt lat="39.78831230615512" lon="9.517413293476423"><ele>550.5</ele><time>2026-04-03T10:18:10.001Z</time></trkpt><trkpt lat="39.788196146994316" lon="9.517522579147219"><ele>546.0</ele><time>2026-04-03T10:18:11.001Z</time></trkpt><trkpt lat="39.78806755041196" lon="9.517612186000521"><ele>541.5</ele><time>2026-04-03T10:18:12.001Z</time></trkpt><trkpt lat="39.78795453897944" lon="9.51773381409339"><ele>537.0</ele><time>2026-04-03T10:18:13.002Z</time></trkpt><trkpt lat="39.787828586175195" lon="9.517850145615263"><ele>533.6666666666666</ele><time>2026-04-03T10:18:14.002Z</time></trkpt><trkpt lat="39.78769762918774" lon="9.517969299226069"><ele>530.3333333333333</ele><time>2026-04-03T10:18:15.002Z</time></trkpt><trkpt lat="39.787560930211555" lon="9.518090704190765"><ele>527.0</ele><time>2026-04-03T10:18:16.002Z</time></trkpt><trkpt lat="39.78742327606941" lon="9.518206683280004"><ele>527.0</ele><time>2026-04-03T10:18:17.002Z</time></trkpt><trkpt lat="39.787287826892104" lon="9.518310786577901"><ele>527.0</ele><time>2026-04-03T10:18:18.002Z</time></trkpt><trkpt lat="39.78714347167891" lon="9.518394232218531"><ele>527.0</ele><time>2026-04-03T10:18:19.002Z</time></trkpt><trkpt lat="39.7869942636927" lon="9.518458480281616"><ele>531.3333333333333</ele><time>2026-04-03T10:18:20.002Z</time></trkpt><trkpt lat="39.78684228819755" lon="9.518523644405866"><ele>535.6666666666666</ele><time>2026-04-03T10:18:21.002Z</time></trkpt><trkpt lat="39.78669469006821" lon="9.5186056338285"><ele>540.0</ele><time>2026-04-03T10:18:22.002Z</time></trkpt><trkpt lat="39.78654603876457" lon="9.518699029169195"><ele>529.6666666666666</ele><time>2026-04-03T10:18:23.002Z</time></trkpt><trkpt lat="39.786407788538" lon="9.518810410388285"><ele>519.3333333333333</ele><time>2026-04-03T10:18:24.002Z</time></trkpt><trkpt lat="39.78627646974154" lon="9.518936562778125"><ele>509.0</ele><time>2026-04-03T10:18:25.002Z</time></trkpt><trkpt lat="39.78616333085786" lon="9.519083403456357"><ele>509.0</ele><time>2026-04-03T10:18:26.002Z</time></trkpt><trkpt lat="39.78605940728265" lon="9.519233850755612"><ele>509.0</ele><time>2026-04-03T10:18:27.002Z</time></trkpt><trkpt lat="39.78595491178031" lon="9.519376979956995"><ele>509.0</ele><time>2026-04-03T10:18:28.002Z</time></trkpt><trkpt lat="39.78584954463244" lon="9.519513143712272"><ele>509.0</ele><time>2026-04-03T10:18:29.002Z</time></trkpt><trkpt lat="39.78574476046734" lon="9.519640587094056"><ele>509.0</ele><time>2026-04-03T10:18:30.002Z</time></trkpt><trkpt lat="39.78565517610511" lon="9.519755533548011"><ele>509.0</ele><time>2026-04-03T10:18:31.002Z</time></trkpt><trkpt lat="39.785578218204215" lon="9.519857481858345"><ele>509.0</ele><time>2026-04-03T10:18:32.002Z</time></trkpt><trkpt lat="39.78550592732365" lon="9.519973209809645"><ele>509.0</ele><time>2026-04-03T10:18:33.002Z</time></trkpt><trkpt lat="39.78544999044412" lon="9.520116719389454"><ele>509.0</ele><time>2026-04-03T10:18:34.002Z</time></trkpt><trkpt lat="39.785435160178345" lon="9.520278865671068"><ele>509.0</ele><time>2026-04-03T10:18:35.002Z</time></trkpt><trkpt lat="39.78544970980144" lon="9.520447691293468"><ele>509.0</ele><time>2026-04-03T10:18:36.002Z</time></trkpt><trkpt lat="39.785494941676916" lon="9.520615873424704"><ele>505.0</ele><time>2026-04-03T10:18:37.002Z</time></trkpt><trkpt lat="39.78556963308268" lon="9.520791140472516"><ele>501.0</ele><time>2026-04-03T10:18:38.002Z</time></trkpt><trkpt lat="39.78565401097553" lon="9.520963236312973"><ele>497.0</ele><time>2026-04-03T10:18:39.002Z</time></trkpt><trkpt lat="39.78573552066837" lon="9.521146817719305"><ele>500.3333333333333</ele><time>2026-04-03T10:18:40.002Z</time></trkpt><trkpt lat="39.78580682077123" lon="9.52133862433006"><ele>503.66666666666663</ele><time>2026-04-03T10:18:41.002Z</time></trkpt><trkpt lat="39.78587648201078" lon="9.521523540696535"><ele>507.0</ele><time>2026-04-03T10:18:42.002Z</time></trkpt><trkpt lat="39.78594786743288" lon="9.521708879400046"><ele>496.0</ele><time>2026-04-03T10:18:43.002Z</time></trkpt><trkpt lat="39.78602229285666" lon="9.52189376054772"><ele>485.0</ele><time>2026-04-03T10:18:44.002Z</time></trkpt><trkpt lat="39.78610063943561" lon="9.522076489419222"><ele>474.0</ele><time>2026-04-03T10:18:45.002Z</time></trkpt><trkpt lat="39.78617322226845" lon="9.522263686448351"><ele>474.0</ele><time>2026-04-03T10:18:46.002Z</time></trkpt><trkpt lat="39.78624537018121" lon="9.52245315386808"><ele>474.0</ele><time>2026-04-03T10:18:47.002Z</time></trkpt><trkpt lat="39.78631725891227" lon="9.522638829958252"><ele>474.0</ele><time>2026-04-03T10:18:48.002Z</time></trkpt><trkpt lat="39.78639206454863" lon="9.522828883443667"><ele>476.33333333333337</ele><time>2026-04-03T10:18:49.002Z</time></trkpt><trkpt lat="39.78646913583543" lon="9.523015622817809"><ele>478.6666666666667</ele><time>2026-04-03T10:18:50.002Z</time></trkpt><trkpt lat="39.786546030966505" lon="9.523202897310497"><ele>481.0</ele><time>2026-04-03T10:18:51.002Z</time></trkpt><trkpt lat="39.78661481991248" lon="9.523389936811832"><ele>481.0</ele><time>2026-04-03T10:18:52.002Z</time></trkpt><trkpt lat="39.78668825110938" lon="9.52358989520171"><ele>481.0</ele><time>2026-04-03T10:18:53.002Z</time></trkpt><trkpt lat="39.78676334957372" lon="9.523779617411556"><ele>481.0</ele><time>2026-04-03T10:18:54.002Z</time></trkpt><trkpt lat="39.786837901775286" lon="9.523969012824958"><ele>468.6666666666667</ele><time>2026-04-03T10:18:55.002Z</time></trkpt><trkpt lat="39.7869105869462" lon="9.524153661561321"><ele>456.33333333333337</ele><time>2026-04-03T10:18:56.002Z</time></trkpt><trkpt lat="39.78695775759698" lon="9.524352035619065"><ele>444.0</ele><time>2026-04-03T10:18:57.002Z</time></trkpt><trkpt lat="39.78699281735294" lon="9.524553172678246"><ele>446.5</ele><time>2026-04-03T10:18:58.002Z</time></trkpt><trkpt lat="39.7870314678949" lon="9.524744847040632"><ele>449.0</ele><time>2026-04-03T10:18:59.002Z</time></trkpt><trkpt lat="39.78704808002978" lon="9.524930276252446"><ele>451.5</ele><time>2026-04-03T10:19:00.002Z</time></trkpt><trkpt lat="39.787079130044965" lon="9.525111789874906"><ele>454.0</ele><time>2026-04-03T10:19:01.002Z</time></trkpt><trkpt lat="39.787115456661915" lon="9.525271794996485"><ele>455.75</ele><time>2026-04-03T10:19:02.002Z</time></trkpt><trkpt lat="39.78718492370255" lon="9.52544791768469"><ele>457.5</ele><time>2026-04-03T10:19:03.002Z</time></trkpt><trkpt lat="39.787236089319606" lon="9.525587297989732"><ele>459.25</ele><time>2026-04-03T10:19:04.002Z</time></trkpt><trkpt lat="39.78727577561522" lon="9.525726549442975"><ele>461.0</ele><time>2026-04-03T10:19:05.002Z</time></trkpt><trkpt lat="39.78731648790941" lon="9.525862150266171"><ele>461.0</ele><time>2026-04-03T10:19:06.002Z</time></trkpt><trkpt lat="39.78737679321801" lon="9.525968788411488"><ele>461.0</ele><time>2026-04-03T10:19:07.002Z</time></trkpt><trkpt lat="39.78746353035973" lon="9.526031761095117"><ele>461.0</ele><time>2026-04-03T10:19:08.002Z</time></trkpt><trkpt lat="39.78756897657639" lon="9.526033756558414"><ele>461.0</ele><time>2026-04-03T10:19:09.002Z</time></trkpt><trkpt lat="39.78766132542059" lon="9.5259655405045"><ele>461.0</ele><time>2026-04-03T10:19:10.002Z</time></trkpt><trkpt lat="39.78773207645386" lon="9.525855805777468"><ele>461.0</ele><time>2026-04-03T10:19:11.002Z</time></trkpt><trkpt lat="39.78772312127299" lon="9.52571299890662"><ele>461.0</ele><time>2026-04-03T10:19:12.002Z</time></trkpt><trkpt lat="39.78769540644054" lon="9.525576656176124"><ele>461.0</ele><time>2026-04-03T10:19:13.002Z</time></trkpt><trkpt lat="39.78763176139977" lon="9.525445541661917"><ele>461.0</ele><time>2026-04-03T10:19:14.001Z</time></trkpt><trkpt lat="39.78754676650782" lon="9.525304756911453"><ele>458.66666666666663</ele><time>2026-04-03T10:19:15.001Z</time></trkpt><trkpt lat="39.7875060747955" lon="9.525120034125239"><ele>456.33333333333337</ele><time>2026-04-03T10:19:16.001Z</time></trkpt><trkpt lat="39.78747251107643" lon="9.524916904249153"><ele>454.0</ele><time>2026-04-03T10:19:17.001Z</time></trkpt><trkpt lat="39.787441451640134" lon="9.52471710159203"><ele>451.5</ele><time>2026-04-03T10:19:18.001Z</time></trkpt><trkpt lat="39.787429792043135" lon="9.524529953662407"><ele>449.0</ele><time>2026-04-03T10:19:19.001Z</time></trkpt><trkpt lat="39.787419857005844" lon="9.524355566820725"><ele>446.5</ele><time>2026-04-03T10:19:20.001Z</time></trkpt><trkpt lat="39.78741124840257" lon="9.524184116709007"><ele>444.0</ele><time>2026-04-03T10:19:21.001Z</time></trkpt><trkpt lat="39.78739819072538" lon="9.52401839843992"><ele>444.0</ele><time>2026-04-03T10:19:22.001Z</time></trkpt><trkpt lat="39.787397875260766" lon="9.52385678317659"><ele>444.0</ele><time>2026-04-03T10:19:23.001Z</time></trkpt><trkpt lat="39.78738246973275" lon="9.523702244191524"><ele>444.0</ele><time>2026-04-03T10:19:24.001Z</time></trkpt><trkpt lat="39.78734801683098" lon="9.52354671437052"><ele>444.0</ele><time>2026-04-03T10:19:25.001Z</time></trkpt><trkpt lat="39.78731504725204" lon="9.523379621897629"><ele>441.75</ele><time>2026-04-03T10:19:26.001Z</time></trkpt><trkpt lat="39.78726798150545" lon="9.523231574109653"><ele>439.5</ele><time>2026-04-03T10:19:27.001Z</time></trkpt><trkpt lat="39.787205181983595" lon="9.52309864014428"><ele>437.25</ele><time>2026-04-03T10:19:28.001Z</time></trkpt><trkpt lat="39.78717114217224" lon="9.522951797955267"><ele>435.0</ele><time>2026-04-03T10:19:29.001Z</time></trkpt><trkpt lat="39.787156614145815" lon="9.522831133958563"><ele>435.0</ele><time>2026-04-03T10:19:30.001Z</time></trkpt><trkpt lat="39.78716217208422" lon="9.52266689191608"><ele>435.0</ele><time>2026-04-03T10:19:31.001Z</time></trkpt><trkpt lat="39.787194139858784" lon="9.522524663600086"><ele>435.0</ele><time>2026-04-03T10:19:32.001Z</time></trkpt><trkpt lat="39.78720974995401" lon="9.5223726091528"><ele>435.0</ele><time>2026-04-03T10:19:33.001Z</time></trkpt><trkpt lat="39.78723434843289" lon="9.522230306658196"><ele>435.0</ele><time>2026-04-03T10:19:34.001Z</time></trkpt><trkpt lat="39.78724757094992" lon="9.522092394642627"><ele>435.0</ele><time>2026-04-03T10:19:35.001Z</time></trkpt><trkpt lat="39.787271610420085" lon="9.521957153407799"><ele>435.0</ele><time>2026-04-03T10:19:36.001Z</time></trkpt><trkpt lat="39.787260808529915" lon="9.521822770902096"><ele>435.0</ele><time>2026-04-03T10:19:37.001Z</time></trkpt><trkpt lat="39.78726271860598" lon="9.521696662608573"><ele>435.0</ele><time>2026-04-03T10:19:38.001Z</time></trkpt><trkpt lat="39.78726720193545" lon="9.521570518058738"><ele>436.0</ele><time>2026-04-03T10:19:39.001Z</time></trkpt><trkpt lat="39.78726149626783" lon="9.521453550253709"><ele>437.0</ele><time>2026-04-03T10:19:40.001Z</time></trkpt><trkpt lat="39.7872376444674" lon="9.521361525724872"><ele>438.0</ele><time>2026-04-03T10:19:41.001Z</time></trkpt><trkpt lat="39.78722464214112" lon="9.5212264446282"><ele>439.0</ele><time>2026-04-03T10:19:43.001Z</time></trkpt><trkpt lat="39.78722036414808" lon="9.521100802226881"><ele>440.0</ele><time>2026-04-03T10:19:45.001Z</time></trkpt><trkpt lat="39.78724849771268" lon="9.520987643947464"><ele>441.6</ele><time>2026-04-03T10:19:46.001Z</time></trkpt><trkpt lat="39.787341739214305" lon="9.520909526704022"><ele>443.2</ele><time>2026-04-03T10:19:48.001Z</time></trkpt><trkpt lat="39.787431192328796" lon="9.520905198634878"><ele>444.79999999999995</ele><time>2026-04-03T10:19:49.001Z</time></trkpt><trkpt lat="39.787518184255504" lon="9.52092674209731"><ele>446.4</ele><time>2026-04-03T10:19:50.001Z</time></trkpt><trkpt lat="39.78760608479916" lon="9.520938878318942"><ele>448.0</ele><time>2026-04-03T10:19:51.001Z</time></trkpt><trkpt lat="39.78770680651566" lon="9.520952189118393"><ele>449.4</ele><time>2026-04-03T10:19:52.001Z</time></trkpt><trkpt lat="39.78776643040429" lon="9.521034147107557"><ele>450.79999999999995</ele><time>2026-04-03T10:19:53.001Z</time></trkpt><trkpt lat="39.78778948562647" lon="9.521183533160315"><ele>452.2</ele><time>2026-04-03T10:19:54.001Z</time></trkpt><trkpt lat="39.787779866722936" lon="9.521323658737023"><ele>453.6</ele><time>2026-04-03T10:19:55.001Z</time></trkpt><trkpt lat="39.78774063170226" lon="9.521449590326354"><ele>455.0</ele><time>2026-04-03T10:19:56.001Z</time></trkpt><trkpt lat="39.787680944732784" lon="9.521567950694665"><ele>452.49999999999994</ele><time>2026-04-03T10:19:57.001Z</time></trkpt><trkpt lat="39.7876206395956" lon="9.5216728399515"><ele>450.0</ele><time>2026-04-03T10:19:58.001Z</time></trkpt><trkpt lat="39.78756931764864" lon="9.521770572137992"><ele>447.5</ele><time>2026-04-03T10:19:59.001Z</time></trkpt><trkpt lat="39.787526015308686" lon="9.521852128961042"><ele>445.0</ele><time>2026-04-03T10:20:00.001Z</time></trkpt><trkpt lat="39.78748577334531" lon="9.521933638268353"><ele>442.49999999999994</ele><time>2026-04-03T10:20:01.001Z</time></trkpt><trkpt lat="39.78745966268154" lon="9.522018579697455"><ele>440.0</ele><time>2026-04-03T10:20:02.001Z</time></trkpt><trkpt lat="39.78745486573794" lon="9.522110327252857"><ele>439.0</ele><time>2026-04-03T10:20:03.001Z</time></trkpt><trkpt lat="39.78743683652115" lon="9.522203628856206"><ele>438.0</ele><time>2026-04-03T10:20:04.001Z</time></trkpt><trkpt lat="39.78741181733863" lon="9.522308974188029"><ele>437.0</ele><time>2026-04-03T10:20:05.001Z</time></trkpt><trkpt lat="39.78739695531896" lon="9.522426247325695"><ele>436.0</ele><time>2026-04-03T10:20:06.001Z</time></trkpt><trkpt lat="39.78738929146191" lon="9.522556739337345"><ele>435.0</ele><time>2026-04-03T10:20:07.001Z</time></trkpt><trkpt lat="39.78738299133015" lon="9.522700363292266"><ele>435.0</ele><time>2026-04-03T10:20:08.001Z</time></trkpt><trkpt lat="39.78738401604901" lon="9.522847910043904"><ele>435.0</ele><time>2026-04-03T10:20:09.001Z</time></trkpt><trkpt lat="39.787395080990976" lon="9.52300385395702"><ele>435.0</ele><time>2026-04-03T10:20:10.001Z</time></trkpt><trkpt lat="39.78742066933957" lon="9.523169941615741"><ele>435.0</ele><time>2026-04-03T10:20:11.001Z</time></trkpt><trkpt lat="39.78746338827627" lon="9.52333889915426"><ele>434.75</ele><time>2026-04-03T10:20:12.001Z</time></trkpt><trkpt lat="39.78751404695732" lon="9.52351314102123"><ele>434.5</ele><time>2026-04-03T10:20:13.001Z</time></trkpt><trkpt lat="39.78755743474644" lon="9.523697134643344"><ele>434.25</ele><time>2026-04-03T10:20:14.001Z</time></trkpt><trkpt lat="39.78759372241485" lon="9.523896058532568"><ele>434.0</ele><time>2026-04-03T10:20:15.001Z</time></trkpt><trkpt lat="39.787627594041076" lon="9.524107656743574"><ele>437.3333333333333</ele><time>2026-04-03T10:20:16.001Z</time></trkpt><trkpt lat="39.787674112140444" lon="9.524327677870652"><ele>440.66666666666663</ele><time>2026-04-03T10:20:17.001Z</time></trkpt><trkpt lat="39.78774849930482" lon="9.524556367537476"><ele>444.0</ele><time>2026-04-03T10:20:18.001Z</time></trkpt><trkpt lat="39.78786299579858" lon="9.524794820149413"><ele>436.0</ele><time>2026-04-03T10:20:19.001Z</time></trkpt><trkpt lat="39.78799479657397" lon="9.52499175073481"><ele>428.0</ele><time>2026-04-03T10:20:20.001Z</time></trkpt><trkpt lat="39.788118727770865" lon="9.525172345088778"><ele>420.0</ele><time>2026-04-03T10:20:21.001Z</time></trkpt><trkpt lat="39.7882260875797" lon="9.525354225001072"><ele>424.66666666666663</ele><time>2026-04-03T10:20:22.001Z</time></trkpt><trkpt lat="39.788317152774326" lon="9.525538794314071"><ele>429.3333333333333</ele><time>2026-04-03T10:20:23.001Z</time></trkpt><trkpt lat="39.78838118042149" lon="9.525734667719627"><ele>434.0</ele><time>2026-04-03T10:20:24.001Z</time></trkpt><trkpt lat="39.78844707239975" lon="9.525921927474872"><ele>429.25</ele><time>2026-04-03T10:20:25.001Z</time></trkpt><trkpt lat="39.78852541361473" lon="9.52608447023899"><ele>424.5</ele><time>2026-04-03T10:20:26.001Z</time></trkpt><trkpt lat="39.78860736460296" lon="9.526229887232613"><ele>419.75</ele><time>2026-04-03T10:20:27.001Z</time></trkpt><trkpt lat="39.78867449005435" lon="9.526365167899488"><ele>415.0</ele><time>2026-04-03T10:20:28.001Z</time></trkpt><trkpt lat="39.78872547519498" lon="9.526497331655003"><ele>415.0</ele><time>2026-04-03T10:20:29.002Z</time></trkpt><trkpt lat="39.788772287915194" lon="9.526611981935782"><ele>415.0</ele><time>2026-04-03T10:20:30.002Z</time></trkpt><trkpt lat="39.788815726340644" lon="9.526715294929103"><ele>415.0</ele><time>2026-04-03T10:20:31.002Z</time></trkpt><trkpt lat="39.78885502052802" lon="9.5268249297238"><ele>415.0</ele><time>2026-04-03T10:20:32.002Z</time></trkpt><trkpt lat="39.78887313512001" lon="9.52694883646413"><ele>415.0</ele><time>2026-04-03T10:20:33.002Z</time></trkpt><trkpt lat="39.788869963498826" lon="9.52708687277585"><ele>416.25</ele><time>2026-04-03T10:20:34.002Z</time></trkpt><trkpt lat="39.788849968942074" lon="9.52723011985756"><ele>417.5</ele><time>2026-04-03T10:20:35.002Z</time></trkpt><trkpt lat="39.78880878420521" lon="9.52737901656377"><ele>418.75</ele><time>2026-04-03T10:20:36.002Z</time></trkpt><trkpt lat="39.78874423808937" lon="9.527525052779122"><ele>420.0</ele><time>2026-04-03T10:20:37.002Z</time></trkpt><trkpt lat="39.78865417203739" lon="9.5276556035948"><ele>420.0</ele><time>2026-04-03T10:20:38.002Z</time></trkpt><trkpt lat="39.78854320550758" lon="9.52776827848756"><ele>420.0</ele><time>2026-04-03T10:20:39.002Z</time></trkpt><trkpt lat="39.788418706403306" lon="9.527851387962953"><ele>420.0</ele><time>2026-04-03T10:20:40.002Z</time></trkpt><trkpt lat="39.7882847538847" lon="9.527903466044204"><ele>420.0</ele><time>2026-04-03T10:20:41.002Z</time></trkpt><trkpt lat="39.788147480341294" lon="9.52793620478038"><ele>416.0</ele><time>2026-04-03T10:20:42.002Z</time></trkpt><trkpt lat="39.788010975598354" lon="9.527961182704253"><ele>412.0</ele><time>2026-04-03T10:20:43.002Z</time></trkpt><trkpt lat="39.78787464467983" lon="9.527980918724298"><ele>408.0</ele><time>2026-04-03T10:20:44.002Z</time></trkpt><trkpt lat="39.78774210905296" lon="9.527995254642105"><ele>404.0</ele><time>2026-04-03T10:20:45.002Z</time></trkpt><trkpt lat="39.78761282462613" lon="9.527986762653597"><ele>402.5</ele><time>2026-04-03T10:20:46.002Z</time></trkpt><trkpt lat="39.78748618247082" lon="9.527954992764473"><ele>401.0</ele><time>2026-04-03T10:20:47.002Z</time></trkpt><trkpt lat="39.7873576557315" lon="9.52790813610172"><ele>399.5</ele><time>2026-04-03T10:20:48.002Z</time></trkpt><trkpt lat="39.787233539414295" lon="9.527850254029048"><ele>398.0</ele><time>2026-04-03T10:20:49.002Z</time></trkpt><trkpt lat="39.78710052654218" lon="9.527791353009691"><ele>404.0</ele><time>2026-04-03T10:20:50.002Z</time></trkpt><trkpt lat="39.78696414939854" lon="9.527722750451902"><ele>410.0</ele><time>2026-04-03T10:20:51.002Z</time></trkpt><trkpt lat="39.78682302957053" lon="9.527648391486357"><ele>416.0</ele><time>2026-04-03T10:20:52.002Z</time></trkpt><trkpt lat="39.786679361867606" lon="9.527583067410212"><ele>416.0</ele><time>2026-04-03T10:20:53.002Z</time></trkpt><trkpt lat="39.78652109649838" lon="9.527551770018258"><ele>416.0</ele><time>2026-04-03T10:20:54.002Z</time></trkpt><trkpt lat="39.786359925263696" lon="9.527510182787557"><ele>416.0</ele><time>2026-04-03T10:20:55.002Z</time></trkpt><trkpt lat="39.78619213617141" lon="9.527531434868466"><ele>416.0</ele><time>2026-04-03T10:20:56.002Z</time></trkpt><trkpt lat="39.78603010338829" lon="9.52754669882895"><ele>416.0</ele><time>2026-04-03T10:20:57.002Z</time></trkpt><trkpt lat="39.78587566754128" lon="9.52760045940435"><ele>416.0</ele><time>2026-04-03T10:20:58.002Z</time></trkpt><trkpt lat="39.78571740109606" lon="9.527676043759262"><ele>415.66666666666663</ele><time>2026-04-03T10:20:59.002Z</time></trkpt><trkpt lat="39.78556379539973" lon="9.527774370230134"><ele>415.33333333333337</ele><time>2026-04-03T10:21:00.002Z</time></trkpt><trkpt lat="39.78541730550197" lon="9.527890738783489"><ele>415.0</ele><time>2026-04-03T10:21:01.002Z</time></trkpt><trkpt lat="39.78529587721433" lon="9.52804490985031"><ele>415.6666666666667</ele><time>2026-04-03T10:21:02.002Z</time></trkpt><trkpt lat="39.785179532563824" lon="9.528203636362766"><ele>416.33333333333337</ele><time>2026-04-03T10:21:03.002Z</time></trkpt><trkpt lat="39.78508616975563" lon="9.528372120854975"><ele>417.0</ele><time>2026-04-03T10:21:04.002Z</time></trkpt><trkpt lat="39.784968349661874" lon="9.528532700072496"><ele>417.0</ele><time>2026-04-03T10:21:05.002Z</time></trkpt><trkpt lat="39.78486287531174" lon="9.528706832587218"><ele>417.0</ele><time>2026-04-03T10:21:06.002Z</time></trkpt><trkpt lat="39.78477448521456" lon="9.528885898598851"><ele>417.0</ele><time>2026-04-03T10:21:07.002Z</time></trkpt><trkpt lat="39.784682325494664" lon="9.529049414458708"><ele>406.66666666666663</ele><time>2026-04-03T10:21:08.002Z</time></trkpt><trkpt lat="39.78461245140672" lon="9.52922629820791"><ele>396.3333333333333</ele><time>2026-04-03T10:21:09.002Z</time></trkpt><trkpt lat="39.78456979903515" lon="9.529424219148112"><ele>386.0</ele><time>2026-04-03T10:21:10.002Z</time></trkpt><trkpt lat="39.7845561872895" lon="9.529634098052423"><ele>382.0</ele><time>2026-04-03T10:21:11.002Z</time></trkpt><trkpt lat="39.78457542100133" lon="9.529857751888699"><ele>378.0</ele><time>2026-04-03T10:21:12.002Z</time></trkpt><trkpt lat="39.784621523216416" lon="9.530098739819968"><ele>374.0</ele><time>2026-04-03T10:21:13.002Z</time></trkpt><trkpt lat="39.78468272561024" lon="9.530326186179554"><ele>375.0</ele><time>2026-04-03T10:21:14.002Z</time></trkpt><trkpt lat="39.78474878857675" lon="9.530538035887588"><ele>376.0</ele><time>2026-04-03T10:21:15.002Z</time></trkpt><trkpt lat="39.784814073734644" lon="9.53074005446729"><ele>377.0</ele><time>2026-04-03T10:21:16.002Z</time></trkpt><trkpt lat="39.78486026255418" lon="9.53094676857424"><ele>377.0</ele><time>2026-04-03T10:21:17.002Z</time></trkpt><trkpt lat="39.784881832959705" lon="9.531157210986729"><ele>377.0</ele><time>2026-04-03T10:21:18.001Z</time></trkpt><trkpt lat="39.784874617783146" lon="9.531372355701352"><ele>377.0</ele><time>2026-04-03T10:21:19.001Z</time></trkpt><trkpt lat="39.78483969319019" lon="9.531593267675884"><ele>377.6666666666667</ele><time>2026-04-03T10:21:20.001Z</time></trkpt><trkpt lat="39.78478380359917" lon="9.531817565813999"><ele>378.3333333333333</ele><time>2026-04-03T10:21:21.001Z</time></trkpt><trkpt lat="39.78471970988547" lon="9.532064361219643"><ele>379.0</ele><time>2026-04-03T10:21:22.001Z</time></trkpt><trkpt lat="39.78466141455833" lon="9.53230644436153"><ele>375.0</ele><time>2026-04-03T10:21:23.001Z</time></trkpt><trkpt lat="39.78460870162271" lon="9.532536391836398"><ele>371.0</ele><time>2026-04-03T10:21:24.001Z</time></trkpt><trkpt lat="39.78455462494931" lon="9.53275748862313"><ele>367.0</ele><time>2026-04-03T10:21:25.001Z</time></trkpt><trkpt lat="39.7845000140649" lon="9.532971516142691"><ele>363.0</ele><time>2026-04-03T10:21:26.001Z</time></trkpt><trkpt lat="39.78445024267179" lon="9.533179513147678"><ele>359.0</ele><time>2026-04-03T10:21:27.001Z</time></trkpt><trkpt lat="39.78440633418824" lon="9.53338432414143"><ele>355.0</ele><time>2026-04-03T10:21:28.001Z</time></trkpt><trkpt lat="39.7843641188057" lon="9.533584406694171"><ele>361.66666666666663</ele><time>2026-04-03T10:21:29.001Z</time></trkpt><trkpt lat="39.78431371000834" lon="9.533778445945535"><ele>368.3333333333333</ele><time>2026-04-03T10:21:30.001Z</time></trkpt><trkpt lat="39.78424820090007" lon="9.533959841334303"><ele>375.0</ele><time>2026-04-03T10:21:31.001Z</time></trkpt><trkpt lat="39.7841642818572" lon="9.534127238525107"><ele>375.0</ele><time>2026-04-03T10:21:32.001Z</time></trkpt><trkpt lat="39.7840605338086" lon="9.534284659246648"><ele>375.0</ele><time>2026-04-03T10:21:33.001Z</time></trkpt><trkpt lat="39.783942520889745" lon="9.534430154975563"><ele>375.0</ele><time>2026-04-03T10:21:34.001Z</time></trkpt><trkpt lat="39.78383171615893" lon="9.53455968257621"><ele>371.25</ele><time>2026-04-03T10:21:35.001Z</time></trkpt><trkpt lat="39.78375010217943" lon="9.534697777759487"><ele>367.5</ele><time>2026-04-03T10:21:36.001Z</time></trkpt><trkpt lat="39.78371026156802" lon="9.534862157100665"><ele>363.75</ele><time>2026-04-03T10:21:37.001Z</time></trkpt><trkpt lat="39.783714136089756" lon="9.53503754699574"><ele>360.0</ele><time>2026-04-03T10:21:38.001Z</time></trkpt><trkpt lat="39.78375383834341" lon="9.535211811401865"><ele>360.0</ele><time>2026-04-03T10:21:39.001Z</time></trkpt><trkpt lat="39.78382160748927" lon="9.535380712593897"><ele>360.0</ele><time>2026-04-03T10:21:40.001Z</time></trkpt><trkpt lat="39.7838941182238" lon="9.535555465547395"><ele>360.0</ele><time>2026-04-03T10:21:41.001Z</time></trkpt><trkpt lat="39.783955295077575" lon="9.535754314778327"><ele>359.6666666666667</ele><time>2026-04-03T10:21:42.001Z</time></trkpt><trkpt lat="39.784014266505054" lon="9.535961422633733"><ele>359.33333333333337</ele><time>2026-04-03T10:21:43.001Z</time></trkpt><trkpt lat="39.784077563889014" lon="9.536167927099044"><ele>359.0</ele><time>2026-04-03T10:21:44.001Z</time></trkpt><trkpt lat="39.78414045258323" lon="9.53637016726052"><ele>362.33333333333337</ele><time>2026-04-03T10:21:45.001Z</time></trkpt><trkpt lat="39.784194913004306" lon="9.536577504720535"><ele>365.6666666666667</ele><time>2026-04-03T10:21:46.001Z</time></trkpt><trkpt lat="39.78429887451105" lon="9.536742481119074"><ele>369.0</ele><time>2026-04-03T10:21:47.001Z</time></trkpt><trkpt lat="39.78438138602862" lon="9.536894323374337"><ele>355.6666666666667</ele><time>2026-04-03T10:21:48.001Z</time></trkpt><trkpt lat="39.784427194871924" lon="9.537055216257773"><ele>342.33333333333337</ele><time>2026-04-03T10:21:49.001Z</time></trkpt><trkpt lat="39.78441714526831" lon="9.537251392212227"><ele>329.0</ele><time>2026-04-03T10:21:50.001Z</time></trkpt><trkpt lat="39.78435515378432" lon="9.537469352883189"><ele>329.6666666666667</ele><time>2026-04-03T10:21:51.001Z</time></trkpt><trkpt lat="39.78431326069217" lon="9.53770442795879"><ele>330.3333333333333</ele><time>2026-04-03T10:21:52.001Z</time></trkpt><trkpt lat="39.784350174420084" lon="9.537930920945591"><ele>331.0</ele><time>2026-04-03T10:21:53.001Z</time></trkpt><trkpt lat="39.78437867482968" lon="9.538168169760525"><ele>331.0</ele><time>2026-04-03T10:21:54.001Z</time></trkpt><trkpt lat="39.78440557373758" lon="9.538400894408285"><ele>331.0</ele><time>2026-04-03T10:21:55.001Z</time></trkpt><trkpt lat="39.7844246505481" lon="9.538611032305793"><ele>331.0</ele><time>2026-04-03T10:21:56.001Z</time></trkpt><trkpt lat="39.784518246146604" lon="9.538781111600787"><ele>335.3333333333333</ele><time>2026-04-03T10:21:57.001Z</time></trkpt><trkpt lat="39.78459505300151" lon="9.538989184593518"><ele>339.6666666666667</ele><time>2026-04-03T10:21:58.001Z</time></trkpt><trkpt lat="39.78471151935734" lon="9.539174672458154"><ele>344.0</ele><time>2026-04-03T10:21:59.001Z</time></trkpt><trkpt lat="39.78483248864498" lon="9.539360445167054"><ele>344.0</ele><time>2026-04-03T10:22:00.001Z</time></trkpt><trkpt lat="39.78494226759607" lon="9.539548291522095"><ele>344.0</ele><time>2026-04-03T10:22:01.001Z</time></trkpt><trkpt lat="39.785048570312924" lon="9.539738887416627"><ele>344.0</ele><time>2026-04-03T10:22:02.001Z</time></trkpt><trkpt lat="39.785149654816784" lon="9.539922452087284"><ele>345.6666666666667</ele><time>2026-04-03T10:22:03.001Z</time></trkpt><trkpt lat="39.78525501002162" lon="9.54009503846028"><ele>347.3333333333333</ele><time>2026-04-03T10:22:04.001Z</time></trkpt><trkpt lat="39.78535534265665" lon="9.540261148535004"><ele>349.0</ele><time>2026-04-03T10:22:05.001Z</time></trkpt><trkpt lat="39.785461211088666" lon="9.540414090340253"><ele>349.0</ele><time>2026-04-03T10:22:06.001Z</time></trkpt><trkpt lat="39.785591097926016" lon="9.540530381261199"><ele>349.0</ele><time>2026-04-03T10:22:07.001Z</time></trkpt><trkpt lat="39.78573697958068" lon="9.540602286249316"><ele>349.0</ele><time>2026-04-03T10:22:08.001Z</time></trkpt><trkpt lat="39.78588700682473" lon="9.540640586723061"><ele>343.25</ele><time>2026-04-03T10:22:09.001Z</time></trkpt><trkpt lat="39.7860296607457" lon="9.540684120852466"><ele>337.5</ele><time>2026-04-03T10:22:10.001Z</time></trkpt><trkpt lat="39.786160536834075" lon="9.540763955846776"><ele>331.75</ele><time>2026-04-03T10:22:11.001Z</time></trkpt><trkpt lat="39.78626649194502" lon="9.540902111256823"><ele>326.0</ele><time>2026-04-03T10:22:12.001Z</time></trkpt><trkpt lat="39.7863432571618" lon="9.541081937235727"><ele>326.6666666666667</ele><time>2026-04-03T10:22:13.001Z</time></trkpt><trkpt lat="39.786377392825244" lon="9.541286414603759"><ele>327.3333333333333</ele><time>2026-04-03T10:22:14.001Z</time></trkpt><trkpt lat="39.78637903620644" lon="9.54148875477646"><ele>328.0</ele><time>2026-04-03T10:22:15.001Z</time></trkpt><trkpt lat="39.78634470478608" lon="9.541660253759902"><ele>328.0</ele><time>2026-04-03T10:22:16.001Z</time></trkpt><trkpt lat="39.78628709869217" lon="9.54179494105633"><ele>328.0</ele><time>2026-04-03T10:22:17.001Z</time></trkpt><trkpt lat="39.78618557995477" lon="9.541920599345662"><ele>328.0</ele><time>2026-04-03T10:22:18.001Z</time></trkpt><trkpt lat="39.78606848289319" lon="9.542063134337154"><ele>328.0</ele><time>2026-04-03T10:22:19.001Z</time></trkpt><trkpt lat="39.785955328964704" lon="9.542230805213277"><ele>330.66666666666663</ele><time>2026-04-03T10:22:20.001Z</time></trkpt><trkpt lat="39.78586993398756" lon="9.54240376592989"><ele>333.3333333333333</ele><time>2026-04-03T10:22:21.001Z</time></trkpt><trkpt lat="39.78581759502202" lon="9.542594262804085"><ele>336.0</ele><time>2026-04-03T10:22:22.001Z</time></trkpt><trkpt lat="39.78579640352546" lon="9.542787316353674"><ele>332.0</ele><time>2026-04-03T10:22:23.001Z</time></trkpt><trkpt lat="39.78580637157831" lon="9.542977499624602"><ele>328.0</ele><time>2026-04-03T10:22:24.001Z</time></trkpt><trkpt lat="39.78579896306177" lon="9.543166176221375"><ele>324.0</ele><time>2026-04-03T10:22:25.001Z</time></trkpt><trkpt lat="39.78576781692082" lon="9.543345075140964"><ele>320.0</ele><time>2026-04-03T10:22:26.001Z</time></trkpt><trkpt lat="39.78570157457909" lon="9.54350655762979"><ele>320.0</ele><time>2026-04-03T10:22:27.001Z</time></trkpt><trkpt lat="39.785566672589646" lon="9.543614853645243"><ele>320.0</ele><time>2026-04-03T10:22:28.001Z</time></trkpt><trkpt lat="39.785436704370184" lon="9.543701048173709"><ele>320.0</ele><time>2026-04-03T10:22:29.001Z</time></trkpt><trkpt lat="39.78529385897541" lon="9.543767882135603"><ele>318.0</ele><time>2026-04-03T10:22:30.001Z</time></trkpt><trkpt lat="39.785135729311286" lon="9.54383076730763"><ele>316.0</ele><time>2026-04-03T10:22:31.001Z</time></trkpt><trkpt lat="39.78498937848748" lon="9.543953343187201"><ele>314.0</ele><time>2026-04-03T10:22:32.001Z</time></trkpt><trkpt lat="39.784858057169444" lon="9.544101504921846"><ele>314.0</ele><time>2026-04-03T10:22:33.001Z</time></trkpt><trkpt lat="39.78475368222463" lon="9.54427337265756"><ele>314.0</ele><time>2026-04-03T10:22:34.001Z</time></trkpt><trkpt lat="39.78462419342603" lon="9.544430376844375"><ele>314.0</ele><time>2026-04-03T10:22:35.001Z</time></trkpt><trkpt lat="39.78453851196424" lon="9.544556247502513"><ele>317.0</ele><time>2026-04-03T10:22:36.001Z</time></trkpt><trkpt lat="39.78442030370319" lon="9.544699624132187"><ele>320.0</ele><time>2026-04-03T10:22:37.001Z</time></trkpt><trkpt lat="39.78433407169349" lon="9.544874776039432"><ele>323.0</ele><time>2026-04-03T10:22:38.001Z</time></trkpt><trkpt lat="39.784301525482604" lon="9.545081118163528"><ele>323.0</ele><time>2026-04-03T10:22:39.001Z</time></trkpt><trkpt lat="39.78430144885161" lon="9.545293721673652"><ele>323.0</ele><time>2026-04-03T10:22:40.001Z</time></trkpt><trkpt lat="39.78427328771084" lon="9.54548649454168"><ele>323.0</ele><time>2026-04-03T10:22:41.001Z</time></trkpt><trkpt lat="39.7841895290852" lon="9.54565096260647"><ele>316.0</ele><time>2026-04-03T10:22:42.001Z</time></trkpt><trkpt lat="39.784066943047" lon="9.545786874924126"><ele>309.0</ele><time>2026-04-03T10:22:43.001Z</time></trkpt><trkpt lat="39.783940728397134" lon="9.54589604675815"><ele>302.0</ele><time>2026-04-03T10:22:44.001Z</time></trkpt><trkpt lat="39.78378272148748" lon="9.545969296096391"><ele>302.0</ele><time>2026-04-03T10:22:45.001Z</time></trkpt><trkpt lat="39.783624068575705" lon="9.546006219406895"><ele>302.0</ele><time>2026-04-03T10:22:46.001Z</time></trkpt><trkpt lat="39.78346453376948" lon="9.546032252100238"><ele>302.0</ele><time>2026-04-03T10:22:47.001Z</time></trkpt><trkpt lat="39.78331852937249" lon="9.546110840431485"><ele>298.33333333333337</ele><time>2026-04-03T10:22:48.001Z</time></trkpt><trkpt lat="39.7831934921577" lon="9.546256699927444"><ele>294.6666666666667</ele><time>2026-04-03T10:22:49.001Z</time></trkpt><trkpt lat="39.783101426625684" lon="9.546453459875613"><ele>291.0</ele><time>2026-04-03T10:22:50.001Z</time></trkpt><trkpt lat="39.78302391442502" lon="9.546676875339562"><ele>291.0</ele><time>2026-04-03T10:22:51.001Z</time></trkpt><trkpt lat="39.78295951056497" lon="9.546894954292956"><ele>291.0</ele><time>2026-04-03T10:22:52.001Z</time></trkpt><trkpt lat="39.782883996641125" lon="9.547079202798471"><ele>291.0</ele><time>2026-04-03T10:22:53.001Z</time></trkpt><trkpt lat="39.78280242188182" lon="9.547306401466248"><ele>290.0</ele><time>2026-04-03T10:22:54.001Z</time></trkpt><trkpt lat="39.78272993847612" lon="9.547508630037894"><ele>289.0</ele><time>2026-04-03T10:22:55.001Z</time></trkpt><trkpt lat="39.78265844062714" lon="9.54770205883557"><ele>288.0</ele><time>2026-04-03T10:22:56.001Z</time></trkpt><trkpt lat="39.7825893253057" lon="9.547891578141947"><ele>288.0</ele><time>2026-04-03T10:22:57.001Z</time></trkpt><trkpt lat="39.782519962994755" lon="9.548073588944288"><ele>288.0</ele><time>2026-04-03T10:22:58.001Z</time></trkpt><trkpt lat="39.78245684302839" lon="9.548247587256729"><ele>288.0</ele><time>2026-04-03T10:22:59.001Z</time></trkpt><trkpt lat="39.78239757051104" lon="9.548411867432225"><ele>288.0</ele><time>2026-04-03T10:23:00.001Z</time></trkpt><trkpt lat="39.78233864345244" lon="9.548570041499849"><ele>284.25</ele><time>2026-04-03T10:23:01.001Z</time></trkpt><trkpt lat="39.78228126500134" lon="9.548725092838378"><ele>280.5</ele><time>2026-04-03T10:23:02.001Z</time></trkpt><trkpt lat="39.7822280267829" lon="9.548895273125732"><ele>276.75</ele><time>2026-04-03T10:23:03.001Z</time></trkpt><trkpt lat="39.78218910019636" lon="9.549087373902426"><ele>273.0</ele><time>2026-04-03T10:23:04.002Z</time></trkpt><trkpt lat="39.782178843629005" lon="9.549297198605252"><ele>273.0</ele><time>2026-04-03T10:23:05.002Z</time></trkpt><trkpt lat="39.782196495258574" lon="9.549509987383857"><ele>273.0</ele><time>2026-04-03T10:23:06.002Z</time></trkpt><trkpt lat="39.78221813251915" lon="9.549725410778999"><ele>273.0</ele><time>2026-04-03T10:23:07.002Z</time></trkpt><trkpt lat="39.78223240615159" lon="9.549937723231745"><ele>272.6666666666667</ele><time>2026-04-03T10:23:08.002Z</time></trkpt><trkpt lat="39.78224227237737" lon="9.55014348372106"><ele>272.33333333333337</ele><time>2026-04-03T10:23:09.002Z</time></trkpt><trkpt lat="39.78225320745647" lon="9.550340694132116"><ele>272.0</ele><time>2026-04-03T10:23:10.002Z</time></trkpt><trkpt lat="39.78226716343597" lon="9.550538362141033"><ele>271.33333333333337</ele><time>2026-04-03T10:23:11.002Z</time></trkpt><trkpt lat="39.782278426033756" lon="9.55074359555336"><ele>270.6666666666667</ele><time>2026-04-03T10:23:12.002Z</time></trkpt><trkpt lat="39.78229101587568" lon="9.550954648109617"><ele>270.0</ele><time>2026-04-03T10:23:13.002Z</time></trkpt><trkpt lat="39.78230853611078" lon="9.551175388410304"><ele>270.3333333333333</ele><time>2026-04-03T10:23:14.001Z</time></trkpt><trkpt lat="39.78232396393114" lon="9.551386245523195"><ele>270.66666666666663</ele><time>2026-04-03T10:23:15.001Z</time></trkpt><trkpt lat="39.782336012713834" lon="9.55158535605429"><ele>271.0</ele><time>2026-04-03T10:23:16.001Z</time></trkpt><trkpt lat="39.78234805507062" lon="9.551771488697312"><ele>271.0</ele><time>2026-04-03T10:23:17.001Z</time></trkpt><trkpt lat="39.78236399309009" lon="9.551951635950251"><ele>271.0</ele><time>2026-04-03T10:23:18.001Z</time></trkpt><trkpt lat="39.78238586608603" lon="9.552123247040171"><ele>271.0</ele><time>2026-04-03T10:23:19.001Z</time></trkpt><trkpt lat="39.78241387901324" lon="9.552287087318112"><ele>271.0</ele><time>2026-04-03T10:23:20.001Z</time></trkpt><trkpt lat="39.78244897138303" lon="9.55244313881161"><ele>271.2</ele><time>2026-04-03T10:23:21.001Z</time></trkpt><trkpt lat="39.78248717675615" lon="9.552577475202629"><ele>271.40000000000003</ele><time>2026-04-03T10:23:22.001Z</time></trkpt><trkpt lat="39.78252123276816" lon="9.552696384021438"><ele>271.6</ele><time>2026-04-03T10:23:23.001Z</time></trkpt><trkpt lat="39.78254352383718" lon="9.552816101196512"><ele>271.8</ele><time>2026-04-03T10:23:24.001Z</time></trkpt><trkpt lat="39.78253709454056" lon="9.552911196302631"><ele>272.0</ele><time>2026-04-03T10:23:25.001Z</time></trkpt><trkpt lat="39.78248837495211" lon="9.553045482185677"><ele>274.0</ele><time>2026-04-03T10:23:27.001Z</time></trkpt><trkpt lat="39.7823873819902" lon="9.553178719344524"><ele>276.0</ele><time>2026-04-03T10:23:29.001Z</time></trkpt><trkpt lat="39.782334162039966" lon="9.553258891700883"><ele>278.0</ele><time>2026-04-03T10:23:30.001Z</time></trkpt><trkpt lat="39.782273901926885" lon="9.553344305092146"><ele>280.0</ele><time>2026-04-03T10:23:31.001Z</time></trkpt><trkpt lat="39.78219941623649" lon="9.553441871117307"><ele>282.0</ele><time>2026-04-03T10:23:32.001Z</time></trkpt><trkpt lat="39.78211220586973" lon="9.55354100544514"><ele>282.0</ele><time>2026-04-03T10:23:33.001Z</time></trkpt><trkpt lat="39.78199519835577" lon="9.553637943852744"><ele>282.0</ele><time>2026-04-03T10:23:34.001Z</time></trkpt><trkpt lat="39.78186317095706" lon="9.553745718296723"><ele>282.0</ele><time>2026-04-03T10:23:35.001Z</time></trkpt><trkpt lat="39.78171380890122" lon="9.553867020995273"><ele>279.0</ele><time>2026-04-03T10:23:36.001Z</time></trkpt><trkpt lat="39.78156746312012" lon="9.554000527307204"><ele>276.0</ele><time>2026-04-03T10:23:37.001Z</time></trkpt><trkpt lat="39.781408131733535" lon="9.554124566116522"><ele>273.0</ele><time>2026-04-03T10:23:38.001Z</time></trkpt><trkpt lat="39.781247195670694" lon="9.554262117082544"><ele>273.0</ele><time>2026-04-03T10:23:39.001Z</time></trkpt><trkpt lat="39.78108634947815" lon="9.554398724439297"><ele>273.0</ele><time>2026-04-03T10:23:40.001Z</time></trkpt><trkpt lat="39.78092215636107" lon="9.554530496312518"><ele>273.0</ele><time>2026-04-03T10:23:41.001Z</time></trkpt><trkpt lat="39.78075382569609" lon="9.554662762970697"><ele>271.6666666666667</ele><time>2026-04-03T10:23:42.001Z</time></trkpt><trkpt lat="39.78058327518801" lon="9.554788907390446"><ele>270.33333333333337</ele><time>2026-04-03T10:23:43.001Z</time></trkpt><trkpt lat="39.78041674403005" lon="9.554919389742468"><ele>269.0</ele><time>2026-04-03T10:23:44.001Z</time></trkpt><trkpt lat="39.780254817178985" lon="9.555050870084889"><ele>268.0</ele><time>2026-04-03T10:23:45.001Z</time></trkpt><trkpt lat="39.780102286016415" lon="9.555183563174616"><ele>267.0</ele><time>2026-04-03T10:23:46.001Z</time></trkpt><trkpt lat="39.7799551323333" lon="9.555331388826716"><ele>266.0</ele><time>2026-04-03T10:23:47.001Z</time></trkpt><trkpt lat="39.77980825440874" lon="9.555486034652438"><ele>266.0</ele><time>2026-04-03T10:23:48.001Z</time></trkpt><trkpt lat="39.779655036718715" lon="9.555625553149268"><ele>266.0</ele><time>2026-04-03T10:23:49.001Z</time></trkpt><trkpt lat="39.779500425832815" lon="9.555764448177193"><ele>266.0</ele><time>2026-04-03T10:23:50.001Z</time></trkpt><trkpt lat="39.779352356562214" lon="9.555908680978723"><ele>263.6666666666667</ele><time>2026-04-03T10:23:51.001Z</time></trkpt><trkpt lat="39.77922363039978" lon="9.556085363517926"><ele>261.3333333333333</ele><time>2026-04-03T10:23:52.001Z</time></trkpt><trkpt lat="39.77909634515337" lon="9.556259208248614"><ele>259.0</ele><time>2026-04-03T10:23:53.001Z</time></trkpt><trkpt lat="39.77892932619977" lon="9.55634200951274"><ele>259.0</ele><time>2026-04-03T10:23:54.001Z</time></trkpt><trkpt lat="39.77875512595694" lon="9.556440008158305"><ele>259.0</ele><time>2026-04-03T10:23:55.001Z</time></trkpt><trkpt lat="39.77858651575616" lon="9.556533940085474"><ele>259.0</ele><time>2026-04-03T10:23:56.001Z</time></trkpt><trkpt lat="39.77841667607641" lon="9.556596929066682"><ele>254.0</ele><time>2026-04-03T10:23:57.001Z</time></trkpt><trkpt lat="39.77825835796207" lon="9.556640912105392"><ele>249.0</ele><time>2026-04-03T10:23:58.001Z</time></trkpt><trkpt lat="39.778107271757385" lon="9.556680503289751"><ele>244.0</ele><time>2026-04-03T10:23:59.001Z</time></trkpt><trkpt lat="39.7779705550462" lon="9.556767795418654"><ele>244.0</ele><time>2026-04-03T10:24:00.001Z</time></trkpt><trkpt lat="39.77785839065777" lon="9.556899379698429"><ele>244.0</ele><time>2026-04-03T10:24:01.001Z</time></trkpt><trkpt lat="39.777738350612346" lon="9.557042408685165"><ele>244.0</ele><time>2026-04-03T10:24:02.001Z</time></trkpt><trkpt lat="39.77760478320506" lon="9.55714625143974"><ele>242.33333333333331</ele><time>2026-04-03T10:24:03.001Z</time></trkpt><trkpt lat="39.77744374421035" lon="9.557172604804371"><ele>240.66666666666669</ele><time>2026-04-03T10:24:04.001Z</time></trkpt><trkpt lat="39.77728003905466" lon="9.55722905790038"><ele>239.0</ele><time>2026-04-03T10:24:05.001Z</time></trkpt><trkpt lat="39.77710748805545" lon="9.557263772182237"><ele>239.0</ele><time>2026-04-03T10:24:06.001Z</time></trkpt><trkpt lat="39.77693234726387" lon="9.557302124560092"><ele>239.0</ele><time>2026-04-03T10:24:07.001Z</time></trkpt><trkpt lat="39.776758825537875" lon="9.557346606288627"><ele>239.0</ele><time>2026-04-03T10:24:08.001Z</time></trkpt><trkpt lat="39.77658806472341" lon="9.557397059721078"><ele>236.0</ele><time>2026-04-03T10:24:09.001Z</time></trkpt><trkpt lat="39.77642452459184" lon="9.557476791543523"><ele>233.0</ele><time>2026-04-03T10:24:10.001Z</time></trkpt><trkpt lat="39.77627327389637" lon="9.557592499374568"><ele>230.0</ele><time>2026-04-03T10:24:11.001Z</time></trkpt><trkpt lat="39.77613754350755" lon="9.557741387737009"><ele>231.0</ele><time>2026-04-03T10:24:12.001Z</time></trkpt><trkpt lat="39.77602584027826" lon="9.557914064696398"><ele>232.0</ele><time>2026-04-03T10:24:13.001Z</time></trkpt><trkpt lat="39.77594098349275" lon="9.558110664979964"><ele>233.0</ele><time>2026-04-03T10:24:14.001Z</time></trkpt><trkpt lat="39.77585856400074" lon="9.55830183192843"><ele>229.0</ele><time>2026-04-03T10:24:15.001Z</time></trkpt><trkpt lat="39.77572827108436" lon="9.55844738776984"><ele>225.0</ele><time>2026-04-03T10:24:16.001Z</time></trkpt><trkpt lat="39.775584551015584" lon="9.55858231116449"><ele>221.0</ele><time>2026-04-03T10:24:17Z</time></trkpt><trkpt lat="39.775443965485266" lon="9.558725810524125"><ele>219.66666666666669</ele><time>2026-04-03T10:24:18Z</time></trkpt><trkpt lat="39.7752847700244" lon="9.55879035396584"><ele>218.33333333333331</ele><time>2026-04-03T10:24:19Z</time></trkpt><trkpt lat="39.775118741703" lon="9.558815442687775"><ele>217.0</ele><time>2026-04-03T10:24:20Z</time></trkpt><trkpt lat="39.77493934028906" lon="9.558846919532467"><ele>215.33333333333331</ele><time>2026-04-03T10:24:21Z</time></trkpt><trkpt lat="39.77475061564939" lon="9.55884296939513"><ele>213.66666666666669</ele><time>2026-04-03T10:24:22Z</time></trkpt><trkpt lat="39.77455868819795" lon="9.558868647652988"><ele>212.0</ele><time>2026-04-03T10:24:23Z</time></trkpt><trkpt lat="39.774344644155796" lon="9.558896504425148"><ele>211.33333333333334</ele><time>2026-04-03T10:24:24Z</time></trkpt><trkpt lat="39.774152137077124" lon="9.558917491266214"><ele>210.66666666666669</ele><time>2026-04-03T10:24:25Z</time></trkpt><trkpt lat="39.77394831305966" lon="9.558934430544664"><ele>210.0</ele><time>2026-04-03T10:24:26Z</time></trkpt><trkpt lat="39.77375847371831" lon="9.558955020218757"><ele>210.0</ele><time>2026-04-03T10:24:27Z</time></trkpt><trkpt lat="39.77356744861195" lon="9.558979172636045"><ele>210.0</ele><time>2026-04-03T10:24:28Z</time></trkpt><trkpt lat="39.77337754609806" lon="9.559005561060244"><ele>210.0</ele><time>2026-04-03T10:24:29Z</time></trkpt><trkpt lat="39.773189068127095" lon="9.559041690805017"><ele>209.66666666666669</ele><time>2026-04-03T10:24:30Z</time></trkpt><trkpt lat="39.77300806394368" lon="9.55910702105315"><ele>209.33333333333334</ele><time>2026-04-03T10:24:31Z</time></trkpt><trkpt lat="39.772833390219745" lon="9.55920568486223"><ele>209.0</ele><time>2026-04-03T10:24:32Z</time></trkpt><trkpt lat="39.772661160989735" lon="9.559315877982941"><ele>209.0</ele><time>2026-04-03T10:24:33Z</time></trkpt><trkpt lat="39.772488042811155" lon="9.559426902682015"><ele>209.0</ele><time>2026-04-03T10:24:34Z</time></trkpt><trkpt lat="39.77231102871069" lon="9.559532417702188"><ele>209.0</ele><time>2026-04-03T10:24:35Z</time></trkpt><trkpt lat="39.772132828171614" lon="9.559635061584048"><ele>208.0</ele><time>2026-04-03T10:24:36Z</time></trkpt><trkpt lat="39.77195495169201" lon="9.55974326347281"><ele>207.0</ele><time>2026-04-03T10:24:37Z</time></trkpt><trkpt lat="39.77177817189328" lon="9.55984413091597"><ele>206.0</ele><time>2026-04-03T10:24:38Z</time></trkpt><trkpt lat="39.771601405009086" lon="9.559946468682032"><ele>206.0</ele><time>2026-04-03T10:24:39Z</time></trkpt><trkpt lat="39.771431646872706" lon="9.560051614401223"><ele>206.0</ele><time>2026-04-03T10:24:40Z</time></trkpt><trkpt lat="39.771253298330464" lon="9.560150466154523"><ele>206.0</ele><time>2026-04-03T10:24:41Z</time></trkpt><trkpt lat="39.771078951535976" lon="9.560253625511884"><ele>207.0</ele><time>2026-04-03T10:24:42Z</time></trkpt><trkpt lat="39.77090180243097" lon="9.560362272900665"><ele>208.0</ele><time>2026-04-03T10:24:43Z</time></trkpt><trkpt lat="39.77072236959565" lon="9.5604713324578"><ele>209.0</ele><time>2026-04-03T10:24:44Z</time></trkpt><trkpt lat="39.770542086137304" lon="9.5605748157515"><ele>206.33333333333334</ele><time>2026-04-03T10:24:45Z</time></trkpt><trkpt lat="39.77036220864556" lon="9.560682240213053"><ele>203.66666666666669</ele><time>2026-04-03T10:24:46Z</time></trkpt><trkpt lat="39.77018028353953" lon="9.560777430440938"><ele>201.0</ele><time>2026-04-03T10:24:47Z</time></trkpt><trkpt lat="39.77000076601422" lon="9.560881817247207"><ele>201.0</ele><time>2026-04-03T10:24:48Z</time></trkpt><trkpt lat="39.7698213331451" lon="9.56098701288427"><ele>201.0</ele><time>2026-04-03T10:24:49Z</time></trkpt><trkpt lat="39.76964065774263" lon="9.561094737861326"><ele>201.0</ele><time>2026-04-03T10:24:50Z</time></trkpt><trkpt lat="39.76945908624601" lon="9.561202535770095"><ele>199.66666666666669</ele><time>2026-04-03T10:24:51Z</time></trkpt><trkpt lat="39.76927711105493" lon="9.561308370458374"><ele>198.33333333333334</ele><time>2026-04-03T10:24:52Z</time></trkpt><trkpt lat="39.76909663646997" lon="9.561413211940385"><ele>197.0</ele><time>2026-04-03T10:24:53Z</time></trkpt><trkpt lat="39.76891791933325" lon="9.561518085125902"><ele>197.0</ele><time>2026-04-03T10:24:54Z</time></trkpt><trkpt lat="39.76874101826767" lon="9.561624591782731"><ele>197.0</ele><time>2026-04-03T10:24:55Z</time></trkpt><trkpt lat="39.768568175983546" lon="9.561727434459053"><ele>197.0</ele><time>2026-04-03T10:24:56Z</time></trkpt><trkpt lat="39.76839837546146" lon="9.561833422349327"><ele>197.66666666666669</ele><time>2026-04-03T10:24:57Z</time></trkpt><trkpt lat="39.76823253330073" lon="9.561954771339055"><ele>198.33333333333331</ele><time>2026-04-03T10:24:58Z</time></trkpt><trkpt lat="39.7680586920101" lon="9.56209443077743"><ele>199.0</ele><time>2026-04-03T10:24:59Z</time></trkpt><trkpt lat="39.76788658532153" lon="9.562228124097947"><ele>197.33333333333331</ele><time>2026-04-03T10:25:00Z</time></trkpt><trkpt lat="39.76771963189344" lon="9.562352309549539"><ele>195.66666666666669</ele><time>2026-04-03T10:25:01Z</time></trkpt><trkpt lat="39.767561107945156" lon="9.562464939750999"><ele>194.0</ele><time>2026-04-03T10:25:02Z</time></trkpt><trkpt lat="39.7674199176903" lon="9.562573676647302"><ele>194.0</ele><time>2026-04-03T10:25:03Z</time></trkpt><trkpt lat="39.76728361745401" lon="9.56267603928612"><ele>194.0</ele><time>2026-04-03T10:25:04Z</time></trkpt><trkpt lat="39.76715498369961" lon="9.562764117219375"><ele>194.0</ele><time>2026-04-03T10:25:05Z</time></trkpt><trkpt lat="39.76703541425747" lon="9.562846086863702"><ele>194.0</ele><time>2026-04-03T10:25:06Z</time></trkpt><trkpt lat="39.76692056412045" lon="9.562938232225237"><ele>193.5</ele><time>2026-04-03T10:25:07Z</time></trkpt><trkpt lat="39.766805545352206" lon="9.563029957988281"><ele>193.0</ele><time>2026-04-03T10:25:08Z</time></trkpt><trkpt lat="39.76668658436903" lon="9.563124723463204"><ele>192.5</ele><time>2026-04-03T10:25:09Z</time></trkpt><trkpt lat="39.7665639156582" lon="9.56321993126012"><ele>192.0</ele><time>2026-04-03T10:25:10.001Z</time></trkpt><trkpt lat="39.76643831615523" lon="9.563316934971647"><ele>192.0</ele><time>2026-04-03T10:25:11.001Z</time></trkpt><trkpt lat="39.76630757919924" lon="9.563412011583122"><ele>192.0</ele><time>2026-04-03T10:25:12.001Z</time></trkpt><trkpt lat="39.7661734017836" lon="9.56350998605451"><ele>192.0</ele><time>2026-04-03T10:25:13.001Z</time></trkpt><trkpt lat="39.766032461024814" lon="9.563608241217562"><ele>190.66666666666666</ele><time>2026-04-03T10:25:14.001Z</time></trkpt><trkpt lat="39.76588273661241" lon="9.56370773085492"><ele>189.33333333333331</ele><time>2026-04-03T10:25:15.001Z</time></trkpt><trkpt lat="39.76572412547845" lon="9.563804492801921"><ele>188.0</ele><time>2026-04-03T10:25:16.001Z</time></trkpt><trkpt lat="39.76555486395067" lon="9.563893768574529"><ele>188.0</ele><time>2026-04-03T10:25:17.001Z</time></trkpt><trkpt lat="39.76537605078575" lon="9.563986138755304"><ele>188.0</ele><time>2026-04-03T10:25:18.001Z</time></trkpt><trkpt lat="39.76519896259578" lon="9.564083775667452"><ele>188.0</ele><time>2026-04-03T10:25:19.001Z</time></trkpt><trkpt lat="39.765020785453444" lon="9.564181225932437"><ele>188.66666666666666</ele><time>2026-04-03T10:25:20.001Z</time></trkpt><trkpt lat="39.76484128703848" lon="9.56426846979947"><ele>189.33333333333334</ele><time>2026-04-03T10:25:21.001Z</time></trkpt><trkpt lat="39.764667522500794" lon="9.564363053092208"><ele>190.0</ele><time>2026-04-03T10:25:22.001Z</time></trkpt><trkpt lat="39.76449564471924" lon="9.564465668075957"><ele>189.0</ele><time>2026-04-03T10:25:23.001Z</time></trkpt><trkpt lat="39.76432884616588" lon="9.56461757067583"><ele>188.0</ele><time>2026-04-03T10:25:24.001Z</time></trkpt><trkpt lat="39.764174005853775" lon="9.564824387907477"><ele>187.0</ele><time>2026-04-03T10:25:25.001Z</time></trkpt><trkpt lat="39.7640313005234" lon="9.56502479204254"><ele>187.0</ele><time>2026-04-03T10:25:26.001Z</time></trkpt><trkpt lat="39.763892117866334" lon="9.565227679076253"><ele>187.0</ele><time>2026-04-03T10:25:27.001Z</time></trkpt><trkpt lat="39.76374362783259" lon="9.565441184896747"><ele>187.0</ele><time>2026-04-03T10:25:28.001Z</time></trkpt><trkpt lat="39.76366446015742" lon="9.565553922668288"><ele>186.33333333333334</ele><time>2026-04-03T10:25:29.001Z</time></trkpt><trkpt lat="39.7635354209851" lon="9.565722204197188"><ele>185.66666666666666</ele><time>2026-04-03T10:25:30.001Z</time></trkpt><trkpt lat="39.76339154172473" lon="9.565881193198106"><ele>185.0</ele><time>2026-04-03T10:25:31.001Z</time></trkpt><trkpt lat="39.763243082983706" lon="9.566047763280876"><ele>184.66666666666666</ele><time>2026-04-03T10:25:32.001Z</time></trkpt><trkpt lat="39.76306480674263" lon="9.566170007958801"><ele>184.33333333333334</ele><time>2026-04-03T10:25:33.001Z</time></trkpt><trkpt lat="39.76288496718836" lon="9.566290319148393"><ele>184.0</ele><time>2026-04-03T10:25:34.001Z</time></trkpt><trkpt lat="39.76270376449494" lon="9.56641208249229"><ele>183.0</ele><time>2026-04-03T10:25:35.001Z</time></trkpt><trkpt lat="39.762520291512175" lon="9.566536198422643"><ele>182.0</ele><time>2026-04-03T10:25:36.001Z</time></trkpt><trkpt lat="39.76233440674894" lon="9.5666565552398"><ele>181.0</ele><time>2026-04-03T10:25:37Z</time></trkpt><trkpt lat="39.76214959485506" lon="9.566771947424947"><ele>181.0</ele><time>2026-04-03T10:25:38Z</time></trkpt><trkpt lat="39.761960602556854" lon="9.566887333430953"><ele>181.0</ele><time>2026-04-03T10:25:39Z</time></trkpt><trkpt lat="39.76177385300453" lon="9.567005896205599"><ele>181.0</ele><time>2026-04-03T10:25:40Z</time></trkpt><trkpt lat="39.76158732781646" lon="9.567128404632976"><ele>180.33333333333334</ele><time>2026-04-03T10:25:41Z</time></trkpt><trkpt lat="39.761412163037505" lon="9.567251436403668"><ele>179.66666666666666</ele><time>2026-04-03T10:25:42Z</time></trkpt><trkpt lat="39.7612462700056" lon="9.567381153321133"><ele>179.0</ele><time>2026-04-03T10:25:43Z</time></trkpt><trkpt lat="39.76109911575785" lon="9.567542505831133"><ele>179.33333333333331</ele><time>2026-04-03T10:25:44Z</time></trkpt><trkpt lat="39.76098249261159" lon="9.567738995352546"><ele>179.66666666666666</ele><time>2026-04-03T10:25:45Z</time></trkpt><trkpt lat="39.76089014144043" lon="9.567947995329716"><ele>180.0</ele><time>2026-04-03T10:25:46Z</time></trkpt><trkpt lat="39.76077319294911" lon="9.568130633932098"><ele>180.0</ele><time>2026-04-03T10:25:47Z</time></trkpt><trkpt lat="39.76066997932671" lon="9.568329525630196"><ele>180.0</ele><time>2026-04-03T10:25:48Z</time></trkpt><trkpt lat="39.760523576018954" lon="9.568488129292906"><ele>180.0</ele><time>2026-04-03T10:25:49Z</time></trkpt><trkpt lat="39.76034992064493" lon="9.568601031276602"><ele>178.33333333333334</ele><time>2026-04-03T10:25:50Z</time></trkpt><trkpt lat="39.76015891438525" lon="9.568669913399717"><ele>176.66666666666669</ele><time>2026-04-03T10:25:51Z</time></trkpt><trkpt lat="39.759964773372886" lon="9.568712818172392"><ele>175.0</ele><time>2026-04-03T10:25:52Z</time></trkpt><trkpt lat="39.759769031155024" lon="9.568753429520575"><ele>175.0</ele><time>2026-04-03T10:25:53Z</time></trkpt><trkpt lat="39.7595784361454" lon="9.568808646190758"><ele>175.0</ele><time>2026-04-03T10:25:54Z</time></trkpt><trkpt lat="39.75939361263248" lon="9.568887137125722"><ele>175.0</ele><time>2026-04-03T10:25:55Z</time></trkpt><trkpt lat="39.75920448583567" lon="9.568984910326053"><ele>175.33333333333334</ele><time>2026-04-03T10:25:56Z</time></trkpt><trkpt lat="39.75902187724636" lon="9.569102492907211"><ele>175.66666666666666</ele><time>2026-04-03T10:25:57Z</time></trkpt><trkpt lat="39.75883456005846" lon="9.56920274835146"><ele>176.0</ele><time>2026-04-03T10:25:58Z</time></trkpt><trkpt lat="39.75865396658619" lon="9.56931299247365"><ele>176.66666666666666</ele><time>2026-04-03T10:25:59Z</time></trkpt><trkpt lat="39.75849472543049" lon="9.56947137913334"><ele>177.33333333333334</ele><time>2026-04-03T10:26:00Z</time></trkpt><trkpt lat="39.75832440779743" lon="9.569596718228096"><ele>178.0</ele><time>2026-04-03T10:26:01Z</time></trkpt><trkpt lat="39.75816337834938" lon="9.569720319077321"><ele>177.66666666666669</ele><time>2026-04-03T10:26:02Z</time></trkpt><trkpt lat="39.75800266017745" lon="9.569828973928727"><ele>177.33333333333334</ele><time>2026-04-03T10:26:03Z</time></trkpt><trkpt lat="39.7578384508484" lon="9.569913620806872"><ele>177.0</ele><time>2026-04-03T10:26:04Z</time></trkpt><trkpt lat="39.75766214077913" lon="9.569989488179724"><ele>177.0</ele><time>2026-04-03T10:26:05Z</time></trkpt><trkpt lat="39.75748829292554" lon="9.57006682676119"><ele>177.0</ele><time>2026-04-03T10:26:06Z</time></trkpt><trkpt lat="39.75731226371586" lon="9.570161308312354"><ele>177.0</ele><time>2026-04-03T10:26:07Z</time></trkpt><trkpt lat="39.757134949230476" lon="9.570271116240725"><ele>175.0</ele><time>2026-04-03T10:26:08Z</time></trkpt><trkpt lat="39.75695878348262" lon="9.570398990954269"><ele>173.0</ele><time>2026-04-03T10:26:09Z</time></trkpt><trkpt lat="39.75677585983806" lon="9.570546373755345"><ele>171.0</ele><time>2026-04-03T10:26:10Z</time></trkpt><trkpt lat="39.75660770957591" lon="9.570685360142777"><ele>171.0</ele><time>2026-04-03T10:26:11Z</time></trkpt><trkpt lat="39.75642931156992" lon="9.570811133751636"><ele>171.0</ele><time>2026-04-03T10:26:12Z</time></trkpt><trkpt lat="39.756244024674764" lon="9.570925424319118"><ele>171.0</ele><time>2026-04-03T10:26:13Z</time></trkpt><trkpt lat="39.75605724718023" lon="9.571029479240144"><ele>170.33333333333334</ele><time>2026-04-03T10:26:14Z</time></trkpt><trkpt lat="39.755870185393874" lon="9.571126611713954"><ele>169.66666666666669</ele><time>2026-04-03T10:26:15Z</time></trkpt><trkpt lat="39.75568509540079" lon="9.571219394356728"><ele>169.0</ele><time>2026-04-03T10:26:16Z</time></trkpt><trkpt lat="39.7555054554663" lon="9.571322855987038"><ele>169.0</ele><time>2026-04-03T10:26:17Z</time></trkpt><trkpt lat="39.75532834356442" lon="9.571432702624461"><ele>169.0</ele><time>2026-04-03T10:26:18Z</time></trkpt><trkpt lat="39.75515387787781" lon="9.571545903385706"><ele>169.0</ele><time>2026-04-03T10:26:19Z</time></trkpt><trkpt lat="39.754981719883936" lon="9.57166006159196"><ele>170.0</ele><time>2026-04-03T10:26:20Z</time></trkpt><trkpt lat="39.75480841236321" lon="9.571773091110195"><ele>171.0</ele><time>2026-04-03T10:26:21Z</time></trkpt><trkpt lat="39.75464070351039" lon="9.571882316197199"><ele>172.0</ele><time>2026-04-03T10:26:22Z</time></trkpt><trkpt lat="39.75448268058592" lon="9.571984718206487"><ele>170.33333333333334</ele><time>2026-04-03T10:26:23Z</time></trkpt><trkpt lat="39.75432889641803" lon="9.57208453641121"><ele>168.66666666666666</ele><time>2026-04-03T10:26:24Z</time></trkpt><trkpt lat="39.754180668269264" lon="9.572193244005458"><ele>167.0</ele><time>2026-04-03T10:26:25Z</time></trkpt><trkpt lat="39.75403349267113" lon="9.572314644525857"><ele>167.0</ele><time>2026-04-03T10:26:26Z</time></trkpt><trkpt lat="39.75388571699885" lon="9.572434956276922"><ele>167.0</ele><time>2026-04-03T10:26:27Z</time></trkpt><trkpt lat="39.753727719890136" lon="9.572547407217321"><ele>167.0</ele><time>2026-04-03T10:26:28Z</time></trkpt><trkpt lat="39.753560541284074" lon="9.572641631775683"><ele>167.66666666666666</ele><time>2026-04-03T10:26:29Z</time></trkpt><trkpt lat="39.75338564663036" lon="9.57273440805053"><ele>168.33333333333334</ele><time>2026-04-03T10:26:30Z</time></trkpt><trkpt lat="39.75321038434085" lon="9.5728334667083"><ele>169.0</ele><time>2026-04-03T10:26:31Z</time></trkpt><trkpt lat="39.75303304057872" lon="9.572934356914606"><ele>167.33333333333334</ele><time>2026-04-03T10:26:32Z</time></trkpt><trkpt lat="39.75285271541656" lon="9.57303649577956"><ele>165.66666666666666</ele><time>2026-04-03T10:26:33Z</time></trkpt><trkpt lat="39.75267071034985" lon="9.573142265063453"><ele>164.0</ele><time>2026-04-03T10:26:34Z</time></trkpt><trkpt lat="39.752488653102105" lon="9.573247740013999"><ele>164.0</ele><time>2026-04-03T10:26:35Z</time></trkpt><trkpt lat="39.752305093933174" lon="9.573350049688642"><ele>164.0</ele><time>2026-04-03T10:26:36Z</time></trkpt><trkpt lat="39.752121427427355" lon="9.573452894911927"><ele>164.0</ele><time>2026-04-03T10:26:37Z</time></trkpt><trkpt lat="39.75193386809544" lon="9.573555771250334"><ele>164.0</ele><time>2026-04-03T10:26:38Z</time></trkpt><trkpt lat="39.751745295611634" lon="9.573660131964234"><ele>164.0</ele><time>2026-04-03T10:26:39Z</time></trkpt><trkpt lat="39.75155771650995" lon="9.573769721502336"><ele>164.0</ele><time>2026-04-03T10:26:40Z</time></trkpt><trkpt lat="39.75137083029136" lon="9.573878679381682"><ele>164.0</ele><time>2026-04-03T10:26:41Z</time></trkpt><trkpt lat="39.75118458017977" lon="9.573985562081733"><ele>164.0</ele><time>2026-04-03T10:26:42Z</time></trkpt><trkpt lat="39.75099568731921" lon="9.574091624848021"><ele>164.0</ele><time>2026-04-03T10:26:43Z</time></trkpt><trkpt lat="39.750806008554385" lon="9.574196458551567"><ele>163.66666666666666</ele><time>2026-04-03T10:26:44Z</time></trkpt><trkpt lat="39.75061394813939" lon="9.574300075986473"><ele>163.33333333333334</ele><time>2026-04-03T10:26:45Z</time></trkpt><trkpt lat="39.7504144258178" lon="9.574408188008425"><ele>163.0</ele><time>2026-04-03T10:26:46Z</time></trkpt><trkpt lat="39.750227364048406" lon="9.574517046450508"><ele>162.33333333333334</ele><time>2026-04-03T10:26:47Z</time></trkpt><trkpt lat="39.7500485804187" lon="9.574621138684643"><ele>161.66666666666666</ele><time>2026-04-03T10:26:48Z</time></trkpt><trkpt lat="39.74987163048853" lon="9.574717502465862"><ele>161.0</ele><time>2026-04-03T10:26:49Z</time></trkpt><trkpt lat="39.7496914591193" lon="9.574798740189724"><ele>161.0</ele><time>2026-04-03T10:26:50Z</time></trkpt><trkpt lat="39.74950390277795" lon="9.574851687735334"><ele>161.0</ele><time>2026-04-03T10:26:51Z</time></trkpt><trkpt lat="39.74931115142869" lon="9.574887732223358"><ele>161.0</ele><time>2026-04-03T10:26:52Z</time></trkpt><trkpt lat="39.749127020126565" lon="9.574904501612856"><ele>161.33333333333331</ele><time>2026-04-03T10:26:53Z</time></trkpt><trkpt lat="39.74895589980328" lon="9.574917468223584"><ele>161.66666666666666</ele><time>2026-04-03T10:26:54Z</time></trkpt><trkpt lat="39.74879805533806" lon="9.574941977398998"><ele>162.0</ele><time>2026-04-03T10:26:55Z</time></trkpt><trkpt lat="39.74863944768399" lon="9.574972287518388"><ele>161.33333333333334</ele><time>2026-04-03T10:26:56Z</time></trkpt><trkpt lat="39.748480334294015" lon="9.57498895642214"><ele>160.66666666666669</ele><time>2026-04-03T10:26:57Z</time></trkpt><trkpt lat="39.748324084465075" lon="9.575031749955585"><ele>160.0</ele><time>2026-04-03T10:26:58Z</time></trkpt><trkpt lat="39.748171594604955" lon="9.57511489638281"><ele>160.0</ele><time>2026-04-03T10:26:59Z</time></trkpt><trkpt lat="39.748017863350675" lon="9.575186134452297"><ele>160.0</ele><time>2026-04-03T10:27:00Z</time></trkpt><trkpt lat="39.7478541140412" lon="9.575227823083377"><ele>160.0</ele><time>2026-04-03T10:27:01Z</time></trkpt><trkpt lat="39.74769153037754" lon="9.575255062324452"><ele>159.33333333333334</ele><time>2026-04-03T10:27:02Z</time></trkpt><trkpt lat="39.74751747653955" lon="9.575262273040968"><ele>158.66666666666666</ele><time>2026-04-03T10:27:03Z</time></trkpt><trkpt lat="39.74734199613706" lon="9.575309267355978"><ele>158.0</ele><time>2026-04-03T10:27:04Z</time></trkpt><trkpt lat="39.747166487506874" lon="9.575379615920582"><ele>157.33333333333331</ele><time>2026-04-03T10:27:05Z</time></trkpt><trkpt lat="39.74699034580036" lon="9.575452828729661"><ele>156.66666666666666</ele><time>2026-04-03T10:27:06Z</time></trkpt><trkpt lat="39.74681371390166" lon="9.575527287078986"><ele>156.0</ele><time>2026-04-03T10:27:07Z</time></trkpt><trkpt lat="39.74663400747917" lon="9.575601862958791"><ele>156.0</ele><time>2026-04-03T10:27:08Z</time></trkpt><trkpt lat="39.7464544979564" lon="9.575672702098299"><ele>156.0</ele><time>2026-04-03T10:27:09Z</time></trkpt><trkpt lat="39.74627551181506" lon="9.57574220705053"><ele>156.0</ele><time>2026-04-03T10:27:10Z</time></trkpt><trkpt lat="39.746097748321134" lon="9.575817669009899"><ele>158.66666666666666</ele><time>2026-04-03T10:27:11Z</time></trkpt><trkpt lat="39.745924159324765" lon="9.575895269462192"><ele>161.33333333333331</ele><time>2026-04-03T10:27:12Z</time></trkpt><trkpt lat="39.745754437025894" lon="9.575969731940017"><ele>164.0</ele><time>2026-04-03T10:27:13Z</time></trkpt><trkpt lat="39.74558567669759" lon="9.57604503634343"><ele>164.0</ele><time>2026-04-03T10:27:14Z</time></trkpt><trkpt lat="39.74541559773302" lon="9.576118371901767"><ele>164.0</ele><time>2026-04-03T10:27:15Z</time></trkpt><trkpt lat="39.74524483887867" lon="9.576190895258872"><ele>164.0</ele><time>2026-04-03T10:27:16Z</time></trkpt><trkpt lat="39.745081255301166" lon="9.576249986110412"><ele>160.33333333333331</ele><time>2026-04-03T10:27:17Z</time></trkpt><trkpt lat="39.7449152004459" lon="9.576287744222329"><ele>156.66666666666666</ele><time>2026-04-03T10:27:18Z</time></trkpt><trkpt lat="39.74474238981185" lon="9.576299366637311"><ele>153.0</ele><time>2026-04-03T10:27:19Z</time></trkpt><trkpt lat="39.74456549145061" lon="9.576288667073923"><ele>153.0</ele><time>2026-04-03T10:27:20Z</time></trkpt><trkpt lat="39.74438193745977" lon="9.57625930892883"><ele>153.0</ele><time>2026-04-03T10:27:21Z</time></trkpt><trkpt lat="39.74420200176864" lon="9.576232340998232"><ele>153.0</ele><time>2026-04-03T10:27:22Z</time></trkpt><trkpt lat="39.74402898415914" lon="9.576229255453546"><ele>153.0</ele><time>2026-04-03T10:27:23Z</time></trkpt><trkpt lat="39.74386545959446" lon="9.576229449684567"><ele>153.0</ele><time>2026-04-03T10:27:24Z</time></trkpt><trkpt lat="39.74370803734812" lon="9.576205922877133"><ele>153.0</ele><time>2026-04-03T10:27:25Z</time></trkpt><trkpt lat="39.743552071285414" lon="9.576152445029324"><ele>153.0</ele><time>2026-04-03T10:27:26Z</time></trkpt><trkpt lat="39.74340134152276" lon="9.576069617520972"><ele>153.0</ele><time>2026-04-03T10:27:27Z</time></trkpt><trkpt lat="39.7432579397118" lon="9.575968302728564"><ele>153.0</ele><time>2026-04-03T10:27:28Z</time></trkpt><trkpt lat="39.743115527097736" lon="9.575862773402257"><ele>153.0</ele><time>2026-04-03T10:27:29Z</time></trkpt><trkpt lat="39.742982252385616" lon="9.575763061903821"><ele>153.0</ele><time>2026-04-03T10:27:30Z</time></trkpt><trkpt lat="39.74286661239425" lon="9.575649677440557"><ele>153.0</ele><time>2026-04-03T10:27:31Z</time></trkpt><trkpt lat="39.74274271429693" lon="9.575642873093532"><ele>153.0</ele><time>2026-04-03T10:27:32Z</time></trkpt><trkpt lat="39.7426552865755" lon="9.575597661509574"><ele>152.5</ele><time>2026-04-03T10:27:33Z</time></trkpt><trkpt lat="39.74257437238683" lon="9.57555450621867"><ele>152.0</ele><time>2026-04-03T10:27:34Z</time></trkpt><trkpt lat="39.742501413254224" lon="9.575498630298227"><ele>151.5</ele><time>2026-04-03T10:27:35Z</time></trkpt><trkpt lat="39.74244085149303" lon="9.575458812972409"><ele>151.0</ele><time>2026-04-03T10:27:36Z</time></trkpt><trkpt lat="39.7423480886936" lon="9.575773406954593"><ele>151.0</ele><time>2026-04-03T10:27:39Z</time></trkpt><trkpt lat="39.74234030459071" lon="9.575877043806948"><ele>151.0</ele><time>2026-04-03T10:27:40Z</time></trkpt><trkpt lat="39.742332082056514" lon="9.575976152642616"><ele>151.0</ele><time>2026-04-03T10:27:41Z</time></trkpt><trkpt lat="39.74236083896658" lon="9.57608322433108"><ele>151.0</ele><time>2026-04-03T10:27:42Z</time></trkpt><trkpt lat="39.74237744766787" lon="9.576206228235355"><ele>151.0</ele><time>2026-04-03T10:27:43Z</time></trkpt><trkpt lat="39.74239218772772" lon="9.57635178550318"><ele>150.75</ele><time>2026-04-03T10:27:44Z</time></trkpt><trkpt lat="39.74242391481665" lon="9.576513855534483"><ele>150.5</ele><time>2026-04-03T10:27:45Z</time></trkpt><trkpt lat="39.74246956895049" lon="9.576689187663337"><ele>150.25</ele><time>2026-04-03T10:27:46Z</time></trkpt><trkpt lat="39.74251207093404" lon="9.576861764919228"><ele>150.0</ele><time>2026-04-03T10:27:47Z</time></trkpt><trkpt lat="39.742546376356195" lon="9.577043873343769"><ele>149.66666666666666</ele><time>2026-04-03T10:27:48Z</time></trkpt><trkpt lat="39.7425800286036" lon="9.577229675626704"><ele>149.33333333333331</ele><time>2026-04-03T10:27:49Z</time></trkpt><trkpt lat="39.742615574208834" lon="9.577421856485214"><ele>149.0</ele><time>2026-04-03T10:27:50Z</time></trkpt><trkpt lat="39.7426543643206" lon="9.577618729985174"><ele>149.0</ele><time>2026-04-03T10:27:51Z</time></trkpt><trkpt lat="39.74269513070352" lon="9.577820921007547"><ele>149.0</ele><time>2026-04-03T10:27:52Z</time></trkpt><trkpt lat="39.74273586976065" lon="9.578015581892824"><ele>149.0</ele><time>2026-04-03T10:27:53Z</time></trkpt><trkpt lat="39.742780250262875" lon="9.578212796563674"><ele>149.0</ele><time>2026-04-03T10:27:54Z</time></trkpt><trkpt lat="39.74282301072057" lon="9.57841428643126"><ele>149.0</ele><time>2026-04-03T10:27:55Z</time></trkpt><trkpt lat="39.74287353941602" lon="9.578611054317063"><ele>149.0</ele><time>2026-04-03T10:27:56Z</time></trkpt><trkpt lat="39.742921381397814" lon="9.578809781357126"><ele>150.33333333333331</ele><time>2026-04-03T10:27:57Z</time></trkpt><trkpt lat="39.7429632227154" lon="9.579014210795206"><ele>151.66666666666666</ele><time>2026-04-03T10:27:58Z</time></trkpt><trkpt lat="39.742984737047685" lon="9.579206746677887"><ele>153.0</ele><time>2026-04-03T10:27:59Z</time></trkpt><trkpt lat="39.742979163583584" lon="9.579410173723632"><ele>154.75</ele><time>2026-04-03T10:28:00Z</time></trkpt><trkpt lat="39.742976443057856" lon="9.579599801841185"><ele>156.5</ele><time>2026-04-03T10:28:01Z</time></trkpt><trkpt lat="39.74296971929265" lon="9.579770715239645"><ele>158.25</ele><time>2026-04-03T10:28:02Z</time></trkpt><trkpt lat="39.74292958681836" lon="9.57991419678336"><ele>160.0</ele><time>2026-04-03T10:28:03Z</time></trkpt><trkpt lat="39.742878308334774" lon="9.58005033630356"><ele>160.0</ele><time>2026-04-03T10:28:04Z</time></trkpt><trkpt lat="39.742779401458094" lon="9.580129761435646"><ele>160.0</ele><time>2026-04-03T10:28:05Z</time></trkpt><trkpt lat="39.74267628651478" lon="9.580155540938996"><ele>160.0</ele><time>2026-04-03T10:28:06Z</time></trkpt><trkpt lat="39.74257293430341" lon="9.580129917529218"><ele>160.0</ele><time>2026-04-03T10:28:07Z</time></trkpt><trkpt lat="39.742469307511676" lon="9.580071202637814"><ele>160.0</ele><time>2026-04-03T10:28:08Z</time></trkpt><trkpt lat="39.74239450290407" lon="9.579950403867981"><ele>160.0</ele><time>2026-04-03T10:28:09Z</time></trkpt><trkpt lat="39.742328310099644" lon="9.579795792313671"><ele>160.0</ele><time>2026-04-03T10:28:10Z</time></trkpt><trkpt lat="39.74228305061308" lon="9.579622286613109"><ele>160.0</ele><time>2026-04-03T10:28:11Z</time></trkpt><trkpt lat="39.742228339016314" lon="9.579464518429402"><ele>160.0</ele><time>2026-04-03T10:28:12Z</time></trkpt><trkpt lat="39.74226358800542" lon="9.579297893898614"><ele>157.75</ele><time>2026-04-03T10:28:13Z</time></trkpt><trkpt lat="39.74233521640048" lon="9.579187352119895"><ele>155.5</ele><time>2026-04-03T10:28:14Z</time></trkpt><trkpt lat="39.74242417606519" lon="9.579093260008568"><ele>153.25</ele><time>2026-04-03T10:28:15Z</time></trkpt><trkpt lat="39.74255717848332" lon="9.579077554473589"><ele>151.0</ele><time>2026-04-03T10:28:16Z</time></trkpt><trkpt lat="39.74269874062959" lon="9.579103332208266"><ele>151.66666666666669</ele><time>2026-04-03T10:28:17Z</time></trkpt><trkpt lat="39.742847317452274" lon="9.579156463706815"><ele>152.33333333333334</ele><time>2026-04-03T10:28:18Z</time></trkpt><trkpt lat="39.74300173908438" lon="9.579209703982022"><ele>153.0</ele><time>2026-04-03T10:28:19Z</time></trkpt><trkpt lat="39.74318009527282" lon="9.57926853669625"><ele>153.0</ele><time>2026-04-03T10:28:20Z</time></trkpt><trkpt lat="39.74335408170038" lon="9.579320808738823"><ele>153.0</ele><time>2026-04-03T10:28:21Z</time></trkpt><trkpt lat="39.743562063313384" lon="9.579373321388948"><ele>153.0</ele><time>2026-04-03T10:28:22Z</time></trkpt><trkpt lat="39.7437520481693" lon="9.579410502953815"><ele>153.66666666666666</ele><time>2026-04-03T10:28:23Z</time></trkpt><trkpt lat="39.74393525657763" lon="9.579448446567644"><ele>154.33333333333331</ele><time>2026-04-03T10:28:24Z</time></trkpt><trkpt lat="39.74411901396198" lon="9.579489841438315"><ele>155.0</ele><time>2026-04-03T10:28:25Z</time></trkpt><trkpt lat="39.74430358064735" lon="9.579529259581893"><ele>157.0</ele><time>2026-04-03T10:28:26Z</time></trkpt><trkpt lat="39.744492250914526" lon="9.579554232380985"><ele>159.0</ele><time>2026-04-03T10:28:27Z</time></trkpt><trkpt lat="39.7446786980894" lon="9.579565585383602"><ele>161.0</ele><time>2026-04-03T10:28:28Z</time></trkpt><trkpt lat="39.744867272523855" lon="9.579569400583221"><ele>161.0</ele><time>2026-04-03T10:28:29Z</time></trkpt><trkpt lat="39.7450590031342" lon="9.579565289578662"><ele>161.0</ele><time>2026-04-03T10:28:30Z</time></trkpt><trkpt lat="39.74525185792221" lon="9.579552230061577"><ele>161.0</ele><time>2026-04-03T10:28:31Z</time></trkpt><trkpt lat="39.745443805459814" lon="9.579536838706549"><ele>160.33333333333331</ele><time>2026-04-03T10:28:32Z</time></trkpt><trkpt lat="39.74563653241214" lon="9.579497681151203"><ele>159.66666666666666</ele><time>2026-04-03T10:28:33Z</time></trkpt><trkpt lat="39.745828934298004" lon="9.579445150255394"><ele>159.0</ele><time>2026-04-03T10:28:34Z</time></trkpt><trkpt lat="39.74602085136581" lon="9.579384476753741"><ele>160.33333333333334</ele><time>2026-04-03T10:28:35Z</time></trkpt><trkpt lat="39.7462133570767" lon="9.579311708511764"><ele>161.66666666666669</ele><time>2026-04-03T10:28:36Z</time></trkpt><trkpt lat="39.74640733845715" lon="9.579232270702278"><ele>163.0</ele><time>2026-04-03T10:28:37Z</time></trkpt><trkpt lat="39.74660494632587" lon="9.579142025824916"><ele>163.0</ele><time>2026-04-03T10:28:38Z</time></trkpt><trkpt lat="39.746789447145886" lon="9.579047372830669"><ele>163.0</ele><time>2026-04-03T10:28:39Z</time></trkpt><trkpt lat="39.74697711176769" lon="9.578948048492927"><ele>163.0</ele><time>2026-04-03T10:28:40Z</time></trkpt><trkpt lat="39.74716417412495" lon="9.578850420688884"><ele>163.33333333333334</ele><time>2026-04-03T10:28:41Z</time></trkpt><trkpt lat="39.747352631708196" lon="9.578754122791013"><ele>163.66666666666666</ele><time>2026-04-03T10:28:42Z</time></trkpt><trkpt lat="39.747543305850606" lon="9.578663155556507"><ele>164.0</ele><time>2026-04-03T10:28:43Z</time></trkpt><trkpt lat="39.74772925148332" lon="9.578568530104619"><ele>164.0</ele><time>2026-04-03T10:28:44Z</time></trkpt><trkpt lat="39.747913769744464" lon="9.578467164716166"><ele>164.0</ele><time>2026-04-03T10:28:45Z</time></trkpt><trkpt lat="39.7480964761079" lon="9.578368907213044"><ele>164.0</ele><time>2026-04-03T10:28:46Z</time></trkpt><trkpt lat="39.74828132901684" lon="9.578278703625582"><ele>164.0</ele><time>2026-04-03T10:28:47Z</time></trkpt><trkpt lat="39.748470347442066" lon="9.578193791008742"><ele>164.0</ele><time>2026-04-03T10:28:48Z</time></trkpt><trkpt lat="39.74866051625914" lon="9.57812057196611"><ele>164.0</ele><time>2026-04-03T10:28:49Z</time></trkpt><trkpt lat="39.7488542713166" lon="9.578056164896129"><ele>165.33333333333331</ele><time>2026-04-03T10:28:50Z</time></trkpt><trkpt lat="39.74904698351515" lon="9.577991126736451"><ele>166.66666666666666</ele><time>2026-04-03T10:28:51Z</time></trkpt><trkpt lat="39.74924634462071" lon="9.57794172062544"><ele>168.0</ele><time>2026-04-03T10:28:52Z</time></trkpt><trkpt lat="39.749445786043765" lon="9.577897113525884"><ele>170.0</ele><time>2026-04-03T10:28:53Z</time></trkpt><trkpt lat="39.74964543990142" lon="9.577869828364756"><ele>172.0</ele><time>2026-04-03T10:28:54Z</time></trkpt><trkpt lat="39.749848620034484" lon="9.57785533138987"><ele>174.0</ele><time>2026-04-03T10:28:55Z</time></trkpt><trkpt lat="39.75005102650684" lon="9.577861980725306"><ele>172.0</ele><time>2026-04-03T10:28:56Z</time></trkpt><trkpt lat="39.75025104153561" lon="9.57786950213617"><ele>170.0</ele><time>2026-04-03T10:28:57Z</time></trkpt><trkpt lat="39.75045000423836" lon="9.57789112915382"><ele>168.0</ele><time>2026-04-03T10:28:58Z</time></trkpt><trkpt lat="39.75064703267372" lon="9.577922026803446"><ele>168.0</ele><time>2026-04-03T10:28:59Z</time></trkpt><trkpt lat="39.75084438262848" lon="9.57796440742887"><ele>168.0</ele><time>2026-04-03T10:29:00Z</time></trkpt><trkpt lat="39.75103859625889" lon="9.578016104613868"><ele>168.0</ele><time>2026-04-03T10:29:01Z</time></trkpt><trkpt lat="39.75123356836079" lon="9.57808720008496"><ele>167.66666666666666</ele><time>2026-04-03T10:29:02Z</time></trkpt><trkpt lat="39.75142635495674" lon="9.578164586397621"><ele>167.33333333333331</ele><time>2026-04-03T10:29:03Z</time></trkpt><trkpt lat="39.75161846695362" lon="9.57825464664225"><ele>167.0</ele><time>2026-04-03T10:29:03.999Z</time></trkpt><trkpt lat="39.7518085095868" lon="9.57835454024742"><ele>168.66666666666666</ele><time>2026-04-03T10:29:04.999Z</time></trkpt><trkpt lat="39.751995951039" lon="9.578466909925858"><ele>170.33333333333334</ele><time>2026-04-03T10:29:05.999Z</time></trkpt><trkpt lat="39.752180878744014" lon="9.57859228179475"><ele>172.0</ele><time>2026-04-03T10:29:06.999Z</time></trkpt><trkpt lat="39.752364107436186" lon="9.57872189842361"><ele>173.0</ele><time>2026-04-03T10:29:07.999Z</time></trkpt><trkpt lat="39.7525491717188" lon="9.578854265287537"><ele>174.0</ele><time>2026-04-03T10:29:08.999Z</time></trkpt><trkpt lat="39.75273101639128" lon="9.578995023719461"><ele>175.0</ele><time>2026-04-03T10:29:09.999Z</time></trkpt><trkpt lat="39.75291360926684" lon="9.579143257160885"><ele>177.66666666666669</ele><time>2026-04-03T10:29:10.999Z</time></trkpt><trkpt lat="39.753089647748084" lon="9.57927806007365"><ele>180.33333333333334</ele><time>2026-04-03T10:29:11.999Z</time></trkpt><trkpt lat="39.75326826457304" lon="9.579416301218696"><ele>183.0</ele><time>2026-04-03T10:29:12.999Z</time></trkpt><trkpt lat="39.75343913437374" lon="9.579582419030697"><ele>188.66666666666669</ele><time>2026-04-03T10:29:14.018Z</time></trkpt><trkpt lat="39.75361681336173" lon="9.579730359207053"><ele>194.33333333333334</ele><time>2026-04-03T10:29:15.021Z</time></trkpt><trkpt lat="39.75378941352784" lon="9.579874070608092"><ele>200.0</ele><time>2026-04-03T10:29:16.016Z</time></trkpt><trkpt lat="39.753965476199426" lon="9.58002066498598"><ele>200.0</ele><time>2026-04-03T10:29:17.021Z</time></trkpt><trkpt lat="39.754137290721545" lon="9.580164789251787"><ele>200.0</ele><time>2026-04-03T10:29:18.015Z</time></trkpt><trkpt lat="39.75551784997215" lon="9.581299920517647"><ele>262.0</ele><time>2026-04-03T10:29:21.65Z</time></trkpt><trkpt lat="39.755895589021605" lon="9.581617548493142"><ele>299.0</ele><time>2026-04-03T10:29:22.65Z</time></trkpt><trkpt lat="39.756267567515" lon="9.581947794401103"><ele>301.0</ele><time>2026-04-03T10:29:23.652Z</time></trkpt><trkpt lat="39.756631634496664" lon="9.582290869601971"><ele>320.5</ele><time>2026-04-03T10:29:24.651Z</time></trkpt><trkpt lat="39.7569893356314" lon="9.582644628384015"><ele>340.0</ele><time>2026-04-03T10:29:25.651Z</time></trkpt><trkpt lat="39.7573319716504" lon="9.583022999469936"><ele>362.0</ele><time>2026-04-03T10:29:26.651Z</time></trkpt><trkpt lat="39.75766032780017" lon="9.583422673280634"><ele>385.5</ele><time>2026-04-03T10:29:27.651Z</time></trkpt><trkpt lat="39.7578738" lon="9.5837063"><ele>409.0</ele><time>2026-04-03T10:29:28.652Z</time></trkpt><trkpt lat="39.76003261286743" lon="9.591618664571635"><ele>289.0</ele><time>2026-04-03T10:30:12.999Z</time></trkpt><trkpt lat="39.760050761659336" lon="9.591912843188597"><ele>169.0</ele><time>2026-04-03T10:30:13.999Z</time></trkpt><trkpt lat="39.76005041327113" lon="9.59225103557283"><ele>169.0</ele><time>2026-04-03T10:30:14.999Z</time></trkpt><trkpt lat="39.760071842299354" lon="9.592559874351647"><ele>169.0</ele><time>2026-04-03T10:30:16.021Z</time></trkpt><trkpt lat="39.76008417742132" lon="9.592875478416682"><ele>169.5</ele><time>2026-04-03T10:30:17.022Z</time></trkpt><trkpt lat="39.760099709287005" lon="9.593182060569534"><ele>170.0</ele><time>2026-04-03T10:30:18.015Z</time></trkpt><trkpt lat="39.760113416466886" lon="9.593493213682406"><ele>166.5</ele><time>2026-04-03T10:30:19.015Z</time></trkpt><trkpt lat="39.76012897912743" lon="9.593804116158921"><ele>163.0</ele><time>2026-04-03T10:30:20.021Z</time></trkpt><trkpt lat="39.76027711298294" lon="9.594340352350468"><ele>152.5</ele><time>2026-04-03T10:30:21.999Z</time></trkpt><trkpt lat="39.76031053640453" lon="9.59462848475191"><ele>142.0</ele><time>2026-04-03T10:30:22.999Z</time></trkpt><trkpt lat="39.76036685833962" lon="9.59491690745127"><ele>142.0</ele><time>2026-04-03T10:30:23.999Z</time></trkpt><trkpt lat="39.76044262304574" lon="9.595201849875483"><ele>142.0</ele><time>2026-04-03T10:30:24.999Z</time></trkpt><trkpt lat="39.76052904602162" lon="9.595467876450277"><ele>142.33333333333334</ele><time>2026-04-03T10:30:25.999Z</time></trkpt><trkpt lat="39.760612529667654" lon="9.59573459435686"><ele>142.66666666666666</ele><time>2026-04-03T10:30:27Z</time></trkpt><trkpt lat="39.7606958435159" lon="9.595989865627278"><ele>143.0</ele><time>2026-04-03T10:30:28Z</time></trkpt><trkpt lat="39.76078083706815" lon="9.596242008654002"><ele>144.0</ele><time>2026-04-03T10:30:29Z</time></trkpt><trkpt lat="39.76086750874406" lon="9.596499092637002"><ele>145.0</ele><time>2026-04-03T10:30:30Z</time></trkpt><trkpt lat="39.7609549451533" lon="9.59675429449779"><ele>146.0</ele><time>2026-04-03T10:30:31Z</time></trkpt><trkpt lat="39.761044661690626" lon="9.597003902942994"><ele>141.33333333333331</ele><time>2026-04-03T10:30:32Z</time></trkpt><trkpt lat="39.761131107350096" lon="9.597250821240936"><ele>136.66666666666666</ele><time>2026-04-03T10:30:33Z</time></trkpt><trkpt lat="39.76121836714617" lon="9.597495574696378"><ele>132.0</ele><time>2026-04-03T10:30:34Z</time></trkpt><trkpt lat="39.76131515611053" lon="9.597737076442895"><ele>128.66666666666666</ele><time>2026-04-03T10:30:35Z</time></trkpt><trkpt lat="39.761407429930024" lon="9.59797922061391"><ele>125.33333333333333</ele><time>2026-04-03T10:30:36Z</time></trkpt><trkpt lat="39.761492728494126" lon="9.59822310457686"><ele>122.0</ele><time>2026-04-03T10:30:37Z</time></trkpt><trkpt lat="39.76158320275281" lon="9.598467516563717"><ele>121.33333333333333</ele><time>2026-04-03T10:30:38Z</time></trkpt><trkpt lat="39.7616797113029" lon="9.59871262187551"><ele>120.66666666666666</ele><time>2026-04-03T10:30:39Z</time></trkpt><trkpt lat="39.761767787810946" lon="9.598965034613983"><ele>120.0</ele><time>2026-04-03T10:30:40Z</time></trkpt><trkpt lat="39.76184895058969" lon="9.59921127245483"><ele>117.33333333333334</ele><time>2026-04-03T10:30:41Z</time></trkpt><trkpt lat="39.76193244802979" lon="9.599451234563526"><ele>114.66666666666667</ele><time>2026-04-03T10:30:42Z</time></trkpt><trkpt lat="39.76201534327427" lon="9.599690443399265"><ele>112.0</ele><time>2026-04-03T10:30:43Z</time></trkpt><trkpt lat="39.76210146808541" lon="9.599927705983054"><ele>112.0</ele><time>2026-04-03T10:30:44Z</time></trkpt><trkpt lat="39.76219089843319" lon="9.600166566643386"><ele>112.0</ele><time>2026-04-03T10:30:45Z</time></trkpt><trkpt lat="39.762277432116235" lon="9.600399946966856"><ele>112.0</ele><time>2026-04-03T10:30:46Z</time></trkpt><trkpt lat="39.762360933906436" lon="9.600632987168261"><ele>115.33333333333334</ele><time>2026-04-03T10:30:47Z</time></trkpt><trkpt lat="39.76244213621265" lon="9.60086676313551"><ele>118.66666666666666</ele><time>2026-04-03T10:30:48Z</time></trkpt><trkpt lat="39.762522650954644" lon="9.601099379087904"><ele>122.0</ele><time>2026-04-03T10:30:49Z</time></trkpt><trkpt lat="39.762603573822474" lon="9.601337323119076"><ele>122.66666666666666</ele><time>2026-04-03T10:30:50Z</time></trkpt><trkpt lat="39.7626848374167" lon="9.601578318057014"><ele>123.33333333333334</ele><time>2026-04-03T10:30:51Z</time></trkpt><trkpt lat="39.7627636917295" lon="9.601827505518154"><ele>124.0</ele><time>2026-04-03T10:30:52.019Z</time></trkpt><trkpt lat="39.7628339093997" lon="9.602076936854859"><ele>119.66666666666667</ele><time>2026-04-03T10:30:53.016Z</time></trkpt><trkpt lat="39.76289434037587" lon="9.602328657145575"><ele>115.33333333333334</ele><time>2026-04-03T10:30:54Z</time></trkpt><trkpt lat="39.76296636867613" lon="9.602581707589128"><ele>111.0</ele><time>2026-04-03T10:30:55Z</time></trkpt><trkpt lat="39.76301461953616" lon="9.60284875728821"><ele>108.0</ele><time>2026-04-03T10:30:56Z</time></trkpt><trkpt lat="39.7630619289647" lon="9.603118844228314"><ele>105.0</ele><time>2026-04-03T10:30:57Z</time></trkpt><trkpt lat="39.76310181018985" lon="9.603383239086774"><ele>102.0</ele><time>2026-04-03T10:30:58Z</time></trkpt><trkpt lat="39.76313207365032" lon="9.603639485261949"><ele>100.66666666666666</ele><time>2026-04-03T10:30:59Z</time></trkpt><trkpt lat="39.76315231318883" lon="9.603892779174457"><ele>99.33333333333333</ele><time>2026-04-03T10:31:00Z</time></trkpt><trkpt lat="39.76316548769629" lon="9.604135479797453"><ele>98.0</ele><time>2026-04-03T10:31:01Z</time></trkpt><trkpt lat="39.76317570778916" lon="9.604381242927898"><ele>98.0</ele><time>2026-04-03T10:31:02Z</time></trkpt><trkpt lat="39.76318886175033" lon="9.604636740020828"><ele>98.0</ele><time>2026-04-03T10:31:03Z</time></trkpt><trkpt lat="39.76320381807758" lon="9.604893550437815"><ele>98.0</ele><time>2026-04-03T10:31:04Z</time></trkpt><trkpt lat="39.76321527707285" lon="9.605155133210081"><ele>97.33333333333333</ele><time>2026-04-03T10:31:05Z</time></trkpt><trkpt lat="39.76322009955638" lon="9.60542216630793"><ele>96.66666666666666</ele><time>2026-04-03T10:31:06Z</time></trkpt><trkpt lat="39.76322922925407" lon="9.605686063557876"><ele>96.0</ele><time>2026-04-03T10:31:07Z</time></trkpt><trkpt lat="39.76323733793541" lon="9.605947586068188"><ele>95.66666666666667</ele><time>2026-04-03T10:31:08Z</time></trkpt><trkpt lat="39.763246864509135" lon="9.606205118062865"><ele>95.33333333333334</ele><time>2026-04-03T10:31:09Z</time></trkpt><trkpt lat="39.763255377189495" lon="9.606461869768346"><ele>95.0</ele><time>2026-04-03T10:31:10Z</time></trkpt><trkpt lat="39.76326124576992" lon="9.6067156933178"><ele>95.0</ele><time>2026-04-03T10:31:11Z</time></trkpt><trkpt lat="39.76326655233252" lon="9.606968875009919"><ele>95.0</ele><time>2026-04-03T10:31:12Z</time></trkpt><trkpt lat="39.76327737790507" lon="9.607217804008831"><ele>95.0</ele><time>2026-04-03T10:31:13Z</time></trkpt><trkpt lat="39.763294823896295" lon="9.607469930244646"><ele>94.66666666666667</ele><time>2026-04-03T10:31:14Z</time></trkpt><trkpt lat="39.763315366055906" lon="9.607730919689164"><ele>94.33333333333333</ele><time>2026-04-03T10:31:15Z</time></trkpt><trkpt lat="39.76333989495217" lon="9.607996275151196"><ele>94.0</ele><time>2026-04-03T10:31:16Z</time></trkpt><trkpt lat="39.76335988524098" lon="9.608265266336673"><ele>94.66666666666666</ele><time>2026-04-03T10:31:17Z</time></trkpt><trkpt lat="39.763365479180386" lon="9.608542853843465"><ele>95.33333333333333</ele><time>2026-04-03T10:31:18Z</time></trkpt><trkpt lat="39.763418265102096" lon="9.608811744015346"><ele>96.0</ele><time>2026-04-03T10:31:19Z</time></trkpt><trkpt lat="39.7634604977737" lon="9.6090809624957"><ele>93.66666666666667</ele><time>2026-04-03T10:31:20Z</time></trkpt><trkpt lat="39.76349654116354" lon="9.609351499159983"><ele>91.33333333333334</ele><time>2026-04-03T10:31:21Z</time></trkpt><trkpt lat="39.76355504785834" lon="9.609615069060167"><ele>89.0</ele><time>2026-04-03T10:31:22Z</time></trkpt><trkpt lat="39.763622214046116" lon="9.609875628102442"><ele>86.0</ele><time>2026-04-03T10:31:23Z</time></trkpt><trkpt lat="39.76369849025318" lon="9.61013568783225"><ele>83.0</ele><time>2026-04-03T10:31:24Z</time></trkpt><trkpt lat="39.76378709113924" lon="9.61039091906829"><ele>80.0</ele><time>2026-04-03T10:31:25Z</time></trkpt><trkpt lat="39.763885578519556" lon="9.610643878589208"><ele>78.66666666666667</ele><time>2026-04-03T10:31:26Z</time></trkpt><trkpt lat="39.76398562491426" lon="9.610875841498848"><ele>77.33333333333333</ele><time>2026-04-03T10:31:27Z</time></trkpt><trkpt lat="39.76408967619511" lon="9.611094141230046"><ele>76.0</ele><time>2026-04-03T10:31:28Z</time></trkpt><trkpt lat="39.76420974931787" lon="9.611294857724632"><ele>75.66666666666666</ele><time>2026-04-03T10:31:29Z</time></trkpt><trkpt lat="39.76431775253659" lon="9.611489440280536"><ele>75.33333333333333</ele><time>2026-04-03T10:31:30Z</time></trkpt><trkpt lat="39.76442967403786" lon="9.61166653316771"><ele>75.0</ele><time>2026-04-03T10:31:31Z</time></trkpt><trkpt lat="39.76454219997576" lon="9.611833150719638"><ele>76.0</ele><time>2026-04-03T10:31:32Z</time></trkpt><trkpt lat="39.76466163077428" lon="9.6120048107589"><ele>77.0</ele><time>2026-04-03T10:31:33Z</time></trkpt><trkpt lat="39.76478606495953" lon="9.612168239806337"><ele>78.0</ele><time>2026-04-03T10:31:34Z</time></trkpt><trkpt lat="39.764918150937106" lon="9.612324802424752"><ele>78.0</ele><time>2026-04-03T10:31:35Z</time></trkpt><trkpt lat="39.765057990797956" lon="9.612470289154246"><ele>78.0</ele><time>2026-04-03T10:31:36Z</time></trkpt><trkpt lat="39.76520418367414" lon="9.612612852197358"><ele>78.0</ele><time>2026-04-03T10:31:37Z</time></trkpt><trkpt lat="39.76535577938046" lon="9.612752318844018"><ele>77.0</ele><time>2026-04-03T10:31:38Z</time></trkpt><trkpt lat="39.76551226950868" lon="9.612885577487695"><ele>76.0</ele><time>2026-04-03T10:31:39Z</time></trkpt><trkpt lat="39.76567511960214" lon="9.613006475251801"><ele>75.0</ele><time>2026-04-03T10:31:40Z</time></trkpt><trkpt lat="39.76584582669204" lon="9.613116473191983"><ele>75.0</ele><time>2026-04-03T10:31:41Z</time></trkpt><trkpt lat="39.7660228311581" lon="9.613223325387215"><ele>75.0</ele><time>2026-04-03T10:31:42Z</time></trkpt><trkpt lat="39.76620621223684" lon="9.613318419128648"><ele>75.0</ele><time>2026-04-03T10:31:43Z</time></trkpt><trkpt lat="39.7663968771235" lon="9.613411889728077"><ele>72.66666666666667</ele><time>2026-04-03T10:31:44Z</time></trkpt><trkpt lat="39.766592425999455" lon="9.61349824557875"><ele>70.33333333333334</ele><time>2026-04-03T10:31:45Z</time></trkpt><trkpt lat="39.76679703531877" lon="9.613570967666682"><ele>68.0</ele><time>2026-04-03T10:31:46Z</time></trkpt><trkpt lat="39.767009039279706" lon="9.613634485345553"><ele>67.66666666666667</ele><time>2026-04-03T10:31:47Z</time></trkpt><trkpt lat="39.767226071483" lon="9.613688264071701"><ele>67.33333333333333</ele><time>2026-04-03T10:31:48Z</time></trkpt><trkpt lat="39.76744882876106" lon="9.613730197028577"><ele>67.0</ele><time>2026-04-03T10:31:49Z</time></trkpt><trkpt lat="39.76767141883799" lon="9.613760708091787"><ele>66.0</ele><time>2026-04-03T10:31:50Z</time></trkpt><trkpt lat="39.76789470236973" lon="9.613776315416509"><ele>65.0</ele><time>2026-04-03T10:31:51Z</time></trkpt><trkpt lat="39.76811572687466" lon="9.613777579733368"><ele>64.0</ele><time>2026-04-03T10:31:52Z</time></trkpt><trkpt lat="39.7683383135568" lon="9.613767616149218"><ele>62.33333333333333</ele><time>2026-04-03T10:31:53Z</time></trkpt><trkpt lat="39.76856191620244" lon="9.6137496063054"><ele>60.66666666666667</ele><time>2026-04-03T10:31:54Z</time></trkpt><trkpt lat="39.768785361750375" lon="9.613732287405618"><ele>59.0</ele><time>2026-04-03T10:31:55Z</time></trkpt><trkpt lat="39.76900818031561" lon="9.61371422908137"><ele>59.0</ele><time>2026-04-03T10:31:56Z</time></trkpt><trkpt lat="39.76922568571142" lon="9.613693691466935"><ele>59.0</ele><time>2026-04-03T10:31:57Z</time></trkpt><trkpt lat="39.76944480996803" lon="9.613664527255578"><ele>59.0</ele><time>2026-04-03T10:31:58Z</time></trkpt><trkpt lat="39.76966328625153" lon="9.613627119457743"><ele>59.0</ele><time>2026-04-03T10:31:59Z</time></trkpt><trkpt lat="39.769881539862695" lon="9.613591972921268"><ele>59.0</ele><time>2026-04-03T10:32:00Z</time></trkpt><trkpt lat="39.770098984061576" lon="9.613563750752887"><ele>59.0</ele><time>2026-04-03T10:32:01Z</time></trkpt><trkpt lat="39.77031295280766" lon="9.613540299439329"><ele>58.66666666666667</ele><time>2026-04-03T10:32:02Z</time></trkpt><trkpt lat="39.77051928498219" lon="9.613518325243826"><ele>58.33333333333333</ele><time>2026-04-03T10:32:03Z</time></trkpt><trkpt lat="39.77072202683495" lon="9.613500203278942"><ele>58.0</ele><time>2026-04-03T10:32:04Z</time></trkpt><trkpt lat="39.77091842287434" lon="9.613485176109117"><ele>57.33333333333333</ele><time>2026-04-03T10:32:05Z</time></trkpt><trkpt lat="39.77111259934958" lon="9.613481685271948"><ele>56.66666666666667</ele><time>2026-04-03T10:32:06Z</time></trkpt><trkpt lat="39.771303685131635" lon="9.613493415221388"><ele>56.0</ele><time>2026-04-03T10:32:06.999Z</time></trkpt><trkpt lat="39.77148943648963" lon="9.613515222731776"><ele>56.0</ele><time>2026-04-03T10:32:07.999Z</time></trkpt><trkpt lat="39.77167159998856" lon="9.613542389357484"><ele>56.0</ele><time>2026-04-03T10:32:08.999Z</time></trkpt><trkpt lat="39.77185530870751" lon="9.613580654142599"><ele>56.0</ele><time>2026-04-03T10:32:09.999Z</time></trkpt><trkpt lat="39.772036589092856" lon="9.613624656982136"><ele>57.0</ele><time>2026-04-03T10:32:10.999Z</time></trkpt><trkpt lat="39.772219341424574" lon="9.613674691581727"><ele>58.0</ele><time>2026-04-03T10:32:11.999Z</time></trkpt><trkpt lat="39.77240277138176" lon="9.61372905335199"><ele>59.0</ele><time>2026-04-03T10:32:12.999Z</time></trkpt><trkpt lat="39.77258391143008" lon="9.613778253339087"><ele>56.333333333333336</ele><time>2026-04-03T10:32:13.999Z</time></trkpt><trkpt lat="39.77276686825948" lon="9.613833113695792"><ele>53.66666666666667</ele><time>2026-04-03T10:32:14.999Z</time></trkpt><trkpt lat="39.772951566664716" lon="9.613886757548606"><ele>51.0</ele><time>2026-04-03T10:32:15.999Z</time></trkpt><trkpt lat="39.77313836225455" lon="9.61393700063713"><ele>51.0</ele><time>2026-04-03T10:32:16.999Z</time></trkpt><trkpt lat="39.7733258263038" lon="9.61398956698939"><ele>51.0</ele><time>2026-04-03T10:32:17.999Z</time></trkpt><trkpt lat="39.77351435867184" lon="9.614047258345083"><ele>51.0</ele><time>2026-04-03T10:32:18.999Z</time></trkpt><trkpt lat="39.77370362192976" lon="9.614109052446244"><ele>50.0</ele><time>2026-04-03T10:32:19.999Z</time></trkpt><trkpt lat="39.77389534202014" lon="9.614173826336021"><ele>49.0</ele><time>2026-04-03T10:32:20.999Z</time></trkpt><trkpt lat="39.77409002893612" lon="9.61423346237392"><ele>48.0</ele><time>2026-04-03T10:32:21.999Z</time></trkpt><trkpt lat="39.77428942397392" lon="9.614293810033011"><ele>47.666666666666664</ele><time>2026-04-03T10:32:22.999Z</time></trkpt><trkpt lat="39.774492175884696" lon="9.6143529797038"><ele>47.33333333333333</ele><time>2026-04-03T10:32:23.999Z</time></trkpt><trkpt lat="39.774698614698366" lon="9.614410061578534"><ele>47.0</ele><time>2026-04-03T10:32:24.999Z</time></trkpt><trkpt lat="39.77490628440058" lon="9.614471078370872"><ele>47.33333333333333</ele><time>2026-04-03T10:32:25.999Z</time></trkpt><trkpt lat="39.77511892925528" lon="9.614537823118896"><ele>47.666666666666664</ele><time>2026-04-03T10:32:26.999Z</time></trkpt><trkpt lat="39.7753321918985" lon="9.614600600869052"><ele>48.0</ele><time>2026-04-03T10:32:27.999Z</time></trkpt><trkpt lat="39.7755471167621" lon="9.614657053472643"><ele>47.0</ele><time>2026-04-03T10:32:28.999Z</time></trkpt><trkpt lat="39.77576610788304" lon="9.614703906176887"><ele>46.0</ele><time>2026-04-03T10:32:29.999Z</time></trkpt><trkpt lat="39.77598611261298" lon="9.614746412239505"><ele>45.0</ele><time>2026-04-03T10:32:30.999Z</time></trkpt><trkpt lat="39.77620982752444" lon="9.614780811951134"><ele>42.0</ele><time>2026-04-03T10:32:31.999Z</time></trkpt><trkpt lat="39.77643327326249" lon="9.614803380174576"><ele>39.0</ele><time>2026-04-03T10:32:32.998Z</time></trkpt><trkpt lat="39.776659765839185" lon="9.614821368059511"><ele>38.5</ele><time>2026-04-03T10:32:33.998Z</time></trkpt><trkpt lat="39.77688538544493" lon="9.614835066207474"><ele>38.0</ele><time>2026-04-03T10:32:34.998Z</time></trkpt><trkpt lat="39.77711029746032" lon="9.614840022586632"><ele>38.0</ele><time>2026-04-03T10:32:35.998Z</time></trkpt><trkpt lat="39.77733098896169" lon="9.61484207213574"><ele>38.0</ele><time>2026-04-03T10:32:36.998Z</time></trkpt><trkpt lat="39.77754339749977" lon="9.614842834672743"><ele>38.0</ele><time>2026-04-03T10:32:37.998Z</time></trkpt><trkpt lat="39.777754653404905" lon="9.614844337993569"><ele>40.33333333333333</ele><time>2026-04-03T10:32:38.998Z</time></trkpt><trkpt lat="39.777963482503004" lon="9.61484517066373"><ele>42.666666666666664</ele><time>2026-04-03T10:32:39.998Z</time></trkpt><trkpt lat="39.77816378869283" lon="9.614843238388085"><ele>45.0</ele><time>2026-04-03T10:32:40.998Z</time></trkpt><trkpt lat="39.7783523585083" lon="9.614842121705982"><ele>46.66666666666667</ele><time>2026-04-03T10:32:41.998Z</time></trkpt><trkpt lat="39.778537803647794" lon="9.614834036576005"><ele>48.333333333333336</ele><time>2026-04-03T10:32:42.998Z</time></trkpt><trkpt lat="39.778724690517805" lon="9.614831688544191"><ele>50.0</ele><time>2026-04-03T10:32:43.998Z</time></trkpt><trkpt lat="39.77891206111281" lon="9.614829628290197"><ele>50.0</ele><time>2026-04-03T10:32:44.998Z</time></trkpt><trkpt lat="39.779099584687394" lon="9.61483389429443"><ele>50.0</ele><time>2026-04-03T10:32:45.998Z</time></trkpt><trkpt lat="39.77928864382006" lon="9.614835768779114"><ele>50.0</ele><time>2026-04-03T10:32:46.998Z</time></trkpt><trkpt lat="39.77947841309085" lon="9.614832586192955"><ele>50.0</ele><time>2026-04-03T10:32:47.998Z</time></trkpt><trkpt lat="39.779668145379745" lon="9.614825566438515"><ele>50.0</ele><time>2026-04-03T10:32:48.998Z</time></trkpt><trkpt lat="39.77985916239186" lon="9.614810919846452"><ele>50.0</ele><time>2026-04-03T10:32:49.999Z</time></trkpt><trkpt lat="39.78005061764582" lon="9.614795755771755"><ele>48.66666666666667</ele><time>2026-04-03T10:32:50.999Z</time></trkpt><trkpt lat="39.780242927568096" lon="9.614772706774227"><ele>47.333333333333336</ele><time>2026-04-03T10:32:51.999Z</time></trkpt><trkpt lat="39.780436133216305" lon="9.614742150261877"><ele>46.0</ele><time>2026-04-03T10:32:52.999Z</time></trkpt><trkpt lat="39.78063197069663" lon="9.614703024910922"><ele>46.0</ele><time>2026-04-03T10:32:53.999Z</time></trkpt><trkpt lat="39.78082695213912" lon="9.614655894047896"><ele>46.0</ele><time>2026-04-03T10:32:54.999Z</time></trkpt><trkpt lat="39.7810185851888" lon="9.614599571012088"><ele>46.0</ele><time>2026-04-03T10:32:55.999Z</time></trkpt><trkpt lat="39.78120645106155" lon="9.614536803334648"><ele>48.0</ele><time>2026-04-03T10:32:56.999Z</time></trkpt><trkpt lat="39.78139407562167" lon="9.614462972232117"><ele>50.0</ele><time>2026-04-03T10:32:57.999Z</time></trkpt><trkpt lat="39.78157892475968" lon="9.614376151813735"><ele>52.0</ele><time>2026-04-03T10:32:58.999Z</time></trkpt><trkpt lat="39.7817625459895" lon="9.614280697823814"><ele>54.0</ele><time>2026-04-03T10:32:59.999Z</time></trkpt><trkpt lat="39.781944524719904" lon="9.614176854806987"><ele>56.0</ele><time>2026-04-03T10:33:00.999Z</time></trkpt><trkpt lat="39.78212567543725" lon="9.61406315534916"><ele>58.0</ele><time>2026-04-03T10:33:01.999Z</time></trkpt><trkpt lat="39.78230398880625" lon="9.613946226542259"><ele>58.0</ele><time>2026-04-03T10:33:02.999Z</time></trkpt><trkpt lat="39.78248058918338" lon="9.613819462554995"><ele>58.0</ele><time>2026-04-03T10:33:03.999Z</time></trkpt><trkpt lat="39.78265359374166" lon="9.61368086578312"><ele>58.0</ele><time>2026-04-03T10:33:04.999Z</time></trkpt><trkpt lat="39.782821935413025" lon="9.613531469715001"><ele>63.0</ele><time>2026-04-03T10:33:05.999Z</time></trkpt><trkpt lat="39.78298759487249" lon="9.613367261253964"><ele>68.0</ele><time>2026-04-03T10:33:06.999Z</time></trkpt><trkpt lat="39.783149126300444" lon="9.61319436916034"><ele>73.0</ele><time>2026-04-03T10:33:07.999Z</time></trkpt><trkpt lat="39.7833086497712" lon="9.613015345781003"><ele>73.0</ele><time>2026-04-03T10:33:08.999Z</time></trkpt><trkpt lat="39.78346568433975" lon="9.612832931034124"><ele>73.0</ele><time>2026-04-03T10:33:09.999Z</time></trkpt><trkpt lat="39.7836232392151" lon="9.612639648534872"><ele>73.0</ele><time>2026-04-03T10:33:10.999Z</time></trkpt><trkpt lat="39.783777441328375" lon="9.61243780194228"><ele>78.0</ele><time>2026-04-03T10:33:11.999Z</time></trkpt><trkpt lat="39.78393173152691" lon="9.612225635597127"><ele>83.0</ele><time>2026-04-03T10:33:12.999Z</time></trkpt><trkpt lat="39.78409547916599" lon="9.612006072169677"><ele>85.33333333333334</ele><time>2026-04-03T10:33:13.999Z</time></trkpt><trkpt lat="39.784257145088965" lon="9.61178796993906"><ele>87.66666666666667</ele><time>2026-04-03T10:33:14.999Z</time></trkpt><trkpt lat="39.78439837237721" lon="9.611594767187755"><ele>90.0</ele><time>2026-04-03T10:33:15.999Z</time></trkpt><trkpt lat="39.78453722696127" lon="9.611411750587683"><ele>90.0</ele><time>2026-04-03T10:33:16.999Z</time></trkpt><trkpt lat="39.784683104493276" lon="9.611235145495366"><ele>90.0</ele><time>2026-04-03T10:33:17.999Z</time></trkpt><trkpt lat="39.78482761102242" lon="9.611060461736697"><ele>90.0</ele><time>2026-04-03T10:33:18.999Z</time></trkpt><trkpt lat="39.78496968016523" lon="9.610884126424068"><ele>86.66666666666667</ele><time>2026-04-03T10:33:19.999Z</time></trkpt><trkpt lat="39.78511568349204" lon="9.610712672955124"><ele>83.33333333333334</ele><time>2026-04-03T10:33:20.999Z</time></trkpt><trkpt lat="39.78526679926195" lon="9.610548867530435"><ele>80.0</ele><time>2026-04-03T10:33:21.999Z</time></trkpt><trkpt lat="39.78542188773826" lon="9.610381662823782"><ele>74.33333333333334</ele><time>2026-04-03T10:33:22.999Z</time></trkpt><trkpt lat="39.78557904948109" lon="9.610221496140198"><ele>68.66666666666667</ele><time>2026-04-03T10:33:23.999Z</time></trkpt><trkpt lat="39.78574450676371" lon="9.610071864793007"><ele>63.0</ele><time>2026-04-03T10:33:24.999Z</time></trkpt><trkpt lat="39.78591872833784" lon="9.609933200535245"><ele>64.0</ele><time>2026-04-03T10:33:25.999Z</time></trkpt><trkpt lat="39.78609748487474" lon="9.609801141985825"><ele>65.0</ele><time>2026-04-03T10:33:26.999Z</time></trkpt><trkpt lat="39.78628042567957" lon="9.609679842489985"><ele>66.0</ele><time>2026-04-03T10:33:27.999Z</time></trkpt><trkpt lat="39.786467174419975" lon="9.609563886108754"><ele>63.0</ele><time>2026-04-03T10:33:28.999Z</time></trkpt><trkpt lat="39.786659878804095" lon="9.609455703156588"><ele>60.0</ele><time>2026-04-03T10:33:29.999Z</time></trkpt><trkpt lat="39.78685635683716" lon="9.609353912688958"><ele>57.0</ele><time>2026-04-03T10:33:30.999Z</time></trkpt><trkpt lat="39.787056721221575" lon="9.609262685476137"><ele>57.0</ele><time>2026-04-03T10:33:31.999Z</time></trkpt><trkpt lat="39.78725920375779" lon="9.60918215663335"><ele>57.0</ele><time>2026-04-03T10:33:32.999Z</time></trkpt><trkpt lat="39.78746583433686" lon="9.609113158933775"><ele>57.0</ele><time>2026-04-03T10:33:33.999Z</time></trkpt><trkpt lat="39.7876727722701" lon="9.609055774173907"><ele>55.66666666666667</ele><time>2026-04-03T10:33:34.999Z</time></trkpt><trkpt lat="39.78787958636888" lon="9.609013163579554"><ele>54.333333333333336</ele><time>2026-04-03T10:33:35.999Z</time></trkpt><trkpt lat="39.788103611342315" lon="9.608973885499369"><ele>53.0</ele><time>2026-04-03T10:33:36.999Z</time></trkpt><trkpt lat="39.78833029062729" lon="9.608942037619336"><ele>51.0</ele><time>2026-04-03T10:33:37.999Z</time></trkpt><trkpt lat="39.78855755253664" lon="9.60892164427996"><ele>49.0</ele><time>2026-04-03T10:33:38.999Z</time></trkpt><trkpt lat="39.788788453022654" lon="9.608913788396684"><ele>49.0</ele><time>2026-04-03T10:33:39.999Z</time></trkpt><trkpt lat="39.78901922560193" lon="9.608913954887011"><ele>49.0</ele><time>2026-04-03T10:33:40.999Z</time></trkpt><trkpt lat="39.78925465875013" lon="9.60891939574147"><ele>46.0</ele><time>2026-04-03T10:33:41.999Z</time></trkpt><trkpt lat="39.78949114374749" lon="9.6089268354004"><ele>43.0</ele><time>2026-04-03T10:33:42.999Z</time></trkpt><trkpt lat="39.78972435030185" lon="9.608932703566046"><ele>43.0</ele><time>2026-04-03T10:33:43.999Z</time></trkpt><trkpt lat="39.789959487793034" lon="9.608938319391651"><ele>43.0</ele><time>2026-04-03T10:33:44.999Z</time></trkpt><trkpt lat="39.790197094554976" lon="9.608948146470938"><ele>43.5</ele><time>2026-04-03T10:33:45.999Z</time></trkpt><trkpt lat="39.790433840910715" lon="9.6089520438827"><ele>44.0</ele><time>2026-04-03T10:33:46.999Z</time></trkpt><trkpt lat="39.79066079111308" lon="9.608952945643823"><ele>44.0</ele><time>2026-04-03T10:33:47.999Z</time></trkpt><trkpt lat="39.79087474824112" lon="9.608962756279373"><ele>44.0</ele><time>2026-04-03T10:33:48.999Z</time></trkpt><trkpt lat="39.79108584899433" lon="9.608974852286385"><ele>44.0</ele><time>2026-04-03T10:33:49.999Z</time></trkpt><trkpt lat="39.79130006691709" lon="9.608987505231823"><ele>44.0</ele><time>2026-04-03T10:33:50.999Z</time></trkpt><trkpt lat="39.79151450454918" lon="9.609003148156827"><ele>44.0</ele><time>2026-04-03T10:33:51.999Z</time></trkpt><trkpt lat="39.79172799874694" lon="9.609029536965146"><ele>44.0</ele><time>2026-04-03T10:33:52.999Z</time></trkpt><trkpt lat="39.791932756264984" lon="9.60905819333209"><ele>42.0</ele><time>2026-04-03T10:33:53.999Z</time></trkpt><trkpt lat="39.792133775814804" lon="9.609097125198755"><ele>40.0</ele><time>2026-04-03T10:33:54.999Z</time></trkpt><trkpt lat="39.79233234049331" lon="9.609142527991613"><ele>38.0</ele><time>2026-04-03T10:33:55.999Z</time></trkpt><trkpt lat="39.792530085675445" lon="9.609194447204736"><ele>37.0</ele><time>2026-04-03T10:33:56.999Z</time></trkpt><trkpt lat="39.79272567216764" lon="9.609253700550733"><ele>36.0</ele><time>2026-04-03T10:33:57.999Z</time></trkpt><trkpt lat="39.79291798308732" lon="9.609324358999464"><ele>35.0</ele><time>2026-04-03T10:33:58.999Z</time></trkpt><trkpt lat="39.79310663374742" lon="9.609405563940468"><ele>35.0</ele><time>2026-04-03T10:33:59.999Z</time></trkpt><trkpt lat="39.793291772793204" lon="9.609496737153973"><ele>35.0</ele><time>2026-04-03T10:34:00.999Z</time></trkpt><trkpt lat="39.7934732369156" lon="9.609597329955964"><ele>35.0</ele><time>2026-04-03T10:34:01.999Z</time></trkpt><trkpt lat="39.793651195180004" lon="9.609696192185442"><ele>34.0</ele><time>2026-04-03T10:34:02.999Z</time></trkpt><trkpt lat="39.79382651059204" lon="9.60980362785994"><ele>33.0</ele><time>2026-04-03T10:34:03.999Z</time></trkpt><trkpt lat="39.79399563136799" lon="9.60991327919814"><ele>32.0</ele><time>2026-04-03T10:34:04.999Z</time></trkpt><trkpt lat="39.7941585390352" lon="9.610038393225752"><ele>32.0</ele><time>2026-04-03T10:34:05.999Z</time></trkpt><trkpt lat="39.794316697281914" lon="9.610171047763684"><ele>32.0</ele><time>2026-04-03T10:34:06.999Z</time></trkpt><trkpt lat="39.794470296331305" lon="9.610310895396351"><ele>32.0</ele><time>2026-04-03T10:34:07.999Z</time></trkpt><trkpt lat="39.794621736062595" lon="9.610454803792644"><ele>31.333333333333332</ele><time>2026-04-03T10:34:08.999Z</time></trkpt><trkpt lat="39.79477165209927" lon="9.610598998907681"><ele>30.666666666666664</ele><time>2026-04-03T10:34:09.999Z</time></trkpt><trkpt lat="39.79491997299944" lon="9.610744941424405"><ele>30.0</ele><time>2026-04-03T10:34:10.999Z</time></trkpt><trkpt lat="39.79506723849672" lon="9.61089015367027"><ele>30.666666666666664</ele><time>2026-04-03T10:34:11.999Z</time></trkpt><trkpt lat="39.7952096874143" lon="9.611035386146401"><ele>31.333333333333332</ele><time>2026-04-03T10:34:12.999Z</time></trkpt><trkpt lat="39.795352353295186" lon="9.611181200890474"><ele>32.0</ele><time>2026-04-03T10:34:13.999Z</time></trkpt><trkpt lat="39.79549481355922" lon="9.611325668342017"><ele>32.0</ele><time>2026-04-03T10:34:14.999Z</time></trkpt><trkpt lat="39.79563669619234" lon="9.611467481696144"><ele>32.0</ele><time>2026-04-03T10:34:15.999Z</time></trkpt><trkpt lat="39.79577887796046" lon="9.611610889176466"><ele>32.0</ele><time>2026-04-03T10:34:16.999Z</time></trkpt><trkpt lat="39.79592264242249" lon="9.611756998249126"><ele>33.666666666666664</ele><time>2026-04-03T10:34:17.999Z</time></trkpt><trkpt lat="39.7960651044062" lon="9.611901494868636"><ele>35.333333333333336</ele><time>2026-04-03T10:34:18.999Z</time></trkpt><trkpt lat="39.79620734015224" lon="9.612045407904324"><ele>37.0</ele><time>2026-04-03T10:34:19.999Z</time></trkpt><trkpt lat="39.796349774449645" lon="9.612190652678052"><ele>38.333333333333336</ele><time>2026-04-03T10:34:20.999Z</time></trkpt><trkpt lat="39.79649200333194" lon="9.61233901846397"><ele>39.666666666666664</ele><time>2026-04-03T10:34:21.999Z</time></trkpt><trkpt lat="39.79663812498589" lon="9.612484236086894"><ele>41.0</ele><time>2026-04-03T10:34:22.999Z</time></trkpt><trkpt lat="39.79678815654445" lon="9.61262713473335"><ele>43.33333333333333</ele><time>2026-04-03T10:34:23.999Z</time></trkpt><trkpt lat="39.796935545271054" lon="9.612773977320451"><ele>45.666666666666664</ele><time>2026-04-03T10:34:24.999Z</time></trkpt><trkpt lat="39.797084391491374" lon="9.612925197747495"><ele>48.0</ele><time>2026-04-03T10:34:25.999Z</time></trkpt><trkpt lat="39.797233594212685" lon="9.613075425333536"><ele>48.0</ele><time>2026-04-03T10:34:26.999Z</time></trkpt><trkpt lat="39.797387121582574" lon="9.613222658034324"><ele>48.0</ele><time>2026-04-03T10:34:27.999Z</time></trkpt><trkpt lat="39.797545487478395" lon="9.61336301417645"><ele>48.0</ele><time>2026-04-03T10:34:28.999Z</time></trkpt><trkpt lat="39.79770626285498" lon="9.613501765430788"><ele>49.66666666666667</ele><time>2026-04-03T10:34:29.999Z</time></trkpt><trkpt lat="39.79787304776584" lon="9.61363299915549"><ele>51.333333333333336</ele><time>2026-04-03T10:34:30.999Z</time></trkpt><trkpt lat="39.79804305568432" lon="9.61375778459975"><ele>53.0</ele><time>2026-04-03T10:34:31.999Z</time></trkpt><trkpt lat="39.7982164152424" lon="9.61387945373658"><ele>53.0</ele><time>2026-04-03T10:34:32.999Z</time></trkpt><trkpt lat="39.798392371410664" lon="9.613996667838144"><ele>53.0</ele><time>2026-04-03T10:34:33.999Z</time></trkpt><trkpt lat="39.7985690270145" lon="9.61411080140745"><ele>53.0</ele><time>2026-04-03T10:34:34.999Z</time></trkpt><trkpt lat="39.79874615458777" lon="9.61422678742572"><ele>53.333333333333336</ele><time>2026-04-03T10:34:35.999Z</time></trkpt><trkpt lat="39.79892519342483" lon="9.614343022981869"><ele>53.66666666666667</ele><time>2026-04-03T10:34:36.999Z</time></trkpt><trkpt lat="39.799108869061676" lon="9.614459298885086"><ele>54.0</ele><time>2026-04-03T10:34:37.999Z</time></trkpt><trkpt lat="39.79928898108263" lon="9.614576807403836"><ele>55.66666666666667</ele><time>2026-04-03T10:34:38.999Z</time></trkpt><trkpt lat="39.79946887697795" lon="9.614693551118323"><ele>57.333333333333336</ele><time>2026-04-03T10:34:39.998Z</time></trkpt><trkpt lat="39.79964788159622" lon="9.614812171737162"><ele>59.0</ele><time>2026-04-03T10:34:40.999Z</time></trkpt><trkpt lat="39.7998284143393" lon="9.614926492306122"><ele>59.0</ele><time>2026-04-03T10:34:41.999Z</time></trkpt><trkpt lat="39.80001013259573" lon="9.615044250825099"><ele>59.0</ele><time>2026-04-03T10:34:42.999Z</time></trkpt><trkpt lat="39.80019217152365" lon="9.615160380579786"><ele>59.0</ele><time>2026-04-03T10:34:43.999Z</time></trkpt><trkpt lat="39.80037370840769" lon="9.61527494517575"><ele>65.0</ele><time>2026-04-03T10:34:44.999Z</time></trkpt><trkpt lat="39.800555183954486" lon="9.615389439899932"><ele>71.0</ele><time>2026-04-03T10:34:45.999Z</time></trkpt><trkpt lat="39.80073792866368" lon="9.615508167688166"><ele>77.0</ele><time>2026-04-03T10:34:46.999Z</time></trkpt><trkpt lat="39.80091916225126" lon="9.615626478886783"><ele>81.0</ele><time>2026-04-03T10:34:47.999Z</time></trkpt><trkpt lat="39.80110116631411" lon="9.615748838517895"><ele>85.0</ele><time>2026-04-03T10:34:48.999Z</time></trkpt><trkpt lat="39.801286088117806" lon="9.61587585638701"><ele>89.0</ele><time>2026-04-03T10:34:50.018Z</time></trkpt><trkpt lat="39.80146457927096" lon="9.616004969561567"><ele>89.0</ele><time>2026-04-03T10:34:51.014Z</time></trkpt><trkpt lat="39.80164197260795" lon="9.616141071679253"><ele>89.0</ele><time>2026-04-03T10:34:52.017Z</time></trkpt><trkpt lat="39.80181453213353" lon="9.616284819792376"><ele>89.0</ele><time>2026-04-03T10:34:53.016Z</time></trkpt><trkpt lat="39.8019831748542" lon="9.61643475156812"><ele>147.0</ele><time>2026-04-03T10:34:54.015Z</time></trkpt><trkpt lat="39.80396599327525" lon="9.618696268979534"><ele>148.0</ele><time>2026-04-03T10:34:58.651Z</time></trkpt><trkpt lat="39.80440426813095" lon="9.619284476504474"><ele>148.0</ele><time>2026-04-03T10:34:59.652Z</time></trkpt><trkpt lat="39.8045124" lon="9.6194296"><ele>148.0</ele><time>2026-04-03T10:35:00.651Z</time></trkpt><trkpt lat="39.81196298733336" lon="9.629414677628901"><ele>120.33333333333334</ele><time>2026-04-03T10:35:55.999Z</time></trkpt><trkpt lat="39.81211218156572" lon="9.6296129417761"><ele>92.66666666666667</ele><time>2026-04-03T10:35:56.999Z</time></trkpt><trkpt lat="39.812243566541234" lon="9.629792058441293"><ele>65.0</ele><time>2026-04-03T10:35:57.999Z</time></trkpt><trkpt lat="39.8123860304061" lon="9.629964759546986"><ele>65.0</ele><time>2026-04-03T10:35:58.999Z</time></trkpt><trkpt lat="39.81253966868104" lon="9.63016583129852"><ele>65.0</ele><time>2026-04-03T10:35:59.999Z</time></trkpt><trkpt lat="39.8126910833031" lon="9.630353623492887"><ele>65.0</ele><time>2026-04-03T10:36:00.999Z</time></trkpt><trkpt lat="39.81286039434958" lon="9.630529078535993"><ele>65.0</ele><time>2026-04-03T10:36:01.999Z</time></trkpt><trkpt lat="39.813029268458585" lon="9.630702873516277"><ele>65.0</ele><time>2026-04-03T10:36:02.999Z</time></trkpt><trkpt lat="39.813203629412406" lon="9.630884062557959"><ele>65.0</ele><time>2026-04-03T10:36:03.999Z</time></trkpt><trkpt lat="39.813380244358164" lon="9.631062797170342"><ele>64.5</ele><time>2026-04-03T10:36:04.999Z</time></trkpt><trkpt lat="39.813563146163844" lon="9.63123710480807"><ele>64.0</ele><time>2026-04-03T10:36:05.999Z</time></trkpt><trkpt lat="39.81376972300064" lon="9.631406784707355"><ele>64.0</ele><time>2026-04-03T10:36:06.999Z</time></trkpt><trkpt lat="39.81398003166079" lon="9.631546287119308"><ele>64.0</ele><time>2026-04-03T10:36:07.999Z</time></trkpt><trkpt lat="39.81419390163543" lon="9.631687749309627"><ele>62.0</ele><time>2026-04-03T10:36:08.999Z</time></trkpt><trkpt lat="39.81440740040878" lon="9.631821890154942"><ele>60.0</ele><time>2026-04-03T10:36:09.999Z</time></trkpt><trkpt lat="39.814625182231744" lon="9.63195493127907"><ele>56.5</ele><time>2026-04-03T10:36:10.999Z</time></trkpt><trkpt lat="39.814838881075715" lon="9.632087744232606"><ele>53.0</ele><time>2026-04-03T10:36:11.999Z</time></trkpt><trkpt lat="39.815056541703086" lon="9.632223834404767"><ele>51.0</ele><time>2026-04-03T10:36:12.999Z</time></trkpt><trkpt lat="39.81527517447273" lon="9.632355175530359"><ele>49.0</ele><time>2026-04-03T10:36:13.999Z</time></trkpt><trkpt lat="39.815487021333944" lon="9.632484595352336"><ele>49.0</ele><time>2026-04-03T10:36:14.999Z</time></trkpt><trkpt lat="39.815692472930856" lon="9.632618601493476"><ele>49.0</ele><time>2026-04-03T10:36:15.999Z</time></trkpt><trkpt lat="39.81589931458673" lon="9.63275578593528"><ele>47.5</ele><time>2026-04-03T10:36:16.999Z</time></trkpt><trkpt lat="39.81610546075615" lon="9.632893470322653"><ele>46.0</ele><time>2026-04-03T10:36:17.999Z</time></trkpt><trkpt lat="39.81630958403225" lon="9.633038678448722"><ele>46.0</ele><time>2026-04-03T10:36:18.999Z</time></trkpt><trkpt lat="39.81650632192697" lon="9.63319683928011"><ele>46.0</ele><time>2026-04-03T10:36:19.999Z</time></trkpt><trkpt lat="39.81669824661005" lon="9.633369443982447"><ele>47.0</ele><time>2026-04-03T10:36:20.999Z</time></trkpt><trkpt lat="39.81688656156108" lon="9.633549693378397"><ele>48.0</ele><time>2026-04-03T10:36:22Z</time></trkpt><trkpt lat="39.81707316725546" lon="9.633729528367546"><ele>48.0</ele><time>2026-04-03T10:36:23Z</time></trkpt><trkpt lat="39.81725855970665" lon="9.63391175952873"><ele>48.0</ele><time>2026-04-03T10:36:24Z</time></trkpt><trkpt lat="39.817441926161564" lon="9.634097277000375"><ele>48.0</ele><time>2026-04-03T10:36:25Z</time></trkpt><trkpt lat="39.817621409070505" lon="9.634285819856723"><ele>48.0</ele><time>2026-04-03T10:36:26Z</time></trkpt><trkpt lat="39.8178034100327" lon="9.63447103722971"><ele>46.5</ele><time>2026-04-03T10:36:27Z</time></trkpt><trkpt lat="39.81798501970356" lon="9.634657056581412"><ele>45.0</ele><time>2026-04-03T10:36:28Z</time></trkpt><trkpt lat="39.81817183334823" lon="9.634836082828588"><ele>45.0</ele><time>2026-04-03T10:36:29Z</time></trkpt><trkpt lat="39.818351514178" lon="9.635018848165357"><ele>45.0</ele><time>2026-04-03T10:36:30Z</time></trkpt><trkpt lat="39.8185182832768" lon="9.635194573376888"><ele>45.0</ele><time>2026-04-03T10:36:31Z</time></trkpt><trkpt lat="39.818678158877574" lon="9.63536421406484"><ele>45.666666666666664</ele><time>2026-04-03T10:36:32Z</time></trkpt><trkpt lat="39.818840777869646" lon="9.635528868191413"><ele>46.33333333333333</ele><time>2026-04-03T10:36:33Z</time></trkpt><trkpt lat="39.81899814738197" lon="9.635691043649869"><ele>47.0</ele><time>2026-04-03T10:36:34Z</time></trkpt><trkpt lat="39.819155760179804" lon="9.635854106950307"><ele>47.0</ele><time>2026-04-03T10:36:35Z</time></trkpt><trkpt lat="39.819311399985516" lon="9.636015752864836"><ele>47.0</ele><time>2026-04-03T10:36:36Z</time></trkpt><trkpt lat="39.8194661172047" lon="9.636176476075708"><ele>47.0</ele><time>2026-04-03T10:36:37Z</time></trkpt><trkpt lat="39.81961866880659" lon="9.636337491070933"><ele>47.33333333333333</ele><time>2026-04-03T10:36:38Z</time></trkpt><trkpt lat="39.81977100976427" lon="9.636498216855918"><ele>47.666666666666664</ele><time>2026-04-03T10:36:39Z</time></trkpt><trkpt lat="39.819923458105194" lon="9.636653925253567"><ele>48.0</ele><time>2026-04-03T10:36:40Z</time></trkpt><trkpt lat="39.82007552398023" lon="9.636810279373261"><ele>49.0</ele><time>2026-04-03T10:36:41Z</time></trkpt><trkpt lat="39.820227382365246" lon="9.636968015595212"><ele>50.0</ele><time>2026-04-03T10:36:42Z</time></trkpt><trkpt lat="39.8203838224443" lon="9.637124260419741"><ele>51.0</ele><time>2026-04-03T10:36:43Z</time></trkpt><trkpt lat="39.82053930477416" lon="9.637284160388766"><ele>51.66666666666667</ele><time>2026-04-03T10:36:44Z</time></trkpt><trkpt lat="39.82069639919308" lon="9.63744362402744"><ele>52.333333333333336</ele><time>2026-04-03T10:36:44.998Z</time></trkpt><trkpt lat="39.820855524065095" lon="9.637605484980385"><ele>53.0</ele><time>2026-04-03T10:36:45.998Z</time></trkpt><trkpt lat="39.8210183609449" lon="9.637768493029576"><ele>52.0</ele><time>2026-04-03T10:36:46.998Z</time></trkpt><trkpt lat="39.82118120203211" lon="9.637935588271667"><ele>51.0</ele><time>2026-04-03T10:36:47.998Z</time></trkpt><trkpt lat="39.82134470926575" lon="9.638103641887868"><ele>50.0</ele><time>2026-04-03T10:36:48.998Z</time></trkpt><trkpt lat="39.82151035262939" lon="9.638273992008697"><ele>50.0</ele><time>2026-04-03T10:36:49.998Z</time></trkpt><trkpt lat="39.82167587512866" lon="9.63844621919057"><ele>50.0</ele><time>2026-04-03T10:36:50.998Z</time></trkpt><trkpt lat="39.821834343660754" lon="9.63862360832245"><ele>50.0</ele><time>2026-04-03T10:36:51.999Z</time></trkpt><trkpt lat="39.82200268216138" lon="9.638796273711947"><ele>47.66666666666667</ele><time>2026-04-03T10:36:52.999Z</time></trkpt><trkpt lat="39.82217225088413" lon="9.638966572952"><ele>45.333333333333336</ele><time>2026-04-03T10:36:53.999Z</time></trkpt><trkpt lat="39.822338074145435" lon="9.639135508040928"><ele>43.0</ele><time>2026-04-03T10:36:54.999Z</time></trkpt><trkpt lat="39.82250535300514" lon="9.63930334111613"><ele>44.66666666666667</ele><time>2026-04-03T10:36:55.999Z</time></trkpt><trkpt lat="39.82267129777409" lon="9.639473694023454"><ele>46.333333333333336</ele><time>2026-04-03T10:36:56.999Z</time></trkpt><trkpt lat="39.8228377921128" lon="9.639647325227859"><ele>48.0</ele><time>2026-04-03T10:36:57.999Z</time></trkpt><trkpt lat="39.82300601339263" lon="9.639819113175633"><ele>48.0</ele><time>2026-04-03T10:36:58.999Z</time></trkpt><trkpt lat="39.82316888302612" lon="9.63999098433726"><ele>48.0</ele><time>2026-04-03T10:36:59.999Z</time></trkpt><trkpt lat="39.82333980538606" lon="9.64015603615099"><ele>48.0</ele><time>2026-04-03T10:37:00.999Z</time></trkpt><trkpt lat="39.82351682029243" lon="9.640317199023228"><ele>46.0</ele><time>2026-04-03T10:37:01.999Z</time></trkpt><trkpt lat="39.82369423307274" lon="9.640475146161926"><ele>44.0</ele><time>2026-04-03T10:37:02.999Z</time></trkpt><trkpt lat="39.82387763472355" lon="9.640621546229008"><ele>42.0</ele><time>2026-04-03T10:37:03.999Z</time></trkpt><trkpt lat="39.824067451302035" lon="9.640757528972038"><ele>42.0</ele><time>2026-04-03T10:37:04.999Z</time></trkpt><trkpt lat="39.82426009949128" lon="9.640884663253727"><ele>42.0</ele><time>2026-04-03T10:37:05.999Z</time></trkpt><trkpt lat="39.824453795347516" lon="9.641008459888331"><ele>42.0</ele><time>2026-04-03T10:37:06.999Z</time></trkpt><trkpt lat="39.824635560204136" lon="9.641161129224002"><ele>39.333333333333336</ele><time>2026-04-03T10:37:07.999Z</time></trkpt><trkpt lat="39.82484613258426" lon="9.641241717390155"><ele>36.66666666666667</ele><time>2026-04-03T10:37:08.999Z</time></trkpt><trkpt lat="39.825042991929024" lon="9.641358093969565"><ele>34.0</ele><time>2026-04-03T10:37:09.999Z</time></trkpt><trkpt lat="39.82524381926398" lon="9.641474796341749"><ele>33.66666666666667</ele><time>2026-04-03T10:37:10.999Z</time></trkpt><trkpt lat="39.825448297158744" lon="9.641589932924935"><ele>33.333333333333336</ele><time>2026-04-03T10:37:11.999Z</time></trkpt><trkpt lat="39.82565202212909" lon="9.641702684652026"><ele>33.0</ele><time>2026-04-03T10:37:12.999Z</time></trkpt><trkpt lat="39.82585792225111" lon="9.64181836624177"><ele>33.0</ele><time>2026-04-03T10:37:13.999Z</time></trkpt><trkpt lat="39.82606397690125" lon="9.641934054666454"><ele>33.0</ele><time>2026-04-03T10:37:14.999Z</time></trkpt><trkpt lat="39.826271716952" lon="9.642054895345053"><ele>33.0</ele><time>2026-04-03T10:37:15.999Z</time></trkpt><trkpt lat="39.826478138077036" lon="9.64217478842637"><ele>33.0</ele><time>2026-04-03T10:37:16.999Z</time></trkpt><trkpt lat="39.82668365764869" lon="9.642295846785908"><ele>36.0</ele><time>2026-04-03T10:37:17.999Z</time></trkpt><trkpt lat="39.8268898917527" lon="9.642417678730997"><ele>39.0</ele><time>2026-04-03T10:37:18.999Z</time></trkpt><trkpt lat="39.82709593064853" lon="9.642536839855849"><ele>39.0</ele><time>2026-04-03T10:37:19.999Z</time></trkpt><trkpt lat="39.827301109786234" lon="9.642652828438914"><ele>39.0</ele><time>2026-04-03T10:37:20.999Z</time></trkpt><trkpt lat="39.82750646948777" lon="9.642769486978265"><ele>39.0</ele><time>2026-04-03T10:37:21.999Z</time></trkpt><trkpt lat="39.827708416573174" lon="9.642886564444506"><ele>40.666666666666664</ele><time>2026-04-03T10:37:23Z</time></trkpt><trkpt lat="39.82790626038406" lon="9.642996172842905"><ele>42.33333333333333</ele><time>2026-04-03T10:37:24Z</time></trkpt><trkpt lat="39.82809982419293" lon="9.643103930970897"><ele>44.0</ele><time>2026-04-03T10:37:25Z</time></trkpt><trkpt lat="39.82829547896882" lon="9.64320939410664"><ele>44.666666666666664</ele><time>2026-04-03T10:37:26Z</time></trkpt><trkpt lat="39.828485329497035" lon="9.643310459851312"><ele>45.333333333333336</ele><time>2026-04-03T10:37:27Z</time></trkpt><trkpt lat="39.82866922716568" lon="9.643411814714126"><ele>46.0</ele><time>2026-04-03T10:37:28Z</time></trkpt><trkpt lat="39.82884421973081" lon="9.643517879353961"><ele>46.0</ele><time>2026-04-03T10:37:29Z</time></trkpt><trkpt lat="39.829019527921545" lon="9.643620212900421"><ele>46.0</ele><time>2026-04-03T10:37:30Z</time></trkpt><trkpt lat="39.82919127995995" lon="9.6437263911478"><ele>46.0</ele><time>2026-04-03T10:37:31Z</time></trkpt><trkpt lat="39.82936317843678" lon="9.643827970075586"><ele>47.333333333333336</ele><time>2026-04-03T10:37:32Z</time></trkpt><trkpt lat="39.829537390600926" lon="9.643924951718738"><ele>48.66666666666667</ele><time>2026-04-03T10:37:33Z</time></trkpt><trkpt lat="39.8297125125221" lon="9.644023146134566"><ele>50.0</ele><time>2026-04-03T10:37:34Z</time></trkpt><trkpt lat="39.82988631351337" lon="9.644123181968846"><ele>50.0</ele><time>2026-04-03T10:37:35Z</time></trkpt><trkpt lat="39.830067389258396" lon="9.644231135443665"><ele>50.0</ele><time>2026-04-03T10:37:36Z</time></trkpt><trkpt lat="39.8302557885745" lon="9.644338002314852"><ele>50.0</ele><time>2026-04-03T10:37:37Z</time></trkpt><trkpt lat="39.830443258383205" lon="9.644442555247956"><ele>54.333333333333336</ele><time>2026-04-03T10:37:38Z</time></trkpt><trkpt lat="39.83062684641012" lon="9.644536812853469"><ele>58.66666666666667</ele><time>2026-04-03T10:37:39Z</time></trkpt><trkpt lat="39.830809284628785" lon="9.64462411506502"><ele>63.0</ele><time>2026-04-03T10:37:40Z</time></trkpt><trkpt lat="39.83098101693256" lon="9.64470288775895"><ele>67.66666666666667</ele><time>2026-04-03T10:37:41Z</time></trkpt><trkpt lat="39.8311410059943" lon="9.644770603741877"><ele>72.33333333333334</ele><time>2026-04-03T10:37:42Z</time></trkpt><trkpt lat="39.83129579446849" lon="9.644828548812848"><ele>77.0</ele><time>2026-04-03T10:37:43Z</time></trkpt><trkpt lat="39.83145143210884" lon="9.644882141835453"><ele>77.0</ele><time>2026-04-03T10:37:44Z</time></trkpt><trkpt lat="39.83160738467127" lon="9.644922566866239"><ele>77.0</ele><time>2026-04-03T10:37:45Z</time></trkpt><trkpt lat="39.831768224807114" lon="9.644945629113797"><ele>77.0</ele><time>2026-04-03T10:37:46Z</time></trkpt><trkpt lat="39.831936730381166" lon="9.644960020700834"><ele>77.66666666666667</ele><time>2026-04-03T10:37:47.025Z</time></trkpt><trkpt lat="39.83210359208818" lon="9.644967128279188"><ele>78.33333333333333</ele><time>2026-04-03T10:37:48.023Z</time></trkpt><trkpt lat="39.832268543482314" lon="9.64496711941609"><ele>79.0</ele><time>2026-04-03T10:37:49.015Z</time></trkpt><trkpt lat="39.83243201691757" lon="9.644959302623596"><ele>79.0</ele><time>2026-04-03T10:37:50.017Z</time></trkpt><trkpt lat="39.83259470298785" lon="9.644938724074828"><ele>79.0</ele><time>2026-04-03T10:37:51Z</time></trkpt><trkpt lat="39.83276833210934" lon="9.645004291388664"><ele>79.0</ele><time>2026-04-03T10:37:52Z</time></trkpt><trkpt lat="39.83294011528841" lon="9.644987884125285"><ele>76.66666666666666</ele><time>2026-04-03T10:37:53Z</time></trkpt><trkpt lat="39.833102354504604" lon="9.644959495675888"><ele>74.33333333333333</ele><time>2026-04-03T10:37:54Z</time></trkpt><trkpt lat="39.83326947551996" lon="9.644919363804483"><ele>72.0</ele><time>2026-04-03T10:37:55Z</time></trkpt><trkpt lat="39.8334310849114" lon="9.644873549469425"><ele>69.0</ele><time>2026-04-03T10:37:56Z</time></trkpt><trkpt lat="39.833593714103195" lon="9.644819856308208"><ele>66.0</ele><time>2026-04-03T10:37:57Z</time></trkpt><trkpt lat="39.8337527433854" lon="9.644768759361627"><ele>63.0</ele><time>2026-04-03T10:37:58Z</time></trkpt><trkpt lat="39.83391178298687" lon="9.644706692614282"><ele>63.0</ele><time>2026-04-03T10:37:59Z</time></trkpt><trkpt lat="39.83407553176818" lon="9.644642844084851"><ele>63.0</ele><time>2026-04-03T10:38:00Z</time></trkpt><trkpt lat="39.83424711247945" lon="9.644578893763256"><ele>63.0</ele><time>2026-04-03T10:38:01Z</time></trkpt><trkpt lat="39.834421856652604" lon="9.64451184315212"><ele>69.0</ele><time>2026-04-03T10:38:02Z</time></trkpt><trkpt lat="39.83460033183605" lon="9.644441031136362"><ele>75.0</ele><time>2026-04-03T10:38:03Z</time></trkpt><trkpt lat="39.834779419915115" lon="9.644361671654945"><ele>81.0</ele><time>2026-04-03T10:38:04Z</time></trkpt><trkpt lat="39.834960866746506" lon="9.644279191727838"><ele>80.0</ele><time>2026-04-03T10:38:05Z</time></trkpt><trkpt lat="39.835148847103234" lon="9.64419350221532"><ele>79.0</ele><time>2026-04-03T10:38:06Z</time></trkpt><trkpt lat="39.835343513682616" lon="9.644100059761017"><ele>78.0</ele><time>2026-04-03T10:38:07Z</time></trkpt><trkpt lat="39.835544815248845" lon="9.643996757430026"><ele>78.0</ele><time>2026-04-03T10:38:08Z</time></trkpt><trkpt lat="39.835749091846566" lon="9.643876723864068"><ele>78.0</ele><time>2026-04-03T10:38:09Z</time></trkpt><trkpt lat="39.83594694288024" lon="9.643742965063348"><ele>78.0</ele><time>2026-04-03T10:38:10Z</time></trkpt><trkpt lat="39.83613209828781" lon="9.643600185850072"><ele>83.33333333333333</ele><time>2026-04-03T10:38:11Z</time></trkpt><trkpt lat="39.83631382936983" lon="9.643461601568191"><ele>88.66666666666666</ele><time>2026-04-03T10:38:12Z</time></trkpt><trkpt lat="39.83649368786177" lon="9.64331375935319"><ele>94.0</ele><time>2026-04-03T10:38:13Z</time></trkpt><trkpt lat="39.836670881827885" lon="9.64317307236413"><ele>93.0</ele><time>2026-04-03T10:38:14Z</time></trkpt><trkpt lat="39.83684953758013" lon="9.643028039144928"><ele>92.0</ele><time>2026-04-03T10:38:15.023Z</time></trkpt><trkpt lat="39.83702104646648" lon="9.642891112823376"><ele>91.0</ele><time>2026-04-03T10:38:16.015Z</time></trkpt><trkpt lat="39.83717519674624" lon="9.642730138984104"><ele>89.0</ele><time>2026-04-03T10:38:17.02Z</time></trkpt><trkpt lat="39.83731752208478" lon="9.642558237847437"><ele>87.0</ele><time>2026-04-03T10:38:18Z</time></trkpt><trkpt lat="39.83743477925691" lon="9.642249377686719"><ele>87.0</ele><time>2026-04-03T10:38:19Z</time></trkpt><trkpt lat="39.83759714243491" lon="9.642048291535085"><ele>87.0</ele><time>2026-04-03T10:38:20Z</time></trkpt><trkpt lat="39.83775277286454" lon="9.641849020259968"><ele>87.0</ele><time>2026-04-03T10:38:21Z</time></trkpt><trkpt lat="39.83791718458851" lon="9.641639333618608"><ele>82.0</ele><time>2026-04-03T10:38:22Z</time></trkpt><trkpt lat="39.838089829542206" lon="9.641440955094582"><ele>77.0</ele><time>2026-04-03T10:38:23Z</time></trkpt><trkpt lat="39.83825344501844" lon="9.64123575364987"><ele>78.0</ele><time>2026-04-03T10:38:24Z</time></trkpt><trkpt lat="39.83841570037616" lon="9.641032258020397"><ele>79.0</ele><time>2026-04-03T10:38:25Z</time></trkpt><trkpt lat="39.83857709247449" lon="9.640829845067273"><ele>80.0</ele><time>2026-04-03T10:38:26Z</time></trkpt><trkpt lat="39.83874199999198" lon="9.640623023185091"><ele>80.0</ele><time>2026-04-03T10:38:27Z</time></trkpt><trkpt lat="39.83890923012421" lon="9.640413288352311"><ele>80.0</ele><time>2026-04-03T10:38:28Z</time></trkpt><trkpt lat="39.83907965191723" lon="9.64019955063781"><ele>80.0</ele><time>2026-04-03T10:38:29Z</time></trkpt><trkpt lat="39.83924416391572" lon="9.63996617205581"><ele>80.0</ele><time>2026-04-03T10:38:30Z</time></trkpt><trkpt lat="39.83942099700907" lon="9.639741261407446"><ele>81.0</ele><time>2026-04-03T10:38:31Z</time></trkpt><trkpt lat="39.83961180691953" lon="9.63952994985517"><ele>82.0</ele><time>2026-04-03T10:38:32Z</time></trkpt><trkpt lat="39.839788219766135" lon="9.639310001912204"><ele>89.5</ele><time>2026-04-03T10:38:33Z</time></trkpt><trkpt lat="39.83996199984087" lon="9.639093379129339"><ele>97.0</ele><time>2026-04-03T10:38:34Z</time></trkpt><trkpt lat="39.84013051437099" lon="9.638883596882808"><ele>94.5</ele><time>2026-04-03T10:38:35Z</time></trkpt><trkpt lat="39.840297215660804" lon="9.638676618407967"><ele>92.0</ele><time>2026-04-03T10:38:36Z</time></trkpt><trkpt lat="39.840460796055254" lon="9.6384712580722"><ele>92.0</ele><time>2026-04-03T10:38:37Z</time></trkpt><trkpt lat="39.840622668768745" lon="9.638267656741215"><ele>92.0</ele><time>2026-04-03T10:38:38Z</time></trkpt><trkpt lat="39.840783409005816" lon="9.638065609233294"><ele>92.0</ele><time>2026-04-03T10:38:39Z</time></trkpt><trkpt lat="39.840958116205556" lon="9.637848061163023"><ele>85.5</ele><time>2026-04-03T10:38:40Z</time></trkpt><trkpt lat="39.84113056296459" lon="9.637633325980758"><ele>79.0</ele><time>2026-04-03T10:38:41Z</time></trkpt><trkpt lat="39.84129031161031" lon="9.637403825884702"><ele>79.0</ele><time>2026-04-03T10:38:42Z</time></trkpt><trkpt lat="39.84146453969414" lon="9.63719368184112"><ele>79.0</ele><time>2026-04-03T10:38:43Z</time></trkpt><trkpt lat="39.841636141225564" lon="9.636976394860897"><ele>77.0</ele><time>2026-04-03T10:38:44Z</time></trkpt><trkpt lat="39.841808010161614" lon="9.636763317556067"><ele>75.0</ele><time>2026-04-03T10:38:45Z</time></trkpt><trkpt lat="39.84198310224906" lon="9.63655619450373"><ele>75.0</ele><time>2026-04-03T10:38:46Z</time></trkpt><trkpt lat="39.84216534351491" lon="9.636357587339337"><ele>75.0</ele><time>2026-04-03T10:38:47Z</time></trkpt><trkpt lat="39.842356702287645" lon="9.636170080080674"><ele>74.5</ele><time>2026-04-03T10:38:48Z</time></trkpt><trkpt lat="39.842556643847274" lon="9.635988888797385"><ele>74.0</ele><time>2026-04-03T10:38:49Z</time></trkpt><trkpt lat="39.84276042769943" lon="9.635815578926467"><ele>74.0</ele><time>2026-04-03T10:38:50Z</time></trkpt><trkpt lat="39.84296781672887" lon="9.635658424331448"><ele>74.0</ele><time>2026-04-03T10:38:51.001Z</time></trkpt><trkpt lat="39.843180629062026" lon="9.635515650384043"><ele>74.0</ele><time>2026-04-03T10:38:52.001Z</time></trkpt><trkpt lat="39.843399585232774" lon="9.635391188376268"><ele>74.0</ele><time>2026-04-03T10:38:53.001Z</time></trkpt><trkpt lat="39.84362471632995" lon="9.63528579387138"><ele>77.5</ele><time>2026-04-03T10:38:54.001Z</time></trkpt><trkpt lat="39.84385549259651" lon="9.635196721314422"><ele>81.0</ele><time>2026-04-03T10:38:55.001Z</time></trkpt><trkpt lat="39.84409212539182" lon="9.635120560272535"><ele>78.0</ele><time>2026-04-03T10:38:56.001Z</time></trkpt><trkpt lat="39.84433226721625" lon="9.635060129084481"><ele>75.0</ele><time>2026-04-03T10:38:57.001Z</time></trkpt><trkpt lat="39.84456789248567" lon="9.634997013673923"><ele>75.0</ele><time>2026-04-03T10:38:58.001Z</time></trkpt><trkpt lat="39.84480782689481" lon="9.634941650955982"><ele>75.0</ele><time>2026-04-03T10:38:59.001Z</time></trkpt><trkpt lat="39.845049049287525" lon="9.634893212062515"><ele>73.0</ele><time>2026-04-03T10:39:00.001Z</time></trkpt><trkpt lat="39.84529256445246" lon="9.634848622256383"><ele>71.0</ele><time>2026-04-03T10:39:01.001Z</time></trkpt><trkpt lat="39.845551036855774" lon="9.634795078575785"><ele>71.0</ele><time>2026-04-03T10:39:02.001Z</time></trkpt><trkpt lat="39.8458035460342" lon="9.634748426445473"><ele>71.0</ele><time>2026-04-03T10:39:03.001Z</time></trkpt><trkpt lat="39.84605222115657" lon="9.634701137002956"><ele>69.0</ele><time>2026-04-03T10:39:04.001Z</time></trkpt><trkpt lat="39.84630514911999" lon="9.634658870751805"><ele>67.0</ele><time>2026-04-03T10:39:05.001Z</time></trkpt><trkpt lat="39.846556249691645" lon="9.63462118621446"><ele>60.0</ele><time>2026-04-03T10:39:06.001Z</time></trkpt><trkpt lat="39.84680658473094" lon="9.634590438972214"><ele>53.0</ele><time>2026-04-03T10:39:07.001Z</time></trkpt><trkpt lat="39.84705786883112" lon="9.634571164334297"><ele>53.0</ele><time>2026-04-03T10:39:08.001Z</time></trkpt><trkpt lat="39.84730879472635" lon="9.634560699537117"><ele>53.0</ele><time>2026-04-03T10:39:09.001Z</time></trkpt><trkpt lat="39.84756065186177" lon="9.634564804136938"><ele>48.0</ele><time>2026-04-03T10:39:10.001Z</time></trkpt><trkpt lat="39.84781161752138" lon="9.634587167153422"><ele>43.0</ele><time>2026-04-03T10:39:11.001Z</time></trkpt><trkpt lat="39.84805874653755" lon="9.634625814956603"><ele>43.0</ele><time>2026-04-03T10:39:12.001Z</time></trkpt><trkpt lat="39.84830321708892" lon="9.63467822633083"><ele>43.0</ele><time>2026-04-03T10:39:13.001Z</time></trkpt><trkpt lat="39.84854725797803" lon="9.63474358549558"><ele>39.0</ele><time>2026-04-03T10:39:14.001Z</time></trkpt><trkpt lat="39.848790094510015" lon="9.634820692841329"><ele>35.0</ele><time>2026-04-03T10:39:15.001Z</time></trkpt><trkpt lat="39.84903124220287" lon="9.634916262528913"><ele>35.0</ele><time>2026-04-03T10:39:16.001Z</time></trkpt><trkpt lat="39.8492665792216" lon="9.635030930186067"><ele>35.0</ele><time>2026-04-03T10:39:17.001Z</time></trkpt><trkpt lat="39.84949822153738" lon="9.6351594130173"><ele>34.0</ele><time>2026-04-03T10:39:18.001Z</time></trkpt><trkpt lat="39.84972540500977" lon="9.635301204633754"><ele>33.0</ele><time>2026-04-03T10:39:19.001Z</time></trkpt><trkpt lat="39.849950320181335" lon="9.635457438671622"><ele>40.0</ele><time>2026-04-03T10:39:20.001Z</time></trkpt><trkpt lat="39.850171545193795" lon="9.635624223179363"><ele>47.0</ele><time>2026-04-03T10:39:21.001Z</time></trkpt><trkpt lat="39.85038395829533" lon="9.63580167551248"><ele>47.0</ele><time>2026-04-03T10:39:22.001Z</time></trkpt><trkpt lat="39.85058961011743" lon="9.635990029993435"><ele>47.0</ele><time>2026-04-03T10:39:23.001Z</time></trkpt><trkpt lat="39.850794217875766" lon="9.636181595991305"><ele>45.5</ele><time>2026-04-03T10:39:24.001Z</time></trkpt><trkpt lat="39.85099711443321" lon="9.636374213278323"><ele>44.0</ele><time>2026-04-03T10:39:25.001Z</time></trkpt><trkpt lat="39.851202382241475" lon="9.636568993993192"><ele>44.0</ele><time>2026-04-03T10:39:26.001Z</time></trkpt><trkpt lat="39.85141072977489" lon="9.636767074260767"><ele>44.0</ele><time>2026-04-03T10:39:27.001Z</time></trkpt><trkpt lat="39.85162181296085" lon="9.636978323524632"><ele>39.5</ele><time>2026-04-03T10:39:28.001Z</time></trkpt><trkpt lat="39.85184158986424" lon="9.637196067706286"><ele>35.0</ele><time>2026-04-03T10:39:29.001Z</time></trkpt><trkpt lat="39.85206946845619" lon="9.637417893018352"><ele>35.0</ele><time>2026-04-03T10:39:30.001Z</time></trkpt><trkpt lat="39.85228954342738" lon="9.637629046275999"><ele>35.0</ele><time>2026-04-03T10:39:31.001Z</time></trkpt><trkpt lat="39.85249673688802" lon="9.637832876974622"><ele>32.5</ele><time>2026-04-03T10:39:32.001Z</time></trkpt><trkpt lat="39.85268906174184" lon="9.638021507147641"><ele>30.0</ele><time>2026-04-03T10:39:33.001Z</time></trkpt><trkpt lat="39.8528743140866" lon="9.638210907611137"><ele>30.0</ele><time>2026-04-03T10:39:34.001Z</time></trkpt><trkpt lat="39.85305594304427" lon="9.638395577432572"><ele>30.0</ele><time>2026-04-03T10:39:35.001Z</time></trkpt><trkpt lat="39.85323321444697" lon="9.638574486573473"><ele>30.0</ele><time>2026-04-03T10:39:36.001Z</time></trkpt><trkpt lat="39.85341499467357" lon="9.638749032023942"><ele>30.0</ele><time>2026-04-03T10:39:37.001Z</time></trkpt><trkpt lat="39.85359128247127" lon="9.638921807048341"><ele>30.0</ele><time>2026-04-03T10:39:38.001Z</time></trkpt><trkpt lat="39.85376789902191" lon="9.639090787624482"><ele>31.0</ele><time>2026-04-03T10:39:39.001Z</time></trkpt><trkpt lat="39.853941506800794" lon="9.639260265263943"><ele>32.0</ele><time>2026-04-03T10:39:40.001Z</time></trkpt><trkpt lat="39.854112404590786" lon="9.639429986236179"><ele>33.0</ele><time>2026-04-03T10:39:41.001Z</time></trkpt><trkpt lat="39.85428143300368" lon="9.639600165570574"><ele>34.0</ele><time>2026-04-03T10:39:42.001Z</time></trkpt><trkpt lat="39.85444515251757" lon="9.639774897474332"><ele>35.0</ele><time>2026-04-03T10:39:43.001Z</time></trkpt><trkpt lat="39.85461131993417" lon="9.639942863083409"><ele>36.0</ele><time>2026-04-03T10:39:44.001Z</time></trkpt><trkpt lat="39.854779534559576" lon="9.64010664788603"><ele>36.0</ele><time>2026-04-03T10:39:45.001Z</time></trkpt><trkpt lat="39.854949260535605" lon="9.640273293029574"><ele>36.0</ele><time>2026-04-03T10:39:46.001Z</time></trkpt><trkpt lat="39.85512629408189" lon="9.640439557534744"><ele>36.0</ele><time>2026-04-03T10:39:47.001Z</time></trkpt><trkpt lat="39.855306424571" lon="9.640607284318085"><ele>38.666666666666664</ele><time>2026-04-03T10:39:48.001Z</time></trkpt><trkpt lat="39.85547954939852" lon="9.640781124099219"><ele>41.33333333333333</ele><time>2026-04-03T10:39:49.001Z</time></trkpt><trkpt lat="39.85566026800643" lon="9.640952208764276"><ele>44.0</ele><time>2026-04-03T10:39:50.001Z</time></trkpt><trkpt lat="39.8558374374505" lon="9.641134689872032"><ele>48.5</ele><time>2026-04-03T10:39:51.001Z</time></trkpt><trkpt lat="39.85600616307587" lon="9.641334213181926"><ele>53.0</ele><time>2026-04-03T10:39:52.001Z</time></trkpt><trkpt lat="39.85616307451983" lon="9.64154849808504"><ele>53.0</ele><time>2026-04-03T10:39:53.001Z</time></trkpt><trkpt lat="39.856312325046645" lon="9.641770958599153"><ele>53.0</ele><time>2026-04-03T10:39:54.001Z</time></trkpt><trkpt lat="39.85645892606676" lon="9.641991205014385"><ele>54.66666666666667</ele><time>2026-04-03T10:39:55.001Z</time></trkpt><trkpt lat="39.85660417763011" lon="9.642200625884005"><ele>56.33333333333333</ele><time>2026-04-03T10:39:56.001Z</time></trkpt><trkpt lat="39.85673737327271" lon="9.642396567696728"><ele>58.0</ele><time>2026-04-03T10:39:57.001Z</time></trkpt><trkpt lat="39.85686025023086" lon="9.642575663657345"><ele>58.0</ele><time>2026-04-03T10:39:58.001Z</time></trkpt><trkpt lat="39.85697658754709" lon="9.642743976257728"><ele>58.0</ele><time>2026-04-03T10:39:59.001Z</time></trkpt><trkpt lat="39.85708668645485" lon="9.642907127119045"><ele>58.0</ele><time>2026-04-03T10:40:00.001Z</time></trkpt><trkpt lat="39.85719637394039" lon="9.64306645605027"><ele>59.666666666666664</ele><time>2026-04-03T10:40:01.001Z</time></trkpt><trkpt lat="39.85730400561957" lon="9.643220262767873"><ele>61.33333333333333</ele><time>2026-04-03T10:40:02.001Z</time></trkpt><trkpt lat="39.85740775008245" lon="9.643371769035044"><ele>63.0</ele><time>2026-04-03T10:40:03.001Z</time></trkpt><trkpt lat="39.85750930474838" lon="9.643517523534443"><ele>62.66666666666667</ele><time>2026-04-03T10:40:04.001Z</time></trkpt><trkpt lat="39.857607595353215" lon="9.643666139907053"><ele>62.333333333333336</ele><time>2026-04-03T10:40:05.001Z</time></trkpt><trkpt lat="39.85771264487101" lon="9.643807941223269"><ele>62.0</ele><time>2026-04-03T10:40:06.001Z</time></trkpt><trkpt lat="39.85781333939971" lon="9.643955979429135"><ele>62.0</ele><time>2026-04-03T10:40:07.001Z</time></trkpt><trkpt lat="39.85791345580782" lon="9.644109136646351"><ele>62.0</ele><time>2026-04-03T10:40:08.001Z</time></trkpt><trkpt lat="39.858018509465325" lon="9.64425802868224"><ele>62.0</ele><time>2026-04-03T10:40:09.001Z</time></trkpt><trkpt lat="39.858125403849094" lon="9.644407203094365"><ele>62.333333333333336</ele><time>2026-04-03T10:40:10.001Z</time></trkpt><trkpt lat="39.85823424488924" lon="9.644555787165284"><ele>62.66666666666667</ele><time>2026-04-03T10:40:11.001Z</time></trkpt><trkpt lat="39.858343578019344" lon="9.644700903959963"><ele>63.0</ele><time>2026-04-03T10:40:12.001Z</time></trkpt><trkpt lat="39.858456955262405" lon="9.644842271784473"><ele>63.0</ele><time>2026-04-03T10:40:13.001Z</time></trkpt><trkpt lat="39.858574396117646" lon="9.644978992891824"><ele>63.0</ele><time>2026-04-03T10:40:14.001Z</time></trkpt><trkpt lat="39.85869420395591" lon="9.645109328634714"><ele>63.0</ele><time>2026-04-03T10:40:15.001Z</time></trkpt><trkpt lat="39.85881834431084" lon="9.645243122372777"><ele>63.66666666666667</ele><time>2026-04-03T10:40:16.001Z</time></trkpt><trkpt lat="39.85895390584508" lon="9.645377482635345"><ele>64.33333333333334</ele><time>2026-04-03T10:40:17.001Z</time></trkpt><trkpt lat="39.85909808511949" lon="9.645502489377135"><ele>65.0</ele><time>2026-04-03T10:40:18.001Z</time></trkpt><trkpt lat="39.859251968180715" lon="9.645618875858924"><ele>66.33333333333334</ele><time>2026-04-03T10:40:19.001Z</time></trkpt><trkpt lat="39.85941213427061" lon="9.645731274045993"><ele>67.66666666666667</ele><time>2026-04-03T10:40:20.001Z</time></trkpt><trkpt lat="39.85957820882744" lon="9.6458419394392"><ele>69.0</ele><time>2026-04-03T10:40:21.001Z</time></trkpt><trkpt lat="39.85975025481554" lon="9.64594510249435"><ele>69.0</ele><time>2026-04-03T10:40:22.001Z</time></trkpt><trkpt lat="39.85992747879632" lon="9.646039141583488"><ele>69.0</ele><time>2026-04-03T10:40:23.001Z</time></trkpt><trkpt lat="39.86010974513353" lon="9.646127509142751"><ele>69.0</ele><time>2026-04-03T10:40:24.001Z</time></trkpt><trkpt lat="39.86029814592147" lon="9.646209377356708"><ele>73.0</ele><time>2026-04-03T10:40:25.001Z</time></trkpt><trkpt lat="39.86049480562215" lon="9.646282464047571"><ele>77.0</ele><time>2026-04-03T10:40:26.001Z</time></trkpt><trkpt lat="39.86069734737493" lon="9.646340076147682"><ele>81.0</ele><time>2026-04-03T10:40:27.001Z</time></trkpt><trkpt lat="39.86090383126916" lon="9.646388933423589"><ele>84.0</ele><time>2026-04-03T10:40:28.001Z</time></trkpt><trkpt lat="39.861114881819255" lon="9.646425297160068"><ele>87.0</ele><time>2026-04-03T10:40:29.001Z</time></trkpt><trkpt lat="39.86132662397674" lon="9.646449605329739"><ele>90.0</ele><time>2026-04-03T10:40:30.001Z</time></trkpt><trkpt lat="39.86154206671408" lon="9.646458269673937"><ele>90.0</ele><time>2026-04-03T10:40:31.001Z</time></trkpt><trkpt lat="39.86176250849923" lon="9.646452163116454"><ele>90.0</ele><time>2026-04-03T10:40:32.001Z</time></trkpt><trkpt lat="39.86198600509922" lon="9.646436980680392"><ele>90.0</ele><time>2026-04-03T10:40:33.001Z</time></trkpt><trkpt lat="39.86220946561685" lon="9.64641256464711"><ele>89.5</ele><time>2026-04-03T10:40:34.001Z</time></trkpt><trkpt lat="39.86243765000477" lon="9.646388400597043"><ele>89.0</ele><time>2026-04-03T10:40:35.001Z</time></trkpt><trkpt lat="39.862669694748526" lon="9.64636991743607"><ele>89.0</ele><time>2026-04-03T10:40:36.001Z</time></trkpt><trkpt lat="39.86289643683684" lon="9.646346028952815"><ele>89.0</ele><time>2026-04-03T10:40:37.001Z</time></trkpt><trkpt lat="39.863127304669064" lon="9.64632041080895"><ele>89.0</ele><time>2026-04-03T10:40:38.001Z</time></trkpt><trkpt lat="39.86335899268486" lon="9.646320116433547"><ele>89.0</ele><time>2026-04-03T10:40:39.001Z</time></trkpt><trkpt lat="39.86358773762682" lon="9.646287810334249"><ele>87.0</ele><time>2026-04-03T10:40:40.001Z</time></trkpt><trkpt lat="39.863818782036105" lon="9.64628298645704"><ele>85.0</ele><time>2026-04-03T10:40:41.001Z</time></trkpt><trkpt lat="39.86404999464238" lon="9.646299333947127"><ele>81.0</ele><time>2026-04-03T10:40:42.001Z</time></trkpt><trkpt lat="39.86428006897348" lon="9.646333302251714"><ele>77.0</ele><time>2026-04-03T10:40:43.001Z</time></trkpt><trkpt lat="39.86450637034916" lon="9.6463838685511"><ele>77.0</ele><time>2026-04-03T10:40:44.001Z</time></trkpt><trkpt lat="39.864731572068486" lon="9.646452209814111"><ele>77.0</ele><time>2026-04-03T10:40:45.001Z</time></trkpt><trkpt lat="39.865178968996446" lon="9.646619054126738"><ele>75.0</ele><time>2026-04-03T10:40:47.001Z</time></trkpt><trkpt lat="39.865397969363244" lon="9.646725634618361"><ele>73.0</ele><time>2026-04-03T10:40:48.001Z</time></trkpt><trkpt lat="39.865610147517856" lon="9.646854091006125"><ele>73.0</ele><time>2026-04-03T10:40:49.001Z</time></trkpt><trkpt lat="39.865821433183555" lon="9.646990821944135"><ele>73.0</ele><time>2026-04-03T10:40:50.001Z</time></trkpt><trkpt lat="39.86602733135079" lon="9.647135500350204"><ele>69.5</ele><time>2026-04-03T10:40:51.001Z</time></trkpt><trkpt lat="39.86623200609741" lon="9.647284960130715"><ele>66.0</ele><time>2026-04-03T10:40:52.001Z</time></trkpt><trkpt lat="39.866439507106826" lon="9.647435101807206"><ele>66.0</ele><time>2026-04-03T10:40:53.001Z</time></trkpt><trkpt lat="39.86664556976802" lon="9.647589742579143"><ele>66.0</ele><time>2026-04-03T10:40:54.001Z</time></trkpt><trkpt lat="39.86685346735746" lon="9.647740186001807"><ele>66.5</ele><time>2026-04-03T10:40:55.001Z</time></trkpt><trkpt lat="39.867064534079915" lon="9.647887295472465"><ele>67.0</ele><time>2026-04-03T10:40:56.001Z</time></trkpt><trkpt lat="39.8672765529195" lon="9.648040019944691"><ele>67.0</ele><time>2026-04-03T10:40:57.001Z</time></trkpt><trkpt lat="39.867489334353166" lon="9.648195091386908"><ele>67.0</ele><time>2026-04-03T10:40:58.001Z</time></trkpt><trkpt lat="39.86770377609874" lon="9.648346218322827"><ele>67.0</ele><time>2026-04-03T10:40:59.001Z</time></trkpt><trkpt lat="39.86792464695826" lon="9.648495355610018"><ele>67.0</ele><time>2026-04-03T10:41:00.001Z</time></trkpt><trkpt lat="39.868149949437935" lon="9.64863695136173"><ele>67.0</ele><time>2026-04-03T10:41:01.001Z</time></trkpt><trkpt lat="39.86838150013838" lon="9.648766212153152"><ele>67.0</ele><time>2026-04-03T10:41:02.001Z</time></trkpt><trkpt lat="39.868616429660335" lon="9.648877542514747"><ele>65.5</ele><time>2026-04-03T10:41:03.001Z</time></trkpt><trkpt lat="39.86885862543458" lon="9.648967603757324"><ele>64.0</ele><time>2026-04-03T10:41:04.001Z</time></trkpt><trkpt lat="39.869105117288754" lon="9.649041798721393"><ele>65.0</ele><time>2026-04-03T10:41:05.001Z</time></trkpt><trkpt lat="39.869352366661296" lon="9.649099466919445"><ele>66.0</ele><time>2026-04-03T10:41:06.001Z</time></trkpt><trkpt lat="39.86960151019401" lon="9.649137876769448"><ele>66.0</ele><time>2026-04-03T10:41:07.001Z</time></trkpt><trkpt lat="39.869851070861486" lon="9.64915547130731"><ele>66.0</ele><time>2026-04-03T10:41:08.001Z</time></trkpt><trkpt lat="39.870099530827595" lon="9.649150624023124"><ele>67.0</ele><time>2026-04-03T10:41:09.001Z</time></trkpt><trkpt lat="39.8703471560216" lon="9.649131526738769"><ele>68.0</ele><time>2026-04-03T10:41:10.001Z</time></trkpt><trkpt lat="39.87059281397062" lon="9.649098983916138"><ele>68.0</ele><time>2026-04-03T10:41:11.001Z</time></trkpt><trkpt lat="39.870836163890374" lon="9.649050429262122"><ele>68.0</ele><time>2026-04-03T10:41:12.001Z</time></trkpt><trkpt lat="39.87108475295771" lon="9.648989557321359"><ele>63.0</ele><time>2026-04-03T10:41:13.001Z</time></trkpt><trkpt lat="39.871346790880295" lon="9.648912042951284"><ele>58.0</ele><time>2026-04-03T10:41:14.001Z</time></trkpt><trkpt lat="39.87162386590206" lon="9.648818305262976"><ele>54.0</ele><time>2026-04-03T10:41:15.001Z</time></trkpt><trkpt lat="39.871916343305" lon="9.648714752756515"><ele>50.0</ele><time>2026-04-03T10:41:16.001Z</time></trkpt><trkpt lat="39.87221695640383" lon="9.648610661059228"><ele>50.0</ele><time>2026-04-03T10:41:17.001Z</time></trkpt><trkpt lat="39.87249731062551" lon="9.648510040458268"><ele>50.0</ele><time>2026-04-03T10:41:18.001Z</time></trkpt><trkpt lat="39.872761899327145" lon="9.648418358520711"><ele>47.0</ele><time>2026-04-03T10:41:19.001Z</time></trkpt><trkpt lat="39.873027752050106" lon="9.64833366489487"><ele>44.0</ele><time>2026-04-03T10:41:20.001Z</time></trkpt><trkpt lat="39.87328665177059" lon="9.648273967192988"><ele>42.5</ele><time>2026-04-03T10:41:21.001Z</time></trkpt><trkpt lat="39.873538720854484" lon="9.648241498273979"><ele>41.0</ele><time>2026-04-03T10:41:22.001Z</time></trkpt><trkpt lat="39.87379496488787" lon="9.648217295627042"><ele>41.0</ele><time>2026-04-03T10:41:23.001Z</time></trkpt><trkpt lat="39.874057045610016" lon="9.648218214969624"><ele>41.0</ele><time>2026-04-03T10:41:24.001Z</time></trkpt><trkpt lat="39.87431185266986" lon="9.648240563187718"><ele>42.0</ele><time>2026-04-03T10:41:25.001Z</time></trkpt><trkpt lat="39.87454938035732" lon="9.648284746135367"><ele>43.0</ele><time>2026-04-03T10:41:26.001Z</time></trkpt><trkpt lat="39.8747739967262" lon="9.648340925511206"><ele>43.0</ele><time>2026-04-03T10:41:27.001Z</time></trkpt><trkpt lat="39.87499619185522" lon="9.64840479175118"><ele>43.0</ele><time>2026-04-03T10:41:28.001Z</time></trkpt><trkpt lat="39.87521666982166" lon="9.648478355026812"><ele>42.0</ele><time>2026-04-03T10:41:29.001Z</time></trkpt><trkpt lat="39.875434190675584" lon="9.648562804095832"><ele>41.0</ele><time>2026-04-03T10:41:30.001Z</time></trkpt><trkpt lat="39.87565043013617" lon="9.648649765936856"><ele>41.0</ele><time>2026-04-03T10:41:31.001Z</time></trkpt><trkpt lat="39.87586354210381" lon="9.648734359175888"><ele>41.0</ele><time>2026-04-03T10:41:32.001Z</time></trkpt><trkpt lat="39.87607666600762" lon="9.648827767028097"><ele>41.0</ele><time>2026-04-03T10:41:33.001Z</time></trkpt><trkpt lat="39.87628753930079" lon="9.648917286692347"><ele>42.0</ele><time>2026-04-03T10:41:34.001Z</time></trkpt><trkpt lat="39.87649537134193" lon="9.649001982025236"><ele>43.0</ele><time>2026-04-03T10:41:35.001Z</time></trkpt><trkpt lat="39.87670252242715" lon="9.649088936334365"><ele>44.0</ele><time>2026-04-03T10:41:36.001Z</time></trkpt><trkpt lat="39.87690890887581" lon="9.649174304636805"><ele>44.666666666666664</ele><time>2026-04-03T10:41:37.001Z</time></trkpt><trkpt lat="39.877111063030966" lon="9.649261086034025"><ele>45.333333333333336</ele><time>2026-04-03T10:41:38.001Z</time></trkpt><trkpt lat="39.87731234270718" lon="9.649342730372865"><ele>46.0</ele><time>2026-04-03T10:41:39.001Z</time></trkpt><trkpt lat="39.87751142160981" lon="9.649422330451822"><ele>44.0</ele><time>2026-04-03T10:41:40.001Z</time></trkpt><trkpt lat="39.87770593326874" lon="9.649507930309023"><ele>42.0</ele><time>2026-04-03T10:41:41.001Z</time></trkpt><trkpt lat="39.87790032054165" lon="9.649587157449872"><ele>40.0</ele><time>2026-04-03T10:41:42.001Z</time></trkpt><trkpt lat="39.878092681465624" lon="9.64966406884476"><ele>40.0</ele><time>2026-04-03T10:41:43.001Z</time></trkpt><trkpt lat="39.878283286260974" lon="9.649742134109841"><ele>40.0</ele><time>2026-04-03T10:41:44.001Z</time></trkpt><trkpt lat="39.878469967637635" lon="9.64981931990086"><ele>40.0</ele><time>2026-04-03T10:41:45.001Z</time></trkpt><trkpt lat="39.87865592678874" lon="9.649896908829426"><ele>41.333333333333336</ele><time>2026-04-03T10:41:46.001Z</time></trkpt><trkpt lat="39.878844991205064" lon="9.649976031194594"><ele>42.666666666666664</ele><time>2026-04-03T10:41:47.001Z</time></trkpt><trkpt lat="39.879036150488155" lon="9.650048161777502"><ele>44.0</ele><time>2026-04-03T10:41:48.001Z</time></trkpt><trkpt lat="39.87923229232512" lon="9.650113857141347"><ele>44.666666666666664</ele><time>2026-04-03T10:41:49.001Z</time></trkpt><trkpt lat="39.87942979121299" lon="9.65017819231406"><ele>45.333333333333336</ele><time>2026-04-03T10:41:50.001Z</time></trkpt><trkpt lat="39.879627776675" lon="9.650233368154757"><ele>46.0</ele><time>2026-04-03T10:41:51.001Z</time></trkpt><trkpt lat="39.879831331201785" lon="9.65027846122304"><ele>42.66666666666667</ele><time>2026-04-03T10:41:52.001Z</time></trkpt><trkpt lat="39.88003810107328" lon="9.650317365992125"><ele>39.333333333333336</ele><time>2026-04-03T10:41:53Z</time></trkpt><trkpt lat="39.88024513243908" lon="9.650352952175515"><ele>36.0</ele><time>2026-04-03T10:41:54Z</time></trkpt><trkpt lat="39.88045690464495" lon="9.650381569241718"><ele>35.0</ele><time>2026-04-03T10:41:55Z</time></trkpt><trkpt lat="39.88066803930037" lon="9.6504164758625"><ele>34.0</ele><time>2026-04-03T10:41:56Z</time></trkpt><trkpt lat="39.88088221678981" lon="9.650455848789207"><ele>33.0</ele><time>2026-04-03T10:41:57Z</time></trkpt><trkpt lat="39.88109084823269" lon="9.650494723319785"><ele>33.0</ele><time>2026-04-03T10:41:58Z</time></trkpt><trkpt lat="39.881288850790874" lon="9.650534797542651"><ele>33.0</ele><time>2026-04-03T10:41:59Z</time></trkpt><trkpt lat="39.881481694031216" lon="9.650585832472187"><ele>33.0</ele><time>2026-04-03T10:42:00Z</time></trkpt><trkpt lat="39.88166636072406" lon="9.65060614988726"><ele>32.333333333333336</ele><time>2026-04-03T10:42:01Z</time></trkpt><trkpt lat="39.8818458371179" lon="9.650629137527002"><ele>31.666666666666668</ele><time>2026-04-03T10:42:02Z</time></trkpt><trkpt lat="39.88203550335609" lon="9.650652492222715"><ele>31.0</ele><time>2026-04-03T10:42:03Z</time></trkpt><trkpt lat="39.8822271750427" lon="9.65067779674481"><ele>31.0</ele><time>2026-04-03T10:42:04Z</time></trkpt><trkpt lat="39.88242647064504" lon="9.650704661687387"><ele>31.0</ele><time>2026-04-03T10:42:05Z</time></trkpt><trkpt lat="39.88263144239639" lon="9.650733790123953"><ele>31.0</ele><time>2026-04-03T10:42:06Z</time></trkpt><trkpt lat="39.8828412739643" lon="9.650768789200614"><ele>30.666666666666668</ele><time>2026-04-03T10:42:07Z</time></trkpt><trkpt lat="39.883059275128" lon="9.650806102046335"><ele>30.333333333333336</ele><time>2026-04-03T10:42:08Z</time></trkpt><trkpt lat="39.88328175431579" lon="9.65083971493152"><ele>30.0</ele><time>2026-04-03T10:42:09Z</time></trkpt><trkpt lat="39.88351498893047" lon="9.650872813967673"><ele>29.0</ele><time>2026-04-03T10:42:10Z</time></trkpt><trkpt lat="39.88375402370837" lon="9.650906662678587"><ele>28.0</ele><time>2026-04-03T10:42:11Z</time></trkpt><trkpt lat="39.88398828529747" lon="9.65093977226094"><ele>28.0</ele><time>2026-04-03T10:42:12Z</time></trkpt><trkpt lat="39.88422514003444" lon="9.650975145541448"><ele>28.0</ele><time>2026-04-03T10:42:13Z</time></trkpt><trkpt lat="39.88446443643301" lon="9.651011512779561"><ele>29.0</ele><time>2026-04-03T10:42:14Z</time></trkpt><trkpt lat="39.88470441657381" lon="9.651047183487002"><ele>30.0</ele><time>2026-04-03T10:42:15Z</time></trkpt><trkpt lat="39.884942763099986" lon="9.651080460534994"><ele>31.0</ele><time>2026-04-03T10:42:16Z</time></trkpt><trkpt lat="39.88518067834367" lon="9.651112660512657"><ele>32.0</ele><time>2026-04-03T10:42:17Z</time></trkpt><trkpt lat="39.88541996953308" lon="9.651135862280276"><ele>32.0</ele><time>2026-04-03T10:42:18Z</time></trkpt><trkpt lat="39.885657967952824" lon="9.651151502194907"><ele>32.0</ele><time>2026-04-03T10:42:19Z</time></trkpt><trkpt lat="39.88589575134089" lon="9.65115474287955"><ele>32.5</ele><time>2026-04-03T10:42:20Z</time></trkpt><trkpt lat="39.88613063581115" lon="9.65114345117607"><ele>33.0</ele><time>2026-04-03T10:42:21.001Z</time></trkpt><trkpt lat="39.88636354595745" lon="9.651120455545987"><ele>34.5</ele><time>2026-04-03T10:42:22.001Z</time></trkpt><trkpt lat="39.88659199054048" lon="9.651089750627905"><ele>36.0</ele><time>2026-04-03T10:42:23.001Z</time></trkpt><trkpt lat="39.88681531183489" lon="9.651052392419547"><ele>36.0</ele><time>2026-04-03T10:42:24.001Z</time></trkpt><trkpt lat="39.88703099732807" lon="9.651018665078242"><ele>36.0</ele><time>2026-04-03T10:42:25.001Z</time></trkpt><trkpt lat="39.887239664958656" lon="9.650982845603068"><ele>36.0</ele><time>2026-04-03T10:42:26.001Z</time></trkpt><trkpt lat="39.887444725099286" lon="9.65095624134544"><ele>36.0</ele><time>2026-04-03T10:42:27.001Z</time></trkpt><trkpt lat="39.887645401198576" lon="9.650935043988522"><ele>36.0</ele><time>2026-04-03T10:42:28.001Z</time></trkpt><trkpt lat="39.88783816360343" lon="9.650911241615434"><ele>36.0</ele><time>2026-04-03T10:42:29.001Z</time></trkpt><trkpt lat="39.88802773757227" lon="9.650881754833815"><ele>36.0</ele><time>2026-04-03T10:42:30.001Z</time></trkpt><trkpt lat="39.88821515398729" lon="9.650853864847642"><ele>36.0</ele><time>2026-04-03T10:42:31.001Z</time></trkpt><trkpt lat="39.88839984312071" lon="9.650829629641258"><ele>36.0</ele><time>2026-04-03T10:42:32.001Z</time></trkpt><trkpt lat="39.88858607501015" lon="9.650802713052032"><ele>36.333333333333336</ele><time>2026-04-03T10:42:33.001Z</time></trkpt><trkpt lat="39.88877572622931" lon="9.650774021508765"><ele>36.66666666666667</ele><time>2026-04-03T10:42:34.001Z</time></trkpt><trkpt lat="39.88896933366743" lon="9.650747227637533"><ele>37.0</ele><time>2026-04-03T10:42:35.001Z</time></trkpt><trkpt lat="39.88916511677613" lon="9.650718999680093"><ele>37.0</ele><time>2026-04-03T10:42:36.001Z</time></trkpt><trkpt lat="39.88936511633769" lon="9.650688517156725"><ele>37.0</ele><time>2026-04-03T10:42:37.001Z</time></trkpt><trkpt lat="39.88956807613966" lon="9.650655528229427"><ele>37.0</ele><time>2026-04-03T10:42:38.001Z</time></trkpt><trkpt lat="39.88977250796707" lon="9.650622666014337"><ele>37.0</ele><time>2026-04-03T10:42:39.001Z</time></trkpt><trkpt lat="39.88997755380446" lon="9.650593545343243"><ele>37.0</ele><time>2026-04-03T10:42:40.001Z</time></trkpt><trkpt lat="39.8901864416251" lon="9.650563404718625"><ele>37.0</ele><time>2026-04-03T10:42:41.001Z</time></trkpt><trkpt lat="39.89039722830518" lon="9.650534291129926"><ele>38.0</ele><time>2026-04-03T10:42:42.001Z</time></trkpt><trkpt lat="39.890610437910375" lon="9.650501722918428"><ele>39.0</ele><time>2026-04-03T10:42:43.001Z</time></trkpt><trkpt lat="39.89082630598621" lon="9.650462008375268"><ele>40.0</ele><time>2026-04-03T10:42:44.001Z</time></trkpt><trkpt lat="39.89105043497456" lon="9.650408895036493"><ele>40.5</ele><time>2026-04-03T10:42:45.001Z</time></trkpt><trkpt lat="39.89127096289656" lon="9.650352416641681"><ele>41.0</ele><time>2026-04-03T10:42:46.001Z</time></trkpt><trkpt lat="39.89149587945774" lon="9.650281733527407"><ele>42.5</ele><time>2026-04-03T10:42:47.001Z</time></trkpt><trkpt lat="39.891720611197364" lon="9.6502097429615"><ele>44.0</ele><time>2026-04-03T10:42:48.001Z</time></trkpt><trkpt lat="39.89194572472028" lon="9.65013141118917"><ele>44.0</ele><time>2026-04-03T10:42:49.001Z</time></trkpt><trkpt lat="39.89216765048382" lon="9.650049864597296"><ele>44.0</ele><time>2026-04-03T10:42:50.001Z</time></trkpt><trkpt lat="39.89239020220417" lon="9.649967620335898"><ele>44.0</ele><time>2026-04-03T10:42:51.001Z</time></trkpt><trkpt lat="39.892611346090234" lon="9.649884229289706"><ele>44.0</ele><time>2026-04-03T10:42:52.001Z</time></trkpt><trkpt lat="39.892835062318916" lon="9.649803577562329"><ele>44.0</ele><time>2026-04-03T10:42:53.001Z</time></trkpt><trkpt lat="39.89306083849444" lon="9.649721929369681"><ele>44.0</ele><time>2026-04-03T10:42:54.001Z</time></trkpt><trkpt lat="39.893287064037146" lon="9.649635284783743"><ele>44.5</ele><time>2026-04-03T10:42:55.001Z</time></trkpt><trkpt lat="39.89351232280198" lon="9.649545760598512"><ele>45.0</ele><time>2026-04-03T10:42:56.001Z</time></trkpt><trkpt lat="39.89373314148082" lon="9.649457825620596"><ele>48.5</ele><time>2026-04-03T10:42:57.001Z</time></trkpt><trkpt lat="39.89395474428923" lon="9.649371608651975"><ele>52.0</ele><time>2026-04-03T10:42:58.001Z</time></trkpt><trkpt lat="39.89417401250128" lon="9.649286183873159"><ele>50.5</ele><time>2026-04-03T10:42:59.001Z</time></trkpt><trkpt lat="39.89439239183897" lon="9.649199667007613"><ele>49.0</ele><time>2026-04-03T10:43:00.001Z</time></trkpt><trkpt lat="39.89460874879739" lon="9.649113635045001"><ele>49.0</ele><time>2026-04-03T10:43:01.001Z</time></trkpt><trkpt lat="39.89482516525123" lon="9.649027419450519"><ele>49.0</ele><time>2026-04-03T10:43:02.001Z</time></trkpt><trkpt lat="39.89504057635105" lon="9.64894691625435"><ele>49.33333333333333</ele><time>2026-04-03T10:43:03Z</time></trkpt><trkpt lat="39.895258940271084" lon="9.648870518865877"><ele>49.66666666666667</ele><time>2026-04-03T10:43:04Z</time></trkpt><trkpt lat="39.89546514376889" lon="9.648804484036347"><ele>50.0</ele><time>2026-04-03T10:43:05Z</time></trkpt><trkpt lat="39.895664268897015" lon="9.64875109364614"><ele>50.0</ele><time>2026-04-03T10:43:06Z</time></trkpt><trkpt lat="39.89586677904472" lon="9.648699923647845"><ele>50.0</ele><time>2026-04-03T10:43:07Z</time></trkpt><trkpt lat="39.89606982393981" lon="9.64866186995833"><ele>50.0</ele><time>2026-04-03T10:43:08Z</time></trkpt><trkpt lat="39.896266710277814" lon="9.64862555695031"><ele>49.66666666666667</ele><time>2026-04-03T10:43:09Z</time></trkpt><trkpt lat="39.896454371167124" lon="9.648601113507274"><ele>49.33333333333333</ele><time>2026-04-03T10:43:10Z</time></trkpt><trkpt lat="39.89664335723364" lon="9.648581938655868"><ele>49.0</ele><time>2026-04-03T10:43:11Z</time></trkpt><trkpt lat="39.896839677326064" lon="9.648575765470369"><ele>49.0</ele><time>2026-04-03T10:43:12Z</time></trkpt><trkpt lat="39.89704512926334" lon="9.648568524424741"><ele>49.0</ele><time>2026-04-03T10:43:13Z</time></trkpt><trkpt lat="39.897262526042724" lon="9.648569982334559"><ele>49.0</ele><time>2026-04-03T10:43:14Z</time></trkpt><trkpt lat="39.89749225679967" lon="9.648577776745919"><ele>48.0</ele><time>2026-04-03T10:43:15Z</time></trkpt><trkpt lat="39.89772052307538" lon="9.648591362995303"><ele>47.0</ele><time>2026-04-03T10:43:16Z</time></trkpt><trkpt lat="39.89794723812974" lon="9.648615564165734"><ele>45.0</ele><time>2026-04-03T10:43:17Z</time></trkpt><trkpt lat="39.89818454975548" lon="9.648639603085709"><ele>43.0</ele><time>2026-04-03T10:43:18Z</time></trkpt><trkpt lat="39.898422967843686" lon="9.648662241488909"><ele>42.5</ele><time>2026-04-03T10:43:19Z</time></trkpt><trkpt lat="39.898662892082385" lon="9.648686623382916"><ele>42.0</ele><time>2026-04-03T10:43:20Z</time></trkpt><trkpt lat="39.89890256310145" lon="9.648711159517092"><ele>42.0</ele><time>2026-04-03T10:43:21Z</time></trkpt><trkpt lat="39.89914665583246" lon="9.648734732605837"><ele>42.0</ele><time>2026-04-03T10:43:22Z</time></trkpt><trkpt lat="39.89939119561238" lon="9.64875796753965"><ele>40.5</ele><time>2026-04-03T10:43:23Z</time></trkpt><trkpt lat="39.89963576956801" lon="9.648783735291913"><ele>39.0</ele><time>2026-04-03T10:43:24Z</time></trkpt><trkpt lat="39.89987629599018" lon="9.64881564442013"><ele>39.0</ele><time>2026-04-03T10:43:25Z</time></trkpt><trkpt lat="39.90011715717147" lon="9.648842600145022"><ele>39.0</ele><time>2026-04-03T10:43:26Z</time></trkpt><trkpt lat="39.90034834901977" lon="9.648865622316501"><ele>39.0</ele><time>2026-04-03T10:43:27Z</time></trkpt><trkpt lat="39.90057202820788" lon="9.648890204861408"><ele>39.0</ele><time>2026-04-03T10:43:28Z</time></trkpt><trkpt lat="39.90079101677333" lon="9.648913793483977"><ele>39.0</ele><time>2026-04-03T10:43:29Z</time></trkpt><trkpt lat="39.90101226686106" lon="9.64893838761078"><ele>38.666666666666664</ele><time>2026-04-03T10:43:30Z</time></trkpt><trkpt lat="39.90123516817267" lon="9.648958496852925"><ele>38.33333333333333</ele><time>2026-04-03T10:43:31Z</time></trkpt><trkpt lat="39.90145911465393" lon="9.648966867816519"><ele>38.0</ele><time>2026-04-03T10:43:32Z</time></trkpt><trkpt lat="39.90168471961872" lon="9.648998780384124"><ele>37.0</ele><time>2026-04-03T10:43:33Z</time></trkpt><trkpt lat="39.901910976448825" lon="9.649021809087154"><ele>36.0</ele><time>2026-04-03T10:43:34Z</time></trkpt><trkpt lat="39.90213126355933" lon="9.649043100169708"><ele>35.0</ele><time>2026-04-03T10:43:35Z</time></trkpt><trkpt lat="39.90235389697604" lon="9.649043700587937"><ele>35.0</ele><time>2026-04-03T10:43:36Z</time></trkpt><trkpt lat="39.90256641305418" lon="9.649066994550259"><ele>35.0</ele><time>2026-04-03T10:43:37Z</time></trkpt><trkpt lat="39.902768346559064" lon="9.649091525803021"><ele>35.0</ele><time>2026-04-03T10:43:38Z</time></trkpt><trkpt lat="39.902967140258205" lon="9.649116959690117"><ele>34.33333333333333</ele><time>2026-04-03T10:43:39Z</time></trkpt><trkpt lat="39.90316796553476" lon="9.649136826726236"><ele>33.666666666666664</ele><time>2026-04-03T10:43:40Z</time></trkpt><trkpt lat="39.90336917126623" lon="9.649157611077484"><ele>33.0</ele><time>2026-04-03T10:43:41Z</time></trkpt><trkpt lat="39.903568041493614" lon="9.649176051901293"><ele>32.666666666666664</ele><time>2026-04-03T10:43:42Z</time></trkpt><trkpt lat="39.90375907550695" lon="9.64919470003384"><ele>32.33333333333333</ele><time>2026-04-03T10:43:43Z</time></trkpt><trkpt lat="39.90394604628196" lon="9.649212363802208"><ele>32.0</ele><time>2026-04-03T10:43:44Z</time></trkpt><trkpt lat="39.904137821993956" lon="9.649227935564129"><ele>32.0</ele><time>2026-04-03T10:43:45Z</time></trkpt><trkpt lat="39.90433071049519" lon="9.649245960785029"><ele>32.0</ele><time>2026-04-03T10:43:46Z</time></trkpt><trkpt lat="39.90452586004842" lon="9.649265055588849"><ele>32.0</ele><time>2026-04-03T10:43:47Z</time></trkpt><trkpt lat="39.90472420721623" lon="9.649280431986968"><ele>32.0</ele><time>2026-04-03T10:43:48Z</time></trkpt><trkpt lat="39.90492554302564" lon="9.649293418278654"><ele>32.0</ele><time>2026-04-03T10:43:49Z</time></trkpt><trkpt lat="39.90512978514752" lon="9.64930581156548"><ele>32.0</ele><time>2026-04-03T10:43:50Z</time></trkpt><trkpt lat="39.9053368055579" lon="9.649315264502972"><ele>32.33333333333333</ele><time>2026-04-03T10:43:51Z</time></trkpt><trkpt lat="39.90554615789666" lon="9.64932593768922"><ele>32.666666666666664</ele><time>2026-04-03T10:43:52Z</time></trkpt><trkpt lat="39.905759061644815" lon="9.649337466980771"><ele>33.0</ele><time>2026-04-03T10:43:53Z</time></trkpt><trkpt lat="39.90597096930942" lon="9.649342986054137"><ele>32.0</ele><time>2026-04-03T10:43:54Z</time></trkpt><trkpt lat="39.90618989319808" lon="9.649344410557587"><ele>31.0</ele><time>2026-04-03T10:43:55Z</time></trkpt><trkpt lat="39.90640774365614" lon="9.64934686279727"><ele>30.0</ele><time>2026-04-03T10:43:56Z</time></trkpt><trkpt lat="39.90662442225836" lon="9.649361435560495"><ele>30.666666666666664</ele><time>2026-04-03T10:43:57Z</time></trkpt><trkpt lat="39.90684876988845" lon="9.649368986851105"><ele>31.333333333333332</ele><time>2026-04-03T10:43:58Z</time></trkpt><trkpt lat="39.90707187307076" lon="9.649380894079778"><ele>32.0</ele><time>2026-04-03T10:43:59Z</time></trkpt><trkpt lat="39.90729994664257" lon="9.649389111107533"><ele>32.0</ele><time>2026-04-03T10:44:00Z</time></trkpt><trkpt lat="39.90753370930869" lon="9.649394273715204"><ele>32.0</ele><time>2026-04-03T10:44:01Z</time></trkpt><trkpt lat="39.90776373680127" lon="9.649402973623884"><ele>31.5</ele><time>2026-04-03T10:44:02Z</time></trkpt><trkpt lat="39.90799222360506" lon="9.6494110626013"><ele>31.0</ele><time>2026-04-03T10:44:03Z</time></trkpt><trkpt lat="39.90821821624558" lon="9.649420194978878"><ele>29.666666666666668</ele><time>2026-04-03T10:44:04Z</time></trkpt><trkpt lat="39.908436188259415" lon="9.64942770280104"><ele>28.333333333333336</ele><time>2026-04-03T10:44:05Z</time></trkpt><trkpt lat="39.90864524972566" lon="9.649435927847628"><ele>27.0</ele><time>2026-04-03T10:44:06Z</time></trkpt><trkpt lat="39.90885321778952" lon="9.649445758275846"><ele>25.666666666666668</ele><time>2026-04-03T10:44:07Z</time></trkpt><trkpt lat="39.90905793451433" lon="9.649462386595339"><ele>24.333333333333336</ele><time>2026-04-03T10:44:08Z</time></trkpt><trkpt lat="39.90925704592539" lon="9.649480222770295"><ele>23.0</ele><time>2026-04-03T10:44:09Z</time></trkpt><trkpt lat="39.909455670585935" lon="9.64949822582227"><ele>22.666666666666668</ele><time>2026-04-03T10:44:10Z</time></trkpt><trkpt lat="39.90965475179341" lon="9.649512431888134"><ele>22.333333333333332</ele><time>2026-04-03T10:44:11Z</time></trkpt><trkpt lat="39.909851750880456" lon="9.649532221749007"><ele>22.0</ele><time>2026-04-03T10:44:12Z</time></trkpt><trkpt lat="39.91005145515255" lon="9.649560809374087"><ele>22.0</ele><time>2026-04-03T10:44:13Z</time></trkpt><trkpt lat="39.91025089555731" lon="9.649589610506899"><ele>22.0</ele><time>2026-04-03T10:44:14Z</time></trkpt><trkpt lat="39.9104499055893" lon="9.649623320324384"><ele>22.0</ele><time>2026-04-03T10:44:15Z</time></trkpt><trkpt lat="39.910648561909014" lon="9.649661311825318"><ele>22.0</ele><time>2026-04-03T10:44:16Z</time></trkpt><trkpt lat="39.91084734900734" lon="9.649700873151604"><ele>22.0</ele><time>2026-04-03T10:44:17Z</time></trkpt><trkpt lat="39.91104756630723" lon="9.649743027787402"><ele>22.0</ele><time>2026-04-03T10:44:18Z</time></trkpt><trkpt lat="39.911245346045646" lon="9.649786568748244"><ele>22.0</ele><time>2026-04-03T10:44:19Z</time></trkpt><trkpt lat="39.91144403168873" lon="9.649831445290742"><ele>22.0</ele><time>2026-04-03T10:44:20Z</time></trkpt><trkpt lat="39.91164237579164" lon="9.649873888989083"><ele>22.0</ele><time>2026-04-03T10:44:21Z</time></trkpt><trkpt lat="39.91184189366639" lon="9.649913681973548"><ele>22.0</ele><time>2026-04-03T10:44:22Z</time></trkpt><trkpt lat="39.91204141306426" lon="9.649949392264157"><ele>22.0</ele><time>2026-04-03T10:44:23Z</time></trkpt><trkpt lat="39.9122404736118" lon="9.649989753601217"><ele>22.0</ele><time>2026-04-03T10:44:24Z</time></trkpt><trkpt lat="39.91244251938633" lon="9.650031438780806"><ele>22.333333333333332</ele><time>2026-04-03T10:44:25Z</time></trkpt><trkpt lat="39.91264624942874" lon="9.650063827590357"><ele>22.666666666666668</ele><time>2026-04-03T10:44:26Z</time></trkpt><trkpt lat="39.91285387309151" lon="9.650086446829635"><ele>23.0</ele><time>2026-04-03T10:44:27Z</time></trkpt><trkpt lat="39.91306011561977" lon="9.650110160448987"><ele>23.0</ele><time>2026-04-03T10:44:28Z</time></trkpt><trkpt lat="39.91326642501192" lon="9.650132543020238"><ele>23.0</ele><time>2026-04-03T10:44:29Z</time></trkpt><trkpt lat="39.913473053350266" lon="9.650149260360447"><ele>23.0</ele><time>2026-04-03T10:44:30Z</time></trkpt><trkpt lat="39.91368295057464" lon="9.650164962891248"><ele>23.666666666666668</ele><time>2026-04-03T10:44:31Z</time></trkpt><trkpt lat="39.91389185528458" lon="9.650177682922685"><ele>24.333333333333336</ele><time>2026-04-03T10:44:32Z</time></trkpt><trkpt lat="39.91410110554741" lon="9.650193280904865"><ele>25.0</ele><time>2026-04-03T10:44:33Z</time></trkpt><trkpt lat="39.91431360014417" lon="9.650204698635505"><ele>25.0</ele><time>2026-04-03T10:44:34Z</time></trkpt><trkpt lat="39.914523953139195" lon="9.65021346264251"><ele>25.0</ele><time>2026-04-03T10:44:35Z</time></trkpt><trkpt lat="39.91473612086888" lon="9.650223534930156"><ele>25.0</ele><time>2026-04-03T10:44:36Z</time></trkpt><trkpt lat="39.91494734249698" lon="9.650233448982767"><ele>23.666666666666668</ele><time>2026-04-03T10:44:37Z</time></trkpt><trkpt lat="39.91516151621515" lon="9.650236133329381"><ele>22.333333333333336</ele><time>2026-04-03T10:44:38Z</time></trkpt><trkpt lat="39.91537356779037" lon="9.650240682918373"><ele>21.0</ele><time>2026-04-03T10:44:39Z</time></trkpt><trkpt lat="39.9155667754877" lon="9.650244758899317"><ele>21.0</ele><time>2026-04-03T10:44:40Z</time></trkpt><trkpt lat="39.91574650708303" lon="9.650258779469219"><ele>21.0</ele><time>2026-04-03T10:44:41Z</time></trkpt><trkpt lat="39.91591791416549" lon="9.650267080909188"><ele>21.0</ele><time>2026-04-03T10:44:42Z</time></trkpt><trkpt lat="39.91606018028448" lon="9.650271359539483"><ele>20.8</ele><time>2026-04-03T10:44:43Z</time></trkpt><trkpt lat="39.916171287852485" lon="9.650276652353469"><ele>20.6</ele><time>2026-04-03T10:44:44Z</time></trkpt><trkpt lat="39.91628395307208" lon="9.650289405712046"><ele>20.4</ele><time>2026-04-03T10:44:45Z</time></trkpt><trkpt lat="39.916383100241816" lon="9.65033556571811"><ele>20.2</ele><time>2026-04-03T10:44:46Z</time></trkpt><trkpt lat="39.916454629536545" lon="9.650422992631428"><ele>20.0</ele><time>2026-04-03T10:44:47Z</time></trkpt><trkpt lat="39.91653222953587" lon="9.65051078489298"><ele>19.75</ele><time>2026-04-03T10:44:48Z</time></trkpt><trkpt lat="39.916642458017684" lon="9.65055050688252"><ele>19.5</ele><time>2026-04-03T10:44:49Z</time></trkpt><trkpt lat="39.91675673029159" lon="9.650597315071275"><ele>19.25</ele><time>2026-04-03T10:44:50Z</time></trkpt><trkpt lat="39.916855488776974" lon="9.650702637919268"><ele>19.0</ele><time>2026-04-03T10:44:51Z</time></trkpt><trkpt lat="39.916941118494776" lon="9.650826698567842"><ele>19.0</ele><time>2026-04-03T10:44:52Z</time></trkpt><trkpt lat="39.91702603624329" lon="9.650965869097641"><ele>19.0</ele><time>2026-04-03T10:44:53Z</time></trkpt><trkpt lat="39.91712556056401" lon="9.6511023151591"><ele>19.0</ele><time>2026-04-03T10:44:54Z</time></trkpt><trkpt lat="39.91724465423363" lon="9.651226810773961"><ele>19.0</ele><time>2026-04-03T10:44:55Z</time></trkpt><trkpt lat="39.917377222881" lon="9.65133957604451"><ele>19.0</ele><time>2026-04-03T10:44:56Z</time></trkpt><trkpt lat="39.91753111310372" lon="9.6514603610581"><ele>19.0</ele><time>2026-04-03T10:44:57Z</time></trkpt><trkpt lat="39.91767371610634" lon="9.651596279534697"><ele>19.0</ele><time>2026-04-03T10:44:58Z</time></trkpt><trkpt lat="39.917815580375155" lon="9.651733286396185"><ele>18.666666666666664</ele><time>2026-04-03T10:44:59Z</time></trkpt><trkpt lat="39.91796389457416" lon="9.651866039847874"><ele>18.333333333333332</ele><time>2026-04-03T10:45:00Z</time></trkpt><trkpt lat="39.91811598738685" lon="9.652000369314493"><ele>18.0</ele><time>2026-04-03T10:45:01Z</time></trkpt><trkpt lat="39.918267008334446" lon="9.652139878431383"><ele>18.0</ele><time>2026-04-03T10:45:02Z</time></trkpt><trkpt lat="39.91841678021446" lon="9.652285219231656"><ele>18.0</ele><time>2026-04-03T10:45:03Z</time></trkpt><trkpt lat="39.918558517884286" lon="9.652426148292314"><ele>18.0</ele><time>2026-04-03T10:45:04Z</time></trkpt><trkpt lat="39.91869388628038" lon="9.652549605024129"><ele>18.0</ele><time>2026-04-03T10:45:05Z</time></trkpt><trkpt lat="39.91882297410152" lon="9.652665439044808"><ele>18.0</ele><time>2026-04-03T10:45:06Z</time></trkpt><trkpt lat="39.918944281368674" lon="9.652776982740592"><ele>18.0</ele><time>2026-04-03T10:45:07Z</time></trkpt><trkpt lat="39.9190617320238" lon="9.652886266644765"><ele>18.0</ele><time>2026-04-03T10:45:08Z</time></trkpt><trkpt lat="39.919177914412536" lon="9.6529900467577"><ele>18.25</ele><time>2026-04-03T10:45:09Z</time></trkpt><trkpt lat="39.91929876120147" lon="9.653094665883115"><ele>18.5</ele><time>2026-04-03T10:45:10Z</time></trkpt><trkpt lat="39.91942297811739" lon="9.653198950422437"><ele>18.75</ele><time>2026-04-03T10:45:11Z</time></trkpt><trkpt lat="39.91954722424929" lon="9.653306494105093"><ele>19.0</ele><time>2026-04-03T10:45:12Z</time></trkpt><trkpt lat="39.91966951855404" lon="9.653421914945747"><ele>19.0</ele><time>2026-04-03T10:45:13Z</time></trkpt><trkpt lat="39.919794086726704" lon="9.653535529806542"><ele>19.0</ele><time>2026-04-03T10:45:14Z</time></trkpt><trkpt lat="39.91992027152416" lon="9.653651508832262"><ele>19.0</ele><time>2026-04-03T10:45:15Z</time></trkpt><trkpt lat="39.92004362515163" lon="9.653770228902166"><ele>18.0</ele><time>2026-04-03T10:45:16Z</time></trkpt><trkpt lat="39.92015943239156" lon="9.65388260245914"><ele>17.0</ele><time>2026-04-03T10:45:17Z</time></trkpt><trkpt lat="39.920272510189925" lon="9.65398370704178"><ele>16.0</ele><time>2026-04-03T10:45:18Z</time></trkpt><trkpt lat="39.92038869497107" lon="9.654077187849731"><ele>15.0</ele><time>2026-04-03T10:45:19Z</time></trkpt><trkpt lat="39.92049955117752" lon="9.654168690157821"><ele>15.0</ele><time>2026-04-03T10:45:20Z</time></trkpt><trkpt lat="39.920600259137125" lon="9.654258570499216"><ele>15.0</ele><time>2026-04-03T10:45:21Z</time></trkpt><trkpt lat="39.920695361067494" lon="9.654347299890581"><ele>15.0</ele><time>2026-04-03T10:45:22Z</time></trkpt><trkpt lat="39.92078780529037" lon="9.654427481845522"><ele>15.0</ele><time>2026-04-03T10:45:23Z</time></trkpt><trkpt lat="39.9208769585636" lon="9.654500394377518"><ele>15.4</ele><time>2026-04-03T10:45:24Z</time></trkpt><trkpt lat="39.920958914898435" lon="9.654571931520351"><ele>15.8</ele><time>2026-04-03T10:45:25Z</time></trkpt><trkpt lat="39.92103048534586" lon="9.654652551863094"><ele>16.2</ele><time>2026-04-03T10:45:26Z</time></trkpt><trkpt lat="39.92108525160812" lon="9.654749669490469"><ele>16.6</ele><time>2026-04-03T10:45:27Z</time></trkpt><trkpt lat="39.92112680613067" lon="9.654847244195617"><ele>17.0</ele><time>2026-04-03T10:45:28Z</time></trkpt><trkpt lat="39.92118259785296" lon="9.654924546092111"><ele>17.0</ele><time>2026-04-03T10:45:29Z</time></trkpt><trkpt lat="39.921259573230415" lon="9.654948470288375"><ele>17.0</ele><time>2026-04-03T10:45:30Z</time></trkpt><trkpt lat="39.92134839581634" lon="9.654927483071804"><ele>17.0</ele><time>2026-04-03T10:45:31Z</time></trkpt><trkpt lat="39.92144888717731" lon="9.654900279506304"><ele>17.0</ele><time>2026-04-03T10:45:32Z</time></trkpt><trkpt lat="39.9215569962834" lon="9.654894985347426"><ele>17.0</ele><time>2026-04-03T10:45:33Z</time></trkpt><trkpt lat="39.92167641718154" lon="9.654917452781218"><ele>16.5</ele><time>2026-04-03T10:45:34Z</time></trkpt><trkpt lat="39.92179726528202" lon="9.654965937224318"><ele>16.0</ele><time>2026-04-03T10:45:35Z</time></trkpt><trkpt lat="39.92192527997576" lon="9.655019873506134"><ele>15.5</ele><time>2026-04-03T10:45:36Z</time></trkpt><trkpt lat="39.92205437898213" lon="9.655053840416379"><ele>15.0</ele><time>2026-04-03T10:45:37Z</time></trkpt><trkpt lat="39.92218873694068" lon="9.65508460491214"><ele>15.0</ele><time>2026-04-03T10:45:38Z</time></trkpt><trkpt lat="39.922327876737775" lon="9.655121333875027"><ele>15.0</ele><time>2026-04-03T10:45:39Z</time></trkpt><trkpt lat="39.92246770346059" lon="9.655152104986652"><ele>15.0</ele><time>2026-04-03T10:45:40Z</time></trkpt><trkpt lat="39.9226047331828" lon="9.655182501948081"><ele>15.0</ele><time>2026-04-03T10:45:41Z</time></trkpt><trkpt lat="39.92273741648454" lon="9.65521184812412"><ele>15.25</ele><time>2026-04-03T10:45:42Z</time></trkpt><trkpt lat="39.92286201145143" lon="9.655235492402168"><ele>15.5</ele><time>2026-04-03T10:45:43Z</time></trkpt><trkpt lat="39.92297909280832" lon="9.655255697445032"><ele>15.75</ele><time>2026-04-03T10:45:44Z</time></trkpt><trkpt lat="39.92309126360121" lon="9.65527759303594"><ele>16.0</ele><time>2026-04-03T10:45:45Z</time></trkpt><trkpt lat="39.92319622990778" lon="9.655300491807704"><ele>15.999999999999998</ele><time>2026-04-03T10:45:46Z</time></trkpt><trkpt lat="39.923291627075656" lon="9.65532757312439"><ele>16.0</ele><time>2026-04-03T10:45:47Z</time></trkpt><trkpt lat="39.92338051221244" lon="9.655345625508534"><ele>16.0</ele><time>2026-04-03T10:45:48Z</time></trkpt><trkpt lat="39.923463127939144" lon="9.655359036490601"><ele>16.0</ele><time>2026-04-03T10:45:49Z</time></trkpt><trkpt lat="39.92354071102389" lon="9.655379067625207"><ele>15.999999999999998</ele><time>2026-04-03T10:45:50Z</time></trkpt><trkpt lat="39.923613858167556" lon="9.65539512269943"><ele>16.0</ele><time>2026-04-03T10:45:51Z</time></trkpt><trkpt lat="39.92368229242151" lon="9.655410892194176"><ele>16.400000000000002</ele><time>2026-04-03T10:45:52Z</time></trkpt><trkpt lat="39.923798149925354" lon="9.655440595868527"><ele>16.8</ele><time>2026-04-03T10:45:54Z</time></trkpt><trkpt lat="39.92388136682712" lon="9.65545877353378"><ele>17.200000000000003</ele><time>2026-04-03T10:45:56Z</time></trkpt><trkpt lat="39.92395820881683" lon="9.655482033499078"><ele>17.6</ele><time>2026-04-03T10:45:59Z</time></trkpt><trkpt lat="39.92403557116199" lon="9.655505235040161"><ele>18.0</ele><time>2026-04-03T10:46:25Z</time></trkpt><trkpt lat="39.92413122491962" lon="9.655519624186256"><ele>18.0</ele><time>2026-04-03T10:46:28Z</time></trkpt><trkpt lat="39.92421569596608" lon="9.655536732474149"><ele>18.0</ele><time>2026-04-03T10:46:30Z</time></trkpt><trkpt lat="39.924349391826496" lon="9.655564082046855"><ele>18.0</ele><time>2026-04-03T10:46:32Z</time></trkpt><trkpt lat="39.92443672585204" lon="9.65558625784208"><ele>18.0</ele><time>2026-04-03T10:46:33Z</time></trkpt><trkpt lat="39.92451174587874" lon="9.655621839297757"><ele>18.0</ele><time>2026-04-03T10:46:34Z</time></trkpt><trkpt lat="39.92460225862825" lon="9.655647557737106"><ele>18.0</ele><time>2026-04-03T10:46:36Z</time></trkpt><trkpt lat="39.92454176038296" lon="9.655784709240612"><ele>18.0</ele><time>2026-04-03T10:46:37Z</time></trkpt><trkpt lat="39.924531924242636" lon="9.65588148293908"><ele>18.0</ele><time>2026-04-03T10:46:38Z</time></trkpt><trkpt lat="39.92452221469552" lon="9.656001796817817"><ele>18.0</ele><time>2026-04-03T10:46:39Z</time></trkpt><trkpt lat="39.92452168439851" lon="9.656174231249704"><ele>18.0</ele><time>2026-04-03T10:46:40Z</time></trkpt><trkpt lat="39.924505964016674" lon="9.65638001929082"><ele>18.0</ele><time>2026-04-03T10:46:41Z</time></trkpt><trkpt lat="39.924482592525706" lon="9.6566070319646"><ele>18.0</ele><time>2026-04-03T10:46:42Z</time></trkpt><trkpt lat="39.92447326486596" lon="9.656821494612215"><ele>18.0</ele><time>2026-04-03T10:46:43Z</time></trkpt><trkpt lat="39.92444895536662" lon="9.657010124214242"><ele>18.0</ele><time>2026-04-03T10:46:44Z</time></trkpt><trkpt lat="39.92439059992208" lon="9.657176833101595"><ele>18.0</ele><time>2026-04-03T10:46:45Z</time></trkpt><trkpt lat="39.92435618469159" lon="9.65734876374737"><ele>18.0</ele><time>2026-04-03T10:46:46Z</time></trkpt><trkpt lat="39.92430868502291" lon="9.657495119773804"><ele>18.0</ele><time>2026-04-03T10:46:47Z</time></trkpt><trkpt lat="39.92425620282334" lon="9.657631081508011"><ele>17.25</ele><time>2026-04-03T10:46:48Z</time></trkpt><trkpt lat="39.92422353969921" lon="9.657781379356237"><ele>16.5</ele><time>2026-04-03T10:46:49Z</time></trkpt><trkpt lat="39.924199384133544" lon="9.657944497337892"><ele>15.75</ele><time>2026-04-03T10:46:50Z</time></trkpt><trkpt lat="39.9241998983809" lon="9.658097780675968"><ele>15.0</ele><time>2026-04-03T10:46:51Z</time></trkpt><trkpt lat="39.924173734981615" lon="9.658260135268996"><ele>15.0</ele><time>2026-04-03T10:46:52Z</time></trkpt><trkpt lat="39.92414369153553" lon="9.65842048358434"><ele>15.0</ele><time>2026-04-03T10:46:53Z</time></trkpt><trkpt lat="39.92410879268568" lon="9.658580074975509"><ele>15.0</ele><time>2026-04-03T10:46:54Z</time></trkpt><trkpt lat="39.924068564997334" lon="9.658741977968374"><ele>15.0</ele><time>2026-04-03T10:46:55Z</time></trkpt><trkpt lat="39.92403708634961" lon="9.658905517049757"><ele>14.5</ele><time>2026-04-03T10:46:56Z</time></trkpt><trkpt lat="39.923997993166935" lon="9.659071331778051"><ele>14.0</ele><time>2026-04-03T10:46:57Z</time></trkpt><trkpt lat="39.923961573122305" lon="9.659239430893066"><ele>13.5</ele><time>2026-04-03T10:46:58Z</time></trkpt><trkpt lat="39.92392219955917" lon="9.659409393443047"><ele>13.0</ele><time>2026-04-03T10:46:59Z</time></trkpt><trkpt lat="39.92388357225218" lon="9.659581159507285"><ele>13.0</ele><time>2026-04-03T10:47:00Z</time></trkpt><trkpt lat="39.923837129806415" lon="9.659750949365302"><ele>13.0</ele><time>2026-04-03T10:47:01Z</time></trkpt><trkpt lat="39.92381295431552" lon="9.659926902955728"><ele>13.0</ele><time>2026-04-03T10:47:02Z</time></trkpt><trkpt lat="39.92380271263863" lon="9.660101064937766"><ele>13.0</ele><time>2026-04-03T10:47:03Z</time></trkpt><trkpt lat="39.923826730627304" lon="9.660279624427629"><ele>13.25</ele><time>2026-04-03T10:47:04Z</time></trkpt><trkpt lat="39.92386364020855" lon="9.660456010694453"><ele>13.5</ele><time>2026-04-03T10:47:05Z</time></trkpt><trkpt lat="39.923879086573166" lon="9.660630775739387"><ele>13.75</ele><time>2026-04-03T10:47:06Z</time></trkpt><trkpt lat="39.92391974114093" lon="9.66079619007484"><ele>14.0</ele><time>2026-04-03T10:47:07Z</time></trkpt><trkpt lat="39.92394001088059" lon="9.660954517389843"><ele>14.0</ele><time>2026-04-03T10:47:08Z</time></trkpt><trkpt lat="39.92396071155336" lon="9.661104398598185"><ele>13.999999999999998</ele><time>2026-04-03T10:47:09Z</time></trkpt><trkpt lat="39.923983321243945" lon="9.661244064124938"><ele>13.999999999999998</ele><time>2026-04-03T10:47:10Z</time></trkpt><trkpt lat="39.924006464646766" lon="9.661375525936156"><ele>14.0</ele><time>2026-04-03T10:47:11Z</time></trkpt><trkpt lat="39.92402688756702" lon="9.661507755014506"><ele>14.0</ele><time>2026-04-03T10:47:12Z</time></trkpt><trkpt lat="39.924039980906905" lon="9.661648161763994"><ele>14.0</ele><time>2026-04-03T10:47:13Z</time></trkpt><trkpt lat="39.92404850207754" lon="9.661794601750687"><ele>14.0</ele><time>2026-04-03T10:47:14Z</time></trkpt><trkpt lat="39.92405257549919" lon="9.661947768546923"><ele>14.0</ele><time>2026-04-03T10:47:15Z</time></trkpt><trkpt lat="39.92405377962489" lon="9.662103903604892"><ele>14.0</ele><time>2026-04-03T10:47:16Z</time></trkpt><trkpt lat="39.92405024885933" lon="9.662264538789122"><ele>14.0</ele><time>2026-04-03T10:47:17Z</time></trkpt><trkpt lat="39.92404691792497" lon="9.662429188522088"><ele>14.0</ele><time>2026-04-03T10:47:18Z</time></trkpt><trkpt lat="39.92404719337024" lon="9.662604879025608"><ele>14.0</ele><time>2026-04-03T10:47:19Z</time></trkpt><trkpt lat="39.92404654237379" lon="9.662787998473098"><ele>14.0</ele><time>2026-04-03T10:47:20Z</time></trkpt><trkpt lat="39.92404960554896" lon="9.662976371138262"><ele>13.75</ele><time>2026-04-03T10:47:21Z</time></trkpt><trkpt lat="39.92405093273009" lon="9.663162964138436"><ele>13.5</ele><time>2026-04-03T10:47:22Z</time></trkpt><trkpt lat="39.9240515819084" lon="9.663346109576095"><ele>13.25</ele><time>2026-04-03T10:47:23Z</time></trkpt><trkpt lat="39.92405326716574" lon="9.663518952505477"><ele>13.0</ele><time>2026-04-03T10:47:24Z</time></trkpt><trkpt lat="39.924050467147076" lon="9.663693320073111"><ele>13.0</ele><time>2026-04-03T10:47:25Z</time></trkpt><trkpt lat="39.92404560702035" lon="9.663864630286284"><ele>13.0</ele><time>2026-04-03T10:47:26Z</time></trkpt><trkpt lat="39.92399519936572" lon="9.664025600008532"><ele>13.0</ele><time>2026-04-03T10:47:27Z</time></trkpt><trkpt lat="39.92395155903218" lon="9.664205855020011"><ele>13.0</ele><time>2026-04-03T10:47:28Z</time></trkpt><trkpt lat="39.923908738769526" lon="9.664382722904012"><ele>12.75</ele><time>2026-04-03T10:47:29Z</time></trkpt><trkpt lat="39.923869695164505" lon="9.66454545162706"><ele>12.5</ele><time>2026-04-03T10:47:30Z</time></trkpt><trkpt lat="39.92383115451889" lon="9.664708636323445"><ele>12.25</ele><time>2026-04-03T10:47:31Z</time></trkpt><trkpt lat="39.92379468875709" lon="9.664874365624438"><ele>12.0</ele><time>2026-04-03T10:47:32Z</time></trkpt><trkpt lat="39.92378219007855" lon="9.665062416792042"><ele>12.0</ele><time>2026-04-03T10:47:33Z</time></trkpt><trkpt lat="39.923833731890845" lon="9.665258891855093"><ele>12.0</ele><time>2026-04-03T10:47:34Z</time></trkpt><trkpt lat="39.92387215460063" lon="9.665464604837638"><ele>12.0</ele><time>2026-04-03T10:47:35Z</time></trkpt><trkpt lat="39.923914014005526" lon="9.66566302181371"><ele>12.0</ele><time>2026-04-03T10:47:36Z</time></trkpt><trkpt lat="39.9239460141921" lon="9.665849433272106"><ele>12.0</ele><time>2026-04-03T10:47:37Z</time></trkpt><trkpt lat="39.92397640617651" lon="9.66602641995246"><ele>12.0</ele><time>2026-04-03T10:47:38Z</time></trkpt><trkpt lat="39.9240048220712" lon="9.666195095718306"><ele>12.0</ele><time>2026-04-03T10:47:39Z</time></trkpt><trkpt lat="39.924024424040354" lon="9.66632387013481"><ele>12.0</ele><time>2026-04-03T10:47:40Z</time></trkpt><trkpt lat="39.92404234115747" lon="9.66641465268421"><ele>12.0</ele><time>2026-04-03T10:47:41Z</time></trkpt><trkpt lat="39.924062132707945" lon="9.666498629741286"><ele>12.0</ele><time>2026-04-03T10:47:43Z</time></trkpt><trkpt lat="39.92407978213542" lon="9.666604089447251"><ele>12.0</ele><time>2026-04-03T10:47:54Z</time></trkpt><trkpt lat="39.92412691388271" lon="9.666761433600756"><ele>12.0</ele><time>2026-04-03T10:47:56Z</time></trkpt><trkpt lat="39.924141545741406" lon="9.666867524979246"><ele>12.0</ele><time>2026-04-03T10:47:57Z</time></trkpt><trkpt lat="39.92416703180348" lon="9.666980453708144"><ele>12.2</ele><time>2026-04-03T10:47:58Z</time></trkpt><trkpt lat="39.92417468051457" lon="9.667110211118302"><ele>12.399999999999999</ele><time>2026-04-03T10:47:59Z</time></trkpt><trkpt lat="39.92421525874877" lon="9.667239838468166"><ele>12.600000000000001</ele><time>2026-04-03T10:48:00Z</time></trkpt><trkpt lat="39.92423712659394" lon="9.667366802837876"><ele>12.8</ele><time>2026-04-03T10:48:01Z</time></trkpt><trkpt lat="39.92426559086834" lon="9.66748492610519"><ele>13.0</ele><time>2026-04-03T10:48:02Z</time></trkpt><trkpt lat="39.92429612007669" lon="9.667589120556363"><ele>12.999999999999998</ele><time>2026-04-03T10:48:03Z</time></trkpt><trkpt lat="39.92431390611304" lon="9.667671256954396"><ele>13.0</ele><time>2026-04-03T10:48:04Z</time></trkpt><trkpt lat="39.92435191900238" lon="9.667827252281354"><ele>13.0</ele><time>2026-04-03T10:48:06Z</time></trkpt><trkpt lat="39.92438138648564" lon="9.667917690458962"><ele>13.0</ele><time>2026-04-03T10:48:07Z</time></trkpt><trkpt lat="39.9244098137401" lon="9.66801259947056"><ele>12.999999999999998</ele><time>2026-04-03T10:48:08Z</time></trkpt><trkpt lat="39.9244337562877" lon="9.668116478663784"><ele>13.0</ele><time>2026-04-03T10:48:09Z</time></trkpt><trkpt lat="39.924461217088215" lon="9.66822289891376"><ele>12.8</ele><time>2026-04-03T10:48:10Z</time></trkpt><trkpt lat="39.92449593096744" lon="9.6683317823853"><ele>12.600000000000001</ele><time>2026-04-03T10:48:11Z</time></trkpt><trkpt lat="39.924538194176264" lon="9.668450691467712"><ele>12.399999999999999</ele><time>2026-04-03T10:48:12Z</time></trkpt><trkpt lat="39.924585015532" lon="9.668582916591854"><ele>12.2</ele><time>2026-04-03T10:48:13Z</time></trkpt><trkpt lat="39.924640042592614" lon="9.668722450125992"><ele>12.0</ele><time>2026-04-03T10:48:14Z</time></trkpt><trkpt lat="39.924705353277886" lon="9.66887241366846"><ele>11.5</ele><time>2026-04-03T10:48:15Z</time></trkpt><trkpt lat="39.92477097239604" lon="9.669025945413537"><ele>11.0</ele><time>2026-04-03T10:48:16Z</time></trkpt><trkpt lat="39.92483693942196" lon="9.669180894201792"><ele>10.5</ele><time>2026-04-03T10:48:17Z</time></trkpt><trkpt lat="39.92489965788684" lon="9.669344285742168"><ele>10.0</ele><time>2026-04-03T10:48:18Z</time></trkpt><trkpt lat="39.92496950011734" lon="9.669491936395877"><ele>10.0</ele><time>2026-04-03T10:48:19Z</time></trkpt><trkpt lat="39.92503137711345" lon="9.669636180577653"><ele>10.0</ele><time>2026-04-03T10:48:20Z</time></trkpt><trkpt lat="39.925091496254545" lon="9.669769988698025"><ele>10.0</ele><time>2026-04-03T10:48:21Z</time></trkpt><trkpt lat="39.92515255032783" lon="9.669901908786702"><ele>10.0</ele><time>2026-04-03T10:48:22Z</time></trkpt><trkpt lat="39.925204953364506" lon="9.670045062454529"><ele>10.0</ele><time>2026-04-03T10:48:23Z</time></trkpt><trkpt lat="39.92525704978297" lon="9.670187417251952"><ele>10.0</ele><time>2026-04-03T10:48:24Z</time></trkpt><trkpt lat="39.92529879132516" lon="9.67033938899161"><ele>10.0</ele><time>2026-04-03T10:48:25Z</time></trkpt><trkpt lat="39.92532802801411" lon="9.670500180405455"><ele>10.0</ele><time>2026-04-03T10:48:26Z</time></trkpt><trkpt lat="39.92535584842198" lon="9.670662491918906"><ele>9.75</ele><time>2026-04-03T10:48:27Z</time></trkpt><trkpt lat="39.92538352852559" lon="9.670827950760437"><ele>9.5</ele><time>2026-04-03T10:48:28Z</time></trkpt><trkpt lat="39.925418231192026" lon="9.670987351217402"><ele>9.25</ele><time>2026-04-03T10:48:29Z</time></trkpt><trkpt lat="39.925450282013664" lon="9.671146561832444"><ele>9.0</ele><time>2026-04-03T10:48:30Z</time></trkpt><trkpt lat="39.925479227082974" lon="9.671310956428687"><ele>8.75</ele><time>2026-04-03T10:48:31Z</time></trkpt><trkpt lat="39.92550687336593" lon="9.671478203811478"><ele>8.5</ele><time>2026-04-03T10:48:32Z</time></trkpt><trkpt lat="39.92553905329305" lon="9.671649193155803"><ele>8.25</ele><time>2026-04-03T10:48:33Z</time></trkpt><trkpt lat="39.925574522082464" lon="9.671820889990032"><ele>8.0</ele><time>2026-04-03T10:48:34Z</time></trkpt><trkpt lat="39.925613628622635" lon="9.67199454322956"><ele>8.0</ele><time>2026-04-03T10:48:35Z</time></trkpt><trkpt lat="39.92564291559618" lon="9.672169754540775"><ele>8.0</ele><time>2026-04-03T10:48:36Z</time></trkpt><trkpt lat="39.925670649063754" lon="9.672334873938176"><ele>8.0</ele><time>2026-04-03T10:48:37Z</time></trkpt><trkpt lat="39.92569878372091" lon="9.67247652326818"><ele>8.0</ele><time>2026-04-03T10:48:38Z</time></trkpt><trkpt lat="39.925737202821665" lon="9.672599875256351"><ele>8.0</ele><time>2026-04-03T10:48:39Z</time></trkpt><trkpt lat="39.92580953590196" lon="9.672675864752748"><ele>8.0</ele><time>2026-04-03T10:48:40Z</time></trkpt><trkpt lat="39.92590651995532" lon="9.672697401104756"><ele>8.0</ele><time>2026-04-03T10:48:41Z</time></trkpt><trkpt lat="39.92601504307766" lon="9.672674846543522"><ele>8.0</ele><time>2026-04-03T10:48:42Z</time></trkpt><trkpt lat="39.92613612598992" lon="9.67263212334019"><ele>8.0</ele><time>2026-04-03T10:48:43Z</time></trkpt><trkpt lat="39.926276312998205" lon="9.672585731764212"><ele>8.25</ele><time>2026-04-03T10:48:44Z</time></trkpt><trkpt lat="39.92640959777133" lon="9.672549721681904"><ele>8.5</ele><time>2026-04-03T10:48:45Z</time></trkpt><trkpt lat="39.92653159829402" lon="9.672512775127004"><ele>8.75</ele><time>2026-04-03T10:48:46Z</time></trkpt><trkpt lat="39.92664173188927" lon="9.672475493216202"><ele>9.0</ele><time>2026-04-03T10:48:47Z</time></trkpt><trkpt lat="39.92674284605094" lon="9.672443194779518"><ele>9.4</ele><time>2026-04-03T10:48:48Z</time></trkpt><trkpt lat="39.92684168692919" lon="9.672416767633846"><ele>9.8</ele><time>2026-04-03T10:48:49Z</time></trkpt><trkpt lat="39.92694002430475" lon="9.67238592796655"><ele>10.200000000000001</ele><time>2026-04-03T10:48:50Z</time></trkpt><trkpt lat="39.927039316091175" lon="9.672350476564812"><ele>10.600000000000001</ele><time>2026-04-03T10:48:51Z</time></trkpt><trkpt lat="39.92713193757315" lon="9.672320750693405"><ele>11.0</ele><time>2026-04-03T10:48:52Z</time></trkpt><trkpt lat="39.92721824587553" lon="9.67229385925794"><ele>11.0</ele><time>2026-04-03T10:48:53Z</time></trkpt><trkpt lat="39.927297987135155" lon="9.672270010575945"><ele>11.0</ele><time>2026-04-03T10:48:54Z</time></trkpt><trkpt lat="39.92737211775706" lon="9.672244798815328"><ele>11.0</ele><time>2026-04-03T10:48:55Z</time></trkpt><trkpt lat="39.92744444631975" lon="9.672225428954793"><ele>11.0</ele><time>2026-04-03T10:48:56Z</time></trkpt><trkpt lat="39.927507623245276" lon="9.672214532006645"><ele>11.0</ele><time>2026-04-03T10:48:57Z</time></trkpt><trkpt lat="39.92760422341794" lon="9.672201196129512"><ele>11.0</ele><time>2026-04-03T10:48:59Z</time></trkpt><trkpt lat="39.927672319020395" lon="9.672180865761366"><ele>10.833333333333332</ele><time>2026-04-03T10:49:02Z</time></trkpt><trkpt lat="39.9277368683939" lon="9.672159479800822"><ele>10.666666666666666</ele><time>2026-04-03T10:49:05Z</time></trkpt><trkpt lat="39.92780587013341" lon="9.67214834209853"><ele>10.5</ele><time>2026-04-03T10:49:07Z</time></trkpt><trkpt lat="39.9278820050976" lon="9.67212320273932"><ele>10.333333333333334</ele><time>2026-04-03T10:49:10Z</time></trkpt><trkpt lat="39.9279548123813" lon="9.67211755051776"><ele>10.166666666666668</ele><time>2026-04-03T10:49:13Z</time></trkpt><trkpt lat="39.928030887126134" lon="9.672300223798374"><ele>10.0</ele><time>2026-04-03T10:49:16Z</time></trkpt><trkpt lat="39.92803886386765" lon="9.672393060416837"><ele>10.0</ele><time>2026-04-03T10:49:17Z</time></trkpt><trkpt lat="39.92805574704928" lon="9.672486210300356"><ele>10.0</ele><time>2026-04-03T10:49:18Z</time></trkpt><trkpt lat="39.92806450401113" lon="9.67258042511342"><ele>10.0</ele><time>2026-04-03T10:49:19Z</time></trkpt><trkpt lat="39.928081013548116" lon="9.67267380135538"><ele>10.0</ele><time>2026-04-03T10:49:20Z</time></trkpt><trkpt lat="39.92810703549471" lon="9.672770112851374"><ele>10.0</ele><time>2026-04-03T10:49:21Z</time></trkpt><trkpt lat="39.92812787957033" lon="9.672876903190051"><ele>10.0</ele><time>2026-04-03T10:49:22Z</time></trkpt><trkpt lat="39.92814940586252" lon="9.672995559893797"><ele>10.0</ele><time>2026-04-03T10:49:23Z</time></trkpt><trkpt lat="39.92816990306203" lon="9.67311596566961"><ele>10.0</ele><time>2026-04-03T10:49:24Z</time></trkpt><trkpt lat="39.9281983759996" lon="9.673245630525283"><ele>10.0</ele><time>2026-04-03T10:49:25Z</time></trkpt><trkpt lat="39.92822538365358" lon="9.673377992253148"><ele>10.0</ele><time>2026-04-03T10:49:26Z</time></trkpt><trkpt lat="39.92824953850673" lon="9.673514184829024"><ele>10.0</ele><time>2026-04-03T10:49:27Z</time></trkpt><trkpt lat="39.92827513730502" lon="9.673658468324568"><ele>10.0</ele><time>2026-04-03T10:49:28Z</time></trkpt><trkpt lat="39.928304218511215" lon="9.67380920940885"><ele>10.0</ele><time>2026-04-03T10:49:29Z</time></trkpt><trkpt lat="39.928326017080344" lon="9.673946984257514"><ele>10.0</ele><time>2026-04-03T10:49:30Z</time></trkpt><trkpt lat="39.92834698323608" lon="9.674075625542354"><ele>10.0</ele><time>2026-04-03T10:49:31Z</time></trkpt><trkpt lat="39.928369356376166" lon="9.674196967903331"><ele>10.0</ele><time>2026-04-03T10:49:32Z</time></trkpt><trkpt lat="39.92839149988258" lon="9.674314296296"><ele>10.0</ele><time>2026-04-03T10:49:33Z</time></trkpt><trkpt lat="39.928408688321774" lon="9.674430208467735"><ele>10.0</ele><time>2026-04-03T10:49:34Z</time></trkpt><trkpt lat="39.92842689464208" lon="9.674554109133124"><ele>10.0</ele><time>2026-04-03T10:49:35Z</time></trkpt><trkpt lat="39.92844392144283" lon="9.674684306610262"><ele>10.0</ele><time>2026-04-03T10:49:36Z</time></trkpt><trkpt lat="39.928464528508854" lon="9.674821514167716"><ele>10.0</ele><time>2026-04-03T10:49:37Z</time></trkpt><trkpt lat="39.9284858557125" lon="9.67496519500993"><ele>9.75</ele><time>2026-04-03T10:49:38Z</time></trkpt><trkpt lat="39.92850544317601" lon="9.675116524166702"><ele>9.5</ele><time>2026-04-03T10:49:39Z</time></trkpt><trkpt lat="39.9285197480136" lon="9.675270125090686"><ele>9.25</ele><time>2026-04-03T10:49:40Z</time></trkpt><trkpt lat="39.928537768923974" lon="9.675423179908734"><ele>9.0</ele><time>2026-04-03T10:49:41Z</time></trkpt><trkpt lat="39.928560827171296" lon="9.675583520157007"><ele>8.75</ele><time>2026-04-03T10:49:42Z</time></trkpt><trkpt lat="39.92859057553323" lon="9.675745661052167"><ele>8.5</ele><time>2026-04-03T10:49:43Z</time></trkpt><trkpt lat="39.92862459405312" lon="9.675915571418283"><ele>8.25</ele><time>2026-04-03T10:49:44Z</time></trkpt><trkpt lat="39.92865379933964" lon="9.676089303388688"><ele>8.0</ele><time>2026-04-03T10:49:45Z</time></trkpt><trkpt lat="39.92868463548681" lon="9.676268449926784"><ele>7.75</ele><time>2026-04-03T10:49:46Z</time></trkpt><trkpt lat="39.928714597759864" lon="9.676446331626057"><ele>7.5</ele><time>2026-04-03T10:49:47Z</time></trkpt><trkpt lat="39.92874533200954" lon="9.676615265904394"><ele>7.25</ele><time>2026-04-03T10:49:48Z</time></trkpt><trkpt lat="39.928777457096345" lon="9.676785167351756"><ele>7.0</ele><time>2026-04-03T10:49:49Z</time></trkpt><trkpt lat="39.92881026047195" lon="9.67695571807608"><ele>6.75</ele><time>2026-04-03T10:49:50Z</time></trkpt><trkpt lat="39.92884256798213" lon="9.677128917155839"><ele>6.5</ele><time>2026-04-03T10:49:51Z</time></trkpt><trkpt lat="39.928875292176606" lon="9.677304239396067"><ele>6.25</ele><time>2026-04-03T10:49:52Z</time></trkpt><trkpt lat="39.928904353063785" lon="9.677474749048002"><ele>6.0</ele><time>2026-04-03T10:49:53Z</time></trkpt><trkpt lat="39.9289296404532" lon="9.677641952501114"><ele>6.5</ele><time>2026-04-03T10:49:54Z</time></trkpt><trkpt lat="39.928955766431" lon="9.677797375408332"><ele>7.0</ele><time>2026-04-03T10:49:55Z</time></trkpt><trkpt lat="39.928984719925246" lon="9.677947961695349"><ele>7.5</ele><time>2026-04-03T10:49:56Z</time></trkpt><trkpt lat="39.92901135371265" lon="9.678101371386306"><ele>8.0</ele><time>2026-04-03T10:49:57Z</time></trkpt><trkpt lat="39.929040109022054" lon="9.678254601242227"><ele>8.0</ele><time>2026-04-03T10:49:58Z</time></trkpt><trkpt lat="39.92906448142883" lon="9.67840878190358"><ele>8.0</ele><time>2026-04-03T10:49:59Z</time></trkpt><trkpt lat="39.929085769825186" lon="9.678564864904011"><ele>8.0</ele><time>2026-04-03T10:50:00Z</time></trkpt><trkpt lat="39.92910501039095" lon="9.678723375029634"><ele>8.0</ele><time>2026-04-03T10:50:01Z</time></trkpt><trkpt lat="39.92912745442729" lon="9.67888305477861"><ele>8.0</ele><time>2026-04-03T10:50:02Z</time></trkpt><trkpt lat="39.92915218878564" lon="9.679038564418317"><ele>8.0</ele><time>2026-04-03T10:50:03Z</time></trkpt><trkpt lat="39.929178358735996" lon="9.679192946306523"><ele>8.0</ele><time>2026-04-03T10:50:04Z</time></trkpt><trkpt lat="39.929209220261605" lon="9.679338729583456"><ele>8.0</ele><time>2026-04-03T10:50:05Z</time></trkpt><trkpt lat="39.92924112830303" lon="9.679482529494166"><ele>8.0</ele><time>2026-04-03T10:50:06Z</time></trkpt><trkpt lat="39.92927183820942" lon="9.679625728224611"><ele>8.0</ele><time>2026-04-03T10:50:07Z</time></trkpt><trkpt lat="39.929296747182235" lon="9.679766813614647"><ele>8.0</ele><time>2026-04-03T10:50:08Z</time></trkpt><trkpt lat="39.92931674536334" lon="9.67990641159153"><ele>8.0</ele><time>2026-04-03T10:50:09Z</time></trkpt><trkpt lat="39.92933802392235" lon="9.680045342838175"><ele>8.0</ele><time>2026-04-03T10:50:10Z</time></trkpt><trkpt lat="39.929359874346275" lon="9.680180002502057"><ele>7.666666666666666</ele><time>2026-04-03T10:50:11Z</time></trkpt><trkpt lat="39.92938487939468" lon="9.680305485476385"><ele>7.333333333333333</ele><time>2026-04-03T10:50:12Z</time></trkpt><trkpt lat="39.92940606635431" lon="9.68042215140254"><ele>7.0</ele><time>2026-04-03T10:50:13Z</time></trkpt><trkpt lat="39.92942537859955" lon="9.680530450650307"><ele>6.666666666666666</ele><time>2026-04-03T10:50:14Z</time></trkpt><trkpt lat="39.929437658874065" lon="9.680627311011543"><ele>6.333333333333333</ele><time>2026-04-03T10:50:15Z</time></trkpt><trkpt lat="39.929449343736636" lon="9.680711661818842"><ele>6.0</ele><time>2026-04-03T10:50:16Z</time></trkpt><trkpt lat="39.92947650372773" lon="9.680852895048398"><ele>6.0</ele><time>2026-04-03T10:50:18Z</time></trkpt><trkpt lat="39.92950254572213" lon="9.681011670203596"><ele>6.0</ele><time>2026-04-03T10:50:20Z</time></trkpt><trkpt lat="39.92951458597194" lon="9.681101377984609"><ele>6.0</ele><time>2026-04-03T10:50:21Z</time></trkpt><trkpt lat="39.92952383604297" lon="9.681186765105421"><ele>6.0</ele><time>2026-04-03T10:50:22Z</time></trkpt><trkpt lat="39.929537675451904" lon="9.681273419083736"><ele>6.0</ele><time>2026-04-03T10:50:23Z</time></trkpt><trkpt lat="39.92955445570085" lon="9.681361398022617"><ele>6.0</ele><time>2026-04-03T10:50:24Z</time></trkpt><trkpt lat="39.92957006212212" lon="9.681452927300121"><ele>5.857142857142857</ele><time>2026-04-03T10:50:25Z</time></trkpt><trkpt lat="39.92958522546126" lon="9.681546388203502"><ele>5.714285714285714</ele><time>2026-04-03T10:50:26Z</time></trkpt><trkpt lat="39.92960204240176" lon="9.681639198020283"><ele>5.571428571428571</ele><time>2026-04-03T10:50:27Z</time></trkpt><trkpt lat="39.92961943639273" lon="9.68173281737008"><ele>5.428571428571429</ele><time>2026-04-03T10:50:28Z</time></trkpt><trkpt lat="39.92963326825435" lon="9.681829562409302"><ele>5.285714285714286</ele><time>2026-04-03T10:50:29Z</time></trkpt><trkpt lat="39.929647841927924" lon="9.681926595667491"><ele>5.142857142857142</ele><time>2026-04-03T10:50:30Z</time></trkpt><trkpt lat="39.92966109886231" lon="9.68202621896746"><ele>5.0</ele><time>2026-04-03T10:50:31Z</time></trkpt><trkpt lat="39.92967807869182" lon="9.68212614387327"><ele>5.0</ele><time>2026-04-03T10:50:32Z</time></trkpt><trkpt lat="39.92969724280443" lon="9.682228411560546"><ele>5.0</ele><time>2026-04-03T10:50:33Z</time></trkpt><trkpt lat="39.92971719626687" lon="9.682339415547505"><ele>5.0</ele><time>2026-04-03T10:50:34Z</time></trkpt><trkpt lat="39.92974027144003" lon="9.682452294179312"><ele>5.0</ele><time>2026-04-03T10:50:35Z</time></trkpt><trkpt lat="39.92976049277263" lon="9.682569716662975"><ele>5.0</ele><time>2026-04-03T10:50:36Z</time></trkpt><trkpt lat="39.92977817645445" lon="9.682687353800118"><ele>5.0</ele><time>2026-04-03T10:50:37Z</time></trkpt><trkpt lat="39.929796713475916" lon="9.682806798224844"><ele>5.2</ele><time>2026-04-03T10:50:38Z</time></trkpt><trkpt lat="39.929815594504326" lon="9.682929017551052"><ele>5.4</ele><time>2026-04-03T10:50:39Z</time></trkpt><trkpt lat="39.92983698508222" lon="9.683056862446527"><ele>5.6</ele><time>2026-04-03T10:50:40Z</time></trkpt><trkpt lat="39.92985899449366" lon="9.68318323554488"><ele>5.8</ele><time>2026-04-03T10:50:41Z</time></trkpt><trkpt lat="39.92988044788187" lon="9.683308360387949"><ele>6.0</ele><time>2026-04-03T10:50:42Z</time></trkpt><trkpt lat="39.92990106788038" lon="9.683430764819725"><ele>6.0</ele><time>2026-04-03T10:50:43Z</time></trkpt><trkpt lat="39.92992179903404" lon="9.683547037547749"><ele>6.0</ele><time>2026-04-03T10:50:44Z</time></trkpt><trkpt lat="39.92994101312037" lon="9.683664239764495"><ele>6.0</ele><time>2026-04-03T10:50:45Z</time></trkpt><trkpt lat="39.929961954671285" lon="9.683775173454546"><ele>6.0</ele><time>2026-04-03T10:50:46Z</time></trkpt><trkpt lat="39.929979406269496" lon="9.683887897506743"><ele>6.0</ele><time>2026-04-03T10:50:47Z</time></trkpt><trkpt lat="39.929995066065565" lon="9.684002986398125"><ele>6.0</ele><time>2026-04-03T10:50:48Z</time></trkpt><trkpt lat="39.930009399142925" lon="9.68411582548763"><ele>6.0</ele><time>2026-04-03T10:50:49Z</time></trkpt><trkpt lat="39.93002779907151" lon="9.684228755203254"><ele>6.0</ele><time>2026-04-03T10:50:50Z</time></trkpt><trkpt lat="39.93004949054727" lon="9.684349495019791"><ele>6.0</ele><time>2026-04-03T10:50:51Z</time></trkpt><trkpt lat="39.93007332591743" lon="9.684472315410984"><ele>6.0</ele><time>2026-04-03T10:50:52Z</time></trkpt><trkpt lat="39.93009740542412" lon="9.684601188174092"><ele>6.0</ele><time>2026-04-03T10:50:53Z</time></trkpt><trkpt lat="39.930119289233154" lon="9.684735550257587"><ele>6.0</ele><time>2026-04-03T10:50:54Z</time></trkpt><trkpt lat="39.93014008707407" lon="9.684876267114506"><ele>6.0</ele><time>2026-04-03T10:50:55Z</time></trkpt><trkpt lat="39.93015900643267" lon="9.685014843351032"><ele>6.0</ele><time>2026-04-03T10:50:56Z</time></trkpt><trkpt lat="39.93017951981552" lon="9.685142399977023"><ele>6.0</ele><time>2026-04-03T10:50:57Z</time></trkpt><trkpt lat="39.93020066913009" lon="9.685255566525823"><ele>6.0</ele><time>2026-04-03T10:50:58Z</time></trkpt><trkpt lat="39.93022354499573" lon="9.685359376762081"><ele>6.0</ele><time>2026-04-03T10:50:59Z</time></trkpt><trkpt lat="39.93024050549827" lon="9.685459210484604"><ele>6.0</ele><time>2026-04-03T10:51:00Z</time></trkpt><trkpt lat="39.9302548489556" lon="9.685559064528938"><ele>6.0</ele><time>2026-04-03T10:51:01Z</time></trkpt><trkpt lat="39.93026535676326" lon="9.685655556319213"><ele>6.0</ele><time>2026-04-03T10:51:02Z</time></trkpt><trkpt lat="39.93027895452422" lon="9.685758955562772"><ele>6.0</ele><time>2026-04-03T10:51:03Z</time></trkpt><trkpt lat="39.93029790771261" lon="9.685864608747071"><ele>6.0</ele><time>2026-04-03T10:51:04Z</time></trkpt><trkpt lat="39.93032083108949" lon="9.685974125074235"><ele>6.0</ele><time>2026-04-03T10:51:05Z</time></trkpt><trkpt lat="39.93034297924643" lon="9.686087441016738"><ele>6.0</ele><time>2026-04-03T10:51:06Z</time></trkpt><trkpt lat="39.93036157156078" lon="9.686206951157365"><ele>6.0</ele><time>2026-04-03T10:51:07Z</time></trkpt><trkpt lat="39.930378183367075" lon="9.686327004525362"><ele>6.0</ele><time>2026-04-03T10:51:08Z</time></trkpt><trkpt lat="39.93039763729925" lon="9.686456470982721"><ele>6.0</ele><time>2026-04-03T10:51:09Z</time></trkpt><trkpt lat="39.9304135626041" lon="9.686567992370115"><ele>6.6</ele><time>2026-04-03T10:51:10Z</time></trkpt><trkpt lat="39.93043046159787" lon="9.686687554655453"><ele>7.199999999999999</ele><time>2026-04-03T10:51:11Z</time></trkpt><trkpt lat="39.930454337943196" lon="9.686814047559867"><ele>7.800000000000001</ele><time>2026-04-03T10:51:12Z</time></trkpt><trkpt lat="39.930475646901975" lon="9.686942314805043"><ele>8.4</ele><time>2026-04-03T10:51:13Z</time></trkpt><trkpt lat="39.930499040394835" lon="9.687073741521294"><ele>9.0</ele><time>2026-04-03T10:51:14Z</time></trkpt><trkpt lat="39.93052252144935" lon="9.687224478775711"><ele>9.0</ele><time>2026-04-03T10:51:15Z</time></trkpt><trkpt lat="39.93054275424439" lon="9.687362149032904"><ele>9.0</ele><time>2026-04-03T10:51:16Z</time></trkpt><trkpt lat="39.93057167262932" lon="9.687530602448113"><ele>9.0</ele><time>2026-04-03T10:51:17Z</time></trkpt><trkpt lat="39.93060340251624" lon="9.687696170591616"><ele>9.0</ele><time>2026-04-03T10:51:18Z</time></trkpt><trkpt lat="39.930635226805535" lon="9.68787312921599"><ele>8.75</ele><time>2026-04-03T10:51:19Z</time></trkpt><trkpt lat="39.93066592868146" lon="9.688039537730914"><ele>8.5</ele><time>2026-04-03T10:51:20Z</time></trkpt><trkpt lat="39.93069553612725" lon="9.688199958020784"><ele>8.25</ele><time>2026-04-03T10:51:21Z</time></trkpt><trkpt lat="39.930715574844996" lon="9.68836832752822"><ele>8.0</ele><time>2026-04-03T10:51:22Z</time></trkpt><trkpt lat="39.930742241694325" lon="9.688537740592245"><ele>7.75</ele><time>2026-04-03T10:51:23Z</time></trkpt><trkpt lat="39.930770300223514" lon="9.688709299300006"><ele>7.5</ele><time>2026-04-03T10:51:24Z</time></trkpt><trkpt lat="39.930800744409375" lon="9.688885198772532"><ele>7.25</ele><time>2026-04-03T10:51:25Z</time></trkpt><trkpt lat="39.930830785293935" lon="9.689062583074433"><ele>7.0</ele><time>2026-04-03T10:51:26Z</time></trkpt><trkpt lat="39.930860762837135" lon="9.689241581866485"><ele>7.0</ele><time>2026-04-03T10:51:27Z</time></trkpt><trkpt lat="39.93088992958399" lon="9.689422050610423"><ele>7.0</ele><time>2026-04-03T10:51:28Z</time></trkpt><trkpt lat="39.93092168528729" lon="9.689604839188407"><ele>7.0</ele><time>2026-04-03T10:51:29Z</time></trkpt><trkpt lat="39.93095398763221" lon="9.689789434640076"><ele>7.0</ele><time>2026-04-03T10:51:30Z</time></trkpt><trkpt lat="39.930985758918595" lon="9.68997536934436"><ele>8.0</ele><time>2026-04-03T10:51:31Z</time></trkpt><trkpt lat="39.93101841588292" lon="9.690161136133193"><ele>9.0</ele><time>2026-04-03T10:51:32Z</time></trkpt><trkpt lat="39.93104947386275" lon="9.690349924273665"><ele>10.0</ele><time>2026-04-03T10:51:33Z</time></trkpt><trkpt lat="39.93107944589737" lon="9.690540761683744"><ele>11.0</ele><time>2026-04-03T10:51:34Z</time></trkpt><trkpt lat="39.931111067040746" lon="9.690730493771499"><ele>11.0</ele><time>2026-04-03T10:51:35Z</time></trkpt><trkpt lat="39.931140502406286" lon="9.690923431504016"><ele>11.0</ele><time>2026-04-03T10:51:36Z</time></trkpt><trkpt lat="39.931168456132134" lon="9.691104340684317"><ele>11.0</ele><time>2026-04-03T10:51:37Z</time></trkpt><trkpt lat="39.93119429926645" lon="9.691278577916089"><ele>11.0</ele><time>2026-04-03T10:51:38Z</time></trkpt><trkpt lat="39.93122434285112" lon="9.691441791994718"><ele>11.0</ele><time>2026-04-03T10:51:39Z</time></trkpt><trkpt lat="39.9312508624512" lon="9.691601867280308"><ele>11.0</ele><time>2026-04-03T10:51:40Z</time></trkpt><trkpt lat="39.93127672757134" lon="9.691761023604776"><ele>11.0</ele><time>2026-04-03T10:51:41Z</time></trkpt><trkpt lat="39.93130133758988" lon="9.691919071648064"><ele>11.0</ele><time>2026-04-03T10:51:42Z</time></trkpt><trkpt lat="39.93132677269315" lon="9.692073466156447"><ele>10.5</ele><time>2026-04-03T10:51:43Z</time></trkpt><trkpt lat="39.931350922889045" lon="9.692230433488279"><ele>10.0</ele><time>2026-04-03T10:51:44Z</time></trkpt><trkpt lat="39.931372782943626" lon="9.692385267535414"><ele>9.5</ele><time>2026-04-03T10:51:45Z</time></trkpt><trkpt lat="39.93139092498533" lon="9.692539799156544"><ele>9.0</ele><time>2026-04-03T10:51:46Z</time></trkpt><trkpt lat="39.93140037834701" lon="9.692694227041143"><ele>8.4</ele><time>2026-04-03T10:51:47Z</time></trkpt><trkpt lat="39.93140004057865" lon="9.692850651310453"><ele>7.800000000000001</ele><time>2026-04-03T10:51:48Z</time></trkpt><trkpt lat="39.93140090976735" lon="9.692998636578091"><ele>7.199999999999999</ele><time>2026-04-03T10:51:49Z</time></trkpt><trkpt lat="39.931417317149936" lon="9.693137637714324"><ele>6.6</ele><time>2026-04-03T10:51:50Z</time></trkpt><trkpt lat="39.93147775259463" lon="9.693251053483854"><ele>6.0</ele><time>2026-04-03T10:51:51Z</time></trkpt><trkpt lat="39.931564017963076" lon="9.693314405019185"><ele>6.0</ele><time>2026-04-03T10:51:52Z</time></trkpt><trkpt lat="39.93165492504769" lon="9.693361465098711"><ele>6.0</ele><time>2026-04-03T10:51:53Z</time></trkpt><trkpt lat="39.9317331005183" lon="9.69343916473961"><ele>6.0</ele><time>2026-04-03T10:51:54Z</time></trkpt><trkpt lat="39.93178869827703" lon="9.693550149111859"><ele>6.0</ele><time>2026-04-03T10:51:55Z</time></trkpt><trkpt lat="39.93181385390955" lon="9.6936857507331"><ele>6.0</ele><time>2026-04-03T10:51:56Z</time></trkpt><trkpt lat="39.931793967691284" lon="9.693827112677372"><ele>6.5</ele><time>2026-04-03T10:51:57Z</time></trkpt><trkpt lat="39.93174600597802" lon="9.693961571640184"><ele>7.0</ele><time>2026-04-03T10:51:58Z</time></trkpt><trkpt lat="39.93172089015916" lon="9.694110188541751"><ele>7.5</ele><time>2026-04-03T10:51:59Z</time></trkpt><trkpt lat="39.93173244658317" lon="9.694268944604017"><ele>8.0</ele><time>2026-04-03T10:52:00Z</time></trkpt><trkpt lat="39.931751391210156" lon="9.694439590168734"><ele>9.0</ele><time>2026-04-03T10:52:01Z</time></trkpt><trkpt lat="39.93176424562835" lon="9.694617481438259"><ele>10.0</ele><time>2026-04-03T10:52:02Z</time></trkpt><trkpt lat="39.931783237858006" lon="9.694796851828393"><ele>11.0</ele><time>2026-04-03T10:52:03Z</time></trkpt><trkpt lat="39.931803167267596" lon="9.694979764565954"><ele>12.0</ele><time>2026-04-03T10:52:04Z</time></trkpt><trkpt lat="39.93183980295028" lon="9.695164071956127"><ele>12.0</ele><time>2026-04-03T10:52:05Z</time></trkpt><trkpt lat="39.93185755640621" lon="9.695345381296926"><ele>12.0</ele><time>2026-04-03T10:52:06Z</time></trkpt><trkpt lat="39.931888565280346" lon="9.695520493692355"><ele>12.0</ele><time>2026-04-03T10:52:07Z</time></trkpt><trkpt lat="39.93191370505362" lon="9.695696671034469"><ele>12.0</ele><time>2026-04-03T10:52:08Z</time></trkpt><trkpt lat="39.931950109828826" lon="9.695877049726954"><ele>12.0</ele><time>2026-04-03T10:52:09Z</time></trkpt><trkpt lat="39.931991242525996" lon="9.696071342273456"><ele>12.0</ele><time>2026-04-03T10:52:10Z</time></trkpt><trkpt lat="39.93202639603598" lon="9.696287459107872"><ele>12.0</ele><time>2026-04-03T10:52:11Z</time></trkpt><trkpt lat="39.9320602716712" lon="9.696522149403952"><ele>11.333333333333334</ele><time>2026-04-03T10:52:12Z</time></trkpt><trkpt lat="39.93209995684116" lon="9.696776671472842"><ele>10.666666666666668</ele><time>2026-04-03T10:52:13Z</time></trkpt><trkpt lat="39.932152135809176" lon="9.697049362166592"><ele>10.0</ele><time>2026-04-03T10:52:14Z</time></trkpt><trkpt lat="39.93220579475944" lon="9.697326555453701"><ele>10.0</ele><time>2026-04-03T10:52:15Z</time></trkpt><trkpt lat="39.93224759049981" lon="9.697584012736762"><ele>10.0</ele><time>2026-04-03T10:52:16Z</time></trkpt><trkpt lat="39.93228136840236" lon="9.697825744243541"><ele>10.0</ele><time>2026-04-03T10:52:17Z</time></trkpt><trkpt lat="39.93231941036098" lon="9.698057322452781"><ele>10.0</ele><time>2026-04-03T10:52:18Z</time></trkpt><trkpt lat="39.93235600456056" lon="9.698276360610853"><ele>10.0</ele><time>2026-04-03T10:52:19Z</time></trkpt><trkpt lat="39.932389042699704" lon="9.698486473916951"><ele>10.0</ele><time>2026-04-03T10:52:20Z</time></trkpt><trkpt lat="39.93241807411163" lon="9.698687410249443"><ele>9.5</ele><time>2026-04-03T10:52:21Z</time></trkpt><trkpt lat="39.93244485289502" lon="9.698878923989982"><ele>9.0</ele><time>2026-04-03T10:52:22Z</time></trkpt><trkpt lat="39.932473568911625" lon="9.699059660244268"><ele>8.5</ele><time>2026-04-03T10:52:23Z</time></trkpt><trkpt lat="39.932495718279704" lon="9.699239417851597"><ele>8.0</ele><time>2026-04-03T10:52:24Z</time></trkpt><trkpt lat="39.93251641476535" lon="9.69941847619405"><ele>7.5</ele><time>2026-04-03T10:52:25Z</time></trkpt><trkpt lat="39.93254549949611" lon="9.699597774248145"><ele>7.0</ele><time>2026-04-03T10:52:26Z</time></trkpt><trkpt lat="39.93257448169232" lon="9.699779838865442"><ele>6.5</ele><time>2026-04-03T10:52:27Z</time></trkpt><trkpt lat="39.93260882162307" lon="9.699945916255334"><ele>6.0</ele><time>2026-04-03T10:52:28Z</time></trkpt><trkpt lat="39.932644630169335" lon="9.700113885904928"><ele>5.5</ele><time>2026-04-03T10:52:29Z</time></trkpt><trkpt lat="39.93267656507555" lon="9.700276283645895"><ele>5.0</ele><time>2026-04-03T10:52:30Z</time></trkpt><trkpt lat="39.93270726540701" lon="9.700436880394538"><ele>4.5</ele><time>2026-04-03T10:52:31Z</time></trkpt><trkpt lat="39.9327380546601" lon="9.700594611794514"><ele>4.0</ele><time>2026-04-03T10:52:32Z</time></trkpt><trkpt lat="39.93276692852533" lon="9.700753990768419"><ele>4.0</ele><time>2026-04-03T10:52:33Z</time></trkpt><trkpt lat="39.93281165939456" lon="9.700895148422633"><ele>4.0</ele><time>2026-04-03T10:52:34Z</time></trkpt><trkpt lat="39.93287860114604" lon="9.701015012916914"><ele>4.0</ele><time>2026-04-03T10:52:35Z</time></trkpt><trkpt lat="39.93295819994328" lon="9.701121259130872"><ele>4.0</ele><time>2026-04-03T10:52:36Z</time></trkpt><trkpt lat="39.93303934405675" lon="9.701229868271275"><ele>4.5</ele><time>2026-04-03T10:52:37Z</time></trkpt><trkpt lat="39.93311862285181" lon="9.701348553486616"><ele>5.0</ele><time>2026-04-03T10:52:38Z</time></trkpt><trkpt lat="39.93319300610305" lon="9.701478718542091"><ele>5.5</ele><time>2026-04-03T10:52:39Z</time></trkpt><trkpt lat="39.93325353701555" lon="9.701625684514227"><ele>6.0</ele><time>2026-04-03T10:52:40Z</time></trkpt><trkpt lat="39.93330024389409" lon="9.701782625580968"><ele>6.75</ele><time>2026-04-03T10:52:41Z</time></trkpt><trkpt lat="39.933335688237264" lon="9.701944857476809"><ele>7.5</ele><time>2026-04-03T10:52:42Z</time></trkpt><trkpt lat="39.933355894726986" lon="9.70211721141501"><ele>8.25</ele><time>2026-04-03T10:52:43Z</time></trkpt><trkpt lat="39.93336820110447" lon="9.7022931966184"><ele>9.0</ele><time>2026-04-03T10:52:44Z</time></trkpt><trkpt lat="39.93338096054107" lon="9.702473877210434"><ele>8.25</ele><time>2026-04-03T10:52:45Z</time></trkpt><trkpt lat="39.93339566096871" lon="9.702653694967244"><ele>7.5</ele><time>2026-04-03T10:52:46Z</time></trkpt><trkpt lat="39.93340621733987" lon="9.7028191172292"><ele>6.75</ele><time>2026-04-03T10:52:47Z</time></trkpt><trkpt lat="39.93341579478823" lon="9.702977850830889"><ele>6.0</ele><time>2026-04-03T10:52:48Z</time></trkpt><trkpt lat="39.933427513087146" lon="9.703140323838351"><ele>6.0</ele><time>2026-04-03T10:52:49Z</time></trkpt><trkpt lat="39.93343633960913" lon="9.703305374108004"><ele>6.0</ele><time>2026-04-03T10:52:50Z</time></trkpt><trkpt lat="39.93344601376666" lon="9.703474046606278"><ele>6.0</ele><time>2026-04-03T10:52:51Z</time></trkpt><trkpt lat="39.933452297623525" lon="9.703637886510863"><ele>6.0</ele><time>2026-04-03T10:52:52Z</time></trkpt><trkpt lat="39.933456835463126" lon="9.703794318012887"><ele>7.0</ele><time>2026-04-03T10:52:53Z</time></trkpt><trkpt lat="39.93348575542739" lon="9.703939478512165"><ele>8.0</ele><time>2026-04-03T10:52:54Z</time></trkpt><trkpt lat="39.9335475188604" lon="9.704076124387472"><ele>9.0</ele><time>2026-04-03T10:52:55Z</time></trkpt><trkpt lat="39.93362718340678" lon="9.704197609174878"><ele>10.0</ele><time>2026-04-03T10:52:56Z</time></trkpt><trkpt lat="39.933728743533436" lon="9.704292289949933"><ele>10.0</ele><time>2026-04-03T10:52:57Z</time></trkpt><trkpt lat="39.93385060001406" lon="9.704352660006457"><ele>10.0</ele><time>2026-04-03T10:52:58Z</time></trkpt><trkpt lat="39.93397545437811" lon="9.704376087338371"><ele>10.0</ele><time>2026-04-03T10:52:59Z</time></trkpt><trkpt lat="39.9340843577545" lon="9.70438717562222"><ele>10.0</ele><time>2026-04-03T10:53:00Z</time></trkpt><trkpt lat="39.93416167431802" lon="9.704369207125898"><ele>10.0</ele><time>2026-04-03T10:53:01Z</time></trkpt><trkpt lat="39.934304934031616" lon="9.70446053166682"><ele>9.5</ele><time>2026-04-03T10:53:03Z</time></trkpt><trkpt lat="39.934358729359666" lon="9.704518371192034"><ele>9.0</ele><time>2026-04-03T10:53:04Z</time></trkpt><trkpt lat="39.934396470960486" lon="9.704615046395828"><ele>8.5</ele><time>2026-04-03T10:53:05Z</time></trkpt><trkpt lat="39.93444133951622" lon="9.704707195574615"><ele>8.0</ele><time>2026-04-03T10:53:06Z</time></trkpt><trkpt lat="39.93449735572187" lon="9.704810850207382"><ele>7.500000000000001</ele><time>2026-04-03T10:53:07Z</time></trkpt><trkpt lat="39.934564278564984" lon="9.704886567874333"><ele>7.0</ele><time>2026-04-03T10:53:08Z</time></trkpt><trkpt lat="39.9346470759838" lon="9.704959801918815"><ele>7.0</ele><time>2026-04-03T10:53:09Z</time></trkpt><trkpt lat="39.93472759727814" lon="9.705041287983784"><ele>6.999999999999999</ele><time>2026-04-03T10:53:10Z</time></trkpt><trkpt lat="39.93480722867985" lon="9.705138171553111"><ele>6.999999999999999</ele><time>2026-04-03T10:53:11Z</time></trkpt><trkpt lat="39.93487789684015" lon="9.705244103345123"><ele>7.0</ele><time>2026-04-03T10:53:12Z</time></trkpt><trkpt lat="39.9349461799" lon="9.705356203665483"><ele>7.0</ele><time>2026-04-03T10:53:13Z</time></trkpt><trkpt lat="39.93501115951448" lon="9.70547267846035"><ele>6.3999999999999995</ele><time>2026-04-03T10:53:14Z</time></trkpt><trkpt lat="39.93507109516969" lon="9.705582802342173"><ele>5.799999999999999</ele><time>2026-04-03T10:53:15Z</time></trkpt><trkpt lat="39.935129067673564" lon="9.705683211342144"><ele>5.2</ele><time>2026-04-03T10:53:16Z</time></trkpt><trkpt lat="39.93518616202781" lon="9.705780962486614"><ele>4.6</ele><time>2026-04-03T10:53:17Z</time></trkpt><trkpt lat="39.935237594905296" lon="9.705871582921414"><ele>4.0</ele><time>2026-04-03T10:53:18Z</time></trkpt><trkpt lat="39.935282405257915" lon="9.705953230195616"><ele>3.9999999999999996</ele><time>2026-04-03T10:53:19Z</time></trkpt><trkpt lat="39.93531741802955" lon="9.70602284992516"><ele>4.0</ele><time>2026-04-03T10:53:20Z</time></trkpt><trkpt lat="39.935362287513364" lon="9.706123236137248"><ele>4.0</ele><time>2026-04-03T10:53:22Z</time></trkpt><trkpt lat="39.93540391578702" lon="9.706199166566222"><ele>4.0</ele><time>2026-04-03T10:53:25Z</time></trkpt><trkpt lat="39.935461132518824" lon="9.706290712642444"><ele>3.9999999999999996</ele><time>2026-04-03T10:53:56Z</time></trkpt><trkpt lat="39.93550904865893" lon="9.706356442856595"><ele>4.0</ele><time>2026-04-03T10:53:57Z</time></trkpt><trkpt lat="39.93559437599553" lon="9.706435818348595"><ele>13.0</ele><time>2026-04-03T10:53:59Z</time></trkpt><trkpt lat="39.935644249551515" lon="9.706486736289362"><ele>13.0</ele><time>2026-04-03T10:54:01Z</time></trkpt><trkpt lat="39.93567105771619" lon="9.706579343707501"><ele>13.0</ele><time>2026-04-03T10:56:00Z</time></trkpt><trkpt lat="39.93566744511137" lon="9.706476600982423"><ele>13.0</ele><time>2026-04-03T10:57:14Z</time></trkpt><trkpt lat="39.935726777067984" lon="9.706511666753743"><ele>13.0</ele><time>2026-04-03T10:57:31.999Z</time></trkpt></trkseg><trkseg><trkpt lat="39.93571407282989" lon="9.706576836619584"><ele>13.0</ele><time>2026-04-03T12:35:56.012Z</time></trkpt><trkpt lat="39.935857825949725" lon="9.7066681645901"><ele>13.0</ele><time>2026-04-03T12:36:00.001Z</time></trkpt><trkpt lat="39.93582538798462" lon="9.706742009157042"><ele>13.0</ele><time>2026-04-03T12:36:10.001Z</time></trkpt><trkpt lat="39.93580871378528" lon="9.706828578043202"><ele>13.0</ele><time>2026-04-03T12:36:18.001Z</time></trkpt><trkpt lat="39.935703923578224" lon="9.706648862125276"><ele>13.0</ele><time>2026-04-03T12:36:22.001Z</time></trkpt><trkpt lat="39.93567159471716" lon="9.706721199826035"><ele>13.0</ele><time>2026-04-03T12:36:23.001Z</time></trkpt><trkpt lat="39.93562620476676" lon="9.706783110379817"><ele>13.0</ele><time>2026-04-03T12:36:24.001Z</time></trkpt><trkpt lat="39.93559314060022" lon="9.706902671714158"><ele>13.0</ele><time>2026-04-03T12:36:27.001Z</time></trkpt><trkpt lat="39.93571759983968" lon="9.706441750083114"><ele>13.0</ele><time>2026-04-03T12:36:31.001Z</time></trkpt><trkpt lat="39.93561931889498" lon="9.706740668052534"><ele>13.0</ele><time>2026-04-03T12:39:01.001Z</time></trkpt><trkpt lat="39.935760671606495" lon="9.706747000925908"><ele>13.0</ele><time>2026-04-03T12:39:09.001Z</time></trkpt><trkpt lat="39.93575569016271" lon="9.70660630019713"><ele>12.999999999999998</ele><time>2026-04-03T12:39:19.002Z</time></trkpt><trkpt lat="39.9357303291535" lon="9.706488279647777"><ele>13.0</ele><time>2026-04-03T12:39:28.002Z</time></trkpt><trkpt lat="39.93566326686782" lon="9.706484708530985"><ele>13.0</ele><time>2026-04-03T12:39:46.001Z</time></trkpt><trkpt lat="39.935601945979265" lon="9.706433438018632"><ele>13.0</ele><time>2026-04-03T12:53:37.999Z</time></trkpt><trkpt lat="39.93552742512536" lon="9.706359524109839"><ele>12.999999999999998</ele><time>2026-04-03T12:53:40.999Z</time></trkpt><trkpt lat="39.93546931343242" lon="9.706272589490764"><ele>13.0</ele><time>2026-04-03T12:53:44.999Z</time></trkpt><trkpt lat="39.935416638631295" lon="9.706194787915967"><ele>12.999999999999998</ele><time>2026-04-03T12:53:48.999Z</time></trkpt><trkpt lat="39.93540655243724" lon="9.70611063155902"><ele>13.0</ele><time>2026-04-03T12:56:55.999Z</time></trkpt><trkpt lat="39.93536653399532" lon="9.706027508349816"><ele>13.0</ele><time>2026-04-03T12:56:57.999Z</time></trkpt><trkpt lat="39.935307230230116" lon="9.705950044021895"><ele>13.0</ele><time>2026-04-03T12:56:59.999Z</time></trkpt><trkpt lat="39.935242666054926" lon="9.705844037804258"><ele>12.999999999999998</ele><time>2026-04-03T12:57:01.999Z</time></trkpt><trkpt lat="39.935191736524864" lon="9.705767008760619"><ele>13.0</ele><time>2026-04-03T12:57:03.999Z</time></trkpt><trkpt lat="39.93513114362276" lon="9.705671122106297"><ele>12.714285714285714</ele><time>2026-04-03T12:57:05.999Z</time></trkpt><trkpt lat="39.93508571052037" lon="9.705581275279284"><ele>12.428571428571429</ele><time>2026-04-03T12:57:07.999Z</time></trkpt><trkpt lat="39.93504769022486" lon="9.705505125508358"><ele>12.142857142857142</ele><time>2026-04-03T12:57:10.999Z</time></trkpt><trkpt lat="39.93500540021905" lon="9.705426557941319"><ele>11.857142857142858</ele><time>2026-04-03T12:57:12.999Z</time></trkpt><trkpt lat="39.934968123889114" lon="9.705347425471883"><ele>11.571428571428571</ele><time>2026-04-03T12:57:14.999Z</time></trkpt><trkpt lat="39.93491468002644" lon="9.705294243784735"><ele>11.285714285714286</ele><time>2026-04-03T12:57:25.999Z</time></trkpt><trkpt lat="39.93486616469971" lon="9.705232231509408"><ele>11.0</ele><time>2026-04-03T12:57:27.999Z</time></trkpt><trkpt lat="39.934808218251035" lon="9.70514304300317"><ele>10.333333333333332</ele><time>2026-04-03T12:57:29.999Z</time></trkpt><trkpt lat="39.93473541819566" lon="9.705037804111294"><ele>9.666666666666666</ele><time>2026-04-03T12:57:31.999Z</time></trkpt><trkpt lat="39.934659183160186" lon="9.704912021877385"><ele>9.0</ele><time>2026-04-03T12:57:33.999Z</time></trkpt><trkpt lat="39.93460727589084" lon="9.704859367521063"><ele>8.333333333333334</ele><time>2026-04-03T12:57:34.999Z</time></trkpt><trkpt lat="39.9345502996824" lon="9.70480694148173"><ele>7.666666666666667</ele><time>2026-04-03T12:57:35.999Z</time></trkpt><trkpt lat="39.93449702722154" lon="9.704745561634722"><ele>7.0</ele><time>2026-04-03T12:57:36.999Z</time></trkpt><trkpt lat="39.93445533815044" lon="9.704672525184597"><ele>7.000000000000001</ele><time>2026-04-03T12:57:37.999Z</time></trkpt><trkpt lat="39.93443233373471" lon="9.704592354528629"><ele>7.0</ele><time>2026-04-03T12:57:38.999Z</time></trkpt><trkpt lat="39.934394460481556" lon="9.704499466146725"><ele>7.0</ele><time>2026-04-03T12:57:39.999Z</time></trkpt><trkpt lat="39.93433306625354" lon="9.704419611442843"><ele>7.0</ele><time>2026-04-03T12:57:40.999Z</time></trkpt><trkpt lat="39.93423568951482" lon="9.704369905505777"><ele>7.000000000000001</ele><time>2026-04-03T12:57:41.999Z</time></trkpt><trkpt lat="39.93413049810142" lon="9.70432454321884"><ele>7.0</ele><time>2026-04-03T12:57:42.999Z</time></trkpt><trkpt lat="39.93400954340584" lon="9.704305823851218"><ele>7.6</ele><time>2026-04-03T12:57:43.999Z</time></trkpt><trkpt lat="39.93390076024721" lon="9.704286678670696"><ele>8.2</ele><time>2026-04-03T12:57:44.999Z</time></trkpt><trkpt lat="39.93379868501997" lon="9.704252093230123"><ele>8.8</ele><time>2026-04-03T12:57:45.999Z</time></trkpt><trkpt lat="39.933705942246284" lon="9.704197005774134"><ele>9.4</ele><time>2026-04-03T12:57:46.999Z</time></trkpt><trkpt lat="39.933633432837546" lon="9.704107046385047"><ele>10.0</ele><time>2026-04-03T12:57:47.999Z</time></trkpt><trkpt lat="39.93356016166365" lon="9.703998939121243"><ele>10.0</ele><time>2026-04-03T12:57:48.999Z</time></trkpt><trkpt lat="39.933508469601755" lon="9.703870302603558"><ele>10.0</ele><time>2026-04-03T12:57:49.999Z</time></trkpt><trkpt lat="39.93346942862593" lon="9.70372019591809"><ele>10.0</ele><time>2026-04-03T12:57:50.999Z</time></trkpt><trkpt lat="39.93347067021048" lon="9.703562730351475"><ele>10.0</ele><time>2026-04-03T12:57:51.999Z</time></trkpt><trkpt lat="39.93346834760603" lon="9.703412525025973"><ele>9.2</ele><time>2026-04-03T12:57:52.999Z</time></trkpt><trkpt lat="39.933461078504386" lon="9.703260029275407"><ele>8.4</ele><time>2026-04-03T12:57:53.999Z</time></trkpt><trkpt lat="39.93345048728882" lon="9.703114416123167"><ele>7.6</ele><time>2026-04-03T12:57:54.999Z</time></trkpt><trkpt lat="39.933442385480646" lon="9.702984455572452"><ele>6.8</ele><time>2026-04-03T12:57:55.999Z</time></trkpt><trkpt lat="39.93343444288091" lon="9.702867950455293"><ele>6.0</ele><time>2026-04-03T12:57:56.999Z</time></trkpt><trkpt lat="39.93342910127014" lon="9.702752768217653"><ele>6.0</ele><time>2026-04-03T12:57:57.999Z</time></trkpt><trkpt lat="39.93342206980303" lon="9.702635650387"><ele>6.0</ele><time>2026-04-03T12:57:58.999Z</time></trkpt><trkpt lat="39.93341080496851" lon="9.702517071089991"><ele>6.0</ele><time>2026-04-03T12:57:59.999Z</time></trkpt><trkpt lat="39.93339607340331" lon="9.702400387447343"><ele>6.0</ele><time>2026-04-03T12:58:00.999Z</time></trkpt><trkpt lat="39.93338448692792" lon="9.70228079412254"><ele>6.0</ele><time>2026-04-03T12:58:01.999Z</time></trkpt><trkpt lat="39.933381674355516" lon="9.70215978015961"><ele>6.0</ele><time>2026-04-03T12:58:02.999Z</time></trkpt><trkpt lat="39.93337382047022" lon="9.70204128551517"><ele>6.0</ele><time>2026-04-03T12:58:03.999Z</time></trkpt><trkpt lat="39.933360139310956" lon="9.70191940816567"><ele>6.0</ele><time>2026-04-03T12:58:04.999Z</time></trkpt><trkpt lat="39.93333839120692" lon="9.701796196212346"><ele>6.0</ele><time>2026-04-03T12:58:05.999Z</time></trkpt><trkpt lat="39.93330663019144" lon="9.70166736366707"><ele>6.0</ele><time>2026-04-03T12:58:06.999Z</time></trkpt><trkpt lat="39.93325974477438" lon="9.701542290655999"><ele>6.0</ele><time>2026-04-03T12:58:07.999Z</time></trkpt><trkpt lat="39.93319951992451" lon="9.701425886782442"><ele>6.0</ele><time>2026-04-03T12:58:08.999Z</time></trkpt><trkpt lat="39.9331240549784" lon="9.701320922874626"><ele>6.0</ele><time>2026-04-03T12:58:09.999Z</time></trkpt><trkpt lat="39.93304700779358" lon="9.701214141507172"><ele>6.0</ele><time>2026-04-03T12:58:10.999Z</time></trkpt><trkpt lat="39.93297070234353" lon="9.7011012926059"><ele>6.0</ele><time>2026-04-03T12:58:11.999Z</time></trkpt><trkpt lat="39.93289955027694" lon="9.700979228833402"><ele>5.333333333333333</ele><time>2026-04-03T12:58:12.999Z</time></trkpt><trkpt lat="39.9328322301792" lon="9.700851496272874"><ele>4.666666666666666</ele><time>2026-04-03T12:58:13.999Z</time></trkpt><trkpt lat="39.932748418914336" lon="9.700541486579594"><ele>4.0</ele><time>2026-04-03T12:58:15.999Z</time></trkpt><trkpt lat="39.93272154361371" lon="9.700379955648083"><ele>4.25</ele><time>2026-04-03T12:58:16.999Z</time></trkpt><trkpt lat="39.93269842759433" lon="9.700222706015664"><ele>4.5</ele><time>2026-04-03T12:58:17.999Z</time></trkpt><trkpt lat="39.932672821557766" lon="9.700070098796338"><ele>4.75</ele><time>2026-04-03T12:58:18.999Z</time></trkpt><trkpt lat="39.9326467221478" lon="9.699920550028965"><ele>5.0</ele><time>2026-04-03T12:58:19.999Z</time></trkpt><trkpt lat="39.93259759917578" lon="9.699624454092916"><ele>5.0</ele><time>2026-04-03T12:58:21.999Z</time></trkpt><trkpt lat="39.93257134267115" lon="9.699477576905023"><ele>5.0</ele><time>2026-04-03T12:58:22.999Z</time></trkpt><trkpt lat="39.93254594441257" lon="9.69933007865824"><ele>5.0</ele><time>2026-04-03T12:58:23.999Z</time></trkpt><trkpt lat="39.93252241412797" lon="9.699183718354984"><ele>5.0</ele><time>2026-04-03T12:58:24.999Z</time></trkpt><trkpt lat="39.93250219122706" lon="9.699029931796323"><ele>5.75</ele><time>2026-04-03T12:58:25.999Z</time></trkpt><trkpt lat="39.93247727861665" lon="9.698873803371399"><ele>6.5</ele><time>2026-04-03T12:58:27Z</time></trkpt><trkpt lat="39.932450203586086" lon="9.69871013617448"><ele>7.25</ele><time>2026-04-03T12:58:28Z</time></trkpt><trkpt lat="39.93242278342687" lon="9.698542059645074"><ele>8.0</ele><time>2026-04-03T12:58:28.998Z</time></trkpt><trkpt lat="39.93239528676514" lon="9.698373231093026"><ele>8.5</ele><time>2026-04-03T12:58:29.998Z</time></trkpt><trkpt lat="39.932367262693255" lon="9.69820660674398"><ele>9.0</ele><time>2026-04-03T12:58:30.998Z</time></trkpt><trkpt lat="39.932340249922234" lon="9.698044681451934"><ele>9.5</ele><time>2026-04-03T12:58:31.998Z</time></trkpt><trkpt lat="39.93231335003364" lon="9.697884460174393"><ele>10.0</ele><time>2026-04-03T12:58:32.998Z</time></trkpt><trkpt lat="39.932287764004705" lon="9.697724490915494"><ele>10.0</ele><time>2026-04-03T12:58:33.998Z</time></trkpt><trkpt lat="39.93225918446356" lon="9.697565017523504"><ele>10.0</ele><time>2026-04-03T12:58:34.998Z</time></trkpt><trkpt lat="39.932230664959" lon="9.697402838664377"><ele>10.0</ele><time>2026-04-03T12:58:35.999Z</time></trkpt><trkpt lat="39.93220173713768" lon="9.697240132226021"><ele>10.0</ele><time>2026-04-03T12:58:36.999Z</time></trkpt><trkpt lat="39.93217874037448" lon="9.697072381061554"><ele>10.0</ele><time>2026-04-03T12:58:37.999Z</time></trkpt><trkpt lat="39.93215208503607" lon="9.696903284068199"><ele>10.0</ele><time>2026-04-03T12:58:38.999Z</time></trkpt><trkpt lat="39.932125815085335" lon="9.69673247096177"><ele>10.0</ele><time>2026-04-03T12:58:39.999Z</time></trkpt><trkpt lat="39.93209828471169" lon="9.696562071082244"><ele>10.0</ele><time>2026-04-03T12:58:40.999Z</time></trkpt><trkpt lat="39.93207007656949" lon="9.696387949581043"><ele>10.0</ele><time>2026-04-03T12:58:41.999Z</time></trkpt><trkpt lat="39.932038638767104" lon="9.696212319129462"><ele>10.0</ele><time>2026-04-03T12:58:42.999Z</time></trkpt><trkpt lat="39.931978439312125" lon="9.695858205197382"><ele>10.0</ele><time>2026-04-03T12:58:44.999Z</time></trkpt><trkpt lat="39.931946480374165" lon="9.6956812099917"><ele>10.5</ele><time>2026-04-03T12:58:45.999Z</time></trkpt><trkpt lat="39.93191835361289" lon="9.695501957334862"><ele>11.0</ele><time>2026-04-03T12:58:46.999Z</time></trkpt><trkpt lat="39.931898928342214" lon="9.695321704170466"><ele>11.5</ele><time>2026-04-03T12:58:47.999Z</time></trkpt><trkpt lat="39.93188004468459" lon="9.695138388905502"><ele>12.0</ele><time>2026-04-03T12:58:48.999Z</time></trkpt><trkpt lat="39.93184815465381" lon="9.694958012898205"><ele>12.0</ele><time>2026-04-03T12:58:49.999Z</time></trkpt><trkpt lat="39.93181636899123" lon="9.694772554161357"><ele>12.0</ele><time>2026-04-03T12:58:50.999Z</time></trkpt><trkpt lat="39.93179256600752" lon="9.694579955136463"><ele>12.0</ele><time>2026-04-03T12:58:51.999Z</time></trkpt><trkpt lat="39.93177586599726" lon="9.69438761552546"><ele>12.0</ele><time>2026-04-03T12:58:52.999Z</time></trkpt><trkpt lat="39.93176256385697" lon="9.694203992126122"><ele>11.25</ele><time>2026-04-03T12:58:53.999Z</time></trkpt><trkpt lat="39.931761574650466" lon="9.694024676801966"><ele>10.5</ele><time>2026-04-03T12:58:54.999Z</time></trkpt><trkpt lat="39.93178195702806" lon="9.69386065633409"><ele>9.75</ele><time>2026-04-03T12:58:55.999Z</time></trkpt><trkpt lat="39.931814612769855" lon="9.693717921675804"><ele>9.0</ele><time>2026-04-03T12:58:56.999Z</time></trkpt><trkpt lat="39.931819743575694" lon="9.693590727420021"><ele>9.333333333333334</ele><time>2026-04-03T12:58:57.999Z</time></trkpt><trkpt lat="39.931795863341826" lon="9.693458744640667"><ele>9.666666666666668</ele><time>2026-04-03T12:58:58.999Z</time></trkpt><trkpt lat="39.93158776587405" lon="9.6933144535048"><ele>10.0</ele><time>2026-04-03T12:59:00.999Z</time></trkpt><trkpt lat="39.93143748561601" lon="9.693158740801698"><ele>9.8</ele><time>2026-04-03T12:59:02.999Z</time></trkpt><trkpt lat="39.93142920024419" lon="9.693030985929424"><ele>9.6</ele><time>2026-04-03T12:59:03.999Z</time></trkpt><trkpt lat="39.93141238889909" lon="9.692912906138718"><ele>9.4</ele><time>2026-04-03T12:59:04.999Z</time></trkpt><trkpt lat="39.931418982128136" lon="9.69278960782232"><ele>9.2</ele><time>2026-04-03T12:59:05.999Z</time></trkpt><trkpt lat="39.93142132587677" lon="9.692664307134121"><ele>9.0</ele><time>2026-04-03T12:59:06.999Z</time></trkpt><trkpt lat="39.93141558418424" lon="9.69252871193838"><ele>9.0</ele><time>2026-04-03T12:59:07.999Z</time></trkpt><trkpt lat="39.93139810155758" lon="9.69238896689346"><ele>9.0</ele><time>2026-04-03T12:59:08.999Z</time></trkpt><trkpt lat="39.93138764382172" lon="9.692234819170022"><ele>9.0</ele><time>2026-04-03T12:59:09.999Z</time></trkpt><trkpt lat="39.93136180944654" lon="9.692082398411841"><ele>9.0</ele><time>2026-04-03T12:59:10.999Z</time></trkpt><trkpt lat="39.9313355625304" lon="9.691929973689668"><ele>9.5</ele><time>2026-04-03T12:59:11.999Z</time></trkpt><trkpt lat="39.93129676178636" lon="9.691770759975004"><ele>10.0</ele><time>2026-04-03T12:59:12.999Z</time></trkpt><trkpt lat="39.931268825674756" lon="9.691603222270707"><ele>10.5</ele><time>2026-04-03T12:59:14Z</time></trkpt><trkpt lat="39.931242538398706" lon="9.69142769673612"><ele>11.0</ele><time>2026-04-03T12:59:15Z</time></trkpt><trkpt lat="39.93121736398288" lon="9.691248354480933"><ele>11.0</ele><time>2026-04-03T12:59:16Z</time></trkpt><trkpt lat="39.931184818275874" lon="9.691064869586919"><ele>11.0</ele><time>2026-04-03T12:59:17Z</time></trkpt><trkpt lat="39.93114924023012" lon="9.690878368013834"><ele>11.0</ele><time>2026-04-03T12:59:18Z</time></trkpt><trkpt lat="39.93111572044239" lon="9.690685258940139"><ele>11.0</ele><time>2026-04-03T12:59:19Z</time></trkpt><trkpt lat="39.93108502813785" lon="9.69049385174197"><ele>11.0</ele><time>2026-04-03T12:59:20Z</time></trkpt><trkpt lat="39.931066579861465" lon="9.690299956035961"><ele>11.0</ele><time>2026-04-03T12:59:21Z</time></trkpt><trkpt lat="39.93101876261566" lon="9.690108343777531"><ele>11.0</ele><time>2026-04-03T12:59:22Z</time></trkpt><trkpt lat="39.93099020214002" lon="9.689910798817275"><ele>11.0</ele><time>2026-04-03T12:59:23Z</time></trkpt><trkpt lat="39.93096378161612" lon="9.689709424861132"><ele>11.0</ele><time>2026-04-03T12:59:24Z</time></trkpt><trkpt lat="39.93093169287358" lon="9.689509072198147"><ele>11.0</ele><time>2026-04-03T12:59:25Z</time></trkpt><trkpt lat="39.93089750225664" lon="9.689319601379786"><ele>10.0</ele><time>2026-04-03T12:59:26Z</time></trkpt><trkpt lat="39.93086569503692" lon="9.689134221496058"><ele>9.0</ele><time>2026-04-03T12:59:27Z</time></trkpt><trkpt lat="39.93083718590067" lon="9.688951642018727"><ele>8.0</ele><time>2026-04-03T12:59:28Z</time></trkpt><trkpt lat="39.930808981160666" lon="9.68876976011657"><ele>7.0</ele><time>2026-04-03T12:59:29Z</time></trkpt><trkpt lat="39.93077914964576" lon="9.688593635014119"><ele>7.25</ele><time>2026-04-03T12:59:30Z</time></trkpt><trkpt lat="39.93074785679222" lon="9.688421758979093"><ele>7.5</ele><time>2026-04-03T12:59:31Z</time></trkpt><trkpt lat="39.93071853729337" lon="9.688243196199146"><ele>7.75</ele><time>2026-04-03T12:59:32Z</time></trkpt><trkpt lat="39.930689818522715" lon="9.688061480205137"><ele>8.0</ele><time>2026-04-03T12:59:33Z</time></trkpt><trkpt lat="39.93065734883777" lon="9.68787317299412"><ele>8.25</ele><time>2026-04-03T12:59:34Z</time></trkpt><trkpt lat="39.930626388913936" lon="9.687688061915935"><ele>8.5</ele><time>2026-04-03T12:59:35Z</time></trkpt><trkpt lat="39.93059225645044" lon="9.687504486933957"><ele>8.75</ele><time>2026-04-03T12:59:36Z</time></trkpt><trkpt lat="39.93055764224892" lon="9.687321826559476"><ele>9.0</ele><time>2026-04-03T12:59:37Z</time></trkpt><trkpt lat="39.93054148736815" lon="9.687135877901474"><ele>9.0</ele><time>2026-04-03T12:59:38Z</time></trkpt><trkpt lat="39.93051128687246" lon="9.686957107879063"><ele>9.0</ele><time>2026-04-03T12:59:39Z</time></trkpt><trkpt lat="39.93047051773256" lon="9.686783791087151"><ele>9.0</ele><time>2026-04-03T12:59:40Z</time></trkpt><trkpt lat="39.930448180684564" lon="9.686615949193232"><ele>9.0</ele><time>2026-04-03T12:59:41Z</time></trkpt><trkpt lat="39.93042414526746" lon="9.686455769074978"><ele>9.0</ele><time>2026-04-03T12:59:42Z</time></trkpt><trkpt lat="39.93040229648764" lon="9.686302541274225"><ele>9.0</ele><time>2026-04-03T12:59:43Z</time></trkpt><trkpt lat="39.93038149047888" lon="9.686161733935926"><ele>9.0</ele><time>2026-04-03T12:59:44Z</time></trkpt><trkpt lat="39.93036157944714" lon="9.686051404348458"><ele>9.0</ele><time>2026-04-03T12:59:45Z</time></trkpt><trkpt lat="39.9303484176233" lon="9.685958909866565"><ele>9.0</ele><time>2026-04-03T12:59:46Z</time></trkpt><trkpt lat="39.930375485155245" lon="9.685818286393305"><ele>8.25</ele><time>2026-04-03T12:59:48Z</time></trkpt><trkpt lat="39.930484773625075" lon="9.685772057554281"><ele>7.5</ele><time>2026-04-03T12:59:50Z</time></trkpt><trkpt lat="39.93057393254001" lon="9.685733513703164"><ele>6.75</ele><time>2026-04-03T12:59:52Z</time></trkpt><trkpt lat="39.9305456699915" lon="9.685518639971594"><ele>6.0</ele><time>2026-04-03T12:59:53Z</time></trkpt><trkpt lat="39.93051698157761" lon="9.685416622472262"><ele>6.0</ele><time>2026-04-03T12:59:54Z</time></trkpt><trkpt lat="39.930493495927294" lon="9.685299938319812"><ele>6.0</ele><time>2026-04-03T12:59:55Z</time></trkpt><trkpt lat="39.930474347215046" lon="9.68517122216269"><ele>6.0</ele><time>2026-04-03T12:59:56Z</time></trkpt><trkpt lat="39.9304544453535" lon="9.685029316868336"><ele>6.0</ele><time>2026-04-03T12:59:57Z</time></trkpt><trkpt lat="39.93042858922497" lon="9.68487727481458"><ele>6.0</ele><time>2026-04-03T12:59:58Z</time></trkpt><trkpt lat="39.930402673609294" lon="9.68471959324941"><ele>6.0</ele><time>2026-04-03T12:59:59Z</time></trkpt><trkpt lat="39.93037779746967" lon="9.684559041203409"><ele>6.0</ele><time>2026-04-03T13:00:00Z</time></trkpt><trkpt lat="39.93035254468051" lon="9.68439700460043"><ele>6.0</ele><time>2026-04-03T13:00:01Z</time></trkpt><trkpt lat="39.93032256099702" lon="9.684237256608936"><ele>6.0</ele><time>2026-04-03T13:00:02Z</time></trkpt><trkpt lat="39.930295884828205" lon="9.684073152431349"><ele>6.25</ele><time>2026-04-03T13:00:03Z</time></trkpt><trkpt lat="39.93027140248912" lon="9.683903910987105"><ele>6.5</ele><time>2026-04-03T13:00:04Z</time></trkpt><trkpt lat="39.93024647012848" lon="9.683730638805452"><ele>6.75</ele><time>2026-04-03T13:00:05Z</time></trkpt><trkpt lat="39.930217639024065" lon="9.683552830045892"><ele>7.0</ele><time>2026-04-03T13:00:06Z</time></trkpt><trkpt lat="39.93018690220472" lon="9.683371950062709"><ele>7.0</ele><time>2026-04-03T13:00:07Z</time></trkpt><trkpt lat="39.93015008008714" lon="9.683187821710591"><ele>7.0</ele><time>2026-04-03T13:00:08Z</time></trkpt><trkpt lat="39.930114369837355" lon="9.68300012294129"><ele>7.0</ele><time>2026-04-03T13:00:09Z</time></trkpt><trkpt lat="39.93008308119264" lon="9.682805619981448"><ele>7.0</ele><time>2026-04-03T13:00:10Z</time></trkpt><trkpt lat="39.93005302637438" lon="9.682609191321133"><ele>6.333333333333334</ele><time>2026-04-03T13:00:11Z</time></trkpt><trkpt lat="39.930023520846085" lon="9.68240688673981"><ele>5.666666666666667</ele><time>2026-04-03T13:00:12Z</time></trkpt><trkpt lat="39.92999081604016" lon="9.682203764911948"><ele>5.0</ele><time>2026-04-03T13:00:13Z</time></trkpt><trkpt lat="39.92995836691621" lon="9.681997111805089"><ele>4.666666666666667</ele><time>2026-04-03T13:00:14Z</time></trkpt><trkpt lat="39.92992451760934" lon="9.681796261187214"><ele>4.333333333333333</ele><time>2026-04-03T13:00:15Z</time></trkpt><trkpt lat="39.92989383941917" lon="9.681595797309196"><ele>4.0</ele><time>2026-04-03T13:00:16Z</time></trkpt><trkpt lat="39.92986308647997" lon="9.681397030385577"><ele>4.0</ele><time>2026-04-03T13:00:17Z</time></trkpt><trkpt lat="39.92983039784067" lon="9.681197634668614"><ele>4.0</ele><time>2026-04-03T13:00:18Z</time></trkpt><trkpt lat="39.92979802940435" lon="9.680996713413835"><ele>4.0</ele><time>2026-04-03T13:00:19Z</time></trkpt><trkpt lat="39.92976460653853" lon="9.680802156496483"><ele>4.5</ele><time>2026-04-03T13:00:20Z</time></trkpt><trkpt lat="39.92973546888896" lon="9.68062159275527"><ele>5.0</ele><time>2026-04-03T13:00:21Z</time></trkpt><trkpt lat="39.92970536099955" lon="9.680452812316434"><ele>5.5</ele><time>2026-04-03T13:00:22Z</time></trkpt><trkpt lat="39.929675109469954" lon="9.68028877298247"><ele>6.0</ele><time>2026-04-03T13:00:23Z</time></trkpt><trkpt lat="39.92964296720495" lon="9.680126773415793"><ele>6.5</ele><time>2026-04-03T13:00:24Z</time></trkpt><trkpt lat="39.929614323170924" lon="9.679968825092224"><ele>7.0</ele><time>2026-04-03T13:00:25Z</time></trkpt><trkpt lat="39.92959071520366" lon="9.679816678745025"><ele>7.5</ele><time>2026-04-03T13:00:26Z</time></trkpt><trkpt lat="39.929571614742905" lon="9.679665623135717"><ele>8.0</ele><time>2026-04-03T13:00:27Z</time></trkpt><trkpt lat="39.92955308001449" lon="9.679513572768627"><ele>9.0</ele><time>2026-04-03T13:00:28Z</time></trkpt><trkpt lat="39.92953358296723" lon="9.679362003286496"><ele>10.0</ele><time>2026-04-03T13:00:29Z</time></trkpt><trkpt lat="39.92951769989179" lon="9.679211266298465"><ele>11.0</ele><time>2026-04-03T13:00:30Z</time></trkpt><trkpt lat="39.929515425377915" lon="9.679058005151125"><ele>12.0</ele><time>2026-04-03T13:00:31Z</time></trkpt><trkpt lat="39.92952747909004" lon="9.67890423800379"><ele>12.0</ele><time>2026-04-03T13:00:32Z</time></trkpt><trkpt lat="39.929542751377376" lon="9.678748397766736"><ele>12.0</ele><time>2026-04-03T13:00:33Z</time></trkpt><trkpt lat="39.92955426919107" lon="9.678587460720525"><ele>12.0</ele><time>2026-04-03T13:00:34Z</time></trkpt><trkpt lat="39.92956173396221" lon="9.678424748321035"><ele>12.0</ele><time>2026-04-03T13:00:34.998Z</time></trkpt><trkpt lat="39.929572637660385" lon="9.678265538195326"><ele>11.0</ele><time>2026-04-03T13:00:35.998Z</time></trkpt><trkpt lat="39.92958855128477" lon="9.678102249053048"><ele>10.0</ele><time>2026-04-03T13:00:36.998Z</time></trkpt><trkpt lat="39.92960765043457" lon="9.677938371595129"><ele>9.0</ele><time>2026-04-03T13:00:37.998Z</time></trkpt><trkpt lat="39.92962649882038" lon="9.677776718960974"><ele>8.0</ele><time>2026-04-03T13:00:38.998Z</time></trkpt><trkpt lat="39.929645885750425" lon="9.677620050855609"><ele>7.75</ele><time>2026-04-03T13:00:39.998Z</time></trkpt><trkpt lat="39.92966582618687" lon="9.677469017836295"><ele>7.5</ele><time>2026-04-03T13:00:40.998Z</time></trkpt><trkpt lat="39.9296858970166" lon="9.677324626467824"><ele>7.25</ele><time>2026-04-03T13:00:41.998Z</time></trkpt><trkpt lat="39.9297080799325" lon="9.67718298686628"><ele>7.0</ele><time>2026-04-03T13:00:42.998Z</time></trkpt><trkpt lat="39.92973702374081" lon="9.677042981246261"><ele>7.0</ele><time>2026-04-03T13:00:43.998Z</time></trkpt><trkpt lat="39.92977371803917" lon="9.676902962308457"><ele>7.0</ele><time>2026-04-03T13:00:44.998Z</time></trkpt><trkpt lat="39.92981934650818" lon="9.676764766687228"><ele>7.0</ele><time>2026-04-03T13:00:45.998Z</time></trkpt><trkpt lat="39.92987305453354" lon="9.676632676421448"><ele>7.0</ele><time>2026-04-03T13:00:46.998Z</time></trkpt><trkpt lat="39.92993455959761" lon="9.676506829045188"><ele>7.0</ele><time>2026-04-03T13:00:47.998Z</time></trkpt><trkpt lat="39.93000541255405" lon="9.676383619587227"><ele>7.0</ele><time>2026-04-03T13:00:48.998Z</time></trkpt><trkpt lat="39.9300863997639" lon="9.676266647742482"><ele>7.0</ele><time>2026-04-03T13:00:49.999Z</time></trkpt><trkpt lat="39.930173524717915" lon="9.676155815344874"><ele>7.0</ele><time>2026-04-03T13:00:50.999Z</time></trkpt><trkpt lat="39.930267678764864" lon="9.676050827792732"><ele>7.5</ele><time>2026-04-03T13:00:51.999Z</time></trkpt><trkpt lat="39.930368497403535" lon="9.675953703454901"><ele>8.0</ele><time>2026-04-03T13:00:52.999Z</time></trkpt><trkpt lat="39.930475375879645" lon="9.67586770284251"><ele>8.5</ele><time>2026-04-03T13:00:53.999Z</time></trkpt><trkpt lat="39.93059138150751" lon="9.675796275618463"><ele>9.0</ele><time>2026-04-03T13:00:54.999Z</time></trkpt><trkpt lat="39.93071224804903" lon="9.675737188935887"><ele>9.0</ele><time>2026-04-03T13:00:55.999Z</time></trkpt><trkpt lat="39.930838201548106" lon="9.675691002820425"><ele>9.0</ele><time>2026-04-03T13:00:56.999Z</time></trkpt><trkpt lat="39.93096525949076" lon="9.675655006228912"><ele>9.0</ele><time>2026-04-03T13:00:57.999Z</time></trkpt><trkpt lat="39.9310921180502" lon="9.675632644122077"><ele>9.0</ele><time>2026-04-03T13:00:58.999Z</time></trkpt><trkpt lat="39.931218869972085" lon="9.675624364635404"><ele>9.0</ele><time>2026-04-03T13:00:59.999Z</time></trkpt><trkpt lat="39.931336622109924" lon="9.675626872628909"><ele>9.0</ele><time>2026-04-03T13:01:00.999Z</time></trkpt><trkpt lat="39.93144739838311" lon="9.675632101548368"><ele>9.0</ele><time>2026-04-03T13:01:01.999Z</time></trkpt><trkpt lat="39.9315516335358" lon="9.675633121093128"><ele>9.0</ele><time>2026-04-03T13:01:02.999Z</time></trkpt><trkpt lat="39.93164612469109" lon="9.675634048332734"><ele>9.0</ele><time>2026-04-03T13:01:03.999Z</time></trkpt><trkpt lat="39.93173034629639" lon="9.675634440315159"><ele>9.0</ele><time>2026-04-03T13:01:04.999Z</time></trkpt><trkpt lat="39.931801420065085" lon="9.675635468070254"><ele>9.0</ele><time>2026-04-03T13:01:05.999Z</time></trkpt><trkpt lat="39.931900992663714" lon="9.67563768040293"><ele>9.0</ele><time>2026-04-03T13:01:07.999Z</time></trkpt><trkpt lat="39.93198263546102" lon="9.675641739250255"><ele>9.0</ele><time>2026-04-03T13:01:10.999Z</time></trkpt><trkpt lat="39.93206828410719" lon="9.675642913668026"><ele>9.0</ele><time>2026-04-03T13:01:14.999Z</time></trkpt><trkpt lat="39.93213954601975" lon="9.675642879718515"><ele>9.0</ele><time>2026-04-03T13:01:18Z</time></trkpt><trkpt lat="39.9322104623047" lon="9.675640182028486"><ele>9.0</ele><time>2026-04-03T13:01:20Z</time></trkpt><trkpt lat="39.932319880814" lon="9.675620828876179"><ele>9.0</ele><time>2026-04-03T13:01:22Z</time></trkpt><trkpt lat="39.93238592064278" lon="9.675710939604748"><ele>9.0</ele><time>2026-04-03T13:01:23Z</time></trkpt><trkpt lat="39.932448152359875" lon="9.675696717231261"><ele>9.0</ele><time>2026-04-03T13:01:24Z</time></trkpt><trkpt lat="39.93248962583077" lon="9.675634033901497"><ele>9.0</ele><time>2026-04-03T13:01:25Z</time></trkpt><trkpt lat="39.93250130734266" lon="9.675544737744044"><ele>9.0</ele><time>2026-04-03T13:01:26Z</time></trkpt><trkpt lat="39.93253641930047" lon="9.675475926671666"><ele>9.0</ele><time>2026-04-03T13:01:27Z</time></trkpt><trkpt lat="39.93243089488042" lon="9.675361883569298"><ele>9.0</ele><time>2026-04-03T13:01:28Z</time></trkpt><trkpt lat="39.93238927883131" lon="9.675266910123563"><ele>9.0</ele><time>2026-04-03T13:01:29Z</time></trkpt><trkpt lat="39.932357630932174" lon="9.675146257783082"><ele>9.0</ele><time>2026-04-03T13:01:30Z</time></trkpt><trkpt lat="39.932322707902316" lon="9.675015538862867"><ele>9.0</ele><time>2026-04-03T13:01:31Z</time></trkpt><trkpt lat="39.93228886075533" lon="9.674875579900718"><ele>9.0</ele><time>2026-04-03T13:01:32Z</time></trkpt><trkpt lat="39.93225782791954" lon="9.674724699003415"><ele>9.0</ele><time>2026-04-03T13:01:33Z</time></trkpt><trkpt lat="39.93222298591504" lon="9.674565592710923"><ele>9.0</ele><time>2026-04-03T13:01:34Z</time></trkpt><trkpt lat="39.93218454508734" lon="9.67439316279444"><ele>9.0</ele><time>2026-04-03T13:01:35Z</time></trkpt><trkpt lat="39.9321450896076" lon="9.674213022334596"><ele>9.333333333333334</ele><time>2026-04-03T13:01:36Z</time></trkpt><trkpt lat="39.93210537726489" lon="9.674024091370468"><ele>9.666666666666668</ele><time>2026-04-03T13:01:37Z</time></trkpt><trkpt lat="39.93206812199429" lon="9.67383284377941"><ele>10.0</ele><time>2026-04-03T13:01:38Z</time></trkpt><trkpt lat="39.9320336684404" lon="9.67363352559652"><ele>10.0</ele><time>2026-04-03T13:01:39Z</time></trkpt><trkpt lat="39.932007717376806" lon="9.673430001241181"><ele>10.0</ele><time>2026-04-03T13:01:40Z</time></trkpt><trkpt lat="39.93199120523568" lon="9.67321943464189"><ele>10.0</ele><time>2026-04-03T13:01:41Z</time></trkpt><trkpt lat="39.93198297244827" lon="9.673014033993308"><ele>10.0</ele><time>2026-04-03T13:01:42Z</time></trkpt><trkpt lat="39.931972597098095" lon="9.672817919505718"><ele>10.0</ele><time>2026-04-03T13:01:43Z</time></trkpt><trkpt lat="39.931963569341626" lon="9.672625214169495"><ele>10.0</ele><time>2026-04-03T13:01:44Z</time></trkpt><trkpt lat="39.93196353994112" lon="9.672429737433168"><ele>10.0</ele><time>2026-04-03T13:01:45Z</time></trkpt><trkpt lat="39.93196621674482" lon="9.67223675969613"><ele>10.0</ele><time>2026-04-03T13:01:46Z</time></trkpt><trkpt lat="39.93197049572099" lon="9.672053226628131"><ele>10.0</ele><time>2026-04-03T13:01:47Z</time></trkpt><trkpt lat="39.93197739753072" lon="9.671884220113693"><ele>10.0</ele><time>2026-04-03T13:01:48Z</time></trkpt><trkpt lat="39.93198611598802" lon="9.671731139261857"><ele>10.0</ele><time>2026-04-03T13:01:49Z</time></trkpt><trkpt lat="39.932006279812065" lon="9.67159156959094"><ele>9.6</ele><time>2026-04-03T13:01:50Z</time></trkpt><trkpt lat="39.932047623083655" lon="9.67147058192924"><ele>9.2</ele><time>2026-04-03T13:01:51Z</time></trkpt><trkpt lat="39.93207613343828" lon="9.671352487594234"><ele>8.8</ele><time>2026-04-03T13:01:52Z</time></trkpt><trkpt lat="39.93207218626848" lon="9.671219891183071"><ele>8.4</ele><time>2026-04-03T13:01:53Z</time></trkpt><trkpt lat="39.93205840938418" lon="9.671075408112047"><ele>8.0</ele><time>2026-04-03T13:01:54Z</time></trkpt><trkpt lat="39.93206016484672" lon="9.670926700947852"><ele>8.0</ele><time>2026-04-03T13:01:55Z</time></trkpt><trkpt lat="39.93207996859169" lon="9.670770351053145"><ele>8.0</ele><time>2026-04-03T13:01:56Z</time></trkpt><trkpt lat="39.93211000840951" lon="9.670610810206133"><ele>8.0</ele><time>2026-04-03T13:01:57Z</time></trkpt><trkpt lat="39.93214080949048" lon="9.670447312798876"><ele>8.0</ele><time>2026-04-03T13:01:58Z</time></trkpt><trkpt lat="39.93217165299646" lon="9.670284566194319"><ele>8.25</ele><time>2026-04-03T13:01:59Z</time></trkpt><trkpt lat="39.932203855807614" lon="9.6701234878324"><ele>8.5</ele><time>2026-04-03T13:02:00Z</time></trkpt><trkpt lat="39.9322313726334" lon="9.669962596142915"><ele>8.75</ele><time>2026-04-03T13:02:01Z</time></trkpt><trkpt lat="39.932262973802494" lon="9.669803899833274"><ele>9.0</ele><time>2026-04-03T13:02:02Z</time></trkpt><trkpt lat="39.93232386872188" lon="9.669484896752433"><ele>9.0</ele><time>2026-04-03T13:02:04Z</time></trkpt><trkpt lat="39.93235680246938" lon="9.669317951696938"><ele>9.0</ele><time>2026-04-03T13:02:05Z</time></trkpt><trkpt lat="39.93239409161377" lon="9.66914362117015"><ele>9.0</ele><time>2026-04-03T13:02:06Z</time></trkpt><trkpt lat="39.9324297873082" lon="9.66896490990756"><ele>9.0</ele><time>2026-04-03T13:02:07Z</time></trkpt><trkpt lat="39.93246943177143" lon="9.668781154894187"><ele>9.0</ele><time>2026-04-03T13:02:08Z</time></trkpt><trkpt lat="39.93250581695547" lon="9.668589695180005"><ele>9.0</ele><time>2026-04-03T13:02:09Z</time></trkpt><trkpt lat="39.93254050421627" lon="9.668391356469533"><ele>9.0</ele><time>2026-04-03T13:02:10Z</time></trkpt><trkpt lat="39.9325707840273" lon="9.668189671736226"><ele>9.0</ele><time>2026-04-03T13:02:11Z</time></trkpt><trkpt lat="39.93260552109037" lon="9.667984178228176"><ele>9.0</ele><time>2026-04-03T13:02:12Z</time></trkpt><trkpt lat="39.93264261525213" lon="9.667776124450187"><ele>9.0</ele><time>2026-04-03T13:02:13Z</time></trkpt><trkpt lat="39.93268127367881" lon="9.667569589220976"><ele>8.333333333333334</ele><time>2026-04-03T13:02:14Z</time></trkpt><trkpt lat="39.9327229578875" lon="9.66736239232743"><ele>7.666666666666667</ele><time>2026-04-03T13:02:15Z</time></trkpt><trkpt lat="39.93276664752098" lon="9.667153974010837"><ele>7.0</ele><time>2026-04-03T13:02:16Z</time></trkpt><trkpt lat="39.93280949694505" lon="9.666941367724904"><ele>6.0</ele><time>2026-04-03T13:02:17Z</time></trkpt><trkpt lat="39.93285202259025" lon="9.666726921568612"><ele>5.0</ele><time>2026-04-03T13:02:18Z</time></trkpt><trkpt lat="39.93289585277949" lon="9.666511347229033"><ele>4.0</ele><time>2026-04-03T13:02:19Z</time></trkpt><trkpt lat="39.932936536118646" lon="9.666290554891857"><ele>3.333333333333333</ele><time>2026-04-03T13:02:20Z</time></trkpt><trkpt lat="39.93297788754759" lon="9.666065656553746"><ele>2.6666666666666665</ele><time>2026-04-03T13:02:21Z</time></trkpt><trkpt lat="39.93301818880527" lon="9.66583714477484"><ele>2.0</ele><time>2026-04-03T13:02:22.001Z</time></trkpt><trkpt lat="39.933059122291866" lon="9.665609011380951"><ele>2.0</ele><time>2026-04-03T13:02:23.001Z</time></trkpt><trkpt lat="39.9331024662111" lon="9.665383298345489"><ele>2.0</ele><time>2026-04-03T13:02:24.001Z</time></trkpt><trkpt lat="39.93314491023743" lon="9.665154536383678"><ele>2.0</ele><time>2026-04-03T13:02:25.001Z</time></trkpt><trkpt lat="39.93318659864413" lon="9.664924767347298"><ele>2.0</ele><time>2026-04-03T13:02:26.001Z</time></trkpt><trkpt lat="39.93322919296205" lon="9.664691141996803"><ele>2.0</ele><time>2026-04-03T13:02:27.001Z</time></trkpt><trkpt lat="39.9332720317784" lon="9.664459043786987"><ele>2.0</ele><time>2026-04-03T13:02:28.001Z</time></trkpt><trkpt lat="39.9333185431649" lon="9.664224723913728"><ele>1.6666666666666665</ele><time>2026-04-03T13:02:29.001Z</time></trkpt><trkpt lat="39.93336338274738" lon="9.66398933505966"><ele>1.3333333333333333</ele><time>2026-04-03T13:02:30.001Z</time></trkpt><trkpt lat="39.93340672412029" lon="9.663751059782214"><ele>1.0</ele><time>2026-04-03T13:02:31.001Z</time></trkpt><trkpt lat="39.93344874832316" lon="9.663511999478596"><ele>1.6666666666666665</ele><time>2026-04-03T13:02:32.001Z</time></trkpt><trkpt lat="39.93349466117335" lon="9.663270532732973"><ele>2.3333333333333335</ele><time>2026-04-03T13:02:33.001Z</time></trkpt><trkpt lat="39.933543180016116" lon="9.66302629501245"><ele>3.0</ele><time>2026-04-03T13:02:34.001Z</time></trkpt><trkpt lat="39.933593241730385" lon="9.662781832422791"><ele>3.333333333333333</ele><time>2026-04-03T13:02:35.001Z</time></trkpt><trkpt lat="39.9336406991522" lon="9.662537540838171"><ele>3.6666666666666665</ele><time>2026-04-03T13:02:36.001Z</time></trkpt><trkpt lat="39.93368722768485" lon="9.662293511646588"><ele>4.0</ele><time>2026-04-03T13:02:37.001Z</time></trkpt><trkpt lat="39.933728814795025" lon="9.66204921077696"><ele>4.333333333333333</ele><time>2026-04-03T13:02:38.001Z</time></trkpt><trkpt lat="39.93377083248055" lon="9.66181007408654"><ele>4.666666666666667</ele><time>2026-04-03T13:02:39.001Z</time></trkpt><trkpt lat="39.93381563013694" lon="9.661572892813998"><ele>5.0</ele><time>2026-04-03T13:02:40.001Z</time></trkpt><trkpt lat="39.93386069398252" lon="9.661337904580456"><ele>5.0</ele><time>2026-04-03T13:02:41Z</time></trkpt><trkpt lat="39.93390445813795" lon="9.661100497479332"><ele>5.0</ele><time>2026-04-03T13:02:42Z</time></trkpt><trkpt lat="39.93394702097069" lon="9.660864564834906"><ele>5.0</ele><time>2026-04-03T13:02:43Z</time></trkpt><trkpt lat="39.93399077143423" lon="9.660626627745152"><ele>5.0</ele><time>2026-04-03T13:02:44Z</time></trkpt><trkpt lat="39.93403653011699" lon="9.66039016950845"><ele>5.0</ele><time>2026-04-03T13:02:45Z</time></trkpt><trkpt lat="39.93408222996076" lon="9.660157599724688"><ele>5.0</ele><time>2026-04-03T13:02:46Z</time></trkpt><trkpt lat="39.93412477835715" lon="9.659928900844072"><ele>5.0</ele><time>2026-04-03T13:02:47Z</time></trkpt><trkpt lat="39.934170229568174" lon="9.65970115288916"><ele>5.0</ele><time>2026-04-03T13:02:48Z</time></trkpt><trkpt lat="39.934213912925365" lon="9.659473361559073"><ele>5.0</ele><time>2026-04-03T13:02:49Z</time></trkpt><trkpt lat="39.93425758460206" lon="9.659246204925848"><ele>6.0</ele><time>2026-04-03T13:02:50Z</time></trkpt><trkpt lat="39.93430064282024" lon="9.65901821255988"><ele>7.0</ele><time>2026-04-03T13:02:51Z</time></trkpt><trkpt lat="39.93434093802172" lon="9.658796919316833"><ele>8.0</ele><time>2026-04-03T13:02:52Z</time></trkpt><trkpt lat="39.93438121617976" lon="9.658577348955072"><ele>8.0</ele><time>2026-04-03T13:02:53Z</time></trkpt><trkpt lat="39.934422478898746" lon="9.658357420522353"><ele>8.0</ele><time>2026-04-03T13:02:54Z</time></trkpt><trkpt lat="39.93446225236204" lon="9.658138495890084"><ele>8.0</ele><time>2026-04-03T13:02:55Z</time></trkpt><trkpt lat="39.934500758970515" lon="9.657920751452123"><ele>8.666666666666666</ele><time>2026-04-03T13:02:56Z</time></trkpt><trkpt lat="39.93453842419221" lon="9.657700503243511"><ele>9.333333333333334</ele><time>2026-04-03T13:02:57Z</time></trkpt><trkpt lat="39.93457771383862" lon="9.65748134128959"><ele>10.0</ele><time>2026-04-03T13:02:58Z</time></trkpt><trkpt lat="39.93461865682755" lon="9.657263539164427"><ele>10.0</ele><time>2026-04-03T13:02:59Z</time></trkpt><trkpt lat="39.93465966498165" lon="9.657045022026047"><ele>10.0</ele><time>2026-04-03T13:03:00Z</time></trkpt><trkpt lat="39.9347021752497" lon="9.656825868889277"><ele>10.0</ele><time>2026-04-03T13:03:01Z</time></trkpt><trkpt lat="39.93474625677339" lon="9.656606639456534"><ele>10.333333333333334</ele><time>2026-04-03T13:03:02Z</time></trkpt><trkpt lat="39.9347884833465" lon="9.656387509944375"><ele>10.666666666666666</ele><time>2026-04-03T13:03:03Z</time></trkpt><trkpt lat="39.93482590010236" lon="9.656165788736065"><ele>11.0</ele><time>2026-04-03T13:03:04Z</time></trkpt><trkpt lat="39.934856670572636" lon="9.655940995197886"><ele>11.666666666666666</ele><time>2026-04-03T13:03:05Z</time></trkpt><trkpt lat="39.93488150874555" lon="9.655715223535044"><ele>12.333333333333332</ele><time>2026-04-03T13:03:06Z</time></trkpt><trkpt lat="39.93490314989942" lon="9.655488186148439"><ele>13.0</ele><time>2026-04-03T13:03:07Z</time></trkpt><trkpt lat="39.93492280805059" lon="9.655260909746255"><ele>13.666666666666666</ele><time>2026-04-03T13:03:08Z</time></trkpt><trkpt lat="39.93494283204948" lon="9.655030931226978"><ele>14.333333333333332</ele><time>2026-04-03T13:03:09Z</time></trkpt><trkpt lat="39.934965467877625" lon="9.65479831534919"><ele>15.0</ele><time>2026-04-03T13:03:10Z</time></trkpt><trkpt lat="39.93498656308722" lon="9.654562067890286"><ele>15.666666666666668</ele><time>2026-04-03T13:03:11Z</time></trkpt><trkpt lat="39.93500277346316" lon="9.654321202083004"><ele>16.333333333333336</ele><time>2026-04-03T13:03:12Z</time></trkpt><trkpt lat="39.93502211283033" lon="9.654080751687355"><ele>17.0</ele><time>2026-04-03T13:03:13Z</time></trkpt><trkpt lat="39.93504418912309" lon="9.653840168864217"><ele>16.666666666666668</ele><time>2026-04-03T13:03:14Z</time></trkpt><trkpt lat="39.93506692778234" lon="9.65359446451072"><ele>16.333333333333332</ele><time>2026-04-03T13:03:15Z</time></trkpt><trkpt lat="39.93508863220909" lon="9.653351220690569"><ele>16.0</ele><time>2026-04-03T13:03:16Z</time></trkpt><trkpt lat="39.93510769375698" lon="9.653110762475375"><ele>16.0</ele><time>2026-04-03T13:03:17Z</time></trkpt><trkpt lat="39.93512759271611" lon="9.652870761343022"><ele>16.0</ele><time>2026-04-03T13:03:18Z</time></trkpt><trkpt lat="39.935149675944935" lon="9.652627084334474"><ele>16.0</ele><time>2026-04-03T13:03:19Z</time></trkpt><trkpt lat="39.93516848317422" lon="9.652388469881233"><ele>16.666666666666664</ele><time>2026-04-03T13:03:20Z</time></trkpt><trkpt lat="39.93518999362642" lon="9.652149546754684"><ele>17.333333333333332</ele><time>2026-04-03T13:03:21Z</time></trkpt><trkpt lat="39.93520986497438" lon="9.65191372419108"><ele>18.0</ele><time>2026-04-03T13:03:22Z</time></trkpt><trkpt lat="39.93523049397694" lon="9.651678675323652"><ele>18.333333333333332</ele><time>2026-04-03T13:03:23Z</time></trkpt><trkpt lat="39.93525434245086" lon="9.651440654078373"><ele>18.666666666666664</ele><time>2026-04-03T13:03:24Z</time></trkpt><trkpt lat="39.935278745566535" lon="9.651208105755556"><ele>19.0</ele><time>2026-04-03T13:03:25Z</time></trkpt><trkpt lat="39.935306393676015" lon="9.650982774307796"><ele>19.0</ele><time>2026-04-03T13:03:26Z</time></trkpt><trkpt lat="39.9353328631373" lon="9.650771831058124"><ele>19.0</ele><time>2026-04-03T13:03:27Z</time></trkpt><trkpt lat="39.935358926791196" lon="9.650570740950062"><ele>19.0</ele><time>2026-04-03T13:03:28Z</time></trkpt><trkpt lat="39.9353762283676" lon="9.650379841235852"><ele>19.25</ele><time>2026-04-03T13:03:29Z</time></trkpt><trkpt lat="39.935391476771464" lon="9.650198600126076"><ele>19.5</ele><time>2026-04-03T13:03:30Z</time></trkpt><trkpt lat="39.93541255936283" lon="9.650036360494585"><ele>19.75</ele><time>2026-04-03T13:03:31.001Z</time></trkpt><trkpt lat="39.93545511212554" lon="9.649899947297124"><ele>20.0</ele><time>2026-04-03T13:03:32.001Z</time></trkpt><trkpt lat="39.93551174899978" lon="9.649773176485064"><ele>20.0</ele><time>2026-04-03T13:03:33.001Z</time></trkpt><trkpt lat="39.93557750239023" lon="9.649656546894036"><ele>20.0</ele><time>2026-04-03T13:03:34.001Z</time></trkpt><trkpt lat="39.93566144327218" lon="9.649563918225533"><ele>20.0</ele><time>2026-04-03T13:03:35.001Z</time></trkpt><trkpt lat="39.93575675969758" lon="9.649496891700492"><ele>20.0</ele><time>2026-04-03T13:03:36.001Z</time></trkpt><trkpt lat="39.935858146251086" lon="9.64942998201738"><ele>20.0</ele><time>2026-04-03T13:03:37.001Z</time></trkpt><trkpt lat="39.935955162602916" lon="9.64935465846166"><ele>20.25</ele><time>2026-04-03T13:03:38.001Z</time></trkpt><trkpt lat="39.9360481694212" lon="9.649265008542951"><ele>20.5</ele><time>2026-04-03T13:03:39.001Z</time></trkpt><trkpt lat="39.936128999486584" lon="9.649166147591904"><ele>20.75</ele><time>2026-04-03T13:03:40.001Z</time></trkpt><trkpt lat="39.93619918551409" lon="9.649047447528504"><ele>21.0</ele><time>2026-04-03T13:03:41.001Z</time></trkpt><trkpt lat="39.93626067889985" lon="9.648916549993908"><ele>21.0</ele><time>2026-04-03T13:03:42.001Z</time></trkpt><trkpt lat="39.936314553593625" lon="9.648779800410802"><ele>21.0</ele><time>2026-04-03T13:03:43.001Z</time></trkpt><trkpt lat="39.936351888480544" lon="9.64863545834542"><ele>21.0</ele><time>2026-04-03T13:03:44.001Z</time></trkpt><trkpt lat="39.93637564469821" lon="9.648484928288708"><ele>21.0</ele><time>2026-04-03T13:03:45.001Z</time></trkpt><trkpt lat="39.93638773473208" lon="9.648337440451192"><ele>21.200000000000003</ele><time>2026-04-03T13:03:46.001Z</time></trkpt><trkpt lat="39.93639531548237" lon="9.648192105529642"><ele>21.400000000000002</ele><time>2026-04-03T13:03:47.001Z</time></trkpt><trkpt lat="39.9364010512056" lon="9.648058033353555"><ele>21.6</ele><time>2026-04-03T13:03:48.001Z</time></trkpt><trkpt lat="39.93641978329214" lon="9.647924469289613"><ele>21.8</ele><time>2026-04-03T13:03:49.001Z</time></trkpt><trkpt lat="39.93642557517416" lon="9.647784866187717"><ele>22.0</ele><time>2026-04-03T13:03:50.001Z</time></trkpt><trkpt lat="39.9365075288724" lon="9.64765599850608"><ele>22.5</ele><time>2026-04-03T13:03:51.001Z</time></trkpt><trkpt lat="39.93658269611301" lon="9.647537405499703"><ele>23.0</ele><time>2026-04-03T13:03:52.001Z</time></trkpt><trkpt lat="39.93666969900475" lon="9.647432155069296"><ele>23.5</ele><time>2026-04-03T13:03:53.001Z</time></trkpt><trkpt lat="39.93676742125812" lon="9.647348907278735"><ele>24.0</ele><time>2026-04-03T13:03:54.001Z</time></trkpt><trkpt lat="39.93687905218167" lon="9.647292249730773"><ele>24.25</ele><time>2026-04-03T13:03:55.001Z</time></trkpt><trkpt lat="39.93699846140073" lon="9.647269543218972"><ele>24.5</ele><time>2026-04-03T13:03:56.001Z</time></trkpt><trkpt lat="39.93711724279966" lon="9.647274378552346"><ele>24.75</ele><time>2026-04-03T13:03:57.001Z</time></trkpt><trkpt lat="39.937241546749576" lon="9.64728112192836"><ele>25.0</ele><time>2026-04-03T13:03:58.001Z</time></trkpt><trkpt lat="39.93738390773722" lon="9.647281121927817"><ele>25.0</ele><time>2026-04-03T13:03:59.001Z</time></trkpt><trkpt lat="39.93753687130273" lon="9.647342843286129"><ele>25.0</ele><time>2026-04-03T13:04:00.001Z</time></trkpt><trkpt lat="39.93771007195825" lon="9.647346744975932"><ele>25.0</ele><time>2026-04-03T13:04:01.001Z</time></trkpt><trkpt lat="39.93789896603724" lon="9.647351380537957"><ele>25.333333333333336</ele><time>2026-04-03T13:04:02.001Z</time></trkpt><trkpt lat="39.93808782790958" lon="9.647365124101821"><ele>25.666666666666664</ele><time>2026-04-03T13:04:03.001Z</time></trkpt><trkpt lat="39.93828817967577" lon="9.647399034188446"><ele>26.0</ele><time>2026-04-03T13:04:04.001Z</time></trkpt><trkpt lat="39.938501497157475" lon="9.647433756228514"><ele>26.0</ele><time>2026-04-03T13:04:05.001Z</time></trkpt><trkpt lat="39.938712807276175" lon="9.647468571666966"><ele>26.0</ele><time>2026-04-03T13:04:06.001Z</time></trkpt><trkpt lat="39.93892297797034" lon="9.647498239447803"><ele>26.0</ele><time>2026-04-03T13:04:07.001Z</time></trkpt><trkpt lat="39.93913203260034" lon="9.647528069651077"><ele>26.666666666666664</ele><time>2026-04-03T13:04:08.001Z</time></trkpt><trkpt lat="39.939342488815335" lon="9.64755293623481"><ele>27.333333333333336</ele><time>2026-04-03T13:04:09.001Z</time></trkpt><trkpt lat="39.939557642579544" lon="9.647583172087968"><ele>28.0</ele><time>2026-04-03T13:04:10.001Z</time></trkpt><trkpt lat="39.93977204468171" lon="9.647612653831349"><ele>28.0</ele><time>2026-04-03T13:04:11.001Z</time></trkpt><trkpt lat="39.939987210017186" lon="9.647640944125271"><ele>28.0</ele><time>2026-04-03T13:04:12.001Z</time></trkpt><trkpt lat="39.94020067058926" lon="9.647671184551697"><ele>28.0</ele><time>2026-04-03T13:04:13.001Z</time></trkpt><trkpt lat="39.94040366527304" lon="9.647692950088322"><ele>27.333333333333336</ele><time>2026-04-03T13:04:14.001Z</time></trkpt><trkpt lat="39.94060697765324" lon="9.647707274108427"><ele>26.666666666666664</ele><time>2026-04-03T13:04:15.001Z</time></trkpt><trkpt lat="39.94078339777142" lon="9.64773898109869"><ele>26.0</ele><time>2026-04-03T13:04:16.001Z</time></trkpt><trkpt lat="39.940962114532006" lon="9.647771848509645"><ele>25.333333333333332</ele><time>2026-04-03T13:04:17.001Z</time></trkpt><trkpt lat="39.94114354389834" lon="9.647801650784494"><ele>24.666666666666664</ele><time>2026-04-03T13:04:18.001Z</time></trkpt><trkpt lat="39.94132602586444" lon="9.64782896177992"><ele>24.0</ele><time>2026-04-03T13:04:19.001Z</time></trkpt><trkpt lat="39.941502264984955" lon="9.647853352686154"><ele>24.0</ele><time>2026-04-03T13:04:20.001Z</time></trkpt><trkpt lat="39.94167706885838" lon="9.647877748814668"><ele>24.0</ele><time>2026-04-03T13:04:21.001Z</time></trkpt><trkpt lat="39.94203245201727" lon="9.647929540838986"><ele>24.0</ele><time>2026-04-03T13:04:23.001Z</time></trkpt><trkpt lat="39.94221093552566" lon="9.647957427247386"><ele>24.0</ele><time>2026-04-03T13:04:24.001Z</time></trkpt><trkpt lat="39.94238777556759" lon="9.647982187836806"><ele>24.0</ele><time>2026-04-03T13:04:25.001Z</time></trkpt><trkpt lat="39.94257198512144" lon="9.648009744780492"><ele>24.0</ele><time>2026-04-03T13:04:26.001Z</time></trkpt><trkpt lat="39.94275368854101" lon="9.648030800201873"><ele>24.0</ele><time>2026-04-03T13:04:27.001Z</time></trkpt><trkpt lat="39.94293587854665" lon="9.648048371632571"><ele>24.0</ele><time>2026-04-03T13:04:28.001Z</time></trkpt><trkpt lat="39.94311763778153" lon="9.648072527786203"><ele>24.0</ele><time>2026-04-03T13:04:29.001Z</time></trkpt><trkpt lat="39.943302132271164" lon="9.648101205827711"><ele>24.0</ele><time>2026-04-03T13:04:30.001Z</time></trkpt><trkpt lat="39.94348902135713" lon="9.648125913950581"><ele>24.0</ele><time>2026-04-03T13:04:31.001Z</time></trkpt><trkpt lat="39.94367649532065" lon="9.648149679765815"><ele>23.0</ele><time>2026-04-03T13:04:32.001Z</time></trkpt><trkpt lat="39.94386321013238" lon="9.648177258466111"><ele>22.0</ele><time>2026-04-03T13:04:33.001Z</time></trkpt><trkpt lat="39.94405088038148" lon="9.648205134182247"><ele>21.0</ele><time>2026-04-03T13:04:34.001Z</time></trkpt><trkpt lat="39.944239366503986" lon="9.648234014054148"><ele>20.666666666666668</ele><time>2026-04-03T13:04:35.001Z</time></trkpt><trkpt lat="39.94442680531602" lon="9.648260973188336"><ele>20.333333333333336</ele><time>2026-04-03T13:04:36.001Z</time></trkpt><trkpt lat="39.944619280760314" lon="9.648292012494545"><ele>20.0</ele><time>2026-04-03T13:04:37.001Z</time></trkpt><trkpt lat="39.94481729771549" lon="9.648321597745896"><ele>20.0</ele><time>2026-04-03T13:04:38.001Z</time></trkpt><trkpt lat="39.945019148531806" lon="9.64835082008027"><ele>20.0</ele><time>2026-04-03T13:04:39.001Z</time></trkpt><trkpt lat="39.94522359431015" lon="9.648376036977853"><ele>20.0</ele><time>2026-04-03T13:04:40.001Z</time></trkpt><trkpt lat="39.945426217242506" lon="9.648403075476592"><ele>20.0</ele><time>2026-04-03T13:04:41.001Z</time></trkpt><trkpt lat="39.945627859416874" lon="9.648429897592697"><ele>20.0</ele><time>2026-04-03T13:04:42.001Z</time></trkpt><trkpt lat="39.94582976529872" lon="9.648453837456904"><ele>20.0</ele><time>2026-04-03T13:04:43.002Z</time></trkpt><trkpt lat="39.946029732540765" lon="9.64848048971399"><ele>20.0</ele><time>2026-04-03T13:04:44.002Z</time></trkpt><trkpt lat="39.9462310401374" lon="9.648510062423512"><ele>20.0</ele><time>2026-04-03T13:04:45.002Z</time></trkpt><trkpt lat="39.94643695963104" lon="9.648542083649952"><ele>20.0</ele><time>2026-04-03T13:04:46.002Z</time></trkpt><trkpt lat="39.94664445826763" lon="9.648573687989842"><ele>20.666666666666668</ele><time>2026-04-03T13:04:47.001Z</time></trkpt><trkpt lat="39.94685095207645" lon="9.6486033102981"><ele>21.333333333333332</ele><time>2026-04-03T13:04:48.001Z</time></trkpt><trkpt lat="39.947052956082295" lon="9.648627281927919"><ele>22.0</ele><time>2026-04-03T13:04:49.001Z</time></trkpt><trkpt lat="39.94725070478217" lon="9.648655807990604"><ele>22.0</ele><time>2026-04-03T13:04:50.001Z</time></trkpt><trkpt lat="39.94744552766799" lon="9.6486851066961"><ele>22.0</ele><time>2026-04-03T13:04:51.001Z</time></trkpt><trkpt lat="39.94763708602269" lon="9.648712423056839"><ele>22.0</ele><time>2026-04-03T13:04:52.001Z</time></trkpt><trkpt lat="39.94782984417031" lon="9.648731594250672"><ele>21.666666666666664</ele><time>2026-04-03T13:04:53.001Z</time></trkpt><trkpt lat="39.94801478503868" lon="9.64876368869895"><ele>21.333333333333332</ele><time>2026-04-03T13:04:54.001Z</time></trkpt><trkpt lat="39.948201494926344" lon="9.648793379200567"><ele>21.0</ele><time>2026-04-03T13:04:55.001Z</time></trkpt><trkpt lat="39.94838951274615" lon="9.648822117309388"><ele>20.333333333333332</ele><time>2026-04-03T13:04:56.001Z</time></trkpt><trkpt lat="39.94857506788813" lon="9.64885465007913"><ele>19.666666666666664</ele><time>2026-04-03T13:04:57.001Z</time></trkpt><trkpt lat="39.94875943410047" lon="9.648897378199322"><ele>19.0</ele><time>2026-04-03T13:04:58.001Z</time></trkpt><trkpt lat="39.9489453320091" lon="9.648950790721974"><ele>19.0</ele><time>2026-04-03T13:04:59.001Z</time></trkpt><trkpt lat="39.94913226028436" lon="9.649016257816061"><ele>19.0</ele><time>2026-04-03T13:05:00.001Z</time></trkpt><trkpt lat="39.94931857909985" lon="9.649093863554494"><ele>19.0</ele><time>2026-04-03T13:05:01.001Z</time></trkpt><trkpt lat="39.949505600726404" lon="9.649175160247111"><ele>19.0</ele><time>2026-04-03T13:05:02.001Z</time></trkpt><trkpt lat="39.9496930576335" lon="9.649260550165309"><ele>19.0</ele><time>2026-04-03T13:05:03.001Z</time></trkpt><trkpt lat="39.94987952525376" lon="9.649356539104957"><ele>19.0</ele><time>2026-04-03T13:05:04.001Z</time></trkpt><trkpt lat="39.9500640697428" lon="9.649464874906872"><ele>19.0</ele><time>2026-04-03T13:05:05.001Z</time></trkpt><trkpt lat="39.950247561444975" lon="9.649584353283709"><ele>19.0</ele><time>2026-04-03T13:05:06.001Z</time></trkpt><trkpt lat="39.95043284571149" lon="9.649709760543859"><ele>19.0</ele><time>2026-04-03T13:05:07.001Z</time></trkpt><trkpt lat="39.95061917996124" lon="9.649836946316947"><ele>19.0</ele><time>2026-04-03T13:05:08.001Z</time></trkpt><trkpt lat="39.95080751274109" lon="9.649964885786638"><ele>19.0</ele><time>2026-04-03T13:05:09.001Z</time></trkpt><trkpt lat="39.95099501919223" lon="9.650089499381416"><ele>19.0</ele><time>2026-04-03T13:05:10.001Z</time></trkpt><trkpt lat="39.951180454560635" lon="9.650218355428581"><ele>18.666666666666664</ele><time>2026-04-03T13:05:11.001Z</time></trkpt><trkpt lat="39.951364294410105" lon="9.650345921483288"><ele>18.333333333333332</ele><time>2026-04-03T13:05:12.001Z</time></trkpt><trkpt lat="39.95154777679847" lon="9.650467971705526"><ele>18.0</ele><time>2026-04-03T13:05:13.001Z</time></trkpt><trkpt lat="39.951726916140736" lon="9.650586543980644"><ele>17.0</ele><time>2026-04-03T13:05:14.001Z</time></trkpt><trkpt lat="39.95189651347205" lon="9.650702119224897"><ele>16.0</ele><time>2026-04-03T13:05:15.001Z</time></trkpt><trkpt lat="39.95205986474229" lon="9.650816586407249"><ele>15.0</ele><time>2026-04-03T13:05:16.001Z</time></trkpt><trkpt lat="39.95220376080285" lon="9.650914714894093"><ele>15.0</ele><time>2026-04-03T13:05:17.001Z</time></trkpt><trkpt lat="39.952336899177936" lon="9.651002164035395"><ele>15.0</ele><time>2026-04-03T13:05:18.001Z</time></trkpt><trkpt lat="39.95247261920208" lon="9.651094771887406"><ele>15.0</ele><time>2026-04-03T13:05:19.001Z</time></trkpt><trkpt lat="39.952608409973664" lon="9.651189106188006"><ele>15.0</ele><time>2026-04-03T13:05:20.001Z</time></trkpt><trkpt lat="39.95274634049427" lon="9.651288293876679"><ele>15.0</ele><time>2026-04-03T13:05:21.001Z</time></trkpt><trkpt lat="39.95288814685713" lon="9.651387762975325"><ele>15.0</ele><time>2026-04-03T13:05:22.001Z</time></trkpt><trkpt lat="39.953030057862335" lon="9.651493619522498"><ele>15.0</ele><time>2026-04-03T13:05:23.001Z</time></trkpt><trkpt lat="39.95317634682857" lon="9.651600627039569"><ele>15.0</ele><time>2026-04-03T13:05:24.001Z</time></trkpt><trkpt lat="39.95332628706093" lon="9.651709896601204"><ele>15.0</ele><time>2026-04-03T13:05:25.001Z</time></trkpt><trkpt lat="39.953480595054636" lon="9.65181752383892"><ele>13.333333333333334</ele><time>2026-04-03T13:05:26.001Z</time></trkpt><trkpt lat="39.953638873909824" lon="9.65192561426675"><ele>11.666666666666668</ele><time>2026-04-03T13:05:27.001Z</time></trkpt><trkpt lat="39.9538030531856" lon="9.652026145484122"><ele>10.0</ele><time>2026-04-03T13:05:28.001Z</time></trkpt><trkpt lat="39.95396961144757" lon="9.65213185471295"><ele>10.0</ele><time>2026-04-03T13:05:29.001Z</time></trkpt><trkpt lat="39.95413555311088" lon="9.652246480223713"><ele>10.0</ele><time>2026-04-03T13:05:30.001Z</time></trkpt><trkpt lat="39.95430213857051" lon="9.652361154411874"><ele>10.0</ele><time>2026-04-03T13:05:31.001Z</time></trkpt><trkpt lat="39.95447030918203" lon="9.652474684729029"><ele>9.666666666666668</ele><time>2026-04-03T13:05:32.001Z</time></trkpt><trkpt lat="39.95464049420683" lon="9.652588941503899"><ele>9.333333333333334</ele><time>2026-04-03T13:05:33.001Z</time></trkpt><trkpt lat="39.95481152517357" lon="9.652703648659966"><ele>9.0</ele><time>2026-04-03T13:05:34.001Z</time></trkpt><trkpt lat="39.95498115418324" lon="9.652819847996668"><ele>8.333333333333334</ele><time>2026-04-03T13:05:35.001Z</time></trkpt><trkpt lat="39.95515067954906" lon="9.652937267551687"><ele>7.666666666666667</ele><time>2026-04-03T13:05:36.001Z</time></trkpt><trkpt lat="39.95532206990892" lon="9.653054582475642"><ele>7.0</ele><time>2026-04-03T13:05:37.001Z</time></trkpt><trkpt lat="39.955493776208144" lon="9.653174339647881"><ele>7.0</ele><time>2026-04-03T13:05:38.001Z</time></trkpt><trkpt lat="39.95566629238284" lon="9.653291738438508"><ele>7.0</ele><time>2026-04-03T13:05:39.001Z</time></trkpt><trkpt lat="39.95583930896831" lon="9.653411775993929"><ele>7.0</ele><time>2026-04-03T13:05:40.001Z</time></trkpt><trkpt lat="39.956012377342994" lon="9.65352991305352"><ele>7.333333333333334</ele><time>2026-04-03T13:05:41.001Z</time></trkpt><trkpt lat="39.95618580197535" lon="9.653646794168955"><ele>7.666666666666666</ele><time>2026-04-03T13:05:42.001Z</time></trkpt><trkpt lat="39.95636025612438" lon="9.653763390765706"><ele>8.0</ele><time>2026-04-03T13:05:43.001Z</time></trkpt><trkpt lat="39.95653548239113" lon="9.65388095882805"><ele>8.0</ele><time>2026-04-03T13:05:44.001Z</time></trkpt><trkpt lat="39.95670914769743" lon="9.654002566699964"><ele>8.0</ele><time>2026-04-03T13:05:45.001Z</time></trkpt><trkpt lat="39.956887198549296" lon="9.654122998998762"><ele>8.0</ele><time>2026-04-03T13:05:46.001Z</time></trkpt><trkpt lat="39.95706572804083" lon="9.654244233723908"><ele>8.0</ele><time>2026-04-03T13:05:47.001Z</time></trkpt><trkpt lat="39.9572424269627" lon="9.654367003468474"><ele>8.0</ele><time>2026-04-03T13:05:48.001Z</time></trkpt><trkpt lat="39.95742004184367" lon="9.654489149183213"><ele>8.0</ele><time>2026-04-03T13:05:49.001Z</time></trkpt><trkpt lat="39.957596149832774" lon="9.654613611420857"><ele>8.0</ele><time>2026-04-03T13:05:50.001Z</time></trkpt><trkpt lat="39.95777148149949" lon="9.654736081026615"><ele>8.0</ele><time>2026-04-03T13:05:51.001Z</time></trkpt><trkpt lat="39.957947079588976" lon="9.654856783028684"><ele>8.0</ele><time>2026-04-03T13:05:52.001Z</time></trkpt><trkpt lat="39.95812381648886" lon="9.65497874316513"><ele>8.0</ele><time>2026-04-03T13:05:53.001Z</time></trkpt><trkpt lat="39.95829688376553" lon="9.655097879407947"><ele>8.0</ele><time>2026-04-03T13:05:54.001Z</time></trkpt><trkpt lat="39.9584690052578" lon="9.65521742829413"><ele>8.0</ele><time>2026-04-03T13:05:55.001Z</time></trkpt><trkpt lat="39.958640446562164" lon="9.655335235837212"><ele>7.666666666666666</ele><time>2026-04-03T13:05:56.001Z</time></trkpt><trkpt lat="39.95881311578673" lon="9.655455443237456"><ele>7.333333333333334</ele><time>2026-04-03T13:05:57.001Z</time></trkpt><trkpt lat="39.95898739738609" lon="9.655574014965973"><ele>7.0</ele><time>2026-04-03T13:05:58.001Z</time></trkpt><trkpt lat="39.9591590337761" lon="9.655693193576717"><ele>7.666666666666667</ele><time>2026-04-03T13:05:59.001Z</time></trkpt><trkpt lat="39.959333424488705" lon="9.655810084215124"><ele>8.333333333333334</ele><time>2026-04-03T13:06:00.001Z</time></trkpt><trkpt lat="39.9595084481852" lon="9.655929884844287"><ele>9.0</ele><time>2026-04-03T13:06:01.001Z</time></trkpt><trkpt lat="39.959680613250285" lon="9.656052734487593"><ele>9.0</ele><time>2026-04-03T13:06:02.001Z</time></trkpt><trkpt lat="39.95985476479552" lon="9.65617917857038"><ele>9.0</ele><time>2026-04-03T13:06:03.001Z</time></trkpt><trkpt lat="39.96003030473068" lon="9.656310288216641"><ele>9.0</ele><time>2026-04-03T13:06:04.001Z</time></trkpt><trkpt lat="39.96020894606678" lon="9.656438046184991"><ele>9.0</ele><time>2026-04-03T13:06:05.001Z</time></trkpt><trkpt lat="39.96038615282767" lon="9.656564454754074"><ele>9.0</ele><time>2026-04-03T13:06:06.001Z</time></trkpt><trkpt lat="39.960564597193915" lon="9.65668715326256"><ele>9.0</ele><time>2026-04-03T13:06:07.001Z</time></trkpt><trkpt lat="39.960744987988136" lon="9.6568091696596"><ele>8.666666666666666</ele><time>2026-04-03T13:06:08.001Z</time></trkpt><trkpt lat="39.960924447503054" lon="9.656929744187593"><ele>8.333333333333332</ele><time>2026-04-03T13:06:09.001Z</time></trkpt><trkpt lat="39.96110488208314" lon="9.65704691161553"><ele>8.0</ele><time>2026-04-03T13:06:10.001Z</time></trkpt><trkpt lat="39.96128996103369" lon="9.65715304569246"><ele>8.0</ele><time>2026-04-03T13:06:11.001Z</time></trkpt><trkpt lat="39.9614777896125" lon="9.65724862444529"><ele>8.0</ele><time>2026-04-03T13:06:12.001Z</time></trkpt><trkpt lat="39.961668983929435" lon="9.657333743756418"><ele>8.0</ele><time>2026-04-03T13:06:13.001Z</time></trkpt><trkpt lat="39.96186466941002" lon="9.657408573964476"><ele>8.666666666666666</ele><time>2026-04-03T13:06:14.001Z</time></trkpt><trkpt lat="39.962066121749224" lon="9.657466357413915"><ele>9.333333333333334</ele><time>2026-04-03T13:06:15.001Z</time></trkpt><trkpt lat="39.96226877618156" lon="9.65750300826201"><ele>10.0</ele><time>2026-04-03T13:06:16.001Z</time></trkpt><trkpt lat="39.9624746528782" lon="9.657521465678814"><ele>9.666666666666668</ele><time>2026-04-03T13:06:17.001Z</time></trkpt><trkpt lat="39.9626815804103" lon="9.657523919052037"><ele>9.333333333333334</ele><time>2026-04-03T13:06:18.001Z</time></trkpt><trkpt lat="39.96288771958446" lon="9.657514458396578"><ele>9.0</ele><time>2026-04-03T13:06:19.001Z</time></trkpt><trkpt lat="39.963093645390025" lon="9.657499835635562"><ele>9.0</ele><time>2026-04-03T13:06:20.001Z</time></trkpt><trkpt lat="39.963302091809325" lon="9.657487590544942"><ele>9.0</ele><time>2026-04-03T13:06:21.001Z</time></trkpt><trkpt lat="39.96350975668026" lon="9.65747761886197"><ele>9.0</ele><time>2026-04-03T13:06:22.001Z</time></trkpt><trkpt lat="39.96372064316596" lon="9.657468716762352"><ele>10.333333333333332</ele><time>2026-04-03T13:06:23.001Z</time></trkpt><trkpt lat="39.96393158547778" lon="9.657466785947847"><ele>11.666666666666666</ele><time>2026-04-03T13:06:24.001Z</time></trkpt><trkpt lat="39.96414104534285" lon="9.657479925708053"><ele>13.0</ele><time>2026-04-03T13:06:25.001Z</time></trkpt><trkpt lat="39.96434073545718" lon="9.657538705930708"><ele>13.0</ele><time>2026-04-03T13:06:26.001Z</time></trkpt><trkpt lat="39.9645292875996" lon="9.657658897810355"><ele>13.0</ele><time>2026-04-03T13:06:27.001Z</time></trkpt><trkpt lat="39.96472039258353" lon="9.657798419446909"><ele>13.0</ele><time>2026-04-03T13:06:28.001Z</time></trkpt><trkpt lat="39.964908714492736" lon="9.657936616485163"><ele>10.666666666666666</ele><time>2026-04-03T13:06:29.001Z</time></trkpt><trkpt lat="39.96508528489271" lon="9.658064686967952"><ele>8.333333333333332</ele><time>2026-04-03T13:06:30.001Z</time></trkpt><trkpt lat="39.965261027988646" lon="9.658179844388352"><ele>6.0</ele><time>2026-04-03T13:06:31.001Z</time></trkpt><trkpt lat="39.96542786013963" lon="9.658294614850186"><ele>6.0</ele><time>2026-04-03T13:06:32.001Z</time></trkpt><trkpt lat="39.965588458661934" lon="9.658406286856994"><ele>6.0</ele><time>2026-04-03T13:06:33.001Z</time></trkpt><trkpt lat="39.965739305720234" lon="9.6585119359118"><ele>6.0</ele><time>2026-04-03T13:06:34.002Z</time></trkpt><trkpt lat="39.96587605841371" lon="9.658602576001654"><ele>5.75</ele><time>2026-04-03T13:06:35.002Z</time></trkpt><trkpt lat="39.965997094403235" lon="9.658680638780417"><ele>5.5</ele><time>2026-04-03T13:06:36.002Z</time></trkpt><trkpt lat="39.96610828264619" lon="9.658756108672907"><ele>5.25</ele><time>2026-04-03T13:06:37.002Z</time></trkpt><trkpt lat="39.96621530104625" lon="9.658824614065606"><ele>5.0</ele><time>2026-04-03T13:06:38.002Z</time></trkpt><trkpt lat="39.96630611430006" lon="9.658887348738073"><ele>5.0</ele><time>2026-04-03T13:06:39.002Z</time></trkpt><trkpt lat="39.9663893149814" lon="9.658947013693892"><ele>5.0</ele><time>2026-04-03T13:06:40.002Z</time></trkpt><trkpt lat="39.96646640745433" lon="9.659002120079528"><ele>5.0</ele><time>2026-04-03T13:06:41.002Z</time></trkpt><trkpt lat="39.966539710052764" lon="9.659057088601017"><ele>5.0</ele><time>2026-04-03T13:06:42.002Z</time></trkpt><trkpt lat="39.966621033060775" lon="9.659114247425789"><ele>5.0</ele><time>2026-04-03T13:06:43.002Z</time></trkpt><trkpt lat="39.9667053448314" lon="9.659175327791539"><ele>5.4</ele><time>2026-04-03T13:06:44.002Z</time></trkpt><trkpt lat="39.966793953846455" lon="9.659239672451289"><ele>5.8</ele><time>2026-04-03T13:06:45.002Z</time></trkpt><trkpt lat="39.96687994393837" lon="9.659301946143463"><ele>6.199999999999999</ele><time>2026-04-03T13:06:46.002Z</time></trkpt><trkpt lat="39.966969024716704" lon="9.659367145237194"><ele>6.6</ele><time>2026-04-03T13:06:47.002Z</time></trkpt><trkpt lat="39.967057165480455" lon="9.659429860284423"><ele>7.0</ele><time>2026-04-03T13:06:48.002Z</time></trkpt><trkpt lat="39.96714361545442" lon="9.659485254273"><ele>7.199999999999999</ele><time>2026-04-03T13:06:49.002Z</time></trkpt><trkpt lat="39.967228153955524" lon="9.659539651922541"><ele>7.3999999999999995</ele><time>2026-04-03T13:06:50.002Z</time></trkpt><trkpt lat="39.967313673042874" lon="9.65959246628965"><ele>7.6000000000000005</ele><time>2026-04-03T13:06:51.002Z</time></trkpt><trkpt lat="39.96740267008234" lon="9.65964962552456"><ele>7.800000000000001</ele><time>2026-04-03T13:06:52.002Z</time></trkpt><trkpt lat="39.96748971764988" lon="9.65971293587956"><ele>8.0</ele><time>2026-04-03T13:06:53.001Z</time></trkpt><trkpt lat="39.967576114569674" lon="9.65977757603871"><ele>7.999999999999999</ele><time>2026-04-03T13:06:54.001Z</time></trkpt><trkpt lat="39.967663262436716" lon="9.659840539640852"><ele>8.0</ele><time>2026-04-03T13:06:55.001Z</time></trkpt><trkpt lat="39.96774485873759" lon="9.65989899076393"><ele>8.0</ele><time>2026-04-03T13:06:56.001Z</time></trkpt><trkpt lat="39.96781604653196" lon="9.659948739071496"><ele>8.0</ele><time>2026-04-03T13:06:57.001Z</time></trkpt><trkpt lat="39.96788079494555" lon="9.659992039437403"><ele>7.999999999999999</ele><time>2026-04-03T13:06:58.001Z</time></trkpt><trkpt lat="39.96797252118409" lon="9.660034445113634"><ele>8.0</ele><time>2026-04-03T13:07:00.001Z</time></trkpt><trkpt lat="39.96805036649909" lon="9.660026882110225"><ele>8.0</ele><time>2026-04-03T13:07:02.001Z</time></trkpt><trkpt lat="39.96811626232558" lon="9.66003965070636"><ele>7.999999999999999</ele><time>2026-04-03T13:07:05.001Z</time></trkpt><trkpt lat="39.96817764998174" lon="9.66008959925419"><ele>8.0</ele><time>2026-04-03T13:07:08.001Z</time></trkpt><trkpt lat="39.968244070853444" lon="9.660114325883505"><ele>8.0</ele><time>2026-04-03T13:07:12.001Z</time></trkpt><trkpt lat="39.96823303100659" lon="9.660200428693509"><ele>7.999999999999999</ele><time>2026-04-03T13:12:46.001Z</time></trkpt><trkpt lat="39.96830277865641" lon="9.660204595365567"><ele>8.0</ele><time>2026-04-03T13:14:53Z</time></trkpt><trkpt lat="39.96835242688437" lon="9.660296391137631"><ele>8.0</ele><time>2026-04-03T13:14:57Z</time></trkpt><trkpt lat="39.968412611589585" lon="9.660353059331337"><ele>7.999999999999999</ele><time>2026-04-03T13:15:09Z</time></trkpt><trkpt lat="39.96850392710714" lon="9.660451587849497"><ele>8.0</ele><time>2026-04-03T13:15:11Z</time></trkpt><trkpt lat="39.968559047713086" lon="9.66049187166878"><ele>8.0</ele><time>2026-04-03T13:15:12Z</time></trkpt><trkpt lat="39.968620257488425" lon="9.660526964785763"><ele>8.0</ele><time>2026-04-03T13:15:13Z</time></trkpt><trkpt lat="39.96868128603066" lon="9.660562516338958"><ele>7.999999999999999</ele><time>2026-04-03T13:15:14Z</time></trkpt><trkpt lat="39.96874197429683" lon="9.66060555751102"><ele>8.0</ele><time>2026-04-03T13:15:15Z</time></trkpt><trkpt lat="39.968803675498464" lon="9.660653802268268"><ele>7.999999999999999</ele><time>2026-04-03T13:15:16Z</time></trkpt><trkpt lat="39.96887025641611" lon="9.66070552965879"><ele>8.0</ele><time>2026-04-03T13:15:16.999Z</time></trkpt><trkpt lat="39.96894107433612" lon="9.660756435047672"><ele>8.0</ele><time>2026-04-03T13:15:17.999Z</time></trkpt><trkpt lat="39.96901532823163" lon="9.660806449632739"><ele>8.0</ele><time>2026-04-03T13:15:18.999Z</time></trkpt><trkpt lat="39.96909701952415" lon="9.660853881162183"><ele>7.999999999999999</ele><time>2026-04-03T13:15:19.999Z</time></trkpt><trkpt lat="39.96917840019411" lon="9.660901933332092"><ele>8.0</ele><time>2026-04-03T13:15:20.999Z</time></trkpt><trkpt lat="39.96926459771439" lon="9.660975456013288"><ele>9.0</ele><time>2026-04-03T13:15:21.999Z</time></trkpt><trkpt lat="39.96937760857587" lon="9.661061804295443"><ele>10.0</ele><time>2026-04-03T13:15:22.999Z</time></trkpt><trkpt lat="39.96949772644094" lon="9.661155883150936"><ele>11.0</ele><time>2026-04-03T13:15:23.999Z</time></trkpt><trkpt lat="39.96961628627273" lon="9.661244201265852"><ele>12.0</ele><time>2026-04-03T13:15:24.999Z</time></trkpt><trkpt lat="39.96974002760243" lon="9.661333362342916"><ele>12.0</ele><time>2026-04-03T13:15:25.999Z</time></trkpt><trkpt lat="39.96986749337687" lon="9.661410412676284"><ele>12.0</ele><time>2026-04-03T13:15:26.999Z</time></trkpt><trkpt lat="39.96999185077954" lon="9.661484847318228"><ele>12.0</ele><time>2026-04-03T13:15:27.999Z</time></trkpt><trkpt lat="39.970107240950206" lon="9.661567310625346"><ele>12.0</ele><time>2026-04-03T13:15:28.999Z</time></trkpt><trkpt lat="39.97019404958695" lon="9.661668423508013"><ele>13.0</ele><time>2026-04-03T13:15:29.999Z</time></trkpt><trkpt lat="39.97021416440457" lon="9.661802860912587"><ele>14.0</ele><time>2026-04-03T13:15:30.999Z</time></trkpt><trkpt lat="39.970223915050134" lon="9.66193638026938"><ele>15.0</ele><time>2026-04-03T13:15:31.999Z</time></trkpt><trkpt lat="39.9702340422608" lon="9.662079954655269"><ele>16.0</ele><time>2026-04-03T13:15:32.999Z</time></trkpt><trkpt lat="39.97024429840455" lon="9.662228596961993"><ele>17.0</ele><time>2026-04-03T13:15:33.999Z</time></trkpt><trkpt lat="39.97025768864479" lon="9.662383755658455"><ele>17.0</ele><time>2026-04-03T13:15:34.999Z</time></trkpt><trkpt lat="39.97027218339117" lon="9.662542583834243"><ele>17.0</ele><time>2026-04-03T13:15:35.999Z</time></trkpt><trkpt lat="39.970320823007036" lon="9.662697056680257"><ele>17.0</ele><time>2026-04-03T13:15:36.999Z</time></trkpt><trkpt lat="39.97036925041329" lon="9.662852468015087"><ele>17.0</ele><time>2026-04-03T13:15:37.999Z</time></trkpt><trkpt lat="39.97045501862369" lon="9.66300993361575"><ele>17.0</ele><time>2026-04-03T13:15:38.999Z</time></trkpt><trkpt lat="39.97056606951708" lon="9.663147790326061"><ele>17.0</ele><time>2026-04-03T13:15:39.999Z</time></trkpt><trkpt lat="39.97068688595376" lon="9.663284317222308"><ele>17.0</ele><time>2026-04-03T13:15:40.999Z</time></trkpt><trkpt lat="39.97080393499216" lon="9.66341365788396"><ele>16.0</ele><time>2026-04-03T13:15:41.999Z</time></trkpt><trkpt lat="39.97091710829549" lon="9.663550293657991"><ele>15.0</ele><time>2026-04-03T13:15:42.999Z</time></trkpt><trkpt lat="39.97103068774796" lon="9.663689284602519"><ele>14.0</ele><time>2026-04-03T13:15:43.999Z</time></trkpt><trkpt lat="39.97114053532087" lon="9.66381965374899"><ele>13.75</ele><time>2026-04-03T13:15:44.999Z</time></trkpt><trkpt lat="39.97124343309091" lon="9.663943046096984"><ele>13.5</ele><time>2026-04-03T13:15:45.999Z</time></trkpt><trkpt lat="39.97135312982965" lon="9.664046786993246"><ele>13.25</ele><time>2026-04-03T13:15:46.999Z</time></trkpt><trkpt lat="39.97147761880742" lon="9.664107489876777"><ele>13.0</ele><time>2026-04-03T13:15:47.999Z</time></trkpt><trkpt lat="39.97160792080253" lon="9.664141406876276"><ele>11.25</ele><time>2026-04-03T13:15:48.999Z</time></trkpt><trkpt lat="39.97174556676382" lon="9.664138911290276"><ele>9.5</ele><time>2026-04-03T13:15:49.999Z</time></trkpt><trkpt lat="39.97188686102205" lon="9.66409893441497"><ele>7.75</ele><time>2026-04-03T13:15:50.999Z</time></trkpt><trkpt lat="39.97202800513944" lon="9.66404598961508"><ele>6.0</ele><time>2026-04-03T13:15:51.999Z</time></trkpt><trkpt lat="39.97216608544112" lon="9.663994192609849"><ele>6.0</ele><time>2026-04-03T13:15:52.999Z</time></trkpt><trkpt lat="39.972300679159154" lon="9.663943600951876"><ele>6.0</ele><time>2026-04-03T13:15:53.999Z</time></trkpt><trkpt lat="39.97243707672103" lon="9.6638904817074"><ele>6.0</ele><time>2026-04-03T13:15:54.999Z</time></trkpt><trkpt lat="39.97257438103341" lon="9.66383258795179"><ele>6.0</ele><time>2026-04-03T13:15:55.999Z</time></trkpt><trkpt lat="39.97271508623239" lon="9.663772202605601"><ele>6.333333333333334</ele><time>2026-04-03T13:15:56.999Z</time></trkpt><trkpt lat="39.97285963959847" lon="9.663712272318039"><ele>6.666666666666667</ele><time>2026-04-03T13:15:57.999Z</time></trkpt><trkpt lat="39.97300789247686" lon="9.663652407955347"><ele>7.0</ele><time>2026-04-03T13:15:58.999Z</time></trkpt><trkpt lat="39.973163074090195" lon="9.663596449710802"><ele>7.0</ele><time>2026-04-03T13:15:59.999Z</time></trkpt><trkpt lat="39.973328840399816" lon="9.663552946780136"><ele>7.0</ele><time>2026-04-03T13:16:00.999Z</time></trkpt><trkpt lat="39.97350460782469" lon="9.663529272003597"><ele>7.0</ele><time>2026-04-03T13:16:01.999Z</time></trkpt><trkpt lat="39.9736865853513" lon="9.663520761903529"><ele>7.0</ele><time>2026-04-03T13:16:02.999Z</time></trkpt><trkpt lat="39.973869481572216" lon="9.663532897977225"><ele>7.0</ele><time>2026-04-03T13:16:03.999Z</time></trkpt><trkpt lat="39.97405324397405" lon="9.663562518321315"><ele>7.0</ele><time>2026-04-03T13:16:04.999Z</time></trkpt><trkpt lat="39.97423669631506" lon="9.66360852524821"><ele>7.0</ele><time>2026-04-03T13:16:05.999Z</time></trkpt><trkpt lat="39.97442045172949" lon="9.663676001099944"><ele>7.0</ele><time>2026-04-03T13:16:06.999Z</time></trkpt><trkpt lat="39.974598303283976" lon="9.663769546834374"><ele>7.0</ele><time>2026-04-03T13:16:07.999Z</time></trkpt><trkpt lat="39.97476951913455" lon="9.663879202930818"><ele>7.0</ele><time>2026-04-03T13:16:08.999Z</time></trkpt><trkpt lat="39.974933011625716" lon="9.664009260578439"><ele>7.0</ele><time>2026-04-03T13:16:09.999Z</time></trkpt><trkpt lat="39.97508911572554" lon="9.664145275430666"><ele>7.0</ele><time>2026-04-03T13:16:10.999Z</time></trkpt><trkpt lat="39.97524034821497" lon="9.664281311375602"><ele>7.333333333333334</ele><time>2026-04-03T13:16:11.999Z</time></trkpt><trkpt lat="39.975385356923155" lon="9.664407875560519"><ele>7.666666666666666</ele><time>2026-04-03T13:16:12.999Z</time></trkpt><trkpt lat="39.97552075484505" lon="9.664526645013998"><ele>8.0</ele><time>2026-04-03T13:16:13.999Z</time></trkpt><trkpt lat="39.9756496437727" lon="9.664641597431988"><ele>8.25</ele><time>2026-04-03T13:16:14.999Z</time></trkpt><trkpt lat="39.97577061000978" lon="9.664749507728539"><ele>8.5</ele><time>2026-04-03T13:16:15.999Z</time></trkpt><trkpt lat="39.97588531442669" lon="9.664847190079177"><ele>8.75</ele><time>2026-04-03T13:16:16.999Z</time></trkpt><trkpt lat="39.97597591322498" lon="9.664943541496488"><ele>9.0</ele><time>2026-04-03T13:16:17.999Z</time></trkpt><trkpt lat="39.97601917308495" lon="9.665055774036032"><ele>9.4</ele><time>2026-04-03T13:16:18.999Z</time></trkpt><trkpt lat="39.97602380913459" lon="9.66517391072199"><ele>9.8</ele><time>2026-04-03T13:16:19.999Z</time></trkpt><trkpt lat="39.97601390685114" lon="9.665302141022027"><ele>10.200000000000001</ele><time>2026-04-03T13:16:20.999Z</time></trkpt><trkpt lat="39.97602508360202" lon="9.66544029003509"><ele>10.600000000000001</ele><time>2026-04-03T13:16:21.999Z</time></trkpt><trkpt lat="39.97604421136566" lon="9.66558331833739"><ele>11.0</ele><time>2026-04-03T13:16:22.999Z</time></trkpt><trkpt lat="39.97608036011771" lon="9.665722649317882"><ele>11.0</ele><time>2026-04-03T13:16:23.999Z</time></trkpt><trkpt lat="39.976152056980496" lon="9.665838967992107"><ele>11.0</ele><time>2026-04-03T13:16:24.999Z</time></trkpt><trkpt lat="39.97624729902959" lon="9.665925299699698"><ele>11.0</ele><time>2026-04-03T13:16:25.999Z</time></trkpt><trkpt lat="39.976357899766114" lon="9.665980244481203"><ele>11.0</ele><time>2026-04-03T13:16:26.999Z</time></trkpt><trkpt lat="39.97648272525548" lon="9.665996628542992"><ele>11.0</ele><time>2026-04-03T13:16:27.999Z</time></trkpt><trkpt lat="39.976617134794154" lon="9.665987708950848"><ele>11.0</ele><time>2026-04-03T13:16:28.999Z</time></trkpt><trkpt lat="39.97675234994746" lon="9.665997251877666"><ele>11.0</ele><time>2026-04-03T13:16:29.999Z</time></trkpt><trkpt lat="39.97689867386275" lon="9.666014260042315"><ele>11.0</ele><time>2026-04-03T13:16:30.999Z</time></trkpt><trkpt lat="39.97705331028891" lon="9.666026136105367"><ele>11.333333333333332</ele><time>2026-04-03T13:16:31.999Z</time></trkpt><trkpt lat="39.977211256068585" lon="9.666037082387339"><ele>11.666666666666666</ele><time>2026-04-03T13:16:32.999Z</time></trkpt><trkpt lat="39.97737399957552" lon="9.66604616862298"><ele>12.0</ele><time>2026-04-03T13:16:33.999Z</time></trkpt><trkpt lat="39.977536796656025" lon="9.666057501350258"><ele>12.0</ele><time>2026-04-03T13:16:34.999Z</time></trkpt><trkpt lat="39.97769539291179" lon="9.666077422953151"><ele>12.0</ele><time>2026-04-03T13:16:35.999Z</time></trkpt><trkpt lat="39.97784472029403" lon="9.666144670630514"><ele>12.0</ele><time>2026-04-03T13:16:36.999Z</time></trkpt><trkpt lat="39.97797892684143" lon="9.666258575963703"><ele>12.333333333333332</ele><time>2026-04-03T13:16:37.999Z</time></trkpt><trkpt lat="39.97809836949787" lon="9.666406581369193"><ele>12.666666666666666</ele><time>2026-04-03T13:16:38.999Z</time></trkpt><trkpt lat="39.97820292395249" lon="9.666572768689631"><ele>13.0</ele><time>2026-04-03T13:16:39.999Z</time></trkpt><trkpt lat="39.97830140253971" lon="9.66675463583965"><ele>13.333333333333332</ele><time>2026-04-03T13:16:40.999Z</time></trkpt><trkpt lat="39.97839477505299" lon="9.666943561859894"><ele>13.666666666666668</ele><time>2026-04-03T13:16:41.999Z</time></trkpt><trkpt lat="39.978487731019555" lon="9.66713696152785"><ele>14.0</ele><time>2026-04-03T13:16:42.999Z</time></trkpt><trkpt lat="39.978586833852354" lon="9.66732932477416"><ele>14.0</ele><time>2026-04-03T13:16:43.999Z</time></trkpt><trkpt lat="39.9786863771781" lon="9.667514621850264"><ele>14.0</ele><time>2026-04-03T13:16:44.999Z</time></trkpt><trkpt lat="39.97878995990462" lon="9.667703773176942"><ele>14.0</ele><time>2026-04-03T13:16:45.999Z</time></trkpt><trkpt lat="39.9788920616444" lon="9.66789900881395"><ele>14.0</ele><time>2026-04-03T13:16:46.999Z</time></trkpt><trkpt lat="39.97899148810539" lon="9.668094681282724"><ele>14.0</ele><time>2026-04-03T13:16:47.999Z</time></trkpt><trkpt lat="39.97908432315647" lon="9.668294950161734"><ele>14.0</ele><time>2026-04-03T13:16:48.999Z</time></trkpt><trkpt lat="39.97915519131326" lon="9.668505702056715"><ele>13.666666666666668</ele><time>2026-04-03T13:16:49.999Z</time></trkpt><trkpt lat="39.97919158142939" lon="9.668733161524386"><ele>13.333333333333332</ele><time>2026-04-03T13:16:50.999Z</time></trkpt><trkpt lat="39.97918359454869" lon="9.668955029059797"><ele>13.0</ele><time>2026-04-03T13:16:51.999Z</time></trkpt><trkpt lat="39.979122730783395" lon="9.669156788795132"><ele>13.0</ele><time>2026-04-03T13:16:52.999Z</time></trkpt><trkpt lat="39.97906486164515" lon="9.669369348851296"><ele>13.0</ele><time>2026-04-03T13:16:53.999Z</time></trkpt><trkpt lat="39.978988900369224" lon="9.669580855552452"><ele>13.0</ele><time>2026-04-03T13:16:54.999Z</time></trkpt><trkpt lat="39.97890603184393" lon="9.669797962495867"><ele>12.333333333333332</ele><time>2026-04-03T13:16:55.999Z</time></trkpt><trkpt lat="39.9788210225234" lon="9.670022134500991"><ele>11.666666666666666</ele><time>2026-04-03T13:16:56.999Z</time></trkpt><trkpt lat="39.9787354000892" lon="9.670248804823967"><ele>11.0</ele><time>2026-04-03T13:16:57.999Z</time></trkpt><trkpt lat="39.97865362543342" lon="9.670480764538882"><ele>9.666666666666666</ele><time>2026-04-03T13:16:58.999Z</time></trkpt><trkpt lat="39.97856868199569" lon="9.67071842076745"><ele>8.333333333333334</ele><time>2026-04-03T13:16:59.999Z</time></trkpt><trkpt lat="39.978484199253636" lon="9.670956480105101"><ele>7.0</ele><time>2026-04-03T13:17:00.999Z</time></trkpt><trkpt lat="39.97839847320605" lon="9.671193854294929"><ele>7.333333333333334</ele><time>2026-04-03T13:17:01.999Z</time></trkpt><trkpt lat="39.978310076242806" lon="9.671433327703257"><ele>7.666666666666666</ele><time>2026-04-03T13:17:02.999Z</time></trkpt><trkpt lat="39.9782054257106" lon="9.67166887135211"><ele>8.0</ele><time>2026-04-03T13:17:03.999Z</time></trkpt><trkpt lat="39.978116416283285" lon="9.671910524448228"><ele>7.333333333333333</ele><time>2026-04-03T13:17:04.999Z</time></trkpt><trkpt lat="39.97803714358968" lon="9.672159794343937"><ele>6.666666666666666</ele><time>2026-04-03T13:17:05.999Z</time></trkpt><trkpt lat="39.977998537821165" lon="9.672426654888653"><ele>6.0</ele><time>2026-04-03T13:17:06.999Z</time></trkpt><trkpt lat="39.97797008671741" lon="9.67268936254235"><ele>5.666666666666667</ele><time>2026-04-03T13:17:07.999Z</time></trkpt><trkpt lat="39.977971744340906" lon="9.67293451720304"><ele>5.333333333333334</ele><time>2026-04-03T13:17:08.999Z</time></trkpt><trkpt lat="39.97800496898185" lon="9.673161853107112"><ele>5.0</ele><time>2026-04-03T13:17:09.999Z</time></trkpt><trkpt lat="39.978077754287355" lon="9.673363435827891"><ele>5.0</ele><time>2026-04-03T13:17:10.999Z</time></trkpt><trkpt lat="39.978185277717316" lon="9.673541284504427"><ele>5.0</ele><time>2026-04-03T13:17:11.999Z</time></trkpt><trkpt lat="39.978323250714844" lon="9.673678749986026"><ele>5.0</ele><time>2026-04-03T13:17:12.999Z</time></trkpt><trkpt lat="39.97848246186227" lon="9.67378013981578"><ele>4.0</ele><time>2026-04-03T13:17:13.999Z</time></trkpt><trkpt lat="39.97864909970747" lon="9.673856268986455"><ele>3.0</ele><time>2026-04-03T13:17:14.999Z</time></trkpt><trkpt lat="39.978816593551684" lon="9.673941351762142"><ele>2.0</ele><time>2026-04-03T13:17:15.999Z</time></trkpt><trkpt lat="39.97897851869431" lon="9.674055148017633"><ele>2.0</ele><time>2026-04-03T13:17:16.999Z</time></trkpt><trkpt lat="39.9791303993664" lon="9.674190830810355"><ele>2.0</ele><time>2026-04-03T13:17:17.999Z</time></trkpt><trkpt lat="39.97927577107794" lon="9.67434318909832"><ele>2.0</ele><time>2026-04-03T13:17:18.999Z</time></trkpt><trkpt lat="39.979414541021534" lon="9.674502834969443"><ele>2.6666666666666665</ele><time>2026-04-03T13:17:19.999Z</time></trkpt><trkpt lat="39.979554816680704" lon="9.674666747218634"><ele>3.333333333333333</ele><time>2026-04-03T13:17:20.999Z</time></trkpt><trkpt lat="39.979696256972645" lon="9.674831064272544"><ele>4.0</ele><time>2026-04-03T13:17:21.999Z</time></trkpt><trkpt lat="39.979839522428364" lon="9.674993419637575"><ele>4.0</ele><time>2026-04-03T13:17:22.999Z</time></trkpt><trkpt lat="39.97998317025406" lon="9.675155054313608"><ele>4.0</ele><time>2026-04-03T13:17:23.999Z</time></trkpt><trkpt lat="39.9801283118068" lon="9.675316955572342"><ele>4.0</ele><time>2026-04-03T13:17:24.999Z</time></trkpt><trkpt lat="39.98027041023672" lon="9.675478517418014"><ele>4.666666666666666</ele><time>2026-04-03T13:17:25.999Z</time></trkpt><trkpt lat="39.980411893089894" lon="9.67563956618607"><ele>5.333333333333333</ele><time>2026-04-03T13:17:26.999Z</time></trkpt><trkpt lat="39.98055615213852" lon="9.675799952587917"><ele>6.0</ele><time>2026-04-03T13:17:27.999Z</time></trkpt><trkpt lat="39.98070005998607" lon="9.675962394003998"><ele>6.333333333333334</ele><time>2026-04-03T13:17:28.999Z</time></trkpt><trkpt lat="39.980838116285305" lon="9.676129844715403"><ele>6.666666666666667</ele><time>2026-04-03T13:17:29.999Z</time></trkpt><trkpt lat="39.98096292528379" lon="9.67630954011484"><ele>7.0</ele><time>2026-04-03T13:17:30.999Z</time></trkpt><trkpt lat="39.98106670824595" lon="9.676508343026715"><ele>7.333333333333334</ele><time>2026-04-03T13:17:31.999Z</time></trkpt><trkpt lat="39.981150967917756" lon="9.676722463382927"><ele>7.666666666666666</ele><time>2026-04-03T13:17:32.999Z</time></trkpt><trkpt lat="39.98121744213222" lon="9.676950764766497"><ele>8.0</ele><time>2026-04-03T13:17:33.999Z</time></trkpt><trkpt lat="39.98126958736576" lon="9.677185274192137"><ele>8.0</ele><time>2026-04-03T13:17:34.999Z</time></trkpt><trkpt lat="39.981322330737214" lon="9.677423203169036"><ele>8.0</ele><time>2026-04-03T13:17:35.999Z</time></trkpt><trkpt lat="39.98137888841316" lon="9.677663186760137"><ele>8.0</ele><time>2026-04-03T13:17:36.999Z</time></trkpt><trkpt lat="39.98143753891035" lon="9.677905206167402"><ele>8.0</ele><time>2026-04-03T13:17:37.999Z</time></trkpt><trkpt lat="39.98149448749909" lon="9.678149719241585"><ele>8.0</ele><time>2026-04-03T13:17:38.999Z</time></trkpt><trkpt lat="39.981547122411875" lon="9.678396223416401"><ele>8.0</ele><time>2026-04-03T13:17:39.999Z</time></trkpt><trkpt lat="39.98154863848855" lon="9.67864173651874"><ele>8.666666666666666</ele><time>2026-04-03T13:17:40.999Z</time></trkpt><trkpt lat="39.98151458287883" lon="9.678878292835545"><ele>9.333333333333334</ele><time>2026-04-03T13:17:41.999Z</time></trkpt><trkpt lat="39.98144985776872" lon="9.679103562322684"><ele>10.0</ele><time>2026-04-03T13:17:42.999Z</time></trkpt><trkpt lat="39.981379018521864" lon="9.679325900920222"><ele>10.333333333333334</ele><time>2026-04-03T13:17:43.999Z</time></trkpt><trkpt lat="39.9813096614875" lon="9.679554151801664"><ele>10.666666666666666</ele><time>2026-04-03T13:17:44.999Z</time></trkpt><trkpt lat="39.9812652726723" lon="9.67979190539949"><ele>11.0</ele><time>2026-04-03T13:17:45.999Z</time></trkpt><trkpt lat="39.981239014482775" lon="9.680031755693934"><ele>9.0</ele><time>2026-04-03T13:17:46.999Z</time></trkpt><trkpt lat="39.9812536224818" lon="9.680276587625047"><ele>7.0</ele><time>2026-04-03T13:17:47.999Z</time></trkpt><trkpt lat="39.98129133564247" lon="9.6805203879725"><ele>5.0</ele><time>2026-04-03T13:17:48.999Z</time></trkpt><trkpt lat="39.98135538776479" lon="9.68075602779445"><ele>5.0</ele><time>2026-04-03T13:17:49.999Z</time></trkpt><trkpt lat="39.981448891102" lon="9.68097766190665"><ele>5.0</ele><time>2026-04-03T13:17:50.999Z</time></trkpt><trkpt lat="39.98154933483494" lon="9.68119128683321"><ele>5.0</ele><time>2026-04-03T13:17:51.999Z</time></trkpt><trkpt lat="39.981650738636034" lon="9.68140808911861"><ele>5.666666666666667</ele><time>2026-04-03T13:17:52.999Z</time></trkpt><trkpt lat="39.98174653471439" lon="9.681626872973878"><ele>6.333333333333334</ele><time>2026-04-03T13:17:53.999Z</time></trkpt><trkpt lat="39.98184120179883" lon="9.681845098971852"><ele>7.0</ele><time>2026-04-03T13:17:55Z</time></trkpt><trkpt lat="39.9819449573504" lon="9.682054077777213"><ele>7.333333333333334</ele><time>2026-04-03T13:17:56Z</time></trkpt><trkpt lat="39.98206808559411" lon="9.682245469473596"><ele>7.666666666666666</ele><time>2026-04-03T13:17:57Z</time></trkpt><trkpt lat="39.982203792365986" lon="9.682425165323668"><ele>8.0</ele><time>2026-04-03T13:17:58Z</time></trkpt><trkpt lat="39.9823399139652" lon="9.682590273979205"><ele>8.0</ele><time>2026-04-03T13:17:59Z</time></trkpt><trkpt lat="39.98246780016632" lon="9.68274264060791"><ele>8.0</ele><time>2026-04-03T13:18:00Z</time></trkpt><trkpt lat="39.98259541275719" lon="9.68288759182017"><ele>8.0</ele><time>2026-04-03T13:18:01Z</time></trkpt><trkpt lat="39.98273245627067" lon="9.68302387661669"><ele>7.333333333333333</ele><time>2026-04-03T13:18:02Z</time></trkpt><trkpt lat="39.98287930490079" lon="9.683145475534422"><ele>6.666666666666666</ele><time>2026-04-03T13:18:03Z</time></trkpt><trkpt lat="39.98302995288471" lon="9.683253356195127"><ele>6.0</ele><time>2026-04-03T13:18:04Z</time></trkpt><trkpt lat="39.98316657507115" lon="9.683349659305087"><ele>6.0</ele><time>2026-04-03T13:18:05Z</time></trkpt><trkpt lat="39.983293812258715" lon="9.68344471997549"><ele>6.0</ele><time>2026-04-03T13:18:06Z</time></trkpt><trkpt lat="39.98341068640054" lon="9.683531522111988"><ele>6.0</ele><time>2026-04-03T13:18:07Z</time></trkpt><trkpt lat="39.98351757570848" lon="9.683606639310405"><ele>6.0</ele><time>2026-04-03T13:18:08Z</time></trkpt><trkpt lat="39.983613152140464" lon="9.683675177985762"><ele>6.8</ele><time>2026-04-03T13:18:09Z</time></trkpt><trkpt lat="39.98369481404543" lon="9.683756949918935"><ele>7.6</ele><time>2026-04-03T13:18:10Z</time></trkpt><trkpt lat="39.983776526876724" lon="9.683823050002749"><ele>8.4</ele><time>2026-04-03T13:18:11Z</time></trkpt><trkpt lat="39.983858857752004" lon="9.683888278733463"><ele>9.2</ele><time>2026-04-03T13:18:12Z</time></trkpt><trkpt lat="39.98394968690238" lon="9.683957257352361"><ele>10.0</ele><time>2026-04-03T13:18:13Z</time></trkpt><trkpt lat="39.98404335921314" lon="9.684035828470476"><ele>10.0</ele><time>2026-04-03T13:18:14Z</time></trkpt><trkpt lat="39.98414140594993" lon="9.684120629112059"><ele>10.0</ele><time>2026-04-03T13:18:15Z</time></trkpt><trkpt lat="39.98423467478811" lon="9.684221754695146"><ele>10.0</ele><time>2026-04-03T13:18:16Z</time></trkpt><trkpt lat="39.98431706268929" lon="9.684345525149217"><ele>10.0</ele><time>2026-04-03T13:18:17Z</time></trkpt><trkpt lat="39.98439849729895" lon="9.684492852132225"><ele>10.75</ele><time>2026-04-03T13:18:18Z</time></trkpt><trkpt lat="39.98448233764351" lon="9.684643810456231"><ele>11.5</ele><time>2026-04-03T13:18:19Z</time></trkpt><trkpt lat="39.98457311466062" lon="9.684790937090003"><ele>12.25</ele><time>2026-04-03T13:18:20Z</time></trkpt><trkpt lat="39.98466451334046" lon="9.684942780567368"><ele>13.0</ele><time>2026-04-03T13:18:21Z</time></trkpt><trkpt lat="39.984760078678654" lon="9.685098595365307"><ele>13.0</ele><time>2026-04-03T13:18:22Z</time></trkpt><trkpt lat="39.984854570568366" lon="9.68525737392429"><ele>13.0</ele><time>2026-04-03T13:18:23Z</time></trkpt><trkpt lat="39.98494725875346" lon="9.685419460656968"><ele>13.0</ele><time>2026-04-03T13:18:24Z</time></trkpt><trkpt lat="39.98504087817037" lon="9.685583632253524"><ele>12.333333333333332</ele><time>2026-04-03T13:18:25Z</time></trkpt><trkpt lat="39.98512449703222" lon="9.685751321056857"><ele>11.666666666666666</ele><time>2026-04-03T13:18:26Z</time></trkpt><trkpt lat="39.98518691671657" lon="9.68593932478963"><ele>11.0</ele><time>2026-04-03T13:18:27Z</time></trkpt><trkpt lat="39.9852428747366" lon="9.686132035586038"><ele>11.0</ele><time>2026-04-03T13:18:28Z</time></trkpt><trkpt lat="39.98532132219861" lon="9.686313292824801"><ele>11.0</ele><time>2026-04-03T13:18:29Z</time></trkpt><trkpt lat="39.98542855422205" lon="9.68647027245115"><ele>11.0</ele><time>2026-04-03T13:18:30Z</time></trkpt><trkpt lat="39.985555186039285" lon="9.68660522033905"><ele>11.0</ele><time>2026-04-03T13:18:31Z</time></trkpt><trkpt lat="39.985680928392036" lon="9.68673529366192"><ele>11.0</ele><time>2026-04-03T13:18:32Z</time></trkpt><trkpt lat="39.985797127511695" lon="9.686872326094726"><ele>11.0</ele><time>2026-04-03T13:18:33Z</time></trkpt><trkpt lat="39.98591376258241" lon="9.687005102182003"><ele>11.25</ele><time>2026-04-03T13:18:34Z</time></trkpt><trkpt lat="39.98602750318736" lon="9.687132936277525"><ele>11.5</ele><time>2026-04-03T13:18:35Z</time></trkpt><trkpt lat="39.98614049907823" lon="9.687246698290398"><ele>11.75</ele><time>2026-04-03T13:18:36Z</time></trkpt><trkpt lat="39.98624231649245" lon="9.687349387515539"><ele>12.0</ele><time>2026-04-03T13:18:37Z</time></trkpt><trkpt lat="39.98633373852323" lon="9.687442513178514"><ele>12.0</ele><time>2026-04-03T13:18:38Z</time></trkpt><trkpt lat="39.98642601791149" lon="9.687535916421249"><ele>12.0</ele><time>2026-04-03T13:18:39Z</time></trkpt><trkpt lat="39.9865103194921" lon="9.687618410254817"><ele>12.0</ele><time>2026-04-03T13:18:40Z</time></trkpt><trkpt lat="39.98658238811966" lon="9.687693213400774"><ele>12.0</ele><time>2026-04-03T13:18:41Z</time></trkpt><trkpt lat="39.98664746000514" lon="9.687769678699102"><ele>12.0</ele><time>2026-04-03T13:18:42Z</time></trkpt><trkpt lat="39.98671253268201" lon="9.687830298712994"><ele>11.0</ele><time>2026-04-03T13:18:43Z</time></trkpt><trkpt lat="39.9867872659796" lon="9.687925360980438"><ele>10.0</ele><time>2026-04-03T13:18:44Z</time></trkpt><trkpt lat="39.98686597332627" lon="9.688044834130187"><ele>9.0</ele><time>2026-04-03T13:18:45Z</time></trkpt><trkpt lat="39.98696538620654" lon="9.688140976877618"><ele>8.0</ele><time>2026-04-03T13:18:46Z</time></trkpt><trkpt lat="39.987072226758414" lon="9.688244658069188"><ele>8.0</ele><time>2026-04-03T13:18:47Z</time></trkpt><trkpt lat="39.987169562879885" lon="9.688341237021424"><ele>8.0</ele><time>2026-04-03T13:18:48Z</time></trkpt><trkpt lat="39.987251359769395" lon="9.688432401528486"><ele>8.0</ele><time>2026-04-03T13:18:49Z</time></trkpt><trkpt lat="39.98731478602133" lon="9.688493554061091"><ele>8.0</ele><time>2026-04-03T13:18:50Z</time></trkpt><trkpt lat="39.98737822830832" lon="9.688545364511874"><ele>8.0</ele><time>2026-04-03T13:18:52Z</time></trkpt><trkpt lat="39.98749490720606" lon="9.688344286151649"><ele>9.0</ele><time>2026-04-03T13:18:56Z</time></trkpt><trkpt lat="39.987513920425535" lon="9.68823622081856"><ele>10.0</ele><time>2026-04-03T13:18:57Z</time></trkpt><trkpt lat="39.987553359244856" lon="9.688113777491846"><ele>11.0</ele><time>2026-04-03T13:18:58Z</time></trkpt><trkpt lat="39.98760250501119" lon="9.68797243737882"><ele>12.0</ele><time>2026-04-03T13:18:59Z</time></trkpt><trkpt lat="39.98765941717674" lon="9.687822711416722"><ele>13.0</ele><time>2026-04-03T13:19:00Z</time></trkpt><trkpt lat="39.98771684693807" lon="9.687664507814478"><ele>13.25</ele><time>2026-04-03T13:19:01Z</time></trkpt><trkpt lat="39.98777787392517" lon="9.687497415961712"><ele>13.5</ele><time>2026-04-03T13:19:02Z</time></trkpt><trkpt lat="39.987832803725226" lon="9.687327149503252"><ele>13.75</ele><time>2026-04-03T13:19:03Z</time></trkpt><trkpt lat="39.9878805590172" lon="9.68717835389752"><ele>14.0</ele><time>2026-04-03T13:19:04Z</time></trkpt><trkpt lat="39.98792601919175" lon="9.68704343249595"><ele>15.75</ele><time>2026-04-03T13:19:05Z</time></trkpt><trkpt lat="39.98796845937245" lon="9.686925045964657"><ele>17.5</ele><time>2026-04-03T13:19:06Z</time></trkpt><trkpt lat="39.988020312764675" lon="9.686797406505548"><ele>19.25</ele><time>2026-04-03T13:19:07Z</time></trkpt><trkpt lat="39.98807156208697" lon="9.686658464622662"><ele>21.0</ele><time>2026-04-03T13:19:08Z</time></trkpt><trkpt lat="39.98813494325074" lon="9.686510633840651"><ele>21.0</ele><time>2026-04-03T13:19:09Z</time></trkpt><trkpt lat="39.98820679749162" lon="9.686360818412844"><ele>21.0</ele><time>2026-04-03T13:19:10Z</time></trkpt><trkpt lat="39.98828786280469" lon="9.686213503375448"><ele>21.0</ele><time>2026-04-03T13:19:11Z</time></trkpt><trkpt lat="39.98837869991953" lon="9.686074342752313"><ele>21.0</ele><time>2026-04-03T13:19:12Z</time></trkpt><trkpt lat="39.98848166754184" lon="9.685958982332206"><ele>22.5</ele><time>2026-04-03T13:19:13Z</time></trkpt><trkpt lat="39.988573913201776" lon="9.685830453028588"><ele>24.0</ele><time>2026-04-03T13:19:14Z</time></trkpt><trkpt lat="39.98865906495485" lon="9.68568560460329"><ele>25.5</ele><time>2026-04-03T13:19:15Z</time></trkpt><trkpt lat="39.98875885980754" lon="9.685565143598152"><ele>27.0</ele><time>2026-04-03T13:19:16Z</time></trkpt><trkpt lat="39.988863257273984" lon="9.685453835982717"><ele>27.0</ele><time>2026-04-03T13:19:17Z</time></trkpt><trkpt lat="39.988963338431546" lon="9.685327228295423"><ele>27.0</ele><time>2026-04-03T13:19:18Z</time></trkpt><trkpt lat="39.98905649368743" lon="9.685200898393022"><ele>27.0</ele><time>2026-04-03T13:19:19Z</time></trkpt><trkpt lat="39.98915285957957" lon="9.685079409215719"><ele>27.0</ele><time>2026-04-03T13:19:20Z</time></trkpt><trkpt lat="39.98925233528378" lon="9.68496555037213"><ele>27.25</ele><time>2026-04-03T13:19:21Z</time></trkpt><trkpt lat="39.98933772009403" lon="9.684837915570748"><ele>27.5</ele><time>2026-04-03T13:19:22Z</time></trkpt><trkpt lat="39.98941542818877" lon="9.6846973991775"><ele>27.75</ele><time>2026-04-03T13:19:23Z</time></trkpt><trkpt lat="39.989483575354825" lon="9.684545271100562"><ele>28.0</ele><time>2026-04-03T13:19:24Z</time></trkpt><trkpt lat="39.98954279057655" lon="9.684379836932122"><ele>29.25</ele><time>2026-04-03T13:19:25Z</time></trkpt><trkpt lat="39.98959891159986" lon="9.684211510192592"><ele>30.5</ele><time>2026-04-03T13:19:26Z</time></trkpt><trkpt lat="39.98965287821993" lon="9.684039494378931"><ele>31.75</ele><time>2026-04-03T13:19:27Z</time></trkpt><trkpt lat="39.9896921031352" lon="9.683862211646797"><ele>33.0</ele><time>2026-04-03T13:19:28Z</time></trkpt><trkpt lat="39.98971877068187" lon="9.683701987342078"><ele>33.6</ele><time>2026-04-03T13:19:29Z</time></trkpt><trkpt lat="39.98973985472205" lon="9.683554233931744"><ele>34.199999999999996</ele><time>2026-04-03T13:19:30Z</time></trkpt><trkpt lat="39.989753194761825" lon="9.683422555845707"><ele>34.8</ele><time>2026-04-03T13:19:31Z</time></trkpt><trkpt lat="39.98974614416401" lon="9.68330764105924"><ele>35.4</ele><time>2026-04-03T13:19:32Z</time></trkpt><trkpt lat="39.98975004747305" lon="9.683201089373267"><ele>36.0</ele><time>2026-04-03T13:19:33Z</time></trkpt><trkpt lat="39.98977588928536" lon="9.683106270389665"><ele>36.0</ele><time>2026-04-03T13:19:34Z</time></trkpt><trkpt lat="39.98978716484377" lon="9.683008022229073"><ele>36.0</ele><time>2026-04-03T13:19:35Z</time></trkpt><trkpt lat="39.989784065295176" lon="9.682893724130391"><ele>36.0</ele><time>2026-04-03T13:19:36Z</time></trkpt><trkpt lat="39.989799448384545" lon="9.682775850531522"><ele>36.0</ele><time>2026-04-03T13:19:37Z</time></trkpt><trkpt lat="39.98981668140974" lon="9.682653228276454"><ele>36.0</ele><time>2026-04-03T13:19:38Z</time></trkpt><trkpt lat="39.989836930106485" lon="9.682530834273416"><ele>36.0</ele><time>2026-04-03T13:19:39Z</time></trkpt><trkpt lat="39.98986229933336" lon="9.682408212088134"><ele>36.4</ele><time>2026-04-03T13:19:40Z</time></trkpt><trkpt lat="39.9898931656281" lon="9.682288752632573"><ele>36.8</ele><time>2026-04-03T13:19:41Z</time></trkpt><trkpt lat="39.98992868510825" lon="9.68216504528297"><ele>37.199999999999996</ele><time>2026-04-03T13:19:42Z</time></trkpt><trkpt lat="39.98995927444774" lon="9.68203620723"><ele>37.6</ele><time>2026-04-03T13:19:43Z</time></trkpt><trkpt lat="39.98998288707671" lon="9.68192138762877"><ele>38.0</ele><time>2026-04-03T13:19:44Z</time></trkpt><trkpt lat="39.990000515904775" lon="9.681837597153669"><ele>39.33333333333333</ele><time>2026-04-03T13:19:45Z</time></trkpt><trkpt lat="39.990022295772796" lon="9.68175794149759"><ele>40.666666666666664</ele><time>2026-04-03T13:19:46Z</time></trkpt><trkpt lat="39.99004283001762" lon="9.681674045984405"><ele>42.0</ele><time>2026-04-03T13:19:47Z</time></trkpt><trkpt lat="39.990065627530655" lon="9.681592590737282"><ele>43.333333333333336</ele><time>2026-04-03T13:19:48Z</time></trkpt><trkpt lat="39.9900965887222" lon="9.681449043548083"><ele>44.66666666666667</ele><time>2026-04-03T13:19:50Z</time></trkpt><trkpt lat="39.99012380506076" lon="9.681324564236363"><ele>46.0</ele><time>2026-04-03T13:19:52Z</time></trkpt><trkpt lat="39.990137930170164" lon="9.68123812795375"><ele>46.0</ele><time>2026-04-03T13:19:53Z</time></trkpt><trkpt lat="39.99014199857791" lon="9.681141725716548"><ele>46.0</ele><time>2026-04-03T13:19:54Z</time></trkpt><trkpt lat="39.990128268989395" lon="9.681019207787179"><ele>46.0</ele><time>2026-04-03T13:19:55Z</time></trkpt><trkpt lat="39.99009656296922" lon="9.68089104234176"><ele>46.0</ele><time>2026-04-03T13:19:56Z</time></trkpt><trkpt lat="39.990061500554546" lon="9.680768790816705"><ele>46.0</ele><time>2026-04-03T13:19:57Z</time></trkpt><trkpt lat="39.99003114063593" lon="9.680647711890996"><ele>48.0</ele><time>2026-04-03T13:19:58Z</time></trkpt><trkpt lat="39.990003593161234" lon="9.680533244532981"><ele>50.0</ele><time>2026-04-03T13:19:59Z</time></trkpt><trkpt lat="39.98997647642735" lon="9.680424544596116"><ele>51.99999999999999</ele><time>2026-04-03T13:20:00Z</time></trkpt><trkpt lat="39.989925142300415" lon="9.680334762408288"><ele>54.0</ele><time>2026-04-03T13:20:01Z</time></trkpt><trkpt lat="39.9898301270136" lon="9.680264196206986"><ele>56.0</ele><time>2026-04-03T13:20:02Z</time></trkpt><trkpt lat="39.98971765880864" lon="9.680189397510272"><ele>58.75</ele><time>2026-04-03T13:20:03Z</time></trkpt><trkpt lat="39.989578821263656" lon="9.680145215215083"><ele>61.5</ele><time>2026-04-03T13:20:04Z</time></trkpt><trkpt lat="39.989426032246186" lon="9.680118160896852"><ele>64.25</ele><time>2026-04-03T13:20:05Z</time></trkpt><trkpt lat="39.98929012634134" lon="9.680055841485625"><ele>67.0</ele><time>2026-04-03T13:20:06Z</time></trkpt><trkpt lat="39.98914851258798" lon="9.680044629168629"><ele>67.0</ele><time>2026-04-03T13:20:07Z</time></trkpt><trkpt lat="39.98901119082098" lon="9.67999965448262"><ele>67.0</ele><time>2026-04-03T13:20:08Z</time></trkpt><trkpt lat="39.98887085643832" lon="9.679957333419495"><ele>67.0</ele><time>2026-04-03T13:20:09Z</time></trkpt><trkpt lat="39.98873049398024" lon="9.679910048651529"><ele>67.0</ele><time>2026-04-03T13:20:10Z</time></trkpt><trkpt lat="39.98859935199938" lon="9.679827137774277"><ele>67.0</ele><time>2026-04-03T13:20:11Z</time></trkpt><trkpt lat="39.988477752596516" lon="9.679771136256347"><ele>67.0</ele><time>2026-04-03T13:20:12Z</time></trkpt><trkpt lat="39.98840446286146" lon="9.679657438892132"><ele>67.0</ele><time>2026-04-03T13:20:13Z</time></trkpt><trkpt lat="39.9883558717088" lon="9.679507236517386"><ele>67.0</ele><time>2026-04-03T13:20:14Z</time></trkpt><trkpt lat="39.98831018147075" lon="9.67933801054862"><ele>70.25</ele><time>2026-04-03T13:20:15Z</time></trkpt><trkpt lat="39.988256423622516" lon="9.679158320302461"><ele>73.5</ele><time>2026-04-03T13:20:16Z</time></trkpt><trkpt lat="39.988202801025466" lon="9.678982138813808"><ele>76.75</ele><time>2026-04-03T13:20:17Z</time></trkpt><trkpt lat="39.98814538467321" lon="9.678809617018773"><ele>80.0</ele><time>2026-04-03T13:20:18Z</time></trkpt><trkpt lat="39.988101643295465" lon="9.67863898007474"><ele>81.75</ele><time>2026-04-03T13:20:19Z</time></trkpt><trkpt lat="39.98810392063904" lon="9.678463422827994"><ele>83.5</ele><time>2026-04-03T13:20:20Z</time></trkpt><trkpt lat="39.98817664050091" lon="9.678279629001665"><ele>85.25</ele><time>2026-04-03T13:20:21Z</time></trkpt><trkpt lat="39.98825623031942" lon="9.678123097236"><ele>87.0</ele><time>2026-04-03T13:20:22Z</time></trkpt><trkpt lat="39.9883277645155" lon="9.677938071444217"><ele>89.0</ele><time>2026-04-03T13:20:23Z</time></trkpt><trkpt lat="39.988407883454755" lon="9.677764273767686"><ele>91.0</ele><time>2026-04-03T13:20:24Z</time></trkpt><trkpt lat="39.98847218220876" lon="9.67757074661136"><ele>93.0</ele><time>2026-04-03T13:20:25Z</time></trkpt><trkpt lat="39.98853792126483" lon="9.677367444996486"><ele>93.0</ele><time>2026-04-03T13:20:26Z</time></trkpt><trkpt lat="39.98859440826652" lon="9.67715662798888"><ele>93.0</ele><time>2026-04-03T13:20:27Z</time></trkpt><trkpt lat="39.988665251531124" lon="9.676951707249076"><ele>93.0</ele><time>2026-04-03T13:20:28Z</time></trkpt><trkpt lat="39.988740994308316" lon="9.676755062575063"><ele>93.75</ele><time>2026-04-03T13:20:29Z</time></trkpt><trkpt lat="39.98882406618181" lon="9.676589163800688"><ele>94.5</ele><time>2026-04-03T13:20:30Z</time></trkpt><trkpt lat="39.9889281147549" lon="9.676466590908587"><ele>95.25</ele><time>2026-04-03T13:20:31Z</time></trkpt><trkpt lat="39.98904932048473" lon="9.676404113125184"><ele>96.0</ele><time>2026-04-03T13:20:32Z</time></trkpt><trkpt lat="39.98918061529019" lon="9.67639621675143"><ele>97.5</ele><time>2026-04-03T13:20:33Z</time></trkpt><trkpt lat="39.98931429167246" lon="9.67641015028964"><ele>99.0</ele><time>2026-04-03T13:20:34Z</time></trkpt><trkpt lat="39.98945325609813" lon="9.6764198518169"><ele>100.5</ele><time>2026-04-03T13:20:35Z</time></trkpt><trkpt lat="39.98959819757815" lon="9.676413659022101"><ele>102.0</ele><time>2026-04-03T13:20:36Z</time></trkpt><trkpt lat="39.9897583187791" lon="9.676407057378977"><ele>102.0</ele><time>2026-04-03T13:20:37Z</time></trkpt><trkpt lat="39.98993745494244" lon="9.676418197447969"><ele>102.0</ele><time>2026-04-03T13:20:38Z</time></trkpt><trkpt lat="39.99011281895571" lon="9.676442044329214"><ele>102.0</ele><time>2026-04-03T13:20:39Z</time></trkpt><trkpt lat="39.99029607497524" lon="9.676466675101754"><ele>104.0</ele><time>2026-04-03T13:20:40Z</time></trkpt><trkpt lat="39.990463709282785" lon="9.676467472941134"><ele>106.0</ele><time>2026-04-03T13:20:41Z</time></trkpt><trkpt lat="39.990617736472615" lon="9.676415637459387"><ele>108.0</ele><time>2026-04-03T13:20:42Z</time></trkpt><trkpt lat="39.99074928906134" lon="9.676318347130053"><ele>108.66666666666666</ele><time>2026-04-03T13:20:43Z</time></trkpt><trkpt lat="39.99086271120758" lon="9.676174192432466"><ele>109.33333333333333</ele><time>2026-04-03T13:20:44Z</time></trkpt><trkpt lat="39.990962229682815" lon="9.675999683884976"><ele>110.0</ele><time>2026-04-03T13:20:45Z</time></trkpt><trkpt lat="39.99106662531634" lon="9.675827904345898"><ele>112.0</ele><time>2026-04-03T13:20:46Z</time></trkpt><trkpt lat="39.99114853187674" lon="9.675626341093373"><ele>114.0</ele><time>2026-04-03T13:20:47Z</time></trkpt><trkpt lat="39.991244612014896" lon="9.675425655955097"><ele>116.0</ele><time>2026-04-03T13:20:48Z</time></trkpt><trkpt lat="39.991344316553096" lon="9.675233157591025"><ele>119.0</ele><time>2026-04-03T13:20:49Z</time></trkpt><trkpt lat="39.99143512460001" lon="9.675046499453572"><ele>122.0</ele><time>2026-04-03T13:20:50Z</time></trkpt><trkpt lat="39.991527982888" lon="9.674867385254233"><ele>125.0</ele><time>2026-04-03T13:20:51Z</time></trkpt><trkpt lat="39.991635016616" lon="9.674740433409738"><ele>125.75</ele><time>2026-04-03T13:20:52Z</time></trkpt><trkpt lat="39.99176579827545" lon="9.67469759424942"><ele>126.5</ele><time>2026-04-03T13:20:53Z</time></trkpt><trkpt lat="39.99189210728955" lon="9.674748999195094"><ele>127.25</ele><time>2026-04-03T13:20:54Z</time></trkpt><trkpt lat="39.99200643389228" lon="9.674816224192137"><ele>128.0</ele><time>2026-04-03T13:20:55Z</time></trkpt><trkpt lat="39.992146756982876" lon="9.67489554759373"><ele>128.0</ele><time>2026-04-03T13:20:56Z</time></trkpt><trkpt lat="39.99229104208155" lon="9.674977108054783"><ele>128.0</ele><time>2026-04-03T13:20:57Z</time></trkpt><trkpt lat="39.992451073142405" lon="9.675048724698629"><ele>128.0</ele><time>2026-04-03T13:20:58Z</time></trkpt><trkpt lat="39.99261617641683" lon="9.675135060503196"><ele>127.66666666666666</ele><time>2026-04-03T13:20:59Z</time></trkpt><trkpt lat="39.99279037142563" lon="9.675226559540782"><ele>127.33333333333334</ele><time>2026-04-03T13:21:00Z</time></trkpt><trkpt lat="39.99295065293399" lon="9.67532101384689"><ele>127.0</ele><time>2026-04-03T13:21:01Z</time></trkpt><trkpt lat="39.993113907272296" lon="9.67541601161473"><ele>127.0</ele><time>2026-04-03T13:21:02Z</time></trkpt><trkpt lat="39.993276887764814" lon="9.675512520604368"><ele>127.0</ele><time>2026-04-03T13:21:03Z</time></trkpt><trkpt lat="39.993432523028034" lon="9.675595558309658"><ele>127.0</ele><time>2026-04-03T13:21:04Z</time></trkpt><trkpt lat="39.993578952571674" lon="9.675668290286993"><ele>128.33333333333334</ele><time>2026-04-03T13:21:05Z</time></trkpt><trkpt lat="39.99372203122513" lon="9.675692941845426"><ele>129.66666666666666</ele><time>2026-04-03T13:21:06Z</time></trkpt><trkpt lat="39.99387652246763" lon="9.67564276122854"><ele>131.0</ele><time>2026-04-03T13:21:07Z</time></trkpt><trkpt lat="39.99402362877305" lon="9.675556002257911"><ele>131.0</ele><time>2026-04-03T13:21:08Z</time></trkpt><trkpt lat="39.994187528288826" lon="9.675441873268444"><ele>131.0</ele><time>2026-04-03T13:21:09Z</time></trkpt><trkpt lat="39.99434550184416" lon="9.67536934250818"><ele>131.0</ele><time>2026-04-03T13:21:10Z</time></trkpt><trkpt lat="39.99450422618498" lon="9.675300179489458"><ele>136.0</ele><time>2026-04-03T13:21:11Z</time></trkpt><trkpt lat="39.9946661619049" lon="9.675246670222606"><ele>141.0</ele><time>2026-04-03T13:21:12Z</time></trkpt><trkpt lat="39.994832043813425" lon="9.67523856683461"><ele>146.0</ele><time>2026-04-03T13:21:13Z</time></trkpt><trkpt lat="39.9950035091845" lon="9.675265780910408"><ele>148.33333333333331</ele><time>2026-04-03T13:21:14Z</time></trkpt><trkpt lat="39.99516613177297" lon="9.675297316682233"><ele>150.66666666666666</ele><time>2026-04-03T13:21:15Z</time></trkpt><trkpt lat="39.99531631895655" lon="9.675280630158442"><ele>153.0</ele><time>2026-04-03T13:21:16Z</time></trkpt><trkpt lat="39.995450302188395" lon="9.675205434978619"><ele>153.0</ele><time>2026-04-03T13:21:17Z</time></trkpt><trkpt lat="39.99554035724758" lon="9.67504210138745"><ele>153.0</ele><time>2026-04-03T13:21:18Z</time></trkpt><trkpt lat="39.99558084056781" lon="9.6748350800702"><ele>153.0</ele><time>2026-04-03T13:21:19Z</time></trkpt><trkpt lat="39.995568847118506" lon="9.674606637446345"><ele>155.0</ele><time>2026-04-03T13:21:20Z</time></trkpt><trkpt lat="39.995546989033976" lon="9.674385214807536"><ele>157.0</ele><time>2026-04-03T13:21:21Z</time></trkpt><trkpt lat="39.995540717772194" lon="9.674159673336597"><ele>159.0</ele><time>2026-04-03T13:21:22Z</time></trkpt><trkpt lat="39.99554168218416" lon="9.673937615898668"><ele>159.0</ele><time>2026-04-03T13:21:23Z</time></trkpt><trkpt lat="39.99555169926863" lon="9.67371853926901"><ele>159.0</ele><time>2026-04-03T13:21:24Z</time></trkpt><trkpt lat="39.99558033937268" lon="9.67350162324079"><ele>159.0</ele><time>2026-04-03T13:21:25Z</time></trkpt><trkpt lat="39.99562113286492" lon="9.673296136229556"><ele>158.0</ele><time>2026-04-03T13:21:26Z</time></trkpt><trkpt lat="39.99566285409262" lon="9.6731096053408"><ele>157.0</ele><time>2026-04-03T13:21:27Z</time></trkpt><trkpt lat="39.99571324845351" lon="9.672951904459886"><ele>156.0</ele><time>2026-04-03T13:21:28Z</time></trkpt><trkpt lat="39.99580152142626" lon="9.672863208203882"><ele>155.0</ele><time>2026-04-03T13:21:29Z</time></trkpt><trkpt lat="39.995902302329505" lon="9.67284310188681"><ele>154.5</ele><time>2026-04-03T13:21:30Z</time></trkpt><trkpt lat="39.99601343368242" lon="9.672828800820191"><ele>154.0</ele><time>2026-04-03T13:21:31Z</time></trkpt><trkpt lat="39.99613293471458" lon="9.672878765917243"><ele>153.5</ele><time>2026-04-03T13:21:32Z</time></trkpt><trkpt lat="39.996237813778286" lon="9.672965045107087"><ele>153.0</ele><time>2026-04-03T13:21:33Z</time></trkpt><trkpt lat="39.996327036997755" lon="9.673080393035304"><ele>153.0</ele><time>2026-04-03T13:21:34Z</time></trkpt><trkpt lat="39.99640665204783" lon="9.673215023996057"><ele>153.0</ele><time>2026-04-03T13:21:35Z</time></trkpt><trkpt lat="39.99649703980655" lon="9.673339579090184"><ele>153.0</ele><time>2026-04-03T13:21:36Z</time></trkpt><trkpt lat="39.99659618988541" lon="9.673459739300858"><ele>153.0</ele><time>2026-04-03T13:21:37Z</time></trkpt><trkpt lat="39.99669711348792" lon="9.673583259227744"><ele>154.75</ele><time>2026-04-03T13:21:38Z</time></trkpt><trkpt lat="39.99681095720619" lon="9.673683105890213"><ele>156.5</ele><time>2026-04-03T13:21:39Z</time></trkpt><trkpt lat="39.99693392333636" lon="9.673706051704102"><ele>158.25</ele><time>2026-04-03T13:21:40Z</time></trkpt><trkpt lat="39.99706015514298" lon="9.673661347804817"><ele>160.0</ele><time>2026-04-03T13:21:41Z</time></trkpt><trkpt lat="39.997170282948545" lon="9.673574032342728"><ele>160.0</ele><time>2026-04-03T13:21:42Z</time></trkpt><trkpt lat="39.997256167410185" lon="9.673443388471009"><ele>160.0</ele><time>2026-04-03T13:21:43Z</time></trkpt><trkpt lat="39.997315451083125" lon="9.673281600411283"><ele>160.0</ele><time>2026-04-03T13:21:44Z</time></trkpt><trkpt lat="39.99738031749926" lon="9.673128287503841"><ele>160.0</ele><time>2026-04-03T13:21:45Z</time></trkpt><trkpt lat="39.99745956869165" lon="9.67298488250113"><ele>163.25</ele><time>2026-04-03T13:21:46Z</time></trkpt><trkpt lat="39.99755001208978" lon="9.672847797294478"><ele>166.5</ele><time>2026-04-03T13:21:47Z</time></trkpt><trkpt lat="39.99763944213928" lon="9.672707267812742"><ele>169.75</ele><time>2026-04-03T13:21:48Z</time></trkpt><trkpt lat="39.99773991032786" lon="9.672578096936109"><ele>173.0</ele><time>2026-04-03T13:21:49Z</time></trkpt><trkpt lat="39.99785234675252" lon="9.672466990788285"><ele>173.0</ele><time>2026-04-03T13:21:50Z</time></trkpt><trkpt lat="39.99795375838346" lon="9.672375385703797"><ele>173.0</ele><time>2026-04-03T13:21:51Z</time></trkpt><trkpt lat="39.99804821274002" lon="9.672286044152429"><ele>173.0</ele><time>2026-04-03T13:21:52Z</time></trkpt><trkpt lat="39.99814635804055" lon="9.672190224228238"><ele>173.0</ele><time>2026-04-03T13:21:53Z</time></trkpt><trkpt lat="39.99824781279676" lon="9.672085007788688"><ele>170.75</ele><time>2026-04-03T13:21:54Z</time></trkpt><trkpt lat="39.998349389307656" lon="9.671978965573786"><ele>168.5</ele><time>2026-04-03T13:21:55Z</time></trkpt><trkpt lat="39.99845819053749" lon="9.671870222511483"><ele>166.25</ele><time>2026-04-03T13:21:56Z</time></trkpt><trkpt lat="39.99857171718244" lon="9.671764743337512"><ele>164.0</ele><time>2026-04-03T13:21:57Z</time></trkpt><trkpt lat="39.99869403206406" lon="9.671665615285832"><ele>164.0</ele><time>2026-04-03T13:21:58Z</time></trkpt><trkpt lat="39.99882784405376" lon="9.671581005184766"><ele>164.0</ele><time>2026-04-03T13:21:59Z</time></trkpt><trkpt lat="39.99897135236127" lon="9.67151883225438"><ele>164.0</ele><time>2026-04-03T13:22:00Z</time></trkpt><trkpt lat="39.99911455991351" lon="9.671459217154547"><ele>167.66666666666666</ele><time>2026-04-03T13:22:01Z</time></trkpt><trkpt lat="39.99926000849547" lon="9.671394372456401"><ele>171.33333333333334</ele><time>2026-04-03T13:22:02Z</time></trkpt><trkpt lat="39.99940748947371" lon="9.67133593912986"><ele>175.0</ele><time>2026-04-03T13:22:03Z</time></trkpt><trkpt lat="39.99955691614868" lon="9.671306719821796"><ele>175.0</ele><time>2026-04-03T13:22:04Z</time></trkpt><trkpt lat="39.99970781815523" lon="9.671307380466343"><ele>175.0</ele><time>2026-04-03T13:22:05Z</time></trkpt><trkpt lat="39.9998523258382" lon="9.671297769314965"><ele>175.0</ele><time>2026-04-03T13:22:06Z</time></trkpt><trkpt lat="39.999976559386226" lon="9.671232617225218"><ele>175.0</ele><time>2026-04-03T13:22:07Z</time></trkpt><trkpt lat="40.00005951992843" lon="9.67111309206652"><ele>173.5</ele><time>2026-04-03T13:22:08Z</time></trkpt><trkpt lat="40.00009897895465" lon="9.670935587613402"><ele>172.0</ele><time>2026-04-03T13:22:09Z</time></trkpt><trkpt lat="40.000079744158896" lon="9.670748485713391"><ele>170.5</ele><time>2026-04-03T13:22:10Z</time></trkpt><trkpt lat="40.000008938381505" lon="9.670585135239339"><ele>169.0</ele><time>2026-04-03T13:22:11Z</time></trkpt><trkpt lat="39.99989104937931" lon="9.670481457205346"><ele>169.0</ele><time>2026-04-03T13:22:12Z</time></trkpt><trkpt lat="39.99974364296028" lon="9.670439834461412"><ele>169.0</ele><time>2026-04-03T13:22:13Z</time></trkpt><trkpt lat="39.99959775769432" lon="9.670422134943312"><ele>169.0</ele><time>2026-04-03T13:22:14Z</time></trkpt><trkpt lat="39.9994642519246" lon="9.670356401195408"><ele>169.0</ele><time>2026-04-03T13:22:15Z</time></trkpt><trkpt lat="39.99932272158899" lon="9.670309037427321"><ele>170.5</ele><time>2026-04-03T13:22:16Z</time></trkpt><trkpt lat="39.99918092787864" lon="9.67026118432237"><ele>172.0</ele><time>2026-04-03T13:22:17Z</time></trkpt><trkpt lat="39.9990353772883" lon="9.670212063296384"><ele>173.5</ele><time>2026-04-03T13:22:18Z</time></trkpt><trkpt lat="39.99889094007346" lon="9.67016345548982"><ele>175.0</ele><time>2026-04-03T13:22:19Z</time></trkpt><trkpt lat="39.998745661834135" lon="9.67011497497123"><ele>175.0</ele><time>2026-04-03T13:22:20Z</time></trkpt><trkpt lat="39.99860829224762" lon="9.670068725095334"><ele>175.0</ele><time>2026-04-03T13:22:21Z</time></trkpt><trkpt lat="39.99849705763224" lon="9.670001187648731"><ele>175.0</ele><time>2026-04-03T13:22:22Z</time></trkpt><trkpt lat="39.99841096491418" lon="9.669910516408224"><ele>175.0</ele><time>2026-04-03T13:22:23Z</time></trkpt><trkpt lat="39.998367700498505" lon="9.669777909401068"><ele>175.0</ele><time>2026-04-03T13:22:24Z</time></trkpt><trkpt lat="39.998329297709766" lon="9.669628861693669"><ele>175.0</ele><time>2026-04-03T13:22:25Z</time></trkpt><trkpt lat="39.99835448159662" lon="9.66945837129604"><ele>175.0</ele><time>2026-04-03T13:22:26Z</time></trkpt><trkpt lat="39.99835625570403" lon="9.669280402382137"><ele>175.0</ele><time>2026-04-03T13:22:27Z</time></trkpt><trkpt lat="39.9983723162731" lon="9.669106148219539"><ele>175.25</ele><time>2026-04-03T13:22:28Z</time></trkpt><trkpt lat="39.998385513231305" lon="9.668942312874705"><ele>175.5</ele><time>2026-04-03T13:22:29Z</time></trkpt><trkpt lat="39.99841805044941" lon="9.668786663659525"><ele>175.75</ele><time>2026-04-03T13:22:30Z</time></trkpt><trkpt lat="39.99848146921889" lon="9.66865117844543"><ele>176.0</ele><time>2026-04-03T13:22:31Z</time></trkpt><trkpt lat="39.99858959551837" lon="9.668559244830554"><ele>176.0</ele><time>2026-04-03T13:22:32Z</time></trkpt><trkpt lat="39.998722513892346" lon="9.668511996076834"><ele>176.0</ele><time>2026-04-03T13:22:33Z</time></trkpt><trkpt lat="39.998863138948096" lon="9.668543968169837"><ele>176.0</ele><time>2026-04-03T13:22:34Z</time></trkpt><trkpt lat="39.99900590520998" lon="9.66856313658234"><ele>176.0</ele><time>2026-04-03T13:22:35Z</time></trkpt><trkpt lat="39.99914405445259" lon="9.668551246911578"><ele>179.25</ele><time>2026-04-03T13:22:36Z</time></trkpt><trkpt lat="39.99926280548327" lon="9.668454765063803"><ele>182.5</ele><time>2026-04-03T13:22:37Z</time></trkpt><trkpt lat="39.99935042804992" lon="9.668289767804815"><ele>185.75</ele><time>2026-04-03T13:22:38Z</time></trkpt><trkpt lat="39.999417416735696" lon="9.668108089762883"><ele>189.0</ele><time>2026-04-03T13:22:39Z</time></trkpt><trkpt lat="39.999486673059046" lon="9.667946257029799"><ele>189.0</ele><time>2026-04-03T13:22:40Z</time></trkpt><trkpt lat="39.999558115174615" lon="9.66779510298419"><ele>189.0</ele><time>2026-04-03T13:22:41Z</time></trkpt><trkpt lat="39.999623650169575" lon="9.66763986295226"><ele>189.0</ele><time>2026-04-03T13:22:42Z</time></trkpt><trkpt lat="39.99964839302094" lon="9.667467218723365"><ele>189.0</ele><time>2026-04-03T13:22:43Z</time></trkpt><trkpt lat="39.999624582394745" lon="9.667302695087653"><ele>187.5</ele><time>2026-04-03T13:22:44Z</time></trkpt><trkpt lat="39.99957556738211" lon="9.667164381917457"><ele>186.0</ele><time>2026-04-03T13:22:45Z</time></trkpt><trkpt lat="39.99955997701948" lon="9.667056949054105"><ele>184.5</ele><time>2026-04-03T13:22:46Z</time></trkpt><trkpt lat="39.99959806137594" lon="9.666974724325247"><ele>183.0</ele><time>2026-04-03T13:22:47Z</time></trkpt><trkpt lat="39.99966868108972" lon="9.66694035285835"><ele>181.5</ele><time>2026-04-03T13:22:48Z</time></trkpt><trkpt lat="39.99973210378744" lon="9.666933994186502"><ele>180.0</ele><time>2026-04-03T13:22:49Z</time></trkpt><trkpt lat="39.99985150967636" lon="9.666984486096327"><ele>180.0</ele><time>2026-04-03T13:22:51Z</time></trkpt><trkpt lat="39.99992537911525" lon="9.667020607759865"><ele>180.0</ele><time>2026-04-03T13:22:52Z</time></trkpt><trkpt lat="40.0000060215097" lon="9.667060821593916"><ele>180.0</ele><time>2026-04-03T13:22:53Z</time></trkpt><trkpt lat="40.000084597984696" lon="9.667128215249544"><ele>180.0</ele><time>2026-04-03T13:22:54Z</time></trkpt><trkpt lat="40.00015330421309" lon="9.667221247312982"><ele>180.0</ele><time>2026-04-03T13:22:55Z</time></trkpt><trkpt lat="40.00020451798372" lon="9.667331213472595"><ele>180.0</ele><time>2026-04-03T13:22:56Z</time></trkpt><trkpt lat="40.00024531599195" lon="9.667442359936025"><ele>180.0</ele><time>2026-04-03T13:22:57Z</time></trkpt><trkpt lat="40.00028696588929" lon="9.667550772999927"><ele>180.0</ele><time>2026-04-03T13:22:58Z</time></trkpt><trkpt lat="40.00035216938523" lon="9.667637813268609"><ele>180.0</ele><time>2026-04-03T13:22:59Z</time></trkpt><trkpt lat="40.000441478596215" lon="9.667682504817359"><ele>180.0</ele><time>2026-04-03T13:23:00Z</time></trkpt><trkpt lat="40.00054048023435" lon="9.667711441229683"><ele>180.0</ele><time>2026-04-03T13:23:01Z</time></trkpt><trkpt lat="40.00064278520191" lon="9.66776079422323"><ele>180.0</ele><time>2026-04-03T13:23:02Z</time></trkpt><trkpt lat="40.000747399051036" lon="9.667846244736948"><ele>180.0</ele><time>2026-04-03T13:23:03Z</time></trkpt><trkpt lat="40.00084342029239" lon="9.66798135909403"><ele>180.0</ele><time>2026-04-03T13:23:04Z</time></trkpt><trkpt lat="40.00089480589421" lon="9.668147274212972"><ele>183.0</ele><time>2026-04-03T13:23:05Z</time></trkpt><trkpt lat="40.00095970722689" lon="9.66829668471075"><ele>186.0</ele><time>2026-04-03T13:23:06Z</time></trkpt><trkpt lat="40.00102090531348" lon="9.668455067827866"><ele>189.0</ele><time>2026-04-03T13:23:07Z</time></trkpt><trkpt lat="40.00110254049289" lon="9.668597667731706"><ele>192.0</ele><time>2026-04-03T13:23:08Z</time></trkpt><trkpt lat="40.00120853183422" lon="9.66872257222057"><ele>199.33333333333331</ele><time>2026-04-03T13:23:09Z</time></trkpt><trkpt lat="40.001330048802664" lon="9.668827266338372"><ele>206.66666666666666</ele><time>2026-04-03T13:23:10Z</time></trkpt><trkpt lat="40.00146813095484" lon="9.668916800424478"><ele>214.0</ele><time>2026-04-03T13:23:11Z</time></trkpt><trkpt lat="40.001613643296984" lon="9.668990990109597"><ele>211.33333333333331</ele><time>2026-04-03T13:23:12Z</time></trkpt><trkpt lat="40.00176074998756" lon="9.669055277892747"><ele>208.66666666666669</ele><time>2026-04-03T13:23:13Z</time></trkpt><trkpt lat="40.00190333209559" lon="9.669117901671973"><ele>206.0</ele><time>2026-04-03T13:23:14Z</time></trkpt><trkpt lat="40.00204712944372" lon="9.66914859202352"><ele>206.0</ele><time>2026-04-03T13:23:15Z</time></trkpt><trkpt lat="40.00219213808418" lon="9.669102453984214"><ele>206.0</ele><time>2026-04-03T13:23:16Z</time></trkpt><trkpt lat="40.00232106326359" lon="9.668986789682004"><ele>206.0</ele><time>2026-04-03T13:23:17Z</time></trkpt><trkpt lat="40.002443588277174" lon="9.668852133613141"><ele>207.75</ele><time>2026-04-03T13:23:18Z</time></trkpt><trkpt lat="40.00257304920493" lon="9.668751073646238"><ele>209.5</ele><time>2026-04-03T13:23:19Z</time></trkpt><trkpt lat="40.00271033359694" lon="9.668739931968474"><ele>211.25</ele><time>2026-04-03T13:23:20Z</time></trkpt><trkpt lat="40.00283863715715" lon="9.6688176260559"><ele>213.0</ele><time>2026-04-03T13:23:21Z</time></trkpt><trkpt lat="40.002973530186374" lon="9.668885183314584"><ele>213.0</ele><time>2026-04-03T13:23:22Z</time></trkpt><trkpt lat="40.00310754683184" lon="9.668956444454334"><ele>213.0</ele><time>2026-04-03T13:23:23Z</time></trkpt><trkpt lat="40.003244478177166" lon="9.669028399859856"><ele>213.0</ele><time>2026-04-03T13:23:24Z</time></trkpt><trkpt lat="40.00337948891356" lon="9.669092721616344"><ele>213.0</ele><time>2026-04-03T13:23:25Z</time></trkpt><trkpt lat="40.0035231726678" lon="9.669105525694334"><ele>214.33333333333331</ele><time>2026-04-03T13:23:26Z</time></trkpt><trkpt lat="40.00366895126328" lon="9.669041406475937"><ele>215.66666666666666</ele><time>2026-04-03T13:23:27Z</time></trkpt><trkpt lat="40.00380078154189" lon="9.66892527136092"><ele>217.0</ele><time>2026-04-03T13:23:28Z</time></trkpt><trkpt lat="40.00392870254886" lon="9.668804289205399"><ele>217.0</ele><time>2026-04-03T13:23:29Z</time></trkpt><trkpt lat="40.00405216224761" lon="9.668695319297514"><ele>217.0</ele><time>2026-04-03T13:23:30Z</time></trkpt><trkpt lat="40.00416505275605" lon="9.66860792702852"><ele>217.0</ele><time>2026-04-03T13:23:31Z</time></trkpt><trkpt lat="40.004283916148864" lon="9.668565631337037"><ele>217.0</ele><time>2026-04-03T13:23:32Z</time></trkpt><trkpt lat="40.00441756974154" lon="9.668593936225184"><ele>221.25</ele><time>2026-04-03T13:23:33Z</time></trkpt><trkpt lat="40.00454643716711" lon="9.6686116378907"><ele>225.5</ele><time>2026-04-03T13:23:34Z</time></trkpt><trkpt lat="40.004686000412995" lon="9.668621809243039"><ele>229.75</ele><time>2026-04-03T13:23:35Z</time></trkpt><trkpt lat="40.00482914962741" lon="9.668626526786563"><ele>234.0</ele><time>2026-04-03T13:23:36Z</time></trkpt><trkpt lat="40.004965811049765" lon="9.668636535449592"><ele>238.0</ele><time>2026-04-03T13:23:37Z</time></trkpt><trkpt lat="40.00510792346915" lon="9.66865097126235"><ele>242.0</ele><time>2026-04-03T13:23:38Z</time></trkpt><trkpt lat="40.005240670115235" lon="9.668667196071226"><ele>246.0</ele><time>2026-04-03T13:23:39Z</time></trkpt><trkpt lat="40.00535821595919" lon="9.668673182862527"><ele>250.0</ele><time>2026-04-03T13:23:40Z</time></trkpt><trkpt lat="40.00545750244893" lon="9.668636828327157"><ele>242.5</ele><time>2026-04-03T13:23:41Z</time></trkpt><trkpt lat="40.00552720743808" lon="9.668522502950562"><ele>235.0</ele><time>2026-04-03T13:23:42Z</time></trkpt><trkpt lat="40.00553558435206" lon="9.668358034186229"><ele>227.5</ele><time>2026-04-03T13:23:43Z</time></trkpt><trkpt lat="40.005496595579814" lon="9.668182329396245"><ele>220.0</ele><time>2026-04-03T13:23:44Z</time></trkpt><trkpt lat="40.005444312091235" lon="9.668007803315774"><ele>220.0</ele><time>2026-04-03T13:23:45Z</time></trkpt><trkpt lat="40.00539544340453" lon="9.667827948584307"><ele>220.0</ele><time>2026-04-03T13:23:46Z</time></trkpt><trkpt lat="40.00528849633359" lon="9.66765829897482"><ele>220.0</ele><time>2026-04-03T13:23:47Z</time></trkpt><trkpt lat="40.00515733593665" lon="9.667499053372188"><ele>219.75</ele><time>2026-04-03T13:23:48Z</time></trkpt><trkpt lat="40.005049696625434" lon="9.66735357307239"><ele>219.5</ele><time>2026-04-03T13:23:49Z</time></trkpt><trkpt lat="40.0049906647455" lon="9.667197328316755"><ele>219.25</ele><time>2026-04-03T13:23:50Z</time></trkpt><trkpt lat="40.00502596084355" lon="9.667031363024828"><ele>219.0</ele><time>2026-04-03T13:23:51Z</time></trkpt><trkpt lat="40.00510970897208" lon="9.666978071527469"><ele>219.0</ele><time>2026-04-03T13:23:52Z</time></trkpt><trkpt lat="40.0051980991597" lon="9.66698610584221"><ele>218.99999999999997</ele><time>2026-04-03T13:23:53Z</time></trkpt><trkpt lat="40.005310800886" lon="9.666985933244963"><ele>218.99999999999997</ele><time>2026-04-03T13:23:54Z</time></trkpt><trkpt lat="40.005433075669856" lon="9.667004860707065"><ele>219.0</ele><time>2026-04-03T13:23:55Z</time></trkpt><trkpt lat="40.005543760082205" lon="9.667071069760137"><ele>219.0</ele><time>2026-04-03T13:23:56Z</time></trkpt><trkpt lat="40.005630235006656" lon="9.667198430015086"><ele>219.0</ele><time>2026-04-03T13:23:57Z</time></trkpt><trkpt lat="40.00567179759792" lon="9.667368960171999"><ele>219.0</ele><time>2026-04-03T13:23:58Z</time></trkpt><trkpt lat="40.005684649668105" lon="9.667566239301626"><ele>219.0</ele><time>2026-04-03T13:23:59Z</time></trkpt><trkpt lat="40.00571554265704" lon="9.66777409016965"><ele>219.33333333333331</ele><time>2026-04-03T13:24:00Z</time></trkpt><trkpt lat="40.00573593891527" lon="9.667981446127273"><ele>219.66666666666666</ele><time>2026-04-03T13:24:01Z</time></trkpt><trkpt lat="40.00580738143457" lon="9.668189500297814"><ele>220.0</ele><time>2026-04-03T13:24:02Z</time></trkpt><trkpt lat="40.0059181393812" lon="9.668378574067013"><ele>225.33333333333331</ele><time>2026-04-03T13:24:03Z</time></trkpt><trkpt lat="40.006079480976425" lon="9.668535494615822"><ele>230.66666666666669</ele><time>2026-04-03T13:24:04Z</time></trkpt><trkpt lat="40.00622949520375" lon="9.668677916293444"><ele>236.0</ele><time>2026-04-03T13:24:05Z</time></trkpt><trkpt lat="40.00636948569322" lon="9.668835168119799"><ele>240.33333333333334</ele><time>2026-04-03T13:24:06Z</time></trkpt><trkpt lat="40.006494476836444" lon="9.66900750780286"><ele>244.66666666666669</ele><time>2026-04-03T13:24:07Z</time></trkpt><trkpt lat="40.00661936439423" lon="9.669176004497901"><ele>249.0</ele><time>2026-04-03T13:24:08Z</time></trkpt><trkpt lat="40.006743434956235" lon="9.6693427438024"><ele>258.6666666666667</ele><time>2026-04-03T13:24:09Z</time></trkpt><trkpt lat="40.00686668336278" lon="9.669503839519045"><ele>268.33333333333337</ele><time>2026-04-03T13:24:10Z</time></trkpt><trkpt lat="40.00699424708487" lon="9.66966789777955"><ele>278.0</ele><time>2026-04-03T13:24:11Z</time></trkpt><trkpt lat="40.00711956739245" lon="9.66983090458598"><ele>278.0</ele><time>2026-04-03T13:24:12Z</time></trkpt><trkpt lat="40.007245345748046" lon="9.669980358533346"><ele>278.0</ele><time>2026-04-03T13:24:13Z</time></trkpt><trkpt lat="40.00737976457875" lon="9.670113532637028"><ele>278.0</ele><time>2026-04-03T13:24:14Z</time></trkpt><trkpt lat="40.00750886761604" lon="9.67025886992731"><ele>280.0</ele><time>2026-04-03T13:24:15Z</time></trkpt><trkpt lat="40.00760423767276" lon="9.67044308503577"><ele>282.0</ele><time>2026-04-03T13:24:16Z</time></trkpt><trkpt lat="40.007720241106455" lon="9.670609842425646"><ele>284.0</ele><time>2026-04-03T13:24:17Z</time></trkpt><trkpt lat="40.00781769093166" lon="9.670772561884313"><ele>284.0</ele><time>2026-04-03T13:24:18Z</time></trkpt><trkpt lat="40.00791892563451" lon="9.670902583579592"><ele>284.0</ele><time>2026-04-03T13:24:19Z</time></trkpt><trkpt lat="40.008045248463205" lon="9.67096201332381"><ele>284.0</ele><time>2026-04-03T13:24:20Z</time></trkpt><trkpt lat="40.00819825718677" lon="9.67093187963469"><ele>284.0</ele><time>2026-04-03T13:24:21Z</time></trkpt><trkpt lat="40.00833984050493" lon="9.670907861080304"><ele>280.25</ele><time>2026-04-03T13:24:22Z</time></trkpt><trkpt lat="40.00847691634984" lon="9.670933948991047"><ele>276.5</ele><time>2026-04-03T13:24:23Z</time></trkpt><trkpt lat="40.00862335858931" lon="9.67094120859645"><ele>272.75</ele><time>2026-04-03T13:24:24Z</time></trkpt><trkpt lat="40.00877139787577" lon="9.670884195374102"><ele>269.0</ele><time>2026-04-03T13:24:25Z</time></trkpt><trkpt lat="40.008914829193685" lon="9.670806756877928"><ele>269.0</ele><time>2026-04-03T13:24:26Z</time></trkpt><trkpt lat="40.00905637782933" lon="9.670732149201877"><ele>269.0</ele><time>2026-04-03T13:24:27Z</time></trkpt><trkpt lat="40.009196487961134" lon="9.670669858442016"><ele>269.0</ele><time>2026-04-03T13:24:28Z</time></trkpt><trkpt lat="40.00933609397323" lon="9.670620371041496"><ele>269.0</ele><time>2026-04-03T13:24:29Z</time></trkpt><trkpt lat="40.00945398805707" lon="9.670554860528174"><ele>265.33333333333337</ele><time>2026-04-03T13:24:30Z</time></trkpt><trkpt lat="40.009535959347616" lon="9.670397132623686"><ele>261.6666666666667</ele><time>2026-04-03T13:24:31Z</time></trkpt><trkpt lat="40.009564201311086" lon="9.670200667285087"><ele>258.0</ele><time>2026-04-03T13:24:32Z</time></trkpt><trkpt lat="40.00958897860329" lon="9.670003155647764"><ele>258.0</ele><time>2026-04-03T13:24:33Z</time></trkpt><trkpt lat="40.009637721169014" lon="9.669819987740626"><ele>258.0</ele><time>2026-04-03T13:24:34Z</time></trkpt><trkpt lat="40.00967255825808" lon="9.669621536982717"><ele>258.0</ele><time>2026-04-03T13:24:35Z</time></trkpt><trkpt lat="40.00973337770736" lon="9.669435709765963"><ele>252.75</ele><time>2026-04-03T13:24:36Z</time></trkpt><trkpt lat="40.00982542818045" lon="9.669272336456503"><ele>247.5</ele><time>2026-04-03T13:24:37Z</time></trkpt><trkpt lat="40.009930812416016" lon="9.669142291010838"><ele>242.25</ele><time>2026-04-03T13:24:38Z</time></trkpt><trkpt lat="40.01000358150007" lon="9.66899787863909"><ele>237.0</ele><time>2026-04-03T13:24:39Z</time></trkpt><trkpt lat="40.010033600703345" lon="9.66883047680482"><ele>234.5</ele><time>2026-04-03T13:24:40Z</time></trkpt><trkpt lat="40.010004004998315" lon="9.668645522741608"><ele>232.0</ele><time>2026-04-03T13:24:41Z</time></trkpt><trkpt lat="40.00996376018486" lon="9.66847628128077"><ele>229.5</ele><time>2026-04-03T13:24:42Z</time></trkpt><trkpt lat="40.00997033592434" lon="9.668342100453794"><ele>227.0</ele><time>2026-04-03T13:24:43Z</time></trkpt><trkpt lat="40.01003993930997" lon="9.668257685532927"><ele>236.39999999999998</ele><time>2026-04-03T13:24:44Z</time></trkpt><trkpt lat="40.01010661249011" lon="9.668196565603864"><ele>245.79999999999998</ele><time>2026-04-03T13:24:45Z</time></trkpt><trkpt lat="40.01020570169558" lon="9.668216076962999"><ele>255.2</ele><time>2026-04-03T13:24:46Z</time></trkpt><trkpt lat="40.01029744182145" lon="9.66827327552343"><ele>264.59999999999997</ele><time>2026-04-03T13:24:47Z</time></trkpt><trkpt lat="40.01038833065538" lon="9.668344757054856"><ele>274.0</ele><time>2026-04-03T13:24:48Z</time></trkpt><trkpt lat="40.010474692571144" lon="9.668407286439995"><ele>274.0</ele><time>2026-04-03T13:24:49Z</time></trkpt><trkpt lat="40.01055431631486" lon="9.668481228200733"><ele>274.0</ele><time>2026-04-03T13:24:50Z</time></trkpt><trkpt lat="40.01061924467521" lon="9.668580054640364"><ele>274.0</ele><time>2026-04-03T13:24:51Z</time></trkpt><trkpt lat="40.01066657564061" lon="9.668707764464202"><ele>274.0</ele><time>2026-04-03T13:24:52Z</time></trkpt><trkpt lat="40.0107090045772" lon="9.66884276286836"><ele>274.0</ele><time>2026-04-03T13:24:53Z</time></trkpt><trkpt lat="40.01075873235404" lon="9.668988596840155"><ele>276.75</ele><time>2026-04-03T13:24:54Z</time></trkpt><trkpt lat="40.01081373038287" lon="9.669143159036059"><ele>279.5</ele><time>2026-04-03T13:24:55Z</time></trkpt><trkpt lat="40.01087632344543" lon="9.66929915865269"><ele>282.25</ele><time>2026-04-03T13:24:56Z</time></trkpt><trkpt lat="40.01093102111242" lon="9.669453909098053"><ele>285.0</ele><time>2026-04-03T13:24:57Z</time></trkpt><trkpt lat="40.01101049436912" lon="9.669585844705196"><ele>291.5</ele><time>2026-04-03T13:24:58Z</time></trkpt><trkpt lat="40.01111827819906" lon="9.669684129808397"><ele>298.0</ele><time>2026-04-03T13:24:59Z</time></trkpt><trkpt lat="40.011225118636446" lon="9.669775457843093"><ele>304.5</ele><time>2026-04-03T13:25:00Z</time></trkpt><trkpt lat="40.011301681181756" lon="9.669903580008208"><ele>311.0</ele><time>2026-04-03T13:25:01Z</time></trkpt><trkpt lat="40.011328481793285" lon="9.670066335061604"><ele>311.0</ele><time>2026-04-03T13:25:02Z</time></trkpt><trkpt lat="40.01128020646297" lon="9.670226919013604"><ele>311.0</ele><time>2026-04-03T13:25:03Z</time></trkpt><trkpt lat="40.01123719524617" lon="9.670381734354834"><ele>311.0</ele><time>2026-04-03T13:25:04Z</time></trkpt><trkpt lat="40.011184457627266" lon="9.670552902120775"><ele>311.0</ele><time>2026-04-03T13:25:05Z</time></trkpt><trkpt lat="40.01111395325004" lon="9.670712136176045"><ele>313.0</ele><time>2026-04-03T13:25:06Z</time></trkpt><trkpt lat="40.01105094114328" lon="9.67087157137808"><ele>315.0</ele><time>2026-04-03T13:25:07Z</time></trkpt><trkpt lat="40.010999050085644" lon="9.671036900617672"><ele>317.0</ele><time>2026-04-03T13:25:08Z</time></trkpt><trkpt lat="40.01095568262889" lon="9.671208360032452"><ele>319.0</ele><time>2026-04-03T13:25:09Z</time></trkpt><trkpt lat="40.01090475449974" lon="9.671381445497953"><ele>319.0</ele><time>2026-04-03T13:25:10Z</time></trkpt><trkpt lat="40.01087872842989" lon="9.671567018452931"><ele>319.0</ele><time>2026-04-03T13:25:11Z</time></trkpt><trkpt lat="40.010885582591385" lon="9.671754255963462"><ele>319.0</ele><time>2026-04-03T13:25:12Z</time></trkpt><trkpt lat="40.010920315734275" lon="9.67194384623565"><ele>319.0</ele><time>2026-04-03T13:25:13Z</time></trkpt><trkpt lat="40.01099173460872" lon="9.672115214318719"><ele>322.75</ele><time>2026-04-03T13:25:14Z</time></trkpt><trkpt lat="40.01107165607412" lon="9.67227230590826"><ele>326.5</ele><time>2026-04-03T13:25:15Z</time></trkpt><trkpt lat="40.011151449118785" lon="9.672426745546145"><ele>330.25</ele><time>2026-04-03T13:25:16Z</time></trkpt><trkpt lat="40.01125657780965" lon="9.67254870580603"><ele>334.0</ele><time>2026-04-03T13:25:17Z</time></trkpt><trkpt lat="40.011393890221946" lon="9.67263090555427"><ele>334.0</ele><time>2026-04-03T13:25:18Z</time></trkpt><trkpt lat="40.01151268510103" lon="9.672717666250932"><ele>334.0</ele><time>2026-04-03T13:25:19Z</time></trkpt><trkpt lat="40.01162074355656" lon="9.672808683596573"><ele>334.0</ele><time>2026-04-03T13:25:20Z</time></trkpt><trkpt lat="40.01171821623749" lon="9.672890067478383"><ele>334.0</ele><time>2026-04-03T13:25:21Z</time></trkpt><trkpt lat="40.01181161402194" lon="9.672966587352517"><ele>335.0</ele><time>2026-04-03T13:25:22Z</time></trkpt><trkpt lat="40.01189545033806" lon="9.67304020502998"><ele>336.0</ele><time>2026-04-03T13:25:23Z</time></trkpt><trkpt lat="40.011981090080596" lon="9.673092386861565"><ele>337.0</ele><time>2026-04-03T13:25:24Z</time></trkpt><trkpt lat="40.01207526672628" lon="9.673105806150991"><ele>338.0</ele><time>2026-04-03T13:25:25Z</time></trkpt><trkpt lat="40.012164166597096" lon="9.67301139735318"><ele>339.0</ele><time>2026-04-03T13:25:26Z</time></trkpt><trkpt lat="40.01223575594256" lon="9.67290521469322"><ele>339.0</ele><time>2026-04-03T13:25:27Z</time></trkpt><trkpt lat="40.01230321995037" lon="9.67279788779393"><ele>339.0</ele><time>2026-04-03T13:25:28Z</time></trkpt><trkpt lat="40.012392567808575" lon="9.672726473273444"><ele>339.0</ele><time>2026-04-03T13:25:29Z</time></trkpt><trkpt lat="40.01249949799588" lon="9.672707700423999"><ele>339.0</ele><time>2026-04-03T13:25:30Z</time></trkpt><trkpt lat="40.012609926292356" lon="9.672720861151495"><ele>339.0</ele><time>2026-04-03T13:25:31Z</time></trkpt><trkpt lat="40.012702858523795" lon="9.672803218049642"><ele>339.75</ele><time>2026-04-03T13:25:32Z</time></trkpt><trkpt lat="40.01279513548072" lon="9.67287930755544"><ele>340.5</ele><time>2026-04-03T13:25:33Z</time></trkpt><trkpt lat="40.01287741782039" lon="9.67300063157835"><ele>341.25</ele><time>2026-04-03T13:25:34Z</time></trkpt><trkpt lat="40.012960231105836" lon="9.673113865467824"><ele>342.0</ele><time>2026-04-03T13:25:35Z</time></trkpt><trkpt lat="40.013049188578876" lon="9.673228866227687"><ele>342.0</ele><time>2026-04-03T13:25:36Z</time></trkpt><trkpt lat="40.01314170793797" lon="9.673341313243423"><ele>342.0</ele><time>2026-04-03T13:25:37Z</time></trkpt><trkpt lat="40.01322436995447" lon="9.673468498839968"><ele>342.0</ele><time>2026-04-03T13:25:38Z</time></trkpt><trkpt lat="40.01325383204044" lon="9.673636643416433"><ele>342.0</ele><time>2026-04-03T13:25:39Z</time></trkpt><trkpt lat="40.013297178853335" lon="9.673799210285448"><ele>342.25</ele><time>2026-04-03T13:25:40Z</time></trkpt><trkpt lat="40.01334258379406" lon="9.673959357960268"><ele>342.5</ele><time>2026-04-03T13:25:41Z</time></trkpt><trkpt lat="40.01343765858021" lon="9.674087035908444"><ele>342.75</ele><time>2026-04-03T13:25:42Z</time></trkpt><trkpt lat="40.013543629753414" lon="9.674191211376172"><ele>343.0</ele><time>2026-04-03T13:25:43Z</time></trkpt><trkpt lat="40.01361804485479" lon="9.674308554297395"><ele>345.75</ele><time>2026-04-03T13:25:44Z</time></trkpt><trkpt lat="40.013614737467925" lon="9.674464475085529"><ele>348.5</ele><time>2026-04-03T13:25:45Z</time></trkpt><trkpt lat="40.01359540089961" lon="9.674617759933763"><ele>351.25</ele><time>2026-04-03T13:25:46Z</time></trkpt><trkpt lat="40.013542425945644" lon="9.674756731860661"><ele>354.0</ele><time>2026-04-03T13:25:47.001Z</time></trkpt><trkpt lat="40.013509919836046" lon="9.67489477265672"><ele>354.0</ele><time>2026-04-03T13:25:48.001Z</time></trkpt><trkpt lat="40.013483939905186" lon="9.67501534633218"><ele>354.0</ele><time>2026-04-03T13:25:49.001Z</time></trkpt><trkpt lat="40.01351646924421" lon="9.675140652121657"><ele>354.0</ele><time>2026-04-03T13:25:50.001Z</time></trkpt><trkpt lat="40.01358782277056" lon="9.675246817841426"><ele>354.0</ele><time>2026-04-03T13:25:51.001Z</time></trkpt><trkpt lat="40.01367807186695" lon="9.675327586014346"><ele>354.0</ele><time>2026-04-03T13:25:52.001Z</time></trkpt><trkpt lat="40.013753933874284" lon="9.67542190741011"><ele>356.0</ele><time>2026-04-03T13:25:53.001Z</time></trkpt><trkpt lat="40.013806538913535" lon="9.675542421823607"><ele>358.0</ele><time>2026-04-03T13:25:54.001Z</time></trkpt><trkpt lat="40.01382652518635" lon="9.675685807968243"><ele>360.0</ele><time>2026-04-03T13:25:55.001Z</time></trkpt><trkpt lat="40.013820266268944" lon="9.675832081687968"><ele>362.0</ele><time>2026-04-03T13:25:56.001Z</time></trkpt><trkpt lat="40.01379287974687" lon="9.675978243166465"><ele>364.0</ele><time>2026-04-03T13:25:57.001Z</time></trkpt><trkpt lat="40.01374944000035" lon="9.676122516609198"><ele>364.75</ele><time>2026-04-03T13:25:58.001Z</time></trkpt><trkpt lat="40.013700327387426" lon="9.676263013039614"><ele>365.5</ele><time>2026-04-03T13:25:59Z</time></trkpt><trkpt lat="40.013635691402776" lon="9.676395482121304"><ele>366.25</ele><time>2026-04-03T13:26:00Z</time></trkpt><trkpt lat="40.01354964560146" lon="9.676516907121773"><ele>367.0</ele><time>2026-04-03T13:26:01Z</time></trkpt><trkpt lat="40.01346309472308" lon="9.676639615305442"><ele>367.0</ele><time>2026-04-03T13:26:02Z</time></trkpt><trkpt lat="40.013370309317466" lon="9.676761140797646"><ele>367.0</ele><time>2026-04-03T13:26:03Z</time></trkpt><trkpt lat="40.01330411977545" lon="9.676893372834694"><ele>367.0</ele><time>2026-04-03T13:26:04Z</time></trkpt><trkpt lat="40.013295125509934" lon="9.677048236031684"><ele>367.0</ele><time>2026-04-03T13:26:05Z</time></trkpt><trkpt lat="40.01334470086973" lon="9.67719710837417"><ele>368.5</ele><time>2026-04-03T13:26:06Z</time></trkpt><trkpt lat="40.01343454990977" lon="9.677311497587944"><ele>370.0</ele><time>2026-04-03T13:26:07Z</time></trkpt><trkpt lat="40.01355266075567" lon="9.677387331195735"><ele>371.5</ele><time>2026-04-03T13:26:08Z</time></trkpt><trkpt lat="40.01365023569302" lon="9.67747692803801"><ele>373.0</ele><time>2026-04-03T13:26:09Z</time></trkpt><trkpt lat="40.01373868981734" lon="9.67757656258066"><ele>373.0</ele><time>2026-04-03T13:26:10Z</time></trkpt><trkpt lat="40.01382166917812" lon="9.677692926339045"><ele>373.0</ele><time>2026-04-03T13:26:11Z</time></trkpt><trkpt lat="40.013871641485544" lon="9.677841118683546"><ele>373.0</ele><time>2026-04-03T13:26:12Z</time></trkpt><trkpt lat="40.01393168994656" lon="9.677991565453958"><ele>373.0</ele><time>2026-04-03T13:26:13Z</time></trkpt><trkpt lat="40.01392753201324" lon="9.67815971631161"><ele>379.25</ele><time>2026-04-03T13:26:14Z</time></trkpt><trkpt lat="40.01395025881485" lon="9.678320437323682"><ele>385.5</ele><time>2026-04-03T13:26:15Z</time></trkpt><trkpt lat="40.01396472835252" lon="9.678473227469384"><ele>391.75</ele><time>2026-04-03T13:26:16Z</time></trkpt><trkpt lat="40.01403376165569" lon="9.678593540099708"><ele>398.0</ele><time>2026-04-03T13:26:17Z</time></trkpt><trkpt lat="40.014146159679285" lon="9.678666330805946"><ele>399.25</ele><time>2026-04-03T13:26:18Z</time></trkpt><trkpt lat="40.014284582729374" lon="9.678659730937246"><ele>400.5</ele><time>2026-04-03T13:26:19Z</time></trkpt><trkpt lat="40.01440437716176" lon="9.678583392024507"><ele>401.75</ele><time>2026-04-03T13:26:20Z</time></trkpt><trkpt lat="40.01451378293605" lon="9.678494924989643"><ele>403.0</ele><time>2026-04-03T13:26:21Z</time></trkpt><trkpt lat="40.01462488160585" lon="9.678431204579923"><ele>393.5</ele><time>2026-04-03T13:26:22Z</time></trkpt><trkpt lat="40.014749053860456" lon="9.678430599425536"><ele>384.0</ele><time>2026-04-03T13:26:23Z</time></trkpt><trkpt lat="40.01487389147917" lon="9.67846354216969"><ele>374.5</ele><time>2026-04-03T13:26:24Z</time></trkpt><trkpt lat="40.014996182943875" lon="9.678518024302386"><ele>365.0</ele><time>2026-04-03T13:26:25Z</time></trkpt><trkpt lat="40.0151134713692" lon="9.67859268308356"><ele>365.0</ele><time>2026-04-03T13:26:26Z</time></trkpt><trkpt lat="40.015234311244384" lon="9.678655939889323"><ele>365.0</ele><time>2026-04-03T13:26:27Z</time></trkpt><trkpt lat="40.01536308398567" lon="9.678671825030973"><ele>365.0</ele><time>2026-04-03T13:26:28Z</time></trkpt><trkpt lat="40.01549236683147" lon="9.6786397301825"><ele>365.0</ele><time>2026-04-03T13:26:29Z</time></trkpt><trkpt lat="40.01562313830021" lon="9.67859052354375"><ele>365.0</ele><time>2026-04-03T13:26:30Z</time></trkpt><trkpt lat="40.015757170674014" lon="9.678579129286543"><ele>365.0</ele><time>2026-04-03T13:26:31Z</time></trkpt><trkpt lat="40.01588652729647" lon="9.678668128220991"><ele>365.0</ele><time>2026-04-03T13:26:32Z</time></trkpt><trkpt lat="40.01602220762813" lon="9.678699552156795"><ele>365.0</ele><time>2026-04-03T13:26:33Z</time></trkpt><trkpt lat="40.016162086313955" lon="9.678699084196385"><ele>369.0</ele><time>2026-04-03T13:26:34Z</time></trkpt><trkpt lat="40.01630627310919" lon="9.678693795193663"><ele>373.0</ele><time>2026-04-03T13:26:35Z</time></trkpt><trkpt lat="40.01644748008128" lon="9.678677764301998"><ele>377.0</ele><time>2026-04-03T13:26:36Z</time></trkpt><trkpt lat="40.01658835762434" lon="9.678646473948024"><ele>381.0</ele><time>2026-04-03T13:26:37Z</time></trkpt><trkpt lat="40.0167204408185" lon="9.678569622546087"><ele>381.0</ele><time>2026-04-03T13:26:38Z</time></trkpt><trkpt lat="40.01682799749637" lon="9.678445271318115"><ele>381.0</ele><time>2026-04-03T13:26:39Z</time></trkpt><trkpt lat="40.01692690397107" lon="9.678313124911272"><ele>381.0</ele><time>2026-04-03T13:26:40Z</time></trkpt><trkpt lat="40.01702881288339" lon="9.67818640678007"><ele>381.0</ele><time>2026-04-03T13:26:41Z</time></trkpt><trkpt lat="40.01712558268044" lon="9.678095333956081"><ele>381.0</ele><time>2026-04-03T13:26:42Z</time></trkpt><trkpt lat="40.017226766676444" lon="9.678032638595042"><ele>381.0</ele><time>2026-04-03T13:26:43Z</time></trkpt><trkpt lat="40.01732923905188" lon="9.678020625914137"><ele>381.0</ele><time>2026-04-03T13:26:44Z</time></trkpt><trkpt lat="40.01742494165746" lon="9.678056783946023"><ele>381.0</ele><time>2026-04-03T13:26:45Z</time></trkpt><trkpt lat="40.01751122755458" lon="9.678132103287123"><ele>381.0</ele><time>2026-04-03T13:26:46Z</time></trkpt><trkpt lat="40.01759916062789" lon="9.678213825990122"><ele>385.75</ele><time>2026-04-03T13:26:47Z</time></trkpt><trkpt lat="40.01770613787986" lon="9.678272203007012"><ele>390.5</ele><time>2026-04-03T13:26:48Z</time></trkpt><trkpt lat="40.0178259461364" lon="9.678292301067593"><ele>395.25</ele><time>2026-04-03T13:26:49Z</time></trkpt><trkpt lat="40.01795296314556" lon="9.678262349064568"><ele>400.0</ele><time>2026-04-03T13:26:50Z</time></trkpt><trkpt lat="40.01806986211317" lon="9.678244888072234"><ele>400.0</ele><time>2026-04-03T13:26:51Z</time></trkpt><trkpt lat="40.018195458850414" lon="9.678226224365737"><ele>400.0</ele><time>2026-04-03T13:26:52Z</time></trkpt><trkpt lat="40.018326968184994" lon="9.678209888370322"><ele>400.0</ele><time>2026-04-03T13:26:53Z</time></trkpt><trkpt lat="40.0184596910763" lon="9.678209613828098"><ele>400.0</ele><time>2026-04-03T13:26:54Z</time></trkpt><trkpt lat="40.01858585143004" lon="9.678223132370654"><ele>400.75</ele><time>2026-04-03T13:26:55Z</time></trkpt><trkpt lat="40.01871374346272" lon="9.67825054270403"><ele>401.5</ele><time>2026-04-03T13:26:56Z</time></trkpt><trkpt lat="40.01884525875713" lon="9.678277205189376"><ele>402.25</ele><time>2026-04-03T13:26:57Z</time></trkpt><trkpt lat="40.01897786495805" lon="9.678281279410571"><ele>403.0</ele><time>2026-04-03T13:26:58Z</time></trkpt><trkpt lat="40.019109232207974" lon="9.67831109246712"><ele>404.0</ele><time>2026-04-03T13:26:59Z</time></trkpt><trkpt lat="40.01924906564127" lon="9.678347640148967"><ele>405.0</ele><time>2026-04-03T13:27:00Z</time></trkpt><trkpt lat="40.01939094209095" lon="9.678403717774065"><ele>406.0</ele><time>2026-04-03T13:27:01Z</time></trkpt><trkpt lat="40.01953029224036" lon="9.678456425934103"><ele>407.0</ele><time>2026-04-03T13:27:02Z</time></trkpt><trkpt lat="40.019651701807874" lon="9.67846460385357"><ele>407.0</ele><time>2026-04-03T13:27:03Z</time></trkpt><trkpt lat="40.0197566975084" lon="9.678396801653276"><ele>407.0</ele><time>2026-04-03T13:27:04Z</time></trkpt><trkpt lat="40.01982971885159" lon="9.678245223787396"><ele>407.0</ele><time>2026-04-03T13:27:05Z</time></trkpt><trkpt lat="40.01989481042804" lon="9.67805187612388"><ele>407.0</ele><time>2026-04-03T13:27:06Z</time></trkpt><trkpt lat="40.019989956682586" lon="9.677855565093688"><ele>403.66666666666663</ele><time>2026-04-03T13:27:07Z</time></trkpt><trkpt lat="40.02015456885596" lon="9.677735652828883"><ele>400.33333333333337</ele><time>2026-04-03T13:27:08Z</time></trkpt><trkpt lat="40.020267233179254" lon="9.677595097214255"><ele>397.0</ele><time>2026-04-03T13:27:09Z</time></trkpt><trkpt lat="40.02036480420518" lon="9.677435703557471"><ele>397.0</ele><time>2026-04-03T13:27:10Z</time></trkpt><trkpt lat="40.0204059852248" lon="9.67719505367745"><ele>397.0</ele><time>2026-04-03T13:27:11Z</time></trkpt><trkpt lat="40.02041514197729" lon="9.676958154918605"><ele>397.0</ele><time>2026-04-03T13:27:12Z</time></trkpt><trkpt lat="40.02040864174738" lon="9.676742863954118"><ele>392.0</ele><time>2026-04-03T13:27:13Z</time></trkpt><trkpt lat="40.02049267072615" lon="9.676557552177256"><ele>387.0</ele><time>2026-04-03T13:27:14Z</time></trkpt><trkpt lat="40.020556266064276" lon="9.67634440780218"><ele>382.0</ele><time>2026-04-03T13:27:15Z</time></trkpt><trkpt lat="40.020592388819665" lon="9.676116672424888"><ele>380.66666666666663</ele><time>2026-04-03T13:27:16Z</time></trkpt><trkpt lat="40.0206234757389" lon="9.67589277870154"><ele>379.3333333333333</ele><time>2026-04-03T13:27:17Z</time></trkpt><trkpt lat="40.020667242610436" lon="9.6756864692515"><ele>378.0</ele><time>2026-04-03T13:27:18Z</time></trkpt><trkpt lat="40.020707571273" lon="9.675482663703011"><ele>378.0</ele><time>2026-04-03T13:27:19Z</time></trkpt><trkpt lat="40.02074274500159" lon="9.675275682249497"><ele>378.0</ele><time>2026-04-03T13:27:20Z</time></trkpt><trkpt lat="40.020795401345616" lon="9.675070542642727"><ele>378.0</ele><time>2026-04-03T13:27:21Z</time></trkpt><trkpt lat="40.02087297547226" lon="9.674883853466147"><ele>386.0</ele><time>2026-04-03T13:27:22Z</time></trkpt><trkpt lat="40.02096337512172" lon="9.674702037042668"><ele>394.0</ele><time>2026-04-03T13:27:23Z</time></trkpt><trkpt lat="40.02107417541045" lon="9.674540857765667"><ele>402.0</ele><time>2026-04-03T13:27:24Z</time></trkpt><trkpt lat="40.02117986507505" lon="9.674372065363412"><ele>402.0</ele><time>2026-04-03T13:27:25Z</time></trkpt><trkpt lat="40.02128411858674" lon="9.674197627083272"><ele>402.0</ele><time>2026-04-03T13:27:26Z</time></trkpt><trkpt lat="40.02140458638409" lon="9.674042385504558"><ele>402.0</ele><time>2026-04-03T13:27:27Z</time></trkpt><trkpt lat="40.02153300766665" lon="9.673884660760244"><ele>403.66666666666663</ele><time>2026-04-03T13:27:28Z</time></trkpt><trkpt lat="40.021664011160574" lon="9.673727158353648"><ele>405.3333333333333</ele><time>2026-04-03T13:27:29Z</time></trkpt><trkpt lat="40.02179593504728" lon="9.6735732298921"><ele>407.0</ele><time>2026-04-03T13:27:30Z</time></trkpt><trkpt lat="40.021920238985025" lon="9.673418183512629"><ele>407.0</ele><time>2026-04-03T13:27:31Z</time></trkpt><trkpt lat="40.022017767938216" lon="9.67323538286002"><ele>407.0</ele><time>2026-04-03T13:27:32Z</time></trkpt><trkpt lat="40.022109664868" lon="9.673044266195799"><ele>407.0</ele><time>2026-04-03T13:27:33Z</time></trkpt><trkpt lat="40.02222062593252" lon="9.67287423603574"><ele>413.3333333333333</ele><time>2026-04-03T13:27:34Z</time></trkpt><trkpt lat="40.02236707071427" lon="9.672752926549851"><ele>419.66666666666663</ele><time>2026-04-03T13:27:35Z</time></trkpt><trkpt lat="40.02249902773766" lon="9.67260585865071"><ele>426.0</ele><time>2026-04-03T13:27:36Z</time></trkpt><trkpt lat="40.022637974499325" lon="9.672472896941152"><ele>426.0</ele><time>2026-04-03T13:27:37Z</time></trkpt><trkpt lat="40.02277019497945" lon="9.672330005482706"><ele>426.0</ele><time>2026-04-03T13:27:38Z</time></trkpt><trkpt lat="40.02288419670714" lon="9.672171913386748"><ele>426.0</ele><time>2026-04-03T13:27:39Z</time></trkpt><trkpt lat="40.02297712297164" lon="9.671986385073085"><ele>417.33333333333337</ele><time>2026-04-03T13:27:40Z</time></trkpt><trkpt lat="40.02305641006767" lon="9.671788737878515"><ele>408.6666666666667</ele><time>2026-04-03T13:27:41Z</time></trkpt><trkpt lat="40.02315279161553" lon="9.671606535744077"><ele>400.0</ele><time>2026-04-03T13:27:42Z</time></trkpt><trkpt lat="40.02328966273055" lon="9.671472610552394"><ele>404.33333333333337</ele><time>2026-04-03T13:27:43Z</time></trkpt><trkpt lat="40.02342014127748" lon="9.671330212766897"><ele>408.66666666666663</ele><time>2026-04-03T13:27:44Z</time></trkpt><trkpt lat="40.02353526667249" lon="9.671173092099396"><ele>413.0</ele><time>2026-04-03T13:27:45Z</time></trkpt><trkpt lat="40.02367438930811" lon="9.67106234317833"><ele>413.0</ele><time>2026-04-03T13:27:46Z</time></trkpt><trkpt lat="40.02380792361464" lon="9.670952782377894"><ele>413.0</ele><time>2026-04-03T13:27:47Z</time></trkpt><trkpt lat="40.02395355085668" lon="9.670868310248837"><ele>413.0</ele><time>2026-04-03T13:27:48Z</time></trkpt><trkpt lat="40.02411392778259" lon="9.670863023776626"><ele>420.66666666666663</ele><time>2026-04-03T13:27:49Z</time></trkpt><trkpt lat="40.02427624852124" lon="9.670841948177344"><ele>428.33333333333337</ele><time>2026-04-03T13:27:50Z</time></trkpt><trkpt lat="40.024440499837965" lon="9.670852060626414"><ele>436.0</ele><time>2026-04-03T13:27:51Z</time></trkpt><trkpt lat="40.0246010901963" lon="9.670825545851766"><ele>436.0</ele><time>2026-04-03T13:27:52Z</time></trkpt><trkpt lat="40.02474397553697" lon="9.67073931410149"><ele>436.0</ele><time>2026-04-03T13:27:53Z</time></trkpt><trkpt lat="40.02486520959467" lon="9.67058867759791"><ele>436.0</ele><time>2026-04-03T13:27:54Z</time></trkpt><trkpt lat="40.02495678717393" lon="9.67040174737059"><ele>437.0</ele><time>2026-04-03T13:27:55Z</time></trkpt><trkpt lat="40.025024504852254" lon="9.67019514986339"><ele>438.0</ele><time>2026-04-03T13:27:56Z</time></trkpt><trkpt lat="40.02511453370971" lon="9.670010013475176"><ele>439.0</ele><time>2026-04-03T13:27:57Z</time></trkpt><trkpt lat="40.02521587299914" lon="9.669842436408924"><ele>439.0</ele><time>2026-04-03T13:27:58Z</time></trkpt><trkpt lat="40.02534912684478" lon="9.669726046469444"><ele>439.0</ele><time>2026-04-03T13:27:59Z</time></trkpt><trkpt lat="40.02547904271003" lon="9.669604156266503"><ele>439.0</ele><time>2026-04-03T13:28:00Z</time></trkpt><trkpt lat="40.02561932883455" lon="9.669537570244996"><ele>439.0</ele><time>2026-04-03T13:28:01Z</time></trkpt><trkpt lat="40.025745496883886" lon="9.669502618885971"><ele>439.0</ele><time>2026-04-03T13:28:02Z</time></trkpt><trkpt lat="40.0258706538927" lon="9.66946754147565"><ele>439.0</ele><time>2026-04-03T13:28:03Z</time></trkpt><trkpt lat="40.02598189010318" lon="9.669371402733208"><ele>439.0</ele><time>2026-04-03T13:28:04Z</time></trkpt><trkpt lat="40.02608360043957" lon="9.669243453189415"><ele>437.75</ele><time>2026-04-03T13:28:05Z</time></trkpt><trkpt lat="40.026168937516374" lon="9.669092466284695"><ele>436.5</ele><time>2026-04-03T13:28:06Z</time></trkpt><trkpt lat="40.026235328072346" lon="9.668919645610949"><ele>435.25</ele><time>2026-04-03T13:28:07Z</time></trkpt><trkpt lat="40.02631155596392" lon="9.668755843862153"><ele>434.0</ele><time>2026-04-03T13:28:08Z</time></trkpt><trkpt lat="40.02639047733499" lon="9.668593948439746"><ele>434.0</ele><time>2026-04-03T13:28:09Z</time></trkpt><trkpt lat="40.02647447835733" lon="9.668439733691104"><ele>434.0</ele><time>2026-04-03T13:28:10Z</time></trkpt><trkpt lat="40.026569164759664" lon="9.668292345943252"><ele>434.0</ele><time>2026-04-03T13:28:11Z</time></trkpt><trkpt lat="40.026685526645444" lon="9.668173438256217"><ele>434.0</ele><time>2026-04-03T13:28:12Z</time></trkpt><trkpt lat="40.026788737314924" lon="9.668040343687206"><ele>435.5</ele><time>2026-04-03T13:28:13Z</time></trkpt><trkpt lat="40.02688483042732" lon="9.667900290598537"><ele>437.0</ele><time>2026-04-03T13:28:14Z</time></trkpt><trkpt lat="40.0269766362508" lon="9.667756983893685"><ele>438.5</ele><time>2026-04-03T13:28:15Z</time></trkpt><trkpt lat="40.027076428079155" lon="9.667624578737799"><ele>440.0</ele><time>2026-04-03T13:28:16Z</time></trkpt><trkpt lat="40.02718017033282" lon="9.667497213094883"><ele>440.0</ele><time>2026-04-03T13:28:17Z</time></trkpt><trkpt lat="40.027285876844566" lon="9.667375057229075"><ele>440.0</ele><time>2026-04-03T13:28:18Z</time></trkpt><trkpt lat="40.02739201991832" lon="9.667260779508323"><ele>440.0</ele><time>2026-04-03T13:28:19Z</time></trkpt><trkpt lat="40.027472215481126" lon="9.667151819507868"><ele>440.0</ele><time>2026-04-03T13:28:20Z</time></trkpt><trkpt lat="40.02754536440179" lon="9.66705029543213"><ele>440.8</ele><time>2026-04-03T13:28:21Z</time></trkpt><trkpt lat="40.027614151515664" lon="9.666973936139822"><ele>441.6</ele><time>2026-04-03T13:28:22Z</time></trkpt><trkpt lat="40.02769692197888" lon="9.666924968944146"><ele>442.4</ele><time>2026-04-03T13:28:23Z</time></trkpt><trkpt lat="40.02779056015159" lon="9.666900522677034"><ele>443.2</ele><time>2026-04-03T13:28:24Z</time></trkpt><trkpt lat="40.02788204054624" lon="9.66688193761908"><ele>444.0</ele><time>2026-04-03T13:28:25Z</time></trkpt><trkpt lat="40.02797420485979" lon="9.66686775579824"><ele>444.0</ele><time>2026-04-03T13:28:26Z</time></trkpt><trkpt lat="40.02806280534522" lon="9.666846236336916"><ele>444.0</ele><time>2026-04-03T13:28:27Z</time></trkpt><trkpt lat="40.0281571501187" lon="9.666824744467542"><ele>444.0</ele><time>2026-04-03T13:28:28Z</time></trkpt><trkpt lat="40.02825126304529" lon="9.666803943620577"><ele>444.0</ele><time>2026-04-03T13:28:29Z</time></trkpt><trkpt lat="40.0283446428759" lon="9.666762638208505"><ele>444.0</ele><time>2026-04-03T13:28:30Z</time></trkpt><trkpt lat="40.02843710688273" lon="9.666730929683492"><ele>448.79999999999995</ele><time>2026-04-03T13:28:31Z</time></trkpt><trkpt lat="40.02852408267494" lon="9.666699556153349"><ele>453.59999999999997</ele><time>2026-04-03T13:28:32Z</time></trkpt><trkpt lat="40.028600644348806" lon="9.666664939664543"><ele>458.4</ele><time>2026-04-03T13:28:33Z</time></trkpt><trkpt lat="40.02866535136694" lon="9.666579038763661"><ele>463.2</ele><time>2026-04-03T13:28:34Z</time></trkpt><trkpt lat="40.028732145035136" lon="9.666476014515316"><ele>468.0</ele><time>2026-04-03T13:28:35Z</time></trkpt><trkpt lat="40.028802641066065" lon="9.66638000655139"><ele>468.0</ele><time>2026-04-03T13:28:36Z</time></trkpt><trkpt lat="40.02886932714879" lon="9.666283325731769"><ele>467.99999999999994</ele><time>2026-04-03T13:28:37Z</time></trkpt><trkpt lat="40.02895114776247" lon="9.666210387766082"><ele>467.99999999999994</ele><time>2026-04-03T13:28:38Z</time></trkpt><trkpt lat="40.0290362057043" lon="9.666143907516581"><ele>468.0</ele><time>2026-04-03T13:28:39Z</time></trkpt><trkpt lat="40.02913299975634" lon="9.66608283557531"><ele>468.0</ele><time>2026-04-03T13:28:40Z</time></trkpt><trkpt lat="40.02922865910944" lon="9.666017444351038"><ele>469.25</ele><time>2026-04-03T13:28:41Z</time></trkpt><trkpt lat="40.0293269803848" lon="9.665941516999132"><ele>470.5</ele><time>2026-04-03T13:28:42Z</time></trkpt><trkpt lat="40.02940480383553" lon="9.665830275795775"><ele>471.75</ele><time>2026-04-03T13:28:43Z</time></trkpt><trkpt lat="40.029480899181486" lon="9.665719926478234"><ele>473.0</ele><time>2026-04-03T13:28:44Z</time></trkpt><trkpt lat="40.02954753274953" lon="9.665598561817692"><ele>473.0</ele><time>2026-04-03T13:28:45Z</time></trkpt><trkpt lat="40.02961976539245" lon="9.665474967021558"><ele>472.99999999999994</ele><time>2026-04-03T13:28:46Z</time></trkpt><trkpt lat="40.02968135626601" lon="9.665354053023616"><ele>472.99999999999994</ele><time>2026-04-03T13:28:47Z</time></trkpt><trkpt lat="40.029747897798906" lon="9.66525184940385"><ele>473.0</ele><time>2026-04-03T13:28:48Z</time></trkpt><trkpt lat="40.02981259949211" lon="9.665137578283437"><ele>473.0</ele><time>2026-04-03T13:28:49Z</time></trkpt><trkpt lat="40.02986453391206" lon="9.665006831844902"><ele>474.79999999999995</ele><time>2026-04-03T13:28:50Z</time></trkpt><trkpt lat="40.0299270973559" lon="9.66491271365839"><ele>476.59999999999997</ele><time>2026-04-03T13:28:51Z</time></trkpt><trkpt lat="40.029986178924474" lon="9.664852772570036"><ele>478.40000000000003</ele><time>2026-04-03T13:28:52Z</time></trkpt><trkpt lat="40.03006941463659" lon="9.664788073389422"><ele>480.20000000000005</ele><time>2026-04-03T13:28:53Z</time></trkpt><trkpt lat="40.03015733708791" lon="9.664705749248961"><ele>482.0</ele><time>2026-04-03T13:28:54Z</time></trkpt><trkpt lat="40.03024995845745" lon="9.66462843688098"><ele>482.0</ele><time>2026-04-03T13:28:55Z</time></trkpt><trkpt lat="40.03034585523598" lon="9.664549117591505"><ele>482.0</ele><time>2026-04-03T13:28:56Z</time></trkpt><trkpt lat="40.03044822564553" lon="9.664484049441663"><ele>482.0</ele><time>2026-04-03T13:28:57Z</time></trkpt><trkpt lat="40.030554883217185" lon="9.664432831910666"><ele>482.0</ele><time>2026-04-03T13:28:58Z</time></trkpt><trkpt lat="40.03065782238331" lon="9.664381392901705"><ele>481.8</ele><time>2026-04-03T13:28:59Z</time></trkpt><trkpt lat="40.03075982464453" lon="9.664317653494189"><ele>481.6</ele><time>2026-04-03T13:29:00Z</time></trkpt><trkpt lat="40.03087048031991" lon="9.664282223284278"><ele>481.40000000000003</ele><time>2026-04-03T13:29:01Z</time></trkpt><trkpt lat="40.030966349848285" lon="9.664241752899493"><ele>481.20000000000005</ele><time>2026-04-03T13:29:02Z</time></trkpt><trkpt lat="40.03105473706179" lon="9.664191098138907"><ele>481.0</ele><time>2026-04-03T13:29:03Z</time></trkpt><trkpt lat="40.03114081105912" lon="9.664113656955633"><ele>481.0</ele><time>2026-04-03T13:29:04Z</time></trkpt><trkpt lat="40.031214515031586" lon="9.664008579222132"><ele>481.0</ele><time>2026-04-03T13:29:05Z</time></trkpt><trkpt lat="40.03127278720145" lon="9.663890390472329"><ele>481.0</ele><time>2026-04-03T13:29:06Z</time></trkpt><trkpt lat="40.03132806620763" lon="9.663762477975602"><ele>481.0</ele><time>2026-04-03T13:29:07Z</time></trkpt><trkpt lat="40.03140909177112" lon="9.663650853199396"><ele>481.0</ele><time>2026-04-03T13:29:08Z</time></trkpt><trkpt lat="40.0314824455341" lon="9.663537577110542"><ele>481.20000000000005</ele><time>2026-04-03T13:29:09Z</time></trkpt><trkpt lat="40.03155143108516" lon="9.6634183086151"><ele>481.40000000000003</ele><time>2026-04-03T13:29:10Z</time></trkpt><trkpt lat="40.03164462502911" lon="9.663328181947248"><ele>481.6</ele><time>2026-04-03T13:29:11Z</time></trkpt><trkpt lat="40.03173550877729" lon="9.663260886753863"><ele>481.8</ele><time>2026-04-03T13:29:12Z</time></trkpt><trkpt lat="40.03182530244568" lon="9.66321006286963"><ele>482.0</ele><time>2026-04-03T13:29:13Z</time></trkpt><trkpt lat="40.031897148626236" lon="9.663146112273433"><ele>481.99999999999994</ele><time>2026-04-03T13:29:14Z</time></trkpt><trkpt lat="40.031965287892" lon="9.663079317671976"><ele>482.0</ele><time>2026-04-03T13:29:15Z</time></trkpt><trkpt lat="40.03203313808909" lon="9.66301955026442"><ele>482.0</ele><time>2026-04-03T13:29:16Z</time></trkpt><trkpt lat="40.03209276429899" lon="9.662954412466698"><ele>482.0</ele><time>2026-04-03T13:29:17Z</time></trkpt><trkpt lat="40.03215487646045" lon="9.662883352476427"><ele>481.99999999999994</ele><time>2026-04-03T13:29:18Z</time></trkpt><trkpt lat="40.03221819254558" lon="9.662801487154548"><ele>482.0</ele><time>2026-04-03T13:29:19Z</time></trkpt><trkpt lat="40.03227387707847" lon="9.662721554266165"><ele>482.49999999999994</ele><time>2026-04-03T13:29:20Z</time></trkpt><trkpt lat="40.03233098109807" lon="9.662648641129755"><ele>483.0</ele><time>2026-04-03T13:29:21Z</time></trkpt><trkpt lat="40.03238437776691" lon="9.662582181747558"><ele>483.5</ele><time>2026-04-03T13:29:22Z</time></trkpt><trkpt lat="40.03243536680036" lon="9.662519768545783"><ele>484.0</ele><time>2026-04-03T13:29:23Z</time></trkpt><trkpt lat="40.03249341464797" lon="9.66245221632714"><ele>484.49999999999994</ele><time>2026-04-03T13:29:24Z</time></trkpt><trkpt lat="40.03255779208364" lon="9.662380047898399"><ele>485.0</ele><time>2026-04-03T13:29:25Z</time></trkpt><trkpt lat="40.03261118293336" lon="9.66229840191615"><ele>485.0</ele><time>2026-04-03T13:29:26Z</time></trkpt><trkpt lat="40.03267184333986" lon="9.662201824421976"><ele>485.0</ele><time>2026-04-03T13:29:27Z</time></trkpt><trkpt lat="40.03273918713306" lon="9.662097608175902"><ele>485.0</ele><time>2026-04-03T13:29:28Z</time></trkpt><trkpt lat="40.03280305957433" lon="9.661991054805362"><ele>485.0</ele><time>2026-04-03T13:29:29Z</time></trkpt><trkpt lat="40.032869220468314" lon="9.66187826949302"><ele>485.0</ele><time>2026-04-03T13:29:30Z</time></trkpt><trkpt lat="40.032940628252824" lon="9.661755875098965"><ele>485.75</ele><time>2026-04-03T13:29:31Z</time></trkpt><trkpt lat="40.03302291973726" lon="9.661660056121395"><ele>486.5</ele><time>2026-04-03T13:29:32Z</time></trkpt><trkpt lat="40.03312834573925" lon="9.661583470619153"><ele>487.25</ele><time>2026-04-03T13:29:33Z</time></trkpt><trkpt lat="40.03323297164877" lon="9.661507645734552"><ele>488.0</ele><time>2026-04-03T13:29:34Z</time></trkpt><trkpt lat="40.03333877380717" lon="9.661429818047436"><ele>488.0</ele><time>2026-04-03T13:29:35Z</time></trkpt><trkpt lat="40.03344740688945" lon="9.661352883846845"><ele>488.0</ele><time>2026-04-03T13:29:36Z</time></trkpt><trkpt lat="40.0335535462064" lon="9.661260911075322"><ele>488.0</ele><time>2026-04-03T13:29:37Z</time></trkpt><trkpt lat="40.03366679612935" lon="9.661169126874585"><ele>488.0</ele><time>2026-04-03T13:29:38Z</time></trkpt><trkpt lat="40.03378238901356" lon="9.661079803518174"><ele>486.5</ele><time>2026-04-03T13:29:39Z</time></trkpt><trkpt lat="40.03390066603828" lon="9.660996854089236"><ele>485.0</ele><time>2026-04-03T13:29:40Z</time></trkpt><trkpt lat="40.03402681451089" lon="9.660928843747639"><ele>483.5</ele><time>2026-04-03T13:29:41Z</time></trkpt><trkpt lat="40.034160677555974" lon="9.660893768630986"><ele>482.0</ele><time>2026-04-03T13:29:42Z</time></trkpt><trkpt lat="40.03430453169052" lon="9.660873064096991"><ele>482.0</ele><time>2026-04-03T13:29:43Z</time></trkpt><trkpt lat="40.03443997477837" lon="9.660822022402353"><ele>482.0</ele><time>2026-04-03T13:29:44Z</time></trkpt><trkpt lat="40.03457472383296" lon="9.660751149206943"><ele>482.0</ele><time>2026-04-03T13:29:45Z</time></trkpt><trkpt lat="40.03468517347802" lon="9.660644378175313"><ele>482.0</ele><time>2026-04-03T13:29:46Z</time></trkpt><trkpt lat="40.03477714206909" lon="9.660499738603903"><ele>482.0</ele><time>2026-04-03T13:29:47Z</time></trkpt><trkpt lat="40.03489659373236" lon="9.660385677559075"><ele>482.0</ele><time>2026-04-03T13:29:48Z</time></trkpt><trkpt lat="40.03501060168544" lon="9.660246364335883"><ele>482.0</ele><time>2026-04-03T13:29:49Z</time></trkpt><trkpt lat="40.035126322323194" lon="9.660132183076758"><ele>482.0</ele><time>2026-04-03T13:29:50Z</time></trkpt><trkpt lat="40.03523579716614" lon="9.660005278848175"><ele>481.75</ele><time>2026-04-03T13:29:51Z</time></trkpt><trkpt lat="40.03534206806908" lon="9.659881681720222"><ele>481.5</ele><time>2026-04-03T13:29:52Z</time></trkpt><trkpt lat="40.03544342083017" lon="9.659752469295418"><ele>481.25</ele><time>2026-04-03T13:29:53Z</time></trkpt><trkpt lat="40.03552090788089" lon="9.659598176038362"><ele>481.0</ele><time>2026-04-03T13:29:54Z</time></trkpt><trkpt lat="40.03558645821595" lon="9.65943482206713"><ele>476.5</ele><time>2026-04-03T13:29:55Z</time></trkpt><trkpt lat="40.03564784028636" lon="9.659273771737086"><ele>472.0</ele><time>2026-04-03T13:29:56Z</time></trkpt><trkpt lat="40.03570475654524" lon="9.659107006977878"><ele>467.5</ele><time>2026-04-03T13:29:57Z</time></trkpt><trkpt lat="40.035755949052955" lon="9.658944372032115"><ele>463.0</ele><time>2026-04-03T13:29:58Z</time></trkpt><trkpt lat="40.035806953146306" lon="9.658791068155745"><ele>467.2</ele><time>2026-04-03T13:29:59Z</time></trkpt><trkpt lat="40.035858642503584" lon="9.658648671419858"><ele>471.4</ele><time>2026-04-03T13:30:00Z</time></trkpt><trkpt lat="40.03591832402317" lon="9.658537551336417"><ele>475.59999999999997</ele><time>2026-04-03T13:30:01Z</time></trkpt><trkpt lat="40.036000190229274" lon="9.658452750165836"><ele>479.79999999999995</ele><time>2026-04-03T13:30:02Z</time></trkpt><trkpt lat="40.03609991009119" lon="9.658395566702973"><ele>484.0</ele><time>2026-04-03T13:30:03Z</time></trkpt><trkpt lat="40.03619531460908" lon="9.658327128994744"><ele>484.0</ele><time>2026-04-03T13:30:04Z</time></trkpt><trkpt lat="40.03629462459542" lon="9.658258618080099"><ele>484.0</ele><time>2026-04-03T13:30:05Z</time></trkpt><trkpt lat="40.03640264349956" lon="9.658197924872827"><ele>484.0</ele><time>2026-04-03T13:30:06Z</time></trkpt><trkpt lat="40.03651076540347" lon="9.658153508817033"><ele>484.0</ele><time>2026-04-03T13:30:07Z</time></trkpt><trkpt lat="40.03662600432009" lon="9.658136959648992"><ele>487.0</ele><time>2026-04-03T13:30:08Z</time></trkpt><trkpt lat="40.036751391174846" lon="9.658148869412882"><ele>490.0</ele><time>2026-04-03T13:30:09Z</time></trkpt><trkpt lat="40.03687400863516" lon="9.658184598990168"><ele>493.0</ele><time>2026-04-03T13:30:10Z</time></trkpt><trkpt lat="40.036991277710236" lon="9.65822464723474"><ele>496.0</ele><time>2026-04-03T13:30:11Z</time></trkpt><trkpt lat="40.03711576732442" lon="9.658244522259416"><ele>496.0</ele><time>2026-04-03T13:30:12Z</time></trkpt><trkpt lat="40.03724025966432" lon="9.658224106861725"><ele>496.0</ele><time>2026-04-03T13:30:13Z</time></trkpt><trkpt lat="40.037345358038586" lon="9.658170365356716"><ele>496.0</ele><time>2026-04-03T13:30:14Z</time></trkpt><trkpt lat="40.037511836491156" lon="9.65814496377863"><ele>496.0</ele><time>2026-04-03T13:30:15Z</time></trkpt><trkpt lat="40.03765978757096" lon="9.658154900499966"><ele>496.5</ele><time>2026-04-03T13:30:16Z</time></trkpt><trkpt lat="40.03780442290364" lon="9.658164695930314"><ele>497.0</ele><time>2026-04-03T13:30:17Z</time></trkpt><trkpt lat="40.037947982827866" lon="9.658159313742944"><ele>497.5</ele><time>2026-04-03T13:30:18Z</time></trkpt><trkpt lat="40.03810046838531" lon="9.658121332413875"><ele>498.0</ele><time>2026-04-03T13:30:19Z</time></trkpt><trkpt lat="40.03825232486413" lon="9.658105983704539"><ele>502.66666666666663</ele><time>2026-04-03T13:30:20Z</time></trkpt><trkpt lat="40.03840544208774" lon="9.658088164070113"><ele>507.3333333333333</ele><time>2026-04-03T13:30:21Z</time></trkpt><trkpt lat="40.03854990328587" lon="9.658082545438845"><ele>512.0</ele><time>2026-04-03T13:30:22Z</time></trkpt><trkpt lat="40.03870846928162" lon="9.658064074553637"><ele>512.0</ele><time>2026-04-03T13:30:23Z</time></trkpt><trkpt lat="40.03886772964746" lon="9.6580302550309"><ele>512.0</ele><time>2026-04-03T13:30:24Z</time></trkpt><trkpt lat="40.03902864471477" lon="9.6579684293164"><ele>512.0</ele><time>2026-04-03T13:30:25Z</time></trkpt><trkpt lat="40.03918914313623" lon="9.65790269497005"><ele>515.3333333333333</ele><time>2026-04-03T13:30:26Z</time></trkpt><trkpt lat="40.03935143824738" lon="9.657841566842727"><ele>518.6666666666666</ele><time>2026-04-03T13:30:27Z</time></trkpt><trkpt lat="40.0395154068761" lon="9.657772928719165"><ele>522.0</ele><time>2026-04-03T13:30:28Z</time></trkpt><trkpt lat="40.03968680549314" lon="9.657705645501862"><ele>514.0</ele><time>2026-04-03T13:30:29Z</time></trkpt><trkpt lat="40.03986150105238" lon="9.657638598472984"><ele>506.0</ele><time>2026-04-03T13:30:30Z</time></trkpt><trkpt lat="40.04003099984411" lon="9.657569338095477"><ele>498.0</ele><time>2026-04-03T13:30:31Z</time></trkpt><trkpt lat="40.040202045321834" lon="9.657487387811635"><ele>498.0</ele><time>2026-04-03T13:30:32Z</time></trkpt><trkpt lat="40.04036313753169" lon="9.65737957548716"><ele>498.0</ele><time>2026-04-03T13:30:33Z</time></trkpt><trkpt lat="40.04051985818727" lon="9.657250185137373"><ele>498.0</ele><time>2026-04-03T13:30:34Z</time></trkpt><trkpt lat="40.04068292446046" lon="9.657128374186252"><ele>495.0</ele><time>2026-04-03T13:30:35Z</time></trkpt><trkpt lat="40.04084391230533" lon="9.65699648851194"><ele>492.0</ele><time>2026-04-03T13:30:36Z</time></trkpt><trkpt lat="40.04100523924574" lon="9.656876242948778"><ele>489.0</ele><time>2026-04-03T13:30:37Z</time></trkpt><trkpt lat="40.0411615253339" lon="9.656756322754015"><ele>489.0</ele><time>2026-04-03T13:30:38Z</time></trkpt><trkpt lat="40.041317986933414" lon="9.656640556451999"><ele>489.0</ele><time>2026-04-03T13:30:39Z</time></trkpt><trkpt lat="40.041470993903125" lon="9.656529580713752"><ele>489.0</ele><time>2026-04-03T13:30:40Z</time></trkpt><trkpt lat="40.041615125222435" lon="9.656429816472587"><ele>493.66666666666663</ele><time>2026-04-03T13:30:41Z</time></trkpt><trkpt lat="40.041758873335816" lon="9.656365218343044"><ele>498.3333333333333</ele><time>2026-04-03T13:30:42Z</time></trkpt><trkpt lat="40.04191527556517" lon="9.656325388376793"><ele>503.0</ele><time>2026-04-03T13:30:43Z</time></trkpt><trkpt lat="40.04207120828715" lon="9.656268286893459"><ele>503.0</ele><time>2026-04-03T13:30:44Z</time></trkpt><trkpt lat="40.042214198568644" lon="9.656146309583605"><ele>503.0</ele><time>2026-04-03T13:30:45Z</time></trkpt><trkpt lat="40.04235948908223" lon="9.656008026148184"><ele>503.0</ele><time>2026-04-03T13:30:46Z</time></trkpt><trkpt lat="40.04247824095033" lon="9.655836744057632"><ele>502.3333333333333</ele><time>2026-04-03T13:30:47Z</time></trkpt><trkpt lat="40.04257645726979" lon="9.65563753176317"><ele>501.66666666666663</ele><time>2026-04-03T13:30:48Z</time></trkpt><trkpt lat="40.04267597258337" lon="9.655490666796737"><ele>501.0</ele><time>2026-04-03T13:30:49Z</time></trkpt><trkpt lat="40.04282453791412" lon="9.655378433424602"><ele>500.0</ele><time>2026-04-03T13:30:50Z</time></trkpt><trkpt lat="40.04298389455924" lon="9.65526259488519"><ele>499.0</ele><time>2026-04-03T13:30:51Z</time></trkpt><trkpt lat="40.04315511822956" lon="9.655160556116737"><ele>498.0</ele><time>2026-04-03T13:30:52Z</time></trkpt><trkpt lat="40.043327530365445" lon="9.65504483969083"><ele>498.0</ele><time>2026-04-03T13:30:53Z</time></trkpt><trkpt lat="40.04350075556345" lon="9.654921098133729"><ele>498.0</ele><time>2026-04-03T13:30:54Z</time></trkpt><trkpt lat="40.04367025542195" lon="9.654793610549321"><ele>498.0</ele><time>2026-04-03T13:30:55Z</time></trkpt><trkpt lat="40.04383583861582" lon="9.65466294760454"><ele>498.0</ele><time>2026-04-03T13:30:56Z</time></trkpt><trkpt lat="40.044000470876306" lon="9.654536529966618"><ele>498.0</ele><time>2026-04-03T13:30:57Z</time></trkpt><trkpt lat="40.04416071824614" lon="9.654399382537791"><ele>498.0</ele><time>2026-04-03T13:30:58Z</time></trkpt><trkpt lat="40.04430862236952" lon="9.65423919226944"><ele>499.33333333333337</ele><time>2026-04-03T13:30:59Z</time></trkpt><trkpt lat="40.04443693591891" lon="9.654053094831164"><ele>500.6666666666667</ele><time>2026-04-03T13:31:00Z</time></trkpt><trkpt lat="40.04455357080542" lon="9.653852440920966"><ele>502.0</ele><time>2026-04-03T13:31:01Z</time></trkpt><trkpt lat="40.044660998667354" lon="9.653637450930344"><ele>508.33333333333337</ele><time>2026-04-03T13:31:02Z</time></trkpt><trkpt lat="40.04476653390264" lon="9.653423928984811"><ele>514.6666666666666</ele><time>2026-04-03T13:31:03Z</time></trkpt><trkpt lat="40.04487287617418" lon="9.653203592490193"><ele>521.0</ele><time>2026-04-03T13:31:04Z</time></trkpt><trkpt lat="40.044978830097605" lon="9.652983514243198"><ele>511.0</ele><time>2026-04-03T13:31:05Z</time></trkpt><trkpt lat="40.04508872860854" lon="9.652763110198553"><ele>501.0</ele><time>2026-04-03T13:31:06Z</time></trkpt><trkpt lat="40.0451939871298" lon="9.652538875687585"><ele>491.0</ele><time>2026-04-03T13:31:07Z</time></trkpt><trkpt lat="40.04529212377302" lon="9.652313372549912"><ele>491.0</ele><time>2026-04-03T13:31:08Z</time></trkpt><trkpt lat="40.04538219102482" lon="9.652083045664268"><ele>491.0</ele><time>2026-04-03T13:31:09Z</time></trkpt><trkpt lat="40.04546902738792" lon="9.651852072836709"><ele>491.0</ele><time>2026-04-03T13:31:10Z</time></trkpt><trkpt lat="40.04556657931909" lon="9.651625219578886"><ele>492.0</ele><time>2026-04-03T13:31:11Z</time></trkpt><trkpt lat="40.04568654832705" lon="9.65141655258073"><ele>493.0</ele><time>2026-04-03T13:31:12Z</time></trkpt><trkpt lat="40.045816035894816" lon="9.65121909345451"><ele>494.0</ele><time>2026-04-03T13:31:13Z</time></trkpt><trkpt lat="40.0459502472879" lon="9.651022848952874"><ele>494.0</ele><time>2026-04-03T13:31:14Z</time></trkpt><trkpt lat="40.0460858478249" lon="9.650827179166388"><ele>494.0</ele><time>2026-04-03T13:31:15Z</time></trkpt><trkpt lat="40.04622293232522" lon="9.650629772637846"><ele>494.0</ele><time>2026-04-03T13:31:16Z</time></trkpt><trkpt lat="40.0463607631176" lon="9.65043167535676"><ele>487.3333333333333</ele><time>2026-04-03T13:31:17Z</time></trkpt><trkpt lat="40.04649812291722" lon="9.65023407832728"><ele>480.66666666666663</ele><time>2026-04-03T13:31:18Z</time></trkpt><trkpt lat="40.04663644001608" lon="9.650032921588698"><ele>474.0</ele><time>2026-04-03T13:31:19Z</time></trkpt><trkpt lat="40.04677145354714" lon="9.6498312522874"><ele>478.0</ele><time>2026-04-03T13:31:20Z</time></trkpt><trkpt lat="40.04690609585265" lon="9.649642179001761"><ele>482.0</ele><time>2026-04-03T13:31:21Z</time></trkpt><trkpt lat="40.04702974329928" lon="9.649469280042752"><ele>486.0</ele><time>2026-04-03T13:31:22Z</time></trkpt><trkpt lat="40.04715772615752" lon="9.649317007119489"><ele>486.0</ele><time>2026-04-03T13:31:23Z</time></trkpt><trkpt lat="40.0473014041946" lon="9.649194034219754"><ele>486.0</ele><time>2026-04-03T13:31:24Z</time></trkpt><trkpt lat="40.04745669874671" lon="9.649106316928824"><ele>486.0</ele><time>2026-04-03T13:31:25Z</time></trkpt><trkpt lat="40.04760663615429" lon="9.649021372179535"><ele>488.33333333333337</ele><time>2026-04-03T13:31:26Z</time></trkpt><trkpt lat="40.0477242907675" lon="9.648877803057148"><ele>490.6666666666667</ele><time>2026-04-03T13:31:27Z</time></trkpt><trkpt lat="40.04780960933637" lon="9.648680387087175"><ele>493.0</ele><time>2026-04-03T13:31:28Z</time></trkpt><trkpt lat="40.04787139566904" lon="9.64846674000129"><ele>493.0</ele><time>2026-04-03T13:31:29Z</time></trkpt><trkpt lat="40.04792046928684" lon="9.648235277753395"><ele>493.0</ele><time>2026-04-03T13:31:30Z</time></trkpt><trkpt lat="40.047962650948186" lon="9.647993091631989"><ele>493.0</ele><time>2026-04-03T13:31:31Z</time></trkpt><trkpt lat="40.04800802146864" lon="9.64775102687226"><ele>487.0</ele><time>2026-04-03T13:31:32Z</time></trkpt><trkpt lat="40.04806713883832" lon="9.647526719544956"><ele>481.0</ele><time>2026-04-03T13:31:33Z</time></trkpt><trkpt lat="40.04815302268985" lon="9.647317545254037"><ele>475.0</ele><time>2026-04-03T13:31:34Z</time></trkpt><trkpt lat="40.04826616153771" lon="9.647131144247519"><ele>489.0</ele><time>2026-04-03T13:31:35Z</time></trkpt><trkpt lat="40.04837672322454" lon="9.646937498623883"><ele>503.0</ele><time>2026-04-03T13:31:36Z</time></trkpt><trkpt lat="40.04847553096011" lon="9.646729274944569"><ele>517.0</ele><time>2026-04-03T13:31:37Z</time></trkpt><trkpt lat="40.04857128944596" lon="9.646517335329303"><ele>517.0</ele><time>2026-04-03T13:31:38Z</time></trkpt><trkpt lat="40.048676029026325" lon="9.646309272140392"><ele>517.0</ele><time>2026-04-03T13:31:39Z</time></trkpt><trkpt lat="40.0487895268031" lon="9.646101534334703"><ele>517.0</ele><time>2026-04-03T13:31:40Z</time></trkpt><trkpt lat="40.04890651766923" lon="9.645901059454777"><ele>516.3333333333334</ele><time>2026-04-03T13:31:41Z</time></trkpt><trkpt lat="40.04902282661959" lon="9.645697124207436"><ele>515.6666666666666</ele><time>2026-04-03T13:31:42Z</time></trkpt><trkpt lat="40.04913968147065" lon="9.64549226676397"><ele>515.0</ele><time>2026-04-03T13:31:43Z</time></trkpt><trkpt lat="40.04925884453641" lon="9.64528914110492"><ele>515.0</ele><time>2026-04-03T13:31:44Z</time></trkpt><trkpt lat="40.04937938210471" lon="9.645088692560439"><ele>515.0</ele><time>2026-04-03T13:31:45Z</time></trkpt><trkpt lat="40.04949843285629" lon="9.644881745167485"><ele>515.0</ele><time>2026-04-03T13:31:46Z</time></trkpt><trkpt lat="40.04961965147567" lon="9.644674758973268"><ele>515.0</ele><time>2026-04-03T13:31:47Z</time></trkpt><trkpt lat="40.04973486378271" lon="9.644464590592918"><ele>515.0</ele><time>2026-04-03T13:31:48Z</time></trkpt><trkpt lat="40.04984632903411" lon="9.64424996331493"><ele>515.0</ele><time>2026-04-03T13:31:49Z</time></trkpt><trkpt lat="40.04996887230341" lon="9.644044232471433"><ele>517.6666666666666</ele><time>2026-04-03T13:31:50Z</time></trkpt><trkpt lat="40.050102528141245" lon="9.643854221105425"><ele>520.3333333333334</ele><time>2026-04-03T13:31:51Z</time></trkpt><trkpt lat="40.05022015231456" lon="9.64365058169562"><ele>523.0</ele><time>2026-04-03T13:31:52Z</time></trkpt><trkpt lat="40.050301453978356" lon="9.64341628283961"><ele>523.0</ele><time>2026-04-03T13:31:53Z</time></trkpt><trkpt lat="40.050359163695035" lon="9.643164954831832"><ele>523.0</ele><time>2026-04-03T13:31:54Z</time></trkpt><trkpt lat="40.05041861792632" lon="9.642917988998528"><ele>523.0</ele><time>2026-04-03T13:31:55Z</time></trkpt><trkpt lat="40.05048547142984" lon="9.642675196824918"><ele>517.6666666666667</ele><time>2026-04-03T13:31:56Z</time></trkpt><trkpt lat="40.05056119744567" lon="9.642440712088476"><ele>512.3333333333334</ele><time>2026-04-03T13:31:57Z</time></trkpt><trkpt lat="40.05062336568566" lon="9.642202823904608"><ele>507.0</ele><time>2026-04-03T13:31:58Z</time></trkpt><trkpt lat="40.0506485847357" lon="9.641951582093993"><ele>504.33333333333337</ele><time>2026-04-03T13:31:59Z</time></trkpt><trkpt lat="40.05065571608785" lon="9.641698288916462"><ele>501.6666666666667</ele><time>2026-04-03T13:32:00Z</time></trkpt><trkpt lat="40.05066649209099" lon="9.641438150175539"><ele>499.0</ele><time>2026-04-03T13:32:01Z</time></trkpt><trkpt lat="40.05067777294584" lon="9.641178583819466"><ele>497.0</ele><time>2026-04-03T13:32:02Z</time></trkpt><trkpt lat="40.05068845515145" lon="9.640917293999367"><ele>495.0</ele><time>2026-04-03T13:32:03Z</time></trkpt><trkpt lat="40.05070438667386" lon="9.640658556750651"><ele>493.0</ele><time>2026-04-03T13:32:04Z</time></trkpt><trkpt lat="40.05072505252563" lon="9.640401900623479"><ele>492.6666666666667</ele><time>2026-04-03T13:32:05Z</time></trkpt><trkpt lat="40.05073541388599" lon="9.640143788803856"><ele>492.33333333333337</ele><time>2026-04-03T13:32:06Z</time></trkpt><trkpt lat="40.050736890415955" lon="9.639890199109994"><ele>492.0</ele><time>2026-04-03T13:32:07Z</time></trkpt><trkpt lat="40.05074143224696" lon="9.63965358002186"><ele>488.0</ele><time>2026-04-03T13:32:08Z</time></trkpt><trkpt lat="40.05076756518393" lon="9.639431458449588"><ele>484.0</ele><time>2026-04-03T13:32:09Z</time></trkpt><trkpt lat="40.05083206089407" lon="9.639223429692048"><ele>480.0</ele><time>2026-04-03T13:32:10Z</time></trkpt><trkpt lat="40.0509149040497" lon="9.639020390812284"><ele>492.33333333333337</ele><time>2026-04-03T13:32:11Z</time></trkpt><trkpt lat="40.05100184652243" lon="9.638814930719075"><ele>504.6666666666667</ele><time>2026-04-03T13:32:12Z</time></trkpt><trkpt lat="40.0510813990883" lon="9.638605184609188"><ele>517.0</ele><time>2026-04-03T13:32:13Z</time></trkpt><trkpt lat="40.05115969376709" lon="9.638393992078454"><ele>517.0</ele><time>2026-04-03T13:32:14Z</time></trkpt><trkpt lat="40.05123232351527" lon="9.638192939153742"><ele>517.0</ele><time>2026-04-03T13:32:15Z</time></trkpt><trkpt lat="40.05131945675196" lon="9.638018104148983"><ele>517.0</ele><time>2026-04-03T13:32:16Z</time></trkpt><trkpt lat="40.05144420985981" lon="9.637884122687343"><ele>510.6666666666667</ele><time>2026-04-03T13:32:17Z</time></trkpt><trkpt lat="40.05157225172539" lon="9.637756973002128"><ele>504.33333333333337</ele><time>2026-04-03T13:32:18Z</time></trkpt><trkpt lat="40.0516683195433" lon="9.637582105148864"><ele>498.0</ele><time>2026-04-03T13:32:19Z</time></trkpt><trkpt lat="40.051716307897614" lon="9.637369478668269"><ele>512.0</ele><time>2026-04-03T13:32:20Z</time></trkpt><trkpt lat="40.05172940078423" lon="9.637138803487208"><ele>526.0</ele><time>2026-04-03T13:32:21Z</time></trkpt><trkpt lat="40.0517625772515" lon="9.636911287596842"><ele>540.0</ele><time>2026-04-03T13:32:22Z</time></trkpt><trkpt lat="40.051850614473246" lon="9.636718290044353"><ele>540.0</ele><time>2026-04-03T13:32:23Z</time></trkpt><trkpt lat="40.05192984062277" lon="9.636527524143322"><ele>540.0</ele><time>2026-04-03T13:32:24Z</time></trkpt><trkpt lat="40.05203298165183" lon="9.636386856570821"><ele>540.0</ele><time>2026-04-03T13:32:25Z</time></trkpt><trkpt lat="40.052120130153654" lon="9.636256335490092"><ele>540.0</ele><time>2026-04-03T13:32:26Z</time></trkpt><trkpt lat="40.05215951404511" lon="9.63611069112121"><ele>538.75</ele><time>2026-04-03T13:32:27Z</time></trkpt><trkpt lat="40.05213043506267" lon="9.635975882527806"><ele>537.5</ele><time>2026-04-03T13:32:28Z</time></trkpt><trkpt lat="40.05206116474337" lon="9.63584987385566"><ele>536.25</ele><time>2026-04-03T13:32:29Z</time></trkpt><trkpt lat="40.05198414839054" lon="9.635726113857336"><ele>535.0</ele><time>2026-04-03T13:32:30Z</time></trkpt><trkpt lat="40.05191481935049" lon="9.635598010800063"><ele>535.0</ele><time>2026-04-03T13:32:31Z</time></trkpt><trkpt lat="40.05187156314714" lon="9.635454020290505"><ele>535.0</ele><time>2026-04-03T13:32:32Z</time></trkpt><trkpt lat="40.051887142141055" lon="9.635304706696964"><ele>535.0</ele><time>2026-04-03T13:32:33Z</time></trkpt><trkpt lat="40.05195217574013" lon="9.635191174815152"><ele>535.0</ele><time>2026-04-03T13:32:34Z</time></trkpt><trkpt lat="40.05205612413015" lon="9.63513207869195"><ele>535.75</ele><time>2026-04-03T13:32:35Z</time></trkpt><trkpt lat="40.05216038472129" lon="9.635065361830353"><ele>536.5</ele><time>2026-04-03T13:32:36Z</time></trkpt><trkpt lat="40.05221836019649" lon="9.634932565773076"><ele>537.25</ele><time>2026-04-03T13:32:37Z</time></trkpt><trkpt lat="40.05219319852771" lon="9.63477254251528"><ele>538.0</ele><time>2026-04-03T13:32:38Z</time></trkpt><trkpt lat="40.05210740172435" lon="9.634633664097386"><ele>538.0</ele><time>2026-04-03T13:32:39Z</time></trkpt><trkpt lat="40.0520477262109" lon="9.634481498086068"><ele>538.0</ele><time>2026-04-03T13:32:40Z</time></trkpt><trkpt lat="40.051988040702675" lon="9.634333469740348"><ele>538.0</ele><time>2026-04-03T13:32:41Z</time></trkpt><trkpt lat="40.05195229001403" lon="9.634175898998324"><ele>538.0</ele><time>2026-04-03T13:32:42Z</time></trkpt><trkpt lat="40.051931189383936" lon="9.634020453059083"><ele>541.0</ele><time>2026-04-03T13:32:43Z</time></trkpt><trkpt lat="40.051929792236386" lon="9.633824933487118"><ele>544.0</ele><time>2026-04-03T13:32:44Z</time></trkpt><trkpt lat="40.05195569608264" lon="9.63363896040105"><ele>547.0</ele><time>2026-04-03T13:32:45Z</time></trkpt><trkpt lat="40.05200486073133" lon="9.633456252512696"><ele>550.0</ele><time>2026-04-03T13:32:46Z</time></trkpt><trkpt lat="40.05205507153869" lon="9.633275521215163"><ele>550.0</ele><time>2026-04-03T13:32:47Z</time></trkpt><trkpt lat="40.0521038632482" lon="9.633098491198067"><ele>550.0</ele><time>2026-04-03T13:32:48Z</time></trkpt><trkpt lat="40.05219484129701" lon="9.632948680788258"><ele>550.0</ele><time>2026-04-03T13:32:49Z</time></trkpt><trkpt lat="40.0523000793574" lon="9.632815053620549"><ele>550.0</ele><time>2026-04-03T13:32:50Z</time></trkpt><trkpt lat="40.05240981317181" lon="9.63267347269267"><ele>554.0</ele><time>2026-04-03T13:32:51Z</time></trkpt><trkpt lat="40.05251695740045" lon="9.632535139882673"><ele>558.0</ele><time>2026-04-03T13:32:52Z</time></trkpt><trkpt lat="40.05262558515724" lon="9.63239317635521"><ele>562.0</ele><time>2026-04-03T13:32:53Z</time></trkpt><trkpt lat="40.05273357862116" lon="9.63225415193035"><ele>562.0</ele><time>2026-04-03T13:32:54Z</time></trkpt><trkpt lat="40.05285076447336" lon="9.632111624398085"><ele>562.0</ele><time>2026-04-03T13:32:55Z</time></trkpt><trkpt lat="40.05295709246457" lon="9.63194858673455"><ele>562.0</ele><time>2026-04-03T13:32:56Z</time></trkpt><trkpt lat="40.05303771854961" lon="9.631774286833933"><ele>553.0</ele><time>2026-04-03T13:32:57Z</time></trkpt><trkpt lat="40.05307571384125" lon="9.631568364102957"><ele>544.0</ele><time>2026-04-03T13:32:58Z</time></trkpt><trkpt lat="40.05313333052092" lon="9.631376326425361"><ele>535.0</ele><time>2026-04-03T13:32:59Z</time></trkpt><trkpt lat="40.053198618821455" lon="9.631192987950852"><ele>530.6666666666667</ele><time>2026-04-03T13:33:00Z</time></trkpt><trkpt lat="40.05326463173691" lon="9.631012749728947"><ele>526.3333333333334</ele><time>2026-04-03T13:33:01Z</time></trkpt><trkpt lat="40.053387252774186" lon="9.630895975926656"><ele>522.0</ele><time>2026-04-03T13:33:02Z</time></trkpt><trkpt lat="40.053481135644944" lon="9.630750559563461"><ele>530.0</ele><time>2026-04-03T13:33:03Z</time></trkpt><trkpt lat="40.053555551413055" lon="9.630588884985135"><ele>538.0</ele><time>2026-04-03T13:33:04Z</time></trkpt><trkpt lat="40.05359273918723" lon="9.630399196020619"><ele>546.0</ele><time>2026-04-03T13:33:05Z</time></trkpt><trkpt lat="40.053604373755014" lon="9.630199111222892"><ele>554.0</ele><time>2026-04-03T13:33:06Z</time></trkpt><trkpt lat="40.05361601061695" lon="9.629972316560862"><ele>554.0</ele><time>2026-04-03T13:33:07Z</time></trkpt><trkpt lat="40.05366616806723" lon="9.629786921104966"><ele>554.0</ele><time>2026-04-03T13:33:08Z</time></trkpt><trkpt lat="40.053717748766935" lon="9.62960179284129"><ele>554.0</ele><time>2026-04-03T13:33:09Z</time></trkpt><trkpt lat="40.05375187432743" lon="9.629415362508235"><ele>554.0</ele><time>2026-04-03T13:33:10Z</time></trkpt><trkpt lat="40.05377399937265" lon="9.62922046684465"><ele>553.5</ele><time>2026-04-03T13:33:11Z</time></trkpt><trkpt lat="40.053772401470596" lon="9.629020064030648"><ele>553.0</ele><time>2026-04-03T13:33:12Z</time></trkpt><trkpt lat="40.053727004057926" lon="9.628841692197167"><ele>552.5</ele><time>2026-04-03T13:33:13Z</time></trkpt><trkpt lat="40.053670636189274" lon="9.628689562169962"><ele>552.0</ele><time>2026-04-03T13:33:14Z</time></trkpt><trkpt lat="40.05363465858178" lon="9.628540504574579"><ele>552.0</ele><time>2026-04-03T13:33:15Z</time></trkpt><trkpt lat="40.05364307746243" lon="9.628401588074112"><ele>552.0</ele><time>2026-04-03T13:33:16Z</time></trkpt><trkpt lat="40.05371032383481" lon="9.628282505349723"><ele>552.0</ele><time>2026-04-03T13:33:17Z</time></trkpt><trkpt lat="40.05381242395906" lon="9.62820030893272"><ele>552.0</ele><time>2026-04-03T13:33:18Z</time></trkpt><trkpt lat="40.053925701024795" lon="9.628143832467106"><ele>552.0</ele><time>2026-04-03T13:33:19Z</time></trkpt><trkpt lat="40.054034779410934" lon="9.628089008412115"><ele>552.0</ele><time>2026-04-03T13:33:20Z</time></trkpt><trkpt lat="40.0541343827004" lon="9.628000258003532"><ele>552.0</ele><time>2026-04-03T13:33:21Z</time></trkpt><trkpt lat="40.05421457391686" lon="9.627876494709787"><ele>552.0</ele><time>2026-04-03T13:33:22Z</time></trkpt><trkpt lat="40.0542754973682" lon="9.627734515977481"><ele>557.0</ele><time>2026-04-03T13:33:23Z</time></trkpt><trkpt lat="40.0543266764742" lon="9.62759082583647"><ele>562.0</ele><time>2026-04-03T13:33:24Z</time></trkpt><trkpt lat="40.05437366122573" lon="9.62744709793078"><ele>567.0</ele><time>2026-04-03T13:33:25Z</time></trkpt><trkpt lat="40.05440995468996" lon="9.627302331408123"><ele>572.0</ele><time>2026-04-03T13:33:26Z</time></trkpt><trkpt lat="40.054437819039016" lon="9.627155633988838"><ele>572.0</ele><time>2026-04-03T13:33:27Z</time></trkpt><trkpt lat="40.05445230328405" lon="9.62701201867854"><ele>572.0</ele><time>2026-04-03T13:33:28Z</time></trkpt><trkpt lat="40.05442910756161" lon="9.626868193184873"><ele>572.0</ele><time>2026-04-03T13:33:29Z</time></trkpt><trkpt lat="40.05437100858354" lon="9.626725977121371"><ele>572.0</ele><time>2026-04-03T13:33:30Z</time></trkpt><trkpt lat="40.05433048520439" lon="9.626582014792756"><ele>572.2</ele><time>2026-04-03T13:33:31Z</time></trkpt><trkpt lat="40.0543281134689" lon="9.62643542066671"><ele>572.4000000000001</ele><time>2026-04-03T13:33:32Z</time></trkpt><trkpt lat="40.054348318568806" lon="9.626299792629036"><ele>572.5999999999999</ele><time>2026-04-03T13:33:33Z</time></trkpt><trkpt lat="40.05431299402303" lon="9.626163023156874"><ele>572.8</ele><time>2026-04-03T13:33:34Z</time></trkpt><trkpt lat="40.05434370826653" lon="9.62603947989538"><ele>573.0</ele><time>2026-04-03T13:33:35Z</time></trkpt><trkpt lat="40.05446579773711" lon="9.625955114522913"><ele>573.0</ele><time>2026-04-03T13:33:36Z</time></trkpt><trkpt lat="40.05450164740594" lon="9.625828160109895"><ele>573.0</ele><time>2026-04-03T13:33:37Z</time></trkpt><trkpt lat="40.0545308767408" lon="9.62569273722044"><ele>573.0</ele><time>2026-04-03T13:33:38Z</time></trkpt><trkpt lat="40.054567611482895" lon="9.625560508490308"><ele>573.0</ele><time>2026-04-03T13:33:39Z</time></trkpt><trkpt lat="40.0546173696868" lon="9.62542355114627"><ele>573.0</ele><time>2026-04-03T13:33:40Z</time></trkpt><trkpt lat="40.0546756503684" lon="9.625285862897115"><ele>575.0</ele><time>2026-04-03T13:33:41Z</time></trkpt><trkpt lat="40.05475616510226" lon="9.625160893477938"><ele>577.0</ele><time>2026-04-03T13:33:42Z</time></trkpt><trkpt lat="40.05485525846241" lon="9.625042062288989"><ele>579.0</ele><time>2026-04-03T13:33:43Z</time></trkpt><trkpt lat="40.054949984552685" lon="9.62492093220364"><ele>581.0</ele><time>2026-04-03T13:33:44Z</time></trkpt><trkpt lat="40.05504543305717" lon="9.62481288476869"><ele>584.25</ele><time>2026-04-03T13:33:45Z</time></trkpt><trkpt lat="40.055165235520256" lon="9.624746241470431"><ele>587.5</ele><time>2026-04-03T13:33:46Z</time></trkpt><trkpt lat="40.055300891526635" lon="9.624737017105264"><ele>590.75</ele><time>2026-04-03T13:33:47Z</time></trkpt><trkpt lat="40.055441713571234" lon="9.6247712481841"><ele>594.0</ele><time>2026-04-03T13:33:48Z</time></trkpt><trkpt lat="40.05555619741395" lon="9.624879569942104"><ele>594.0</ele><time>2026-04-03T13:33:49Z</time></trkpt><trkpt lat="40.055679547266415" lon="9.62496486215785"><ele>594.0</ele><time>2026-04-03T13:33:50Z</time></trkpt><trkpt lat="40.05580082439477" lon="9.625033555527663"><ele>594.0</ele><time>2026-04-03T13:33:51Z</time></trkpt><trkpt lat="40.05593737255104" lon="9.625033523597132"><ele>594.0</ele><time>2026-04-03T13:33:52Z</time></trkpt><trkpt lat="40.05607808043928" lon="9.625003850622592"><ele>595.25</ele><time>2026-04-03T13:33:53Z</time></trkpt><trkpt lat="40.05621574620486" lon="9.624963099571456"><ele>596.5</ele><time>2026-04-03T13:33:54Z</time></trkpt><trkpt lat="40.05634731202018" lon="9.62488674350722"><ele>597.75</ele><time>2026-04-03T13:33:55Z</time></trkpt><trkpt lat="40.05646238057442" lon="9.62476288417964"><ele>599.0</ele><time>2026-04-03T13:33:56Z</time></trkpt><trkpt lat="40.056564343849345" lon="9.624618583752227"><ele>603.3333333333333</ele><time>2026-04-03T13:33:57Z</time></trkpt><trkpt lat="40.05665390097279" lon="9.624459055179473"><ele>607.6666666666666</ele><time>2026-04-03T13:33:58Z</time></trkpt><trkpt lat="40.0567248879804" lon="9.624277212282179"><ele>612.0</ele><time>2026-04-03T13:33:59Z</time></trkpt><trkpt lat="40.05677543806973" lon="9.624081942189786"><ele>612.0</ele><time>2026-04-03T13:34:00Z</time></trkpt><trkpt lat="40.05679907811142" lon="9.623876150405508"><ele>612.0</ele><time>2026-04-03T13:34:01Z</time></trkpt><trkpt lat="40.0567956346786" lon="9.623664292763989"><ele>612.0</ele><time>2026-04-03T13:34:02Z</time></trkpt><trkpt lat="40.056786065366175" lon="9.623448040949834"><ele>614.6666666666666</ele><time>2026-04-03T13:34:03Z</time></trkpt><trkpt lat="40.0568092171498" lon="9.623234489706611"><ele>617.3333333333333</ele><time>2026-04-03T13:34:04Z</time></trkpt><trkpt lat="40.05686061112972" lon="9.623032130617794"><ele>620.0</ele><time>2026-04-03T13:34:05Z</time></trkpt><trkpt lat="40.05691896252336" lon="9.62283203972578"><ele>622.3333333333333</ele><time>2026-04-03T13:34:06Z</time></trkpt><trkpt lat="40.05695684849108" lon="9.622636479168936"><ele>624.6666666666666</ele><time>2026-04-03T13:34:07Z</time></trkpt><trkpt lat="40.0569660995526" lon="9.62243802424715"><ele>627.0</ele><time>2026-04-03T13:34:08Z</time></trkpt><trkpt lat="40.056932111075014" lon="9.622250071313905"><ele>627.0</ele><time>2026-04-03T13:34:09Z</time></trkpt><trkpt lat="40.05683698346036" lon="9.622084262906425"><ele>627.0</ele><time>2026-04-03T13:34:10Z</time></trkpt><trkpt lat="40.05671413984986" lon="9.62196217104411"><ele>627.0</ele><time>2026-04-03T13:34:11Z</time></trkpt><trkpt lat="40.05658675350697" lon="9.621858075570563"><ele>635.0</ele><time>2026-04-03T13:34:12Z</time></trkpt><trkpt lat="40.05650762516693" lon="9.621698709036187"><ele>643.0</ele><time>2026-04-03T13:34:13Z</time></trkpt><trkpt lat="40.05645622551328" lon="9.621513730278975"><ele>651.0</ele><time>2026-04-03T13:34:14Z</time></trkpt><trkpt lat="40.05638611260722" lon="9.62132614931341"><ele>648.3333333333334</ele><time>2026-04-03T13:34:15Z</time></trkpt><trkpt lat="40.05632228989184" lon="9.621130181030844"><ele>645.6666666666667</ele><time>2026-04-03T13:34:16Z</time></trkpt><trkpt lat="40.0562670407389" lon="9.620928806086775"><ele>643.0</ele><time>2026-04-03T13:34:17Z</time></trkpt><trkpt lat="40.056229653024204" lon="9.62071631574557"><ele>643.0</ele><time>2026-04-03T13:34:18Z</time></trkpt><trkpt lat="40.05620921348604" lon="9.620496032314415"><ele>643.0</ele><time>2026-04-03T13:34:19Z</time></trkpt><trkpt lat="40.05618978901437" lon="9.620272404392244"><ele>643.0</ele><time>2026-04-03T13:34:20Z</time></trkpt><trkpt lat="40.05615579683484" lon="9.620051655447742"><ele>643.0</ele><time>2026-04-03T13:34:21Z</time></trkpt><trkpt lat="40.05611169392041" lon="9.61983571670211"><ele>643.0</ele><time>2026-04-03T13:34:22Z</time></trkpt><trkpt lat="40.056053494970556" lon="9.61963047533758"><ele>643.0</ele><time>2026-04-03T13:34:23Z</time></trkpt><trkpt lat="40.05598725083022" lon="9.61942771392946"><ele>641.6666666666667</ele><time>2026-04-03T13:34:24Z</time></trkpt><trkpt lat="40.05590256802369" lon="9.61924527798445"><ele>640.3333333333334</ele><time>2026-04-03T13:34:25Z</time></trkpt><trkpt lat="40.055804410372986" lon="9.619069549069552"><ele>639.0</ele><time>2026-04-03T13:34:26Z</time></trkpt><trkpt lat="40.05573578345188" lon="9.61888814059096"><ele>640.0</ele><time>2026-04-03T13:34:27Z</time></trkpt><trkpt lat="40.05572834318111" lon="9.618686566452224"><ele>641.0</ele><time>2026-04-03T13:34:28Z</time></trkpt><trkpt lat="40.05576004614115" lon="9.618491249302798"><ele>642.0</ele><time>2026-04-03T13:34:29Z</time></trkpt><trkpt lat="40.05578948583022" lon="9.618283244977347"><ele>642.0</ele><time>2026-04-03T13:34:30Z</time></trkpt><trkpt lat="40.055844132949886" lon="9.61808710434383"><ele>642.0</ele><time>2026-04-03T13:34:31Z</time></trkpt><trkpt lat="40.05589561138385" lon="9.617890970268167"><ele>642.0</ele><time>2026-04-03T13:34:32Z</time></trkpt><trkpt lat="40.05593484340688" lon="9.617688612181219"><ele>645.0</ele><time>2026-04-03T13:34:33Z</time></trkpt><trkpt lat="40.05594448155881" lon="9.617481364513058"><ele>648.0</ele><time>2026-04-03T13:34:34Z</time></trkpt><trkpt lat="40.0559355286396" lon="9.61727224440729"><ele>651.0</ele><time>2026-04-03T13:34:35Z</time></trkpt><trkpt lat="40.05589948559077" lon="9.617060029640886"><ele>650.0</ele><time>2026-04-03T13:34:36Z</time></trkpt><trkpt lat="40.05584331933221" lon="9.616865532193033"><ele>649.0</ele><time>2026-04-03T13:34:37Z</time></trkpt><trkpt lat="40.05574733436887" lon="9.616690213559714"><ele>648.0</ele><time>2026-04-03T13:34:38Z</time></trkpt><trkpt lat="40.055682963468925" lon="9.61648458558886"><ele>654.0</ele><time>2026-04-03T13:34:39Z</time></trkpt><trkpt lat="40.05562877946935" lon="9.616287721862602"><ele>660.0</ele><time>2026-04-03T13:34:40Z</time></trkpt><trkpt lat="40.05555377847495" lon="9.616093630007299"><ele>666.0</ele><time>2026-04-03T13:34:41Z</time></trkpt><trkpt lat="40.05546559655209" lon="9.615939062097143"><ele>666.0</ele><time>2026-04-03T13:34:42Z</time></trkpt><trkpt lat="40.055329920221745" lon="9.615843672264822"><ele>666.0</ele><time>2026-04-03T13:34:43Z</time></trkpt><trkpt lat="40.055209389107496" lon="9.615761573028308"><ele>666.0</ele><time>2026-04-03T13:34:44Z</time></trkpt><trkpt lat="40.05511870627779" lon="9.615685057945692"><ele>666.0</ele><time>2026-04-03T13:34:45Z</time></trkpt><trkpt lat="40.055055151370006" lon="9.615605779239337"><ele>666.0</ele><time>2026-04-03T13:34:46Z</time></trkpt><trkpt lat="40.05507353950446" lon="9.615469504407269"><ele>666.0</ele><time>2026-04-03T13:34:47Z</time></trkpt><trkpt lat="40.055142620037266" lon="9.615340497091427"><ele>666.0</ele><time>2026-04-03T13:34:48Z</time></trkpt><trkpt lat="40.055262467051314" lon="9.615274382990256"><ele>666.0</ele><time>2026-04-03T13:34:49Z</time></trkpt><trkpt lat="40.05538869113545" lon="9.615181828563447"><ele>665.5</ele><time>2026-04-03T13:34:50Z</time></trkpt><trkpt lat="40.05551687151742" lon="9.615086924575568"><ele>665.0</ele><time>2026-04-03T13:34:51Z</time></trkpt><trkpt lat="40.05563831250256" lon="9.61497800151345"><ele>664.5</ele><time>2026-04-03T13:34:52Z</time></trkpt><trkpt lat="40.05576242493659" lon="9.614876743557485"><ele>664.0</ele><time>2026-04-03T13:34:53Z</time></trkpt><trkpt lat="40.05589812464269" lon="9.61478625115678"><ele>664.0</ele><time>2026-04-03T13:34:54Z</time></trkpt><trkpt lat="40.056042709193704" lon="9.614709310307465"><ele>664.0</ele><time>2026-04-03T13:34:55Z</time></trkpt><trkpt lat="40.0561817508169" lon="9.614631918807365"><ele>664.0</ele><time>2026-04-03T13:34:56Z</time></trkpt><trkpt lat="40.056316575022336" lon="9.614569247933867"><ele>664.0</ele><time>2026-04-03T13:34:57Z</time></trkpt><trkpt lat="40.056451469654306" lon="9.614586804285098"><ele>664.0</ele><time>2026-04-03T13:34:58Z</time></trkpt><trkpt lat="40.05659147543272" lon="9.61463622008498"><ele>664.0</ele><time>2026-04-03T13:34:59Z</time></trkpt><trkpt lat="40.05672940553493" lon="9.614732676928606"><ele>664.0</ele><time>2026-04-03T13:35:00Z</time></trkpt><trkpt lat="40.0568717811689" lon="9.614809405348158"><ele>663.0</ele><time>2026-04-03T13:35:01Z</time></trkpt><trkpt lat="40.05702093535499" lon="9.614852446813831"><ele>662.0</ele><time>2026-04-03T13:35:02Z</time></trkpt><trkpt lat="40.057173596847754" lon="9.61485104344584"><ele>661.0</ele><time>2026-04-03T13:35:03Z</time></trkpt><trkpt lat="40.05732615077138" lon="9.614797171409252"><ele>663.0</ele><time>2026-04-03T13:35:04Z</time></trkpt><trkpt lat="40.05746990069034" lon="9.614711560973463"><ele>665.0</ele><time>2026-04-03T13:35:05Z</time></trkpt><trkpt lat="40.05760435599927" lon="9.614652389540643"><ele>667.0</ele><time>2026-04-03T13:35:06Z</time></trkpt><trkpt lat="40.05773189919293" lon="9.614691945686841"><ele>669.0</ele><time>2026-04-03T13:35:07Z</time></trkpt><trkpt lat="40.057820747090325" lon="9.614802989787622"><ele>669.0</ele><time>2026-04-03T13:35:08Z</time></trkpt><trkpt lat="40.05793148019767" lon="9.614900946947945"><ele>669.0</ele><time>2026-04-03T13:35:09Z</time></trkpt><trkpt lat="40.05804796863356" lon="9.615007413431"><ele>669.0</ele><time>2026-04-03T13:35:10Z</time></trkpt><trkpt lat="40.05818584452468" lon="9.615081655072155"><ele>669.0</ele><time>2026-04-03T13:35:11Z</time></trkpt><trkpt lat="40.05832777241932" lon="9.615115804186257"><ele>674.3333333333334</ele><time>2026-04-03T13:35:12Z</time></trkpt><trkpt lat="40.05848592256817" lon="9.615109686712932"><ele>679.6666666666667</ele><time>2026-04-03T13:35:13Z</time></trkpt><trkpt lat="40.05863884589211" lon="9.615075796632098"><ele>685.0</ele><time>2026-04-03T13:35:14Z</time></trkpt><trkpt lat="40.05879742407895" lon="9.615048782801534"><ele>685.0</ele><time>2026-04-03T13:35:15Z</time></trkpt><trkpt lat="40.058956720029485" lon="9.615026102843768"><ele>685.0</ele><time>2026-04-03T13:35:16Z</time></trkpt><trkpt lat="40.05911728476047" lon="9.614989575616068"><ele>685.0</ele><time>2026-04-03T13:35:17Z</time></trkpt><trkpt lat="40.059272815302606" lon="9.614923542498811"><ele>685.6666666666667</ele><time>2026-04-03T13:35:18Z</time></trkpt><trkpt lat="40.05942182433542" lon="9.614833214057533"><ele>686.3333333333334</ele><time>2026-04-03T13:35:19Z</time></trkpt><trkpt lat="40.05956126945223" lon="9.614718622659096"><ele>687.0</ele><time>2026-04-03T13:35:20Z</time></trkpt><trkpt lat="40.05969144318036" lon="9.61458960728673"><ele>689.6666666666666</ele><time>2026-04-03T13:35:21Z</time></trkpt><trkpt lat="40.0598015409256" lon="9.614429752799788"><ele>692.3333333333333</ele><time>2026-04-03T13:35:22Z</time></trkpt><trkpt lat="40.059897656313794" lon="9.614269899199067"><ele>695.0</ele><time>2026-04-03T13:35:23Z</time></trkpt><trkpt lat="40.0600053920273" lon="9.614135976757117"><ele>695.0</ele><time>2026-04-03T13:35:24Z</time></trkpt><trkpt lat="40.06012419670656" lon="9.614104658034412"><ele>695.0</ele><time>2026-04-03T13:35:25Z</time></trkpt><trkpt lat="40.0602407730938" lon="9.614120376228824"><ele>695.0</ele><time>2026-04-03T13:35:26Z</time></trkpt><trkpt lat="40.060364837939" lon="9.614116392969898"><ele>695.0</ele><time>2026-04-03T13:35:27Z</time></trkpt><trkpt lat="40.06049381360121" lon="9.61405100464672"><ele>695.0</ele><time>2026-04-03T13:35:28Z</time></trkpt><trkpt lat="40.060609746602644" lon="9.613931461337616"><ele>695.0</ele><time>2026-04-03T13:35:29Z</time></trkpt><trkpt lat="40.060726311482306" lon="9.613804394984275"><ele>695.0</ele><time>2026-04-03T13:35:30Z</time></trkpt><trkpt lat="40.060852867252365" lon="9.61371035513472"><ele>695.0</ele><time>2026-04-03T13:35:31Z</time></trkpt><trkpt lat="40.060968864766" lon="9.613571047476515"><ele>698.75</ele><time>2026-04-03T13:35:32Z</time></trkpt><trkpt lat="40.06107781837785" lon="9.61343226104818"><ele>702.5</ele><time>2026-04-03T13:35:33Z</time></trkpt><trkpt lat="40.06118461390587" lon="9.613291874205812"><ele>706.25</ele><time>2026-04-03T13:35:34Z</time></trkpt><trkpt lat="40.06129810639212" lon="9.613188929602838"><ele>710.0</ele><time>2026-04-03T13:35:35Z</time></trkpt><trkpt lat="40.06141576713222" lon="9.613250479694837"><ele>710.0</ele><time>2026-04-03T13:35:36Z</time></trkpt><trkpt lat="40.06153417942548" lon="9.613293904900681"><ele>710.0</ele><time>2026-04-03T13:35:37Z</time></trkpt><trkpt lat="40.06166485385802" lon="9.61332714816515"><ele>710.0</ele><time>2026-04-03T13:35:38Z</time></trkpt><trkpt lat="40.061807877481556" lon="9.613358153653511"><ele>710.0</ele><time>2026-04-03T13:35:39Z</time></trkpt><trkpt lat="40.06195637435371" lon="9.613374228521577"><ele>707.3333333333333</ele><time>2026-04-03T13:35:40Z</time></trkpt><trkpt lat="40.062117900655394" lon="9.613372549762666"><ele>704.6666666666666</ele><time>2026-04-03T13:35:41Z</time></trkpt><trkpt lat="40.062273037086705" lon="9.613385411548634"><ele>702.0</ele><time>2026-04-03T13:35:42Z</time></trkpt><trkpt lat="40.06242699564934" lon="9.613388219742005"><ele>704.6666666666666</ele><time>2026-04-03T13:35:43Z</time></trkpt><trkpt lat="40.06257619902458" lon="9.613375897628401"><ele>707.3333333333333</ele><time>2026-04-03T13:35:44Z</time></trkpt><trkpt lat="40.06272661248434" lon="9.613341573218749"><ele>710.0</ele><time>2026-04-03T13:35:45Z</time></trkpt><trkpt lat="40.062882841744" lon="9.61328293655852"><ele>710.0</ele><time>2026-04-03T13:35:46Z</time></trkpt><trkpt lat="40.0630309376756" lon="9.613205704788626"><ele>710.0</ele><time>2026-04-03T13:35:47Z</time></trkpt><trkpt lat="40.06317378979488" lon="9.613109579430551"><ele>710.0</ele><time>2026-04-03T13:35:48Z</time></trkpt><trkpt lat="40.063306688231215" lon="9.612992875500293"><ele>708.3333333333333</ele><time>2026-04-03T13:35:49Z</time></trkpt><trkpt lat="40.06343939702158" lon="9.612861736372846"><ele>706.6666666666666</ele><time>2026-04-03T13:35:50Z</time></trkpt><trkpt lat="40.06357363397483" lon="9.61273132231632"><ele>705.0</ele><time>2026-04-03T13:35:51Z</time></trkpt><trkpt lat="40.06371340473426" lon="9.612616735859527"><ele>710.6666666666666</ele><time>2026-04-03T13:35:52Z</time></trkpt><trkpt lat="40.06387309173071" lon="9.612587439206667"><ele>716.3333333333333</ele><time>2026-04-03T13:35:53Z</time></trkpt><trkpt lat="40.064044991736424" lon="9.612569704028372"><ele>722.0</ele><time>2026-04-03T13:35:54Z</time></trkpt><trkpt lat="40.06421876447032" lon="9.612554660779882"><ele>722.0</ele><time>2026-04-03T13:35:55Z</time></trkpt><trkpt lat="40.06440225766695" lon="9.612520341217785"><ele>722.0</ele><time>2026-04-03T13:35:56Z</time></trkpt><trkpt lat="40.06457419732127" lon="9.612478599133512"><ele>722.0</ele><time>2026-04-03T13:35:57Z</time></trkpt><trkpt lat="40.06474118847181" lon="9.612445968536147"><ele>722.0</ele><time>2026-04-03T13:35:58Z</time></trkpt><trkpt lat="40.06490573367357" lon="9.612417967211133"><ele>722.0</ele><time>2026-04-03T13:35:59Z</time></trkpt><trkpt lat="40.06506612455667" lon="9.612401542364369"><ele>722.0</ele><time>2026-04-03T13:36:00Z</time></trkpt><trkpt lat="40.06522172262813" lon="9.6124289846861"><ele>721.25</ele><time>2026-04-03T13:36:01Z</time></trkpt><trkpt lat="40.06535680298374" lon="9.612502420376982"><ele>720.5</ele><time>2026-04-03T13:36:02Z</time></trkpt><trkpt lat="40.065480037376226" lon="9.612560590605474"><ele>719.75</ele><time>2026-04-03T13:36:03Z</time></trkpt><trkpt lat="40.06561555801615" lon="9.61252787064512"><ele>719.0</ele><time>2026-04-03T13:36:04Z</time></trkpt><trkpt lat="40.0657490799286" lon="9.612430256196182"><ele>719.6666666666666</ele><time>2026-04-03T13:36:05Z</time></trkpt><trkpt lat="40.06588788294482" lon="9.612329242266192"><ele>720.3333333333334</ele><time>2026-04-03T13:36:06Z</time></trkpt><trkpt lat="40.06604455816253" lon="9.612268147241291"><ele>721.0</ele><time>2026-04-03T13:36:07Z</time></trkpt><trkpt lat="40.066212922349294" lon="9.612222157708157"><ele>721.0</ele><time>2026-04-03T13:36:08Z</time></trkpt><trkpt lat="40.06637946990584" lon="9.6121690392469"><ele>721.0</ele><time>2026-04-03T13:36:09Z</time></trkpt><trkpt lat="40.066539462346" lon="9.612093275139118"><ele>721.0</ele><time>2026-04-03T13:36:10Z</time></trkpt><trkpt lat="40.06669247608113" lon="9.611991721437755"><ele>715.3333333333334</ele><time>2026-04-03T13:36:11Z</time></trkpt><trkpt lat="40.06684196940268" lon="9.611905088048617"><ele>709.6666666666666</ele><time>2026-04-03T13:36:12Z</time></trkpt><trkpt lat="40.067000635795715" lon="9.61186543335478"><ele>704.0</ele><time>2026-04-03T13:36:13Z</time></trkpt><trkpt lat="40.06716079070238" lon="9.6118990497806"><ele>704.0</ele><time>2026-04-03T13:36:14Z</time></trkpt><trkpt lat="40.0673054400531" lon="9.611880533999193"><ele>704.0</ele><time>2026-04-03T13:36:15Z</time></trkpt><trkpt lat="40.06743549484324" lon="9.611782459094673"><ele>704.0</ele><time>2026-04-03T13:36:16Z</time></trkpt><trkpt lat="40.06756968018607" lon="9.611655293370589"><ele>707.6666666666666</ele><time>2026-04-03T13:36:17Z</time></trkpt><trkpt lat="40.06772558185102" lon="9.611591116053049"><ele>711.3333333333334</ele><time>2026-04-03T13:36:18Z</time></trkpt><trkpt lat="40.0678898222413" lon="9.611545253968174"><ele>715.0</ele><time>2026-04-03T13:36:19Z</time></trkpt><trkpt lat="40.06804859055325" lon="9.611495103285577"><ele>715.0</ele><time>2026-04-03T13:36:20Z</time></trkpt><trkpt lat="40.06820129464702" lon="9.611425638234282"><ele>715.0</ele><time>2026-04-03T13:36:21Z</time></trkpt><trkpt lat="40.068332855181374" lon="9.611310017072313"><ele>715.0</ele><time>2026-04-03T13:36:22Z</time></trkpt><trkpt lat="40.06844419253041" lon="9.611149325813104"><ele>714.25</ele><time>2026-04-03T13:36:23Z</time></trkpt><trkpt lat="40.06852196600268" lon="9.61096055026364"><ele>713.5</ele><time>2026-04-03T13:36:24Z</time></trkpt><trkpt lat="40.06857804676276" lon="9.610781982399772"><ele>712.75</ele><time>2026-04-03T13:36:25Z</time></trkpt><trkpt lat="40.06867579289968" lon="9.610658357051452"><ele>712.0</ele><time>2026-04-03T13:36:26Z</time></trkpt><trkpt lat="40.068802718854215" lon="9.610607347428058"><ele>712.0</ele><time>2026-04-03T13:36:27Z</time></trkpt><trkpt lat="40.06893558472104" lon="9.610519936198525"><ele>712.0</ele><time>2026-04-03T13:36:28Z</time></trkpt><trkpt lat="40.06906529615448" lon="9.610436787237866"><ele>712.0</ele><time>2026-04-03T13:36:29Z</time></trkpt><trkpt lat="40.06916516974594" lon="9.610284250390125"><ele>712.0</ele><time>2026-04-03T13:36:30Z</time></trkpt><trkpt lat="40.06924064022884" lon="9.610118248180035"><ele>712.0</ele><time>2026-04-03T13:36:31Z</time></trkpt><trkpt lat="40.06932603220154" lon="9.609982626583172"><ele>712.0</ele><time>2026-04-03T13:36:32Z</time></trkpt><trkpt lat="40.06946499985459" lon="9.609942503455738"><ele>712.0</ele><time>2026-04-03T13:36:33Z</time></trkpt><trkpt lat="40.06960505109099" lon="9.60987106284583"><ele>712.0</ele><time>2026-04-03T13:36:34Z</time></trkpt><trkpt lat="40.069748990966154" lon="9.609802812307725"><ele>712.0</ele><time>2026-04-03T13:36:35Z</time></trkpt><trkpt lat="40.06989436941404" lon="9.609723746745937"><ele>712.0</ele><time>2026-04-03T13:36:36Z</time></trkpt><trkpt lat="40.070038423000284" lon="9.609644209579912"><ele>712.0</ele><time>2026-04-03T13:36:37Z</time></trkpt><trkpt lat="40.07018602044272" lon="9.609575569045173"><ele>710.25</ele><time>2026-04-03T13:36:38Z</time></trkpt><trkpt lat="40.070331744674725" lon="9.609500911881103"><ele>708.5</ele><time>2026-04-03T13:36:39Z</time></trkpt><trkpt lat="40.07047045755715" lon="9.609436029948025"><ele>706.75</ele><time>2026-04-03T13:36:40Z</time></trkpt><trkpt lat="40.07061123954506" lon="9.60943311716267"><ele>705.0</ele><time>2026-04-03T13:36:41Z</time></trkpt><trkpt lat="40.070753913045685" lon="9.609431164305974"><ele>707.6666666666666</ele><time>2026-04-03T13:36:42Z</time></trkpt><trkpt lat="40.07090530818496" lon="9.60948298696433"><ele>710.3333333333333</ele><time>2026-04-03T13:36:43Z</time></trkpt><trkpt lat="40.07105242337215" lon="9.609563356827179"><ele>713.0</ele><time>2026-04-03T13:36:44Z</time></trkpt><trkpt lat="40.07120084735397" lon="9.6096442529341"><ele>717.3333333333333</ele><time>2026-04-03T13:36:45Z</time></trkpt><trkpt lat="40.07135282696719" lon="9.609699407149957"><ele>721.6666666666666</ele><time>2026-04-03T13:36:46Z</time></trkpt><trkpt lat="40.07151653650473" lon="9.609709466156724"><ele>726.0</ele><time>2026-04-03T13:36:47Z</time></trkpt><trkpt lat="40.07168202789495" lon="9.609677174982005"><ele>727.3333333333334</ele><time>2026-04-03T13:36:48Z</time></trkpt><trkpt lat="40.071845452409" lon="9.609613889317977"><ele>728.6666666666667</ele><time>2026-04-03T13:36:49Z</time></trkpt><trkpt lat="40.072003931748974" lon="9.60954230506327"><ele>730.0</ele><time>2026-04-03T13:36:50Z</time></trkpt><trkpt lat="40.072165173067525" lon="9.609479530115573"><ele>730.3333333333334</ele><time>2026-04-03T13:36:51Z</time></trkpt><trkpt lat="40.07232573869367" lon="9.609486984816701"><ele>730.6666666666666</ele><time>2026-04-03T13:36:52Z</time></trkpt><trkpt lat="40.07248443142261" lon="9.609515968066479"><ele>731.0</ele><time>2026-04-03T13:36:53Z</time></trkpt><trkpt lat="40.072645180146516" lon="9.609536460693944"><ele>731.0</ele><time>2026-04-03T13:36:54Z</time></trkpt><trkpt lat="40.07278714092736" lon="9.609558145148162"><ele>731.0</ele><time>2026-04-03T13:36:55Z</time></trkpt><trkpt lat="40.07292271627073" lon="9.609531157527757"><ele>731.0</ele><time>2026-04-03T13:36:56Z</time></trkpt><trkpt lat="40.07302931508483" lon="9.60941760189287"><ele>731.0</ele><time>2026-04-03T13:36:57Z</time></trkpt><trkpt lat="40.073107385757346" lon="9.609257699305738"><ele>725.25</ele><time>2026-04-03T13:36:58Z</time></trkpt><trkpt lat="40.07316350025174" lon="9.609084802692493"><ele>719.5</ele><time>2026-04-03T13:36:59Z</time></trkpt><trkpt lat="40.07318773529098" lon="9.60889542709795"><ele>713.75</ele><time>2026-04-03T13:37:00Z</time></trkpt><trkpt lat="40.07319082358876" lon="9.608703782340557"><ele>708.0</ele><time>2026-04-03T13:37:01Z</time></trkpt><trkpt lat="40.07323394003158" lon="9.608535981509982"><ele>708.75</ele><time>2026-04-03T13:37:02Z</time></trkpt><trkpt lat="40.07332268210272" lon="9.60839697868012"><ele>709.5</ele><time>2026-04-03T13:37:03Z</time></trkpt><trkpt lat="40.07343510326523" lon="9.60827294065955"><ele>710.25</ele><time>2026-04-03T13:37:04Z</time></trkpt><trkpt lat="40.073564568945926" lon="9.608167778853351"><ele>711.0</ele><time>2026-04-03T13:37:05Z</time></trkpt><trkpt lat="40.07368750276817" lon="9.60805049202219"><ele>711.0</ele><time>2026-04-03T13:37:06Z</time></trkpt><trkpt lat="40.07379955698089" lon="9.607917010938339"><ele>711.0</ele><time>2026-04-03T13:37:07Z</time></trkpt><trkpt lat="40.07390083274445" lon="9.607762932136549"><ele>711.0</ele><time>2026-04-03T13:37:08Z</time></trkpt><trkpt lat="40.073992062875845" lon="9.607598850981631"><ele>705.3333333333334</ele><time>2026-04-03T13:37:09Z</time></trkpt><trkpt lat="40.0740477394678" lon="9.607411815756965"><ele>699.6666666666667</ele><time>2026-04-03T13:37:10Z</time></trkpt><trkpt lat="40.074062805242235" lon="9.607198274993385"><ele>694.0</ele><time>2026-04-03T13:37:11Z</time></trkpt><trkpt lat="40.074083833150915" lon="9.606982788084412"><ele>690.6666666666667</ele><time>2026-04-03T13:37:12Z</time></trkpt><trkpt lat="40.07409868861684" lon="9.606768080855648"><ele>687.3333333333334</ele><time>2026-04-03T13:37:13Z</time></trkpt><trkpt lat="40.07412145301156" lon="9.606555002513424"><ele>684.0</ele><time>2026-04-03T13:37:14Z</time></trkpt><trkpt lat="40.07414740093201" lon="9.60636265475807"><ele>689.5</ele><time>2026-04-03T13:37:15Z</time></trkpt><trkpt lat="40.07421254890257" lon="9.606193345144463"><ele>695.0</ele><time>2026-04-03T13:37:16Z</time></trkpt><trkpt lat="40.074284378222636" lon="9.606038081631286"><ele>700.5</ele><time>2026-04-03T13:37:17Z</time></trkpt><trkpt lat="40.07437588045864" lon="9.605888926985838"><ele>706.0</ele><time>2026-04-03T13:37:18Z</time></trkpt><trkpt lat="40.074460689891126" lon="9.605725187703525"><ele>706.0</ele><time>2026-04-03T13:37:19Z</time></trkpt><trkpt lat="40.074561354281464" lon="9.605580500885987"><ele>706.0</ele><time>2026-04-03T13:37:20Z</time></trkpt><trkpt lat="40.07466408415995" lon="9.60542859951411"><ele>706.0</ele><time>2026-04-03T13:37:21Z</time></trkpt><trkpt lat="40.074762301344244" lon="9.605265288233692"><ele>708.3333333333334</ele><time>2026-04-03T13:37:22Z</time></trkpt><trkpt lat="40.07485834867703" lon="9.605104596307873"><ele>710.6666666666666</ele><time>2026-04-03T13:37:23Z</time></trkpt><trkpt lat="40.07498240907412" lon="9.604986306339296"><ele>713.0</ele><time>2026-04-03T13:37:24Z</time></trkpt><trkpt lat="40.075117584108504" lon="9.604897813265804"><ele>713.0</ele><time>2026-04-03T13:37:25Z</time></trkpt><trkpt lat="40.07526267000376" lon="9.604800568715584"><ele>713.0</ele><time>2026-04-03T13:37:26Z</time></trkpt><trkpt lat="40.075418953702794" lon="9.604725610241195"><ele>713.0</ele><time>2026-04-03T13:37:27Z</time></trkpt><trkpt lat="40.07557276779045" lon="9.604645479158691"><ele>713.0</ele><time>2026-04-03T13:37:28Z</time></trkpt><trkpt lat="40.075722725406216" lon="9.60455665860411"><ele>713.0</ele><time>2026-04-03T13:37:29Z</time></trkpt><trkpt lat="40.07585917795469" lon="9.604442722762698"><ele>713.0</ele><time>2026-04-03T13:37:30Z</time></trkpt><trkpt lat="40.07598046806678" lon="9.60429268222381"><ele>711.3333333333333</ele><time>2026-04-03T13:37:31Z</time></trkpt><trkpt lat="40.076095379800826" lon="9.604134231215468"><ele>709.6666666666666</ele><time>2026-04-03T13:37:32Z</time></trkpt><trkpt lat="40.07624033315879" lon="9.604023723705415"><ele>708.0</ele><time>2026-04-03T13:37:33Z</time></trkpt><trkpt lat="40.076383839953614" lon="9.603895581277598"><ele>708.0</ele><time>2026-04-03T13:37:34Z</time></trkpt><trkpt lat="40.076543214732304" lon="9.60378494492723"><ele>708.0</ele><time>2026-04-03T13:37:35Z</time></trkpt><trkpt lat="40.07669583854903" lon="9.603673551490369"><ele>708.0</ele><time>2026-04-03T13:37:36Z</time></trkpt><trkpt lat="40.07683184161448" lon="9.603559963812511"><ele>707.25</ele><time>2026-04-03T13:37:37Z</time></trkpt><trkpt lat="40.07695608502567" lon="9.603443002282"><ele>706.5</ele><time>2026-04-03T13:37:38Z</time></trkpt><trkpt lat="40.07706034151801" lon="9.603308261719233"><ele>705.75</ele><time>2026-04-03T13:37:39Z</time></trkpt><trkpt lat="40.07712255869338" lon="9.60313023787572"><ele>705.0</ele><time>2026-04-03T13:37:40Z</time></trkpt><trkpt lat="40.07714918367621" lon="9.602937673515191"><ele>704.0</ele><time>2026-04-03T13:37:41Z</time></trkpt><trkpt lat="40.07718017972803" lon="9.60275839991508"><ele>703.0</ele><time>2026-04-03T13:37:42Z</time></trkpt><trkpt lat="40.077224196056115" lon="9.602602724555371"><ele>702.0</ele><time>2026-04-03T13:37:43Z</time></trkpt><trkpt lat="40.07727929820335" lon="9.60246130370765"><ele>701.0</ele><time>2026-04-03T13:37:44Z</time></trkpt><trkpt lat="40.07737349312936" lon="9.602365605451926"><ele>703.75</ele><time>2026-04-03T13:37:45Z</time></trkpt><trkpt lat="40.07749326430596" lon="9.602372677347253"><ele>706.5</ele><time>2026-04-03T13:37:46Z</time></trkpt><trkpt lat="40.077603369156826" lon="9.602399541506651"><ele>709.25</ele><time>2026-04-03T13:37:47Z</time></trkpt><trkpt lat="40.07770212986426" lon="9.602526956154074"><ele>712.0</ele><time>2026-04-03T13:37:48Z</time></trkpt><trkpt lat="40.077732624432514" lon="9.60271213209568"><ele>712.0</ele><time>2026-04-03T13:37:49Z</time></trkpt><trkpt lat="40.077784055461166" lon="9.602895824243907"><ele>712.0</ele><time>2026-04-03T13:37:50Z</time></trkpt><trkpt lat="40.07784202808601" lon="9.6030804216565"><ele>712.0</ele><time>2026-04-03T13:37:51Z</time></trkpt><trkpt lat="40.07788796123051" lon="9.60326690597323"><ele>712.0</ele><time>2026-04-03T13:37:52Z</time></trkpt><trkpt lat="40.07794084170558" lon="9.603448190333097"><ele>712.0</ele><time>2026-04-03T13:37:53Z</time></trkpt><trkpt lat="40.07799432220302" lon="9.60361693490829"><ele>712.0</ele><time>2026-04-03T13:37:54Z</time></trkpt><trkpt lat="40.07799760150264" lon="9.603781809021967"><ele>712.0</ele><time>2026-04-03T13:37:55Z</time></trkpt><trkpt lat="40.077949851053525" lon="9.603930267883309"><ele>712.0</ele><time>2026-04-03T13:37:56Z</time></trkpt><trkpt lat="40.07789416143368" lon="9.604101751815968"><ele>712.0</ele><time>2026-04-03T13:37:57Z</time></trkpt><trkpt lat="40.07784687503895" lon="9.604279497347418"><ele>712.0</ele><time>2026-04-03T13:37:58Z</time></trkpt><trkpt lat="40.07779726798133" lon="9.604431494277335"><ele>712.0</ele><time>2026-04-03T13:37:59Z</time></trkpt><trkpt lat="40.07777366723471" lon="9.604573891076923"><ele>712.8</ele><time>2026-04-03T13:38:00Z</time></trkpt><trkpt lat="40.07780991655929" lon="9.604692608575276"><ele>713.6</ele><time>2026-04-03T13:38:01Z</time></trkpt><trkpt lat="40.07790465397854" lon="9.604766870299654"><ele>714.4</ele><time>2026-04-03T13:38:02Z</time></trkpt><trkpt lat="40.07801769719883" lon="9.60479590299659"><ele>715.1999999999999</ele><time>2026-04-03T13:38:03Z</time></trkpt><trkpt lat="40.07808101837344" lon="9.604812103177542"><ele>716.0</ele><time>2026-04-03T13:38:04Z</time></trkpt><trkpt lat="40.07817019127631" lon="9.604507321695966"><ele>715.0</ele><time>2026-04-03T13:38:05Z</time></trkpt><trkpt lat="40.078194668416444" lon="9.60437950337397"><ele>714.0</ele><time>2026-04-03T13:38:06Z</time></trkpt><trkpt lat="40.07822797349237" lon="9.604214843608434"><ele>713.0</ele><time>2026-04-03T13:38:07Z</time></trkpt><trkpt lat="40.07824910643562" lon="9.604060620315446"><ele>712.0</ele><time>2026-04-03T13:38:08Z</time></trkpt><trkpt lat="40.07827417169591" lon="9.603918066901786"><ele>707.5</ele><time>2026-04-03T13:38:09Z</time></trkpt><trkpt lat="40.078310832221426" lon="9.603783252618438"><ele>703.0</ele><time>2026-04-03T13:38:10Z</time></trkpt><trkpt lat="40.07835765994743" lon="9.60365788301508"><ele>698.5</ele><time>2026-04-03T13:38:11Z</time></trkpt><trkpt lat="40.07840119370473" lon="9.603519781118496"><ele>694.0</ele><time>2026-04-03T13:38:12Z</time></trkpt><trkpt lat="40.07844843399767" lon="9.60335633717704"><ele>694.0</ele><time>2026-04-03T13:38:13Z</time></trkpt><trkpt lat="40.078502053809714" lon="9.603190532130062"><ele>694.0</ele><time>2026-04-03T13:38:14Z</time></trkpt><trkpt lat="40.07855955802031" lon="9.603018101579611"><ele>694.0</ele><time>2026-04-03T13:38:15Z</time></trkpt><trkpt lat="40.078638375604086" lon="9.602857185328972"><ele>694.0</ele><time>2026-04-03T13:38:16Z</time></trkpt><trkpt lat="40.07875583561456" lon="9.602720117102875"><ele>696.0</ele><time>2026-04-03T13:38:17Z</time></trkpt><trkpt lat="40.07889562704464" lon="9.602606810525703"><ele>698.0</ele><time>2026-04-03T13:38:18Z</time></trkpt><trkpt lat="40.079016143929586" lon="9.602515284870577"><ele>700.0</ele><time>2026-04-03T13:38:18.999Z</time></trkpt><trkpt lat="40.07912657874179" lon="9.602430415262837"><ele>702.0</ele><time>2026-04-03T13:38:19.999Z</time></trkpt><trkpt lat="40.079264104167294" lon="9.602352604859915"><ele>696.3333333333334</ele><time>2026-04-03T13:38:20.999Z</time></trkpt><trkpt lat="40.07941350657614" lon="9.602290489246032"><ele>690.6666666666667</ele><time>2026-04-03T13:38:21.999Z</time></trkpt><trkpt lat="40.079571339383726" lon="9.602242323703024"><ele>685.0</ele><time>2026-04-03T13:38:23Z</time></trkpt><trkpt lat="40.07973229762858" lon="9.602213338237615"><ele>685.0</ele><time>2026-04-03T13:38:24Z</time></trkpt><trkpt lat="40.07989634009426" lon="9.602190617418165"><ele>685.0</ele><time>2026-04-03T13:38:25Z</time></trkpt><trkpt lat="40.08005834808494" lon="9.6021861924981"><ele>685.0</ele><time>2026-04-03T13:38:26Z</time></trkpt><trkpt lat="40.080216294184986" lon="9.602225525884458"><ele>682.5</ele><time>2026-04-03T13:38:27Z</time></trkpt><trkpt lat="40.08035695173138" lon="9.602298174875724"><ele>680.0</ele><time>2026-04-03T13:38:28Z</time></trkpt><trkpt lat="40.08049557481117" lon="9.602341441790902"><ele>677.5</ele><time>2026-04-03T13:38:29Z</time></trkpt><trkpt lat="40.08063514411091" lon="9.602349477730783"><ele>675.0</ele><time>2026-04-03T13:38:30Z</time></trkpt><trkpt lat="40.08077040207312" lon="9.602294455929927"><ele>671.3333333333334</ele><time>2026-04-03T13:38:31Z</time></trkpt><trkpt lat="40.0809238813745" lon="9.602206581990636"><ele>667.6666666666667</ele><time>2026-04-03T13:38:32Z</time></trkpt><trkpt lat="40.08111347225882" lon="9.60205703022163"><ele>664.0</ele><time>2026-04-03T13:38:33Z</time></trkpt><trkpt lat="40.0812527049846" lon="9.602026972313134"><ele>664.0</ele><time>2026-04-03T13:38:34Z</time></trkpt><trkpt lat="40.0813795853627" lon="9.602064280967845"><ele>664.0</ele><time>2026-04-03T13:38:35Z</time></trkpt><trkpt lat="40.08149309496656" lon="9.60216749333771"><ele>664.0</ele><time>2026-04-03T13:38:36Z</time></trkpt><trkpt lat="40.08160053240275" lon="9.602247116677791"><ele>664.0</ele><time>2026-04-03T13:38:37Z</time></trkpt><trkpt lat="40.081718333061104" lon="9.602257624470512"><ele>665.75</ele><time>2026-04-03T13:38:38Z</time></trkpt><trkpt lat="40.081827649073674" lon="9.602195361797332"><ele>667.5</ele><time>2026-04-03T13:38:39Z</time></trkpt><trkpt lat="40.081924316888816" lon="9.602107581548116"><ele>669.25</ele><time>2026-04-03T13:38:40Z</time></trkpt><trkpt lat="40.08203285962107" lon="9.602014063403104"><ele>671.0</ele><time>2026-04-03T13:38:41Z</time></trkpt><trkpt lat="40.082149836424314" lon="9.601950420496168"><ele>671.0</ele><time>2026-04-03T13:38:42Z</time></trkpt><trkpt lat="40.08228344249508" lon="9.601913187609775"><ele>671.0</ele><time>2026-04-03T13:38:43Z</time></trkpt><trkpt lat="40.082428991161684" lon="9.601887957246138"><ele>671.0</ele><time>2026-04-03T13:38:44Z</time></trkpt><trkpt lat="40.0825838285918" lon="9.601881081454465"><ele>671.0</ele><time>2026-04-03T13:38:45Z</time></trkpt><trkpt lat="40.082737024605336" lon="9.601905186508162"><ele>667.75</ele><time>2026-04-03T13:38:46Z</time></trkpt><trkpt lat="40.082881588695386" lon="9.601954376962492"><ele>664.5</ele><time>2026-04-03T13:38:47Z</time></trkpt><trkpt lat="40.083024443615656" lon="9.601983895120247"><ele>661.25</ele><time>2026-04-03T13:38:48Z</time></trkpt><trkpt lat="40.08317262251987" lon="9.601963535847345"><ele>658.0</ele><time>2026-04-03T13:38:49Z</time></trkpt><trkpt lat="40.083311875257166" lon="9.60188926876063"><ele>657.25</ele><time>2026-04-03T13:38:50Z</time></trkpt><trkpt lat="40.08343112532641" lon="9.601772001381311"><ele>656.5</ele><time>2026-04-03T13:38:51Z</time></trkpt><trkpt lat="40.08355923073318" lon="9.601690218429118"><ele>655.75</ele><time>2026-04-03T13:38:52Z</time></trkpt><trkpt lat="40.08369583332551" lon="9.601686463996538"><ele>655.0</ele><time>2026-04-03T13:38:53Z</time></trkpt><trkpt lat="40.083821642524015" lon="9.601760205543156"><ele>655.0</ele><time>2026-04-03T13:38:54Z</time></trkpt><trkpt lat="40.08391971228451" lon="9.601893020717377"><ele>655.0</ele><time>2026-04-03T13:38:55Z</time></trkpt><trkpt lat="40.08396612022342" lon="9.602094342532114"><ele>655.0</ele><time>2026-04-03T13:38:56Z</time></trkpt><trkpt lat="40.08403433625962" lon="9.602253577246229"><ele>655.0</ele><time>2026-04-03T13:38:57Z</time></trkpt><trkpt lat="40.0841246668982" lon="9.60238627134243"><ele>659.75</ele><time>2026-04-03T13:38:58Z</time></trkpt><trkpt lat="40.08423178831933" lon="9.602487240650412"><ele>664.5</ele><time>2026-04-03T13:38:59Z</time></trkpt><trkpt lat="40.08436498254134" lon="9.602536962945615"><ele>669.25</ele><time>2026-04-03T13:39:00Z</time></trkpt><trkpt lat="40.0845114013049" lon="9.60257485059944"><ele>674.0</ele><time>2026-04-03T13:39:01Z</time></trkpt><trkpt lat="40.08464762619403" lon="9.602647674773237"><ele>674.0</ele><time>2026-04-03T13:39:02Z</time></trkpt><trkpt lat="40.08478147301258" lon="9.602738573979376"><ele>674.0</ele><time>2026-04-03T13:39:03Z</time></trkpt><trkpt lat="40.08491983097957" lon="9.602822894806478"><ele>674.0</ele><time>2026-04-03T13:39:04Z</time></trkpt><trkpt lat="40.08506170000292" lon="9.602901429254665"><ele>681.0</ele><time>2026-04-03T13:39:05Z</time></trkpt><trkpt lat="40.08520373984536" lon="9.602979040901106"><ele>688.0</ele><time>2026-04-03T13:39:06Z</time></trkpt><trkpt lat="40.08535353964143" lon="9.603030142192425"><ele>695.0</ele><time>2026-04-03T13:39:07Z</time></trkpt><trkpt lat="40.085510828378396" lon="9.603017937967898"><ele>695.0</ele><time>2026-04-03T13:39:08Z</time></trkpt><trkpt lat="40.085657941302934" lon="9.602938082757314"><ele>695.0</ele><time>2026-04-03T13:39:09Z</time></trkpt><trkpt lat="40.08579595243724" lon="9.602832871637379"><ele>695.0</ele><time>2026-04-03T13:39:10Z</time></trkpt><trkpt lat="40.08592828146744" lon="9.602744680875404"><ele>695.0</ele><time>2026-04-03T13:39:11Z</time></trkpt><trkpt lat="40.08607128002021" lon="9.602722148104029"><ele>695.0</ele><time>2026-04-03T13:39:12Z</time></trkpt><trkpt lat="40.08621408075458" lon="9.602759781918273"><ele>695.0</ele><time>2026-04-03T13:39:13Z</time></trkpt><trkpt lat="40.086343224236316" lon="9.602860950040712"><ele>695.0</ele><time>2026-04-03T13:39:14Z</time></trkpt><trkpt lat="40.0864470865183" lon="9.602978948966394"><ele>695.0</ele><time>2026-04-03T13:39:15Z</time></trkpt><trkpt lat="40.086547349614975" lon="9.603058864448801"><ele>695.0</ele><time>2026-04-03T13:39:16Z</time></trkpt><trkpt lat="40.086667083978654" lon="9.603037460625638"><ele>695.0</ele><time>2026-04-03T13:39:17Z</time></trkpt><trkpt lat="40.086780020659376" lon="9.602949080104338"><ele>695.0</ele><time>2026-04-03T13:39:18Z</time></trkpt><trkpt lat="40.086900311074956" lon="9.60284471568462"><ele>687.0</ele><time>2026-04-03T13:39:19Z</time></trkpt><trkpt lat="40.087018277061674" lon="9.60274782476322"><ele>679.0</ele><time>2026-04-03T13:39:20Z</time></trkpt><trkpt lat="40.08713680372283" lon="9.602644932173366"><ele>671.0</ele><time>2026-04-03T13:39:21Z</time></trkpt><trkpt lat="40.08725787545943" lon="9.602544497211808"><ele>663.0</ele><time>2026-04-03T13:39:22Z</time></trkpt><trkpt lat="40.08737872925833" lon="9.602432554009859"><ele>673.3333333333334</ele><time>2026-04-03T13:39:23Z</time></trkpt><trkpt lat="40.087481589020754" lon="9.602295928093568"><ele>683.6666666666667</ele><time>2026-04-03T13:39:24Z</time></trkpt><trkpt lat="40.087602190610184" lon="9.602183616479493"><ele>694.0</ele><time>2026-04-03T13:39:25Z</time></trkpt><trkpt lat="40.08773234740777" lon="9.60204417097996"><ele>682.6666666666667</ele><time>2026-04-03T13:39:26Z</time></trkpt><trkpt lat="40.08785957033122" lon="9.601908102132416"><ele>671.3333333333334</ele><time>2026-04-03T13:39:27Z</time></trkpt><trkpt lat="40.08798253722776" lon="9.60180480133812"><ele>660.0</ele><time>2026-04-03T13:39:28Z</time></trkpt><trkpt lat="40.088105738461174" lon="9.601695779103133"><ele>660.0</ele><time>2026-04-03T13:39:29Z</time></trkpt><trkpt lat="40.08822850795701" lon="9.60158352304368"><ele>660.0</ele><time>2026-04-03T13:39:30Z</time></trkpt><trkpt lat="40.08835137136102" lon="9.601471127243363"><ele>660.0</ele><time>2026-04-03T13:39:31Z</time></trkpt><trkpt lat="40.08848724475418" lon="9.601332255294238"><ele>662.3333333333334</ele><time>2026-04-03T13:39:32Z</time></trkpt><trkpt lat="40.088627089079516" lon="9.601247220101154"><ele>664.6666666666667</ele><time>2026-04-03T13:39:33Z</time></trkpt><trkpt lat="40.08875009389244" lon="9.601126317239656"><ele>667.0</ele><time>2026-04-03T13:39:34Z</time></trkpt><trkpt lat="40.08887492214799" lon="9.600992183028778"><ele>667.0</ele><time>2026-04-03T13:39:35Z</time></trkpt><trkpt lat="40.08900539941086" lon="9.600871506977315"><ele>667.0</ele><time>2026-04-03T13:39:36Z</time></trkpt><trkpt lat="40.08913589555669" lon="9.60075187610387"><ele>667.0</ele><time>2026-04-03T13:39:37Z</time></trkpt><trkpt lat="40.08926585732435" lon="9.600631107811214"><ele>667.0</ele><time>2026-04-03T13:39:38Z</time></trkpt><trkpt lat="40.08940159824145" lon="9.60048427232981"><ele>667.0</ele><time>2026-04-03T13:39:39Z</time></trkpt><trkpt lat="40.08953363583397" lon="9.600338389877994"><ele>667.0</ele><time>2026-04-03T13:39:40Z</time></trkpt><trkpt lat="40.08965018354655" lon="9.600208966537277"><ele>667.0</ele><time>2026-04-03T13:39:41Z</time></trkpt><trkpt lat="40.08976916150339" lon="9.600033536932985"><ele>667.0</ele><time>2026-04-03T13:39:42Z</time></trkpt><trkpt lat="40.08982423856554" lon="9.59980833055641"><ele>667.0</ele><time>2026-04-03T13:39:43Z</time></trkpt><trkpt lat="40.08995275175013" lon="9.599648554871711"><ele>669.3333333333334</ele><time>2026-04-03T13:39:44Z</time></trkpt><trkpt lat="40.09009003486008" lon="9.599509876371236"><ele>671.6666666666666</ele><time>2026-04-03T13:39:45Z</time></trkpt><trkpt lat="40.090221209458186" lon="9.599382567642422"><ele>674.0</ele><time>2026-04-03T13:39:46Z</time></trkpt><trkpt lat="40.0903891757631" lon="9.599281993118547"><ele>674.0</ele><time>2026-04-03T13:39:47Z</time></trkpt><trkpt lat="40.090566912435" lon="9.59919317953189"><ele>674.0</ele><time>2026-04-03T13:39:48Z</time></trkpt><trkpt lat="40.09073560655092" lon="9.599090883382521"><ele>674.0</ele><time>2026-04-03T13:39:49Z</time></trkpt><trkpt lat="40.090896955860096" lon="9.599016039689035"><ele>680.6666666666666</ele><time>2026-04-03T13:39:50Z</time></trkpt><trkpt lat="40.09107657875565" lon="9.598961929528073"><ele>687.3333333333334</ele><time>2026-04-03T13:39:51Z</time></trkpt><trkpt lat="40.09126184473768" lon="9.598908056719436"><ele>694.0</ele><time>2026-04-03T13:39:52Z</time></trkpt><trkpt lat="40.09143140809728" lon="9.598811594227255"><ele>686.3333333333334</ele><time>2026-04-03T13:39:53Z</time></trkpt><trkpt lat="40.091575160275006" lon="9.598641606622209"><ele>678.6666666666666</ele><time>2026-04-03T13:39:54Z</time></trkpt><trkpt lat="40.09173830244733" lon="9.598535912099578"><ele>671.0</ele><time>2026-04-03T13:39:55Z</time></trkpt><trkpt lat="40.091911643819586" lon="9.59844392528828"><ele>671.0</ele><time>2026-04-03T13:39:56Z</time></trkpt><trkpt lat="40.09208194387253" lon="9.598336852140147"><ele>671.0</ele><time>2026-04-03T13:39:57Z</time></trkpt><trkpt lat="40.09224402920749" lon="9.598223811631595"><ele>671.0</ele><time>2026-04-03T13:39:58Z</time></trkpt><trkpt lat="40.09241212055026" lon="9.598130097666905"><ele>668.0</ele><time>2026-04-03T13:39:59Z</time></trkpt><trkpt lat="40.092573261455684" lon="9.598005706099858"><ele>665.0</ele><time>2026-04-03T13:40:00Z</time></trkpt><trkpt lat="40.09273839364721" lon="9.597877037971273"><ele>662.0</ele><time>2026-04-03T13:40:01Z</time></trkpt><trkpt lat="40.092902795050726" lon="9.597740508182962"><ele>662.0</ele><time>2026-04-03T13:40:02Z</time></trkpt><trkpt lat="40.09306660747411" lon="9.597604826173288"><ele>662.0</ele><time>2026-04-03T13:40:03Z</time></trkpt><trkpt lat="40.09321791331819" lon="9.597449758448759"><ele>662.0</ele><time>2026-04-03T13:40:04Z</time></trkpt><trkpt lat="40.09337590541358" lon="9.597305938095909"><ele>661.3333333333333</ele><time>2026-04-03T13:40:05Z</time></trkpt><trkpt lat="40.093521443331966" lon="9.597129359254856"><ele>660.6666666666666</ele><time>2026-04-03T13:40:06Z</time></trkpt><trkpt lat="40.09361686302395" lon="9.596931443150494"><ele>660.0</ele><time>2026-04-03T13:40:07Z</time></trkpt><trkpt lat="40.093755767833166" lon="9.59680843318116"><ele>660.0</ele><time>2026-04-03T13:40:08Z</time></trkpt><trkpt lat="40.09392827047763" lon="9.596679278722037"><ele>660.0</ele><time>2026-04-03T13:40:09Z</time></trkpt><trkpt lat="40.094098401134794" lon="9.596582867300988"><ele>660.0</ele><time>2026-04-03T13:40:10Z</time></trkpt><trkpt lat="40.09428861643987" lon="9.596517065084322"><ele>670.6666666666666</ele><time>2026-04-03T13:40:11Z</time></trkpt><trkpt lat="40.094458816845936" lon="9.596448526487306"><ele>681.3333333333333</ele><time>2026-04-03T13:40:12Z</time></trkpt><trkpt lat="40.09462690779967" lon="9.596370522640338"><ele>692.0</ele><time>2026-04-03T13:40:13Z</time></trkpt><trkpt lat="40.09480224919825" lon="9.596291994668936"><ele>698.0</ele><time>2026-04-03T13:40:14Z</time></trkpt><trkpt lat="40.094983159367786" lon="9.596229697128242"><ele>704.0</ele><time>2026-04-03T13:40:15Z</time></trkpt><trkpt lat="40.09516035721429" lon="9.596144942384463"><ele>710.0</ele><time>2026-04-03T13:40:16Z</time></trkpt><trkpt lat="40.09534672616931" lon="9.596158272630252"><ele>710.0</ele><time>2026-04-03T13:40:17Z</time></trkpt><trkpt lat="40.09555048350028" lon="9.596228375695336"><ele>710.0</ele><time>2026-04-03T13:40:18Z</time></trkpt><trkpt lat="40.09574606586928" lon="9.5962846875177"><ele>710.0</ele><time>2026-04-03T13:40:19Z</time></trkpt><trkpt lat="40.09592289988959" lon="9.596304439099894"><ele>710.3333333333333</ele><time>2026-04-03T13:40:20Z</time></trkpt><trkpt lat="40.09611169229383" lon="9.596347814769064"><ele>710.6666666666666</ele><time>2026-04-03T13:40:21Z</time></trkpt><trkpt lat="40.09630393173461" lon="9.596367059336801"><ele>711.0</ele><time>2026-04-03T13:40:22Z</time></trkpt><trkpt lat="40.09650239274814" lon="9.596386227961283"><ele>710.3333333333334</ele><time>2026-04-03T13:40:23Z</time></trkpt><trkpt lat="40.09670040325446" lon="9.596431365759793"><ele>709.6666666666667</ele><time>2026-04-03T13:40:24Z</time></trkpt><trkpt lat="40.096906208015305" lon="9.59643614841126"><ele>709.0</ele><time>2026-04-03T13:40:25Z</time></trkpt><trkpt lat="40.097106943179604" lon="9.59647056445967"><ele>709.0</ele><time>2026-04-03T13:40:25.999Z</time></trkpt><trkpt lat="40.097310412645555" lon="9.596489462659324"><ele>709.0</ele><time>2026-04-03T13:40:26.999Z</time></trkpt><trkpt lat="40.09749183605158" lon="9.596468703141731"><ele>709.0</ele><time>2026-04-03T13:40:27.999Z</time></trkpt><trkpt lat="40.09767307900098" lon="9.596484432044967"><ele>707.6666666666667</ele><time>2026-04-03T13:40:29Z</time></trkpt><trkpt lat="40.09783387849021" lon="9.596484939961426"><ele>706.3333333333334</ele><time>2026-04-03T13:40:30Z</time></trkpt><trkpt lat="40.09796842671431" lon="9.596445173315708"><ele>705.0</ele><time>2026-04-03T13:40:31Z</time></trkpt><trkpt lat="40.098122910891995" lon="9.596421869581983"><ele>705.3333333333334</ele><time>2026-04-03T13:40:32Z</time></trkpt><trkpt lat="40.09826956091871" lon="9.59632787481703"><ele>705.6666666666667</ele><time>2026-04-03T13:40:33Z</time></trkpt><trkpt lat="40.098369520896505" lon="9.596137114611675"><ele>706.0</ele><time>2026-04-03T13:40:34Z</time></trkpt><trkpt lat="40.098452795427505" lon="9.595968162085224"><ele>700.6666666666667</ele><time>2026-04-03T13:40:35Z</time></trkpt><trkpt lat="40.098516497140935" lon="9.595790404232794"><ele>695.3333333333334</ele><time>2026-04-03T13:40:36Z</time></trkpt><trkpt lat="40.098602422887616" lon="9.595616372698746"><ele>690.0</ele><time>2026-04-03T13:40:37Z</time></trkpt><trkpt lat="40.09868496424316" lon="9.595430384096487"><ele>686.0</ele><time>2026-04-03T13:40:38Z</time></trkpt><trkpt lat="40.098785469836734" lon="9.59524868223102"><ele>682.0</ele><time>2026-04-03T13:40:39Z</time></trkpt><trkpt lat="40.09890122998672" lon="9.595092376518185"><ele>678.0</ele><time>2026-04-03T13:40:40Z</time></trkpt><trkpt lat="40.09902270188385" lon="9.594960078542597"><ele>687.3333333333334</ele><time>2026-04-03T13:40:41Z</time></trkpt><trkpt lat="40.099159039512344" lon="9.5948494193484"><ele>696.6666666666667</ele><time>2026-04-03T13:40:42Z</time></trkpt><trkpt lat="40.099303908295525" lon="9.594752363289466"><ele>706.0</ele><time>2026-04-03T13:40:43Z</time></trkpt><trkpt lat="40.0995011954116" lon="9.594621295718625"><ele>706.0</ele><time>2026-04-03T13:40:44Z</time></trkpt><trkpt lat="40.09965564692005" lon="9.594516976454965"><ele>706.0</ele><time>2026-04-03T13:40:45Z</time></trkpt><trkpt lat="40.09982140440035" lon="9.594405324444422"><ele>706.0</ele><time>2026-04-03T13:40:46Z</time></trkpt><trkpt lat="40.099984101094556" lon="9.594295734155486"><ele>702.0</ele><time>2026-04-03T13:40:47Z</time></trkpt><trkpt lat="40.100150676158236" lon="9.594183916158107"><ele>698.0</ele><time>2026-04-03T13:40:48Z</time></trkpt><trkpt lat="40.10031467571415" lon="9.594074962510298"><ele>694.0</ele><time>2026-04-03T13:40:49Z</time></trkpt><trkpt lat="40.100483279036965" lon="9.593958286003966"><ele>694.0</ele><time>2026-04-03T13:40:50Z</time></trkpt><trkpt lat="40.10063315036994" lon="9.593837389464014"><ele>694.0</ele><time>2026-04-03T13:40:51Z</time></trkpt><trkpt lat="40.1007931159138" lon="9.593665254109805"><ele>694.0</ele><time>2026-04-03T13:40:52Z</time></trkpt><trkpt lat="40.100923483155285" lon="9.593495532052922"><ele>693.6666666666667</ele><time>2026-04-03T13:40:53Z</time></trkpt><trkpt lat="40.101055189390934" lon="9.59329406532868"><ele>693.3333333333334</ele><time>2026-04-03T13:40:54Z</time></trkpt><trkpt lat="40.1011813916" lon="9.593098447794139"><ele>693.0</ele><time>2026-04-03T13:40:55Z</time></trkpt><trkpt lat="40.10129092191719" lon="9.59289403012766"><ele>696.3333333333334</ele><time>2026-04-03T13:40:56Z</time></trkpt><trkpt lat="40.101416906539306" lon="9.592728170575462"><ele>699.6666666666667</ele><time>2026-04-03T13:40:57Z</time></trkpt><trkpt lat="40.10154235331662" lon="9.592530786577072"><ele>703.0</ele><time>2026-04-03T13:40:58Z</time></trkpt><trkpt lat="40.10164976506764" lon="9.592331612558482"><ele>703.0</ele><time>2026-04-03T13:40:59Z</time></trkpt><trkpt lat="40.101774217391366" lon="9.592176631236274"><ele>703.0</ele><time>2026-04-03T13:41:00Z</time></trkpt><trkpt lat="40.10185987986568" lon="9.59201933909284"><ele>703.0</ele><time>2026-04-03T13:41:01Z</time></trkpt><trkpt lat="40.10198701567988" lon="9.59191567279874"><ele>695.25</ele><time>2026-04-03T13:41:02Z</time></trkpt><trkpt lat="40.10211635937714" lon="9.591809693195305"><ele>687.5</ele><time>2026-04-03T13:41:03Z</time></trkpt><trkpt lat="40.102250121531185" lon="9.591732496464168"><ele>679.75</ele><time>2026-04-03T13:41:04Z</time></trkpt><trkpt lat="40.10234977518908" lon="9.591609225381436"><ele>672.0</ele><time>2026-04-03T13:41:05Z</time></trkpt><trkpt lat="40.10240196989303" lon="9.591450967712476"><ele>675.0</ele><time>2026-04-03T13:41:06Z</time></trkpt><trkpt lat="40.1024540449051" lon="9.591289735790944"><ele>678.0</ele><time>2026-04-03T13:41:07Z</time></trkpt><trkpt lat="40.102527708451746" lon="9.591160411687367"><ele>681.0</ele><time>2026-04-03T13:41:08Z</time></trkpt><trkpt lat="40.102634601073845" lon="9.591037616789531"><ele>684.0</ele><time>2026-04-03T13:41:09Z</time></trkpt><trkpt lat="40.102753840391145" lon="9.590896030336138"><ele>684.0</ele><time>2026-04-03T13:41:10Z</time></trkpt><trkpt lat="40.102861082612215" lon="9.590732982067054"><ele>684.0</ele><time>2026-04-03T13:41:11Z</time></trkpt><trkpt lat="40.10296176658807" lon="9.590559159745013"><ele>684.0</ele><time>2026-04-03T13:41:12Z</time></trkpt><trkpt lat="40.103066867680006" lon="9.590378615767436"><ele>689.6666666666666</ele><time>2026-04-03T13:41:13Z</time></trkpt><trkpt lat="40.10317300463801" lon="9.590194594553177"><ele>695.3333333333333</ele><time>2026-04-03T13:41:14Z</time></trkpt><trkpt lat="40.103267497022024" lon="9.590000425694141"><ele>701.0</ele><time>2026-04-03T13:41:15Z</time></trkpt><trkpt lat="40.103378898208526" lon="9.589827828763449"><ele>701.0</ele><time>2026-04-03T13:41:16Z</time></trkpt><trkpt lat="40.103490284356965" lon="9.589669059503453"><ele>701.0</ele><time>2026-04-03T13:41:17Z</time></trkpt><trkpt lat="40.103596775797165" lon="9.58952207163987"><ele>701.0</ele><time>2026-04-03T13:41:18Z</time></trkpt><trkpt lat="40.1036786350303" lon="9.589365424369793"><ele>694.3333333333333</ele><time>2026-04-03T13:41:19Z</time></trkpt><trkpt lat="40.10371093393645" lon="9.589170550279599"><ele>687.6666666666666</ele><time>2026-04-03T13:41:20Z</time></trkpt><trkpt lat="40.10369580519854" lon="9.58895247076554"><ele>681.0</ele><time>2026-04-03T13:41:21Z</time></trkpt><trkpt lat="40.10366532303717" lon="9.588765914681566"><ele>678.6666666666666</ele><time>2026-04-03T13:41:22Z</time></trkpt><trkpt lat="40.10368628913524" lon="9.588571112993362"><ele>676.3333333333333</ele><time>2026-04-03T13:41:23Z</time></trkpt><trkpt lat="40.103745784674906" lon="9.588387492961797"><ele>674.0</ele><time>2026-04-03T13:41:24Z</time></trkpt><trkpt lat="40.10381457076446" lon="9.588213355410348"><ele>674.0</ele><time>2026-04-03T13:41:25Z</time></trkpt><trkpt lat="40.10384936929823" lon="9.588031429171636"><ele>674.0</ele><time>2026-04-03T13:41:26Z</time></trkpt><trkpt lat="40.10382888831135" lon="9.587852215032964"><ele>674.0</ele><time>2026-04-03T13:41:27Z</time></trkpt><trkpt lat="40.103737809695396" lon="9.587695856752818"><ele>674.0</ele><time>2026-04-03T13:41:28Z</time></trkpt><trkpt lat="40.103680581814714" lon="9.587550233332294"><ele>673.75</ele><time>2026-04-03T13:41:29Z</time></trkpt><trkpt lat="40.10367458062816" lon="9.587380680241907"><ele>673.5</ele><time>2026-04-03T13:41:30Z</time></trkpt><trkpt lat="40.103728717921925" lon="9.587216450101613"><ele>673.25</ele><time>2026-04-03T13:41:31Z</time></trkpt><trkpt lat="40.10380345104456" lon="9.587061051626717"><ele>673.0</ele><time>2026-04-03T13:41:32Z</time></trkpt><trkpt lat="40.1038624195605" lon="9.586888886216599"><ele>673.0</ele><time>2026-04-03T13:41:33Z</time></trkpt><trkpt lat="40.10389993989636" lon="9.586697531855389"><ele>673.0</ele><time>2026-04-03T13:41:34Z</time></trkpt><trkpt lat="40.103880447481494" lon="9.586488603923398"><ele>673.0</ele><time>2026-04-03T13:41:35Z</time></trkpt><trkpt lat="40.10381929559838" lon="9.586298076481471"><ele>673.25</ele><time>2026-04-03T13:41:36Z</time></trkpt><trkpt lat="40.10376362112209" lon="9.586131034748531"><ele>673.5</ele><time>2026-04-03T13:41:37Z</time></trkpt><trkpt lat="40.103721323027436" lon="9.58600930044189"><ele>673.75</ele><time>2026-04-03T13:41:38Z</time></trkpt><trkpt lat="40.103752986493745" lon="9.585889373923663"><ele>674.0</ele><time>2026-04-03T13:41:39Z</time></trkpt><trkpt lat="40.1038374449745" lon="9.585793416464764"><ele>674.0</ele><time>2026-04-03T13:41:40Z</time></trkpt><trkpt lat="40.10391618469538" lon="9.585676588305944"><ele>674.0</ele><time>2026-04-03T13:41:41Z</time></trkpt><trkpt lat="40.10393648733996" lon="9.585502547067739"><ele>674.0</ele><time>2026-04-03T13:41:42Z</time></trkpt><trkpt lat="40.10392100580003" lon="9.585318214043816"><ele>674.0</ele><time>2026-04-03T13:41:43Z</time></trkpt><trkpt lat="40.103890941664844" lon="9.58513371702941"><ele>677.75</ele><time>2026-04-03T13:41:44Z</time></trkpt><trkpt lat="40.10384959903773" lon="9.584957545309189"><ele>681.5</ele><time>2026-04-03T13:41:45Z</time></trkpt><trkpt lat="40.10375967974658" lon="9.584804598345457"><ele>685.25</ele><time>2026-04-03T13:41:46Z</time></trkpt><trkpt lat="40.103645769838344" lon="9.584667801485944"><ele>689.0</ele><time>2026-04-03T13:41:47Z</time></trkpt><trkpt lat="40.10353936091011" lon="9.58452461020392"><ele>687.0</ele><time>2026-04-03T13:41:48Z</time></trkpt><trkpt lat="40.10340618741196" lon="9.584468591448411"><ele>685.0</ele><time>2026-04-03T13:41:49Z</time></trkpt><trkpt lat="40.10330562561594" lon="9.584381104481288"><ele>683.0</ele><time>2026-04-03T13:41:50Z</time></trkpt><trkpt lat="40.10322387031336" lon="9.584267019444622"><ele>681.0</ele><time>2026-04-03T13:41:51Z</time></trkpt><trkpt lat="40.103164300155406" lon="9.584128844225706"><ele>681.0</ele><time>2026-04-03T13:41:52Z</time></trkpt><trkpt lat="40.10315753910783" lon="9.583968996341971"><ele>681.0</ele><time>2026-04-03T13:41:53Z</time></trkpt><trkpt lat="40.10318110463666" lon="9.583820573910677"><ele>681.0</ele><time>2026-04-03T13:41:54Z</time></trkpt><trkpt lat="40.10324599702421" lon="9.583703757831918"><ele>681.0</ele><time>2026-04-03T13:41:55Z</time></trkpt><trkpt lat="40.103337147956964" lon="9.583615282037968"><ele>688.0</ele><time>2026-04-03T13:41:56Z</time></trkpt><trkpt lat="40.10343926670788" lon="9.58353614264287"><ele>695.0</ele><time>2026-04-03T13:41:57Z</time></trkpt><trkpt lat="40.103557262245246" lon="9.58345908642132"><ele>702.0</ele><time>2026-04-03T13:41:58Z</time></trkpt><trkpt lat="40.10367371842322" lon="9.58335664346519"><ele>709.0</ele><time>2026-04-03T13:41:59Z</time></trkpt><trkpt lat="40.10379333327199" lon="9.583231712305087"><ele>709.0</ele><time>2026-04-03T13:42:00Z</time></trkpt><trkpt lat="40.10391219991704" lon="9.583101499229295"><ele>709.0</ele><time>2026-04-03T13:42:01Z</time></trkpt><trkpt lat="40.10402833796408" lon="9.582977458934884"><ele>709.0</ele><time>2026-04-03T13:42:02Z</time></trkpt><trkpt lat="40.10413794423349" lon="9.582859120004207"><ele>709.0</ele><time>2026-04-03T13:42:03Z</time></trkpt><trkpt lat="40.104246415498764" lon="9.582748049950155"><ele>709.75</ele><time>2026-04-03T13:42:04Z</time></trkpt><trkpt lat="40.1043570922779" lon="9.582646240340082"><ele>710.5</ele><time>2026-04-03T13:42:05Z</time></trkpt><trkpt lat="40.10447822023607" lon="9.582600560463568"><ele>711.25</ele><time>2026-04-03T13:42:06Z</time></trkpt><trkpt lat="40.10460420309342" lon="9.582594106119043"><ele>712.0</ele><time>2026-04-03T13:42:07Z</time></trkpt><trkpt lat="40.10472466302395" lon="9.582559033661829"><ele>712.0</ele><time>2026-04-03T13:42:08Z</time></trkpt><trkpt lat="40.10482553530221" lon="9.582443004044187"><ele>712.0</ele><time>2026-04-03T13:42:09Z</time></trkpt><trkpt lat="40.104911644937715" lon="9.582300242057643"><ele>712.0</ele><time>2026-04-03T13:42:10Z</time></trkpt><trkpt lat="40.105000241359896" lon="9.58215127213522"><ele>712.0</ele><time>2026-04-03T13:42:11Z</time></trkpt><trkpt lat="40.1050922789186" lon="9.582024387437025"><ele>716.0</ele><time>2026-04-03T13:42:12Z</time></trkpt><trkpt lat="40.10515891715743" lon="9.581866636124918"><ele>720.0</ele><time>2026-04-03T13:42:13Z</time></trkpt><trkpt lat="40.10519015689922" lon="9.58169017270579"><ele>724.0</ele><time>2026-04-03T13:42:14Z</time></trkpt><trkpt lat="40.105215019255134" lon="9.58150844567434"><ele>728.0</ele><time>2026-04-03T13:42:15Z</time></trkpt><trkpt lat="40.10524777618436" lon="9.581340685648216"><ele>728.0</ele><time>2026-04-03T13:42:16Z</time></trkpt><trkpt lat="40.10526103177058" lon="9.581189231405355"><ele>728.0</ele><time>2026-04-03T13:42:17Z</time></trkpt><trkpt lat="40.1052419057998" lon="9.581053038225555"><ele>728.0</ele><time>2026-04-03T13:42:17.999Z</time></trkpt><trkpt lat="40.10512952699802" lon="9.580978375432794"><ele>728.0</ele><time>2026-04-03T13:42:18.999Z</time></trkpt><trkpt lat="40.105024076818914" lon="9.580926399412531"><ele>727.2</ele><time>2026-04-03T13:42:19.999Z</time></trkpt><trkpt lat="40.10493632058343" lon="9.580895449193882"><ele>726.4</ele><time>2026-04-03T13:42:20.999Z</time></trkpt><trkpt lat="40.104813320763384" lon="9.580851314096696"><ele>725.6</ele><time>2026-04-03T13:42:22.999Z</time></trkpt><trkpt lat="40.10473357646019" lon="9.580816271736936"><ele>724.8000000000001</ele><time>2026-04-03T13:42:23.999Z</time></trkpt><trkpt lat="40.10465255085858" lon="9.580772411671111"><ele>724.0</ele><time>2026-04-03T13:42:25.999Z</time></trkpt><trkpt lat="40.1045894531364" lon="9.580748679990846"><ele>724.0</ele><time>2026-04-03T13:42:26.999Z</time></trkpt><trkpt lat="40.10448086835596" lon="9.580673652743123"><ele>724.0</ele><time>2026-04-03T13:42:28.999Z</time></trkpt><trkpt lat="40.10443130605512" lon="9.580617847497527"><ele>724.0</ele><time>2026-04-03T13:42:29.999Z</time></trkpt><trkpt lat="40.10438159409217" lon="9.580556131144169"><ele>724.0</ele><time>2026-04-03T13:42:30.999Z</time></trkpt><trkpt lat="40.104347796162294" lon="9.580468607239515"><ele>724.0</ele><time>2026-04-03T13:42:31.999Z</time></trkpt><trkpt lat="40.104319445627" lon="9.580368386180254"><ele>724.0</ele><time>2026-04-03T13:42:32.999Z</time></trkpt><trkpt lat="40.10427736109441" lon="9.580288874673663"><ele>726.5</ele><time>2026-04-03T13:42:33.999Z</time></trkpt><trkpt lat="40.10423352116821" lon="9.580192383256199"><ele>729.0</ele><time>2026-04-03T13:42:35Z</time></trkpt><trkpt lat="40.104157334540226" lon="9.580124538308066"><ele>731.5</ele><time>2026-04-03T13:42:36Z</time></trkpt><trkpt lat="40.104076481876405" lon="9.580077285911829"><ele>734.0</ele><time>2026-04-03T13:42:37Z</time></trkpt><trkpt lat="40.10400604407761" lon="9.580037362307234"><ele>736.5</ele><time>2026-04-03T13:42:38Z</time></trkpt><trkpt lat="40.1039178299742" lon="9.579991331678785"><ele>739.0</ele><time>2026-04-03T13:42:39Z</time></trkpt><trkpt lat="40.10381203402794" lon="9.57994682308017"><ele>739.0</ele><time>2026-04-03T13:42:40Z</time></trkpt><trkpt lat="40.103697055843234" lon="9.579918054627914"><ele>739.0</ele><time>2026-04-03T13:42:41Z</time></trkpt><trkpt lat="40.10356677153426" lon="9.579917744094994"><ele>739.0</ele><time>2026-04-03T13:42:42Z</time></trkpt><trkpt lat="40.10342460982508" lon="9.579916831106935"><ele>739.0</ele><time>2026-04-03T13:42:43Z</time></trkpt><trkpt lat="40.10327441898679" lon="9.57990203799588"><ele>740.6666666666667</ele><time>2026-04-03T13:42:44Z</time></trkpt><trkpt lat="40.10311683030077" lon="9.579961168187062"><ele>742.3333333333334</ele><time>2026-04-03T13:42:45Z</time></trkpt><trkpt lat="40.102970715525366" lon="9.579976874098229"><ele>744.0</ele><time>2026-04-03T13:42:46Z</time></trkpt><trkpt lat="40.102823375636056" lon="9.580002347655878"><ele>744.0</ele><time>2026-04-03T13:42:47Z</time></trkpt><trkpt lat="40.10268639944954" lon="9.580011731279244"><ele>744.0</ele><time>2026-04-03T13:42:48Z</time></trkpt><trkpt lat="40.10255606192734" lon="9.580026607698706"><ele>744.0</ele><time>2026-04-03T13:42:49Z</time></trkpt><trkpt lat="40.10244155637282" lon="9.580064936914187"><ele>744.0</ele><time>2026-04-03T13:42:50Z</time></trkpt><trkpt lat="40.10234017708497" lon="9.580100151155833"><ele>740.8333333333334</ele><time>2026-04-03T13:42:51Z</time></trkpt><trkpt lat="40.10224814746766" lon="9.580132117765324"><ele>737.6666666666666</ele><time>2026-04-03T13:42:52Z</time></trkpt><trkpt lat="40.10215592949828" lon="9.580157621240554"><ele>734.5</ele><time>2026-04-03T13:42:53Z</time></trkpt><trkpt lat="40.102076149370156" lon="9.58015121006363"><ele>731.3333333333333</ele><time>2026-04-03T13:42:54Z</time></trkpt><trkpt lat="40.10201486674177" lon="9.580093576231011"><ele>728.1666666666666</ele><time>2026-04-03T13:42:55Z</time></trkpt><trkpt lat="40.10198527181045" lon="9.580000985422844"><ele>725.0</ele><time>2026-04-03T13:42:56Z</time></trkpt><trkpt lat="40.10193622100732" lon="9.579896445212782"><ele>725.0</ele><time>2026-04-03T13:42:57Z</time></trkpt><trkpt lat="40.101899127292775" lon="9.57979061964848"><ele>725.0</ele><time>2026-04-03T13:42:58Z</time></trkpt><trkpt lat="40.101867725289665" lon="9.579665986450452"><ele>725.0</ele><time>2026-04-03T13:42:59Z</time></trkpt><trkpt lat="40.10184164692054" lon="9.579476886234707"><ele>725.0</ele><time>2026-04-03T13:43:00Z</time></trkpt><trkpt lat="40.101845401374966" lon="9.579335313578651"><ele>725.0</ele><time>2026-04-03T13:43:01Z</time></trkpt><trkpt lat="40.101851861804946" lon="9.579183374798594"><ele>727.25</ele><time>2026-04-03T13:43:02Z</time></trkpt><trkpt lat="40.10189447610344" lon="9.579023941836097"><ele>729.5</ele><time>2026-04-03T13:43:03Z</time></trkpt><trkpt lat="40.101928460510486" lon="9.578869515623685"><ele>731.75</ele><time>2026-04-03T13:43:04Z</time></trkpt><trkpt lat="40.10197253577037" lon="9.578691823190828"><ele>734.0</ele><time>2026-04-03T13:43:05Z</time></trkpt><trkpt lat="40.10199942876281" lon="9.578508471085536"><ele>736.5</ele><time>2026-04-03T13:43:06Z</time></trkpt><trkpt lat="40.1019788947968" lon="9.578328734499587"><ele>739.0</ele><time>2026-04-03T13:43:07Z</time></trkpt><trkpt lat="40.10192225471215" lon="9.578151306511984"><ele>741.5</ele><time>2026-04-03T13:43:08Z</time></trkpt><trkpt lat="40.10183501038368" lon="9.578007417025347"><ele>744.0</ele><time>2026-04-03T13:43:09Z</time></trkpt><trkpt lat="40.10173287804914" lon="9.577890366163048"><ele>743.5</ele><time>2026-04-03T13:43:10Z</time></trkpt><trkpt lat="40.10159850509797" lon="9.577839806079345"><ele>743.0</ele><time>2026-04-03T13:43:11Z</time></trkpt><trkpt lat="40.10146011312022" lon="9.577810149088135"><ele>742.5</ele><time>2026-04-03T13:43:12Z</time></trkpt><trkpt lat="40.1013406925876" lon="9.577725782911857"><ele>742.0</ele><time>2026-04-03T13:43:13Z</time></trkpt><trkpt lat="40.10122132499509" lon="9.577624603276247"><ele>742.0</ele><time>2026-04-03T13:43:14Z</time></trkpt><trkpt lat="40.10110718733376" lon="9.577507590522968"><ele>742.0</ele><time>2026-04-03T13:43:15Z</time></trkpt><trkpt lat="40.10102966944945" lon="9.57736486655593"><ele>742.0</ele><time>2026-04-03T13:43:16Z</time></trkpt><trkpt lat="40.10099243377195" lon="9.57720759163825"><ele>742.0</ele><time>2026-04-03T13:43:17Z</time></trkpt><trkpt lat="40.10098157754016" lon="9.577028447521942"><ele>745.75</ele><time>2026-04-03T13:43:18Z</time></trkpt><trkpt lat="40.10096382361852" lon="9.57685165907822"><ele>749.5</ele><time>2026-04-03T13:43:19Z</time></trkpt><trkpt lat="40.100997504850625" lon="9.576687805785843"><ele>753.25</ele><time>2026-04-03T13:43:20Z</time></trkpt><trkpt lat="40.10103992579896" lon="9.576518892164655"><ele>757.0</ele><time>2026-04-03T13:43:21Z</time></trkpt><trkpt lat="40.1011155628711" lon="9.576374435839371"><ele>757.0</ele><time>2026-04-03T13:43:22Z</time></trkpt><trkpt lat="40.10116106220968" lon="9.576247898207294"><ele>757.0</ele><time>2026-04-03T13:43:23Z</time></trkpt><trkpt lat="40.1011590968639" lon="9.57613620324896"><ele>757.0</ele><time>2026-04-03T13:43:24Z</time></trkpt><trkpt lat="40.10109010835337" lon="9.576034827132645"><ele>757.0</ele><time>2026-04-03T13:43:25Z</time></trkpt><trkpt lat="40.10098387824835" lon="9.575998776977078"><ele>757.0</ele><time>2026-04-03T13:43:26Z</time></trkpt><trkpt lat="40.10086176297806" lon="9.576025399993407"><ele>761.0</ele><time>2026-04-03T13:43:27Z</time></trkpt><trkpt lat="40.10072660906206" lon="9.576054865685153"><ele>765.0</ele><time>2026-04-03T13:43:28Z</time></trkpt><trkpt lat="40.10059983084976" lon="9.57604980286127"><ele>769.0</ele><time>2026-04-03T13:43:29Z</time></trkpt><trkpt lat="40.10045767004008" lon="9.576064894354145"><ele>773.0</ele><time>2026-04-03T13:43:30Z</time></trkpt><trkpt lat="40.100307199512756" lon="9.57608783247172"><ele>773.0</ele><time>2026-04-03T13:43:31Z</time></trkpt><trkpt lat="40.10015588604436" lon="9.576135534447344"><ele>773.0</ele><time>2026-04-03T13:43:32Z</time></trkpt><trkpt lat="40.10001260801063" lon="9.576180479782863"><ele>773.0</ele><time>2026-04-03T13:43:33Z</time></trkpt><trkpt lat="40.099876337966215" lon="9.57622974270078"><ele>773.0</ele><time>2026-04-03T13:43:34Z</time></trkpt><trkpt lat="40.09974664173026" lon="9.576246998353788"><ele>771.75</ele><time>2026-04-03T13:43:35Z</time></trkpt><trkpt lat="40.09962372448586" lon="9.576261297405038"><ele>770.5</ele><time>2026-04-03T13:43:36Z</time></trkpt><trkpt lat="40.0995096711624" lon="9.576221378373631"><ele>769.25</ele><time>2026-04-03T13:43:37Z</time></trkpt><trkpt lat="40.099392382356626" lon="9.576149777661108"><ele>768.0</ele><time>2026-04-03T13:43:38Z</time></trkpt><trkpt lat="40.09928218637897" lon="9.576063466305532"><ele>768.0</ele><time>2026-04-03T13:43:39Z</time></trkpt><trkpt lat="40.09919532911304" lon="9.575946873518077"><ele>768.0</ele><time>2026-04-03T13:43:40Z</time></trkpt><trkpt lat="40.09911235125687" lon="9.575804838050693"><ele>768.0</ele><time>2026-04-03T13:43:41Z</time></trkpt><trkpt lat="40.09903146558946" lon="9.575649520763209"><ele>768.0</ele><time>2026-04-03T13:43:42Z</time></trkpt><trkpt lat="40.09895540225187" lon="9.575481336043243"><ele>767.25</ele><time>2026-04-03T13:43:43Z</time></trkpt><trkpt lat="40.09886981541116" lon="9.575330099303747"><ele>766.5</ele><time>2026-04-03T13:43:44Z</time></trkpt><trkpt lat="40.09876722908028" lon="9.575202282458044"><ele>765.75</ele><time>2026-04-03T13:43:45Z</time></trkpt><trkpt lat="40.098641348464476" lon="9.575098734774176"><ele>765.0</ele><time>2026-04-03T13:43:46Z</time></trkpt><trkpt lat="40.09849666940774" lon="9.575024547523183"><ele>765.0</ele><time>2026-04-03T13:43:47Z</time></trkpt><trkpt lat="40.098357080813216" lon="9.574930127185143"><ele>765.0</ele><time>2026-04-03T13:43:48Z</time></trkpt><trkpt lat="40.098211591730994" lon="9.574843689445116"><ele>765.0</ele><time>2026-04-03T13:43:49Z</time></trkpt><trkpt lat="40.098061186021965" lon="9.57476658796538"><ele>760.0</ele><time>2026-04-03T13:43:50Z</time></trkpt><trkpt lat="40.09789867332552" lon="9.574724986149636"><ele>755.0</ele><time>2026-04-03T13:43:51Z</time></trkpt><trkpt lat="40.09773823724056" lon="9.574671001302695"><ele>750.0</ele><time>2026-04-03T13:43:52Z</time></trkpt><trkpt lat="40.097586892799335" lon="9.574587107773802"><ele>748.75</ele><time>2026-04-03T13:43:53Z</time></trkpt><trkpt lat="40.09744544357206" lon="9.57450273854895"><ele>747.5</ele><time>2026-04-03T13:43:54Z</time></trkpt><trkpt lat="40.09731072370722" lon="9.574419505461865"><ele>746.25</ele><time>2026-04-03T13:43:55Z</time></trkpt><trkpt lat="40.09721038103701" lon="9.574321258141806"><ele>745.0</ele><time>2026-04-03T13:43:56Z</time></trkpt><trkpt lat="40.097142045984675" lon="9.574231760666173"><ele>745.0</ele><time>2026-04-03T13:43:57Z</time></trkpt><trkpt lat="40.097162351127224" lon="9.574102634993464"><ele>745.0</ele><time>2026-04-03T13:43:58Z</time></trkpt><trkpt lat="40.097201627307264" lon="9.57398245124029"><ele>745.0</ele><time>2026-04-03T13:43:59Z</time></trkpt><trkpt lat="40.09728330000491" lon="9.573869591147039"><ele>745.0</ele><time>2026-04-03T13:44:00Z</time></trkpt><trkpt lat="40.09738054877087" lon="9.573759712270379"><ele>745.0</ele><time>2026-04-03T13:44:01Z</time></trkpt><trkpt lat="40.09747301178038" lon="9.57364795062881"><ele>747.75</ele><time>2026-04-03T13:44:02Z</time></trkpt><trkpt lat="40.09756157254013" lon="9.573513210082893"><ele>750.5</ele><time>2026-04-03T13:44:03Z</time></trkpt><trkpt lat="40.097637182980854" lon="9.573357948733673"><ele>753.25</ele><time>2026-04-03T13:44:04Z</time></trkpt><trkpt lat="40.097684680233534" lon="9.573181896846378"><ele>756.0</ele><time>2026-04-03T13:44:05Z</time></trkpt><trkpt lat="40.09770609008121" lon="9.57299517241655"><ele>754.5</ele><time>2026-04-03T13:44:06Z</time></trkpt><trkpt lat="40.09770863141332" lon="9.572801461333148"><ele>753.0</ele><time>2026-04-03T13:44:07Z</time></trkpt><trkpt lat="40.09771587039509" lon="9.572603563902689"><ele>751.5</ele><time>2026-04-03T13:44:08Z</time></trkpt><trkpt lat="40.097724010953115" lon="9.572411977180389"><ele>750.0</ele><time>2026-04-03T13:44:09Z</time></trkpt><trkpt lat="40.09770719183211" lon="9.572219363461246"><ele>750.0</ele><time>2026-04-03T13:44:10Z</time></trkpt><trkpt lat="40.09764969872031" lon="9.572042782731542"><ele>750.0</ele><time>2026-04-03T13:44:11Z</time></trkpt><trkpt lat="40.097580230514176" lon="9.571877874873124"><ele>750.0</ele><time>2026-04-03T13:44:12Z</time></trkpt><trkpt lat="40.09753803919214" lon="9.571710495730692"><ele>750.0</ele><time>2026-04-03T13:44:13Z</time></trkpt><trkpt lat="40.09753081348828" lon="9.571533337627182"><ele>749.75</ele><time>2026-04-03T13:44:14Z</time></trkpt><trkpt lat="40.09755488921581" lon="9.571347925756843"><ele>749.5</ele><time>2026-04-03T13:44:15Z</time></trkpt><trkpt lat="40.09759556510883" lon="9.571162233710998"><ele>749.25</ele><time>2026-04-03T13:44:16Z</time></trkpt><trkpt lat="40.097649379434905" lon="9.570976318534175"><ele>749.0</ele><time>2026-04-03T13:44:17Z</time></trkpt><trkpt lat="40.09769927357249" lon="9.570781167798774"><ele>750.3333333333333</ele><time>2026-04-03T13:44:18Z</time></trkpt><trkpt lat="40.09774635384706" lon="9.570587236770383"><ele>751.6666666666666</ele><time>2026-04-03T13:44:19Z</time></trkpt><trkpt lat="40.097796104700855" lon="9.570393227060938"><ele>753.0</ele><time>2026-04-03T13:44:20Z</time></trkpt><trkpt lat="40.097861187860524" lon="9.570203332429642"><ele>757.6666666666666</ele><time>2026-04-03T13:44:21Z</time></trkpt><trkpt lat="40.09794600060386" lon="9.570020565577753"><ele>762.3333333333333</ele><time>2026-04-03T13:44:22Z</time></trkpt><trkpt lat="40.09805329985266" lon="9.5698474838099"><ele>767.0</ele><time>2026-04-03T13:44:23Z</time></trkpt><trkpt lat="40.09816583330766" lon="9.569674888112678"><ele>763.6666666666666</ele><time>2026-04-03T13:44:24Z</time></trkpt><trkpt lat="40.09827344537865" lon="9.56949295243085"><ele>760.3333333333334</ele><time>2026-04-03T13:44:25Z</time></trkpt><trkpt lat="40.098379721650545" lon="9.569306382692973"><ele>757.0</ele><time>2026-04-03T13:44:26Z</time></trkpt><trkpt lat="40.098495641649976" lon="9.56912391442901"><ele>757.0</ele><time>2026-04-03T13:44:27Z</time></trkpt><trkpt lat="40.09862355046652" lon="9.568961527696118"><ele>757.0</ele><time>2026-04-03T13:44:28Z</time></trkpt><trkpt lat="40.09878156564859" lon="9.56882649458902"><ele>757.0</ele><time>2026-04-03T13:44:29Z</time></trkpt><trkpt lat="40.098947625174375" lon="9.568712228140157"><ele>754.6666666666667</ele><time>2026-04-03T13:44:30Z</time></trkpt><trkpt lat="40.09911414761124" lon="9.568597197136796"><ele>752.3333333333334</ele><time>2026-04-03T13:44:31Z</time></trkpt><trkpt lat="40.09926987857211" lon="9.568485511338858"><ele>750.0</ele><time>2026-04-03T13:44:32Z</time></trkpt><trkpt lat="40.09941820434822" lon="9.568375164827962"><ele>750.0</ele><time>2026-04-03T13:44:33Z</time></trkpt><trkpt lat="40.099558512782664" lon="9.568267513059835"><ele>750.0</ele><time>2026-04-03T13:44:34Z</time></trkpt><trkpt lat="40.09968228093425" lon="9.568153098071578"><ele>750.0</ele><time>2026-04-03T13:44:35Z</time></trkpt><trkpt lat="40.09978656691243" lon="9.568012821894499"><ele>751.0</ele><time>2026-04-03T13:44:36Z</time></trkpt><trkpt lat="40.099860062068515" lon="9.5678341604607"><ele>752.0</ele><time>2026-04-03T13:44:37Z</time></trkpt><trkpt lat="40.09989236235462" lon="9.567628290265812"><ele>753.0</ele><time>2026-04-03T13:44:38Z</time></trkpt><trkpt lat="40.099870962565916" lon="9.56741315040576"><ele>753.0</ele><time>2026-04-03T13:44:39Z</time></trkpt><trkpt lat="40.09982315634639" lon="9.567205744295151"><ele>753.0</ele><time>2026-04-03T13:44:40Z</time></trkpt><trkpt lat="40.099758890556004" lon="9.567009169247973"><ele>753.0</ele><time>2026-04-03T13:44:41Z</time></trkpt><trkpt lat="40.099680007233395" lon="9.566814373859495"><ele>749.6666666666666</ele><time>2026-04-03T13:44:42Z</time></trkpt><trkpt lat="40.09958189875449" lon="9.566638799253377"><ele>746.3333333333333</ele><time>2026-04-03T13:44:43Z</time></trkpt><trkpt lat="40.09945987458327" lon="9.566495076012682"><ele>743.0</ele><time>2026-04-03T13:44:44Z</time></trkpt><trkpt lat="40.099312898284715" lon="9.56639859629678"><ele>743.0</ele><time>2026-04-03T13:44:45Z</time></trkpt><trkpt lat="40.0991669273472" lon="9.566325076427667"><ele>743.0</ele><time>2026-04-03T13:44:46Z</time></trkpt><trkpt lat="40.09906931279976" lon="9.566188521417018"><ele>743.0</ele><time>2026-04-03T13:44:47Z</time></trkpt><trkpt lat="40.099002453355965" lon="9.566021550665518"><ele>743.0</ele><time>2026-04-03T13:44:48Z</time></trkpt><trkpt lat="40.098937382591764" lon="9.565823955773485"><ele>743.6666666666666</ele><time>2026-04-03T13:44:49Z</time></trkpt><trkpt lat="40.09886346168614" lon="9.565628906516418"><ele>744.3333333333334</ele><time>2026-04-03T13:44:50Z</time></trkpt><trkpt lat="40.09879963842817" lon="9.565427951944951"><ele>745.0</ele><time>2026-04-03T13:44:51Z</time></trkpt><trkpt lat="40.098706083991914" lon="9.565243004431357"><ele>741.6666666666667</ele><time>2026-04-03T13:44:52Z</time></trkpt><trkpt lat="40.09858340305938" lon="9.565081244300016"><ele>738.3333333333334</ele><time>2026-04-03T13:44:53Z</time></trkpt><trkpt lat="40.098439112198434" lon="9.564951666331746"><ele>735.0</ele><time>2026-04-03T13:44:54Z</time></trkpt><trkpt lat="40.09830473822838" lon="9.56482825913802"><ele>735.5</ele><time>2026-04-03T13:44:55Z</time></trkpt><trkpt lat="40.09817674080261" lon="9.564714136957827"><ele>736.0</ele><time>2026-04-03T13:44:56Z</time></trkpt><trkpt lat="40.0980555449151" lon="9.564601516330999"><ele>736.5</ele><time>2026-04-03T13:44:57Z</time></trkpt><trkpt lat="40.09797785898249" lon="9.564480649117161"><ele>737.0</ele><time>2026-04-03T13:44:58Z</time></trkpt><trkpt lat="40.09794676725549" lon="9.564347940228739"><ele>737.0</ele><time>2026-04-03T13:44:59Z</time></trkpt><trkpt lat="40.098002684314324" lon="9.564214679437345"><ele>737.0</ele><time>2026-04-03T13:45:00Z</time></trkpt><trkpt lat="40.098057601457626" lon="9.564067778991312"><ele>737.0</ele><time>2026-04-03T13:45:01Z</time></trkpt><trkpt lat="40.09812083696986" lon="9.56393079038216"><ele>737.0</ele><time>2026-04-03T13:45:02Z</time></trkpt><trkpt lat="40.09818142423546" lon="9.563783271985717"><ele>736.75</ele><time>2026-04-03T13:45:03Z</time></trkpt><trkpt lat="40.09823360368622" lon="9.563620169637815"><ele>736.5</ele><time>2026-04-03T13:45:04Z</time></trkpt><trkpt lat="40.09828827442526" lon="9.563460474862126"><ele>736.25</ele><time>2026-04-03T13:45:05Z</time></trkpt><trkpt lat="40.09834440106692" lon="9.563298908767791"><ele>736.0</ele><time>2026-04-03T13:45:06Z</time></trkpt><trkpt lat="40.09840590252932" lon="9.563130179972978"><ele>734.5</ele><time>2026-04-03T13:45:07Z</time></trkpt><trkpt lat="40.09846952531463" lon="9.56295806588728"><ele>733.0</ele><time>2026-04-03T13:45:08Z</time></trkpt><trkpt lat="40.0985392391054" lon="9.562784863630641"><ele>731.5</ele><time>2026-04-03T13:45:09Z</time></trkpt><trkpt lat="40.09860456943369" lon="9.562623658157225"><ele>730.0</ele><time>2026-04-03T13:45:10Z</time></trkpt><trkpt lat="40.098651182407835" lon="9.56245841054375"><ele>730.0</ele><time>2026-04-03T13:45:11Z</time></trkpt><trkpt lat="40.09865065479132" lon="9.562277887912389"><ele>730.0</ele><time>2026-04-03T13:45:12Z</time></trkpt><trkpt lat="40.098601924585154" lon="9.562097593312284"><ele>730.0</ele><time>2026-04-03T13:45:13Z</time></trkpt><trkpt lat="40.09854540698228" lon="9.561915568487779"><ele>730.0</ele><time>2026-04-03T13:45:14Z</time></trkpt><trkpt lat="40.09849857186681" lon="9.561727357388726"><ele>729.0</ele><time>2026-04-03T13:45:15Z</time></trkpt><trkpt lat="40.09845302780243" lon="9.561539001088558"><ele>728.0</ele><time>2026-04-03T13:45:16Z</time></trkpt><trkpt lat="40.0983990030179" lon="9.561363264163324"><ele>727.0</ele><time>2026-04-03T13:45:17Z</time></trkpt><trkpt lat="40.09831201807705" lon="9.561217682915277"><ele>726.0</ele><time>2026-04-03T13:45:18Z</time></trkpt><trkpt lat="40.09817991111501" lon="9.561124403225472"><ele>723.0</ele><time>2026-04-03T13:45:19Z</time></trkpt><trkpt lat="40.09803266599044" lon="9.56108622559705"><ele>720.0</ele><time>2026-04-03T13:45:20Z</time></trkpt><trkpt lat="40.0978803238181" lon="9.561061071598585"><ele>717.0</ele><time>2026-04-03T13:45:21Z</time></trkpt><trkpt lat="40.09773537796028" lon="9.561009665947214"><ele>717.0</ele><time>2026-04-03T13:45:22Z</time></trkpt><trkpt lat="40.097594849448285" lon="9.560972675895332"><ele>717.0</ele><time>2026-04-03T13:45:23Z</time></trkpt><trkpt lat="40.09746942388639" lon="9.560924170923652"><ele>717.0</ele><time>2026-04-03T13:45:24Z</time></trkpt><trkpt lat="40.097376878404624" lon="9.560786220326762"><ele>717.0</ele><time>2026-04-03T13:45:25Z</time></trkpt><trkpt lat="40.09735388581326" lon="9.560574062441187"><ele>718.3333333333334</ele><time>2026-04-03T13:45:26Z</time></trkpt><trkpt lat="40.09737556977323" lon="9.560331976917201"><ele>719.6666666666667</ele><time>2026-04-03T13:45:27Z</time></trkpt><trkpt lat="40.09735307582699" lon="9.560135055630171"><ele>721.0</ele><time>2026-04-03T13:45:29Z</time></trkpt><trkpt lat="40.09737146319951" lon="9.559934339234282"><ele>721.0</ele><time>2026-04-03T13:45:30Z</time></trkpt><trkpt lat="40.097327119126916" lon="9.559731537135933"><ele>721.0</ele><time>2026-04-03T13:45:31Z</time></trkpt><trkpt lat="40.09726173504706" lon="9.559538872615336"><ele>721.0</ele><time>2026-04-03T13:45:32Z</time></trkpt><trkpt lat="40.09717557901566" lon="9.559356394723551"><ele>719.0</ele><time>2026-04-03T13:45:33Z</time></trkpt><trkpt lat="40.097085571793805" lon="9.559182014203977"><ele>717.0</ele><time>2026-04-03T13:45:34Z</time></trkpt><trkpt lat="40.09701657079333" lon="9.558991103211882"><ele>715.0</ele><time>2026-04-03T13:45:35Z</time></trkpt><trkpt lat="40.09696372108267" lon="9.558807416417954"><ele>714.5</ele><time>2026-04-03T13:45:36Z</time></trkpt><trkpt lat="40.09695878875542" lon="9.558619878008408"><ele>714.0</ele><time>2026-04-03T13:45:37Z</time></trkpt><trkpt lat="40.09702106599097" lon="9.558464614159073"><ele>713.5</ele><time>2026-04-03T13:45:38Z</time></trkpt><trkpt lat="40.09708510373672" lon="9.558277878947194"><ele>713.0</ele><time>2026-04-03T13:45:39Z</time></trkpt><trkpt lat="40.09714673066655" lon="9.558098860563188"><ele>713.0</ele><time>2026-04-03T13:45:40Z</time></trkpt><trkpt lat="40.09719904489954" lon="9.557909955319575"><ele>713.0</ele><time>2026-04-03T13:45:41Z</time></trkpt><trkpt lat="40.09726029594039" lon="9.557728175244819"><ele>713.0</ele><time>2026-04-03T13:45:42Z</time></trkpt><trkpt lat="40.097318736408944" lon="9.55754793090432"><ele>714.3333333333333</ele><time>2026-04-03T13:45:43Z</time></trkpt><trkpt lat="40.09736016749024" lon="9.557352202569191"><ele>715.6666666666666</ele><time>2026-04-03T13:45:44Z</time></trkpt><trkpt lat="40.097373846948734" lon="9.557146418571381"><ele>717.0</ele><time>2026-04-03T13:45:45Z</time></trkpt><trkpt lat="40.097362211767795" lon="9.556937107975928"><ele>717.3333333333334</ele><time>2026-04-03T13:45:46Z</time></trkpt><trkpt lat="40.097337880294795" lon="9.556727352035612"><ele>717.6666666666667</ele><time>2026-04-03T13:45:47Z</time></trkpt><trkpt lat="40.097315418119294" lon="9.556511496192416"><ele>718.0</ele><time>2026-04-03T13:45:48Z</time></trkpt><trkpt lat="40.0973017986387" lon="9.556303192847501"><ele>716.3333333333334</ele><time>2026-04-03T13:45:49Z</time></trkpt><trkpt lat="40.097288039027156" lon="9.55609014649663"><ele>714.6666666666666</ele><time>2026-04-03T13:45:50Z</time></trkpt><trkpt lat="40.09726371484973" lon="9.55589333452909"><ele>713.0</ele><time>2026-04-03T13:45:51Z</time></trkpt><trkpt lat="40.09724630632203" lon="9.555708178175786"><ele>713.0</ele><time>2026-04-03T13:45:52Z</time></trkpt><trkpt lat="40.09722844696973" lon="9.555527641523046"><ele>713.0</ele><time>2026-04-03T13:45:53Z</time></trkpt><trkpt lat="40.097205766850735" lon="9.55534103561069"><ele>713.0</ele><time>2026-04-03T13:45:54Z</time></trkpt><trkpt lat="40.09716314097374" lon="9.555155982974012"><ele>713.0</ele><time>2026-04-03T13:45:55Z</time></trkpt><trkpt lat="40.09709281781185" lon="9.554972503129537"><ele>711.3333333333333</ele><time>2026-04-03T13:45:56Z</time></trkpt><trkpt lat="40.09699676024652" lon="9.554805436078487"><ele>709.6666666666666</ele><time>2026-04-03T13:45:57Z</time></trkpt><trkpt lat="40.096883904643384" lon="9.554639196193099"><ele>708.0</ele><time>2026-04-03T13:45:58Z</time></trkpt><trkpt lat="40.09679308778405" lon="9.55444954219071"><ele>707.6666666666666</ele><time>2026-04-03T13:45:59Z</time></trkpt><trkpt lat="40.09668484223758" lon="9.554266623242752"><ele>707.3333333333333</ele><time>2026-04-03T13:46:00Z</time></trkpt><trkpt lat="40.096577808522916" lon="9.55408434190721"><ele>707.0</ele><time>2026-04-03T13:46:01Z</time></trkpt><trkpt lat="40.09645975480596" lon="9.553915771272155"><ele>707.0</ele><time>2026-04-03T13:46:02Z</time></trkpt><trkpt lat="40.09636429140739" lon="9.553744289280118"><ele>707.0</ele><time>2026-04-03T13:46:03Z</time></trkpt><trkpt lat="40.096261404759815" lon="9.553590328486155"><ele>707.0</ele><time>2026-04-03T13:46:04Z</time></trkpt><trkpt lat="40.09613824952594" lon="9.553474859100062"><ele>704.6666666666666</ele><time>2026-04-03T13:46:05Z</time></trkpt><trkpt lat="40.09598680975275" lon="9.553402967437533"><ele>702.3333333333334</ele><time>2026-04-03T13:46:06Z</time></trkpt><trkpt lat="40.095816957231236" lon="9.553389719192332"><ele>700.0</ele><time>2026-04-03T13:46:07Z</time></trkpt><trkpt lat="40.09565952262235" lon="9.55333261546374"><ele>700.0</ele><time>2026-04-03T13:46:08Z</time></trkpt><trkpt lat="40.095515621073865" lon="9.553290276997593"><ele>700.0</ele><time>2026-04-03T13:46:09Z</time></trkpt><trkpt lat="40.09540709455363" lon="9.553208990705691"><ele>700.0</ele><time>2026-04-03T13:46:10Z</time></trkpt><trkpt lat="40.09532262580647" lon="9.553094547684978"><ele>700.0</ele><time>2026-04-03T13:46:11Z</time></trkpt><trkpt lat="40.09529115722759" lon="9.552944476620167"><ele>698.25</ele><time>2026-04-03T13:46:12Z</time></trkpt><trkpt lat="40.095289684623985" lon="9.552776891202285"><ele>696.5</ele><time>2026-04-03T13:46:13Z</time></trkpt><trkpt lat="40.09531466098636" lon="9.552596778398357"><ele>694.75</ele><time>2026-04-03T13:46:14Z</time></trkpt><trkpt lat="40.09533376474047" lon="9.552407624793783"><ele>693.0</ele><time>2026-04-03T13:46:15Z</time></trkpt><trkpt lat="40.095349270583014" lon="9.552203073467423"><ele>691.0</ele><time>2026-04-03T13:46:16Z</time></trkpt><trkpt lat="40.09536317333994" lon="9.551990586177757"><ele>689.0</ele><time>2026-04-03T13:46:17Z</time></trkpt><trkpt lat="40.09537509622252" lon="9.551777547615055"><ele>687.0</ele><time>2026-04-03T13:46:18Z</time></trkpt><trkpt lat="40.09538899217437" lon="9.551562365988431"><ele>687.0</ele><time>2026-04-03T13:46:19Z</time></trkpt><trkpt lat="40.09540196708698" lon="9.551348224589912"><ele>687.0</ele><time>2026-04-03T13:46:20Z</time></trkpt><trkpt lat="40.09541836593133" lon="9.55114069748803"><ele>687.0</ele><time>2026-04-03T13:46:21Z</time></trkpt><trkpt lat="40.09543962548664" lon="9.550952809380904"><ele>688.25</ele><time>2026-04-03T13:46:22Z</time></trkpt><trkpt lat="40.09548730958557" lon="9.5507944699889"><ele>689.5</ele><time>2026-04-03T13:46:23Z</time></trkpt><trkpt lat="40.09558254392736" lon="9.550690320694095"><ele>690.75</ele><time>2026-04-03T13:46:24Z</time></trkpt><trkpt lat="40.09571485987827" lon="9.550665143905597"><ele>692.0</ele><time>2026-04-03T13:46:25Z</time></trkpt><trkpt lat="40.09585241261882" lon="9.55065669868618"><ele>692.0</ele><time>2026-04-03T13:46:26Z</time></trkpt><trkpt lat="40.09599152334701" lon="9.550675020667923"><ele>692.0</ele><time>2026-04-03T13:46:27Z</time></trkpt><trkpt lat="40.09612717514427" lon="9.55066715012095"><ele>692.0</ele><time>2026-04-03T13:46:28Z</time></trkpt><trkpt lat="40.09624824562666" lon="9.550630453706491"><ele>692.0</ele><time>2026-04-03T13:46:29Z</time></trkpt><trkpt lat="40.09634536824584" lon="9.550561969657949"><ele>692.0</ele><time>2026-04-03T13:46:30Z</time></trkpt><trkpt lat="40.09641125303444" lon="9.550444070262579"><ele>692.0</ele><time>2026-04-03T13:46:31Z</time></trkpt><trkpt lat="40.09644216509642" lon="9.550321322544916"><ele>692.0</ele><time>2026-04-03T13:46:32Z</time></trkpt><trkpt lat="40.09645853685527" lon="9.550215999852888"><ele>692.0</ele><time>2026-04-03T13:46:33Z</time></trkpt><trkpt lat="40.096497049288146" lon="9.550077085462696"><ele>692.0</ele><time>2026-04-03T13:46:35Z</time></trkpt><trkpt lat="40.096517704603684" lon="9.549975997470682"><ele>692.3333333333333</ele><time>2026-04-03T13:46:37Z</time></trkpt><trkpt lat="40.096571512887536" lon="9.549849780336931"><ele>692.6666666666666</ele><time>2026-04-03T13:46:39Z</time></trkpt><trkpt lat="40.09658365863632" lon="9.549768713063841"><ele>693.0</ele><time>2026-04-03T13:46:40Z</time></trkpt><trkpt lat="40.096624714562914" lon="9.549697494462606"><ele>693.3333333333334</ele><time>2026-04-03T13:46:41Z</time></trkpt><trkpt lat="40.09664698196424" lon="9.549610396630445"><ele>693.6666666666667</ele><time>2026-04-03T13:46:42Z</time></trkpt><trkpt lat="40.09667532221401" lon="9.54951443543091"><ele>694.0</ele><time>2026-04-03T13:46:43Z</time></trkpt><trkpt lat="40.09670638964381" lon="9.549410239708553"><ele>695.0</ele><time>2026-04-03T13:46:44Z</time></trkpt><trkpt lat="40.09673519400386" lon="9.549298365230772"><ele>696.0</ele><time>2026-04-03T13:46:45Z</time></trkpt><trkpt lat="40.09677301129587" lon="9.549177046039311"><ele>697.0</ele><time>2026-04-03T13:46:46Z</time></trkpt><trkpt lat="40.09680523552945" lon="9.549070277965377"><ele>698.0</ele><time>2026-04-03T13:46:47Z</time></trkpt><trkpt lat="40.096838402804394" lon="9.548949406402057"><ele>699.0</ele><time>2026-04-03T13:46:48Z</time></trkpt><trkpt lat="40.096872099493375" lon="9.548820474780213"><ele>701.0</ele><time>2026-04-03T13:46:49Z</time></trkpt><trkpt lat="40.09691050534965" lon="9.548689325334752"><ele>703.0</ele><time>2026-04-03T13:46:50Z</time></trkpt><trkpt lat="40.09694637165532" lon="9.548550498214116"><ele>705.0</ele><time>2026-04-03T13:46:51Z</time></trkpt><trkpt lat="40.09698023584299" lon="9.548405037592294"><ele>707.0</ele><time>2026-04-03T13:46:52Z</time></trkpt><trkpt lat="40.09701101269515" lon="9.548253727867007"><ele>707.0</ele><time>2026-04-03T13:46:53Z</time></trkpt><trkpt lat="40.09703148664819" lon="9.548104593903155"><ele>707.0</ele><time>2026-04-03T13:46:54Z</time></trkpt><trkpt lat="40.097047373481466" lon="9.547953295615217"><ele>707.0</ele><time>2026-04-03T13:46:55Z</time></trkpt><trkpt lat="40.09705806165121" lon="9.547799296262134"><ele>707.0</ele><time>2026-04-03T13:46:56Z</time></trkpt><trkpt lat="40.09707437695342" lon="9.547636847984549"><ele>708.0</ele><time>2026-04-03T13:46:57Z</time></trkpt><trkpt lat="40.097092345009095" lon="9.547470853916009"><ele>709.0</ele><time>2026-04-03T13:46:58Z</time></trkpt><trkpt lat="40.09711074430232" lon="9.547301216393945"><ele>710.0</ele><time>2026-04-03T13:46:59Z</time></trkpt><trkpt lat="40.09713123278855" lon="9.547127891248676"><ele>711.0</ele><time>2026-04-03T13:47:00Z</time></trkpt><trkpt lat="40.097152485283125" lon="9.546949911071188"><ele>711.5</ele><time>2026-04-03T13:47:01Z</time></trkpt><trkpt lat="40.09717036458515" lon="9.546764508896652"><ele>712.0</ele><time>2026-04-03T13:47:02Z</time></trkpt><trkpt lat="40.09718513752287" lon="9.546580585628424"><ele>712.5</ele><time>2026-04-03T13:47:03Z</time></trkpt><trkpt lat="40.09720690594644" lon="9.54639126608589"><ele>713.0</ele><time>2026-04-03T13:47:04Z</time></trkpt><trkpt lat="40.09722254652137" lon="9.546202066903664"><ele>714.5</ele><time>2026-04-03T13:47:05Z</time></trkpt><trkpt lat="40.097238742900956" lon="9.54600799918983"><ele>716.0</ele><time>2026-04-03T13:47:06Z</time></trkpt><trkpt lat="40.0972549135846" lon="9.54581510520517"><ele>717.5</ele><time>2026-04-03T13:47:07Z</time></trkpt><trkpt lat="40.097272404174234" lon="9.545628589594575"><ele>719.0</ele><time>2026-04-03T13:47:08Z</time></trkpt><trkpt lat="40.09728213267963" lon="9.545453141755576"><ele>718.5</ele><time>2026-04-03T13:47:09Z</time></trkpt><trkpt lat="40.09725477364331" lon="9.545283334188428"><ele>718.0</ele><time>2026-04-03T13:47:10Z</time></trkpt><trkpt lat="40.097177035676175" lon="9.545137167652266"><ele>717.5</ele><time>2026-04-03T13:47:11Z</time></trkpt><trkpt lat="40.09706211632663" lon="9.545023998714793"><ele>717.0</ele><time>2026-04-03T13:47:12Z</time></trkpt><trkpt lat="40.09694080920488" lon="9.544934498819295"><ele>717.0</ele><time>2026-04-03T13:47:13Z</time></trkpt><trkpt lat="40.09684829997271" lon="9.544820028162478"><ele>717.0</ele><time>2026-04-03T13:47:14Z</time></trkpt><trkpt lat="40.096797909881815" lon="9.544671577646415"><ele>717.0</ele><time>2026-04-03T13:47:15Z</time></trkpt><trkpt lat="40.09680036063498" lon="9.544503741039453"><ele>717.0</ele><time>2026-04-03T13:47:16Z</time></trkpt><trkpt lat="40.09684602923783" lon="9.544343234203831"><ele>717.75</ele><time>2026-04-03T13:47:17Z</time></trkpt><trkpt lat="40.096908774501145" lon="9.54419184368272"><ele>718.5</ele><time>2026-04-03T13:47:18Z</time></trkpt><trkpt lat="40.09695531420188" lon="9.544029932793817"><ele>719.25</ele><time>2026-04-03T13:47:19Z</time></trkpt><trkpt lat="40.09698537103668" lon="9.54385553786166"><ele>720.0</ele><time>2026-04-03T13:47:20Z</time></trkpt><trkpt lat="40.09699876484752" lon="9.543672734740454"><ele>722.3333333333334</ele><time>2026-04-03T13:47:21Z</time></trkpt><trkpt lat="40.09699804386363" lon="9.54347779758068"><ele>724.6666666666667</ele><time>2026-04-03T13:47:22Z</time></trkpt><trkpt lat="40.09698736142311" lon="9.543281303167758"><ele>727.0</ele><time>2026-04-03T13:47:23Z</time></trkpt><trkpt lat="40.0969769777688" lon="9.543076128906234"><ele>727.0</ele><time>2026-04-03T13:47:24Z</time></trkpt><trkpt lat="40.09696278460104" lon="9.542870541280713"><ele>727.0</ele><time>2026-04-03T13:47:25Z</time></trkpt><trkpt lat="40.09695363561485" lon="9.542668678571456"><ele>727.0</ele><time>2026-04-03T13:47:26Z</time></trkpt><trkpt lat="40.096949464513564" lon="9.542466212933496"><ele>727.0</ele><time>2026-04-03T13:47:27Z</time></trkpt><trkpt lat="40.09694421005876" lon="9.542263972556974"><ele>727.0</ele><time>2026-04-03T13:47:28Z</time></trkpt><trkpt lat="40.096935650418466" lon="9.542059982287274"><ele>727.0</ele><time>2026-04-03T13:47:29Z</time></trkpt><trkpt lat="40.09692886728021" lon="9.541857420742383"><ele>726.6666666666667</ele><time>2026-04-03T13:47:30Z</time></trkpt><trkpt lat="40.096932706087536" lon="9.541655348227298"><ele>726.3333333333334</ele><time>2026-04-03T13:47:31Z</time></trkpt><trkpt lat="40.096961935030095" lon="9.541460416836342"><ele>726.0</ele><time>2026-04-03T13:47:32Z</time></trkpt><trkpt lat="40.09701884300075" lon="9.54127063583773"><ele>725.3333333333334</ele><time>2026-04-03T13:47:33Z</time></trkpt><trkpt lat="40.09709333290014" lon="9.54108949551848"><ele>724.6666666666667</ele><time>2026-04-03T13:47:34Z</time></trkpt><trkpt lat="40.09715601069131" lon="9.540901422795189"><ele>724.0</ele><time>2026-04-03T13:47:35Z</time></trkpt><trkpt lat="40.097199756894454" lon="9.540708398535521"><ele>724.0</ele><time>2026-04-03T13:47:36Z</time></trkpt><trkpt lat="40.09721280786286" lon="9.540503533412656"><ele>724.0</ele><time>2026-04-03T13:47:37Z</time></trkpt><trkpt lat="40.09721580753155" lon="9.540304653006142"><ele>724.0</ele><time>2026-04-03T13:47:38Z</time></trkpt><trkpt lat="40.09721915949533" lon="9.540115555852777"><ele>723.75</ele><time>2026-04-03T13:47:39Z</time></trkpt><trkpt lat="40.09720315149945" lon="9.53993553462823"><ele>723.5</ele><time>2026-04-03T13:47:40Z</time></trkpt><trkpt lat="40.09713709390589" lon="9.539769917533482"><ele>723.25</ele><time>2026-04-03T13:47:41Z</time></trkpt><trkpt lat="40.097034045215146" lon="9.539623631604453"><ele>723.0</ele><time>2026-04-03T13:47:42Z</time></trkpt><trkpt lat="40.09690571814916" lon="9.539527862690122"><ele>722.0</ele><time>2026-04-03T13:47:43Z</time></trkpt><trkpt lat="40.096759325921624" lon="9.53948000735161"><ele>721.0</ele><time>2026-04-03T13:47:44Z</time></trkpt><trkpt lat="40.09660480474208" lon="9.53950295032551"><ele>720.0</ele><time>2026-04-03T13:47:45Z</time></trkpt><trkpt lat="40.09646026159859" lon="9.5395688684764"><ele>720.0</ele><time>2026-04-03T13:47:46Z</time></trkpt><trkpt lat="40.09631526487287" lon="9.539634936672668"><ele>720.0</ele><time>2026-04-03T13:47:47Z</time></trkpt><trkpt lat="40.09617293560168" lon="9.539666891234043"><ele>720.0</ele><time>2026-04-03T13:47:48Z</time></trkpt><trkpt lat="40.09603414522588" lon="9.539657889231007"><ele>720.0</ele><time>2026-04-03T13:47:49Z</time></trkpt><trkpt lat="40.09591210602073" lon="9.539582621643866"><ele>719.75</ele><time>2026-04-03T13:47:50Z</time></trkpt><trkpt lat="40.095815957865575" lon="9.539446185338349"><ele>719.5</ele><time>2026-04-03T13:47:51Z</time></trkpt><trkpt lat="40.095728769924435" lon="9.539299007152259"><ele>719.25</ele><time>2026-04-03T13:47:52Z</time></trkpt><trkpt lat="40.095635206052776" lon="9.539161413681338"><ele>719.0</ele><time>2026-04-03T13:47:53Z</time></trkpt><trkpt lat="40.09552980727767" lon="9.53903283555097"><ele>719.5</ele><time>2026-04-03T13:47:54Z</time></trkpt><trkpt lat="40.09542202035813" lon="9.538900025518844"><ele>720.0</ele><time>2026-04-03T13:47:55Z</time></trkpt><trkpt lat="40.09531611292459" lon="9.538766022429483"><ele>720.5</ele><time>2026-04-03T13:47:56Z</time></trkpt><trkpt lat="40.095204984945156" lon="9.538629386058043"><ele>721.0</ele><time>2026-04-03T13:47:57Z</time></trkpt><trkpt lat="40.095096869554844" lon="9.538491378229915"><ele>721.3333333333334</ele><time>2026-04-03T13:47:58Z</time></trkpt><trkpt lat="40.09498605839646" lon="9.538347388997945"><ele>721.6666666666666</ele><time>2026-04-03T13:47:59Z</time></trkpt><trkpt lat="40.09487736185149" lon="9.538200167059767"><ele>722.0</ele><time>2026-04-03T13:48:00Z</time></trkpt><trkpt lat="40.094775385925224" lon="9.538040023126806"><ele>721.6666666666666</ele><time>2026-04-03T13:48:01Z</time></trkpt><trkpt lat="40.09469435400329" lon="9.53785376138036"><ele>721.3333333333334</ele><time>2026-04-03T13:48:02Z</time></trkpt><trkpt lat="40.09463460451957" lon="9.537661632280617"><ele>721.0</ele><time>2026-04-03T13:48:03Z</time></trkpt><trkpt lat="40.09460389354666" lon="9.537458484676657"><ele>721.0</ele><time>2026-04-03T13:48:04Z</time></trkpt><trkpt lat="40.09458868685617" lon="9.537247766107681"><ele>721.0</ele><time>2026-04-03T13:48:05Z</time></trkpt><trkpt lat="40.09459328362856" lon="9.537035877554045"><ele>721.0</ele><time>2026-04-03T13:48:06Z</time></trkpt><trkpt lat="40.094620190504145" lon="9.536828108351454"><ele>721.0</ele><time>2026-04-03T13:48:07Z</time></trkpt><trkpt lat="40.0946688447957" lon="9.536622745299395"><ele>721.0</ele><time>2026-04-03T13:48:08Z</time></trkpt><trkpt lat="40.094726967320774" lon="9.536421957826033"><ele>721.0</ele><time>2026-04-03T13:48:09Z</time></trkpt><trkpt lat="40.09478075702894" lon="9.536214862375544"><ele>721.0</ele><time>2026-04-03T13:48:10Z</time></trkpt><trkpt lat="40.094830244213185" lon="9.536007481755593"><ele>721.0</ele><time>2026-04-03T13:48:11Z</time></trkpt><trkpt lat="40.094881308411196" lon="9.535797888981694"><ele>721.0</ele><time>2026-04-03T13:48:12Z</time></trkpt><trkpt lat="40.09493114239852" lon="9.535584540456657"><ele>721.6666666666667</ele><time>2026-04-03T13:48:13Z</time></trkpt><trkpt lat="40.094981747004994" lon="9.535369092665047"><ele>722.3333333333334</ele><time>2026-04-03T13:48:14Z</time></trkpt><trkpt lat="40.095035282003344" lon="9.535156847086267"><ele>723.0</ele><time>2026-04-03T13:48:15Z</time></trkpt><trkpt lat="40.09508871497191" lon="9.53494863708358"><ele>723.0</ele><time>2026-04-03T13:48:16Z</time></trkpt><trkpt lat="40.095145381981624" lon="9.534745268552014"><ele>723.0</ele><time>2026-04-03T13:48:17Z</time></trkpt><trkpt lat="40.09521533907287" lon="9.534560580090687"><ele>723.0</ele><time>2026-04-03T13:48:18Z</time></trkpt><trkpt lat="40.09531556196101" lon="9.534412832815367"><ele>723.75</ele><time>2026-04-03T13:48:19Z</time></trkpt><trkpt lat="40.095437979039815" lon="9.534301070906034"><ele>724.5</ele><time>2026-04-03T13:48:20Z</time></trkpt><trkpt lat="40.095572320150865" lon="9.534215277769194"><ele>725.25</ele><time>2026-04-03T13:48:21Z</time></trkpt><trkpt lat="40.09570484445859" lon="9.534124478151506"><ele>726.0</ele><time>2026-04-03T13:48:22Z</time></trkpt><trkpt lat="40.095833089953565" lon="9.53402640984425"><ele>726.0</ele><time>2026-04-03T13:48:23Z</time></trkpt><trkpt lat="40.09595908457476" lon="9.53392942357632"><ele>726.0</ele><time>2026-04-03T13:48:24Z</time></trkpt><trkpt lat="40.09607148885624" lon="9.533817407946648"><ele>726.0</ele><time>2026-04-03T13:48:25Z</time></trkpt><trkpt lat="40.096157770707464" lon="9.533667142543317"><ele>726.0</ele><time>2026-04-03T13:48:26Z</time></trkpt><trkpt lat="40.096211023223226" lon="9.533484048486843"><ele>726.3333333333334</ele><time>2026-04-03T13:48:27Z</time></trkpt><trkpt lat="40.09623280640227" lon="9.533286602628001"><ele>726.6666666666667</ele><time>2026-04-03T13:48:28Z</time></trkpt><trkpt lat="40.09622916918581" lon="9.533084021123745"><ele>727.0</ele><time>2026-04-03T13:48:29Z</time></trkpt><trkpt lat="40.09622587403587" lon="9.53287862072376"><ele>726.0</ele><time>2026-04-03T13:48:30Z</time></trkpt><trkpt lat="40.09622760792281" lon="9.532673057005107"><ele>725.0</ele><time>2026-04-03T13:48:31Z</time></trkpt><trkpt lat="40.09623026484881" lon="9.532466300707304"><ele>724.0</ele><time>2026-04-03T13:48:32Z</time></trkpt><trkpt lat="40.096233153528395" lon="9.532258890710569"><ele>724.3333333333334</ele><time>2026-04-03T13:48:33Z</time></trkpt><trkpt lat="40.09623491256701" lon="9.532053145382212"><ele>724.6666666666666</ele><time>2026-04-03T13:48:34Z</time></trkpt><trkpt lat="40.0962361232046" lon="9.531847419083121"><ele>725.0</ele><time>2026-04-03T13:48:35Z</time></trkpt><trkpt lat="40.096239263353475" lon="9.531637708529354"><ele>725.0</ele><time>2026-04-03T13:48:36Z</time></trkpt><trkpt lat="40.096242089597574" lon="9.531426472163181"><ele>725.0</ele><time>2026-04-03T13:48:37Z</time></trkpt><trkpt lat="40.096245556932175" lon="9.531220260375175"><ele>725.0</ele><time>2026-04-03T13:48:38Z</time></trkpt><trkpt lat="40.09624916939816" lon="9.531029971816075"><ele>725.0</ele><time>2026-04-03T13:48:39Z</time></trkpt><trkpt lat="40.09626305318223" lon="9.530856713332382"><ele>725.0</ele><time>2026-04-03T13:48:40Z</time></trkpt><trkpt lat="40.0962955943246" lon="9.530694418718626"><ele>725.0</ele><time>2026-04-03T13:48:41Z</time></trkpt><trkpt lat="40.09635824803926" lon="9.530551013006276"><ele>725.0</ele><time>2026-04-03T13:48:42Z</time></trkpt><trkpt lat="40.09644074769469" lon="9.530427294678265"><ele>723.75</ele><time>2026-04-03T13:48:43Z</time></trkpt><trkpt lat="40.096543941534506" lon="9.530332269247893"><ele>722.5</ele><time>2026-04-03T13:48:44Z</time></trkpt><trkpt lat="40.0966571744844" lon="9.530264933001932"><ele>721.25</ele><time>2026-04-03T13:48:45Z</time></trkpt><trkpt lat="40.096778467106105" lon="9.53022970313701"><ele>720.0</ele><time>2026-04-03T13:48:46Z</time></trkpt><trkpt lat="40.096902701847796" lon="9.53022070805538"><ele>723.0</ele><time>2026-04-03T13:48:47Z</time></trkpt><trkpt lat="40.09703300272305" lon="9.530224362194168"><ele>726.0</ele><time>2026-04-03T13:48:48Z</time></trkpt><trkpt lat="40.097174439915" lon="9.530227195613804"><ele>729.0</ele><time>2026-04-03T13:48:49Z</time></trkpt><trkpt lat="40.09731277813232" lon="9.530229668571218"><ele>732.0</ele><time>2026-04-03T13:48:50Z</time></trkpt><trkpt lat="40.09745199541574" lon="9.530230647370173"><ele>733.75</ele><time>2026-04-03T13:48:51Z</time></trkpt><trkpt lat="40.097592978175264" lon="9.530217299590975"><ele>735.5</ele><time>2026-04-03T13:48:52Z</time></trkpt><trkpt lat="40.097735941450196" lon="9.53018307749884"><ele>737.25</ele><time>2026-04-03T13:48:53Z</time></trkpt><trkpt lat="40.09788151887737" lon="9.53013574780629"><ele>739.0</ele><time>2026-04-03T13:48:54Z</time></trkpt><trkpt lat="40.09803333817688" lon="9.53007251260459"><ele>739.0</ele><time>2026-04-03T13:48:55Z</time></trkpt><trkpt lat="40.09818326407325" lon="9.529990422032508"><ele>739.0</ele><time>2026-04-03T13:48:56Z</time></trkpt><trkpt lat="40.098325128251524" lon="9.529904110216838"><ele>739.0</ele><time>2026-04-03T13:48:57Z</time></trkpt><trkpt lat="40.098465192546236" lon="9.529828738447147"><ele>739.3333333333334</ele><time>2026-04-03T13:48:58Z</time></trkpt><trkpt lat="40.09860423369414" lon="9.529771879789054"><ele>739.6666666666666</ele><time>2026-04-03T13:48:59Z</time></trkpt><trkpt lat="40.098750632171416" lon="9.529699759759747"><ele>740.0</ele><time>2026-04-03T13:49:00Z</time></trkpt><trkpt lat="40.098897963834226" lon="9.529611650151294"><ele>739.3333333333333</ele><time>2026-04-03T13:49:01Z</time></trkpt><trkpt lat="40.099044198585375" lon="9.529520673273732"><ele>738.6666666666666</ele><time>2026-04-03T13:49:02Z</time></trkpt><trkpt lat="40.0991942713069" lon="9.529432000803794"><ele>738.0</ele><time>2026-04-03T13:49:03Z</time></trkpt><trkpt lat="40.099343914200006" lon="9.529343216408739"><ele>740.0</ele><time>2026-04-03T13:49:04Z</time></trkpt><trkpt lat="40.0994934614882" lon="9.529256034879047"><ele>742.0</ele><time>2026-04-03T13:49:05Z</time></trkpt><trkpt lat="40.09964310645532" lon="9.529169033091604"><ele>744.0</ele><time>2026-04-03T13:49:06Z</time></trkpt><trkpt lat="40.09979658194844" lon="9.529096980452566"><ele>747.6666666666666</ele><time>2026-04-03T13:49:07Z</time></trkpt><trkpt lat="40.099953962156434" lon="9.529044796067486"><ele>751.3333333333333</ele><time>2026-04-03T13:49:08Z</time></trkpt><trkpt lat="40.10011639134674" lon="9.529024779700215"><ele>755.0</ele><time>2026-04-03T13:49:09Z</time></trkpt><trkpt lat="40.100282648162086" lon="9.529006341159361"><ele>755.0</ele><time>2026-04-03T13:49:10Z</time></trkpt><trkpt lat="40.10044782852535" lon="9.528970695841885"><ele>755.0</ele><time>2026-04-03T13:49:11Z</time></trkpt><trkpt lat="40.10061094707545" lon="9.528922051101507"><ele>755.0</ele><time>2026-04-03T13:49:12Z</time></trkpt><trkpt lat="40.10077409258275" lon="9.528868643962515"><ele>752.6666666666666</ele><time>2026-04-03T13:49:13Z</time></trkpt><trkpt lat="40.100937682941726" lon="9.528812535431593"><ele>750.3333333333334</ele><time>2026-04-03T13:49:14Z</time></trkpt><trkpt lat="40.10109998712583" lon="9.528753333142543"><ele>748.0</ele><time>2026-04-03T13:49:15Z</time></trkpt><trkpt lat="40.101257561589485" lon="9.528698270865418"><ele>748.0</ele><time>2026-04-03T13:49:16Z</time></trkpt><trkpt lat="40.101416538920056" lon="9.52865824337823"><ele>748.0</ele><time>2026-04-03T13:49:17Z</time></trkpt><trkpt lat="40.10156174794954" lon="9.528652480621169"><ele>748.0</ele><time>2026-04-03T13:49:18Z</time></trkpt><trkpt lat="40.101689818604804" lon="9.52869917261874"><ele>748.0</ele><time>2026-04-03T13:49:19Z</time></trkpt><trkpt lat="40.10179179580042" lon="9.52880479896384"><ele>753.25</ele><time>2026-04-03T13:49:20Z</time></trkpt><trkpt lat="40.101844284028346" lon="9.528965068370779"><ele>758.5</ele><time>2026-04-03T13:49:21Z</time></trkpt><trkpt lat="40.10185911718681" lon="9.52913544481761"><ele>763.75</ele><time>2026-04-03T13:49:22Z</time></trkpt><trkpt lat="40.101851688053756" lon="9.529310843103138"><ele>769.0</ele><time>2026-04-03T13:49:23Z</time></trkpt><trkpt lat="40.1018423521343" lon="9.529487557572745"><ele>770.5</ele><time>2026-04-03T13:49:24Z</time></trkpt><trkpt lat="40.101856716601674" lon="9.529657287447671"><ele>772.0</ele><time>2026-04-03T13:49:25Z</time></trkpt><trkpt lat="40.101912099476706" lon="9.529813616182278"><ele>773.5</ele><time>2026-04-03T13:49:26Z</time></trkpt><trkpt lat="40.10201013253333" lon="9.52993663226817"><ele>775.0</ele><time>2026-04-03T13:49:27Z</time></trkpt><trkpt lat="40.10213561785551" lon="9.530019548351941"><ele>775.0</ele><time>2026-04-03T13:49:28Z</time></trkpt><trkpt lat="40.10227574792591" lon="9.530067935509496"><ele>775.0</ele><time>2026-04-03T13:49:29Z</time></trkpt><trkpt lat="40.10242474418419" lon="9.530094644226384"><ele>775.0</ele><time>2026-04-03T13:49:30Z</time></trkpt><trkpt lat="40.10257599821679" lon="9.530120343365988"><ele>775.0</ele><time>2026-04-03T13:49:31Z</time></trkpt><trkpt lat="40.102724933174606" lon="9.530150943276784"><ele>775.6666666666666</ele><time>2026-04-03T13:49:32Z</time></trkpt><trkpt lat="40.102874790261524" lon="9.530186258966308"><ele>776.3333333333333</ele><time>2026-04-03T13:49:33Z</time></trkpt><trkpt lat="40.10302623447002" lon="9.530224558455075"><ele>777.0</ele><time>2026-04-03T13:49:34Z</time></trkpt><trkpt lat="40.10317848961647" lon="9.530261543985896"><ele>778.25</ele><time>2026-04-03T13:49:35Z</time></trkpt><trkpt lat="40.10332941550446" lon="9.530295792725465"><ele>779.5</ele><time>2026-04-03T13:49:36Z</time></trkpt><trkpt lat="40.10347571866652" lon="9.530332408697143"><ele>780.75</ele><time>2026-04-03T13:49:37Z</time></trkpt><trkpt lat="40.10361685998501" lon="9.53033442439757"><ele>782.0</ele><time>2026-04-03T13:49:38Z</time></trkpt><trkpt lat="40.103745319006265" lon="9.530264878977158"><ele>782.0</ele><time>2026-04-03T13:49:39Z</time></trkpt><trkpt lat="40.10384335729651" lon="9.530121686698235"><ele>782.0</ele><time>2026-04-03T13:49:40Z</time></trkpt><trkpt lat="40.10389358651601" lon="9.529952627731753"><ele>782.0</ele><time>2026-04-03T13:49:41Z</time></trkpt><trkpt lat="40.103896529676376" lon="9.529782886819548"><ele>782.0</ele><time>2026-04-03T13:49:42Z</time></trkpt><trkpt lat="40.10393746500596" lon="9.529647382884553"><ele>780.8</ele><time>2026-04-03T13:49:43Z</time></trkpt><trkpt lat="40.10397294173986" lon="9.529530255709105"><ele>779.6</ele><time>2026-04-03T13:49:44Z</time></trkpt><trkpt lat="40.104075889935416" lon="9.529468650857527"><ele>778.4</ele><time>2026-04-03T13:49:45Z</time></trkpt><trkpt lat="40.104178994961835" lon="9.529479912368574"><ele>777.1999999999999</ele><time>2026-04-03T13:49:46Z</time></trkpt><trkpt lat="40.104266964012865" lon="9.529570441750412"><ele>776.0</ele><time>2026-04-03T13:49:47Z</time></trkpt><trkpt lat="40.10431376381869" lon="9.529701182140142"><ele>779.75</ele><time>2026-04-03T13:49:48Z</time></trkpt><trkpt lat="40.104297247188555" lon="9.529846624387902"><ele>783.5</ele><time>2026-04-03T13:49:49Z</time></trkpt><trkpt lat="40.104266980357494" lon="9.529995677476427"><ele>787.25</ele><time>2026-04-03T13:49:50Z</time></trkpt><trkpt lat="40.10424060658504" lon="9.530158240011483"><ele>791.0</ele><time>2026-04-03T13:49:51Z</time></trkpt><trkpt lat="40.10423755194903" lon="9.530341002881922"><ele>789.5</ele><time>2026-04-03T13:49:52Z</time></trkpt><trkpt lat="40.104298030199566" lon="9.530509040050381"><ele>788.0</ele><time>2026-04-03T13:49:53Z</time></trkpt><trkpt lat="40.1044003053705" lon="9.53062064560875"><ele>786.5</ele><time>2026-04-03T13:49:54Z</time></trkpt><trkpt lat="40.10452469658705" lon="9.530655247342459"><ele>785.0</ele><time>2026-04-03T13:49:55Z</time></trkpt><trkpt lat="40.104642125603384" lon="9.530609506629471"><ele>785.0</ele><time>2026-04-03T13:49:56Z</time></trkpt><trkpt lat="40.10472936598233" lon="9.530491480165518"><ele>785.0</ele><time>2026-04-03T13:49:57Z</time></trkpt><trkpt lat="40.104769869585034" lon="9.5303313551443"><ele>785.0</ele><time>2026-04-03T13:49:58Z</time></trkpt><trkpt lat="40.10475426759196" lon="9.530158274371871"><ele>785.0</ele><time>2026-04-03T13:49:59Z</time></trkpt><trkpt lat="40.10472351881252" lon="9.529986595581937"><ele>786.5</ele><time>2026-04-03T13:50:00Z</time></trkpt><trkpt lat="40.104672722371575" lon="9.529816246148421"><ele>788.0</ele><time>2026-04-03T13:50:01Z</time></trkpt><trkpt lat="40.10464167270577" lon="9.529620399261942"><ele>789.5</ele><time>2026-04-03T13:50:02Z</time></trkpt><trkpt lat="40.104610112171294" lon="9.529427555222112"><ele>791.0</ele><time>2026-04-03T13:50:03Z</time></trkpt><trkpt lat="40.10457219070633" lon="9.529235515185155"><ele>791.6666666666667</ele><time>2026-04-03T13:50:04Z</time></trkpt><trkpt lat="40.104529465762624" lon="9.529042120922231"><ele>792.3333333333333</ele><time>2026-04-03T13:50:05Z</time></trkpt><trkpt lat="40.10449086199545" lon="9.528849003095017"><ele>793.0</ele><time>2026-04-03T13:50:06Z</time></trkpt><trkpt lat="40.10445756505504" lon="9.5286632122345"><ele>793.5</ele><time>2026-04-03T13:50:07Z</time></trkpt><trkpt lat="40.10444417271312" lon="9.528476498959309"><ele>794.0</ele><time>2026-04-03T13:50:08Z</time></trkpt><trkpt lat="40.10446550397313" lon="9.528288306923933"><ele>794.5</ele><time>2026-04-03T13:50:09Z</time></trkpt><trkpt lat="40.104513501636724" lon="9.528105302070772"><ele>795.0</ele><time>2026-04-03T13:50:10Z</time></trkpt><trkpt lat="40.10456948278469" lon="9.52792649829934"><ele>793.75</ele><time>2026-04-03T13:50:11Z</time></trkpt><trkpt lat="40.104633932645314" lon="9.527753138484323"><ele>792.5</ele><time>2026-04-03T13:50:12Z</time></trkpt><trkpt lat="40.1047138665306" lon="9.527590962508743"><ele>791.25</ele><time>2026-04-03T13:50:13Z</time></trkpt><trkpt lat="40.10481923767329" lon="9.527455526606904"><ele>790.0</ele><time>2026-04-03T13:50:14Z</time></trkpt><trkpt lat="40.104941647863114" lon="9.52734261797147"><ele>799.3333333333333</ele><time>2026-04-03T13:50:15Z</time></trkpt><trkpt lat="40.10506882076924" lon="9.527239850875656"><ele>808.6666666666667</ele><time>2026-04-03T13:50:16Z</time></trkpt><trkpt lat="40.10520306897986" lon="9.527150700875003"><ele>818.0</ele><time>2026-04-03T13:50:17Z</time></trkpt><trkpt lat="40.10534646705568" lon="9.527077127593895"><ele>817.6666666666667</ele><time>2026-04-03T13:50:18Z</time></trkpt><trkpt lat="40.10549450740566" lon="9.527022708077237"><ele>817.3333333333333</ele><time>2026-04-03T13:50:19Z</time></trkpt><trkpt lat="40.10564649703154" lon="9.526986990647101"><ele>817.0</ele><time>2026-04-03T13:50:20Z</time></trkpt><trkpt lat="40.105798597944506" lon="9.526956376119104"><ele>817.0</ele><time>2026-04-03T13:50:21Z</time></trkpt><trkpt lat="40.10595089340391" lon="9.526925503476376"><ele>817.0</ele><time>2026-04-03T13:50:22Z</time></trkpt><trkpt lat="40.10609737201707" lon="9.526872634182677"><ele>817.0</ele><time>2026-04-03T13:50:23Z</time></trkpt><trkpt lat="40.106232032508444" lon="9.526778618097165"><ele>817.0</ele><time>2026-04-03T13:50:24Z</time></trkpt><trkpt lat="40.10634680775796" lon="9.526641655518704"><ele>817.0</ele><time>2026-04-03T13:50:25Z</time></trkpt><trkpt lat="40.10643754839463" lon="9.52647879817149"><ele>817.0</ele><time>2026-04-03T13:50:26Z</time></trkpt><trkpt lat="40.10649869900143" lon="9.526295209211424"><ele>815.3333333333333</ele><time>2026-04-03T13:50:27Z</time></trkpt><trkpt lat="40.106523787805834" lon="9.526096133273017"><ele>813.6666666666667</ele><time>2026-04-03T13:50:28Z</time></trkpt><trkpt lat="40.10651832624432" lon="9.525897810657332"><ele>812.0</ele><time>2026-04-03T13:50:29Z</time></trkpt><trkpt lat="40.106483756075065" lon="9.525703843214453"><ele>812.0</ele><time>2026-04-03T13:50:30Z</time></trkpt><trkpt lat="40.10642222373292" lon="9.525517361198943"><ele>812.0</ele><time>2026-04-03T13:50:31Z</time></trkpt><trkpt lat="40.10633951426927" lon="9.525344567169917"><ele>812.0</ele><time>2026-04-03T13:50:32Z</time></trkpt><trkpt lat="40.106243325298024" lon="9.525180339821443"><ele>819.0</ele><time>2026-04-03T13:50:33Z</time></trkpt><trkpt lat="40.106133993021366" lon="9.525034844775746"><ele>826.0</ele><time>2026-04-03T13:50:34Z</time></trkpt><trkpt lat="40.10599821454808" lon="9.524942965255468"><ele>833.0</ele><time>2026-04-03T13:50:35Z</time></trkpt><trkpt lat="40.10584139885664" lon="9.524919344597969"><ele>832.3333333333334</ele><time>2026-04-03T13:50:36Z</time></trkpt><trkpt lat="40.105682859898145" lon="9.524921223590624"><ele>831.6666666666667</ele><time>2026-04-03T13:50:37Z</time></trkpt><trkpt lat="40.10552554338171" lon="9.524885876429824"><ele>831.0</ele><time>2026-04-03T13:50:38Z</time></trkpt><trkpt lat="40.10536680546506" lon="9.524871908088407"><ele>831.0</ele><time>2026-04-03T13:50:39Z</time></trkpt><trkpt lat="40.10521645617095" lon="9.52485777999405"><ele>831.0</ele><time>2026-04-03T13:50:40Z</time></trkpt><trkpt lat="40.10507993065581" lon="9.524864231656975"><ele>831.0</ele><time>2026-04-03T13:50:41Z</time></trkpt><trkpt lat="40.10495850042805" lon="9.524819756998218"><ele>831.0</ele><time>2026-04-03T13:50:42Z</time></trkpt><trkpt lat="40.10486336082185" lon="9.524716232173294"><ele>833.0</ele><time>2026-04-03T13:50:43Z</time></trkpt><trkpt lat="40.10481363491275" lon="9.524568187563027"><ele>835.0</ele><time>2026-04-03T13:50:44Z</time></trkpt><trkpt lat="40.104814522504576" lon="9.52440255461716"><ele>837.0</ele><time>2026-04-03T13:50:45Z</time></trkpt><trkpt lat="40.104855957427084" lon="9.524241803613934"><ele>839.0</ele><time>2026-04-03T13:50:46Z</time></trkpt><trkpt lat="40.10491350058902" lon="9.524092448103808"><ele>839.0</ele><time>2026-04-03T13:50:47Z</time></trkpt><trkpt lat="40.104982924425656" lon="9.523952609914836"><ele>839.0</ele><time>2026-04-03T13:50:48Z</time></trkpt><trkpt lat="40.10507253399899" lon="9.523832001492973"><ele>839.0</ele><time>2026-04-03T13:50:49Z</time></trkpt><trkpt lat="40.10517756210448" lon="9.523735439852771"><ele>839.0</ele><time>2026-04-03T13:50:50Z</time></trkpt><trkpt lat="40.10529148782229" lon="9.523653793773445"><ele>841.75</ele><time>2026-04-03T13:50:51Z</time></trkpt><trkpt lat="40.10540341469647" lon="9.523574569580715"><ele>844.5</ele><time>2026-04-03T13:50:52Z</time></trkpt><trkpt lat="40.10551570586649" lon="9.523488272806937"><ele>847.25</ele><time>2026-04-03T13:50:53Z</time></trkpt><trkpt lat="40.10562863975831" lon="9.523401190871375"><ele>850.0</ele><time>2026-04-03T13:50:54Z</time></trkpt><trkpt lat="40.105745700263704" lon="9.523316232454173"><ele>850.0</ele><time>2026-04-03T13:50:55Z</time></trkpt><trkpt lat="40.10585875997914" lon="9.523219545708168"><ele>850.0</ele><time>2026-04-03T13:50:56Z</time></trkpt><trkpt lat="40.10596505461716" lon="9.523101307579504"><ele>850.0</ele><time>2026-04-03T13:50:57Z</time></trkpt><trkpt lat="40.10606465792819" lon="9.522966334591144"><ele>850.0</ele><time>2026-04-03T13:50:58Z</time></trkpt><trkpt lat="40.10616179719489" lon="9.522827694213507"><ele>845.0</ele><time>2026-04-03T13:50:59Z</time></trkpt><trkpt lat="40.106260392931375" lon="9.522685950771072"><ele>840.0</ele><time>2026-04-03T13:51:00Z</time></trkpt><trkpt lat="40.106343401733675" lon="9.522526023164707"><ele>835.0</ele><time>2026-04-03T13:51:01Z</time></trkpt><trkpt lat="40.10640939161783" lon="9.522355498742897"><ele>830.0</ele><time>2026-04-03T13:51:02Z</time></trkpt><trkpt lat="40.10646898289671" lon="9.522186799737339"><ele>824.75</ele><time>2026-04-03T13:51:03Z</time></trkpt><trkpt lat="40.10653611575149" lon="9.522023380039341"><ele>819.5</ele><time>2026-04-03T13:51:04Z</time></trkpt><trkpt lat="40.1066159718387" lon="9.521869865764184"><ele>814.25</ele><time>2026-04-03T13:51:05Z</time></trkpt><trkpt lat="40.10670822018074" lon="9.521727826097974"><ele>809.0</ele><time>2026-04-03T13:51:06Z</time></trkpt><trkpt lat="40.10681158264941" lon="9.521592431742189"><ele>812.75</ele><time>2026-04-03T13:51:07Z</time></trkpt><trkpt lat="40.1069198412995" lon="9.521461193990826"><ele>816.5</ele><time>2026-04-03T13:51:08Z</time></trkpt><trkpt lat="40.10702572892892" lon="9.521326470267555"><ele>820.25</ele><time>2026-04-03T13:51:09Z</time></trkpt><trkpt lat="40.107128047430685" lon="9.521191959062635"><ele>824.0</ele><time>2026-04-03T13:51:10Z</time></trkpt><trkpt lat="40.10723191591977" lon="9.521058377671528"><ele>824.0</ele><time>2026-04-03T13:51:11Z</time></trkpt><trkpt lat="40.10734149588861" lon="9.52093802505343"><ele>824.0</ele><time>2026-04-03T13:51:12Z</time></trkpt><trkpt lat="40.107464599714234" lon="9.520839399689102"><ele>824.0</ele><time>2026-04-03T13:51:13Z</time></trkpt><trkpt lat="40.10759791116488" lon="9.520769093576705"><ele>824.0</ele><time>2026-04-03T13:51:14Z</time></trkpt><trkpt lat="40.10774214222518" lon="9.520726403209892"><ele>836.3333333333334</ele><time>2026-04-03T13:51:15Z</time></trkpt><trkpt lat="40.10788935228871" lon="9.520687513160263"><ele>848.6666666666667</ele><time>2026-04-03T13:51:16Z</time></trkpt><trkpt lat="40.10803672863418" lon="9.520630887605009"><ele>861.0</ele><time>2026-04-03T13:51:17Z</time></trkpt><trkpt lat="40.108179145470146" lon="9.520546888770046"><ele>858.6666666666667</ele><time>2026-04-03T13:51:18Z</time></trkpt><trkpt lat="40.108305113224375" lon="9.520429858743814"><ele>856.3333333333334</ele><time>2026-04-03T13:51:19Z</time></trkpt><trkpt lat="40.108420986694426" lon="9.520283067833546"><ele>854.0</ele><time>2026-04-03T13:51:20Z</time></trkpt><trkpt lat="40.10853461914219" lon="9.520130457932872"><ele>854.0</ele><time>2026-04-03T13:51:21Z</time></trkpt><trkpt lat="40.10865211352608" lon="9.519985849412056"><ele>854.0</ele><time>2026-04-03T13:51:22Z</time></trkpt><trkpt lat="40.10876737225766" lon="9.519843271246897"><ele>854.0</ele><time>2026-04-03T13:51:23Z</time></trkpt><trkpt lat="40.108882031671094" lon="9.519703452911674"><ele>856.75</ele><time>2026-04-03T13:51:24Z</time></trkpt><trkpt lat="40.108995753071014" lon="9.519564778357319"><ele>859.5</ele><time>2026-04-03T13:51:25Z</time></trkpt><trkpt lat="40.10910382275765" lon="9.519439287832785"><ele>862.25</ele><time>2026-04-03T13:51:26Z</time></trkpt><trkpt lat="40.1092107948304" lon="9.519341996664933"><ele>865.0</ele><time>2026-04-03T13:51:27Z</time></trkpt><trkpt lat="40.10932759397504" lon="9.51924263790961"><ele>865.0</ele><time>2026-04-03T13:51:28Z</time></trkpt><trkpt lat="40.10945526725854" lon="9.519134356071607"><ele>865.0</ele><time>2026-04-03T13:51:29Z</time></trkpt><trkpt lat="40.10956729177278" lon="9.519069053741418"><ele>865.0</ele><time>2026-04-03T13:51:30Z</time></trkpt><trkpt lat="40.1097221158739" lon="9.518994281395667"><ele>865.0</ele><time>2026-04-03T13:51:31Z</time></trkpt><trkpt lat="40.10993200379622" lon="9.518893476578826"><ele>865.6666666666666</ele><time>2026-04-03T13:51:32Z</time></trkpt><trkpt lat="40.11013011817967" lon="9.51872839027028"><ele>866.3333333333333</ele><time>2026-04-03T13:51:33Z</time></trkpt><trkpt lat="40.11026380494087" lon="9.518587071887614"><ele>867.0</ele><time>2026-04-03T13:51:34Z</time></trkpt><trkpt lat="40.11039477522982" lon="9.518445721570068"><ele>867.0</ele><time>2026-04-03T13:51:35Z</time></trkpt><trkpt lat="40.11052629393459" lon="9.518304256573524"><ele>867.0</ele><time>2026-04-03T13:51:36Z</time></trkpt><trkpt lat="40.1106407860936" lon="9.518124200700173"><ele>867.0</ele><time>2026-04-03T13:51:37Z</time></trkpt><trkpt lat="40.110690535485425" lon="9.517900953274209"><ele>860.3333333333333</ele><time>2026-04-03T13:51:38Z</time></trkpt><trkpt lat="40.1107270326865" lon="9.517674889480967"><ele>853.6666666666666</ele><time>2026-04-03T13:51:39Z</time></trkpt><trkpt lat="40.11078718816334" lon="9.517467109552323"><ele>847.0</ele><time>2026-04-03T13:51:40Z</time></trkpt><trkpt lat="40.110850905623266" lon="9.517272523991293"><ele>856.6666666666666</ele><time>2026-04-03T13:51:41Z</time></trkpt><trkpt lat="40.11093602945712" lon="9.517089766254115"><ele>866.3333333333333</ele><time>2026-04-03T13:51:42Z</time></trkpt><trkpt lat="40.111049760552305" lon="9.516944230785397"><ele>876.0</ele><time>2026-04-03T13:51:43Z</time></trkpt><trkpt lat="40.111186787241266" lon="9.516817954745393"><ele>876.0</ele><time>2026-04-03T13:51:44Z</time></trkpt><trkpt lat="40.11128577437355" lon="9.516626517823486"><ele>876.0</ele><time>2026-04-03T13:51:45Z</time></trkpt><trkpt lat="40.11132471821138" lon="9.516399343285999"><ele>876.0</ele><time>2026-04-03T13:51:46Z</time></trkpt><trkpt lat="40.111384103006436" lon="9.516189894796074"><ele>873.3333333333333</ele><time>2026-04-03T13:51:47Z</time></trkpt><trkpt lat="40.11146001003059" lon="9.515989398891945"><ele>870.6666666666666</ele><time>2026-04-03T13:51:48Z</time></trkpt><trkpt lat="40.111553525527576" lon="9.515805438207439"><ele>868.0</ele><time>2026-04-03T13:51:49Z</time></trkpt><trkpt lat="40.111655989324674" lon="9.515633178936785"><ele>878.0</ele><time>2026-04-03T13:51:50Z</time></trkpt><trkpt lat="40.11176075362181" lon="9.5154651154246"><ele>888.0</ele><time>2026-04-03T13:51:51Z</time></trkpt><trkpt lat="40.11186379127423" lon="9.515296942671892"><ele>898.0</ele><time>2026-04-03T13:51:52Z</time></trkpt><trkpt lat="40.11196645452848" lon="9.515133017803999"><ele>898.0</ele><time>2026-04-03T13:51:53Z</time></trkpt><trkpt lat="40.11207257349681" lon="9.514974127148442"><ele>898.0</ele><time>2026-04-03T13:51:54Z</time></trkpt><trkpt lat="40.112184032773655" lon="9.514828247519036"><ele>898.0</ele><time>2026-04-03T13:51:55Z</time></trkpt><trkpt lat="40.11230604053219" lon="9.51469594142581"><ele>903.3333333333333</ele><time>2026-04-03T13:51:56Z</time></trkpt><trkpt lat="40.11242207410879" lon="9.514550019433576"><ele>908.6666666666667</ele><time>2026-04-03T13:51:57Z</time></trkpt><trkpt lat="40.11254165955726" lon="9.514409779612691"><ele>914.0</ele><time>2026-04-03T13:51:58Z</time></trkpt><trkpt lat="40.11265211792964" lon="9.51427597648586"><ele>914.0</ele><time>2026-04-03T13:51:59Z</time></trkpt><trkpt lat="40.11277831953059" lon="9.514147546594264"><ele>914.0</ele><time>2026-04-03T13:52:00Z</time></trkpt><trkpt lat="40.11291155245372" lon="9.514034733945213"><ele>914.0</ele><time>2026-04-03T13:52:01Z</time></trkpt><trkpt lat="40.11305099640883" lon="9.51392002503586"><ele>914.0</ele><time>2026-04-03T13:52:02Z</time></trkpt><trkpt lat="40.11318632199487" lon="9.513795453471847"><ele>914.0</ele><time>2026-04-03T13:52:03Z</time></trkpt><trkpt lat="40.11332437643665" lon="9.513664705843915"><ele>914.0</ele><time>2026-04-03T13:52:04Z</time></trkpt><trkpt lat="40.113470783171785" lon="9.513541769318053"><ele>917.3333333333334</ele><time>2026-04-03T13:52:05Z</time></trkpt><trkpt lat="40.113630068337436" lon="9.513443604809632"><ele>920.6666666666667</ele><time>2026-04-03T13:52:06Z</time></trkpt><trkpt lat="40.113802540629145" lon="9.513371208068909"><ele>924.0</ele><time>2026-04-03T13:52:07Z</time></trkpt><trkpt lat="40.11397137693014" lon="9.513295529396247"><ele>919.0</ele><time>2026-04-03T13:52:08Z</time></trkpt><trkpt lat="40.114129517192026" lon="9.513203652803075"><ele>914.0</ele><time>2026-04-03T13:52:09Z</time></trkpt><trkpt lat="40.11425981624975" lon="9.513067861306054"><ele>909.0</ele><time>2026-04-03T13:52:10Z</time></trkpt><trkpt lat="40.114404661552186" lon="9.512951529447848"><ele>919.6666666666667</ele><time>2026-04-03T13:52:11Z</time></trkpt><trkpt lat="40.114566803712776" lon="9.512856527936878"><ele>930.3333333333334</ele><time>2026-04-03T13:52:12Z</time></trkpt><trkpt lat="40.11472618988395" lon="9.512761280722291"><ele>941.0</ele><time>2026-04-03T13:52:13Z</time></trkpt><trkpt lat="40.11489210160776" lon="9.5126711863479"><ele>936.0</ele><time>2026-04-03T13:52:14Z</time></trkpt><trkpt lat="40.115060007023445" lon="9.512582132168198"><ele>931.0</ele><time>2026-04-03T13:52:15Z</time></trkpt><trkpt lat="40.115228404019994" lon="9.512494443036449"><ele>926.0</ele><time>2026-04-03T13:52:16Z</time></trkpt><trkpt lat="40.1153960054804" lon="9.512409152089251"><ele>926.0</ele><time>2026-04-03T13:52:17Z</time></trkpt><trkpt lat="40.115572063784356" lon="9.512341654318936"><ele>926.0</ele><time>2026-04-03T13:52:18Z</time></trkpt><trkpt lat="40.115746965568974" lon="9.512290354197214"><ele>926.0</ele><time>2026-04-03T13:52:19Z</time></trkpt><trkpt lat="40.115919584954135" lon="9.512239627694344"><ele>921.6666666666667</ele><time>2026-04-03T13:52:20Z</time></trkpt><trkpt lat="40.11608639423625" lon="9.512170261296534"><ele>917.3333333333333</ele><time>2026-04-03T13:52:21Z</time></trkpt><trkpt lat="40.11623879811354" lon="9.512070329700075"><ele>913.0</ele><time>2026-04-03T13:52:22Z</time></trkpt><trkpt lat="40.116392416319506" lon="9.511968961628297"><ele>921.0</ele><time>2026-04-03T13:52:23Z</time></trkpt><trkpt lat="40.11655897490841" lon="9.511906202990732"><ele>929.0</ele><time>2026-04-03T13:52:24Z</time></trkpt><trkpt lat="40.1167297112662" lon="9.511887699432837"><ele>937.0</ele><time>2026-04-03T13:52:25Z</time></trkpt><trkpt lat="40.116898551823475" lon="9.511868462065522"><ele>937.0</ele><time>2026-04-03T13:52:26Z</time></trkpt><trkpt lat="40.11706715093622" lon="9.511809550173345"><ele>937.0</ele><time>2026-04-03T13:52:27Z</time></trkpt><trkpt lat="40.11722895431855" lon="9.511720384689994"><ele>937.0</ele><time>2026-04-03T13:52:28Z</time></trkpt><trkpt lat="40.11738530931703" lon="9.511611001954419"><ele>930.6666666666666</ele><time>2026-04-03T13:52:29Z</time></trkpt><trkpt lat="40.1175417818893" lon="9.511496418401403"><ele>924.3333333333333</ele><time>2026-04-03T13:52:30Z</time></trkpt><trkpt lat="40.11769485800484" lon="9.511382142327012"><ele>918.0</ele><time>2026-04-03T13:52:31Z</time></trkpt><trkpt lat="40.11784901201645" lon="9.511267071405976"><ele>920.6666666666667</ele><time>2026-04-03T13:52:32Z</time></trkpt><trkpt lat="40.11799752030134" lon="9.511146225439198"><ele>923.3333333333334</ele><time>2026-04-03T13:52:33Z</time></trkpt><trkpt lat="40.118144766659846" lon="9.51101674439924"><ele>926.0</ele><time>2026-04-03T13:52:34Z</time></trkpt><trkpt lat="40.11828505155919" lon="9.510870323444417"><ele>926.0</ele><time>2026-04-03T13:52:35Z</time></trkpt><trkpt lat="40.118413227705084" lon="9.510706668535427"><ele>926.0</ele><time>2026-04-03T13:52:36Z</time></trkpt><trkpt lat="40.11854373473854" lon="9.510546860314076"><ele>926.0</ele><time>2026-04-03T13:52:37Z</time></trkpt><trkpt lat="40.11868344049302" lon="9.51039550567515"><ele>925.6666666666667</ele><time>2026-04-03T13:52:38Z</time></trkpt><trkpt lat="40.1188302426324" lon="9.510262979927315"><ele>925.3333333333333</ele><time>2026-04-03T13:52:39Z</time></trkpt><trkpt lat="40.11897728553494" lon="9.510136174177077"><ele>925.0</ele><time>2026-04-03T13:52:40Z</time></trkpt><trkpt lat="40.11911671689676" lon="9.510008408153377"><ele>925.0</ele><time>2026-04-03T13:52:41Z</time></trkpt><trkpt lat="40.11925098417424" lon="9.509887291998478"><ele>925.0</ele><time>2026-04-03T13:52:42Z</time></trkpt><trkpt lat="40.11938532861816" lon="9.509795850647281"><ele>925.0</ele><time>2026-04-03T13:52:43Z</time></trkpt><trkpt lat="40.11952267391464" lon="9.509730928974232"><ele>925.0</ele><time>2026-04-03T13:52:44Z</time></trkpt><trkpt lat="40.11966368124292" lon="9.509726422391427"><ele>925.0</ele><time>2026-04-03T13:52:45Z</time></trkpt><trkpt lat="40.119813602512195" lon="9.50976854532056"><ele>925.0</ele><time>2026-04-03T13:52:46Z</time></trkpt><trkpt lat="40.119963425377954" lon="9.509779723706526"><ele>925.0</ele><time>2026-04-03T13:52:47Z</time></trkpt><trkpt lat="40.120121980868475" lon="9.509756626041984"><ele>920.3333333333333</ele><time>2026-04-03T13:52:48Z</time></trkpt><trkpt lat="40.12028285127505" lon="9.509724124632388"><ele>915.6666666666667</ele><time>2026-04-03T13:52:49Z</time></trkpt><trkpt lat="40.12044719137642" lon="9.509681867687519"><ele>911.0</ele><time>2026-04-03T13:52:50Z</time></trkpt><trkpt lat="40.12061886030254" lon="9.509643586945462"><ele>909.6666666666667</ele><time>2026-04-03T13:52:51Z</time></trkpt><trkpt lat="40.12079123329554" lon="9.509622090740942"><ele>908.3333333333333</ele><time>2026-04-03T13:52:52Z</time></trkpt><trkpt lat="40.12096358623362" lon="9.509594012249774"><ele>907.0</ele><time>2026-04-03T13:52:53Z</time></trkpt><trkpt lat="40.121141014513775" lon="9.509575276632022"><ele>927.3333333333333</ele><time>2026-04-03T13:52:53.999Z</time></trkpt><trkpt lat="40.12132219348295" lon="9.509555040395174"><ele>947.6666666666667</ele><time>2026-04-03T13:52:54.999Z</time></trkpt><trkpt lat="40.121507090514896" lon="9.509550292197332"><ele>968.0</ele><time>2026-04-03T13:52:55.999Z</time></trkpt><trkpt lat="40.12169313968141" lon="9.509554047938316"><ele>968.3333333333334</ele><time>2026-04-03T13:52:56.999Z</time></trkpt><trkpt lat="40.1218773503754" lon="9.509561553549448"><ele>968.6666666666667</ele><time>2026-04-03T13:52:57.999Z</time></trkpt><trkpt lat="40.12205937772445" lon="9.509563195233754"><ele>969.0</ele><time>2026-04-03T13:52:58.999Z</time></trkpt><trkpt lat="40.12224100492882" lon="9.509552308041506"><ele>967.3333333333333</ele><time>2026-04-03T13:52:59.999Z</time></trkpt><trkpt lat="40.12242376754233" lon="9.509523473960382"><ele>965.6666666666666</ele><time>2026-04-03T13:53:00.999Z</time></trkpt><trkpt lat="40.122605377486934" lon="9.509489787112777"><ele>964.0</ele><time>2026-04-03T13:53:01.999Z</time></trkpt><trkpt lat="40.12278982448305" lon="9.50945310556195"><ele>964.0</ele><time>2026-04-03T13:53:02.999Z</time></trkpt><trkpt lat="40.122973807735036" lon="9.509419585379279"><ele>964.0</ele><time>2026-04-03T13:53:03.999Z</time></trkpt><trkpt lat="40.12315885176756" lon="9.509396424057794"><ele>964.0</ele><time>2026-04-03T13:53:05Z</time></trkpt><trkpt lat="40.123345304122104" lon="9.50937885020921"><ele>960.6666666666666</ele><time>2026-04-03T13:53:06Z</time></trkpt><trkpt lat="40.12352945655451" lon="9.509349257599222"><ele>957.3333333333333</ele><time>2026-04-03T13:53:07Z</time></trkpt><trkpt lat="40.12371528274232" lon="9.509304585306204"><ele>954.0</ele><time>2026-04-03T13:53:08Z</time></trkpt><trkpt lat="40.123902564031866" lon="9.509257915781054"><ele>950.6666666666667</ele><time>2026-04-03T13:53:09Z</time></trkpt><trkpt lat="40.12409004841465" lon="9.509213157676005"><ele>947.3333333333334</ele><time>2026-04-03T13:53:10Z</time></trkpt><trkpt lat="40.12427468264026" lon="9.509156477700598"><ele>944.0</ele><time>2026-04-03T13:53:11Z</time></trkpt><trkpt lat="40.12445561718498" lon="9.509080089281072"><ele>944.0</ele><time>2026-04-03T13:53:12Z</time></trkpt><trkpt lat="40.124631216152984" lon="9.508990660756915"><ele>944.0</ele><time>2026-04-03T13:53:13Z</time></trkpt><trkpt lat="40.124801920473345" lon="9.5088967049858"><ele>944.0</ele><time>2026-04-03T13:53:14Z</time></trkpt><trkpt lat="40.12496437570692" lon="9.508813931596553"><ele>937.0</ele><time>2026-04-03T13:53:15Z</time></trkpt><trkpt lat="40.125127668599056" lon="9.508756771639456"><ele>930.0</ele><time>2026-04-03T13:53:16Z</time></trkpt><trkpt lat="40.12528952122424" lon="9.508735469970867"><ele>923.0</ele><time>2026-04-03T13:53:17Z</time></trkpt><trkpt lat="40.125450334794905" lon="9.508746000640027"><ele>938.0</ele><time>2026-04-03T13:53:18Z</time></trkpt><trkpt lat="40.125604655416154" lon="9.508726597841832"><ele>953.0</ele><time>2026-04-03T13:53:19Z</time></trkpt><trkpt lat="40.12575856159133" lon="9.508659183522653"><ele>968.0</ele><time>2026-04-03T13:53:20Z</time></trkpt><trkpt lat="40.125918648891705" lon="9.508594269675834"><ele>968.0</ele><time>2026-04-03T13:53:21Z</time></trkpt><trkpt lat="40.12608344395683" lon="9.508534557411485"><ele>968.0</ele><time>2026-04-03T13:53:22Z</time></trkpt><trkpt lat="40.1262500923513" lon="9.508477228550703"><ele>968.0</ele><time>2026-04-03T13:53:23Z</time></trkpt><trkpt lat="40.126419497001145" lon="9.50842048693833"><ele>963.3333333333334</ele><time>2026-04-03T13:53:24Z</time></trkpt><trkpt lat="40.126592603696956" lon="9.5083599608129"><ele>958.6666666666667</ele><time>2026-04-03T13:53:25Z</time></trkpt><trkpt lat="40.12676522305466" lon="9.508283111489352"><ele>954.0</ele><time>2026-04-03T13:53:26Z</time></trkpt><trkpt lat="40.12693901021487" lon="9.508196675318825"><ele>954.0</ele><time>2026-04-03T13:53:27Z</time></trkpt><trkpt lat="40.12711890805012" lon="9.508120687930658"><ele>954.0</ele><time>2026-04-03T13:53:28Z</time></trkpt><trkpt lat="40.12730438696676" lon="9.508056237418852"><ele>954.0</ele><time>2026-04-03T13:53:29Z</time></trkpt><trkpt lat="40.127491203353294" lon="9.507998367822923"><ele>948.0</ele><time>2026-04-03T13:53:30Z</time></trkpt><trkpt lat="40.127675604359865" lon="9.507940500768921"><ele>942.0</ele><time>2026-04-03T13:53:31Z</time></trkpt><trkpt lat="40.127862919294444" lon="9.507882586244008"><ele>936.0</ele><time>2026-04-03T13:53:32Z</time></trkpt><trkpt lat="40.12804332218593" lon="9.507821862557412"><ele>948.0</ele><time>2026-04-03T13:53:33Z</time></trkpt><trkpt lat="40.12821310080382" lon="9.507775363109564"><ele>960.0</ele><time>2026-04-03T13:53:34Z</time></trkpt><trkpt lat="40.128381075166175" lon="9.507747928784516"><ele>972.0</ele><time>2026-04-03T13:53:35Z</time></trkpt><trkpt lat="40.128545738537326" lon="9.507727642090956"><ele>972.0</ele><time>2026-04-03T13:53:36Z</time></trkpt><trkpt lat="40.128708074798006" lon="9.507695231435116"><ele>972.0</ele><time>2026-04-03T13:53:37Z</time></trkpt><trkpt lat="40.128860197162446" lon="9.507616093937775"><ele>972.0</ele><time>2026-04-03T13:53:38Z</time></trkpt><trkpt lat="40.12899965695329" lon="9.507523980519299"><ele>966.6666666666667</ele><time>2026-04-03T13:53:39Z</time></trkpt><trkpt lat="40.12916198080714" lon="9.50747344209763"><ele>961.3333333333334</ele><time>2026-04-03T13:53:40Z</time></trkpt><trkpt lat="40.12932995258784" lon="9.507438962008033"><ele>956.0</ele><time>2026-04-03T13:53:41Z</time></trkpt><trkpt lat="40.12949851052963" lon="9.50740561619127"><ele>956.0</ele><time>2026-04-03T13:53:42Z</time></trkpt><trkpt lat="40.129668930362485" lon="9.50735592230026"><ele>956.0</ele><time>2026-04-03T13:53:43Z</time></trkpt><trkpt lat="40.12984138151631" lon="9.507299423077301"><ele>956.0</ele><time>2026-04-03T13:53:44Z</time></trkpt><trkpt lat="40.13001571352664" lon="9.507242639838099"><ele>951.3333333333334</ele><time>2026-04-03T13:53:45Z</time></trkpt><trkpt lat="40.13019072464683" lon="9.507189149048736"><ele>946.6666666666667</ele><time>2026-04-03T13:53:46Z</time></trkpt><trkpt lat="40.13036667236295" lon="9.507142552572772"><ele>942.0</ele><time>2026-04-03T13:53:47Z</time></trkpt><trkpt lat="40.13054343356871" lon="9.507111295686293"><ele>942.0</ele><time>2026-04-03T13:53:48Z</time></trkpt><trkpt lat="40.13071808943515" lon="9.507112868603784"><ele>942.0</ele><time>2026-04-03T13:53:49Z</time></trkpt><trkpt lat="40.13089659345466" lon="9.507140778426892"><ele>942.0</ele><time>2026-04-03T13:53:50Z</time></trkpt><trkpt lat="40.13107547127879" lon="9.507175642497689"><ele>937.3333333333333</ele><time>2026-04-03T13:53:51Z</time></trkpt><trkpt lat="40.13125543560305" lon="9.507190103924986"><ele>932.6666666666666</ele><time>2026-04-03T13:53:52Z</time></trkpt><trkpt lat="40.13143554830964" lon="9.507174280971997"><ele>928.0</ele><time>2026-04-03T13:53:53Z</time></trkpt><trkpt lat="40.13161102355401" lon="9.507134876034149"><ele>947.6666666666666</ele><time>2026-04-03T13:53:54Z</time></trkpt><trkpt lat="40.13178261608947" lon="9.507073051193183"><ele>967.3333333333333</ele><time>2026-04-03T13:53:55Z</time></trkpt><trkpt lat="40.13195590551421" lon="9.507004803137601"><ele>987.0</ele><time>2026-04-03T13:53:56Z</time></trkpt><trkpt lat="40.132132566173155" lon="9.506949142348683"><ele>987.0</ele><time>2026-04-03T13:53:57Z</time></trkpt><trkpt lat="40.13233808606557" lon="9.506922741094671"><ele>987.0</ele><time>2026-04-03T13:53:58Z</time></trkpt><trkpt lat="40.13253313258417" lon="9.506914510342826"><ele>987.0</ele><time>2026-04-03T13:53:59Z</time></trkpt><trkpt lat="40.13272667976726" lon="9.50690514928358"><ele>982.6666666666667</ele><time>2026-04-03T13:54:00Z</time></trkpt><trkpt lat="40.13291382041095" lon="9.506886618168839"><ele>978.3333333333334</ele><time>2026-04-03T13:54:01Z</time></trkpt><trkpt lat="40.133113108293635" lon="9.506859857541588"><ele>974.0</ele><time>2026-04-03T13:54:02Z</time></trkpt><trkpt lat="40.13330942152554" lon="9.506841725342184"><ele>967.3333333333334</ele><time>2026-04-03T13:54:03Z</time></trkpt><trkpt lat="40.13350677392542" lon="9.506788726628491"><ele>960.6666666666667</ele><time>2026-04-03T13:54:04Z</time></trkpt><trkpt lat="40.133704587005354" lon="9.506770082258864"><ele>954.0</ele><time>2026-04-03T13:54:05Z</time></trkpt><trkpt lat="40.13390385322007" lon="9.506793189946405"><ele>956.0</ele><time>2026-04-03T13:54:06Z</time></trkpt><trkpt lat="40.13409780852153" lon="9.506831714349294"><ele>958.0</ele><time>2026-04-03T13:54:07Z</time></trkpt><trkpt lat="40.13428372409303" lon="9.50687908253755"><ele>960.0</ele><time>2026-04-03T13:54:08Z</time></trkpt><trkpt lat="40.13446620929596" lon="9.506920313129966"><ele>960.0</ele><time>2026-04-03T13:54:09Z</time></trkpt><trkpt lat="40.134651830517754" lon="9.506949901531144"><ele>960.0</ele><time>2026-04-03T13:54:10Z</time></trkpt><trkpt lat="40.134836305068234" lon="9.506958969799491"><ele>960.0</ele><time>2026-04-03T13:54:11Z</time></trkpt><trkpt lat="40.13502468361167" lon="9.506925209218865"><ele>959.6666666666667</ele><time>2026-04-03T13:54:12Z</time></trkpt><trkpt lat="40.135202749196615" lon="9.506860415459045"><ele>959.3333333333334</ele><time>2026-04-03T13:54:13Z</time></trkpt><trkpt lat="40.13537646094141" lon="9.50679601685959"><ele>959.0</ele><time>2026-04-03T13:54:14Z</time></trkpt><trkpt lat="40.13555652296692" lon="9.506751455557584"><ele>954.0</ele><time>2026-04-03T13:54:15Z</time></trkpt><trkpt lat="40.13576419727029" lon="9.506728875995929"><ele>949.0</ele><time>2026-04-03T13:54:16Z</time></trkpt><trkpt lat="40.13595191481697" lon="9.506716786062936"><ele>944.0</ele><time>2026-04-03T13:54:17Z</time></trkpt><trkpt lat="40.13613649906916" lon="9.506676163552807"><ele>944.0</ele><time>2026-04-03T13:54:18Z</time></trkpt><trkpt lat="40.136317970007056" lon="9.506625164962445"><ele>944.0</ele><time>2026-04-03T13:54:19Z</time></trkpt><trkpt lat="40.1364985610983" lon="9.506571598729765"><ele>944.0</ele><time>2026-04-03T13:54:20Z</time></trkpt><trkpt lat="40.136676551946216" lon="9.506521633784397"><ele>941.0</ele><time>2026-04-03T13:54:21Z</time></trkpt><trkpt lat="40.136852177458" lon="9.506465364831238"><ele>938.0</ele><time>2026-04-03T13:54:22Z</time></trkpt><trkpt lat="40.13702419175427" lon="9.50640383735313"><ele>935.0</ele><time>2026-04-03T13:54:23Z</time></trkpt><trkpt lat="40.137192819013464" lon="9.506345387482405"><ele>935.0</ele><time>2026-04-03T13:54:24Z</time></trkpt><trkpt lat="40.137362557238994" lon="9.506288224562777"><ele>935.0</ele><time>2026-04-03T13:54:25Z</time></trkpt><trkpt lat="40.137539398882474" lon="9.50622722020968"><ele>935.0</ele><time>2026-04-03T13:54:26Z</time></trkpt><trkpt lat="40.13771414351574" lon="9.506168264602394"><ele>940.0</ele><time>2026-04-03T13:54:27Z</time></trkpt><trkpt lat="40.13788629595762" lon="9.506102335735008"><ele>945.0</ele><time>2026-04-03T13:54:28Z</time></trkpt><trkpt lat="40.13805936907945" lon="9.506034873204985"><ele>950.0</ele><time>2026-04-03T13:54:29Z</time></trkpt><trkpt lat="40.138228140761804" lon="9.505929367532573"><ele>950.0</ele><time>2026-04-03T13:54:30Z</time></trkpt><trkpt lat="40.13840345894823" lon="9.505851528106547"><ele>950.0</ele><time>2026-04-03T13:54:31Z</time></trkpt><trkpt lat="40.138581976869595" lon="9.505773736101073"><ele>950.0</ele><time>2026-04-03T13:54:32Z</time></trkpt><trkpt lat="40.138761964482974" lon="9.50572804511187"><ele>950.0</ele><time>2026-04-03T13:54:33Z</time></trkpt><trkpt lat="40.13894640183397" lon="9.50571124838768"><ele>950.0</ele><time>2026-04-03T13:54:34Z</time></trkpt><trkpt lat="40.139132892802756" lon="9.50572956389448"><ele>950.0</ele><time>2026-04-03T13:54:35Z</time></trkpt><trkpt lat="40.13932553705067" lon="9.505760507931978"><ele>950.6666666666667</ele><time>2026-04-03T13:54:36Z</time></trkpt><trkpt lat="40.139518226737295" lon="9.505774412261198"><ele>951.3333333333333</ele><time>2026-04-03T13:54:37Z</time></trkpt><trkpt lat="40.13971298184656" lon="9.505769603448673"><ele>952.0</ele><time>2026-04-03T13:54:38Z</time></trkpt><trkpt lat="40.13990859198881" lon="9.505762536156311"><ele>952.0</ele><time>2026-04-03T13:54:39Z</time></trkpt><trkpt lat="40.14010937912181" lon="9.50576766851685"><ele>952.0</ele><time>2026-04-03T13:54:40Z</time></trkpt><trkpt lat="40.140306416429006" lon="9.505783833162427"><ele>952.0</ele><time>2026-04-03T13:54:41Z</time></trkpt><trkpt lat="40.14050066017492" lon="9.505810227308897"><ele>952.0</ele><time>2026-04-03T13:54:42Z</time></trkpt><trkpt lat="40.14069766111527" lon="9.505848094624811"><ele>952.0</ele><time>2026-04-03T13:54:43Z</time></trkpt><trkpt lat="40.14089816717169" lon="9.505888081024237"><ele>952.0</ele><time>2026-04-03T13:54:44Z</time></trkpt><trkpt lat="40.14109687869984" lon="9.505918333586092"><ele>954.0</ele><time>2026-04-03T13:54:45Z</time></trkpt><trkpt lat="40.141292935024325" lon="9.50593097389819"><ele>956.0</ele><time>2026-04-03T13:54:46Z</time></trkpt><trkpt lat="40.141489594712425" lon="9.505925911575936"><ele>958.0</ele><time>2026-04-03T13:54:47Z</time></trkpt><trkpt lat="40.141681784934306" lon="9.50589805583384"><ele>959.6666666666666</ele><time>2026-04-03T13:54:48Z</time></trkpt><trkpt lat="40.14186488213849" lon="9.505852981934156"><ele>961.3333333333333</ele><time>2026-04-03T13:54:49Z</time></trkpt><trkpt lat="40.14206207159959" lon="9.505799016956882"><ele>963.0</ele><time>2026-04-03T13:54:50Z</time></trkpt><trkpt lat="40.14225501060441" lon="9.505757807297368"><ele>959.3333333333333</ele><time>2026-04-03T13:54:51Z</time></trkpt><trkpt lat="40.142445957281375" lon="9.505723031736986"><ele>955.6666666666666</ele><time>2026-04-03T13:54:52Z</time></trkpt><trkpt lat="40.1426344756416" lon="9.505695573263942"><ele>952.0</ele><time>2026-04-03T13:54:53Z</time></trkpt><trkpt lat="40.1428239197472" lon="9.505684158888325"><ele>952.0</ele><time>2026-04-03T13:54:54Z</time></trkpt><trkpt lat="40.1430122411676" lon="9.505694997622916"><ele>952.0</ele><time>2026-04-03T13:54:55Z</time></trkpt><trkpt lat="40.143200081035324" lon="9.505717352489823"><ele>952.0</ele><time>2026-04-03T13:54:56Z</time></trkpt><trkpt lat="40.14338566072934" lon="9.505738580293038"><ele>956.6666666666666</ele><time>2026-04-03T13:54:57Z</time></trkpt><trkpt lat="40.143571317629245" lon="9.505734536954636"><ele>961.3333333333333</ele><time>2026-04-03T13:54:58Z</time></trkpt><trkpt lat="40.14375489101597" lon="9.505709924004096"><ele>966.0</ele><time>2026-04-03T13:54:59Z</time></trkpt><trkpt lat="40.14393521196402" lon="9.505682506980714"><ele>967.0</ele><time>2026-04-03T13:55:00Z</time></trkpt><trkpt lat="40.14412411788085" lon="9.505675026549866"><ele>968.0</ele><time>2026-04-03T13:55:01Z</time></trkpt><trkpt lat="40.14431201359934" lon="9.505683496358875"><ele>969.0</ele><time>2026-04-03T13:55:02Z</time></trkpt><trkpt lat="40.14449844518953" lon="9.505742849046174"><ele>969.0</ele><time>2026-04-03T13:55:03Z</time></trkpt><trkpt lat="40.144677363202774" lon="9.505840259682834"><ele>969.0</ele><time>2026-04-03T13:55:04Z</time></trkpt><trkpt lat="40.144850163966886" lon="9.50596162580635"><ele>969.0</ele><time>2026-04-03T13:55:05Z</time></trkpt><trkpt lat="40.14502435565079" lon="9.5060818861219"><ele>975.6666666666667</ele><time>2026-04-03T13:55:06Z</time></trkpt><trkpt lat="40.14519951455431" lon="9.506172187017297"><ele>982.3333333333334</ele><time>2026-04-03T13:55:07Z</time></trkpt><trkpt lat="40.14538282424087" lon="9.506208203908127"><ele>989.0</ele><time>2026-04-03T13:55:08Z</time></trkpt><trkpt lat="40.14556828722283" lon="9.50619514910304"><ele>993.0</ele><time>2026-04-03T13:55:09Z</time></trkpt><trkpt lat="40.14574862901146" lon="9.506198373633918"><ele>997.0</ele><time>2026-04-03T13:55:10Z</time></trkpt><trkpt lat="40.14592851393488" lon="9.506194230764859"><ele>1001.0</ele><time>2026-04-03T13:55:11Z</time></trkpt><trkpt lat="40.14610450368534" lon="9.506169385440591"><ele>1001.0</ele><time>2026-04-03T13:55:12Z</time></trkpt><trkpt lat="40.146280637096886" lon="9.506172635703441"><ele>1001.0</ele><time>2026-04-03T13:55:13Z</time></trkpt><trkpt lat="40.146449739765956" lon="9.506168926686835"><ele>1001.0</ele><time>2026-04-03T13:55:14Z</time></trkpt><trkpt lat="40.14660424299598" lon="9.506168705618306"><ele>1004.6666666666667</ele><time>2026-04-03T13:55:15Z</time></trkpt><trkpt lat="40.14674806597195" lon="9.506172328492735"><ele>1008.3333333333333</ele><time>2026-04-03T13:55:16Z</time></trkpt><trkpt lat="40.14689722186753" lon="9.506184464810772"><ele>1012.0</ele><time>2026-04-03T13:55:17Z</time></trkpt><trkpt lat="40.14705591376374" lon="9.50621916988128"><ele>1002.0</ele><time>2026-04-03T13:55:18Z</time></trkpt><trkpt lat="40.14722245263228" lon="9.506275333415092"><ele>992.0</ele><time>2026-04-03T13:55:19Z</time></trkpt><trkpt lat="40.147391755833006" lon="9.506349976734601"><ele>982.0</ele><time>2026-04-03T13:55:20Z</time></trkpt><trkpt lat="40.14756561311756" lon="9.506436198422879"><ele>982.0</ele><time>2026-04-03T13:55:21Z</time></trkpt><trkpt lat="40.14773102165078" lon="9.506508718116612"><ele>982.0</ele><time>2026-04-03T13:55:22Z</time></trkpt><trkpt lat="40.147895816958126" lon="9.506551770781398"><ele>982.0</ele><time>2026-04-03T13:55:23Z</time></trkpt><trkpt lat="40.14806326176954" lon="9.506591353590638"><ele>987.0</ele><time>2026-04-03T13:55:24Z</time></trkpt><trkpt lat="40.148235993959595" lon="9.506633635477044"><ele>992.0</ele><time>2026-04-03T13:55:25Z</time></trkpt><trkpt lat="40.148409312186295" lon="9.506671510955927"><ele>997.0</ele><time>2026-04-03T13:55:26Z</time></trkpt><trkpt lat="40.14858287964426" lon="9.506710224542905"><ele>997.0</ele><time>2026-04-03T13:55:27Z</time></trkpt><trkpt lat="40.1487633369645" lon="9.506757509537165"><ele>997.0</ele><time>2026-04-03T13:55:28Z</time></trkpt><trkpt lat="40.14894860699442" lon="9.50678496694685"><ele>997.0</ele><time>2026-04-03T13:55:29Z</time></trkpt><trkpt lat="40.14912892417282" lon="9.506805472082998"><ele>1002.3333333333333</ele><time>2026-04-03T13:55:30Z</time></trkpt><trkpt lat="40.14931436946243" lon="9.506826560353954"><ele>1007.6666666666667</ele><time>2026-04-03T13:55:31Z</time></trkpt><trkpt lat="40.14949397417199" lon="9.506850605176734"><ele>1013.0</ele><time>2026-04-03T13:55:32Z</time></trkpt><trkpt lat="40.14966468459565" lon="9.506890815511111"><ele>1013.0</ele><time>2026-04-03T13:55:33Z</time></trkpt><trkpt lat="40.149844210899055" lon="9.50694089161"><ele>1013.0</ele><time>2026-04-03T13:55:34Z</time></trkpt><trkpt lat="40.150020380810496" lon="9.507027655584936"><ele>1013.0</ele><time>2026-04-03T13:55:35Z</time></trkpt><trkpt lat="40.150196697988925" lon="9.507122766829387"><ele>1010.6666666666667</ele><time>2026-04-03T13:55:36Z</time></trkpt><trkpt lat="40.15037442866792" lon="9.50721632277989"><ele>1008.3333333333333</ele><time>2026-04-03T13:55:37Z</time></trkpt><trkpt lat="40.150549598256426" lon="9.507299569741406"><ele>1006.0</ele><time>2026-04-03T13:55:38Z</time></trkpt><trkpt lat="40.15072797508794" lon="9.507374410264473"><ele>1006.0</ele><time>2026-04-03T13:55:39Z</time></trkpt><trkpt lat="40.15090884263026" lon="9.507431778989458"><ele>1006.0</ele><time>2026-04-03T13:55:40Z</time></trkpt><trkpt lat="40.15109453091242" lon="9.507453023026578"><ele>1006.0</ele><time>2026-04-03T13:55:41Z</time></trkpt><trkpt lat="40.15128092503382" lon="9.507462551108521"><ele>1006.0</ele><time>2026-04-03T13:55:42Z</time></trkpt><trkpt lat="40.151469871039204" lon="9.50746145057456"><ele>1006.0</ele><time>2026-04-03T13:55:43Z</time></trkpt><trkpt lat="40.15165971311179" lon="9.507456347134058"><ele>1006.0</ele><time>2026-04-03T13:55:44Z</time></trkpt><trkpt lat="40.15185069928375" lon="9.507449779230061"><ele>1007.6666666666666</ele><time>2026-04-03T13:55:45Z</time></trkpt><trkpt lat="40.15203864488806" lon="9.50744962677621"><ele>1009.3333333333333</ele><time>2026-04-03T13:55:46Z</time></trkpt><trkpt lat="40.152224914059936" lon="9.50746708029098"><ele>1011.0</ele><time>2026-04-03T13:55:47Z</time></trkpt><trkpt lat="40.1524058521236" lon="9.507500785675425"><ele>1013.3333333333333</ele><time>2026-04-03T13:55:48Z</time></trkpt><trkpt lat="40.152577700915465" lon="9.507547540328742"><ele>1015.6666666666666</ele><time>2026-04-03T13:55:49Z</time></trkpt><trkpt lat="40.15273668432402" lon="9.507608635018526"><ele>1018.0</ele><time>2026-04-03T13:55:50Z</time></trkpt><trkpt lat="40.152882804359585" lon="9.50767221873146"><ele>1018.0</ele><time>2026-04-03T13:55:51Z</time></trkpt><trkpt lat="40.15301390717772" lon="9.50772959184243"><ele>1018.0</ele><time>2026-04-03T13:55:52Z</time></trkpt><trkpt lat="40.15312695043747" lon="9.507761076057278"><ele>1018.0</ele><time>2026-04-03T13:55:53Z</time></trkpt><trkpt lat="40.15321208575402" lon="9.50778413783843"><ele>1018.0</ele><time>2026-04-03T13:55:54Z</time></trkpt><trkpt lat="40.15330650937306" lon="9.507803007407679"><ele>1018.0</ele><time>2026-04-03T13:55:56Z</time></trkpt><trkpt lat="40.153373020620684" lon="9.50785972634837"><ele>1017.1666666666666</ele><time>2026-04-03T13:57:02Z</time></trkpt><trkpt lat="40.15329877682145" lon="9.507918303001507"><ele>1016.3333333333333</ele><time>2026-04-03T13:57:04Z</time></trkpt><trkpt lat="40.1532744138094" lon="9.50801196679466"><ele>1015.5</ele><time>2026-04-03T13:57:06Z</time></trkpt><trkpt lat="40.153241401857066" lon="9.508124897559792"><ele>1014.6666666666667</ele><time>2026-04-03T13:57:08Z</time></trkpt><trkpt lat="40.153196064400184" lon="9.508270812106401"><ele>1013.8333333333334</ele><time>2026-04-03T13:57:10Z</time></trkpt><trkpt lat="40.153170823018144" lon="9.508346648292287"><ele>1013.0</ele><time>2026-04-03T13:57:11Z</time></trkpt><trkpt lat="40.15312095951902" lon="9.508496203682098"><ele>1010.7142857142858</ele><time>2026-04-03T13:57:13Z</time></trkpt><trkpt lat="40.153096518754936" lon="9.50857565327957"><ele>1008.4285714285716</ele><time>2026-04-03T13:57:14Z</time></trkpt><trkpt lat="40.153070757270214" lon="9.50866626860583"><ele>1006.1428571428571</ele><time>2026-04-03T13:57:15Z</time></trkpt><trkpt lat="40.153046007630415" lon="9.508756633433627"><ele>1003.8571428571429</ele><time>2026-04-03T13:57:16Z</time></trkpt><trkpt lat="40.15302292020981" lon="9.508846417190624"><ele>1001.5714285714286</ele><time>2026-04-03T13:57:17Z</time></trkpt><trkpt lat="40.15299990663062" lon="9.508936227939763"><ele>999.2857142857142</ele><time>2026-04-03T13:57:18Z</time></trkpt><trkpt lat="40.15297708895077" lon="9.50902527415253"><ele>996.9999999999999</ele><time>2026-04-03T13:57:19Z</time></trkpt><trkpt lat="40.152961994562304" lon="9.509121703494387"><ele>996.0</ele><time>2026-04-03T13:57:20Z</time></trkpt><trkpt lat="40.15295012289778" lon="9.509203892067013"><ele>995.0</ele><time>2026-04-03T13:57:21Z</time></trkpt><trkpt lat="40.152912879879565" lon="9.509341554070947"><ele>994.0</ele><time>2026-04-03T13:57:23Z</time></trkpt><trkpt lat="40.152853613244034" lon="9.509469230344017"><ele>993.0</ele><time>2026-04-03T13:57:25Z</time></trkpt><trkpt lat="40.152826756800586" lon="9.509556646139387"><ele>992.0</ele><time>2026-04-03T13:57:27Z</time></trkpt><trkpt lat="40.15277829511882" lon="9.50968245903706"><ele>992.0000000000001</ele><time>2026-04-03T13:57:34Z</time></trkpt><trkpt lat="40.15276213329315" lon="9.509781852942636"><ele>992.0</ele><time>2026-04-03T13:57:35Z</time></trkpt><trkpt lat="40.15273621333783" lon="9.50987865849169"><ele>992.0</ele><time>2026-04-03T13:57:36Z</time></trkpt><trkpt lat="40.15269839294452" lon="9.509973098513127"><ele>992.0</ele><time>2026-04-03T13:57:37Z</time></trkpt><trkpt lat="40.152681980635364" lon="9.510065392594825"><ele>992.0000000000001</ele><time>2026-04-03T13:57:38Z</time></trkpt><trkpt lat="40.15269646950123" lon="9.510163418196424"><ele>992.0</ele><time>2026-04-03T13:57:39Z</time></trkpt><trkpt lat="40.15268523873628" lon="9.510269168288565"><ele>992.0000000000001</ele><time>2026-04-03T13:57:41Z</time></trkpt><trkpt lat="40.15267844421294" lon="9.510359870505424"><ele>992.0</ele><time>2026-04-03T13:57:44Z</time></trkpt><trkpt lat="40.15270323201338" lon="9.51045646232989"><ele>992.0</ele><time>2026-04-03T13:57:46Z</time></trkpt><trkpt lat="40.15273817564075" lon="9.510544725210888"><ele>992.0</ele><time>2026-04-03T13:57:48Z</time></trkpt><trkpt lat="40.15281834386264" lon="9.510660971124212"><ele>992.0000000000001</ele><time>2026-04-03T13:57:50Z</time></trkpt><trkpt lat="40.15289378423247" lon="9.510751153372746"><ele>992.0</ele><time>2026-04-03T13:57:52Z</time></trkpt><trkpt lat="40.15295519073868" lon="9.510824559336049"><ele>993.5</ele><time>2026-04-03T13:57:54Z</time></trkpt><trkpt lat="40.153009191697386" lon="9.510889112746424"><ele>995.0</ele><time>2026-04-03T13:57:56Z</time></trkpt><trkpt lat="40.15331111082392" lon="9.510572250702511"><ele>995.0000000000001</ele><time>2026-04-03T13:58:26Z</time></trkpt><trkpt lat="40.15324545220131" lon="9.51057853491333"><ele>995.0</ele><time>2026-04-03T13:58:29Z</time></trkpt><trkpt lat="40.153132446732045" lon="9.510585125367074"><ele>995.0</ele><time>2026-04-03T13:58:50Z</time></trkpt><trkpt lat="40.153062919091305" lon="9.510569759458878"><ele>995.0</ele><time>2026-04-03T13:58:51Z</time></trkpt><trkpt lat="40.15298929843434" lon="9.510541530814887"><ele>995.0000000000001</ele><time>2026-04-03T13:58:52Z</time></trkpt><trkpt lat="40.152909287616104" lon="9.510501972139839"><ele>995.0</ele><time>2026-04-03T13:58:53Z</time></trkpt><trkpt lat="40.152838254968664" lon="9.510465072234418"><ele>994.5000000000001</ele><time>2026-04-03T13:58:54Z</time></trkpt><trkpt lat="40.1527467210023" lon="9.510398188758854"><ele>994.0</ele><time>2026-04-03T13:58:56Z</time></trkpt><trkpt lat="40.152708797537244" lon="9.510297975708111"><ele>993.5</ele><time>2026-04-03T13:58:58Z</time></trkpt><trkpt lat="40.15270851672835" lon="9.51021102462602"><ele>993.0</ele><time>2026-04-03T13:58:59Z</time></trkpt><trkpt lat="40.1527189704544" lon="9.510105896189074"><ele>992.5000000000001</ele><time>2026-04-03T13:59:00Z</time></trkpt><trkpt lat="40.15273631106807" lon="9.509994380641121"><ele>992.0</ele><time>2026-04-03T13:59:01Z</time></trkpt><trkpt lat="40.152767480310104" lon="9.509859219139422"><ele>992.0</ele><time>2026-04-03T13:59:02Z</time></trkpt><trkpt lat="40.15281057959905" lon="9.509707261685847"><ele>992.0</ele><time>2026-04-03T13:59:03Z</time></trkpt><trkpt lat="40.152860405707905" lon="9.509545326961861"><ele>992.0</ele><time>2026-04-03T13:59:04Z</time></trkpt><trkpt lat="40.15292203217166" lon="9.509381184848207"><ele>992.0</ele><time>2026-04-03T13:59:05Z</time></trkpt><trkpt lat="40.15296451768076" lon="9.509207739866838"><ele>991.5</ele><time>2026-04-03T13:59:06Z</time></trkpt><trkpt lat="40.152993180159626" lon="9.509037544363814"><ele>991.0</ele><time>2026-04-03T13:59:07Z</time></trkpt><trkpt lat="40.153039009244935" lon="9.508877682060765"><ele>990.5</ele><time>2026-04-03T13:59:08Z</time></trkpt><trkpt lat="40.15308948874403" lon="9.508727037782675"><ele>990.0</ele><time>2026-04-03T13:59:09Z</time></trkpt><trkpt lat="40.153128979603224" lon="9.508586814194294"><ele>991.4</ele><time>2026-04-03T13:59:10Z</time></trkpt><trkpt lat="40.15316809550279" lon="9.508463231136894"><ele>992.8</ele><time>2026-04-03T13:59:11Z</time></trkpt><trkpt lat="40.15320804257221" lon="9.508344077767394"><ele>994.2</ele><time>2026-04-03T13:59:12Z</time></trkpt><trkpt lat="40.153238534766665" lon="9.508205367676114"><ele>995.6</ele><time>2026-04-03T13:59:13Z</time></trkpt><trkpt lat="40.153274302347114" lon="9.508082281606947"><ele>997.0</ele><time>2026-04-03T13:59:14Z</time></trkpt><trkpt lat="40.15330444418689" lon="9.507965424562107"><ele>1002.6</ele><time>2026-04-03T13:59:15Z</time></trkpt><trkpt lat="40.15333029187613" lon="9.50787904791786"><ele>1008.2</ele><time>2026-04-03T13:59:16Z</time></trkpt><trkpt lat="40.153359516596915" lon="9.507766140565373"><ele>1013.8</ele><time>2026-04-03T13:59:18Z</time></trkpt><trkpt lat="40.15352876661241" lon="9.507778898673198"><ele>1019.4</ele><time>2026-04-03T13:59:20Z</time></trkpt><trkpt lat="40.15362758332918" lon="9.50776352037072"><ele>1025.0</ele><time>2026-04-03T13:59:21Z</time></trkpt><trkpt lat="40.15373897354467" lon="9.507755461895037"><ele>1025.0</ele><time>2026-04-03T13:59:22Z</time></trkpt><trkpt lat="40.153878886164506" lon="9.5077254454431"><ele>1025.0</ele><time>2026-04-03T13:59:23Z</time></trkpt><trkpt lat="40.15402329788595" lon="9.507686260807965"><ele>1025.0</ele><time>2026-04-03T13:59:24Z</time></trkpt><trkpt lat="40.15417948264235" lon="9.507628948301969"><ele>1025.3333333333335</ele><time>2026-04-03T13:59:25Z</time></trkpt><trkpt lat="40.154328695220606" lon="9.507559406616142"><ele>1025.6666666666667</ele><time>2026-04-03T13:59:26Z</time></trkpt><trkpt lat="40.15449107277824" lon="9.50748779106059"><ele>1026.0</ele><time>2026-04-03T13:59:27Z</time></trkpt><trkpt lat="40.15467263114358" lon="9.507421747975373"><ele>1026.0</ele><time>2026-04-03T13:59:28Z</time></trkpt><trkpt lat="40.15485636495149" lon="9.507361970885928"><ele>1026.0</ele><time>2026-04-03T13:59:29Z</time></trkpt><trkpt lat="40.15505945703164" lon="9.507298144111823"><ele>1026.0</ele><time>2026-04-03T13:59:30Z</time></trkpt><trkpt lat="40.155253818632346" lon="9.507255967562347"><ele>1022.0</ele><time>2026-04-03T13:59:31Z</time></trkpt><trkpt lat="40.155447813071746" lon="9.507235845257052"><ele>1018.0</ele><time>2026-04-03T13:59:32Z</time></trkpt><trkpt lat="40.15564377390038" lon="9.507228745912066"><ele>1014.0</ele><time>2026-04-03T13:59:33Z</time></trkpt><trkpt lat="40.155840430107574" lon="9.507221077957517"><ele>1012.0</ele><time>2026-04-03T13:59:34Z</time></trkpt><trkpt lat="40.15603636492103" lon="9.507190670675174"><ele>1010.0</ele><time>2026-04-03T13:59:35Z</time></trkpt><trkpt lat="40.15622562670722" lon="9.507121778685935"><ele>1008.0</ele><time>2026-04-03T13:59:36Z</time></trkpt><trkpt lat="40.15640774649813" lon="9.507039480442984"><ele>1015.3333333333333</ele><time>2026-04-03T13:59:37Z</time></trkpt><trkpt lat="40.156599317961756" lon="9.506979042289396"><ele>1022.6666666666666</ele><time>2026-04-03T13:59:38Z</time></trkpt><trkpt lat="40.15679849810789" lon="9.506970668680866"><ele>1030.0</ele><time>2026-04-03T13:59:39Z</time></trkpt><trkpt lat="40.156998755726356" lon="9.507005333469047"><ele>1030.0</ele><time>2026-04-03T13:59:40Z</time></trkpt><trkpt lat="40.157193057397336" lon="9.507065902818331"><ele>1030.0</ele><time>2026-04-03T13:59:41Z</time></trkpt><trkpt lat="40.1573757842219" lon="9.50713117151508"><ele>1030.0</ele><time>2026-04-03T13:59:42Z</time></trkpt><trkpt lat="40.15754779983501" lon="9.50719436887997"><ele>1021.6666666666666</ele><time>2026-04-03T13:59:43Z</time></trkpt><trkpt lat="40.15771038364714" lon="9.507256220338764"><ele>1013.3333333333333</ele><time>2026-04-03T13:59:44Z</time></trkpt><trkpt lat="40.15786252145586" lon="9.507327065558918"><ele>1005.0</ele><time>2026-04-03T13:59:45Z</time></trkpt><trkpt lat="40.15800466784789" lon="9.507408864553014"><ele>1005.0</ele><time>2026-04-03T13:59:46Z</time></trkpt><trkpt lat="40.15814391422933" lon="9.507502842750718"><ele>1005.0</ele><time>2026-04-03T13:59:47Z</time></trkpt><trkpt lat="40.158269941765205" lon="9.507608364970105"><ele>1005.0</ele><time>2026-04-03T13:59:48Z</time></trkpt><trkpt lat="40.158375742589655" lon="9.507721861808172"><ele>1005.0</ele><time>2026-04-03T13:59:49Z</time></trkpt><trkpt lat="40.158462985531386" lon="9.507817885502307"><ele>1005.1666666666666</ele><time>2026-04-03T13:59:50Z</time></trkpt><trkpt lat="40.15851492660108" lon="9.50788527278928"><ele>1005.3333333333333</ele><time>2026-04-03T13:59:51Z</time></trkpt><trkpt lat="40.15849627706439" lon="9.507964286841462"><ele>1005.5</ele><time>2026-04-03T13:59:53Z</time></trkpt><trkpt lat="40.15849153150061" lon="9.50809899657952"><ele>1005.6666666666666</ele><time>2026-04-03T13:59:54Z</time></trkpt><trkpt lat="40.158541597273505" lon="9.508004457599954"><ele>1005.8333333333333</ele><time>2026-04-03T13:59:57Z</time></trkpt><trkpt lat="40.15849617998973" lon="9.508062472037452"><ele>1006.0</ele><time>2026-04-03T14:04:01Z</time></trkpt><trkpt lat="40.15856090723877" lon="9.5080550053943"><ele>1006.0</ele><time>2026-04-03T14:17:31.999Z</time></trkpt><trkpt lat="40.15863784833631" lon="9.508047025564782"><ele>1005.9999999999999</ele><time>2026-04-03T14:17:35.999Z</time></trkpt><trkpt lat="40.158735120266925" lon="9.508075458982752"><ele>1005.9999999999999</ele><time>2026-04-03T14:18:40Z</time></trkpt><trkpt lat="40.15879759791579" lon="9.508163720335515"><ele>1006.0</ele><time>2026-04-03T14:18:42Z</time></trkpt><trkpt lat="40.15890775683948" lon="9.50826475766155"><ele>1006.0</ele><time>2026-04-03T14:18:44Z</time></trkpt><trkpt lat="40.158972912269576" lon="9.50832124369307"><ele>1005.5999999999999</ele><time>2026-04-03T14:18:45Z</time></trkpt><trkpt lat="40.1590432053448" lon="9.508383809333255"><ele>1005.1999999999999</ele><time>2026-04-03T14:18:46Z</time></trkpt><trkpt lat="40.15911582564137" lon="9.508457314189938"><ele>1004.8000000000001</ele><time>2026-04-03T14:18:47Z</time></trkpt><trkpt lat="40.159192187518904" lon="9.508528960265922"><ele>1004.4000000000001</ele><time>2026-04-03T14:18:48Z</time></trkpt><trkpt lat="40.159283945974394" lon="9.508592279967534"><ele>1004.0</ele><time>2026-04-03T14:18:49Z</time></trkpt><trkpt lat="40.15939054696703" lon="9.508629968593757"><ele>1004.0</ele><time>2026-04-03T14:18:50Z</time></trkpt><trkpt lat="40.15951591612806" lon="9.508642069894146"><ele>1004.0</ele><time>2026-04-03T14:18:51Z</time></trkpt><trkpt lat="40.15965052127715" lon="9.508670825314438"><ele>1004.0</ele><time>2026-04-03T14:18:52Z</time></trkpt><trkpt lat="40.15978744740051" lon="9.508706808240335"><ele>1004.0</ele><time>2026-04-03T14:18:53Z</time></trkpt><trkpt lat="40.159928264555575" lon="9.50875619009771"><ele>1005.6666666666667</ele><time>2026-04-03T14:18:54Z</time></trkpt><trkpt lat="40.160066212235364" lon="9.508828842648525"><ele>1007.3333333333333</ele><time>2026-04-03T14:18:55Z</time></trkpt><trkpt lat="40.160194578493474" lon="9.508935044158996"><ele>1009.0</ele><time>2026-04-03T14:18:56Z</time></trkpt><trkpt lat="40.16030848835109" lon="9.509092134944506"><ele>1009.0</ele><time>2026-04-03T14:18:57Z</time></trkpt><trkpt lat="40.160435624509255" lon="9.509228846780081"><ele>1009.0</ele><time>2026-04-03T14:18:58Z</time></trkpt><trkpt lat="40.160576228057856" lon="9.509343589387047"><ele>1009.0</ele><time>2026-04-03T14:18:59Z</time></trkpt><trkpt lat="40.16073206282075" lon="9.509424410229117"><ele>1002.3333333333333</ele><time>2026-04-03T14:19:00Z</time></trkpt><trkpt lat="40.16088924980804" lon="9.509474737146059"><ele>995.6666666666667</ele><time>2026-04-03T14:19:01Z</time></trkpt><trkpt lat="40.16104679355031" lon="9.509494866783069"><ele>989.0</ele><time>2026-04-03T14:19:02Z</time></trkpt><trkpt lat="40.16119633267337" lon="9.509505009416365"><ele>989.0</ele><time>2026-04-03T14:19:03Z</time></trkpt><trkpt lat="40.16133005237323" lon="9.509543241144302"><ele>989.0</ele><time>2026-04-03T14:19:04Z</time></trkpt><trkpt lat="40.161439925661554" lon="9.509636956863567"><ele>989.0</ele><time>2026-04-03T14:19:05Z</time></trkpt><trkpt lat="40.16151381179014" lon="9.50976395983857"><ele>989.0</ele><time>2026-04-03T14:19:06Z</time></trkpt><trkpt lat="40.16157968403938" lon="9.50988887858451"><ele>989.0</ele><time>2026-04-03T14:19:06.999Z</time></trkpt><trkpt lat="40.161636600668665" lon="9.510007600768386"><ele>989.0000000000001</ele><time>2026-04-03T14:19:07.999Z</time></trkpt><trkpt lat="40.16168132599711" lon="9.510125232534373"><ele>989.0000000000001</ele><time>2026-04-03T14:19:08.999Z</time></trkpt><trkpt lat="40.16171819516602" lon="9.510244795891683"><ele>989.0</ele><time>2026-04-03T14:19:09.999Z</time></trkpt><trkpt lat="40.16174493565878" lon="9.510362384368733"><ele>989.0</ele><time>2026-04-03T14:19:10.999Z</time></trkpt><trkpt lat="40.16176686509496" lon="9.510479111956611"><ele>989.0</ele><time>2026-04-03T14:19:11.999Z</time></trkpt><trkpt lat="40.16179224037201" lon="9.510597240832576"><ele>989.0000000000001</ele><time>2026-04-03T14:19:12.999Z</time></trkpt><trkpt lat="40.16181788937982" lon="9.510712231149787"><ele>989.0000000000001</ele><time>2026-04-03T14:19:13.999Z</time></trkpt><trkpt lat="40.161847152158515" lon="9.510828387339643"><ele>989.0</ele><time>2026-04-03T14:19:14.999Z</time></trkpt><trkpt lat="40.161873539513564" lon="9.510940076924435"><ele>989.0</ele><time>2026-04-03T14:19:15.999Z</time></trkpt><trkpt lat="40.161898241608405" lon="9.511053390917438"><ele>989.0</ele><time>2026-04-03T14:19:16.999Z</time></trkpt><trkpt lat="40.161921138609664" lon="9.51116942000115"><ele>989.0000000000001</ele><time>2026-04-03T14:19:17.999Z</time></trkpt><trkpt lat="40.1619433748332" lon="9.511286994488739"><ele>989.0000000000001</ele><time>2026-04-03T14:19:18.999Z</time></trkpt><trkpt lat="40.161967219732446" lon="9.511405014242142"><ele>989.0</ele><time>2026-04-03T14:19:19.999Z</time></trkpt><trkpt lat="40.16199420568463" lon="9.511522174748825"><ele>989.0</ele><time>2026-04-03T14:19:20.999Z</time></trkpt><trkpt lat="40.162021812053005" lon="9.511636917607895"><ele>987.3333333333334</ele><time>2026-04-03T14:19:21.999Z</time></trkpt><trkpt lat="40.16205174428398" lon="9.511745978313167"><ele>985.6666666666667</ele><time>2026-04-03T14:19:22.999Z</time></trkpt><trkpt lat="40.16207542524012" lon="9.511851365887889"><ele>984.0</ele><time>2026-04-03T14:19:23.999Z</time></trkpt><trkpt lat="40.16209512153722" lon="9.511956417725052"><ele>982.3333333333333</ele><time>2026-04-03T14:19:24.999Z</time></trkpt><trkpt lat="40.16211098746767" lon="9.51206215578048"><ele>980.6666666666666</ele><time>2026-04-03T14:19:25.999Z</time></trkpt><trkpt lat="40.162118200070324" lon="9.512169356621868"><ele>979.0</ele><time>2026-04-03T14:19:26.999Z</time></trkpt><trkpt lat="40.16210791121114" lon="9.5122793096459"><ele>978.2</ele><time>2026-04-03T14:19:27.999Z</time></trkpt><trkpt lat="40.162078637331234" lon="9.51239257645369"><ele>977.4000000000001</ele><time>2026-04-03T14:19:28.999Z</time></trkpt><trkpt lat="40.16202915743235" lon="9.51249387458062"><ele>976.6</ele><time>2026-04-03T14:19:29.999Z</time></trkpt><trkpt lat="40.16196834611518" lon="9.512600219861968"><ele>975.8</ele><time>2026-04-03T14:19:30.999Z</time></trkpt><trkpt lat="40.161893765933826" lon="9.51270340367987"><ele>975.0</ele><time>2026-04-03T14:19:31.999Z</time></trkpt><trkpt lat="40.161816774891875" lon="9.512811743080624"><ele>977.2</ele><time>2026-04-03T14:19:32.999Z</time></trkpt><trkpt lat="40.16173931825185" lon="9.512921736567675"><ele>979.4</ele><time>2026-04-03T14:19:33.999Z</time></trkpt><trkpt lat="40.161663183604915" lon="9.513033005928538"><ele>981.5999999999999</ele><time>2026-04-03T14:19:34.999Z</time></trkpt><trkpt lat="40.16159040462997" lon="9.513141933893602"><ele>983.8</ele><time>2026-04-03T14:19:35.999Z</time></trkpt><trkpt lat="40.161520987296676" lon="9.513247285586614"><ele>986.0</ele><time>2026-04-03T14:19:36.999Z</time></trkpt><trkpt lat="40.16145164195926" lon="9.51334187815496"><ele>984.1999999999999</ele><time>2026-04-03T14:19:37.999Z</time></trkpt><trkpt lat="40.161385117633735" lon="9.513430559696157"><ele>982.3999999999999</ele><time>2026-04-03T14:19:38.999Z</time></trkpt><trkpt lat="40.161321002312086" lon="9.513518171807561"><ele>980.6</ele><time>2026-04-03T14:19:39.999Z</time></trkpt><trkpt lat="40.16125544662016" lon="9.51360805741216"><ele>978.8</ele><time>2026-04-03T14:19:40.999Z</time></trkpt><trkpt lat="40.16118902204318" lon="9.513702721086688"><ele>977.0</ele><time>2026-04-03T14:19:41.999Z</time></trkpt><trkpt lat="40.16111948866595" lon="9.513803521464833"><ele>977.0</ele><time>2026-04-03T14:19:42.999Z</time></trkpt><trkpt lat="40.161047187387936" lon="9.513909664830225"><ele>977.0</ele><time>2026-04-03T14:19:43.999Z</time></trkpt><trkpt lat="40.16097169847749" lon="9.514018938484062"><ele>977.0</ele><time>2026-04-03T14:19:44.999Z</time></trkpt><trkpt lat="40.16088635836102" lon="9.514125087192777"><ele>977.0</ele><time>2026-04-03T14:19:45.999Z</time></trkpt><trkpt lat="40.16079268872577" lon="9.514219997259492"><ele>971.75</ele><time>2026-04-03T14:19:46.999Z</time></trkpt><trkpt lat="40.16068758974247" lon="9.514295026856349"><ele>966.5</ele><time>2026-04-03T14:19:47.999Z</time></trkpt><trkpt lat="40.160582408510294" lon="9.514360748648224"><ele>961.25</ele><time>2026-04-03T14:19:48.999Z</time></trkpt><trkpt lat="40.16047799052202" lon="9.514427586385342"><ele>956.0</ele><time>2026-04-03T14:19:49.999Z</time></trkpt><trkpt lat="40.160370832357295" lon="9.514494130495521"><ele>961.25</ele><time>2026-04-03T14:19:50.999Z</time></trkpt><trkpt lat="40.160273578851786" lon="9.514583101197204"><ele>966.5</ele><time>2026-04-03T14:19:51.999Z</time></trkpt><trkpt lat="40.160182720549166" lon="9.514680245014608"><ele>971.75</ele><time>2026-04-03T14:19:52.999Z</time></trkpt><trkpt lat="40.16009483303729" lon="9.514777815265662"><ele>977.0</ele><time>2026-04-03T14:19:53.999Z</time></trkpt><trkpt lat="40.16001278491576" lon="9.514871202920785"><ele>977.0</ele><time>2026-04-03T14:19:54.999Z</time></trkpt><trkpt lat="40.15993581131267" lon="9.514960079102677"><ele>977.0</ele><time>2026-04-03T14:19:55.999Z</time></trkpt><trkpt lat="40.15986004408253" lon="9.515049692209676"><ele>977.0</ele><time>2026-04-03T14:19:56.999Z</time></trkpt><trkpt lat="40.15978708932318" lon="9.51513830862171"><ele>977.0</ele><time>2026-04-03T14:19:57.999Z</time></trkpt><trkpt lat="40.1597126955811" lon="9.515224283642967"><ele>977.0</ele><time>2026-04-03T14:19:58.999Z</time></trkpt><trkpt lat="40.15963439208957" lon="9.515314275449354"><ele>977.5</ele><time>2026-04-03T14:19:59.999Z</time></trkpt><trkpt lat="40.159550675325775" lon="9.515407356005925"><ele>978.0</ele><time>2026-04-03T14:20:00.999Z</time></trkpt><trkpt lat="40.15945199991221" lon="9.515488773453392"><ele>978.5</ele><time>2026-04-03T14:20:01.999Z</time></trkpt><trkpt lat="40.15934148314288" lon="9.515553316023105"><ele>979.0</ele><time>2026-04-03T14:20:02.999Z</time></trkpt><trkpt lat="40.159221513233184" lon="9.515610470057622"><ele>979.0</ele><time>2026-04-03T14:20:03.999Z</time></trkpt><trkpt lat="40.15909190317159" lon="9.515671361976116"><ele>979.0</ele><time>2026-04-03T14:20:04.999Z</time></trkpt><trkpt lat="40.15895101293322" lon="9.515741433437137"><ele>979.0</ele><time>2026-04-03T14:20:05.999Z</time></trkpt><trkpt lat="40.15881542003067" lon="9.515822299320579"><ele>979.0</ele><time>2026-04-03T14:20:06.999Z</time></trkpt><trkpt lat="40.158680257448076" lon="9.515909815076242"><ele>975.3333333333333</ele><time>2026-04-03T14:20:07.999Z</time></trkpt><trkpt lat="40.15855840086287" lon="9.516027098324672"><ele>971.6666666666667</ele><time>2026-04-03T14:20:08.999Z</time></trkpt><trkpt lat="40.1584498822619" lon="9.516160804586116"><ele>968.0</ele><time>2026-04-03T14:20:09.999Z</time></trkpt><trkpt lat="40.158373427468455" lon="9.516330086708644"><ele>968.0</ele><time>2026-04-03T14:20:10.999Z</time></trkpt><trkpt lat="40.158318281883226" lon="9.5165127391209"><ele>968.0</ele><time>2026-04-03T14:20:11.999Z</time></trkpt><trkpt lat="40.15827279194842" lon="9.516692150639395"><ele>968.0</ele><time>2026-04-03T14:20:12.999Z</time></trkpt><trkpt lat="40.158242723184244" lon="9.516871698221403"><ele>968.0</ele><time>2026-04-03T14:20:13.999Z</time></trkpt><trkpt lat="40.15824685075714" lon="9.517055823035443"><ele>967.75</ele><time>2026-04-03T14:20:14.999Z</time></trkpt><trkpt lat="40.15827949051913" lon="9.517234078227554"><ele>967.5</ele><time>2026-04-03T14:20:15.999Z</time></trkpt><trkpt lat="40.15831086799836" lon="9.517412358256701"><ele>967.25</ele><time>2026-04-03T14:20:16.999Z</time></trkpt><trkpt lat="40.158336616094864" lon="9.517587198526149"><ele>967.0</ele><time>2026-04-03T14:20:17.999Z</time></trkpt><trkpt lat="40.158365832217704" lon="9.517753564593644"><ele>964.0</ele><time>2026-04-03T14:20:18.999Z</time></trkpt><trkpt lat="40.158403082720234" lon="9.517915234753008"><ele>961.0</ele><time>2026-04-03T14:20:19.999Z</time></trkpt><trkpt lat="40.158445648761024" lon="9.518074679511193"><ele>958.0</ele><time>2026-04-03T14:20:20.999Z</time></trkpt><trkpt lat="40.15849108001508" lon="9.518237169874201"><ele>955.0</ele><time>2026-04-03T14:20:21.999Z</time></trkpt><trkpt lat="40.15853591097487" lon="9.518402787456756"><ele>955.0</ele><time>2026-04-03T14:20:22.999Z</time></trkpt><trkpt lat="40.15858517043274" lon="9.518562492210942"><ele>955.0</ele><time>2026-04-03T14:20:23.999Z</time></trkpt><trkpt lat="40.1586580721851" lon="9.518708054282511"><ele>955.0</ele><time>2026-04-03T14:20:24.999Z</time></trkpt><trkpt lat="40.15876108609706" lon="9.518834283556172"><ele>955.0</ele><time>2026-04-03T14:20:25.999Z</time></trkpt><trkpt lat="40.15888197692473" lon="9.51894216516293"><ele>957.5</ele><time>2026-04-03T14:20:26.999Z</time></trkpt><trkpt lat="40.15899865390055" lon="9.519048200745786"><ele>960.0</ele><time>2026-04-03T14:20:27.999Z</time></trkpt><trkpt lat="40.159109658223954" lon="9.519156831555877"><ele>962.5</ele><time>2026-04-03T14:20:28.999Z</time></trkpt><trkpt lat="40.15922576707672" lon="9.519260584609116"><ele>965.0</ele><time>2026-04-03T14:20:29.999Z</time></trkpt><trkpt lat="40.159336413763185" lon="9.519359002994971"><ele>965.0</ele><time>2026-04-03T14:20:30.999Z</time></trkpt><trkpt lat="40.15945348728513" lon="9.51944434836542"><ele>965.0</ele><time>2026-04-03T14:20:31.999Z</time></trkpt><trkpt lat="40.159581561159435" lon="9.519499189150872"><ele>965.0</ele><time>2026-04-03T14:20:32.999Z</time></trkpt><trkpt lat="40.15971641560067" lon="9.51951153533076"><ele>965.0</ele><time>2026-04-03T14:20:33.999Z</time></trkpt><trkpt lat="40.15986665185685" lon="9.519496583688813"><ele>968.75</ele><time>2026-04-03T14:20:34.999Z</time></trkpt><trkpt lat="40.160006326860355" lon="9.519482048657437"><ele>972.5</ele><time>2026-04-03T14:20:35.999Z</time></trkpt><trkpt lat="40.16014788758956" lon="9.519473706628403"><ele>976.25</ele><time>2026-04-03T14:20:36.999Z</time></trkpt><trkpt lat="40.160292034665815" lon="9.519467123155373"><ele>980.0</ele><time>2026-04-03T14:20:37.999Z</time></trkpt><trkpt lat="40.16043940671639" lon="9.519455944092554"><ele>980.0</ele><time>2026-04-03T14:20:38.999Z</time></trkpt><trkpt lat="40.160582594802605" lon="9.519445919889293"><ele>980.0</ele><time>2026-04-03T14:20:39.999Z</time></trkpt><trkpt lat="40.1607231783651" lon="9.519436381642716"><ele>980.0</ele><time>2026-04-03T14:20:40.999Z</time></trkpt><trkpt lat="40.16086324178925" lon="9.519446661010342"><ele>980.0</ele><time>2026-04-03T14:20:41.999Z</time></trkpt><trkpt lat="40.16100232843749" lon="9.519439968624695"><ele>979.5</ele><time>2026-04-03T14:20:42.999Z</time></trkpt><trkpt lat="40.16114175924506" lon="9.5194332596817"><ele>979.0</ele><time>2026-04-03T14:20:43.999Z</time></trkpt><trkpt lat="40.161279629432265" lon="9.519426625828526"><ele>978.5</ele><time>2026-04-03T14:20:44.999Z</time></trkpt><trkpt lat="40.161403603268525" lon="9.519420660621357"><ele>978.0</ele><time>2026-04-03T14:20:45.999Z</time></trkpt><trkpt lat="40.16153206838162" lon="9.519414479310473"><ele>976.5</ele><time>2026-04-03T14:20:46.999Z</time></trkpt><trkpt lat="40.16165764394492" lon="9.519408437031213"><ele>975.0</ele><time>2026-04-03T14:20:47.999Z</time></trkpt><trkpt lat="40.161789812233714" lon="9.519402077536771"><ele>973.5</ele><time>2026-04-03T14:20:48.999Z</time></trkpt><trkpt lat="40.1619209944212" lon="9.51939711586711"><ele>972.0</ele><time>2026-04-03T14:20:49.999Z</time></trkpt><trkpt lat="40.16204835912008" lon="9.519392664417657"><ele>972.0</ele><time>2026-04-03T14:20:50.999Z</time></trkpt><trkpt lat="40.162178158150155" lon="9.519398803623606"><ele>972.0</ele><time>2026-04-03T14:20:51.999Z</time></trkpt><trkpt lat="40.16229821831714" lon="9.519453727407546"><ele>972.0</ele><time>2026-04-03T14:20:52.999Z</time></trkpt><trkpt lat="40.16241745533249" lon="9.519524221632977"><ele>972.0</ele><time>2026-04-03T14:20:53.999Z</time></trkpt><trkpt lat="40.162494528039176" lon="9.51965581871508"><ele>968.75</ele><time>2026-04-03T14:20:54.999Z</time></trkpt><trkpt lat="40.162526527264355" lon="9.51982542923581"><ele>965.5</ele><time>2026-04-03T14:20:55.999Z</time></trkpt><trkpt lat="40.16251318877316" lon="9.52000481587315"><ele>962.25</ele><time>2026-04-03T14:20:56.999Z</time></trkpt><trkpt lat="40.16244821291736" lon="9.520174952442419"><ele>959.0</ele><time>2026-04-03T14:20:57.999Z</time></trkpt><trkpt lat="40.16238644600828" lon="9.52032556746004"><ele>959.75</ele><time>2026-04-03T14:20:58.999Z</time></trkpt><trkpt lat="40.16238287096548" lon="9.520487998870117"><ele>960.5</ele><time>2026-04-03T14:20:59.999Z</time></trkpt><trkpt lat="40.16233204627234" lon="9.520665004492846"><ele>961.25</ele><time>2026-04-03T14:21:00.999Z</time></trkpt><trkpt lat="40.16226509726326" lon="9.520838532382221"><ele>962.0</ele><time>2026-04-03T14:21:01.999Z</time></trkpt><trkpt lat="40.162180817817806" lon="9.521009358468019"><ele>950.6666666666667</ele><time>2026-04-03T14:21:02.999Z</time></trkpt><trkpt lat="40.162098610210016" lon="9.52118312102885"><ele>939.3333333333333</ele><time>2026-04-03T14:21:03.999Z</time></trkpt><trkpt lat="40.1620373600183" lon="9.521369841400993"><ele>928.0</ele><time>2026-04-03T14:21:04.999Z</time></trkpt><trkpt lat="40.162015103440105" lon="9.521559731752989"><ele>928.0</ele><time>2026-04-03T14:21:05.999Z</time></trkpt><trkpt lat="40.16202963278839" lon="9.5217495272639"><ele>928.0</ele><time>2026-04-03T14:21:06.999Z</time></trkpt><trkpt lat="40.16207817070327" lon="9.521933103765917"><ele>928.0</ele><time>2026-04-03T14:21:07.999Z</time></trkpt><trkpt lat="40.16212133014794" lon="9.522114931323154"><ele>928.0</ele><time>2026-04-03T14:21:08.999Z</time></trkpt><trkpt lat="40.16209991597819" lon="9.522304826585794"><ele>928.25</ele><time>2026-04-03T14:21:09.999Z</time></trkpt><trkpt lat="40.162037846676974" lon="9.522479094855372"><ele>928.5</ele><time>2026-04-03T14:21:10.999Z</time></trkpt><trkpt lat="40.16196882302115" lon="9.522656560596346"><ele>928.75</ele><time>2026-04-03T14:21:11.999Z</time></trkpt><trkpt lat="40.16189298564213" lon="9.522816717773404"><ele>929.0</ele><time>2026-04-03T14:21:12.999Z</time></trkpt><trkpt lat="40.161831789574315" lon="9.522973276099247"><ele>930.75</ele><time>2026-04-03T14:21:13.999Z</time></trkpt><trkpt lat="40.161793987757605" lon="9.5231337984787"><ele>932.5</ele><time>2026-04-03T14:21:14.999Z</time></trkpt><trkpt lat="40.16178937467463" lon="9.52330917848638"><ele>934.25</ele><time>2026-04-03T14:21:15.999Z</time></trkpt><trkpt lat="40.16182565363329" lon="9.523477650857561"><ele>936.0</ele><time>2026-04-03T14:21:16.999Z</time></trkpt><trkpt lat="40.16188996190432" lon="9.523622650972111"><ele>933.5</ele><time>2026-04-03T14:21:17.999Z</time></trkpt><trkpt lat="40.1619542286985" lon="9.523754046674785"><ele>931.0</ele><time>2026-04-03T14:21:18.999Z</time></trkpt><trkpt lat="40.162002866605974" lon="9.523888162479325"><ele>928.5</ele><time>2026-04-03T14:21:19.999Z</time></trkpt><trkpt lat="40.16202376124142" lon="9.524033468338315"><ele>926.0</ele><time>2026-04-03T14:21:20.999Z</time></trkpt><trkpt lat="40.162051159033375" lon="9.5241835959293"><ele>926.0</ele><time>2026-04-03T14:21:21.999Z</time></trkpt><trkpt lat="40.16210040872895" lon="9.524338305517597"><ele>926.0</ele><time>2026-04-03T14:21:22.999Z</time></trkpt><trkpt lat="40.1621841204941" lon="9.52448597459166"><ele>926.0</ele><time>2026-04-03T14:21:23.999Z</time></trkpt><trkpt lat="40.16229148727609" lon="9.524617392142481"><ele>926.0</ele><time>2026-04-03T14:21:24.999Z</time></trkpt><trkpt lat="40.16241071134476" lon="9.524738586663414"><ele>931.0</ele><time>2026-04-03T14:21:25.999Z</time></trkpt><trkpt lat="40.162528394836784" lon="9.524867464103698"><ele>936.0</ele><time>2026-04-03T14:21:26.999Z</time></trkpt><trkpt lat="40.162676278457496" lon="9.524948313339639"><ele>941.0</ele><time>2026-04-03T14:21:27.999Z</time></trkpt><trkpt lat="40.16281828655266" lon="9.525002616421741"><ele>941.0</ele><time>2026-04-03T14:21:28.999Z</time></trkpt><trkpt lat="40.16292953099268" lon="9.525063212310434"><ele>941.0</ele><time>2026-04-03T14:21:29.999Z</time></trkpt><trkpt lat="40.163002766488724" lon="9.525165180936556"><ele>941.0</ele><time>2026-04-03T14:21:30.999Z</time></trkpt><trkpt lat="40.163053745942655" lon="9.525297333141205"><ele>941.0</ele><time>2026-04-03T14:21:31.999Z</time></trkpt><trkpt lat="40.16302055190368" lon="9.525460604119056"><ele>939.5</ele><time>2026-04-03T14:21:32.999Z</time></trkpt><trkpt lat="40.16295673954847" lon="9.52560905395386"><ele>938.0</ele><time>2026-04-03T14:21:33.999Z</time></trkpt><trkpt lat="40.16290439976406" lon="9.525763810394459"><ele>936.5</ele><time>2026-04-03T14:21:34.999Z</time></trkpt><trkpt lat="40.16283209363945" lon="9.52591580179518"><ele>935.0</ele><time>2026-04-03T14:21:35.999Z</time></trkpt><trkpt lat="40.162764316064525" lon="9.526073773872557"><ele>937.0</ele><time>2026-04-03T14:21:36.999Z</time></trkpt><trkpt lat="40.16270417193368" lon="9.5262314432077"><ele>939.0</ele><time>2026-04-03T14:21:37.999Z</time></trkpt><trkpt lat="40.162646039756595" lon="9.526386855433616"><ele>941.0</ele><time>2026-04-03T14:21:38.999Z</time></trkpt><trkpt lat="40.16260164177824" lon="9.526550690731943"><ele>943.0</ele><time>2026-04-03T14:21:39.999Z</time></trkpt><trkpt lat="40.162593434704426" lon="9.526722795310599"><ele>943.0</ele><time>2026-04-03T14:21:40.999Z</time></trkpt><trkpt lat="40.16263119580293" lon="9.52689406823538"><ele>943.0</ele><time>2026-04-03T14:21:41.999Z</time></trkpt><trkpt lat="40.16270198958311" lon="9.527053383459197"><ele>943.0</ele><time>2026-04-03T14:21:42.999Z</time></trkpt><trkpt lat="40.162802218679346" lon="9.527190977183503"><ele>943.0</ele><time>2026-04-03T14:21:43.999Z</time></trkpt><trkpt lat="40.162916522999595" lon="9.5273086807852"><ele>945.0</ele><time>2026-04-03T14:21:44.999Z</time></trkpt><trkpt lat="40.16303562510337" lon="9.527418905365993"><ele>947.0</ele><time>2026-04-03T14:21:45.999Z</time></trkpt><trkpt lat="40.16314425041296" lon="9.52752886814052"><ele>949.0</ele><time>2026-04-03T14:21:46.999Z</time></trkpt><trkpt lat="40.163238107335026" lon="9.52764083237226"><ele>951.0</ele><time>2026-04-03T14:21:47.999Z</time></trkpt><trkpt lat="40.163322716237765" lon="9.527761862384915"><ele>948.25</ele><time>2026-04-03T14:21:48.999Z</time></trkpt><trkpt lat="40.163381872005694" lon="9.527902450860072"><ele>945.5</ele><time>2026-04-03T14:21:49.999Z</time></trkpt><trkpt lat="40.16341337507986" lon="9.528055101948407"><ele>942.75</ele><time>2026-04-03T14:21:50.999Z</time></trkpt><trkpt lat="40.16343301258921" lon="9.528210012224202"><ele>940.0</ele><time>2026-04-03T14:21:51.999Z</time></trkpt><trkpt lat="40.16346046833616" lon="9.528360988986549"><ele>940.0</ele><time>2026-04-03T14:21:52.999Z</time></trkpt><trkpt lat="40.16351104651247" lon="9.52850334713487"><ele>940.0</ele><time>2026-04-03T14:21:53.999Z</time></trkpt><trkpt lat="40.16358903179988" lon="9.528629259750618"><ele>940.0</ele><time>2026-04-03T14:21:54.999Z</time></trkpt><trkpt lat="40.163697127453105" lon="9.52872636096775"><ele>940.0</ele><time>2026-04-03T14:21:55.999Z</time></trkpt><trkpt lat="40.16381809824255" lon="9.528800890023623"><ele>938.25</ele><time>2026-04-03T14:21:56.999Z</time></trkpt><trkpt lat="40.1639469531575" lon="9.528860481129179"><ele>936.5</ele><time>2026-04-03T14:21:57.999Z</time></trkpt><trkpt lat="40.164079329517484" lon="9.52891005896997"><ele>934.75</ele><time>2026-04-03T14:21:58.999Z</time></trkpt><trkpt lat="40.164215471052856" lon="9.528942034995122"><ele>933.0</ele><time>2026-04-03T14:21:59.999Z</time></trkpt><trkpt lat="40.16435136133043" lon="9.528950197528106"><ele>933.0</ele><time>2026-04-03T14:22:00.999Z</time></trkpt><trkpt lat="40.164484145464215" lon="9.528936437074567"><ele>933.0</ele><time>2026-04-03T14:22:01.999Z</time></trkpt><trkpt lat="40.16460880599733" lon="9.528926044433417"><ele>933.0</ele><time>2026-04-03T14:22:02.999Z</time></trkpt><trkpt lat="40.16472941083607" lon="9.528927809540606"><ele>933.0</ele><time>2026-04-03T14:22:03.999Z</time></trkpt><trkpt lat="40.164857342841934" lon="9.52892902689588"><ele>932.0</ele><time>2026-04-03T14:22:04.999Z</time></trkpt><trkpt lat="40.16498663865935" lon="9.528930442018453"><ele>931.0</ele><time>2026-04-03T14:22:05.999Z</time></trkpt><trkpt lat="40.165118953321006" lon="9.528931511696266"><ele>930.0</ele><time>2026-04-03T14:22:06.999Z</time></trkpt><trkpt lat="40.1652528859996" lon="9.528925992295106"><ele>929.0</ele><time>2026-04-03T14:22:07.999Z</time></trkpt><trkpt lat="40.165389312842485" lon="9.528896146740646"><ele>929.0</ele><time>2026-04-03T14:22:08.999Z</time></trkpt><trkpt lat="40.16551000187822" lon="9.528840965194455"><ele>929.0</ele><time>2026-04-03T14:22:09.999Z</time></trkpt><trkpt lat="40.16562331877476" lon="9.528771509506042"><ele>929.0</ele><time>2026-04-03T14:22:10.999Z</time></trkpt><trkpt lat="40.16573314277442" lon="9.528695851585892"><ele>929.0</ele><time>2026-04-03T14:22:11.999Z</time></trkpt><trkpt lat="40.16584014242868" lon="9.52861776630265"><ele>931.5</ele><time>2026-04-03T14:22:12.999Z</time></trkpt><trkpt lat="40.16594449814661" lon="9.528542102212322"><ele>934.0</ele><time>2026-04-03T14:22:13.999Z</time></trkpt><trkpt lat="40.166054874356405" lon="9.528487156976533"><ele>936.5</ele><time>2026-04-03T14:22:14.999Z</time></trkpt><trkpt lat="40.16617171242597" lon="9.52846020074436"><ele>939.0</ele><time>2026-04-03T14:22:15.999Z</time></trkpt><trkpt lat="40.16629524736223" lon="9.528480036568833"><ele>939.0</ele><time>2026-04-03T14:22:16.999Z</time></trkpt><trkpt lat="40.16642869604745" lon="9.528522468166647"><ele>939.0</ele><time>2026-04-03T14:22:17.999Z</time></trkpt><trkpt lat="40.166571738593014" lon="9.528571271495721"><ele>939.0</ele><time>2026-04-03T14:22:18.999Z</time></trkpt><trkpt lat="40.166717768784274" lon="9.528550869985942"><ele>939.0</ele><time>2026-04-03T14:22:19.999Z</time></trkpt><trkpt lat="40.16685788021021" lon="9.528541480204886"><ele>938.0</ele><time>2026-04-03T14:22:20.999Z</time></trkpt><trkpt lat="40.16690824625768" lon="9.528457642196669"><ele>937.0</ele><time>2026-04-03T14:22:21.999Z</time></trkpt><trkpt lat="40.16704020618648" lon="9.528423483310982"><ele>936.0</ele><time>2026-04-03T14:22:22.999Z</time></trkpt><trkpt lat="40.16717442487115" lon="9.528362531436242"><ele>935.0</ele><time>2026-04-03T14:22:23.999Z</time></trkpt><trkpt lat="40.167311510297885" lon="9.528296395728391"><ele>933.25</ele><time>2026-04-03T14:22:24.999Z</time></trkpt><trkpt lat="40.16745321899811" lon="9.528227281508602"><ele>931.5</ele><time>2026-04-03T14:22:25.999Z</time></trkpt><trkpt lat="40.16759787789858" lon="9.528168834252227"><ele>929.75</ele><time>2026-04-03T14:22:26.999Z</time></trkpt><trkpt lat="40.16773523265921" lon="9.52810918169546"><ele>928.0</ele><time>2026-04-03T14:22:27.999Z</time></trkpt><trkpt lat="40.16786545468235" lon="9.528049497243664"><ele>928.0</ele><time>2026-04-03T14:22:28.999Z</time></trkpt><trkpt lat="40.16799974913185" lon="9.527987834461108"><ele>928.0</ele><time>2026-04-03T14:22:29.999Z</time></trkpt><trkpt lat="40.1681358938999" lon="9.527909420772332"><ele>928.0</ele><time>2026-04-03T14:22:30.999Z</time></trkpt><trkpt lat="40.168273131586126" lon="9.52781549315614"><ele>928.0</ele><time>2026-04-03T14:22:31.999Z</time></trkpt><trkpt lat="40.168402214015885" lon="9.527697959070496"><ele>927.6666666666666</ele><time>2026-04-03T14:22:32.999Z</time></trkpt><trkpt lat="40.16852991208756" lon="9.527573972499862"><ele>927.3333333333333</ele><time>2026-04-03T14:22:33.999Z</time></trkpt><trkpt lat="40.16866507494589" lon="9.527452605309476"><ele>927.0</ele><time>2026-04-03T14:22:34.999Z</time></trkpt><trkpt lat="40.16880177285242" lon="9.527331350222395"><ele>927.0</ele><time>2026-04-03T14:22:35.999Z</time></trkpt><trkpt lat="40.16894396603589" lon="9.527214501622975"><ele>927.0</ele><time>2026-04-03T14:22:36.999Z</time></trkpt><trkpt lat="40.16908455962645" lon="9.527095162258416"><ele>927.0</ele><time>2026-04-03T14:22:37.999Z</time></trkpt><trkpt lat="40.1692210162616" lon="9.526971653371623"><ele>926.0</ele><time>2026-04-03T14:22:38.999Z</time></trkpt><trkpt lat="40.169350623857845" lon="9.526853263082538"><ele>925.0</ele><time>2026-04-03T14:22:39.999Z</time></trkpt><trkpt lat="40.169473843507326" lon="9.526733487733924"><ele>924.0</ele><time>2026-04-03T14:22:40.999Z</time></trkpt><trkpt lat="40.169586615897465" lon="9.526608945500374"><ele>924.0</ele><time>2026-04-03T14:22:41.999Z</time></trkpt><trkpt lat="40.16967492937463" lon="9.52646030883157"><ele>924.0</ele><time>2026-04-03T14:22:42.999Z</time></trkpt><trkpt lat="40.16972179316271" lon="9.526280871725106"><ele>924.0</ele><time>2026-04-03T14:22:43.999Z</time></trkpt><trkpt lat="40.16975881394788" lon="9.526083286480006"><ele>924.0</ele><time>2026-04-03T14:22:44.999Z</time></trkpt><trkpt lat="40.169814591270566" lon="9.525930955944027"><ele>921.25</ele><time>2026-04-03T14:22:45.999Z</time></trkpt><trkpt lat="40.169887046100364" lon="9.525815859783428"><ele>918.5</ele><time>2026-04-03T14:22:46.999Z</time></trkpt><trkpt lat="40.16998752716107" lon="9.525766614186686"><ele>915.75</ele><time>2026-04-03T14:22:47.999Z</time></trkpt><trkpt lat="40.17011405672342" lon="9.525791491290647"><ele>913.0</ele><time>2026-04-03T14:22:48.999Z</time></trkpt><trkpt lat="40.17022473705167" lon="9.525906877369845"><ele>913.0</ele><time>2026-04-03T14:22:49.999Z</time></trkpt><trkpt lat="40.1702773150932" lon="9.526095096645298"><ele>913.0</ele><time>2026-04-03T14:22:50.999Z</time></trkpt><trkpt lat="40.17033993130743" lon="9.526268158539196"><ele>913.0</ele><time>2026-04-03T14:22:51.999Z</time></trkpt><trkpt lat="40.1703887469369" lon="9.526446105022654"><ele>913.0</ele><time>2026-04-03T14:22:52.999Z</time></trkpt><trkpt lat="40.17047094500726" lon="9.526611798989766"><ele>913.0</ele><time>2026-04-03T14:22:53.999Z</time></trkpt><trkpt lat="40.170579348486314" lon="9.526752478383445"><ele>913.0</ele><time>2026-04-03T14:22:54.999Z</time></trkpt><trkpt lat="40.17071181735192" lon="9.526873955004382"><ele>913.0</ele><time>2026-04-03T14:22:55.999Z</time></trkpt><trkpt lat="40.170864300026686" lon="9.526958857600095"><ele>913.0</ele><time>2026-04-03T14:22:56.999Z</time></trkpt><trkpt lat="40.17102503032968" lon="9.527014262702995"><ele>913.0</ele><time>2026-04-03T14:22:57.999Z</time></trkpt><trkpt lat="40.17118208328195" lon="9.52705776210604"><ele>913.0</ele><time>2026-04-03T14:22:58.999Z</time></trkpt><trkpt lat="40.17133023677527" lon="9.527100232256563"><ele>910.75</ele><time>2026-04-03T14:22:59.999Z</time></trkpt><trkpt lat="40.171468019739955" lon="9.527137101270847"><ele>908.5</ele><time>2026-04-03T14:23:00.999Z</time></trkpt><trkpt lat="40.171598089262936" lon="9.5271558044795"><ele>906.25</ele><time>2026-04-03T14:23:01.999Z</time></trkpt><trkpt lat="40.171716052550316" lon="9.527160494447026"><ele>904.0</ele><time>2026-04-03T14:23:02.999Z</time></trkpt><trkpt lat="40.171823714829465" lon="9.527143511486985"><ele>904.0</ele><time>2026-04-03T14:23:03.999Z</time></trkpt><trkpt lat="40.171928786936284" lon="9.527131419666157"><ele>904.0000000000001</ele><time>2026-04-03T14:23:04.999Z</time></trkpt><trkpt lat="40.172031036625945" lon="9.527122751302667"><ele>904.0000000000001</ele><time>2026-04-03T14:23:05.999Z</time></trkpt><trkpt lat="40.17213763505051" lon="9.527115366336066"><ele>904.0</ele><time>2026-04-03T14:23:06.999Z</time></trkpt><trkpt lat="40.17224720941436" lon="9.527088963640638"><ele>904.0</ele><time>2026-04-03T14:23:07.999Z</time></trkpt><trkpt lat="40.17235712301141" lon="9.527056307565903"><ele>904.25</ele><time>2026-04-03T14:23:08.999Z</time></trkpt><trkpt lat="40.1724690146772" lon="9.527025463475512"><ele>904.5</ele><time>2026-04-03T14:23:09.999Z</time></trkpt><trkpt lat="40.172581972818556" lon="9.527003476542193"><ele>904.75</ele><time>2026-04-03T14:23:10.999Z</time></trkpt><trkpt lat="40.172694655871474" lon="9.52698302732108"><ele>905.0</ele><time>2026-04-03T14:23:11.999Z</time></trkpt><trkpt lat="40.172808609148284" lon="9.526963844411648"><ele>905.0</ele><time>2026-04-03T14:23:12.999Z</time></trkpt><trkpt lat="40.17292739937474" lon="9.526937547842165"><ele>905.0</ele><time>2026-04-03T14:23:13.999Z</time></trkpt><trkpt lat="40.173050585557746" lon="9.526907643222371"><ele>905.0</ele><time>2026-04-03T14:23:14.999Z</time></trkpt><trkpt lat="40.17317826851437" lon="9.526872985626342"><ele>905.0</ele><time>2026-04-03T14:23:15.999Z</time></trkpt><trkpt lat="40.173300928121634" lon="9.526847124138799"><ele>901.5</ele><time>2026-04-03T14:23:16.999Z</time></trkpt><trkpt lat="40.173413113167605" lon="9.526838818287825"><ele>898.0</ele><time>2026-04-03T14:23:17.999Z</time></trkpt><trkpt lat="40.17352683857914" lon="9.526853799248045"><ele>894.5</ele><time>2026-04-03T14:23:18.999Z</time></trkpt><trkpt lat="40.17363496064627" lon="9.526904440894372"><ele>891.0</ele><time>2026-04-03T14:23:19.999Z</time></trkpt><trkpt lat="40.17374606985376" lon="9.526933557938323"><ele>891.0</ele><time>2026-04-03T14:23:20.999Z</time></trkpt><trkpt lat="40.17385857978323" lon="9.526943268837027"><ele>891.0</ele><time>2026-04-03T14:23:21.999Z</time></trkpt><trkpt lat="40.173966267324005" lon="9.526975753606612"><ele>891.0</ele><time>2026-04-03T14:23:22.999Z</time></trkpt><trkpt lat="40.17407520505329" lon="9.52700748677355"><ele>891.0</ele><time>2026-04-03T14:23:23.999Z</time></trkpt><trkpt lat="40.174194301979185" lon="9.527043537648376"><ele>897.25</ele><time>2026-04-03T14:23:24.999Z</time></trkpt><trkpt lat="40.17431863662977" lon="9.527083545820275"><ele>903.5</ele><time>2026-04-03T14:23:25.999Z</time></trkpt><trkpt lat="40.174441039142266" lon="9.527123058112"><ele>909.75</ele><time>2026-04-03T14:23:26.999Z</time></trkpt><trkpt lat="40.174560230953226" lon="9.527161046640888"><ele>916.0</ele><time>2026-04-03T14:23:27.999Z</time></trkpt><trkpt lat="40.17467743726932" lon="9.527193610902165"><ele>916.0</ele><time>2026-04-03T14:23:28.999Z</time></trkpt><trkpt lat="40.17478728776657" lon="9.527222670366344"><ele>915.9999999999999</ele><time>2026-04-03T14:23:29.999Z</time></trkpt><trkpt lat="40.174888262099735" lon="9.527249688321419"><ele>915.9999999999999</ele><time>2026-04-03T14:23:30.999Z</time></trkpt><trkpt lat="40.17498952063202" lon="9.527273395977367"><ele>916.0</ele><time>2026-04-03T14:23:31.999Z</time></trkpt><trkpt lat="40.17509389818172" lon="9.52729250842197"><ele>916.0</ele><time>2026-04-03T14:23:32.999Z</time></trkpt><trkpt lat="40.17519468992667" lon="9.527300276074985"><ele>914.8</ele><time>2026-04-03T14:23:33.999Z</time></trkpt><trkpt lat="40.175297330595946" lon="9.527289134801224"><ele>913.5999999999999</ele><time>2026-04-03T14:23:34.999Z</time></trkpt><trkpt lat="40.175402444404355" lon="9.527287822201378"><ele>912.4</ele><time>2026-04-03T14:23:35.999Z</time></trkpt><trkpt lat="40.17550868804298" lon="9.527316037468111"><ele>911.2</ele><time>2026-04-03T14:23:36.999Z</time></trkpt><trkpt lat="40.17561502949419" lon="9.527344228822743"><ele>910.0</ele><time>2026-04-03T14:23:37.999Z</time></trkpt><trkpt lat="40.1757197902651" lon="9.527359846835898"><ele>909.25</ele><time>2026-04-03T14:23:38.999Z</time></trkpt><trkpt lat="40.17584445885696" lon="9.527299844140762"><ele>908.5</ele><time>2026-04-03T14:23:39.999Z</time></trkpt><trkpt lat="40.1759563664142" lon="9.52720276563985"><ele>907.75</ele><time>2026-04-03T14:23:40.999Z</time></trkpt><trkpt lat="40.17606772403693" lon="9.527103810098614"><ele>907.0</ele><time>2026-04-03T14:23:41.999Z</time></trkpt><trkpt lat="40.176193666218474" lon="9.52704618502111"><ele>907.0</ele><time>2026-04-03T14:23:42.999Z</time></trkpt><trkpt lat="40.17633672176855" lon="9.527056827328659"><ele>907.0</ele><time>2026-04-03T14:23:43.999Z</time></trkpt><trkpt lat="40.17648286278481" lon="9.527119146825791"><ele>907.0</ele><time>2026-04-03T14:23:44.999Z</time></trkpt><trkpt lat="40.176627425815724" lon="9.527196614603522"><ele>903.3333333333333</ele><time>2026-04-03T14:23:45.999Z</time></trkpt><trkpt lat="40.17676950741049" lon="9.527280487067678"><ele>899.6666666666667</ele><time>2026-04-03T14:23:46.999Z</time></trkpt><trkpt lat="40.1769110746182" lon="9.527376878288512"><ele>896.0</ele><time>2026-04-03T14:23:47.999Z</time></trkpt><trkpt lat="40.17705303979102" lon="9.527472864738032"><ele>896.0</ele><time>2026-04-03T14:23:48.999Z</time></trkpt><trkpt lat="40.177195242389054" lon="9.527570371003192"><ele>896.0</ele><time>2026-04-03T14:23:49.999Z</time></trkpt><trkpt lat="40.17730237923012" lon="9.527722983301835"><ele>896.0</ele><time>2026-04-03T14:23:50.999Z</time></trkpt><trkpt lat="40.17740811329577" lon="9.527889422020237"><ele>892.3333333333334</ele><time>2026-04-03T14:23:51.999Z</time></trkpt><trkpt lat="40.17752056637646" lon="9.528056622256411"><ele>888.6666666666667</ele><time>2026-04-03T14:23:52.999Z</time></trkpt><trkpt lat="40.177618855778654" lon="9.528238761922813"><ele>885.0</ele><time>2026-04-03T14:23:53.999Z</time></trkpt><trkpt lat="40.177733438215036" lon="9.528413950780038"><ele>885.0</ele><time>2026-04-03T14:23:54.999Z</time></trkpt><trkpt lat="40.177849625570396" lon="9.528581056251216"><ele>885.0</ele><time>2026-04-03T14:23:55.999Z</time></trkpt><trkpt lat="40.17797561080767" lon="9.528727635024195"><ele>885.0</ele><time>2026-04-03T14:23:56.999Z</time></trkpt><trkpt lat="40.178119661366104" lon="9.528855961889176"><ele>883.0</ele><time>2026-04-03T14:23:57.999Z</time></trkpt><trkpt lat="40.178270093618764" lon="9.528969655069575"><ele>881.0</ele><time>2026-04-03T14:23:58.999Z</time></trkpt><trkpt lat="40.17841488918214" lon="9.52906477442833"><ele>879.0</ele><time>2026-04-03T14:23:59.999Z</time></trkpt><trkpt lat="40.17856348682683" lon="9.529123468365102"><ele>879.0</ele><time>2026-04-03T14:24:00.999Z</time></trkpt><trkpt lat="40.178708434607294" lon="9.529136324497443"><ele>879.0</ele><time>2026-04-03T14:24:01.999Z</time></trkpt><trkpt lat="40.17883358923126" lon="9.529194717309018"><ele>879.0</ele><time>2026-04-03T14:24:02.999Z</time></trkpt><trkpt lat="40.17893040219688" lon="9.52930077745288"><ele>879.0</ele><time>2026-04-03T14:24:03.999Z</time></trkpt><trkpt lat="40.17897303398009" lon="9.529458713504667"><ele>876.25</ele><time>2026-04-03T14:24:04.999Z</time></trkpt><trkpt lat="40.179028480462556" lon="9.529633554507141"><ele>873.5</ele><time>2026-04-03T14:24:05.999Z</time></trkpt><trkpt lat="40.17911439991575" lon="9.52978555629436"><ele>870.75</ele><time>2026-04-03T14:24:06.999Z</time></trkpt><trkpt lat="40.17920411025361" lon="9.529931564980846"><ele>868.0</ele><time>2026-04-03T14:24:07.999Z</time></trkpt><trkpt lat="40.179273827351246" lon="9.530091114902149"><ele>868.0</ele><time>2026-04-03T14:24:08.999Z</time></trkpt><trkpt lat="40.17929712384238" lon="9.530257573031083"><ele>868.0</ele><time>2026-04-03T14:24:09.999Z</time></trkpt><trkpt lat="40.17924863860631" lon="9.530407811576747"><ele>868.0</ele><time>2026-04-03T14:24:10.999Z</time></trkpt><trkpt lat="40.17918711539258" lon="9.530580978198147"><ele>868.0</ele><time>2026-04-03T14:24:11.999Z</time></trkpt><trkpt lat="40.179122888898235" lon="9.530766826565184"><ele>867.6666666666666</ele><time>2026-04-03T14:24:12.999Z</time></trkpt><trkpt lat="40.17907815829792" lon="9.530954361524488"><ele>867.3333333333333</ele><time>2026-04-03T14:24:13.999Z</time></trkpt><trkpt lat="40.17904092316195" lon="9.53115641318033"><ele>867.0</ele><time>2026-04-03T14:24:14.999Z</time></trkpt><trkpt lat="40.1790143177877" lon="9.531378001006948"><ele>866.0</ele><time>2026-04-03T14:24:15.999Z</time></trkpt><trkpt lat="40.17900934788413" lon="9.531587934429208"><ele>865.0</ele><time>2026-04-03T14:24:16.999Z</time></trkpt><trkpt lat="40.17903868591371" lon="9.531807698498278"><ele>864.0</ele><time>2026-04-03T14:24:17.999Z</time></trkpt><trkpt lat="40.17902531907678" lon="9.532065235315084"><ele>864.0</ele><time>2026-04-03T14:24:18.999Z</time></trkpt><trkpt lat="40.1789920831204" lon="9.53221697516883"><ele>864.0</ele><time>2026-04-03T14:24:19.999Z</time></trkpt><trkpt lat="40.17899970586432" lon="9.532393490823686"><ele>864.0</ele><time>2026-04-03T14:24:20.999Z</time></trkpt><trkpt lat="40.17900130564381" lon="9.532539211372706"><ele>864.0</ele><time>2026-04-03T14:24:21.999Z</time></trkpt><trkpt lat="40.1790738928656" lon="9.53266254345391"><ele>864.0</ele><time>2026-04-03T14:24:22.999Z</time></trkpt><trkpt lat="40.17918333471924" lon="9.532770398184194"><ele>864.0</ele><time>2026-04-03T14:24:23.999Z</time></trkpt><trkpt lat="40.179331404535844" lon="9.532805694804452"><ele>864.0</ele><time>2026-04-03T14:24:24.999Z</time></trkpt><trkpt lat="40.179487301454955" lon="9.532829360668908"><ele>864.0</ele><time>2026-04-03T14:24:25.999Z</time></trkpt><trkpt lat="40.17964205458998" lon="9.532847110002463"><ele>864.0</ele><time>2026-04-03T14:24:26.999Z</time></trkpt><trkpt lat="40.17980094335251" lon="9.532862611283482"><ele>864.0</ele><time>2026-04-03T14:24:27.999Z</time></trkpt><trkpt lat="40.17995689517235" lon="9.532844153139111"><ele>864.0</ele><time>2026-04-03T14:24:28.999Z</time></trkpt><trkpt lat="40.1801056481237" lon="9.53280056420252"><ele>859.0</ele><time>2026-04-03T14:24:29.999Z</time></trkpt><trkpt lat="40.180252388688395" lon="9.532772847565155"><ele>854.0</ele><time>2026-04-03T14:24:30.999Z</time></trkpt><trkpt lat="40.18039754035431" lon="9.532800578429597"><ele>849.0</ele><time>2026-04-03T14:24:31.999Z</time></trkpt><trkpt lat="40.18054610937892" lon="9.53283521703517"><ele>844.0</ele><time>2026-04-03T14:24:32.999Z</time></trkpt><trkpt lat="40.180693855409274" lon="9.532881603723753"><ele>854.25</ele><time>2026-04-03T14:24:33.999Z</time></trkpt><trkpt lat="40.18084450622531" lon="9.53291342402795"><ele>864.5</ele><time>2026-04-03T14:24:34.999Z</time></trkpt><trkpt lat="40.18098645138403" lon="9.532964817585073"><ele>874.75</ele><time>2026-04-03T14:24:35.999Z</time></trkpt><trkpt lat="40.1811244576747" lon="9.533006743464737"><ele>885.0</ele><time>2026-04-03T14:24:36.999Z</time></trkpt><trkpt lat="40.18126622863354" lon="9.533025622835233"><ele>885.0</ele><time>2026-04-03T14:24:37.999Z</time></trkpt><trkpt lat="40.18140836576583" lon="9.532985506815795"><ele>885.0</ele><time>2026-04-03T14:24:38.999Z</time></trkpt><trkpt lat="40.181537236599475" lon="9.53289872161101"><ele>885.0</ele><time>2026-04-03T14:24:39.999Z</time></trkpt><trkpt lat="40.18166437863349" lon="9.53280977501836"><ele>885.0</ele><time>2026-04-03T14:24:40.999Z</time></trkpt><trkpt lat="40.18179513933766" lon="9.53282141507916"><ele>882.75</ele><time>2026-04-03T14:24:41.999Z</time></trkpt><trkpt lat="40.181911211978786" lon="9.53286910505213"><ele>880.5</ele><time>2026-04-03T14:24:42.999Z</time></trkpt><trkpt lat="40.18204595758469" lon="9.53293175851133"><ele>878.25</ele><time>2026-04-03T14:24:43.999Z</time></trkpt><trkpt lat="40.182179839708205" lon="9.532996885925945"><ele>876.0</ele><time>2026-04-03T14:24:44.999Z</time></trkpt><trkpt lat="40.182314178085015" lon="9.533076813728826"><ele>874.25</ele><time>2026-04-03T14:24:45.999Z</time></trkpt><trkpt lat="40.18244939439749" lon="9.533136737135917"><ele>872.5</ele><time>2026-04-03T14:24:46.999Z</time></trkpt><trkpt lat="40.1825884692545" lon="9.53318218763888"><ele>870.75</ele><time>2026-04-03T14:24:47.999Z</time></trkpt><trkpt lat="40.1827320622139" lon="9.533224760656815"><ele>869.0</ele><time>2026-04-03T14:24:48.999Z</time></trkpt><trkpt lat="40.182882770730274" lon="9.533249539089134"><ele>869.0</ele><time>2026-04-03T14:24:49.999Z</time></trkpt><trkpt lat="40.183030451556064" lon="9.533263733983091"><ele>869.0</ele><time>2026-04-03T14:24:50.999Z</time></trkpt><trkpt lat="40.183170634968945" lon="9.533277339012526"><ele>869.0</ele><time>2026-04-03T14:24:51.999Z</time></trkpt><trkpt lat="40.18330661064003" lon="9.533291054923863"><ele>869.0</ele><time>2026-04-03T14:24:52.999Z</time></trkpt><trkpt lat="40.18343778230976" lon="9.533308271010064"><ele>865.25</ele><time>2026-04-03T14:24:53.999Z</time></trkpt><trkpt lat="40.183563296599274" lon="9.533334655140804"><ele>861.5</ele><time>2026-04-03T14:24:54.999Z</time></trkpt><trkpt lat="40.18369214327272" lon="9.533374318088597"><ele>857.75</ele><time>2026-04-03T14:24:55.999Z</time></trkpt><trkpt lat="40.183821472694966" lon="9.533419890298038"><ele>854.0</ele><time>2026-04-03T14:24:56.999Z</time></trkpt><trkpt lat="40.1839516538924" lon="9.533473847998163"><ele>857.25</ele><time>2026-04-03T14:24:57.999Z</time></trkpt><trkpt lat="40.18408106446008" lon="9.533531093540702"><ele>860.5</ele><time>2026-04-03T14:24:58.999Z</time></trkpt><trkpt lat="40.18420279074925" lon="9.533604079477085"><ele>863.75</ele><time>2026-04-03T14:24:59.999Z</time></trkpt><trkpt lat="40.18430604792957" lon="9.533710061155782"><ele>867.0</ele><time>2026-04-03T14:25:00.999Z</time></trkpt><trkpt lat="40.18438469154129" lon="9.533860262662522"><ele>867.0</ele><time>2026-04-03T14:25:01.999Z</time></trkpt><trkpt lat="40.18443348449081" lon="9.534029589822902"><ele>867.0</ele><time>2026-04-03T14:25:02.999Z</time></trkpt><trkpt lat="40.18446296659755" lon="9.534200672670691"><ele>867.0</ele><time>2026-04-03T14:25:03.999Z</time></trkpt><trkpt lat="40.18454692549232" lon="9.534335456851794"><ele>867.0</ele><time>2026-04-03T14:25:04.999Z</time></trkpt><trkpt lat="40.18465010727985" lon="9.534414270656226"><ele>867.0</ele><time>2026-04-03T14:25:05.999Z</time></trkpt><trkpt lat="40.18477451150499" lon="9.534423234814897"><ele>867.0</ele><time>2026-04-03T14:25:06.999Z</time></trkpt><trkpt lat="40.184904183777086" lon="9.534367345390946"><ele>867.0</ele><time>2026-04-03T14:25:07.999Z</time></trkpt><trkpt lat="40.18503149846935" lon="9.534328199414773"><ele>867.0</ele><time>2026-04-03T14:25:08.999Z</time></trkpt><trkpt lat="40.185163014916625" lon="9.534314906973458"><ele>867.0</ele><time>2026-04-03T14:25:09.999Z</time></trkpt><trkpt lat="40.18528256879523" lon="9.534324223369012"><ele>867.0</ele><time>2026-04-03T14:25:10.999Z</time></trkpt><trkpt lat="40.18538211934934" lon="9.53437676023403"><ele>867.0</ele><time>2026-04-03T14:25:11.999Z</time></trkpt><trkpt lat="40.18545127314722" lon="9.53448319576294"><ele>867.0</ele><time>2026-04-03T14:25:12.999Z</time></trkpt><trkpt lat="40.18549413508991" lon="9.534627267307433"><ele>867.0</ele><time>2026-04-03T14:25:13.999Z</time></trkpt><trkpt lat="40.18553489013072" lon="9.534774813970138"><ele>867.0</ele><time>2026-04-03T14:25:14.999Z</time></trkpt><trkpt lat="40.18558770554455" lon="9.534925095138293"><ele>867.0</ele><time>2026-04-03T14:25:15.999Z</time></trkpt><trkpt lat="40.185625779255844" lon="9.535080640504226"><ele>867.0</ele><time>2026-04-03T14:25:16.999Z</time></trkpt><trkpt lat="40.18563561147477" lon="9.535246627067782"><ele>872.5</ele><time>2026-04-03T14:25:17.999Z</time></trkpt><trkpt lat="40.185635302521064" lon="9.535417347340944"><ele>878.0</ele><time>2026-04-03T14:25:18.999Z</time></trkpt><trkpt lat="40.18563537657357" lon="9.535585445732373"><ele>883.5</ele><time>2026-04-03T14:25:19.999Z</time></trkpt><trkpt lat="40.18564450249586" lon="9.53574449296954"><ele>889.0</ele><time>2026-04-03T14:25:20.999Z</time></trkpt><trkpt lat="40.18569597861228" lon="9.53588869175239"><ele>884.0</ele><time>2026-04-03T14:25:21.999Z</time></trkpt><trkpt lat="40.185787585512145" lon="9.535990248553615"><ele>879.0</ele><time>2026-04-03T14:25:22.999Z</time></trkpt><trkpt lat="40.185888974660145" lon="9.536076511818925"><ele>874.0</ele><time>2026-04-03T14:25:23.999Z</time></trkpt><trkpt lat="40.185973239254785" lon="9.536183186043989"><ele>869.0</ele><time>2026-04-03T14:25:24.999Z</time></trkpt><trkpt lat="40.186049242200866" lon="9.536287628010632"><ele>869.0</ele><time>2026-04-03T14:25:25.999Z</time></trkpt><trkpt lat="40.18614251793034" lon="9.53636864182656"><ele>869.0</ele><time>2026-04-03T14:25:26.999Z</time></trkpt><trkpt lat="40.18626496742662" lon="9.536331462083464"><ele>869.0</ele><time>2026-04-03T14:25:27.999Z</time></trkpt><trkpt lat="40.18637365776399" lon="9.536269782087528"><ele>869.0</ele><time>2026-04-03T14:25:28.999Z</time></trkpt><trkpt lat="40.18646675649833" lon="9.536161953040612"><ele>859.0</ele><time>2026-04-03T14:25:29.999Z</time></trkpt><trkpt lat="40.186558343667336" lon="9.53603909451761"><ele>849.0</ele><time>2026-04-03T14:25:30.999Z</time></trkpt><trkpt lat="40.186658029172115" lon="9.535927331824015"><ele>839.0</ele><time>2026-04-03T14:25:31.999Z</time></trkpt><trkpt lat="40.186774095661654" lon="9.535854921577586"><ele>829.0</ele><time>2026-04-03T14:25:32.999Z</time></trkpt><trkpt lat="40.186874534231876" lon="9.535755389782382"><ele>829.0</ele><time>2026-04-03T14:25:33.999Z</time></trkpt><trkpt lat="40.18697257559955" lon="9.535677984596516"><ele>829.0</ele><time>2026-04-03T14:25:35Z</time></trkpt><trkpt lat="40.18706180929467" lon="9.535616886213534"><ele>829.0</ele><time>2026-04-03T14:25:36Z</time></trkpt><trkpt lat="40.18714512102638" lon="9.535561294902754"><ele>829.0</ele><time>2026-04-03T14:25:37Z</time></trkpt><trkpt lat="40.187236477212984" lon="9.535530408466052"><ele>829.0</ele><time>2026-04-03T14:25:38Z</time></trkpt><trkpt lat="40.18732950037284" lon="9.535546818428005"><ele>829.4000000000001</ele><time>2026-04-03T14:25:39Z</time></trkpt><trkpt lat="40.18741247867409" lon="9.53560948184985"><ele>829.8</ele><time>2026-04-03T14:25:40Z</time></trkpt><trkpt lat="40.187489087586805" lon="9.535699639758743"><ele>830.2</ele><time>2026-04-03T14:25:41Z</time></trkpt><trkpt lat="40.187563092246506" lon="9.535790275419457"><ele>830.5999999999999</ele><time>2026-04-03T14:25:42Z</time></trkpt><trkpt lat="40.18763797536266" lon="9.535867878855676"><ele>831.0</ele><time>2026-04-03T14:25:43Z</time></trkpt><trkpt lat="40.187709318902726" lon="9.53592800584242"><ele>831.0</ele><time>2026-04-03T14:25:44Z</time></trkpt><trkpt lat="40.187777969963236" lon="9.535977283982886"><ele>831.0</ele><time>2026-04-03T14:25:45Z</time></trkpt><trkpt lat="40.18784773868223" lon="9.536021223459269"><ele>831.0</ele><time>2026-04-03T14:25:46Z</time></trkpt><trkpt lat="40.18792072443143" lon="9.536064219177788"><ele>831.0</ele><time>2026-04-03T14:25:47Z</time></trkpt><trkpt lat="40.187996214353774" lon="9.53610602847684"><ele>831.0</ele><time>2026-04-03T14:25:48Z</time></trkpt><trkpt lat="40.18808080629307" lon="9.53613221567771"><ele>831.0</ele><time>2026-04-03T14:25:49Z</time></trkpt><trkpt lat="40.188174398185744" lon="9.536121118725179"><ele>829.8</ele><time>2026-04-03T14:25:50Z</time></trkpt><trkpt lat="40.188264746007846" lon="9.53607656450387"><ele>828.5999999999999</ele><time>2026-04-03T14:25:51Z</time></trkpt><trkpt lat="40.18834705236316" lon="9.536006275904377"><ele>827.4</ele><time>2026-04-03T14:25:52Z</time></trkpt><trkpt lat="40.188428095549526" lon="9.535929133915163"><ele>826.2</ele><time>2026-04-03T14:25:53Z</time></trkpt><trkpt lat="40.18850637149281" lon="9.535858388280875"><ele>825.0</ele><time>2026-04-03T14:25:54Z</time></trkpt><trkpt lat="40.188592082971475" lon="9.535790974290185"><ele>825.0</ele><time>2026-04-03T14:25:55Z</time></trkpt><trkpt lat="40.18868606151604" lon="9.535731124156623"><ele>825.0</ele><time>2026-04-03T14:25:56Z</time></trkpt><trkpt lat="40.18878151913475" lon="9.535676277386028"><ele>825.0</ele><time>2026-04-03T14:25:57Z</time></trkpt><trkpt lat="40.188877511650865" lon="9.535628599331298"><ele>825.0</ele><time>2026-04-03T14:25:58Z</time></trkpt><trkpt lat="40.188979592937024" lon="9.535600113779976"><ele>825.0</ele><time>2026-04-03T14:25:59Z</time></trkpt><trkpt lat="40.18908661633962" lon="9.535614529212443"><ele>826.0</ele><time>2026-04-03T14:26:00Z</time></trkpt><trkpt lat="40.18919183134258" lon="9.535668641967671"><ele>827.0</ele><time>2026-04-03T14:26:01Z</time></trkpt><trkpt lat="40.189296418991205" lon="9.535737564461169"><ele>828.0</ele><time>2026-04-03T14:26:02Z</time></trkpt><trkpt lat="40.189406211857296" lon="9.535800370989735"><ele>829.0</ele><time>2026-04-03T14:26:03Z</time></trkpt><trkpt lat="40.18951608728012" lon="9.535855834493985"><ele>829.0</ele><time>2026-04-03T14:26:04Z</time></trkpt><trkpt lat="40.18962979193122" lon="9.535901747787307"><ele>829.0</ele><time>2026-04-03T14:26:05Z</time></trkpt><trkpt lat="40.18972799532154" lon="9.535955632127928"><ele>829.0</ele><time>2026-04-03T14:26:06Z</time></trkpt><trkpt lat="40.189809894418126" lon="9.53604361959849"><ele>829.0</ele><time>2026-04-03T14:26:07Z</time></trkpt><trkpt lat="40.189859936639664" lon="9.536161703972777"><ele>829.0</ele><time>2026-04-03T14:26:08Z</time></trkpt><trkpt lat="40.18989293377307" lon="9.53628156682105"><ele>831.4000000000001</ele><time>2026-04-03T14:26:09Z</time></trkpt><trkpt lat="40.189936730959424" lon="9.536396133175266"><ele>833.8</ele><time>2026-04-03T14:26:10Z</time></trkpt><trkpt lat="40.18999756700797" lon="9.536503572440438"><ele>836.2</ele><time>2026-04-03T14:26:11Z</time></trkpt><trkpt lat="40.19007872741085" lon="9.536590609269526"><ele>838.5999999999999</ele><time>2026-04-03T14:26:12Z</time></trkpt><trkpt lat="40.1901672651235" lon="9.536653944967295"><ele>841.0</ele><time>2026-04-03T14:26:13Z</time></trkpt><trkpt lat="40.190277976556445" lon="9.536597153778526"><ele>841.0</ele><time>2026-04-03T14:26:14Z</time></trkpt><trkpt lat="40.19037724892815" lon="9.536551702409419"><ele>841.0</ele><time>2026-04-03T14:26:15Z</time></trkpt><trkpt lat="40.19048146387595" lon="9.53651783595088"><ele>841.0</ele><time>2026-04-03T14:26:16Z</time></trkpt><trkpt lat="40.190593113820036" lon="9.53650234065624"><ele>841.0</ele><time>2026-04-03T14:26:17Z</time></trkpt><trkpt lat="40.190710833738244" lon="9.536520686828169"><ele>841.0</ele><time>2026-04-03T14:26:18Z</time></trkpt><trkpt lat="40.190833701571776" lon="9.536475949046428"><ele>841.5</ele><time>2026-04-03T14:26:19Z</time></trkpt><trkpt lat="40.19093216554926" lon="9.536355429411703"><ele>842.0</ele><time>2026-04-03T14:26:20Z</time></trkpt><trkpt lat="40.191037409084444" lon="9.536259820086032"><ele>842.5</ele><time>2026-04-03T14:26:21Z</time></trkpt><trkpt lat="40.191153193107105" lon="9.536176488018278"><ele>843.0</ele><time>2026-04-03T14:26:22Z</time></trkpt><trkpt lat="40.191272827247815" lon="9.536108582244497"><ele>838.0</ele><time>2026-04-03T14:26:23Z</time></trkpt><trkpt lat="40.19138801556728" lon="9.536053281615317"><ele>833.0</ele><time>2026-04-03T14:26:24Z</time></trkpt><trkpt lat="40.19148929693026" lon="9.536000491362813"><ele>828.0</ele><time>2026-04-03T14:26:25Z</time></trkpt><trkpt lat="40.19158487146524" lon="9.535947203397013"><ele>823.0</ele><time>2026-04-03T14:26:26Z</time></trkpt><trkpt lat="40.19168332250674" lon="9.535891347830631"><ele>818.0</ele><time>2026-04-03T14:26:27Z</time></trkpt><trkpt lat="40.19178711130342" lon="9.535835183734799"><ele>818.0</ele><time>2026-04-03T14:26:28Z</time></trkpt><trkpt lat="40.19189693598867" lon="9.535784332459166"><ele>818.0</ele><time>2026-04-03T14:26:29Z</time></trkpt><trkpt lat="40.192009149265736" lon="9.53573269417945"><ele>818.0</ele><time>2026-04-03T14:26:30Z</time></trkpt><trkpt lat="40.19211785005483" lon="9.535691655527966"><ele>818.0</ele><time>2026-04-03T14:26:31Z</time></trkpt><trkpt lat="40.19222867410381" lon="9.535669023292513"><ele>818.0</ele><time>2026-04-03T14:26:32Z</time></trkpt><trkpt lat="40.1923390021546" lon="9.535660266271368"><ele>818.0</ele><time>2026-04-03T14:26:33Z</time></trkpt><trkpt lat="40.19245046042052" lon="9.53565404441944"><ele>818.0</ele><time>2026-04-03T14:26:34Z</time></trkpt><trkpt lat="40.192561075615245" lon="9.535666185629902"><ele>818.0</ele><time>2026-04-03T14:26:35Z</time></trkpt><trkpt lat="40.19265946773698" lon="9.535729856477051"><ele>818.0</ele><time>2026-04-03T14:26:36Z</time></trkpt><trkpt lat="40.192724054170725" lon="9.535848007780748"><ele>819.0</ele><time>2026-04-03T14:26:37Z</time></trkpt><trkpt lat="40.19274831654832" lon="9.535995026121768"><ele>820.0</ele><time>2026-04-03T14:26:38Z</time></trkpt><trkpt lat="40.192741798702045" lon="9.53614734830397"><ele>821.0</ele><time>2026-04-03T14:26:39Z</time></trkpt><trkpt lat="40.19278497749226" lon="9.536283699017904"><ele>822.0</ele><time>2026-04-03T14:26:40Z</time></trkpt><trkpt lat="40.19287495261327" lon="9.536392012245752"><ele>820.5</ele><time>2026-04-03T14:26:40.999Z</time></trkpt><trkpt lat="40.192977480002845" lon="9.536488609292254"><ele>819.0</ele><time>2026-04-03T14:26:41.999Z</time></trkpt><trkpt lat="40.193068740651974" lon="9.536592430723614"><ele>817.5</ele><time>2026-04-03T14:26:43Z</time></trkpt><trkpt lat="40.19316058262552" lon="9.536695570030448"><ele>816.0</ele><time>2026-04-03T14:26:44Z</time></trkpt><trkpt lat="40.19325219386594" lon="9.536802061477184"><ele>816.0</ele><time>2026-04-03T14:26:45Z</time></trkpt><trkpt lat="40.19333666129429" lon="9.536900065664971"><ele>816.0</ele><time>2026-04-03T14:26:46Z</time></trkpt><trkpt lat="40.19342084545222" lon="9.53699600301312"><ele>816.0</ele><time>2026-04-03T14:26:47Z</time></trkpt><trkpt lat="40.19350680547676" lon="9.537094488505959"><ele>816.0</ele><time>2026-04-03T14:26:48Z</time></trkpt><trkpt lat="40.19359105401937" lon="9.537194470648247"><ele>822.1999999999999</ele><time>2026-04-03T14:26:49Z</time></trkpt><trkpt lat="40.19367431819514" lon="9.537291236964109"><ele>828.4</ele><time>2026-04-03T14:26:50Z</time></trkpt><trkpt lat="40.19376139395219" lon="9.537372603811239"><ele>834.6</ele><time>2026-04-03T14:26:51Z</time></trkpt><trkpt lat="40.1938609968441" lon="9.537412967039295"><ele>840.8</ele><time>2026-04-03T14:26:52Z</time></trkpt><trkpt lat="40.19397279004944" lon="9.537370632011005"><ele>847.0</ele><time>2026-04-03T14:26:53Z</time></trkpt><trkpt lat="40.19406375582319" lon="9.537284605019286"><ele>847.0</ele><time>2026-04-03T14:26:54Z</time></trkpt><trkpt lat="40.194139810242284" lon="9.53717622809041"><ele>847.0</ele><time>2026-04-03T14:26:55Z</time></trkpt><trkpt lat="40.194222214671406" lon="9.537080431549812"><ele>847.0</ele><time>2026-04-03T14:26:56Z</time></trkpt><trkpt lat="40.19432670470351" lon="9.537027817911424"><ele>847.0</ele><time>2026-04-03T14:26:57Z</time></trkpt><trkpt lat="40.19443918175671" lon="9.53705342636607"><ele>847.0</ele><time>2026-04-03T14:26:58Z</time></trkpt><trkpt lat="40.194554351877834" lon="9.53705765450226"><ele>847.0</ele><time>2026-04-03T14:26:59Z</time></trkpt><trkpt lat="40.19466618258678" lon="9.537088854157595"><ele>847.0</ele><time>2026-04-03T14:27:00Z</time></trkpt><trkpt lat="40.19477455668167" lon="9.537142861262382"><ele>847.0</ele><time>2026-04-03T14:27:01Z</time></trkpt><trkpt lat="40.19486601480835" lon="9.537235725975886"><ele>847.0</ele><time>2026-04-03T14:27:02Z</time></trkpt><trkpt lat="40.19493595016602" lon="9.537357424576946"><ele>845.5</ele><time>2026-04-03T14:27:03Z</time></trkpt><trkpt lat="40.19500688022121" lon="9.537465364719447"><ele>844.0</ele><time>2026-04-03T14:27:04Z</time></trkpt><trkpt lat="40.19509877153874" lon="9.537535531251566"><ele>842.5</ele><time>2026-04-03T14:27:05Z</time></trkpt><trkpt lat="40.195213383182555" lon="9.537526692073863"><ele>841.0</ele><time>2026-04-03T14:27:06Z</time></trkpt><trkpt lat="40.195323483431736" lon="9.537461206764457"><ele>841.0</ele><time>2026-04-03T14:27:07Z</time></trkpt><trkpt lat="40.19541808296472" lon="9.537379426617582"><ele>841.0</ele><time>2026-04-03T14:27:08Z</time></trkpt><trkpt lat="40.19550873488314" lon="9.537324524996974"><ele>841.0</ele><time>2026-04-03T14:27:09Z</time></trkpt><trkpt lat="40.1955887100369" lon="9.537246882232642"><ele>841.0</ele><time>2026-04-03T14:27:10Z</time></trkpt><trkpt lat="40.195643151361175" lon="9.537141460986533"><ele>841.0</ele><time>2026-04-03T14:27:11Z</time></trkpt><trkpt lat="40.19570500975974" lon="9.5370457117161"><ele>837.4</ele><time>2026-04-03T14:27:12Z</time></trkpt><trkpt lat="40.19576280030228" lon="9.53693908554213"><ele>833.8</ele><time>2026-04-03T14:27:13Z</time></trkpt><trkpt lat="40.195821417328446" lon="9.536831458317407"><ele>830.1999999999999</ele><time>2026-04-03T14:27:14Z</time></trkpt><trkpt lat="40.195884287900014" lon="9.536724771156006"><ele>826.5999999999999</ele><time>2026-04-03T14:27:15Z</time></trkpt><trkpt lat="40.19595412885406" lon="9.53661881203755"><ele>823.0</ele><time>2026-04-03T14:27:16Z</time></trkpt><trkpt lat="40.19603256588961" lon="9.536517819218643"><ele>823.0</ele><time>2026-04-03T14:27:17Z</time></trkpt><trkpt lat="40.19612396894433" lon="9.536427722412899"><ele>823.0</ele><time>2026-04-03T14:27:18Z</time></trkpt><trkpt lat="40.196222617083436" lon="9.536349525952831"><ele>823.0</ele><time>2026-04-03T14:27:19Z</time></trkpt><trkpt lat="40.196332570826875" lon="9.536286537831442"><ele>823.0</ele><time>2026-04-03T14:27:20Z</time></trkpt><trkpt lat="40.19644506561564" lon="9.53622278982886"><ele>821.0</ele><time>2026-04-03T14:27:21Z</time></trkpt><trkpt lat="40.19655913798223" lon="9.536157544481245"><ele>819.0</ele><time>2026-04-03T14:27:22Z</time></trkpt><trkpt lat="40.19666880593904" lon="9.536090859863053"><ele>817.0</ele><time>2026-04-03T14:27:23Z</time></trkpt><trkpt lat="40.19677485154855" lon="9.536038698638844"><ele>815.0</ele><time>2026-04-03T14:27:24Z</time></trkpt><trkpt lat="40.1968625005116" lon="9.536007491264046"><ele>813.0</ele><time>2026-04-03T14:27:25Z</time></trkpt><trkpt lat="40.196944303835984" lon="9.535986904691688"><ele>813.0</ele><time>2026-04-03T14:27:26Z</time></trkpt><trkpt lat="40.197026122462084" lon="9.535964514709981"><ele>813.0</ele><time>2026-04-03T14:27:27Z</time></trkpt><trkpt lat="40.19710195802077" lon="9.535950682449046"><ele>813.0</ele><time>2026-04-03T14:27:28Z</time></trkpt><trkpt lat="40.197176895606" lon="9.53595572512439"><ele>813.0</ele><time>2026-04-03T14:27:29Z</time></trkpt><trkpt lat="40.197250952299036" lon="9.53599725014782"><ele>813.0</ele><time>2026-04-03T14:27:30Z</time></trkpt><trkpt lat="40.197310433135144" lon="9.536076982226405"><ele>813.0</ele><time>2026-04-03T14:27:31Z</time></trkpt><trkpt lat="40.1973350035993" lon="9.536197404948213"><ele>823.75</ele><time>2026-04-03T14:27:32Z</time></trkpt><trkpt lat="40.19732736364955" lon="9.536336934757344"><ele>834.5</ele><time>2026-04-03T14:27:33Z</time></trkpt><trkpt lat="40.19731501629416" lon="9.536480435345673"><ele>845.25</ele><time>2026-04-03T14:27:34Z</time></trkpt><trkpt lat="40.19731641678769" lon="9.53663815472506"><ele>856.0</ele><time>2026-04-03T14:27:35Z</time></trkpt><trkpt lat="40.19732912919598" lon="9.536807759657329"><ele>847.5</ele><time>2026-04-03T14:27:36Z</time></trkpt><trkpt lat="40.197348424101826" lon="9.536986616382237"><ele>839.0</ele><time>2026-04-03T14:27:37Z</time></trkpt><trkpt lat="40.19736525244988" lon="9.537165916743088"><ele>830.5</ele><time>2026-04-03T14:27:38Z</time></trkpt><trkpt lat="40.19737745021726" lon="9.537352459910835"><ele>822.0</ele><time>2026-04-03T14:27:39Z</time></trkpt><trkpt lat="40.197382570390225" lon="9.537536204448301"><ele>821.75</ele><time>2026-04-03T14:27:40Z</time></trkpt><trkpt lat="40.19737653009908" lon="9.537713002654002"><ele>821.5</ele><time>2026-04-03T14:27:41Z</time></trkpt><trkpt lat="40.197367407469734" lon="9.53788476462408"><ele>821.25</ele><time>2026-04-03T14:27:42Z</time></trkpt><trkpt lat="40.19735012528149" lon="9.538052674046822"><ele>821.0</ele><time>2026-04-03T14:27:43Z</time></trkpt><trkpt lat="40.19734925442077" lon="9.538212168640799"><ele>822.75</ele><time>2026-04-03T14:27:44Z</time></trkpt><trkpt lat="40.197395613186366" lon="9.538355910110248"><ele>824.5</ele><time>2026-04-03T14:27:45Z</time></trkpt><trkpt lat="40.19749889990537" lon="9.538449346107345"><ele>826.25</ele><time>2026-04-03T14:27:46Z</time></trkpt><trkpt lat="40.19760918728055" lon="9.53853622210567"><ele>828.0</ele><time>2026-04-03T14:27:47Z</time></trkpt><trkpt lat="40.19773046855167" lon="9.538594683648656"><ele>828.0</ele><time>2026-04-03T14:27:48Z</time></trkpt><trkpt lat="40.19783927471515" lon="9.538659957660391"><ele>828.0</ele><time>2026-04-03T14:27:49Z</time></trkpt><trkpt lat="40.197941034589356" lon="9.538783226212237"><ele>828.0</ele><time>2026-04-03T14:27:50Z</time></trkpt><trkpt lat="40.19804003275501" lon="9.53892210421361"><ele>828.0</ele><time>2026-04-03T14:27:51Z</time></trkpt><trkpt lat="40.19812452220638" lon="9.539074711951512"><ele>825.25</ele><time>2026-04-03T14:27:52Z</time></trkpt><trkpt lat="40.198207132238366" lon="9.539218168210535"><ele>822.5</ele><time>2026-04-03T14:27:53Z</time></trkpt><trkpt lat="40.198300565358" lon="9.539330499525482"><ele>819.75</ele><time>2026-04-03T14:27:54Z</time></trkpt><trkpt lat="40.19841474903029" lon="9.539369512547374"><ele>817.0</ele><time>2026-04-03T14:27:55Z</time></trkpt><trkpt lat="40.198533760589875" lon="9.53935441831656"><ele>817.0</ele><time>2026-04-03T14:27:56Z</time></trkpt><trkpt lat="40.19867351144348" lon="9.539279343038684"><ele>817.0</ele><time>2026-04-03T14:27:57Z</time></trkpt><trkpt lat="40.19878535357034" lon="9.539224300364207"><ele>817.0</ele><time>2026-04-03T14:27:58Z</time></trkpt><trkpt lat="40.19893583480887" lon="9.539182858112449"><ele>817.0</ele><time>2026-04-03T14:27:59Z</time></trkpt><trkpt lat="40.19905407929685" lon="9.53920153092796"><ele>819.5</ele><time>2026-04-03T14:28:00Z</time></trkpt><trkpt lat="40.19918142872632" lon="9.539282698181097"><ele>822.0</ele><time>2026-04-03T14:28:01Z</time></trkpt><trkpt lat="40.199299910067076" lon="9.539397455602689"><ele>824.5</ele><time>2026-04-03T14:28:02Z</time></trkpt><trkpt lat="40.19937127471684" lon="9.539526470611634"><ele>827.0</ele><time>2026-04-03T14:28:03Z</time></trkpt><trkpt lat="40.19940836970211" lon="9.539663518914233"><ele>827.0</ele><time>2026-04-03T14:28:04Z</time></trkpt><trkpt lat="40.19939101765749" lon="9.539797362284443"><ele>827.0</ele><time>2026-04-03T14:28:05Z</time></trkpt><trkpt lat="40.19936697925099" lon="9.540127884945411"><ele>827.0</ele><time>2026-04-03T14:28:06Z</time></trkpt><trkpt lat="40.19938854679369" lon="9.540289736121512"><ele>832.75</ele><time>2026-04-03T14:28:07Z</time></trkpt><trkpt lat="40.199462350218276" lon="9.540406581531236"><ele>838.5</ele><time>2026-04-03T14:28:08Z</time></trkpt><trkpt lat="40.19955657117592" lon="9.54049357761045"><ele>844.25</ele><time>2026-04-03T14:28:09Z</time></trkpt><trkpt lat="40.199676272145325" lon="9.540533160192169"><ele>850.0</ele><time>2026-04-03T14:28:10Z</time></trkpt><trkpt lat="40.19979944945181" lon="9.540588849050279"><ele>842.0</ele><time>2026-04-03T14:28:11Z</time></trkpt><trkpt lat="40.19991092546984" lon="9.540686473836542"><ele>834.0</ele><time>2026-04-03T14:28:12Z</time></trkpt><trkpt lat="40.200002655766355" lon="9.54081274312391"><ele>826.0</ele><time>2026-04-03T14:28:13Z</time></trkpt><trkpt lat="40.20010036538965" lon="9.540919930094368"><ele>818.0</ele><time>2026-04-03T14:28:14Z</time></trkpt><trkpt lat="40.2002225720338" lon="9.540981528770407"><ele>818.0</ele><time>2026-04-03T14:28:15Z</time></trkpt><trkpt lat="40.20036612221121" lon="9.540980413506002"><ele>818.0</ele><time>2026-04-03T14:28:16Z</time></trkpt><trkpt lat="40.20051438417389" lon="9.54092132585209"><ele>818.0</ele><time>2026-04-03T14:28:17Z</time></trkpt><trkpt lat="40.2006523929657" lon="9.540822098354829"><ele>815.75</ele><time>2026-04-03T14:28:18Z</time></trkpt><trkpt lat="40.20077705895256" lon="9.54074081947311"><ele>813.5</ele><time>2026-04-03T14:28:19Z</time></trkpt><trkpt lat="40.20090395909331" lon="9.540693353826166"><ele>811.25</ele><time>2026-04-03T14:28:20Z</time></trkpt><trkpt lat="40.20102510065286" lon="9.54073774431586"><ele>809.0</ele><time>2026-04-03T14:28:21Z</time></trkpt><trkpt lat="40.20111757458723" lon="9.54083974570878"><ele>809.0</ele><time>2026-04-03T14:28:22Z</time></trkpt><trkpt lat="40.20122866287309" lon="9.54094018782687"><ele>809.0</ele><time>2026-04-03T14:28:23Z</time></trkpt><trkpt lat="40.20129384837324" lon="9.54109102554297"><ele>809.0</ele><time>2026-04-03T14:28:24Z</time></trkpt><trkpt lat="40.201351992391196" lon="9.541281964161499"><ele>809.0</ele><time>2026-04-03T14:28:25Z</time></trkpt><trkpt lat="40.201435534434225" lon="9.541426798816538"><ele>810.6666666666667</ele><time>2026-04-03T14:28:26Z</time></trkpt><trkpt lat="40.201548783722366" lon="9.541535691841696"><ele>812.3333333333333</ele><time>2026-04-03T14:28:27Z</time></trkpt><trkpt lat="40.20169026734697" lon="9.541617068548694"><ele>814.0</ele><time>2026-04-03T14:28:28Z</time></trkpt><trkpt lat="40.2018477080897" lon="9.54163039905442"><ele>814.0</ele><time>2026-04-03T14:28:29Z</time></trkpt><trkpt lat="40.20201433833944" lon="9.541635158895152"><ele>814.0</ele><time>2026-04-03T14:28:30Z</time></trkpt><trkpt lat="40.2021715513349" lon="9.541666224217968"><ele>814.0</ele><time>2026-04-03T14:28:31Z</time></trkpt><trkpt lat="40.202330969475575" lon="9.541656705103177"><ele>809.0</ele><time>2026-04-03T14:28:32Z</time></trkpt><trkpt lat="40.20248039736573" lon="9.541660257397652"><ele>804.0</ele><time>2026-04-03T14:28:33Z</time></trkpt><trkpt lat="40.20262088161789" lon="9.541705835131237"><ele>799.0</ele><time>2026-04-03T14:28:34Z</time></trkpt><trkpt lat="40.20273115854489" lon="9.541785044429748"><ele>794.0</ele><time>2026-04-03T14:28:35Z</time></trkpt><trkpt lat="40.202808348371384" lon="9.54192996576233"><ele>805.0</ele><time>2026-04-03T14:28:36Z</time></trkpt><trkpt lat="40.20285792175753" lon="9.542100278677584"><ele>816.0</ele><time>2026-04-03T14:28:37Z</time></trkpt><trkpt lat="40.20293549434383" lon="9.542289782209481"><ele>827.0</ele><time>2026-04-03T14:28:38Z</time></trkpt><trkpt lat="40.2030469587895" lon="9.542444611851792"><ele>823.0</ele><time>2026-04-03T14:28:39Z</time></trkpt><trkpt lat="40.20316860126451" lon="9.542596351752884"><ele>819.0</ele><time>2026-04-03T14:28:40Z</time></trkpt><trkpt lat="40.20328950085862" lon="9.542761913667682"><ele>815.0</ele><time>2026-04-03T14:28:41Z</time></trkpt><trkpt lat="40.20341652386727" lon="9.542922908266503"><ele>815.0</ele><time>2026-04-03T14:28:42Z</time></trkpt><trkpt lat="40.203548586742386" lon="9.54308587607824"><ele>815.0</ele><time>2026-04-03T14:28:43Z</time></trkpt><trkpt lat="40.20370242293865" lon="9.543220288268975"><ele>815.0</ele><time>2026-04-03T14:28:44Z</time></trkpt><trkpt lat="40.203869621489865" lon="9.543339791139449"><ele>802.6666666666667</ele><time>2026-04-03T14:28:45Z</time></trkpt><trkpt lat="40.20405637367734" lon="9.543398630954403"><ele>790.3333333333333</ele><time>2026-04-03T14:28:46Z</time></trkpt><trkpt lat="40.20421160431425" lon="9.543531837482226"><ele>778.0</ele><time>2026-04-03T14:28:47Z</time></trkpt><trkpt lat="40.204350021633346" lon="9.543670936497163"><ele>790.6666666666666</ele><time>2026-04-03T14:28:48Z</time></trkpt><trkpt lat="40.20449291450324" lon="9.543767962006102"><ele>803.3333333333333</ele><time>2026-04-03T14:28:49Z</time></trkpt><trkpt lat="40.204638586311376" lon="9.543861349750731"><ele>816.0</ele><time>2026-04-03T14:28:50Z</time></trkpt><trkpt lat="40.20480753070315" lon="9.54388314754113"><ele>808.0</ele><time>2026-04-03T14:28:51Z</time></trkpt><trkpt lat="40.20494092231865" lon="9.543953355652228"><ele>800.0</ele><time>2026-04-03T14:28:52Z</time></trkpt><trkpt lat="40.20504961971578" lon="9.544082823184175"><ele>792.0</ele><time>2026-04-03T14:28:53Z</time></trkpt><trkpt lat="40.20516638847494" lon="9.544227628633942"><ele>792.0</ele><time>2026-04-03T14:28:54Z</time></trkpt><trkpt lat="40.2052964518925" lon="9.544343785991922"><ele>792.0</ele><time>2026-04-03T14:28:55Z</time></trkpt><trkpt lat="40.20544023062368" lon="9.544437705654897"><ele>792.0</ele><time>2026-04-03T14:28:56Z</time></trkpt><trkpt lat="40.20559242089878" lon="9.544457791496372"><ele>784.3333333333333</ele><time>2026-04-03T14:28:57Z</time></trkpt><trkpt lat="40.205776301333096" lon="9.54442589323979"><ele>776.6666666666666</ele><time>2026-04-03T14:28:58Z</time></trkpt><trkpt lat="40.20596289867443" lon="9.544378245720544"><ele>769.0</ele><time>2026-04-03T14:28:59Z</time></trkpt><trkpt lat="40.206131762851406" lon="9.544380430218784"><ele>769.0</ele><time>2026-04-03T14:29:00Z</time></trkpt><trkpt lat="40.206303135671526" lon="9.544388900028993"><ele>769.0</ele><time>2026-04-03T14:29:01Z</time></trkpt><trkpt lat="40.20647780656932" lon="9.544431810993505"><ele>769.0</ele><time>2026-04-03T14:29:02Z</time></trkpt><trkpt lat="40.2066593744533" lon="9.54449069175297"><ele>779.3333333333333</ele><time>2026-04-03T14:29:03Z</time></trkpt><trkpt lat="40.20684240802101" lon="9.544547356353611"><ele>789.6666666666667</ele><time>2026-04-03T14:29:04Z</time></trkpt><trkpt lat="40.20702558712142" lon="9.54461171620041"><ele>800.0</ele><time>2026-04-03T14:29:05Z</time></trkpt><trkpt lat="40.207214767718504" lon="9.544661160026541"><ele>794.3333333333334</ele><time>2026-04-03T14:29:06Z</time></trkpt><trkpt lat="40.20741446372413" lon="9.544690596292224"><ele>788.6666666666667</ele><time>2026-04-03T14:29:07Z</time></trkpt><trkpt lat="40.20759494919143" lon="9.544747997104103"><ele>783.0</ele><time>2026-04-03T14:29:08Z</time></trkpt><trkpt lat="40.207760295009344" lon="9.544806064087403"><ele>783.0</ele><time>2026-04-03T14:29:09Z</time></trkpt><trkpt lat="40.20791132980823" lon="9.544838901603155"><ele>783.0</ele><time>2026-04-03T14:29:10Z</time></trkpt><trkpt lat="40.20803868122121" lon="9.54489756932396"><ele>783.0</ele><time>2026-04-03T14:29:11Z</time></trkpt><trkpt lat="40.20816141949759" lon="9.544943010281449"><ele>783.0</ele><time>2026-04-03T14:29:12Z</time></trkpt><trkpt lat="40.20828226180852" lon="9.545002166443064"><ele>783.0</ele><time>2026-04-03T14:29:13Z</time></trkpt><trkpt lat="40.20838463184631" lon="9.545098384645975"><ele>783.0</ele><time>2026-04-03T14:29:14Z</time></trkpt><trkpt lat="40.20844506724007" lon="9.545267347679774"><ele>783.0</ele><time>2026-04-03T14:29:15Z</time></trkpt><trkpt lat="40.20853580691266" lon="9.545421903259728"><ele>783.0</ele><time>2026-04-03T14:29:16Z</time></trkpt><trkpt lat="40.20861068586058" lon="9.545600532051678"><ele>783.0</ele><time>2026-04-03T14:29:17Z</time></trkpt><trkpt lat="40.208698861519" lon="9.545779808473478"><ele>783.0</ele><time>2026-04-03T14:29:18Z</time></trkpt><trkpt lat="40.20879295797701" lon="9.54595655054201"><ele>783.0</ele><time>2026-04-03T14:29:19Z</time></trkpt><trkpt lat="40.2088874160932" lon="9.546133376301874"><ele>790.0</ele><time>2026-04-03T14:29:20Z</time></trkpt><trkpt lat="40.20897206717444" lon="9.546304058557853"><ele>797.0</ele><time>2026-04-03T14:29:21Z</time></trkpt><trkpt lat="40.2090636732641" lon="9.546468841566261"><ele>804.0</ele><time>2026-04-03T14:29:22Z</time></trkpt><trkpt lat="40.20914192280827" lon="9.546636505506909"><ele>797.75</ele><time>2026-04-03T14:29:23Z</time></trkpt><trkpt lat="40.20922758178955" lon="9.546798924978626"><ele>791.5</ele><time>2026-04-03T14:29:24Z</time></trkpt><trkpt lat="40.209323169236335" lon="9.546945916385205"><ele>785.25</ele><time>2026-04-03T14:29:25Z</time></trkpt><trkpt lat="40.20942419273066" lon="9.547078822300287"><ele>779.0</ele><time>2026-04-03T14:29:26Z</time></trkpt><trkpt lat="40.209525722702764" lon="9.54720839835196"><ele>779.0</ele><time>2026-04-03T14:29:27Z</time></trkpt><trkpt lat="40.20961616096552" lon="9.547348435610182"><ele>779.0</ele><time>2026-04-03T14:29:28Z</time></trkpt><trkpt lat="40.20973201752561" lon="9.547467594243281"><ele>779.0</ele><time>2026-04-03T14:29:29Z</time></trkpt><trkpt lat="40.209848580080916" lon="9.54758588829416"><ele>779.0</ele><time>2026-04-03T14:29:30Z</time></trkpt><trkpt lat="40.20995700646855" lon="9.547717413310458"><ele>774.6666666666667</ele><time>2026-04-03T14:29:31Z</time></trkpt><trkpt lat="40.21004795226332" lon="9.547877746353791"><ele>770.3333333333334</ele><time>2026-04-03T14:29:32Z</time></trkpt><trkpt lat="40.21013067517339" lon="9.548054195701866"><ele>766.0</ele><time>2026-04-03T14:29:33Z</time></trkpt><trkpt lat="40.21023487671402" lon="9.548206725111985"><ele>766.0</ele><time>2026-04-03T14:29:34Z</time></trkpt><trkpt lat="40.210376303411046" lon="9.548316341146068"><ele>766.0</ele><time>2026-04-03T14:29:35Z</time></trkpt><trkpt lat="40.210530561418445" lon="9.548420204479543"><ele>766.0</ele><time>2026-04-03T14:29:36Z</time></trkpt><trkpt lat="40.21069041613123" lon="9.548512918061258"><ele>766.0</ele><time>2026-04-03T14:29:37Z</time></trkpt><trkpt lat="40.210844148238095" lon="9.54861585834757"><ele>766.0</ele><time>2026-04-03T14:29:38Z</time></trkpt><trkpt lat="40.21098809982362" lon="9.548728603073222"><ele>766.0</ele><time>2026-04-03T14:29:39Z</time></trkpt><trkpt lat="40.21112245336898" lon="9.548853490219066"><ele>766.0</ele><time>2026-04-03T14:29:40Z</time></trkpt><trkpt lat="40.21125031395456" lon="9.548998410054345"><ele>766.0</ele><time>2026-04-03T14:29:41Z</time></trkpt><trkpt lat="40.211364874107815" lon="9.549157997383857"><ele>766.0</ele><time>2026-04-03T14:29:42Z</time></trkpt><trkpt lat="40.21147450802374" lon="9.549323740390431"><ele>762.0</ele><time>2026-04-03T14:29:43Z</time></trkpt><trkpt lat="40.21158288821016" lon="9.549491342965801"><ele>758.0</ele><time>2026-04-03T14:29:44Z</time></trkpt><trkpt lat="40.21169213948511" lon="9.54966518005163"><ele>754.0</ele><time>2026-04-03T14:29:45Z</time></trkpt><trkpt lat="40.21180204069591" lon="9.549834756401074"><ele>754.0</ele><time>2026-04-03T14:29:46Z</time></trkpt><trkpt lat="40.21193042871547" lon="9.549986031212192"><ele>754.0</ele><time>2026-04-03T14:29:47Z</time></trkpt><trkpt lat="40.21207196162707" lon="9.550122750195747"><ele>754.0</ele><time>2026-04-03T14:29:48Z</time></trkpt><trkpt lat="40.21221377803178" lon="9.550257289272423"><ele>747.6666666666667</ele><time>2026-04-03T14:29:49Z</time></trkpt><trkpt lat="40.21232761114299" lon="9.550422302357806"><ele>741.3333333333334</ele><time>2026-04-03T14:29:50Z</time></trkpt><trkpt lat="40.21245976621004" lon="9.550557960396532"><ele>735.0</ele><time>2026-04-03T14:29:51Z</time></trkpt><trkpt lat="40.21257653852" lon="9.550711668494808"><ele>735.0</ele><time>2026-04-03T14:29:52Z</time></trkpt><trkpt lat="40.212700982703055" lon="9.550845302688723"><ele>735.0</ele><time>2026-04-03T14:29:53Z</time></trkpt><trkpt lat="40.21283383695341" lon="9.550971577545468"><ele>735.0</ele><time>2026-04-03T14:29:54Z</time></trkpt><trkpt lat="40.21297339315087" lon="9.551084942691013"><ele>735.0</ele><time>2026-04-03T14:29:55Z</time></trkpt><trkpt lat="40.21311226322944" lon="9.551196320379955"><ele>735.0</ele><time>2026-04-03T14:29:56Z</time></trkpt><trkpt lat="40.213269677247595" lon="9.551285497679617"><ele>735.0</ele><time>2026-04-03T14:29:57Z</time></trkpt><trkpt lat="40.21343825397773" lon="9.551371313971073"><ele>738.3333333333334</ele><time>2026-04-03T14:29:58Z</time></trkpt><trkpt lat="40.21359982190857" lon="9.55146407801209"><ele>741.6666666666667</ele><time>2026-04-03T14:29:59Z</time></trkpt><trkpt lat="40.21375643344578" lon="9.551560339351132"><ele>745.0</ele><time>2026-04-03T14:30:00Z</time></trkpt><trkpt lat="40.21390913170018" lon="9.551655987974625"><ele>735.0</ele><time>2026-04-03T14:30:01Z</time></trkpt><trkpt lat="40.21406051851487" lon="9.551748773175692"><ele>725.0</ele><time>2026-04-03T14:30:02Z</time></trkpt><trkpt lat="40.21421726128765" lon="9.551826248258692"><ele>715.0</ele><time>2026-04-03T14:30:03Z</time></trkpt><trkpt lat="40.21438210914872" lon="9.551851664573666"><ele>715.0</ele><time>2026-04-03T14:30:04Z</time></trkpt><trkpt lat="40.21455291107838" lon="9.551837936369367"><ele>715.0</ele><time>2026-04-03T14:30:05Z</time></trkpt><trkpt lat="40.21471320335309" lon="9.551814304735561"><ele>715.0</ele><time>2026-04-03T14:30:06Z</time></trkpt><trkpt lat="40.2148717795167" lon="9.551800115788367"><ele>710.6666666666667</ele><time>2026-04-03T14:30:07Z</time></trkpt><trkpt lat="40.215015244634536" lon="9.551791169636239"><ele>706.3333333333334</ele><time>2026-04-03T14:30:08Z</time></trkpt><trkpt lat="40.21516117613592" lon="9.551834149954153"><ele>702.0</ele><time>2026-04-03T14:30:09Z</time></trkpt><trkpt lat="40.2152943558431" lon="9.55195757664466"><ele>710.6666666666666</ele><time>2026-04-03T14:30:10Z</time></trkpt><trkpt lat="40.215435650540506" lon="9.552040724579632"><ele>719.3333333333333</ele><time>2026-04-03T14:30:11Z</time></trkpt><trkpt lat="40.21558346695942" lon="9.552127317933719"><ele>728.0</ele><time>2026-04-03T14:30:12Z</time></trkpt><trkpt lat="40.215748153652484" lon="9.552180126634743"><ele>728.0</ele><time>2026-04-03T14:30:13Z</time></trkpt><trkpt lat="40.21592238020381" lon="9.552203019278409"><ele>728.0</ele><time>2026-04-03T14:30:14Z</time></trkpt><trkpt lat="40.21609141312385" lon="9.552234871590816"><ele>728.0</ele><time>2026-04-03T14:30:15Z</time></trkpt><trkpt lat="40.216258777942805" lon="9.552251781857773"><ele>728.0</ele><time>2026-04-03T14:30:16Z</time></trkpt><trkpt lat="40.21642440950996" lon="9.552229120460781"><ele>728.0</ele><time>2026-04-03T14:30:17Z</time></trkpt><trkpt lat="40.21658377346101" lon="9.552195668614251"><ele>728.0</ele><time>2026-04-03T14:30:18Z</time></trkpt><trkpt lat="40.21673378732344" lon="9.55222377031408"><ele>722.6666666666666</ele><time>2026-04-03T14:30:19Z</time></trkpt><trkpt lat="40.216888775373356" lon="9.55225884567569"><ele>717.3333333333334</ele><time>2026-04-03T14:30:20Z</time></trkpt><trkpt lat="40.217029236974604" lon="9.552300359850467"><ele>712.0</ele><time>2026-04-03T14:30:21Z</time></trkpt><trkpt lat="40.21717724445729" lon="9.552357495537153"><ele>712.0</ele><time>2026-04-03T14:30:22Z</time></trkpt><trkpt lat="40.21729877957189" lon="9.552482214792596"><ele>712.0</ele><time>2026-04-03T14:30:23Z</time></trkpt><trkpt lat="40.217431013489175" lon="9.552602407200794"><ele>712.0</ele><time>2026-04-03T14:30:24Z</time></trkpt><trkpt lat="40.21755431508018" lon="9.552746207148878"><ele>706.6666666666667</ele><time>2026-04-03T14:30:25Z</time></trkpt><trkpt lat="40.21769818457551" lon="9.552860724503104"><ele>701.3333333333334</ele><time>2026-04-03T14:30:26Z</time></trkpt><trkpt lat="40.21784966693304" lon="9.552932478512911"><ele>696.0</ele><time>2026-04-03T14:30:27Z</time></trkpt><trkpt lat="40.2180075381002" lon="9.552964172948414"><ele>702.0</ele><time>2026-04-03T14:30:28Z</time></trkpt><trkpt lat="40.21817933384308" lon="9.552964951304892"><ele>708.0</ele><time>2026-04-03T14:30:29Z</time></trkpt><trkpt lat="40.218343140535865" lon="9.552973795462732"><ele>714.0</ele><time>2026-04-03T14:30:30Z</time></trkpt><trkpt lat="40.21848951404489" lon="9.553045792031604"><ele>714.0</ele><time>2026-04-03T14:30:31Z</time></trkpt><trkpt lat="40.218626213719745" lon="9.553163844856055"><ele>714.0</ele><time>2026-04-03T14:30:32Z</time></trkpt><trkpt lat="40.21876838762566" lon="9.5532594272722"><ele>714.0</ele><time>2026-04-03T14:30:33Z</time></trkpt><trkpt lat="40.218904775404965" lon="9.553336343339"><ele>706.0</ele><time>2026-04-03T14:30:34Z</time></trkpt><trkpt lat="40.21906187497954" lon="9.553338917080058"><ele>698.0</ele><time>2026-04-03T14:30:35Z</time></trkpt><trkpt lat="40.219207516961355" lon="9.55334882466864"><ele>690.0</ele><time>2026-04-03T14:30:36Z</time></trkpt><trkpt lat="40.219312212774874" lon="9.553433432417687"><ele>682.0</ele><time>2026-04-03T14:30:37Z</time></trkpt><trkpt lat="40.219376261515706" lon="9.553583713722565"><ele>694.75</ele><time>2026-04-03T14:30:38Z</time></trkpt><trkpt lat="40.21945593322085" lon="9.553741620050188"><ele>707.5</ele><time>2026-04-03T14:30:39Z</time></trkpt><trkpt lat="40.21956068064505" lon="9.55382289237144"><ele>720.25</ele><time>2026-04-03T14:30:40Z</time></trkpt><trkpt lat="40.21967955391687" lon="9.553862831004263"><ele>733.0</ele><time>2026-04-03T14:30:41Z</time></trkpt><trkpt lat="40.21980439408036" lon="9.55387994896461"><ele>724.75</ele><time>2026-04-03T14:30:42Z</time></trkpt><trkpt lat="40.21993427231428" lon="9.553885448620116"><ele>716.5</ele><time>2026-04-03T14:30:43Z</time></trkpt><trkpt lat="40.22006678445329" lon="9.553904340622799"><ele>708.25</ele><time>2026-04-03T14:30:44Z</time></trkpt><trkpt lat="40.22019423534437" lon="9.553926426129934"><ele>700.0</ele><time>2026-04-03T14:30:45Z</time></trkpt><trkpt lat="40.22032364322076" lon="9.553944566228857"><ele>700.0</ele><time>2026-04-03T14:30:46Z</time></trkpt><trkpt lat="40.22044989911721" lon="9.553959127031014"><ele>700.0</ele><time>2026-04-03T14:30:47Z</time></trkpt><trkpt lat="40.22056792758221" lon="9.55395886257138"><ele>700.0</ele><time>2026-04-03T14:30:48Z</time></trkpt><trkpt lat="40.220689748187446" lon="9.553939897333068"><ele>700.0</ele><time>2026-04-03T14:30:49Z</time></trkpt><trkpt lat="40.220803582502064" lon="9.553882188822351"><ele>698.25</ele><time>2026-04-03T14:30:50Z</time></trkpt><trkpt lat="40.220913156266185" lon="9.553823902222682"><ele>696.5</ele><time>2026-04-03T14:30:51Z</time></trkpt><trkpt lat="40.22103019768925" lon="9.553805756766343"><ele>694.75</ele><time>2026-04-03T14:30:52Z</time></trkpt><trkpt lat="40.22115977038889" lon="9.553832225587454"><ele>693.0</ele><time>2026-04-03T14:30:53Z</time></trkpt><trkpt lat="40.22127310087118" lon="9.553862146675344"><ele>693.0</ele><time>2026-04-03T14:30:54Z</time></trkpt><trkpt lat="40.22140005323356" lon="9.553884305812698"><ele>693.0</ele><time>2026-04-03T14:30:55Z</time></trkpt><trkpt lat="40.22153668282349" lon="9.553893946814396"><ele>693.0</ele><time>2026-04-03T14:30:56Z</time></trkpt><trkpt lat="40.22167282722189" lon="9.55390092153101"><ele>693.0</ele><time>2026-04-03T14:30:57Z</time></trkpt><trkpt lat="40.22179772359091" lon="9.553908463628666"><ele>691.0</ele><time>2026-04-03T14:30:58Z</time></trkpt><trkpt lat="40.22192187860169" lon="9.553911962275969"><ele>689.0</ele><time>2026-04-03T14:30:59Z</time></trkpt><trkpt lat="40.22204620084647" lon="9.553913359813397"><ele>687.0</ele><time>2026-04-03T14:31:00Z</time></trkpt><trkpt lat="40.22216536852858" lon="9.553902400585136"><ele>685.0</ele><time>2026-04-03T14:31:01Z</time></trkpt><trkpt lat="40.22228960918036" lon="9.553892877131789"><ele>684.5</ele><time>2026-04-03T14:31:02Z</time></trkpt><trkpt lat="40.22241034897941" lon="9.553886067813515"><ele>684.0</ele><time>2026-04-03T14:31:03Z</time></trkpt><trkpt lat="40.22252902439139" lon="9.553888227923085"><ele>683.5</ele><time>2026-04-03T14:31:04Z</time></trkpt><trkpt lat="40.22264624517258" lon="9.553912736328213"><ele>683.0</ele><time>2026-04-03T14:31:05Z</time></trkpt><trkpt lat="40.22275360850039" lon="9.55394800480823"><ele>683.0</ele><time>2026-04-03T14:31:06Z</time></trkpt><trkpt lat="40.22286534149364" lon="9.553982070189354"><ele>683.0</ele><time>2026-04-03T14:31:07Z</time></trkpt><trkpt lat="40.22298021409994" lon="9.553997629499351"><ele>683.0</ele><time>2026-04-03T14:31:08Z</time></trkpt><trkpt lat="40.22309609430016" lon="9.553984901079062"><ele>683.0</ele><time>2026-04-03T14:31:09Z</time></trkpt><trkpt lat="40.22321397460836" lon="9.553975492872928"><ele>681.25</ele><time>2026-04-03T14:31:10Z</time></trkpt><trkpt lat="40.223336137834124" lon="9.553964036582226"><ele>679.5</ele><time>2026-04-03T14:31:11Z</time></trkpt><trkpt lat="40.223464264181736" lon="9.553948394768327"><ele>677.75</ele><time>2026-04-03T14:31:12Z</time></trkpt><trkpt lat="40.2235924131925" lon="9.55393715344345"><ele>676.0</ele><time>2026-04-03T14:31:13Z</time></trkpt><trkpt lat="40.223716996814495" lon="9.553939522169172"><ele>676.0</ele><time>2026-04-03T14:31:14Z</time></trkpt><trkpt lat="40.22383776079656" lon="9.553957823898148"><ele>676.0</ele><time>2026-04-03T14:31:15Z</time></trkpt><trkpt lat="40.223966663582154" lon="9.553993707838222"><ele>676.0</ele><time>2026-04-03T14:31:16Z</time></trkpt><trkpt lat="40.224094150346694" lon="9.55404363476335"><ele>676.0</ele><time>2026-04-03T14:31:17Z</time></trkpt><trkpt lat="40.22422100255781" lon="9.5541052572695"><ele>672.5</ele><time>2026-04-03T14:31:18Z</time></trkpt><trkpt lat="40.22434914549051" lon="9.55417197119534"><ele>669.0</ele><time>2026-04-03T14:31:19Z</time></trkpt><trkpt lat="40.22448341473386" lon="9.55423340914731"><ele>665.5</ele><time>2026-04-03T14:31:20Z</time></trkpt><trkpt lat="40.22461843736669" lon="9.554269679177276"><ele>662.0</ele><time>2026-04-03T14:31:21Z</time></trkpt><trkpt lat="40.224743081421366" lon="9.554309301862109"><ele>663.75</ele><time>2026-04-03T14:31:22Z</time></trkpt><trkpt lat="40.22486109915104" lon="9.554363298109013"><ele>665.5</ele><time>2026-04-03T14:31:23Z</time></trkpt><trkpt lat="40.22496738104467" lon="9.554436055121878"><ele>667.25</ele><time>2026-04-03T14:31:24Z</time></trkpt><trkpt lat="40.225067753490336" lon="9.554500945107423"><ele>669.0</ele><time>2026-04-03T14:31:25Z</time></trkpt><trkpt lat="40.2251698253417" lon="9.554563400312244"><ele>669.0</ele><time>2026-04-03T14:31:26Z</time></trkpt><trkpt lat="40.22526648571446" lon="9.554631818845236"><ele>669.0</ele><time>2026-04-03T14:31:27Z</time></trkpt><trkpt lat="40.22535351853277" lon="9.554719857395122"><ele>669.0</ele><time>2026-04-03T14:31:28Z</time></trkpt><trkpt lat="40.22543542906716" lon="9.55481515569392"><ele>669.0</ele><time>2026-04-03T14:31:29Z</time></trkpt><trkpt lat="40.22552637180891" lon="9.554900047229898"><ele>669.0</ele><time>2026-04-03T14:31:30Z</time></trkpt><trkpt lat="40.22564454496804" lon="9.554939263768233"><ele>665.0</ele><time>2026-04-03T14:31:31Z</time></trkpt><trkpt lat="40.225783587470985" lon="9.554952997362312"><ele>661.0</ele><time>2026-04-03T14:31:32Z</time></trkpt><trkpt lat="40.22591928047249" lon="9.554974357147318"><ele>657.0</ele><time>2026-04-03T14:31:33Z</time></trkpt><trkpt lat="40.22605011830257" lon="9.555018413024865"><ele>653.0</ele><time>2026-04-03T14:31:34Z</time></trkpt><trkpt lat="40.2261754387013" lon="9.555069874118027"><ele>653.0</ele><time>2026-04-03T14:31:35Z</time></trkpt><trkpt lat="40.22629847670161" lon="9.555110953286274"><ele>653.0</ele><time>2026-04-03T14:31:36Z</time></trkpt><trkpt lat="40.22641248831851" lon="9.555151098611105"><ele>653.0</ele><time>2026-04-03T14:31:37Z</time></trkpt><trkpt lat="40.22652238946661" lon="9.555198702106015"><ele>653.0</ele><time>2026-04-03T14:31:38Z</time></trkpt><trkpt lat="40.22662431188968" lon="9.55524557197024"><ele>649.6</ele><time>2026-04-03T14:31:39Z</time></trkpt><trkpt lat="40.226716722500655" lon="9.555294359070901"><ele>646.1999999999999</ele><time>2026-04-03T14:31:40Z</time></trkpt><trkpt lat="40.226808211250884" lon="9.555335719715043"><ele>642.8</ele><time>2026-04-03T14:31:41Z</time></trkpt><trkpt lat="40.226896850713885" lon="9.55537449427351"><ele>639.4</ele><time>2026-04-03T14:31:42Z</time></trkpt><trkpt lat="40.22698647054516" lon="9.555413548699967"><ele>636.0</ele><time>2026-04-03T14:31:43Z</time></trkpt><trkpt lat="40.22708054985479" lon="9.555452911791672"><ele>641.0</ele><time>2026-04-03T14:31:44Z</time></trkpt><trkpt lat="40.227179403806225" lon="9.555490775415423"><ele>646.0</ele><time>2026-04-03T14:31:45Z</time></trkpt><trkpt lat="40.227280866454464" lon="9.55553046522769"><ele>651.0</ele><time>2026-04-03T14:31:46Z</time></trkpt><trkpt lat="40.22738461122505" lon="9.55557516821981"><ele>656.0</ele><time>2026-04-03T14:31:47Z</time></trkpt><trkpt lat="40.227490792297495" lon="9.555617204244397"><ele>661.0</ele><time>2026-04-03T14:31:48Z</time></trkpt><trkpt lat="40.227601050504276" lon="9.55565840375767"><ele>661.0</ele><time>2026-04-03T14:31:49Z</time></trkpt><trkpt lat="40.22771329748988" lon="9.555715751586108"><ele>661.0</ele><time>2026-04-03T14:31:50Z</time></trkpt><trkpt lat="40.227823485629955" lon="9.555786436788793"><ele>661.0</ele><time>2026-04-03T14:31:51Z</time></trkpt><trkpt lat="40.227922286232335" lon="9.555890100734352"><ele>661.0</ele><time>2026-04-03T14:31:52Z</time></trkpt><trkpt lat="40.2280222818977" lon="9.55599959538329"><ele>661.0</ele><time>2026-04-03T14:31:53Z</time></trkpt><trkpt lat="40.22813003661944" lon="9.556097632467136"><ele>661.0</ele><time>2026-04-03T14:31:54Z</time></trkpt><trkpt lat="40.22824700041657" lon="9.556170293589624"><ele>661.0</ele><time>2026-04-03T14:31:55Z</time></trkpt><trkpt lat="40.22836729192556" lon="9.556219615915259"><ele>661.0</ele><time>2026-04-03T14:31:56Z</time></trkpt><trkpt lat="40.22848414449795" lon="9.556279472604597"><ele>662.25</ele><time>2026-04-03T14:31:57Z</time></trkpt><trkpt lat="40.22860097702542" lon="9.556328241975889"><ele>663.5</ele><time>2026-04-03T14:31:58Z</time></trkpt><trkpt lat="40.22870870958302" lon="9.556378967043578"><ele>664.75</ele><time>2026-04-03T14:31:59Z</time></trkpt><trkpt lat="40.22881639881471" lon="9.556425692972187"><ele>666.0</ele><time>2026-04-03T14:32:00Z</time></trkpt><trkpt lat="40.22892437605004" lon="9.556432365573858"><ele>663.0</ele><time>2026-04-03T14:32:01Z</time></trkpt><trkpt lat="40.2290331215871" lon="9.556403343039669"><ele>660.0</ele><time>2026-04-03T14:32:02Z</time></trkpt><trkpt lat="40.22913173269976" lon="9.55632532121974"><ele>657.0</ele><time>2026-04-03T14:32:03Z</time></trkpt><trkpt lat="40.22922042483131" lon="9.556229835585409"><ele>654.0</ele><time>2026-04-03T14:32:04Z</time></trkpt><trkpt lat="40.229329274701335" lon="9.556175380938571"><ele>654.0</ele><time>2026-04-03T14:32:05Z</time></trkpt><trkpt lat="40.2294529913209" lon="9.55619367357998"><ele>654.0</ele><time>2026-04-03T14:32:06Z</time></trkpt><trkpt lat="40.229563550915806" lon="9.556290728078622"><ele>654.0</ele><time>2026-04-03T14:32:07Z</time></trkpt><trkpt lat="40.229657728077086" lon="9.556428068040931"><ele>654.0</ele><time>2026-04-03T14:32:08Z</time></trkpt><trkpt lat="40.229756544842274" lon="9.556556257838826"><ele>649.75</ele><time>2026-04-03T14:32:09Z</time></trkpt><trkpt lat="40.22988286162732" lon="9.556648798962872"><ele>645.5</ele><time>2026-04-03T14:32:10Z</time></trkpt><trkpt lat="40.23002047186961" lon="9.556719270350568"><ele>641.25</ele><time>2026-04-03T14:32:11Z</time></trkpt><trkpt lat="40.23015951288379" lon="9.556784286563794"><ele>637.0</ele><time>2026-04-03T14:32:12Z</time></trkpt><trkpt lat="40.23029938038131" lon="9.556842286721498"><ele>637.0</ele><time>2026-04-03T14:32:13Z</time></trkpt><trkpt lat="40.23044401548128" lon="9.55688965614092"><ele>637.0</ele><time>2026-04-03T14:32:14Z</time></trkpt><trkpt lat="40.23059453669413" lon="9.55690398891926"><ele>637.0</ele><time>2026-04-03T14:32:15Z</time></trkpt><trkpt lat="40.23074140940308" lon="9.556941772740508"><ele>633.0</ele><time>2026-04-03T14:32:16Z</time></trkpt><trkpt lat="40.23088478300021" lon="9.556975028028546"><ele>629.0</ele><time>2026-04-03T14:32:17Z</time></trkpt><trkpt lat="40.2310038989663" lon="9.557083758655875"><ele>625.0</ele><time>2026-04-03T14:32:18Z</time></trkpt><trkpt lat="40.231106937961414" lon="9.557230249872426"><ele>621.0</ele><time>2026-04-03T14:32:19Z</time></trkpt><trkpt lat="40.23119563345627" lon="9.557387707886248"><ele>623.25</ele><time>2026-04-03T14:32:20Z</time></trkpt><trkpt lat="40.23128759545173" lon="9.557521855465396"><ele>625.5</ele><time>2026-04-03T14:32:21Z</time></trkpt><trkpt lat="40.231405629613725" lon="9.557599154286153"><ele>627.75</ele><time>2026-04-03T14:32:22Z</time></trkpt><trkpt lat="40.23154068652455" lon="9.55760058488562"><ele>630.0</ele><time>2026-04-03T14:32:23Z</time></trkpt><trkpt lat="40.23166976384979" lon="9.557575993037515"><ele>630.0</ele><time>2026-04-03T14:32:24Z</time></trkpt><trkpt lat="40.2317975515905" lon="9.557550359007616"><ele>630.0</ele><time>2026-04-03T14:32:25Z</time></trkpt><trkpt lat="40.23192244815565" lon="9.557585504265242"><ele>630.0</ele><time>2026-04-03T14:32:26Z</time></trkpt><trkpt lat="40.23205679603619" lon="9.557622969438011"><ele>630.0</ele><time>2026-04-03T14:32:27Z</time></trkpt><trkpt lat="40.23218061138126" lon="9.557681982188058"><ele>630.0</ele><time>2026-04-03T14:32:28Z</time></trkpt><trkpt lat="40.23230165710773" lon="9.5577338319016"><ele>630.0</ele><time>2026-04-03T14:32:29Z</time></trkpt><trkpt lat="40.23242010731995" lon="9.557783278642876"><ele>630.0</ele><time>2026-04-03T14:32:30Z</time></trkpt><trkpt lat="40.23253295844012" lon="9.557833018194454"><ele>630.0</ele><time>2026-04-03T14:32:31Z</time></trkpt><trkpt lat="40.232638431442396" lon="9.557896809035377"><ele>634.2</ele><time>2026-04-03T14:32:32Z</time></trkpt><trkpt lat="40.23273424494554" lon="9.557968620928854"><ele>638.4</ele><time>2026-04-03T14:32:33Z</time></trkpt><trkpt lat="40.232825387527946" lon="9.55804480686236"><ele>642.5999999999999</ele><time>2026-04-03T14:32:34Z</time></trkpt><trkpt lat="40.23290957728537" lon="9.558128805054498"><ele>646.8</ele><time>2026-04-03T14:32:35Z</time></trkpt><trkpt lat="40.23297797074406" lon="9.558228019345467"><ele>651.0</ele><time>2026-04-03T14:32:36Z</time></trkpt><trkpt lat="40.23301563422939" lon="9.558346777531664"><ele>651.0</ele><time>2026-04-03T14:32:37Z</time></trkpt><trkpt lat="40.23303953203124" lon="9.558472104980648"><ele>651.0</ele><time>2026-04-03T14:32:38Z</time></trkpt><trkpt lat="40.23306882909382" lon="9.558596540836204"><ele>651.0</ele><time>2026-04-03T14:32:39Z</time></trkpt><trkpt lat="40.23312909762231" lon="9.558710429818237"><ele>651.0</ele><time>2026-04-03T14:32:40Z</time></trkpt><trkpt lat="40.2332170641512" lon="9.558799591790859"><ele>651.0</ele><time>2026-04-03T14:32:41Z</time></trkpt><trkpt lat="40.23331075985918" lon="9.558888050311529"><ele>649.25</ele><time>2026-04-03T14:32:42Z</time></trkpt><trkpt lat="40.233417070730226" lon="9.558973825568922"><ele>647.5</ele><time>2026-04-03T14:32:43Z</time></trkpt><trkpt lat="40.23352980930097" lon="9.559051114687751"><ele>645.75</ele><time>2026-04-03T14:32:44Z</time></trkpt><trkpt lat="40.23360290944722" lon="9.559185057948593"><ele>644.0</ele><time>2026-04-03T14:32:45Z</time></trkpt><trkpt lat="40.23369941586265" lon="9.5592961280936"><ele>644.0</ele><time>2026-04-03T14:32:46Z</time></trkpt><trkpt lat="40.23379618497396" lon="9.559409780941428"><ele>644.0</ele><time>2026-04-03T14:32:47Z</time></trkpt><trkpt lat="40.23391756055861" lon="9.559491854686408"><ele>644.0</ele><time>2026-04-03T14:32:48Z</time></trkpt><trkpt lat="40.234036899346435" lon="9.559568008096209"><ele>644.0</ele><time>2026-04-03T14:32:49Z</time></trkpt><trkpt lat="40.23416057408823" lon="9.559660600345884"><ele>642.5</ele><time>2026-04-03T14:32:50Z</time></trkpt><trkpt lat="40.2342830500128" lon="9.559761258579185"><ele>641.0</ele><time>2026-04-03T14:32:51Z</time></trkpt><trkpt lat="40.23440289149038" lon="9.559870472840375"><ele>639.5</ele><time>2026-04-03T14:32:52Z</time></trkpt><trkpt lat="40.23452260427362" lon="9.559977576821066"><ele>638.0</ele><time>2026-04-03T14:32:53Z</time></trkpt><trkpt lat="40.23463761882953" lon="9.560084600926553"><ele>638.0</ele><time>2026-04-03T14:32:54Z</time></trkpt><trkpt lat="40.2347489395971" lon="9.560188599709676"><ele>638.0</ele><time>2026-04-03T14:32:55Z</time></trkpt><trkpt lat="40.23486122574985" lon="9.56028810110629"><ele>638.0</ele><time>2026-04-03T14:32:56Z</time></trkpt><trkpt lat="40.23496631221562" lon="9.560393364563724"><ele>638.0</ele><time>2026-04-03T14:32:57Z</time></trkpt><trkpt lat="40.23508753528602" lon="9.560454602681046"><ele>641.0</ele><time>2026-04-03T14:32:58Z</time></trkpt><trkpt lat="40.235211442056986" lon="9.560502491345428"><ele>644.0</ele><time>2026-04-03T14:32:59Z</time></trkpt><trkpt lat="40.23533349782448" lon="9.560541250562379"><ele>647.0</ele><time>2026-04-03T14:33:00Z</time></trkpt><trkpt lat="40.23545552524233" lon="9.560580732380187"><ele>650.0</ele><time>2026-04-03T14:33:01Z</time></trkpt><trkpt lat="40.235582051868676" lon="9.560622733883799"><ele>641.75</ele><time>2026-04-03T14:33:02Z</time></trkpt><trkpt lat="40.235713415831434" lon="9.560662262570084"><ele>633.5</ele><time>2026-04-03T14:33:03Z</time></trkpt><trkpt lat="40.23583779011355" lon="9.560739973408952"><ele>625.25</ele><time>2026-04-03T14:33:04Z</time></trkpt><trkpt lat="40.23595896247021" lon="9.560835344052432"><ele>617.0</ele><time>2026-04-03T14:33:05Z</time></trkpt><trkpt lat="40.23607581037938" lon="9.560948384182746"><ele>617.0</ele><time>2026-04-03T14:33:06Z</time></trkpt><trkpt lat="40.236184045336714" lon="9.561087601677457"><ele>617.0</ele><time>2026-04-03T14:33:07Z</time></trkpt><trkpt lat="40.23628318388824" lon="9.561243196104815"><ele>617.0</ele><time>2026-04-03T14:33:08Z</time></trkpt><trkpt lat="40.236383917021364" lon="9.56140262166467"><ele>615.3333333333333</ele><time>2026-04-03T14:33:09Z</time></trkpt><trkpt lat="40.23649250785658" lon="9.561547013714623"><ele>613.6666666666666</ele><time>2026-04-03T14:33:10Z</time></trkpt><trkpt lat="40.236612042432306" lon="9.561669013700481"><ele>612.0</ele><time>2026-04-03T14:33:11Z</time></trkpt><trkpt lat="40.23673611237196" lon="9.56177548987278"><ele>612.0</ele><time>2026-04-03T14:33:12Z</time></trkpt><trkpt lat="40.23685913232562" lon="9.561881278732406"><ele>612.0</ele><time>2026-04-03T14:33:13Z</time></trkpt><trkpt lat="40.23697880654517" lon="9.561984734297084"><ele>612.0</ele><time>2026-04-03T14:33:14Z</time></trkpt><trkpt lat="40.23709307866437" lon="9.56208826128212"><ele>612.0</ele><time>2026-04-03T14:33:15Z</time></trkpt><trkpt lat="40.23721041614899" lon="9.562183649540502"><ele>609.75</ele><time>2026-04-03T14:33:16Z</time></trkpt><trkpt lat="40.23731322204483" lon="9.562281643167854"><ele>607.5</ele><time>2026-04-03T14:33:17Z</time></trkpt><trkpt lat="40.237426161101475" lon="9.562379155435831"><ele>605.25</ele><time>2026-04-03T14:33:18Z</time></trkpt><trkpt lat="40.23752734020995" lon="9.56248378758407"><ele>603.0</ele><time>2026-04-03T14:33:19Z</time></trkpt><trkpt lat="40.23762782182487" lon="9.562597117702408"><ele>603.0</ele><time>2026-04-03T14:33:20Z</time></trkpt><trkpt lat="40.23772633471859" lon="9.562726611946943"><ele>603.0</ele><time>2026-04-03T14:33:21Z</time></trkpt><trkpt lat="40.23781614672824" lon="9.562874155312016"><ele>603.0</ele><time>2026-04-03T14:33:22Z</time></trkpt><trkpt lat="40.23790536237555" lon="9.563029189610434"><ele>603.0</ele><time>2026-04-03T14:33:23Z</time></trkpt><trkpt lat="40.23799436904267" lon="9.563190619240583"><ele>607.0</ele><time>2026-04-03T14:33:24Z</time></trkpt><trkpt lat="40.238068298595906" lon="9.563362410922856"><ele>611.0</ele><time>2026-04-03T14:33:25Z</time></trkpt><trkpt lat="40.23812264657037" lon="9.563542888560663"><ele>615.0</ele><time>2026-04-03T14:33:26Z</time></trkpt><trkpt lat="40.23818359346315" lon="9.56372210374529"><ele>619.0</ele><time>2026-04-03T14:33:27Z</time></trkpt><trkpt lat="40.238254368570495" lon="9.563892127250435"><ele>619.0</ele><time>2026-04-03T14:33:28Z</time></trkpt><trkpt lat="40.238336296223515" lon="9.56405131122058"><ele>619.0</ele><time>2026-04-03T14:33:29Z</time></trkpt><trkpt lat="40.238428052740524" lon="9.564205594289636"><ele>619.0</ele><time>2026-04-03T14:33:30Z</time></trkpt><trkpt lat="40.23852660844013" lon="9.564352068965471"><ele>619.0</ele><time>2026-04-03T14:33:31Z</time></trkpt><trkpt lat="40.23864137850863" lon="9.564476072414513"><ele>616.0</ele><time>2026-04-03T14:33:32Z</time></trkpt><trkpt lat="40.23875771040939" lon="9.564579897354891"><ele>613.0</ele><time>2026-04-03T14:33:33Z</time></trkpt><trkpt lat="40.23887177104471" lon="9.56470853000117"><ele>610.0</ele><time>2026-04-03T14:33:34Z</time></trkpt><trkpt lat="40.23901347665613" lon="9.564773530981158"><ele>607.0</ele><time>2026-04-03T14:33:35Z</time></trkpt><trkpt lat="40.23915658187769" lon="9.564837538959784"><ele>607.0</ele><time>2026-04-03T14:33:36Z</time></trkpt><trkpt lat="40.23929606943143" lon="9.564910091914314"><ele>607.0</ele><time>2026-04-03T14:33:37Z</time></trkpt><trkpt lat="40.23942150907715" lon="9.565017260618758"><ele>607.0</ele><time>2026-04-03T14:33:38Z</time></trkpt><trkpt lat="40.239515013057314" lon="9.565175273861026"><ele>607.0</ele><time>2026-04-03T14:33:39Z</time></trkpt><trkpt lat="40.239633188015134" lon="9.565296650243958"><ele>607.0</ele><time>2026-04-03T14:33:40Z</time></trkpt><trkpt lat="40.23974702533274" lon="9.565418538886531"><ele>607.0</ele><time>2026-04-03T14:33:41Z</time></trkpt><trkpt lat="40.23987507391552" lon="9.565518731165598"><ele>607.0</ele><time>2026-04-03T14:33:42Z</time></trkpt><trkpt lat="40.240013474848176" lon="9.565606106072229"><ele>606.0</ele><time>2026-04-03T14:33:43Z</time></trkpt><trkpt lat="40.24015394523814" lon="9.565690736272037"><ele>605.0</ele><time>2026-04-03T14:33:44Z</time></trkpt><trkpt lat="40.24029056101178" lon="9.565794163224243"><ele>604.0</ele><time>2026-04-03T14:33:45Z</time></trkpt><trkpt lat="40.24044227724381" lon="9.565865533896229"><ele>604.0</ele><time>2026-04-03T14:33:46Z</time></trkpt><trkpt lat="40.240598020949705" lon="9.565930595089759"><ele>604.0</ele><time>2026-04-03T14:33:47Z</time></trkpt><trkpt lat="40.24075900748242" lon="9.565991300327541"><ele>604.0</ele><time>2026-04-03T14:33:48Z</time></trkpt><trkpt lat="40.24091845750273" lon="9.566050012872886"><ele>611.3333333333334</ele><time>2026-04-03T14:33:49Z</time></trkpt><trkpt lat="40.24106634647428" lon="9.566108846091323"><ele>618.6666666666666</ele><time>2026-04-03T14:33:50Z</time></trkpt><trkpt lat="40.241219560453075" lon="9.56618086970542"><ele>626.0</ele><time>2026-04-03T14:33:51Z</time></trkpt><trkpt lat="40.24135332638414" lon="9.566273392412082"><ele>609.6666666666666</ele><time>2026-04-03T14:33:52Z</time></trkpt><trkpt lat="40.24148542971253" lon="9.56639814514766"><ele>593.3333333333334</ele><time>2026-04-03T14:33:53Z</time></trkpt><trkpt lat="40.241603024228084" lon="9.566529849279952"><ele>577.0</ele><time>2026-04-03T14:33:54Z</time></trkpt><trkpt lat="40.241715929586306" lon="9.566679576399256"><ele>577.0</ele><time>2026-04-03T14:33:55Z</time></trkpt><trkpt lat="40.24179951818576" lon="9.5668424036596"><ele>577.0</ele><time>2026-04-03T14:33:56Z</time></trkpt><trkpt lat="40.241843847887665" lon="9.566999863706522"><ele>577.0</ele><time>2026-04-03T14:33:57Z</time></trkpt><trkpt lat="40.241855253503125" lon="9.567192335356214"><ele>577.0</ele><time>2026-04-03T14:33:58Z</time></trkpt><trkpt lat="40.241895437037336" lon="9.567356561558547"><ele>582.25</ele><time>2026-04-03T14:33:59Z</time></trkpt><trkpt lat="40.24197231541981" lon="9.567500336260858"><ele>587.5</ele><time>2026-04-03T14:34:00Z</time></trkpt><trkpt lat="40.24208785692314" lon="9.567591084289493"><ele>592.75</ele><time>2026-04-03T14:34:01Z</time></trkpt><trkpt lat="40.24221104449101" lon="9.567682069700378"><ele>598.0</ele><time>2026-04-03T14:34:02Z</time></trkpt><trkpt lat="40.24231531693386" lon="9.567786565732233"><ele>597.3333333333334</ele><time>2026-04-03T14:34:03Z</time></trkpt><trkpt lat="40.24243899781277" lon="9.567882325762152"><ele>596.6666666666666</ele><time>2026-04-03T14:34:04Z</time></trkpt><trkpt lat="40.24258090984092" lon="9.56798609544341"><ele>596.0</ele><time>2026-04-03T14:34:05Z</time></trkpt><trkpt lat="40.242723105946794" lon="9.568080054620184"><ele>596.0</ele><time>2026-04-03T14:34:06Z</time></trkpt><trkpt lat="40.24285993960904" lon="9.568182885447664"><ele>596.0</ele><time>2026-04-03T14:34:07Z</time></trkpt><trkpt lat="40.24298694435672" lon="9.568298354505583"><ele>596.0</ele><time>2026-04-03T14:34:08Z</time></trkpt><trkpt lat="40.24311800536105" lon="9.568401746545698"><ele>586.25</ele><time>2026-04-03T14:34:09Z</time></trkpt><trkpt lat="40.24326682178684" lon="9.56846342299909"><ele>576.5</ele><time>2026-04-03T14:34:10Z</time></trkpt><trkpt lat="40.243416282130774" lon="9.568505081776971"><ele>566.75</ele><time>2026-04-03T14:34:11Z</time></trkpt><trkpt lat="40.24354890797762" lon="9.56854220131213"><ele>557.0</ele><time>2026-04-03T14:34:12Z</time></trkpt><trkpt lat="40.24368054689951" lon="9.568588031107003"><ele>557.0</ele><time>2026-04-03T14:34:13Z</time></trkpt><trkpt lat="40.243793771053504" lon="9.568681887409126"><ele>557.0</ele><time>2026-04-03T14:34:14Z</time></trkpt><trkpt lat="40.2438934159355" lon="9.568794764700183"><ele>557.0</ele><time>2026-04-03T14:34:15Z</time></trkpt><trkpt lat="40.243995098221276" lon="9.568904121615917"><ele>557.0</ele><time>2026-04-03T14:34:16Z</time></trkpt><trkpt lat="40.24409855955434" lon="9.569014809096034"><ele>558.75</ele><time>2026-04-03T14:34:17Z</time></trkpt><trkpt lat="40.244204456513756" lon="9.56912786335653"><ele>560.5</ele><time>2026-04-03T14:34:18Z</time></trkpt><trkpt lat="40.244311948469395" lon="9.569242264600451"><ele>562.25</ele><time>2026-04-03T14:34:19Z</time></trkpt><trkpt lat="40.2444161331199" lon="9.569353722123036"><ele>564.0</ele><time>2026-04-03T14:34:20Z</time></trkpt><trkpt lat="40.244522570105346" lon="9.569467589207171"><ele>563.75</ele><time>2026-04-03T14:34:21Z</time></trkpt><trkpt lat="40.24463811028581" lon="9.569564860706075"><ele>563.5</ele><time>2026-04-03T14:34:22Z</time></trkpt><trkpt lat="40.244738429938934" lon="9.56968135601417"><ele>563.25</ele><time>2026-04-03T14:34:23Z</time></trkpt><trkpt lat="40.244840280157234" lon="9.569786648411815"><ele>563.0</ele><time>2026-04-03T14:34:24Z</time></trkpt><trkpt lat="40.24493892254066" lon="9.569898563707707"><ele>563.0</ele><time>2026-04-03T14:34:25Z</time></trkpt><trkpt lat="40.24501635147116" lon="9.570013647106332"><ele>563.0</ele><time>2026-04-03T14:34:26Z</time></trkpt><trkpt lat="40.245103703857495" lon="9.570147979118763"><ele>563.0</ele><time>2026-04-03T14:34:27Z</time></trkpt><trkpt lat="40.24518601379003" lon="9.570291242328576"><ele>563.0</ele><time>2026-04-03T14:34:28Z</time></trkpt><trkpt lat="40.245262324895116" lon="9.570432162212256"><ele>561.0</ele><time>2026-04-03T14:34:29Z</time></trkpt><trkpt lat="40.245383888739134" lon="9.570528805850183"><ele>559.0</ele><time>2026-04-03T14:34:30Z</time></trkpt><trkpt lat="40.24555225161678" lon="9.570573898605105"><ele>557.0</ele><time>2026-04-03T14:34:31Z</time></trkpt><trkpt lat="40.24566695744047" lon="9.570681356255411"><ele>557.0</ele><time>2026-04-03T14:34:32Z</time></trkpt><trkpt lat="40.24578967889785" lon="9.570809071459623"><ele>557.0</ele><time>2026-04-03T14:34:33Z</time></trkpt><trkpt lat="40.24590503360005" lon="9.570915229536388"><ele>557.0</ele><time>2026-04-03T14:34:34Z</time></trkpt><trkpt lat="40.24604373029426" lon="9.571025572740567"><ele>557.0</ele><time>2026-04-03T14:34:35Z</time></trkpt><trkpt lat="40.246186960230375" lon="9.571121704949778"><ele>557.0</ele><time>2026-04-03T14:34:36Z</time></trkpt><trkpt lat="40.24632398546385" lon="9.571231842282314"><ele>557.0</ele><time>2026-04-03T14:34:37Z</time></trkpt><trkpt lat="40.246456555486155" lon="9.57132426313114"><ele>557.75</ele><time>2026-04-03T14:34:38Z</time></trkpt><trkpt lat="40.24657922890152" lon="9.571411601954926"><ele>558.5</ele><time>2026-04-03T14:34:39Z</time></trkpt><trkpt lat="40.246703222929774" lon="9.571497610463775"><ele>559.25</ele><time>2026-04-03T14:34:40Z</time></trkpt><trkpt lat="40.24681543194143" lon="9.57161889757749"><ele>560.0</ele><time>2026-04-03T14:34:41Z</time></trkpt><trkpt lat="40.24691699824944" lon="9.57175952972117"><ele>560.0</ele><time>2026-04-03T14:34:42Z</time></trkpt><trkpt lat="40.2470064370078" lon="9.571912372017803"><ele>560.0</ele><time>2026-04-03T14:34:43Z</time></trkpt><trkpt lat="40.24708215518225" lon="9.5720334275522"><ele>560.0</ele><time>2026-04-03T14:34:44Z</time></trkpt><trkpt lat="40.247203579635126" lon="9.572078456270495"><ele>560.0</ele><time>2026-04-03T14:34:45Z</time></trkpt><trkpt lat="40.24744537728112" lon="9.572006880122451"><ele>567.3333333333333</ele><time>2026-04-03T14:34:46Z</time></trkpt><trkpt lat="40.247597604584556" lon="9.572028017674175"><ele>574.6666666666666</ele><time>2026-04-03T14:34:47Z</time></trkpt><trkpt lat="40.24775392677924" lon="9.57209587174981"><ele>582.0</ele><time>2026-04-03T14:34:48Z</time></trkpt><trkpt lat="40.24789059616234" lon="9.5722197367326"><ele>582.0</ele><time>2026-04-03T14:34:49Z</time></trkpt><trkpt lat="40.248025800968215" lon="9.572345518458917"><ele>582.0</ele><time>2026-04-03T14:34:50Z</time></trkpt><trkpt lat="40.24815652764208" lon="9.57246690692775"><ele>582.0</ele><time>2026-04-03T14:34:51Z</time></trkpt><trkpt lat="40.248291831485105" lon="9.57259526225604"><ele>591.0</ele><time>2026-04-03T14:34:52Z</time></trkpt><trkpt lat="40.24843144098859" lon="9.57270406161178"><ele>600.0</ele><time>2026-04-03T14:34:53Z</time></trkpt><trkpt lat="40.24857747068476" lon="9.572803934629071"><ele>609.0</ele><time>2026-04-03T14:34:54Z</time></trkpt><trkpt lat="40.248716879902" lon="9.572886968493796"><ele>609.0</ele><time>2026-04-03T14:34:55Z</time></trkpt><trkpt lat="40.24886981823292" lon="9.572938799232967"><ele>609.0</ele><time>2026-04-03T14:34:56Z</time></trkpt><trkpt lat="40.24901509524635" lon="9.572999651243688"><ele>609.0</ele><time>2026-04-03T14:34:57Z</time></trkpt><trkpt lat="40.24916535972434" lon="9.57300266764598"><ele>597.0</ele><time>2026-04-03T14:34:58Z</time></trkpt><trkpt lat="40.24931570669826" lon="9.572988700483794"><ele>585.0</ele><time>2026-04-03T14:34:59Z</time></trkpt><trkpt lat="40.24946184745277" lon="9.572986672869167"><ele>573.0</ele><time>2026-04-03T14:35:00Z</time></trkpt><trkpt lat="40.249605380405754" lon="9.57301080497922"><ele>561.0</ele><time>2026-04-03T14:35:01Z</time></trkpt><trkpt lat="40.24974045183706" lon="9.57308833767173"><ele>552.6666666666666</ele><time>2026-04-03T14:35:02Z</time></trkpt><trkpt lat="40.249875887473124" lon="9.573181529264394"><ele>544.3333333333333</ele><time>2026-04-03T14:35:03Z</time></trkpt><trkpt lat="40.25001574290374" lon="9.5732585939899"><ele>536.0</ele><time>2026-04-03T14:35:04Z</time></trkpt><trkpt lat="40.250153735065844" lon="9.57334373683043"><ele>536.0</ele><time>2026-04-03T14:35:05Z</time></trkpt><trkpt lat="40.2502953599625" lon="9.573429527351038"><ele>536.0</ele><time>2026-04-03T14:35:06Z</time></trkpt><trkpt lat="40.25044182021337" lon="9.573494438033052"><ele>536.0</ele><time>2026-04-03T14:35:07Z</time></trkpt><trkpt lat="40.25059241494782" lon="9.57352995999439"><ele>540.25</ele><time>2026-04-03T14:35:08Z</time></trkpt><trkpt lat="40.25072678183785" lon="9.573540810177565"><ele>544.5</ele><time>2026-04-03T14:35:09Z</time></trkpt><trkpt lat="40.25081490207484" lon="9.573616555698454"><ele>548.75</ele><time>2026-04-03T14:35:10Z</time></trkpt><trkpt lat="40.250926700930435" lon="9.573769575546319"><ele>553.0</ele><time>2026-04-03T14:35:11Z</time></trkpt><trkpt lat="40.2510629142148" lon="9.57385916832333"><ele>553.0</ele><time>2026-04-03T14:35:12Z</time></trkpt><trkpt lat="40.25116870443152" lon="9.573917783836952"><ele>553.0</ele><time>2026-04-03T14:35:13Z</time></trkpt><trkpt lat="40.251315835497074" lon="9.573935677796845"><ele>553.0</ele><time>2026-04-03T14:35:14Z</time></trkpt><trkpt lat="40.25146005118711" lon="9.573973761445584"><ele>553.0</ele><time>2026-04-03T14:35:15Z</time></trkpt><trkpt lat="40.25160184244025" lon="9.57405372552884"><ele>546.3333333333334</ele><time>2026-04-03T14:35:16Z</time></trkpt><trkpt lat="40.251737261724834" lon="9.574171074826106"><ele>539.6666666666666</ele><time>2026-04-03T14:35:17Z</time></trkpt><trkpt lat="40.25187006558519" lon="9.574291247792008"><ele>533.0</ele><time>2026-04-03T14:35:18Z</time></trkpt><trkpt lat="40.252014374049295" lon="9.574377689429047"><ele>533.0</ele><time>2026-04-03T14:35:19Z</time></trkpt><trkpt lat="40.25215888691469" lon="9.574420537422267"><ele>533.0</ele><time>2026-04-03T14:35:20Z</time></trkpt><trkpt lat="40.2523001782381" lon="9.574459986887684"><ele>533.0</ele><time>2026-04-03T14:35:21Z</time></trkpt><trkpt lat="40.252431031869506" lon="9.57453481019"><ele>533.0</ele><time>2026-04-03T14:35:22Z</time></trkpt><trkpt lat="40.25256323482874" lon="9.5746275538755"><ele>536.6666666666666</ele><time>2026-04-03T14:35:23Z</time></trkpt><trkpt lat="40.25270346039511" lon="9.574711647308648"><ele>540.3333333333334</ele><time>2026-04-03T14:35:24Z</time></trkpt><trkpt lat="40.252857293774035" lon="9.574784491115965"><ele>544.0</ele><time>2026-04-03T14:35:25Z</time></trkpt><trkpt lat="40.25301216532397" lon="9.574857864385688"><ele>538.0</ele><time>2026-04-03T14:35:26Z</time></trkpt><trkpt lat="40.253163793816995" lon="9.574929349896856"><ele>532.0</ele><time>2026-04-03T14:35:27Z</time></trkpt><trkpt lat="40.253304526518285" lon="9.574992255509091"><ele>526.0</ele><time>2026-04-03T14:35:28Z</time></trkpt><trkpt lat="40.25344900590017" lon="9.575045156577637"><ele>526.0</ele><time>2026-04-03T14:35:29Z</time></trkpt><trkpt lat="40.253591090659434" lon="9.57507671670269"><ele>526.0</ele><time>2026-04-03T14:35:30Z</time></trkpt><trkpt lat="40.25373150879838" lon="9.575091704707388"><ele>526.0</ele><time>2026-04-03T14:35:31Z</time></trkpt><trkpt lat="40.25386872679245" lon="9.575094213268894"><ele>526.0</ele><time>2026-04-03T14:35:32Z</time></trkpt><trkpt lat="40.25400012300286" lon="9.575108558626773"><ele>526.75</ele><time>2026-04-03T14:35:33Z</time></trkpt><trkpt lat="40.254121988791624" lon="9.575127180491096"><ele>527.5</ele><time>2026-04-03T14:35:34Z</time></trkpt><trkpt lat="40.254230701044236" lon="9.575160904335288"><ele>528.25</ele><time>2026-04-03T14:35:35Z</time></trkpt><trkpt lat="40.25432504989406" lon="9.575236359294221"><ele>529.0</ele><time>2026-04-03T14:35:36Z</time></trkpt><trkpt lat="40.25439254007771" lon="9.57538010566044"><ele>529.0</ele><time>2026-04-03T14:35:37Z</time></trkpt><trkpt lat="40.25443159271627" lon="9.575553729292572"><ele>529.0</ele><time>2026-04-03T14:35:38Z</time></trkpt><trkpt lat="40.2544631183337" lon="9.575725900900705"><ele>529.0</ele><time>2026-04-03T14:35:39Z</time></trkpt><trkpt lat="40.25452857604634" lon="9.575884372115345"><ele>529.0</ele><time>2026-04-03T14:35:40Z</time></trkpt><trkpt lat="40.25464014641764" lon="9.576009040737697"><ele>529.0</ele><time>2026-04-03T14:35:41Z</time></trkpt><trkpt lat="40.25477846321664" lon="9.576112366158284"><ele>529.0</ele><time>2026-04-03T14:35:42Z</time></trkpt><trkpt lat="40.25491259084881" lon="9.576229421915814"><ele>529.0</ele><time>2026-04-03T14:35:43Z</time></trkpt><trkpt lat="40.25503176220365" lon="9.576366103941375"><ele>527.5</ele><time>2026-04-03T14:35:44Z</time></trkpt><trkpt lat="40.25514068650207" lon="9.576505697983809"><ele>526.0</ele><time>2026-04-03T14:35:45Z</time></trkpt><trkpt lat="40.25522711444203" lon="9.57666070414162"><ele>524.5</ele><time>2026-04-03T14:35:46Z</time></trkpt><trkpt lat="40.255320020162145" lon="9.576802997434378"><ele>523.0</ele><time>2026-04-03T14:35:47Z</time></trkpt><trkpt lat="40.25543648414389" lon="9.576908343869203"><ele>523.0</ele><time>2026-04-03T14:35:48Z</time></trkpt><trkpt lat="40.25558042659583" lon="9.576955354145047"><ele>523.0</ele><time>2026-04-03T14:35:49Z</time></trkpt><trkpt lat="40.25574034090266" lon="9.576966449993334"><ele>523.0</ele><time>2026-04-03T14:35:50Z</time></trkpt><trkpt lat="40.255881405203624" lon="9.57701375137219"><ele>525.75</ele><time>2026-04-03T14:35:51Z</time></trkpt><trkpt lat="40.256021514758515" lon="9.577070572191886"><ele>528.5</ele><time>2026-04-03T14:35:52Z</time></trkpt><trkpt lat="40.25614681241189" lon="9.577148047013747"><ele>531.25</ele><time>2026-04-03T14:35:53Z</time></trkpt><trkpt lat="40.25628522856428" lon="9.577195494515358"><ele>534.0</ele><time>2026-04-03T14:35:54Z</time></trkpt><trkpt lat="40.25641746239015" lon="9.577245598742952"><ele>529.25</ele><time>2026-04-03T14:35:55Z</time></trkpt><trkpt lat="40.256566245438485" lon="9.577247907634225"><ele>524.5</ele><time>2026-04-03T14:35:56Z</time></trkpt><trkpt lat="40.2567081193947" lon="9.577236068265877"><ele>519.75</ele><time>2026-04-03T14:35:57Z</time></trkpt><trkpt lat="40.25684414668111" lon="9.577257193952212"><ele>515.0</ele><time>2026-04-03T14:35:58Z</time></trkpt><trkpt lat="40.25698040965439" lon="9.577260070978115"><ele>515.0</ele><time>2026-04-03T14:35:59Z</time></trkpt><trkpt lat="40.25711248308534" lon="9.577272943876526"><ele>515.0</ele><time>2026-04-03T14:36:00Z</time></trkpt><trkpt lat="40.25725416328207" lon="9.577286629268652"><ele>515.0</ele><time>2026-04-03T14:36:01Z</time></trkpt><trkpt lat="40.257388103785196" lon="9.577375601719156"><ele>515.0</ele><time>2026-04-03T14:36:02Z</time></trkpt><trkpt lat="40.25753843131894" lon="9.577419275977528"><ele>511.0</ele><time>2026-04-03T14:36:03Z</time></trkpt><trkpt lat="40.25767857801342" lon="9.577470067799824"><ele>507.0</ele><time>2026-04-03T14:36:04Z</time></trkpt><trkpt lat="40.257826429430864" lon="9.577494718969154"><ele>503.0</ele><time>2026-04-03T14:36:05Z</time></trkpt><trkpt lat="40.25797461089028" lon="9.57752266623738"><ele>499.0</ele><time>2026-04-03T14:36:06Z</time></trkpt><trkpt lat="40.25812494459857" lon="9.57754352955425"><ele>494.0</ele><time>2026-04-03T14:36:07Z</time></trkpt><trkpt lat="40.25827044931184" lon="9.577543816599192"><ele>489.0</ele><time>2026-04-03T14:36:08Z</time></trkpt><trkpt lat="40.2584117070438" lon="9.577570972239114"><ele>484.0</ele><time>2026-04-03T14:36:09Z</time></trkpt><trkpt lat="40.25855076372694" lon="9.577596193847254"><ele>479.0</ele><time>2026-04-03T14:36:10Z</time></trkpt><trkpt lat="40.25867999341255" lon="9.57767688715257"><ele>479.0</ele><time>2026-04-03T14:36:11Z</time></trkpt><trkpt lat="40.25881142638084" lon="9.577744909371932"><ele>479.0</ele><time>2026-04-03T14:36:12Z</time></trkpt><trkpt lat="40.25893086720955" lon="9.5777944713937"><ele>479.0</ele><time>2026-04-03T14:36:13Z</time></trkpt><trkpt lat="40.25906480857416" lon="9.577780240194556"><ele>479.0</ele><time>2026-04-03T14:36:14Z</time></trkpt><trkpt lat="40.25919109410594" lon="9.57774794163206"><ele>476.5</ele><time>2026-04-03T14:36:15Z</time></trkpt><trkpt lat="40.259318676341515" lon="9.57772296109971"><ele>474.0</ele><time>2026-04-03T14:36:16Z</time></trkpt><trkpt lat="40.259443528399856" lon="9.577751066522103"><ele>471.5</ele><time>2026-04-03T14:36:17Z</time></trkpt><trkpt lat="40.25953785582771" lon="9.577868019782251"><ele>469.0</ele><time>2026-04-03T14:36:18Z</time></trkpt><trkpt lat="40.25964758571597" lon="9.577949998637253"><ele>470.0</ele><time>2026-04-03T14:36:19Z</time></trkpt><trkpt lat="40.259719750681064" lon="9.578093695119414"><ele>471.0</ele><time>2026-04-03T14:36:20Z</time></trkpt><trkpt lat="40.259741335393585" lon="9.57826456890295"><ele>472.0</ele><time>2026-04-03T14:36:21Z</time></trkpt><trkpt lat="40.259793237944585" lon="9.578412366856318"><ele>473.0</ele><time>2026-04-03T14:36:22Z</time></trkpt><trkpt lat="40.259856649751555" lon="9.578541619155343"><ele>473.0</ele><time>2026-04-03T14:36:23Z</time></trkpt><trkpt lat="40.259971685029804" lon="9.578613655699609"><ele>473.0</ele><time>2026-04-03T14:36:24Z</time></trkpt><trkpt lat="40.26012148037858" lon="9.57864788045951"><ele>473.0</ele><time>2026-04-03T14:36:25Z</time></trkpt><trkpt lat="40.26025841503889" lon="9.578687745859423"><ele>473.0</ele><time>2026-04-03T14:36:26Z</time></trkpt><trkpt lat="40.26039616544759" lon="9.578738310110408"><ele>476.75</ele><time>2026-04-03T14:36:27Z</time></trkpt><trkpt lat="40.26054282094962" lon="9.57880176605282"><ele>480.5</ele><time>2026-04-03T14:36:28Z</time></trkpt><trkpt lat="40.26068006840113" lon="9.578863219444548"><ele>484.25</ele><time>2026-04-03T14:36:29Z</time></trkpt><trkpt lat="40.260813294145585" lon="9.578925509209688"><ele>488.0</ele><time>2026-04-03T14:36:30Z</time></trkpt><trkpt lat="40.26094020742232" lon="9.578994131145157"><ele>488.0</ele><time>2026-04-03T14:36:31Z</time></trkpt><trkpt lat="40.26106107183922" lon="9.579069567904472"><ele>488.0</ele><time>2026-04-03T14:36:32Z</time></trkpt><trkpt lat="40.26117419001714" lon="9.57914520780003"><ele>488.0</ele><time>2026-04-03T14:36:33Z</time></trkpt><trkpt lat="40.26129155404064" lon="9.579208561320206"><ele>488.0</ele><time>2026-04-03T14:36:34Z</time></trkpt><trkpt lat="40.261415681290615" lon="9.579237945926375"><ele>484.0</ele><time>2026-04-03T14:36:35Z</time></trkpt><trkpt lat="40.261542083637714" lon="9.579238774044413"><ele>480.0</ele><time>2026-04-03T14:36:36Z</time></trkpt><trkpt lat="40.26167162800946" lon="9.5792111124956"><ele>476.0</ele><time>2026-04-03T14:36:37Z</time></trkpt><trkpt lat="40.26180415540333" lon="9.57921071562702"><ele>472.0</ele><time>2026-04-03T14:36:38Z</time></trkpt><trkpt lat="40.26192383016712" lon="9.579278116861593"><ele>472.0</ele><time>2026-04-03T14:36:39Z</time></trkpt><trkpt lat="40.26203442404862" lon="9.579386298324263"><ele>472.0</ele><time>2026-04-03T14:36:40Z</time></trkpt><trkpt lat="40.26216205896633" lon="9.5794630734073"><ele>472.0</ele><time>2026-04-03T14:36:41Z</time></trkpt><trkpt lat="40.26229105035934" lon="9.579556521291355"><ele>472.0</ele><time>2026-04-03T14:36:42Z</time></trkpt><trkpt lat="40.262421956749066" lon="9.579616879775699"><ele>479.33333333333337</ele><time>2026-04-03T14:36:43Z</time></trkpt><trkpt lat="40.26254326185009" lon="9.579680466463152"><ele>486.66666666666663</ele><time>2026-04-03T14:36:44Z</time></trkpt><trkpt lat="40.26266566910724" lon="9.579746098443255"><ele>494.0</ele><time>2026-04-03T14:36:45Z</time></trkpt><trkpt lat="40.263066157503864" lon="9.5797544917985"><ele>491.66666666666663</ele><time>2026-04-03T14:36:48Z</time></trkpt><trkpt lat="40.263200216913894" lon="9.579769815334933"><ele>489.33333333333337</ele><time>2026-04-03T14:36:49Z</time></trkpt><trkpt lat="40.26333399729228" lon="9.579810422041144"><ele>487.0</ele><time>2026-04-03T14:36:50Z</time></trkpt><trkpt lat="40.263593426036316" lon="9.57980245752551"><ele>487.0</ele><time>2026-04-03T14:36:52Z</time></trkpt><trkpt lat="40.263707994850265" lon="9.579757545380941"><ele>487.00000000000006</ele><time>2026-04-03T14:36:53Z</time></trkpt><trkpt lat="40.26381743594052" lon="9.579718583504608"><ele>487.00000000000006</ele><time>2026-04-03T14:36:54Z</time></trkpt><trkpt lat="40.2639145951146" lon="9.579743444325842"><ele>487.0</ele><time>2026-04-03T14:36:55Z</time></trkpt><trkpt lat="40.26401474348459" lon="9.579780379924486"><ele>487.0</ele><time>2026-04-03T14:36:56Z</time></trkpt><trkpt lat="40.26412847922007" lon="9.579800299907406"><ele>485.0</ele><time>2026-04-03T14:36:57Z</time></trkpt><trkpt lat="40.26424194742175" lon="9.57985308501362"><ele>483.0</ele><time>2026-04-03T14:36:58Z</time></trkpt><trkpt lat="40.26436019376021" lon="9.579900759208776"><ele>481.0</ele><time>2026-04-03T14:36:59Z</time></trkpt><trkpt lat="40.26447609774616" lon="9.579946259811953"><ele>479.0</ele><time>2026-04-03T14:37:00Z</time></trkpt><trkpt lat="40.264583731479085" lon="9.579988155982374"><ele>479.0</ele><time>2026-04-03T14:37:01Z</time></trkpt><trkpt lat="40.26468264911526" lon="9.579995065933872"><ele>479.0</ele><time>2026-04-03T14:37:02Z</time></trkpt><trkpt lat="40.26476733972861" lon="9.579954108315704"><ele>479.0</ele><time>2026-04-03T14:37:03Z</time></trkpt><trkpt lat="40.26484231187848" lon="9.579897263689631"><ele>479.0</ele><time>2026-04-03T14:37:04Z</time></trkpt><trkpt lat="40.26492025452219" lon="9.579848083281904"><ele>479.0</ele><time>2026-04-03T14:37:05Z</time></trkpt><trkpt lat="40.26501189118498" lon="9.579802859749089"><ele>478.4</ele><time>2026-04-03T14:37:06Z</time></trkpt><trkpt lat="40.26511227892339" lon="9.57976301130184"><ele>477.79999999999995</ele><time>2026-04-03T14:37:07Z</time></trkpt><trkpt lat="40.265214060686056" lon="9.579741597224084"><ele>477.20000000000005</ele><time>2026-04-03T14:37:08Z</time></trkpt><trkpt lat="40.265305296744174" lon="9.579813552306485"><ele>476.6</ele><time>2026-04-03T14:37:09Z</time></trkpt><trkpt lat="40.26539401929694" lon="9.579931766996491"><ele>476.0</ele><time>2026-04-03T14:37:10Z</time></trkpt><trkpt lat="40.2654882191995" lon="9.58004985743764"><ele>476.0</ele><time>2026-04-03T14:37:11Z</time></trkpt><trkpt lat="40.26558109825025" lon="9.580192525444858"><ele>476.0</ele><time>2026-04-03T14:37:12Z</time></trkpt><trkpt lat="40.2656719697874" lon="9.580331450940895"><ele>476.0</ele><time>2026-04-03T14:37:13Z</time></trkpt><trkpt lat="40.26576711246062" lon="9.580469137315886"><ele>476.0</ele><time>2026-04-03T14:37:14Z</time></trkpt><trkpt lat="40.265863733716785" lon="9.580602400929624"><ele>476.75</ele><time>2026-04-03T14:37:15Z</time></trkpt><trkpt lat="40.26595563921425" lon="9.580729647047212"><ele>477.5</ele><time>2026-04-03T14:37:16Z</time></trkpt><trkpt lat="40.26606042317581" lon="9.580823147941267"><ele>478.25</ele><time>2026-04-03T14:37:17Z</time></trkpt><trkpt lat="40.26618439221606" lon="9.580889267798735"><ele>479.0</ele><time>2026-04-03T14:37:18Z</time></trkpt><trkpt lat="40.26631659450918" lon="9.580922950360641"><ele>479.0</ele><time>2026-04-03T14:37:19Z</time></trkpt><trkpt lat="40.266435495338136" lon="9.580986462408221"><ele>479.0</ele><time>2026-04-03T14:37:20Z</time></trkpt><trkpt lat="40.26653634393808" lon="9.581039449822095"><ele>479.0</ele><time>2026-04-03T14:37:21Z</time></trkpt><trkpt lat="40.26663836185579" lon="9.58109601412048"><ele>479.0</ele><time>2026-04-03T14:37:22Z</time></trkpt><trkpt lat="40.26671588594137" lon="9.581209316180148"><ele>480.5</ele><time>2026-04-03T14:37:23Z</time></trkpt><trkpt lat="40.26680124400603" lon="9.581342526142198"><ele>482.0</ele><time>2026-04-03T14:37:24Z</time></trkpt><trkpt lat="40.26688228658879" lon="9.581479345305995"><ele>483.5</ele><time>2026-04-03T14:37:25Z</time></trkpt><trkpt lat="40.26696762229587" lon="9.581602461520259"><ele>485.0</ele><time>2026-04-03T14:37:26Z</time></trkpt><trkpt lat="40.267071763962306" lon="9.5816986483911"><ele>485.0</ele><time>2026-04-03T14:37:27Z</time></trkpt><trkpt lat="40.2671946528286" lon="9.581778499494355"><ele>485.0</ele><time>2026-04-03T14:37:28Z</time></trkpt><trkpt lat="40.267302630490995" lon="9.581896667257485"><ele>485.0</ele><time>2026-04-03T14:37:29Z</time></trkpt><trkpt lat="40.267428195035116" lon="9.581978871390922"><ele>485.0</ele><time>2026-04-03T14:37:30Z</time></trkpt><trkpt lat="40.26753486284265" lon="9.582096743806908"><ele>484.5</ele><time>2026-04-03T14:37:31Z</time></trkpt><trkpt lat="40.26765088865101" lon="9.582196386096129"><ele>484.0</ele><time>2026-04-03T14:37:32Z</time></trkpt><trkpt lat="40.267778436483766" lon="9.582285768261738"><ele>483.5</ele><time>2026-04-03T14:37:33Z</time></trkpt><trkpt lat="40.267881901001964" lon="9.582399630491"><ele>483.0</ele><time>2026-04-03T14:37:34Z</time></trkpt><trkpt lat="40.26799665342253" lon="9.58249431847437"><ele>483.0</ele><time>2026-04-03T14:37:35Z</time></trkpt><trkpt lat="40.26810327395568" lon="9.582594918350898"><ele>483.0</ele><time>2026-04-03T14:37:36Z</time></trkpt><trkpt lat="40.268204737539484" lon="9.582692790351123"><ele>483.0</ele><time>2026-04-03T14:37:37Z</time></trkpt><trkpt lat="40.26829019258454" lon="9.582798530405617"><ele>483.0</ele><time>2026-04-03T14:37:38Z</time></trkpt><trkpt lat="40.26836767219048" lon="9.582896818790255"><ele>483.75</ele><time>2026-04-03T14:37:39Z</time></trkpt><trkpt lat="40.26844886861519" lon="9.58298438140199"><ele>484.5</ele><time>2026-04-03T14:37:40Z</time></trkpt><trkpt lat="40.268559475103665" lon="9.583036612980889"><ele>485.25</ele><time>2026-04-03T14:37:41Z</time></trkpt><trkpt lat="40.26869097363966" lon="9.58304041664162"><ele>486.0</ele><time>2026-04-03T14:37:42Z</time></trkpt><trkpt lat="40.2688099608542" lon="9.583037370785304"><ele>486.0</ele><time>2026-04-03T14:37:43Z</time></trkpt><trkpt lat="40.268916779022874" lon="9.583051981820594"><ele>486.0</ele><time>2026-04-03T14:37:44Z</time></trkpt><trkpt lat="40.26901273999525" lon="9.5831261407478"><ele>486.0</ele><time>2026-04-03T14:37:45Z</time></trkpt><trkpt lat="40.26908782097343" lon="9.583245671874904"><ele>486.0</ele><time>2026-04-03T14:37:46Z</time></trkpt><trkpt lat="40.269149917248946" lon="9.58338994808016"><ele>488.75</ele><time>2026-04-03T14:37:47Z</time></trkpt><trkpt lat="40.269256141382556" lon="9.583521512543872"><ele>491.5</ele><time>2026-04-03T14:37:48Z</time></trkpt><trkpt lat="40.269409625453115" lon="9.583582755621297"><ele>494.25</ele><time>2026-04-03T14:37:49Z</time></trkpt><trkpt lat="40.269534756444116" lon="9.58361324394431"><ele>497.0</ele><time>2026-04-03T14:37:50Z</time></trkpt><trkpt lat="40.269648634605616" lon="9.583688853760078"><ele>497.0</ele><time>2026-04-03T14:37:51Z</time></trkpt><trkpt lat="40.269743937626814" lon="9.583806566441368"><ele>497.0</ele><time>2026-04-03T14:37:52Z</time></trkpt><trkpt lat="40.26981889747633" lon="9.583968626127033"><ele>497.0</ele><time>2026-04-03T14:37:53Z</time></trkpt><trkpt lat="40.26990614307035" lon="9.584138796821385"><ele>497.0</ele><time>2026-04-03T14:37:54Z</time></trkpt><trkpt lat="40.27001119594719" lon="9.584271698477574"><ele>495.75</ele><time>2026-04-03T14:37:55Z</time></trkpt><trkpt lat="40.27011092093966" lon="9.584394307038242"><ele>494.5</ele><time>2026-04-03T14:37:56Z</time></trkpt><trkpt lat="40.270201826264866" lon="9.584504639849301"><ele>493.25</ele><time>2026-04-03T14:37:57Z</time></trkpt><trkpt lat="40.27029030215641" lon="9.584611599279999"><ele>492.0</ele><time>2026-04-03T14:37:58Z</time></trkpt><trkpt lat="40.27038866738022" lon="9.584701418730322"><ele>492.0</ele><time>2026-04-03T14:37:59Z</time></trkpt><trkpt lat="40.27048590689768" lon="9.584762211365401"><ele>492.00000000000006</ele><time>2026-04-03T14:38:00Z</time></trkpt><trkpt lat="40.2705714670574" lon="9.584810452373379"><ele>492.00000000000006</ele><time>2026-04-03T14:38:01Z</time></trkpt><trkpt lat="40.27065644938712" lon="9.584872578552012"><ele>492.0</ele><time>2026-04-03T14:38:02Z</time></trkpt><trkpt lat="40.27072069117652" lon="9.584995605012"><ele>492.0</ele><time>2026-04-03T14:38:03Z</time></trkpt><trkpt lat="40.27076124970448" lon="9.585145942078672"><ele>487.5</ele><time>2026-04-03T14:38:04Z</time></trkpt><trkpt lat="40.27079044743382" lon="9.58529533193412"><ele>483.0</ele><time>2026-04-03T14:38:05Z</time></trkpt><trkpt lat="40.2708456834213" lon="9.585428779195503"><ele>478.5</ele><time>2026-04-03T14:38:06Z</time></trkpt><trkpt lat="40.27091892239207" lon="9.58555026588813"><ele>474.0</ele><time>2026-04-03T14:38:07Z</time></trkpt><trkpt lat="40.270997686981595" lon="9.585677613841689"><ele>474.0</ele><time>2026-04-03T14:38:08Z</time></trkpt><trkpt lat="40.27106588410925" lon="9.585806267063044"><ele>474.0</ele><time>2026-04-03T14:38:09Z</time></trkpt><trkpt lat="40.27111333982758" lon="9.58593683933737"><ele>474.0</ele><time>2026-04-03T14:38:10Z</time></trkpt><trkpt lat="40.27114266194641" lon="9.58607589262205"><ele>474.0</ele><time>2026-04-03T14:38:11Z</time></trkpt><trkpt lat="40.27117412848547" lon="9.58622129805021"><ele>476.6</ele><time>2026-04-03T14:38:12Z</time></trkpt><trkpt lat="40.27119824852259" lon="9.586360032168034"><ele>479.2</ele><time>2026-04-03T14:38:13Z</time></trkpt><trkpt lat="40.271228613123256" lon="9.586486554194117"><ele>481.80000000000007</ele><time>2026-04-03T14:38:14Z</time></trkpt><trkpt lat="40.271266839285516" lon="9.586609671464542"><ele>484.40000000000003</ele><time>2026-04-03T14:38:15Z</time></trkpt><trkpt lat="40.27131936165288" lon="9.58672968915718"><ele>487.0</ele><time>2026-04-03T14:38:16Z</time></trkpt><trkpt lat="40.27135261939952" lon="9.586859882435723"><ele>487.0</ele><time>2026-04-03T14:38:17Z</time></trkpt><trkpt lat="40.27141481505151" lon="9.586983002977904"><ele>487.0</ele><time>2026-04-03T14:38:18Z</time></trkpt><trkpt lat="40.27147727410979" lon="9.587105675486201"><ele>487.0</ele><time>2026-04-03T14:38:19Z</time></trkpt><trkpt lat="40.27154761613976" lon="9.58721987511777"><ele>487.0</ele><time>2026-04-03T14:38:20Z</time></trkpt><trkpt lat="40.271639720945885" lon="9.587310265820205"><ele>482.75</ele><time>2026-04-03T14:38:21Z</time></trkpt><trkpt lat="40.271748973839195" lon="9.587372832654388"><ele>478.5</ele><time>2026-04-03T14:38:22Z</time></trkpt><trkpt lat="40.27186421363428" lon="9.587423354071774"><ele>474.25</ele><time>2026-04-03T14:38:23Z</time></trkpt><trkpt lat="40.27198361260074" lon="9.587477656681152"><ele>470.0</ele><time>2026-04-03T14:38:24Z</time></trkpt><trkpt lat="40.27207278217556" lon="9.587562739826426"><ele>470.0</ele><time>2026-04-03T14:38:25Z</time></trkpt><trkpt lat="40.27218012120741" lon="9.587640893911322"><ele>470.0</ele><time>2026-04-03T14:38:26Z</time></trkpt><trkpt lat="40.272275288783064" lon="9.587757043936884"><ele>470.0</ele><time>2026-04-03T14:38:27Z</time></trkpt><trkpt lat="40.272360845663506" lon="9.58788697966869"><ele>470.0</ele><time>2026-04-03T14:38:28Z</time></trkpt><trkpt lat="40.27241839739767" lon="9.588040237775806"><ele>468.0</ele><time>2026-04-03T14:38:29Z</time></trkpt><trkpt lat="40.27242896653274" lon="9.588215134745672"><ele>466.0</ele><time>2026-04-03T14:38:30Z</time></trkpt><trkpt lat="40.27245020006949" lon="9.58836673065659"><ele>464.0</ele><time>2026-04-03T14:38:31Z</time></trkpt><trkpt lat="40.27250201943756" lon="9.588509720946252"><ele>462.0</ele><time>2026-04-03T14:38:32Z</time></trkpt><trkpt lat="40.272599566372605" lon="9.588620692201816"><ele>467.25</ele><time>2026-04-03T14:38:33Z</time></trkpt><trkpt lat="40.27272230268613" lon="9.588684253141132"><ele>472.5</ele><time>2026-04-03T14:38:34Z</time></trkpt><trkpt lat="40.272841666895715" lon="9.588762286353138"><ele>477.75</ele><time>2026-04-03T14:38:35Z</time></trkpt><trkpt lat="40.27294957134651" lon="9.58888806382465"><ele>483.0</ele><time>2026-04-03T14:38:36Z</time></trkpt><trkpt lat="40.27302360405443" lon="9.589060041313193"><ele>483.0</ele><time>2026-04-03T14:38:37Z</time></trkpt><trkpt lat="40.27307306453755" lon="9.589252470476671"><ele>483.0</ele><time>2026-04-03T14:38:38Z</time></trkpt><trkpt lat="40.27311605092659" lon="9.589449669914378"><ele>483.0</ele><time>2026-04-03T14:38:39Z</time></trkpt><trkpt lat="40.27315442724294" lon="9.589649759689568"><ele>480.5</ele><time>2026-04-03T14:38:40Z</time></trkpt><trkpt lat="40.27318545429494" lon="9.589848143341502"><ele>478.0</ele><time>2026-04-03T14:38:41Z</time></trkpt><trkpt lat="40.273213187528526" lon="9.590036257344183"><ele>475.5</ele><time>2026-04-03T14:38:42Z</time></trkpt><trkpt lat="40.27326256228472" lon="9.590209821551936"><ele>473.0</ele><time>2026-04-03T14:38:43Z</time></trkpt><trkpt lat="40.273330988580064" lon="9.590369421435254"><ele>473.0</ele><time>2026-04-03T14:38:44Z</time></trkpt><trkpt lat="40.27341339123784" lon="9.590513217372651"><ele>473.0</ele><time>2026-04-03T14:38:45Z</time></trkpt><trkpt lat="40.27350888376063" lon="9.590644491336356"><ele>473.0</ele><time>2026-04-03T14:38:46Z</time></trkpt><trkpt lat="40.27360385287338" lon="9.590775175878171"><ele>473.0</ele><time>2026-04-03T14:38:47Z</time></trkpt><trkpt lat="40.27369815005932" lon="9.590908832368147"><ele>473.0</ele><time>2026-04-03T14:38:48Z</time></trkpt><trkpt lat="40.273794371376646" lon="9.59105485090422"><ele>473.0</ele><time>2026-04-03T14:38:49Z</time></trkpt><trkpt lat="40.27388129356227" lon="9.59119975197367"><ele>473.0</ele><time>2026-04-03T14:38:50Z</time></trkpt><trkpt lat="40.27396916814599" lon="9.591330114774243"><ele>473.0</ele><time>2026-04-03T14:38:51Z</time></trkpt><trkpt lat="40.27405194288039" lon="9.591456289425699"><ele>471.75</ele><time>2026-04-03T14:38:52Z</time></trkpt><trkpt lat="40.274140930879184" lon="9.591567763586196"><ele>470.5</ele><time>2026-04-03T14:38:53Z</time></trkpt><trkpt lat="40.27425298568801" lon="9.591660967003296"><ele>469.25</ele><time>2026-04-03T14:38:54Z</time></trkpt><trkpt lat="40.274361961877204" lon="9.591748163496723"><ele>468.0</ele><time>2026-04-03T14:38:55Z</time></trkpt><trkpt lat="40.27446085752523" lon="9.591839521377832"><ele>468.0</ele><time>2026-04-03T14:38:56Z</time></trkpt><trkpt lat="40.27456518487278" lon="9.591933901740958"><ele>468.0</ele><time>2026-04-03T14:38:57Z</time></trkpt><trkpt lat="40.27467368502198" lon="9.592013181019817"><ele>468.0</ele><time>2026-04-03T14:38:58Z</time></trkpt><trkpt lat="40.274782601578515" lon="9.592102285628751"><ele>468.0</ele><time>2026-04-03T14:38:59Z</time></trkpt><trkpt lat="40.27489170881353" lon="9.592182271137073"><ele>470.0</ele><time>2026-04-03T14:39:00Z</time></trkpt><trkpt lat="40.275016882435956" lon="9.592244722067592"><ele>472.0</ele><time>2026-04-03T14:39:01Z</time></trkpt><trkpt lat="40.275155584024276" lon="9.592263843125135"><ele>474.0</ele><time>2026-04-03T14:39:02Z</time></trkpt><trkpt lat="40.27526485172761" lon="9.592291691659021"><ele>476.0</ele><time>2026-04-03T14:39:03Z</time></trkpt><trkpt lat="40.27537397651148" lon="9.592312267359336"><ele>476.0</ele><time>2026-04-03T14:39:04Z</time></trkpt><trkpt lat="40.27546110797972" lon="9.592333578549848"><ele>476.0</ele><time>2026-04-03T14:39:05Z</time></trkpt><trkpt lat="40.275525987865436" lon="9.592383287864543"><ele>476.0</ele><time>2026-04-03T14:39:06Z</time></trkpt><trkpt lat="40.2755445307007" lon="9.592565022935334"><ele>476.0</ele><time>2026-04-03T14:39:08Z</time></trkpt><trkpt lat="40.275512022513304" lon="9.592677715718448"><ele>476.0</ele><time>2026-04-03T14:39:09Z</time></trkpt><trkpt lat="40.27547827883663" lon="9.592805916488313"><ele>490.5</ele><time>2026-04-03T14:39:10Z</time></trkpt><trkpt lat="40.27544270895534" lon="9.592950845150062"><ele>505.0</ele><time>2026-04-03T14:39:11Z</time></trkpt><trkpt lat="40.27540458275686" lon="9.59311390602701"><ele>519.5</ele><time>2026-04-03T14:39:12.011Z</time></trkpt><trkpt lat="40.27536351910487" lon="9.593277048487273"><ele>534.0</ele><time>2026-04-03T14:39:13.02Z</time></trkpt><trkpt lat="40.27519609001175" lon="9.593861757400461"><ele>549.5</ele><time>2026-04-03T14:39:16.014Z</time></trkpt><trkpt lat="40.27513308520352" lon="9.594079280079448"><ele>565.0</ele><time>2026-04-03T14:39:17.021Z</time></trkpt><trkpt lat="40.2747207787263" lon="9.5976751763463"><ele>528.3333333333334</ele><time>2026-04-03T14:39:33Z</time></trkpt><trkpt lat="40.27463145993503" lon="9.597826506222946"><ele>491.66666666666663</ele><time>2026-04-03T14:39:34Z</time></trkpt><trkpt lat="40.27443168199416" lon="9.59787604222672"><ele>455.0</ele><time>2026-04-03T14:39:35Z</time></trkpt><trkpt lat="40.27427537179425" lon="9.597909248268493"><ele>446.66666666666663</ele><time>2026-04-03T14:39:36Z</time></trkpt><trkpt lat="40.274110302707506" lon="9.59789298868294"><ele>438.33333333333337</ele><time>2026-04-03T14:39:37Z</time></trkpt><trkpt lat="40.27393891438619" lon="9.597863855555323"><ele>430.0</ele><time>2026-04-03T14:39:38Z</time></trkpt><trkpt lat="40.27376823043326" lon="9.597848435316491"><ele>428.33333333333337</ele><time>2026-04-03T14:39:39Z</time></trkpt><trkpt lat="40.27360089326697" lon="9.59785298673325"><ele>426.66666666666663</ele><time>2026-04-03T14:39:40Z</time></trkpt><trkpt lat="40.27344198628547" lon="9.597851316931651"><ele>425.0</ele><time>2026-04-03T14:39:41Z</time></trkpt><trkpt lat="40.273283911180215" lon="9.597847541760943"><ele>425.0</ele><time>2026-04-03T14:39:42Z</time></trkpt><trkpt lat="40.2731302065624" lon="9.597854377424339"><ele>425.0</ele><time>2026-04-03T14:39:43Z</time></trkpt><trkpt lat="40.272981517808695" lon="9.597876487647353"><ele>425.0</ele><time>2026-04-03T14:39:44Z</time></trkpt><trkpt lat="40.27285025259845" lon="9.597933096930495"><ele>425.0</ele><time>2026-04-03T14:39:45Z</time></trkpt><trkpt lat="40.27274667128506" lon="9.598041961649123"><ele>429.0</ele><time>2026-04-03T14:39:46Z</time></trkpt><trkpt lat="40.27268008060615" lon="9.598197340812478"><ele>433.0</ele><time>2026-04-03T14:39:47Z</time></trkpt><trkpt lat="40.27261503664658" lon="9.598360141043734"><ele>437.0</ele><time>2026-04-03T14:39:48Z</time></trkpt><trkpt lat="40.27254760865754" lon="9.59851342228148"><ele>441.0</ele><time>2026-04-03T14:39:49Z</time></trkpt><trkpt lat="40.27248433492905" lon="9.598649942876667"><ele>437.4</ele><time>2026-04-03T14:39:50Z</time></trkpt><trkpt lat="40.2724253926833" lon="9.598774772706587"><ele>433.8</ele><time>2026-04-03T14:39:51Z</time></trkpt><trkpt lat="40.27237013642106" lon="9.598886759118665"><ele>430.2</ele><time>2026-04-03T14:39:52Z</time></trkpt><trkpt lat="40.27233817624057" lon="9.598994024037275"><ele>426.59999999999997</ele><time>2026-04-03T14:39:53Z</time></trkpt><trkpt lat="40.27235141755614" lon="9.599101895310033"><ele>423.0</ele><time>2026-04-03T14:39:54Z</time></trkpt><trkpt lat="40.272414466601674" lon="9.599179743171259"><ele>423.0</ele><time>2026-04-03T14:39:55Z</time></trkpt><trkpt lat="40.27249723405953" lon="9.599211073401273"><ele>423.0</ele><time>2026-04-03T14:39:56Z</time></trkpt><trkpt lat="40.27260493570672" lon="9.599158948900707"><ele>423.0</ele><time>2026-04-03T14:39:57Z</time></trkpt><trkpt lat="40.27266652393485" lon="9.599028032193132"><ele>423.0</ele><time>2026-04-03T14:39:58Z</time></trkpt><trkpt lat="40.27272221168321" lon="9.598904892477185"><ele>423.0</ele><time>2026-04-03T14:39:59Z</time></trkpt><trkpt lat="40.27278858651604" lon="9.598757284129322"><ele>427.5</ele><time>2026-04-03T14:40:00Z</time></trkpt><trkpt lat="40.272851044801975" lon="9.598618136519873"><ele>432.0</ele><time>2026-04-03T14:40:01Z</time></trkpt><trkpt lat="40.272912228860385" lon="9.598481827611751"><ele>436.5</ele><time>2026-04-03T14:40:02Z</time></trkpt><trkpt lat="40.272971087810326" lon="9.598358275035833"><ele>441.0</ele><time>2026-04-03T14:40:03Z</time></trkpt><trkpt lat="40.27304221522403" lon="9.598265863634195"><ele>437.8</ele><time>2026-04-03T14:40:04Z</time></trkpt><trkpt lat="40.27314050043854" lon="9.59823573008941"><ele>434.6</ele><time>2026-04-03T14:40:05Z</time></trkpt><trkpt lat="40.27323948469848" lon="9.598256588220435"><ele>431.4</ele><time>2026-04-03T14:40:06Z</time></trkpt><trkpt lat="40.273337894838654" lon="9.598270428443195"><ele>428.2</ele><time>2026-04-03T14:40:07Z</time></trkpt><trkpt lat="40.27343160476284" lon="9.5982970428307"><ele>425.0</ele><time>2026-04-03T14:40:08Z</time></trkpt><trkpt lat="40.27352750047595" lon="9.598328849617705"><ele>425.0</ele><time>2026-04-03T14:40:09Z</time></trkpt><trkpt lat="40.27362056688247" lon="9.59837478004594"><ele>425.0</ele><time>2026-04-03T14:40:10Z</time></trkpt><trkpt lat="40.2737095048428" lon="9.598440941050331"><ele>425.0</ele><time>2026-04-03T14:40:11Z</time></trkpt><trkpt lat="40.27379315901795" lon="9.598522949122685"><ele>425.0</ele><time>2026-04-03T14:40:12Z</time></trkpt><trkpt lat="40.27386283824252" lon="9.598620148809061"><ele>425.0</ele><time>2026-04-03T14:40:13Z</time></trkpt><trkpt lat="40.27391975842636" lon="9.598738190144111"><ele>419.75</ele><time>2026-04-03T14:40:14Z</time></trkpt><trkpt lat="40.27398701672609" lon="9.598858573532203"><ele>414.5</ele><time>2026-04-03T14:40:15Z</time></trkpt><trkpt lat="40.27407979924283" lon="9.598942299876438"><ele>409.25</ele><time>2026-04-03T14:40:16Z</time></trkpt><trkpt lat="40.274210436866355" lon="9.598993907529387"><ele>404.0</ele><time>2026-04-03T14:40:17Z</time></trkpt><trkpt lat="40.27436196969585" lon="9.59901071443369"><ele>404.0</ele><time>2026-04-03T14:40:18Z</time></trkpt><trkpt lat="40.27452412345062" lon="9.599037141553419"><ele>404.0</ele><time>2026-04-03T14:40:19Z</time></trkpt><trkpt lat="40.27468228377062" lon="9.599041664950686"><ele>404.0</ele><time>2026-04-03T14:40:20Z</time></trkpt><trkpt lat="40.274833942446996" lon="9.599059607027467"><ele>405.25</ele><time>2026-04-03T14:40:21Z</time></trkpt><trkpt lat="40.27496750845518" lon="9.599145823840095"><ele>406.5</ele><time>2026-04-03T14:40:22Z</time></trkpt><trkpt lat="40.27509506914616" lon="9.599233975588731"><ele>407.75</ele><time>2026-04-03T14:40:23Z</time></trkpt><trkpt lat="40.275205220697806" lon="9.599322025785602"><ele>409.0</ele><time>2026-04-03T14:40:24Z</time></trkpt><trkpt lat="40.27529871372457" lon="9.599391199163515"><ele>409.00000000000006</ele><time>2026-04-03T14:40:25Z</time></trkpt><trkpt lat="40.27536318613408" lon="9.599460311964688"><ele>409.0</ele><time>2026-04-03T14:40:26Z</time></trkpt><trkpt lat="40.27535797870053" lon="9.599578297367893"><ele>409.0</ele><time>2026-04-03T14:40:27Z</time></trkpt><trkpt lat="40.27529612284168" lon="9.599676568974095"><ele>409.0</ele><time>2026-04-03T14:40:28Z</time></trkpt><trkpt lat="40.27521217958955" lon="9.599706582530771"><ele>409.00000000000006</ele><time>2026-04-03T14:40:29Z</time></trkpt><trkpt lat="40.27512333167677" lon="9.59967612806041"><ele>409.0</ele><time>2026-04-03T14:40:30Z</time></trkpt><trkpt lat="40.275030785119256" lon="9.599623477745588"><ele>407.75</ele><time>2026-04-03T14:40:31Z</time></trkpt><trkpt lat="40.274927743563474" lon="9.599568777091443"><ele>406.5</ele><time>2026-04-03T14:40:32Z</time></trkpt><trkpt lat="40.274811483353595" lon="9.599514514258027"><ele>405.25</ele><time>2026-04-03T14:40:33Z</time></trkpt><trkpt lat="40.274685747574" lon="9.599479994925721"><ele>404.0</ele><time>2026-04-03T14:40:34Z</time></trkpt><trkpt lat="40.27454346621888" lon="9.59945462752004"><ele>404.0</ele><time>2026-04-03T14:40:35Z</time></trkpt><trkpt lat="40.27439515899541" lon="9.599464399046893"><ele>404.0</ele><time>2026-04-03T14:40:36Z</time></trkpt><trkpt lat="40.27425054213439" lon="9.599478075012874"><ele>404.0</ele><time>2026-04-03T14:40:37Z</time></trkpt><trkpt lat="40.274102378922024" lon="9.599463408704162"><ele>404.0</ele><time>2026-04-03T14:40:38Z</time></trkpt><trkpt lat="40.27396369081441" lon="9.599403719291704"><ele>403.5</ele><time>2026-04-03T14:40:39Z</time></trkpt><trkpt lat="40.27384321665264" lon="9.59930331471346"><ele>403.0</ele><time>2026-04-03T14:40:40Z</time></trkpt><trkpt lat="40.27373963346436" lon="9.599217548102509"><ele>402.5</ele><time>2026-04-03T14:40:41Z</time></trkpt><trkpt lat="40.2736302924165" lon="9.599191287348606"><ele>402.0</ele><time>2026-04-03T14:40:42Z</time></trkpt><trkpt lat="40.27352661536435" lon="9.599235284676876"><ele>402.0</ele><time>2026-04-03T14:40:43Z</time></trkpt><trkpt lat="40.27344385742531" lon="9.599340290206593"><ele>402.0</ele><time>2026-04-03T14:40:44Z</time></trkpt><trkpt lat="40.27340498723708" lon="9.599486707405163"><ele>402.0</ele><time>2026-04-03T14:40:45Z</time></trkpt><trkpt lat="40.273376235380354" lon="9.599639964807315"><ele>402.0</ele><time>2026-04-03T14:40:46Z</time></trkpt><trkpt lat="40.273357070033164" lon="9.599793569222207"><ele>398.0</ele><time>2026-04-03T14:40:47Z</time></trkpt><trkpt lat="40.2733572571783" lon="9.599956645939946"><ele>394.0</ele><time>2026-04-03T14:40:48Z</time></trkpt><trkpt lat="40.2733636442563" lon="9.60013013455736"><ele>390.0</ele><time>2026-04-03T14:40:49Z</time></trkpt><trkpt lat="40.273369017355584" lon="9.600298930616237"><ele>386.0</ele><time>2026-04-03T14:40:50Z</time></trkpt><trkpt lat="40.27337253638328" lon="9.60045785220092"><ele>383.5</ele><time>2026-04-03T14:40:51Z</time></trkpt><trkpt lat="40.27337171230749" lon="9.600617566912014"><ele>381.0</ele><time>2026-04-03T14:40:52Z</time></trkpt><trkpt lat="40.27335217262028" lon="9.600775994715871"><ele>378.5</ele><time>2026-04-03T14:40:53Z</time></trkpt><trkpt lat="40.27330391667482" lon="9.600925393042086"><ele>376.0</ele><time>2026-04-03T14:40:54Z</time></trkpt><trkpt lat="40.27322700251368" lon="9.601059151700264"><ele>373.75</ele><time>2026-04-03T14:40:55Z</time></trkpt><trkpt lat="40.273138225302226" lon="9.601191762454162"><ele>371.5</ele><time>2026-04-03T14:40:56Z</time></trkpt><trkpt lat="40.27304736872365" lon="9.601331798003866"><ele>369.25</ele><time>2026-04-03T14:40:57Z</time></trkpt><trkpt lat="40.27295362211189" lon="9.601468510436414"><ele>367.0</ele><time>2026-04-03T14:40:58Z</time></trkpt><trkpt lat="40.27283800765432" lon="9.601578903135328"><ele>367.0</ele><time>2026-04-03T14:40:59Z</time></trkpt><trkpt lat="40.272696044326956" lon="9.601645456851028"><ele>367.0</ele><time>2026-04-03T14:41:00Z</time></trkpt><trkpt lat="40.27253971659009" lon="9.601682376441188"><ele>367.0</ele><time>2026-04-03T14:41:01Z</time></trkpt><trkpt lat="40.272370165980874" lon="9.601719802667331"><ele>369.66666666666663</ele><time>2026-04-03T14:41:02Z</time></trkpt><trkpt lat="40.272197928224344" lon="9.601784802278594"><ele>372.3333333333333</ele><time>2026-04-03T14:41:03Z</time></trkpt><trkpt lat="40.27203595688781" lon="9.60186197592129"><ele>375.0</ele><time>2026-04-03T14:41:04Z</time></trkpt><trkpt lat="40.271890508519924" lon="9.601969243514601"><ele>373.5</ele><time>2026-04-03T14:41:05Z</time></trkpt><trkpt lat="40.27175897708457" lon="9.602077662730593"><ele>372.0</ele><time>2026-04-03T14:41:06Z</time></trkpt><trkpt lat="40.27163130671493" lon="9.602173629030377"><ele>370.5</ele><time>2026-04-03T14:41:07Z</time></trkpt><trkpt lat="40.271516918736374" lon="9.60228255469703"><ele>369.0</ele><time>2026-04-03T14:41:08Z</time></trkpt><trkpt lat="40.2714189770353" lon="9.602416113556508"><ele>369.0</ele><time>2026-04-03T14:41:09Z</time></trkpt><trkpt lat="40.27134223941193" lon="9.602569181360433"><ele>369.0</ele><time>2026-04-03T14:41:10Z</time></trkpt><trkpt lat="40.27127070868163" lon="9.602723852795831"><ele>369.0</ele><time>2026-04-03T14:41:11Z</time></trkpt><trkpt lat="40.271199094398746" lon="9.602876879038536"><ele>369.0</ele><time>2026-04-03T14:41:12Z</time></trkpt><trkpt lat="40.271126091993246" lon="9.603025879855615"><ele>364.75</ele><time>2026-04-03T14:41:13Z</time></trkpt><trkpt lat="40.271054768219706" lon="9.603175646462926"><ele>360.5</ele><time>2026-04-03T14:41:14Z</time></trkpt><trkpt lat="40.270983308057886" lon="9.603321833004207"><ele>356.25</ele><time>2026-04-03T14:41:15Z</time></trkpt><trkpt lat="40.270907375027335" lon="9.603459165691257"><ele>352.0</ele><time>2026-04-03T14:41:16Z</time></trkpt><trkpt lat="40.27082738856223" lon="9.603595575937145"><ele>352.8</ele><time>2026-04-03T14:41:17Z</time></trkpt><trkpt lat="40.27072738469212" lon="9.603705994591728"><ele>353.6</ele><time>2026-04-03T14:41:18Z</time></trkpt><trkpt lat="40.27062007518685" lon="9.60378005588705"><ele>354.40000000000003</ele><time>2026-04-03T14:41:19Z</time></trkpt><trkpt lat="40.27052730093879" lon="9.603846410308854"><ele>355.20000000000005</ele><time>2026-04-03T14:41:20Z</time></trkpt><trkpt lat="40.270493714091764" lon="9.603951284299708"><ele>356.0</ele><time>2026-04-03T14:41:21Z</time></trkpt><trkpt lat="40.27052033469384" lon="9.604057572304574"><ele>356.0</ele><time>2026-04-03T14:41:22Z</time></trkpt><trkpt lat="40.27058639642071" lon="9.60415060685521"><ele>356.0</ele><time>2026-04-03T14:41:23Z</time></trkpt><trkpt lat="40.270692642605994" lon="9.604179059675467"><ele>356.0</ele><time>2026-04-03T14:41:24Z</time></trkpt><trkpt lat="40.270805809867575" lon="9.604068670916178"><ele>356.0</ele><time>2026-04-03T14:41:25Z</time></trkpt><trkpt lat="40.27090971033829" lon="9.603937347462905"><ele>355.0</ele><time>2026-04-03T14:41:26Z</time></trkpt><trkpt lat="40.271026086353935" lon="9.60387648593706"><ele>354.0</ele><time>2026-04-03T14:41:27Z</time></trkpt><trkpt lat="40.271117594423096" lon="9.603802056363236"><ele>353.0</ele><time>2026-04-03T14:41:28Z</time></trkpt><trkpt lat="40.27126081062706" lon="9.603726798487205"><ele>352.0</ele><time>2026-04-03T14:41:29Z</time></trkpt><trkpt lat="40.27141109284321" lon="9.603634612335918"><ele>347.66666666666663</ele><time>2026-04-03T14:41:30Z</time></trkpt><trkpt lat="40.2715571814166" lon="9.603542442677929"><ele>343.3333333333333</ele><time>2026-04-03T14:41:31Z</time></trkpt><trkpt lat="40.27169499962109" lon="9.60346266315364"><ele>339.0</ele><time>2026-04-03T14:41:32Z</time></trkpt><trkpt lat="40.27182676895101" lon="9.60339743421971"><ele>339.0</ele><time>2026-04-03T14:41:33Z</time></trkpt><trkpt lat="40.27195141987517" lon="9.60338461161132"><ele>339.0</ele><time>2026-04-03T14:41:34Z</time></trkpt><trkpt lat="40.27206833647262" lon="9.603444393247575"><ele>339.0</ele><time>2026-04-03T14:41:35Z</time></trkpt><trkpt lat="40.27216349173415" lon="9.603558326340725"><ele>339.0</ele><time>2026-04-03T14:41:36Z</time></trkpt><trkpt lat="40.27225478756505" lon="9.603689185008513"><ele>334.75</ele><time>2026-04-03T14:41:37Z</time></trkpt><trkpt lat="40.272362905836076" lon="9.603794008240072"><ele>330.5</ele><time>2026-04-03T14:41:38Z</time></trkpt><trkpt lat="40.27249448072561" lon="9.60382570902645"><ele>326.25</ele><time>2026-04-03T14:41:39Z</time></trkpt><trkpt lat="40.2726322839554" lon="9.603767715991188"><ele>322.0</ele><time>2026-04-03T14:41:40Z</time></trkpt><trkpt lat="40.2727539329095" lon="9.603714313299372"><ele>322.0</ele><time>2026-04-03T14:41:41Z</time></trkpt><trkpt lat="40.272848789533015" lon="9.603692526124515"><ele>322.0</ele><time>2026-04-03T14:41:42Z</time></trkpt><trkpt lat="40.27294223918722" lon="9.6037916263708"><ele>322.0</ele><time>2026-04-03T14:41:43Z</time></trkpt><trkpt lat="40.2730036254039" lon="9.60396418485413"><ele>322.0</ele><time>2026-04-03T14:41:44Z</time></trkpt><trkpt lat="40.27305872227426" lon="9.604133562049778"><ele>322.5</ele><time>2026-04-03T14:41:45Z</time></trkpt><trkpt lat="40.27313131127791" lon="9.604296809308169"><ele>323.0</ele><time>2026-04-03T14:41:46Z</time></trkpt><trkpt lat="40.27322574900323" lon="9.604430170194359"><ele>323.5</ele><time>2026-04-03T14:41:47Z</time></trkpt><trkpt lat="40.273354226212305" lon="9.604498707287616"><ele>324.0</ele><time>2026-04-03T14:41:48Z</time></trkpt><trkpt lat="40.273504635413964" lon="9.604494659976073"><ele>324.0</ele><time>2026-04-03T14:41:49Z</time></trkpt><trkpt lat="40.27365744839042" lon="9.604467378570579"><ele>324.0</ele><time>2026-04-03T14:41:50Z</time></trkpt><trkpt lat="40.273803461977664" lon="9.604455143105005"><ele>324.0</ele><time>2026-04-03T14:41:51Z</time></trkpt><trkpt lat="40.2739497997418" lon="9.604452357925075"><ele>324.0</ele><time>2026-04-03T14:41:52Z</time></trkpt><trkpt lat="40.27409506509708" lon="9.60447126115269"><ele>319.25</ele><time>2026-04-03T14:41:53Z</time></trkpt><trkpt lat="40.27422872865132" lon="9.604524743636714"><ele>314.5</ele><time>2026-04-03T14:41:54Z</time></trkpt><trkpt lat="40.27435192499848" lon="9.60461451370574"><ele>309.75</ele><time>2026-04-03T14:41:55Z</time></trkpt><trkpt lat="40.274463567307876" lon="9.604716372181988"><ele>305.0</ele><time>2026-04-03T14:41:56Z</time></trkpt><trkpt lat="40.27458137326511" lon="9.604803898057863"><ele>305.0</ele><time>2026-04-03T14:41:57Z</time></trkpt><trkpt lat="40.27470264769144" lon="9.604888823139133"><ele>305.0</ele><time>2026-04-03T14:41:58Z</time></trkpt><trkpt lat="40.27481801417653" lon="9.604980985722715"><ele>305.0</ele><time>2026-04-03T14:41:59Z</time></trkpt><trkpt lat="40.27493889422283" lon="9.60507425223709"><ele>305.0</ele><time>2026-04-03T14:42:00Z</time></trkpt><trkpt lat="40.275065338747254" lon="9.605152025429964"><ele>305.75</ele><time>2026-04-03T14:42:01Z</time></trkpt><trkpt lat="40.275202449859194" lon="9.60521235839057"><ele>306.5</ele><time>2026-04-03T14:42:02Z</time></trkpt><trkpt lat="40.27534022951837" lon="9.60527740806213"><ele>307.25</ele><time>2026-04-03T14:42:03Z</time></trkpt><trkpt lat="40.27546921957487" lon="9.60535771318937"><ele>308.0</ele><time>2026-04-03T14:42:04Z</time></trkpt><trkpt lat="40.275580852533224" lon="9.605453652737141"><ele>307.0</ele><time>2026-04-03T14:42:05Z</time></trkpt><trkpt lat="40.27567489800859" lon="9.605539493516613"><ele>306.0</ele><time>2026-04-03T14:42:06Z</time></trkpt><trkpt lat="40.27576355283659" lon="9.605621207770401"><ele>305.0</ele><time>2026-04-03T14:42:07Z</time></trkpt><trkpt lat="40.27582737721078" lon="9.605709887461993"><ele>304.0</ele><time>2026-04-03T14:42:08Z</time></trkpt><trkpt lat="40.27585369455833" lon="9.605820461303423"><ele>303.0</ele><time>2026-04-03T14:42:09Z</time></trkpt><trkpt lat="40.27582234252951" lon="9.605914459896592"><ele>303.0</ele><time>2026-04-03T14:42:10Z</time></trkpt><trkpt lat="40.275748066402166" lon="9.605955087741602"><ele>303.0</ele><time>2026-04-03T14:42:11Z</time></trkpt><trkpt lat="40.27565987272335" lon="9.605932964055935"><ele>303.0</ele><time>2026-04-03T14:42:12Z</time></trkpt><trkpt lat="40.27555930408397" lon="9.60587259831175"><ele>303.0</ele><time>2026-04-03T14:42:13Z</time></trkpt><trkpt lat="40.27542301916248" lon="9.605841446562977"><ele>303.0</ele><time>2026-04-03T14:42:14Z</time></trkpt><trkpt lat="40.27525750629509" lon="9.605894075148262"><ele>300.3333333333333</ele><time>2026-04-03T14:42:15Z</time></trkpt><trkpt lat="40.27507195194182" lon="9.606002468641133"><ele>297.66666666666663</ele><time>2026-04-03T14:42:16Z</time></trkpt><trkpt lat="40.274873222752795" lon="9.606097195609905"><ele>295.0</ele><time>2026-04-03T14:42:17Z</time></trkpt><trkpt lat="40.27467292397406" lon="9.606097077603408"><ele>295.0</ele><time>2026-04-03T14:42:18Z</time></trkpt><trkpt lat="40.27449441534887" lon="9.606118256481869"><ele>295.0</ele><time>2026-04-03T14:42:19Z</time></trkpt><trkpt lat="40.27433815803181" lon="9.606122164918402"><ele>295.0</ele><time>2026-04-03T14:42:20Z</time></trkpt><trkpt lat="40.2741984735157" lon="9.606183681466593"><ele>292.0</ele><time>2026-04-03T14:42:21Z</time></trkpt><trkpt lat="40.2740884825829" lon="9.606338704501976"><ele>289.0</ele><time>2026-04-03T14:42:22Z</time></trkpt><trkpt lat="40.27398481189742" lon="9.606556607839364"><ele>286.0</ele><time>2026-04-03T14:42:23Z</time></trkpt><trkpt lat="40.273876005432356" lon="9.606727060678516"><ele>286.0</ele><time>2026-04-03T14:42:24Z</time></trkpt><trkpt lat="40.27376988151216" lon="9.606855590383157"><ele>286.0</ele><time>2026-04-03T14:42:25Z</time></trkpt><trkpt lat="40.273683046059524" lon="9.606953190830192"><ele>286.0</ele><time>2026-04-03T14:42:26Z</time></trkpt><trkpt lat="40.27361337656711" lon="9.607041870192763"><ele>286.0</ele><time>2026-04-03T14:42:27Z</time></trkpt><trkpt lat="40.273539247696654" lon="9.6071262624359"><ele>283.0</ele><time>2026-04-03T14:42:28Z</time></trkpt><trkpt lat="40.27345341847933" lon="9.607213155731923"><ele>280.0</ele><time>2026-04-03T14:42:29Z</time></trkpt><trkpt lat="40.27335793701268" lon="9.607288051282296"><ele>277.0</ele><time>2026-04-03T14:42:30Z</time></trkpt><trkpt lat="40.27325359812484" lon="9.607349568052737"><ele>274.0</ele><time>2026-04-03T14:42:31Z</time></trkpt><trkpt lat="40.273147068593644" lon="9.60741726977559"><ele>273.75</ele><time>2026-04-03T14:42:32Z</time></trkpt><trkpt lat="40.27305079947448" lon="9.60751208525937"><ele>273.5</ele><time>2026-04-03T14:42:33Z</time></trkpt><trkpt lat="40.27297496782348" lon="9.607630814716682"><ele>273.25</ele><time>2026-04-03T14:42:34Z</time></trkpt><trkpt lat="40.27290071313111" lon="9.607742051675794"><ele>273.0</ele><time>2026-04-03T14:42:35Z</time></trkpt><trkpt lat="40.272805916370515" lon="9.607816203401807"><ele>269.75</ele><time>2026-04-03T14:42:36Z</time></trkpt><trkpt lat="40.272693342297856" lon="9.607845598390675"><ele>266.5</ele><time>2026-04-03T14:42:37Z</time></trkpt><trkpt lat="40.272573253346394" lon="9.607847259114855"><ele>263.25</ele><time>2026-04-03T14:42:38Z</time></trkpt><trkpt lat="40.27245061392004" lon="9.60783597517763"><ele>260.0</ele><time>2026-04-03T14:42:39Z</time></trkpt><trkpt lat="40.272324773554146" lon="9.607843235686584"><ele>259.25</ele><time>2026-04-03T14:42:40Z</time></trkpt><trkpt lat="40.27220522885721" lon="9.60784206554052"><ele>258.5</ele><time>2026-04-03T14:42:41Z</time></trkpt><trkpt lat="40.27208749948258" lon="9.60784801387195"><ele>257.75</ele><time>2026-04-03T14:42:42Z</time></trkpt><trkpt lat="40.27194426804885" lon="9.607868871922811"><ele>257.0</ele><time>2026-04-03T14:42:43Z</time></trkpt><trkpt lat="40.271825670806805" lon="9.608007460548412"><ele>257.0</ele><time>2026-04-03T14:42:44Z</time></trkpt><trkpt lat="40.27184824189566" lon="9.608189255979719"><ele>257.0</ele><time>2026-04-03T14:42:47Z</time></trkpt><trkpt lat="40.27194737757759" lon="9.608279228816347"><ele>257.0</ele><time>2026-04-03T14:42:48Z</time></trkpt><trkpt lat="40.27208427402009" lon="9.608305313523823"><ele>257.0</ele><time>2026-04-03T14:42:49Z</time></trkpt><trkpt lat="40.272221179144125" lon="9.608324295638807"><ele>257.75</ele><time>2026-04-03T14:42:50Z</time></trkpt><trkpt lat="40.27235012881868" lon="9.608386323897047"><ele>258.5</ele><time>2026-04-03T14:42:51Z</time></trkpt><trkpt lat="40.27246557181234" lon="9.608497565864534"><ele>259.25</ele><time>2026-04-03T14:42:52Z</time></trkpt><trkpt lat="40.272578406288545" lon="9.608638259505629"><ele>260.0</ele><time>2026-04-03T14:42:53Z</time></trkpt><trkpt lat="40.272707808327425" lon="9.608748902025704"><ele>257.25</ele><time>2026-04-03T14:42:54Z</time></trkpt><trkpt lat="40.272838794415264" lon="9.608837797407148"><ele>254.5</ele><time>2026-04-03T14:42:55Z</time></trkpt><trkpt lat="40.2729613832193" lon="9.608916024642584"><ele>251.75</ele><time>2026-04-03T14:42:56Z</time></trkpt><trkpt lat="40.27308895672644" lon="9.608997206818582"><ele>249.0</ele><time>2026-04-03T14:42:57Z</time></trkpt><trkpt lat="40.27321767924194" lon="9.609077719118444"><ele>249.0</ele><time>2026-04-03T14:42:58Z</time></trkpt><trkpt lat="40.27335011674413" lon="9.60912693594493"><ele>249.0</ele><time>2026-04-03T14:42:59Z</time></trkpt><trkpt lat="40.273488550010015" lon="9.60916072648961"><ele>249.0</ele><time>2026-04-03T14:43:00Z</time></trkpt><trkpt lat="40.27362309822815" lon="9.60916885551791"><ele>249.0</ele><time>2026-04-03T14:43:01Z</time></trkpt><trkpt lat="40.27375518488044" lon="9.609164648223127"><ele>249.0</ele><time>2026-04-03T14:43:02Z</time></trkpt><trkpt lat="40.27388614444233" lon="9.609143083456967"><ele>249.0</ele><time>2026-04-03T14:43:03Z</time></trkpt><trkpt lat="40.274021668554134" lon="9.609121849807517"><ele>249.0</ele><time>2026-04-03T14:43:04Z</time></trkpt><trkpt lat="40.27415841360931" lon="9.609102064114836"><ele>249.0</ele><time>2026-04-03T14:43:05Z</time></trkpt><trkpt lat="40.274292128632794" lon="9.609132488511252"><ele>247.75</ele><time>2026-04-03T14:43:06Z</time></trkpt><trkpt lat="40.27441792393594" lon="9.609182685681938"><ele>246.5</ele><time>2026-04-03T14:43:07Z</time></trkpt><trkpt lat="40.27454137298178" lon="9.609247409934495"><ele>245.25</ele><time>2026-04-03T14:43:08Z</time></trkpt><trkpt lat="40.2746711278508" lon="9.609315194889145"><ele>244.0</ele><time>2026-04-03T14:43:09Z</time></trkpt><trkpt lat="40.27480439481912" lon="9.609389940589004"><ele>243.0</ele><time>2026-04-03T14:43:10Z</time></trkpt><trkpt lat="40.27492980701174" lon="9.609471854445903"><ele>242.0</ele><time>2026-04-03T14:43:11Z</time></trkpt><trkpt lat="40.27504665116628" lon="9.609568944874159"><ele>241.0</ele><time>2026-04-03T14:43:12Z</time></trkpt><trkpt lat="40.27516357261671" lon="9.609663539334802"><ele>240.0</ele><time>2026-04-03T14:43:13Z</time></trkpt><trkpt lat="40.27527328475266" lon="9.609758880942302"><ele>237.5</ele><time>2026-04-03T14:43:14Z</time></trkpt><trkpt lat="40.27538902236779" lon="9.609840168357051"><ele>235.0</ele><time>2026-04-03T14:43:15Z</time></trkpt><trkpt lat="40.275500600662546" lon="9.609914479268248"><ele>232.5</ele><time>2026-04-03T14:43:16Z</time></trkpt><trkpt lat="40.2756191774646" lon="9.609952984631084"><ele>230.0</ele><time>2026-04-03T14:43:17Z</time></trkpt><trkpt lat="40.27573459371784" lon="9.609964578973587"><ele>230.0</ele><time>2026-04-03T14:43:18Z</time></trkpt><trkpt lat="40.27583811528062" lon="9.610005639693616"><ele>230.0</ele><time>2026-04-03T14:43:19Z</time></trkpt><trkpt lat="40.27593756400204" lon="9.610024971746178"><ele>230.0</ele><time>2026-04-03T14:43:20Z</time></trkpt><trkpt lat="40.276008013795405" lon="9.610066689627459"><ele>230.0</ele><time>2026-04-03T14:43:21Z</time></trkpt><trkpt lat="40.27604821067474" lon="9.610144058175258"><ele>230.0</ele><time>2026-04-03T14:43:22Z</time></trkpt><trkpt lat="40.27600708655783" lon="9.61026357229539"><ele>230.0</ele><time>2026-04-03T14:43:23Z</time></trkpt><trkpt lat="40.27592326691235" lon="9.610341094216796"><ele>230.0</ele><time>2026-04-03T14:43:24Z</time></trkpt><trkpt lat="40.27580784145264" lon="9.610320270552926"><ele>230.0</ele><time>2026-04-03T14:43:25Z</time></trkpt><trkpt lat="40.2756946267998" lon="9.610334680519479"><ele>230.0</ele><time>2026-04-03T14:43:26Z</time></trkpt><trkpt lat="40.27557187156459" lon="9.610365630847678"><ele>226.5</ele><time>2026-04-03T14:43:27Z</time></trkpt><trkpt lat="40.27544173951637" lon="9.61042594949214"><ele>223.0</ele><time>2026-04-03T14:43:28Z</time></trkpt><trkpt lat="40.2753082994459" lon="9.610496260232216"><ele>219.5</ele><time>2026-04-03T14:43:29Z</time></trkpt><trkpt lat="40.275177644311164" lon="9.610563439067276"><ele>216.0</ele><time>2026-04-03T14:43:30Z</time></trkpt><trkpt lat="40.27505145032397" lon="9.610625647286918"><ele>216.0</ele><time>2026-04-03T14:43:31Z</time></trkpt><trkpt lat="40.27492383143463" lon="9.610681100610956"><ele>216.0</ele><time>2026-04-03T14:43:32Z</time></trkpt><trkpt lat="40.27479547273312" lon="9.61073109963997"><ele>216.0</ele><time>2026-04-03T14:43:33Z</time></trkpt><trkpt lat="40.27466696663112" lon="9.610774927571015"><ele>216.0</ele><time>2026-04-03T14:43:34Z</time></trkpt><trkpt lat="40.27454477703855" lon="9.610821112884658"><ele>216.60000000000002</ele><time>2026-04-03T14:43:35Z</time></trkpt><trkpt lat="40.274436171763426" lon="9.61089493225438"><ele>217.20000000000002</ele><time>2026-04-03T14:43:36Z</time></trkpt><trkpt lat="40.274352605980944" lon="9.610994362843297"><ele>217.79999999999998</ele><time>2026-04-03T14:43:37Z</time></trkpt><trkpt lat="40.27429514110332" lon="9.611101857346066"><ele>218.39999999999998</ele><time>2026-04-03T14:43:38Z</time></trkpt><trkpt lat="40.27423558657624" lon="9.611193094983967"><ele>219.0</ele><time>2026-04-03T14:43:39Z</time></trkpt><trkpt lat="40.27417043978232" lon="9.611283038636381"><ele>217.2</ele><time>2026-04-03T14:43:40Z</time></trkpt><trkpt lat="40.27410044293442" lon="9.61136498002046"><ele>215.39999999999998</ele><time>2026-04-03T14:43:41Z</time></trkpt><trkpt lat="40.27402707449906" lon="9.611442269666854"><ele>213.6</ele><time>2026-04-03T14:43:42Z</time></trkpt><trkpt lat="40.2739552928937" lon="9.611520917263439"><ele>211.8</ele><time>2026-04-03T14:43:43Z</time></trkpt><trkpt lat="40.27388023395929" lon="9.611593687075116"><ele>210.0</ele><time>2026-04-03T14:43:44Z</time></trkpt><trkpt lat="40.273801696944965" lon="9.611667553493742"><ele>210.0</ele><time>2026-04-03T14:43:45Z</time></trkpt><trkpt lat="40.273715953831065" lon="9.611744116497535"><ele>210.0</ele><time>2026-04-03T14:43:46Z</time></trkpt><trkpt lat="40.27362371930734" lon="9.611824853755731"><ele>210.0</ele><time>2026-04-03T14:43:47Z</time></trkpt><trkpt lat="40.27352582185877" lon="9.61189694087453"><ele>210.0</ele><time>2026-04-03T14:43:48Z</time></trkpt><trkpt lat="40.27342238548366" lon="9.611969403172573"><ele>210.0</ele><time>2026-04-03T14:43:49Z</time></trkpt><trkpt lat="40.27330831091254" lon="9.61202473462013"><ele>206.75</ele><time>2026-04-03T14:43:50Z</time></trkpt><trkpt lat="40.27318757234587" lon="9.61206912195251"><ele>203.5</ele><time>2026-04-03T14:43:51Z</time></trkpt><trkpt lat="40.27306535281503" lon="9.612112765494109"><ele>200.25</ele><time>2026-04-03T14:43:52Z</time></trkpt><trkpt lat="40.27294194161221" lon="9.612156871256746"><ele>197.0</ele><time>2026-04-03T14:43:53Z</time></trkpt><trkpt lat="40.27282210752323" lon="9.612199450026376"><ele>197.0</ele><time>2026-04-03T14:43:54Z</time></trkpt><trkpt lat="40.27271374603123" lon="9.612243267369188"><ele>197.0</ele><time>2026-04-03T14:43:55Z</time></trkpt><trkpt lat="40.27261460717671" lon="9.612284160728594"><ele>197.0</ele><time>2026-04-03T14:43:56Z</time></trkpt><trkpt lat="40.2725258648748" lon="9.612320242944094"><ele>197.0</ele><time>2026-04-03T14:43:57Z</time></trkpt><trkpt lat="40.27244469047089" lon="9.612349119571002"><ele>197.0</ele><time>2026-04-03T14:43:58Z</time></trkpt><trkpt lat="40.27236835502485" lon="9.612365320167873"><ele>197.00000000000003</ele><time>2026-04-03T14:43:59Z</time></trkpt><trkpt lat="40.272292360915074" lon="9.61237762127469"><ele>197.0</ele><time>2026-04-03T14:44:00Z</time></trkpt><trkpt lat="40.272215079204365" lon="9.612382754499148"><ele>197.0</ele><time>2026-04-03T14:44:01Z</time></trkpt><trkpt lat="40.27213849680813" lon="9.612380871824016"><ele>197.0</ele><time>2026-04-03T14:44:02Z</time></trkpt><trkpt lat="40.27206518269028" lon="9.612384566812908"><ele>197.00000000000003</ele><time>2026-04-03T14:44:03Z</time></trkpt><trkpt lat="40.27199265575756" lon="9.612431002625087"><ele>197.0</ele><time>2026-04-03T14:44:04Z</time></trkpt><trkpt lat="40.27195777398677" lon="9.61250763152809"><ele>197.0</ele><time>2026-04-03T14:44:05Z</time></trkpt><trkpt lat="40.271965055573105" lon="9.612664906704994"><ele>197.0</ele><time>2026-04-03T14:44:06Z</time></trkpt><trkpt lat="40.27204452715006" lon="9.612777018252084"><ele>197.0</ele><time>2026-04-03T14:44:07Z</time></trkpt><trkpt lat="40.27218406587694" lon="9.612816135011153"><ele>197.0</ele><time>2026-04-03T14:44:08Z</time></trkpt><trkpt lat="40.272332922075265" lon="9.612800792089681"><ele>197.0</ele><time>2026-04-03T14:44:09Z</time></trkpt><trkpt lat="40.27246050152275" lon="9.612818396032779"><ele>197.0</ele><time>2026-04-03T14:44:10Z</time></trkpt><trkpt lat="40.272577708716184" lon="9.612866449958007"><ele>197.0</ele><time>2026-04-03T14:44:11Z</time></trkpt><trkpt lat="40.27268656978905" lon="9.612931716672442"><ele>197.0</ele><time>2026-04-03T14:44:12Z</time></trkpt><trkpt lat="40.27279107610044" lon="9.613003965589614"><ele>194.0</ele><time>2026-04-03T14:44:13Z</time></trkpt><trkpt lat="40.27289374144538" lon="9.613067417755849"><ele>191.0</ele><time>2026-04-03T14:44:14Z</time></trkpt><trkpt lat="40.27299696829941" lon="9.613132470621002"><ele>188.0</ele><time>2026-04-03T14:44:15Z</time></trkpt><trkpt lat="40.27309528378129" lon="9.613213301945299"><ele>185.0</ele><time>2026-04-03T14:44:16Z</time></trkpt><trkpt lat="40.27318633011744" lon="9.613306696316736"><ele>185.0</ele><time>2026-04-03T14:44:17Z</time></trkpt><trkpt lat="40.273284553373266" lon="9.613400513039768"><ele>185.0</ele><time>2026-04-03T14:44:18Z</time></trkpt><trkpt lat="40.27338328559622" lon="9.613477342106245"><ele>185.0</ele><time>2026-04-03T14:44:19Z</time></trkpt><trkpt lat="40.273486100108094" lon="9.61355193444857"><ele>185.0</ele><time>2026-04-03T14:44:20Z</time></trkpt><trkpt lat="40.273586123660465" lon="9.613608471385445"><ele>183.0</ele><time>2026-04-03T14:44:21Z</time></trkpt><trkpt lat="40.27367585287227" lon="9.613679387625542"><ele>181.0</ele><time>2026-04-03T14:44:22Z</time></trkpt><trkpt lat="40.27377862341113" lon="9.613715787333618"><ele>179.0</ele><time>2026-04-03T14:44:23Z</time></trkpt><trkpt lat="40.27388368136558" lon="9.613749500537166"><ele>177.0</ele><time>2026-04-03T14:44:24Z</time></trkpt><trkpt lat="40.274002144551375" lon="9.613764520438584"><ele>175.0</ele><time>2026-04-03T14:44:25Z</time></trkpt><trkpt lat="40.274124215692474" lon="9.613774115187422"><ele>174.8</ele><time>2026-04-03T14:44:26Z</time></trkpt><trkpt lat="40.27424280494618" lon="9.613805722504308"><ele>174.6</ele><time>2026-04-03T14:44:27Z</time></trkpt><trkpt lat="40.274353755368914" lon="9.613826761420333"><ele>174.39999999999998</ele><time>2026-04-03T14:44:28Z</time></trkpt><trkpt lat="40.27446107539164" lon="9.613850306154047"><ele>174.2</ele><time>2026-04-03T14:44:29Z</time></trkpt><trkpt lat="40.274566713378476" lon="9.613872283452087"><ele>174.0</ele><time>2026-04-03T14:44:30Z</time></trkpt><trkpt lat="40.274666058376035" lon="9.613909149188245"><ele>174.0</ele><time>2026-04-03T14:44:31Z</time></trkpt><trkpt lat="40.274760825114384" lon="9.613951361856117"><ele>174.0</ele><time>2026-04-03T14:44:32Z</time></trkpt><trkpt lat="40.27485627236293" lon="9.613990108369842"><ele>174.0</ele><time>2026-04-03T14:44:33Z</time></trkpt><trkpt lat="40.27495114293279" lon="9.614035634543765"><ele>174.0</ele><time>2026-04-03T14:44:34Z</time></trkpt><trkpt lat="40.275045398469736" lon="9.614089196239878"><ele>174.0</ele><time>2026-04-03T14:44:35Z</time></trkpt><trkpt lat="40.27512913332126" lon="9.614146161074872"><ele>173.2</ele><time>2026-04-03T14:44:36Z</time></trkpt><trkpt lat="40.275210486578935" lon="9.614223494994912"><ele>172.39999999999998</ele><time>2026-04-03T14:44:37Z</time></trkpt><trkpt lat="40.2753056974723" lon="9.614293159295014"><ele>171.6</ele><time>2026-04-03T14:44:38Z</time></trkpt><trkpt lat="40.27540782009865" lon="9.614342761897502"><ele>170.8</ele><time>2026-04-03T14:44:39Z</time></trkpt><trkpt lat="40.27552293144329" lon="9.614373131997763"><ele>170.0</ele><time>2026-04-03T14:44:40Z</time></trkpt><trkpt lat="40.275639929816855" lon="9.614389806048381"><ele>169.75</ele><time>2026-04-03T14:44:41Z</time></trkpt><trkpt lat="40.27575883125778" lon="9.61441278911127"><ele>169.5</ele><time>2026-04-03T14:44:42Z</time></trkpt><trkpt lat="40.27587947078223" lon="9.614429257651032"><ele>169.25</ele><time>2026-04-03T14:44:43Z</time></trkpt><trkpt lat="40.27600342046794" lon="9.614413303655278"><ele>169.0</ele><time>2026-04-03T14:44:44Z</time></trkpt><trkpt lat="40.276128496992555" lon="9.614380211725242"><ele>169.0</ele><time>2026-04-03T14:44:45Z</time></trkpt><trkpt lat="40.276253663777" lon="9.614350815131202"><ele>169.0</ele><time>2026-04-03T14:44:46Z</time></trkpt><trkpt lat="40.27637788039836" lon="9.614342025893205"><ele>169.0</ele><time>2026-04-03T14:44:47Z</time></trkpt><trkpt lat="40.276497893557774" lon="9.61435880786326"><ele>169.0</ele><time>2026-04-03T14:44:48Z</time></trkpt><trkpt lat="40.27661263569055" lon="9.614376270465591"><ele>168.39999999999998</ele><time>2026-04-03T14:44:49Z</time></trkpt><trkpt lat="40.27673031269558" lon="9.61440741253067"><ele>167.8</ele><time>2026-04-03T14:44:50Z</time></trkpt><trkpt lat="40.27682548015994" lon="9.614474680335954"><ele>167.2</ele><time>2026-04-03T14:44:51Z</time></trkpt><trkpt lat="40.27692641647449" lon="9.61450385987019"><ele>166.60000000000002</ele><time>2026-04-03T14:44:52Z</time></trkpt><trkpt lat="40.27702181002785" lon="9.614560876323097"><ele>166.0</ele><time>2026-04-03T14:44:53Z</time></trkpt><trkpt lat="40.27710982792138" lon="9.61460677077936"><ele>164.20000000000002</ele><time>2026-04-03T14:44:54Z</time></trkpt><trkpt lat="40.27720055714221" lon="9.614650412617044"><ele>162.4</ele><time>2026-04-03T14:44:55Z</time></trkpt><trkpt lat="40.277288402346564" lon="9.614702681177679"><ele>160.6</ele><time>2026-04-03T14:44:56Z</time></trkpt><trkpt lat="40.27736966095102" lon="9.614760411458088"><ele>158.8</ele><time>2026-04-03T14:44:57Z</time></trkpt><trkpt lat="40.27744942733972" lon="9.614829204140833"><ele>157.0</ele><time>2026-04-03T14:44:58Z</time></trkpt><trkpt lat="40.27751998219391" lon="9.614906509220297"><ele>157.0</ele><time>2026-04-03T14:44:59Z</time></trkpt><trkpt lat="40.27758314759209" lon="9.615000751863736"><ele>157.0</ele><time>2026-04-03T14:45:00Z</time></trkpt><trkpt lat="40.27764622146118" lon="9.615088611742166"><ele>157.0</ele><time>2026-04-03T14:45:01Z</time></trkpt><trkpt lat="40.27771357363065" lon="9.615181266085473"><ele>157.0</ele><time>2026-04-03T14:45:02Z</time></trkpt><trkpt lat="40.27779103399332" lon="9.615275111394011"><ele>157.0</ele><time>2026-04-03T14:45:03Z</time></trkpt><trkpt lat="40.27788600276849" lon="9.615369106173452"><ele>155.25</ele><time>2026-04-03T14:45:04Z</time></trkpt><trkpt lat="40.27797684873226" lon="9.615489553812647"><ele>153.5</ele><time>2026-04-03T14:45:05Z</time></trkpt><trkpt lat="40.278087700216346" lon="9.615590019207033"><ele>151.75</ele><time>2026-04-03T14:45:06Z</time></trkpt><trkpt lat="40.2781945388843" lon="9.615733678889193"><ele>150.0</ele><time>2026-04-03T14:45:07Z</time></trkpt><trkpt lat="40.27831313710168" lon="9.615867356630648"><ele>150.0</ele><time>2026-04-03T14:45:08Z</time></trkpt><trkpt lat="40.27842210702929" lon="9.615987655084552"><ele>150.0</ele><time>2026-04-03T14:45:09Z</time></trkpt><trkpt lat="40.278526570283745" lon="9.61611427181334"><ele>150.0</ele><time>2026-04-03T14:45:10Z</time></trkpt><trkpt lat="40.27863141780818" lon="9.616245420954224"><ele>150.0</ele><time>2026-04-03T14:45:11Z</time></trkpt><trkpt lat="40.278718807041336" lon="9.616387012533512"><ele>148.25</ele><time>2026-04-03T14:45:12Z</time></trkpt><trkpt lat="40.278801883510866" lon="9.616533992042081"><ele>146.5</ele><time>2026-04-03T14:45:13Z</time></trkpt><trkpt lat="40.278879586950794" lon="9.616684575665921"><ele>144.75</ele><time>2026-04-03T14:45:14Z</time></trkpt><trkpt lat="40.2789437332385" lon="9.616842115357748"><ele>143.0</ele><time>2026-04-03T14:45:15Z</time></trkpt><trkpt lat="40.27900219160626" lon="9.61700170855227"><ele>141.0</ele><time>2026-04-03T14:45:16Z</time></trkpt><trkpt lat="40.27905251740943" lon="9.6171631476908"><ele>139.0</ele><time>2026-04-03T14:45:17Z</time></trkpt><trkpt lat="40.27910204136028" lon="9.617327594350552"><ele>137.0</ele><time>2026-04-03T14:45:18Z</time></trkpt><trkpt lat="40.27915839387722" lon="9.61747530869889"><ele>135.0</ele><time>2026-04-03T14:45:19Z</time></trkpt><trkpt lat="40.27921592871568" lon="9.617626405990807"><ele>135.0</ele><time>2026-04-03T14:45:20Z</time></trkpt><trkpt lat="40.27926793844121" lon="9.617780692322807"><ele>135.0</ele><time>2026-04-03T14:45:21Z</time></trkpt><trkpt lat="40.27931383934688" lon="9.617927587553364"><ele>135.0</ele><time>2026-04-03T14:45:22Z</time></trkpt><trkpt lat="40.279360289695106" lon="9.618074766162948"><ele>135.0</ele><time>2026-04-03T14:45:23Z</time></trkpt><trkpt lat="40.27940954338609" lon="9.618218411244033"><ele>133.6</ele><time>2026-04-03T14:45:24Z</time></trkpt><trkpt lat="40.27945700580115" lon="9.618361108185407"><ele>132.2</ele><time>2026-04-03T14:45:25Z</time></trkpt><trkpt lat="40.27949812458019" lon="9.618479580416658"><ele>130.8</ele><time>2026-04-03T14:45:26Z</time></trkpt><trkpt lat="40.27952952175994" lon="9.618585410594216"><ele>129.4</ele><time>2026-04-03T14:45:27Z</time></trkpt><trkpt lat="40.279561441723715" lon="9.618702204875335"><ele>128.0</ele><time>2026-04-03T14:45:28Z</time></trkpt><trkpt lat="40.27959394443865" lon="9.618822720194578"><ele>128.4</ele><time>2026-04-03T14:45:29Z</time></trkpt><trkpt lat="40.279600071352476" lon="9.618951164915998"><ele>128.8</ele><time>2026-04-03T14:45:30Z</time></trkpt><trkpt lat="40.279622957955766" lon="9.619075728313657"><ele>129.2</ele><time>2026-04-03T14:45:31Z</time></trkpt><trkpt lat="40.27968999759007" lon="9.619178657082406"><ele>129.6</ele><time>2026-04-03T14:45:32Z</time></trkpt><trkpt lat="40.279761506415966" lon="9.619278001966585"><ele>130.0</ele><time>2026-04-03T14:45:33Z</time></trkpt><trkpt lat="40.27981389713872" lon="9.619407216448094"><ele>128.25</ele><time>2026-04-03T14:45:34Z</time></trkpt><trkpt lat="40.279859155986976" lon="9.619559468873353"><ele>126.5</ele><time>2026-04-03T14:45:35Z</time></trkpt><trkpt lat="40.279916889327474" lon="9.619713541299834"><ele>124.75</ele><time>2026-04-03T14:45:36Z</time></trkpt><trkpt lat="40.27997803855752" lon="9.619876491029304"><ele>123.0</ele><time>2026-04-03T14:45:37Z</time></trkpt><trkpt lat="40.28003529255013" lon="9.620039714288213"><ele>123.0</ele><time>2026-04-03T14:45:38Z</time></trkpt><trkpt lat="40.2800898021528" lon="9.620195889147842"><ele>123.0</ele><time>2026-04-03T14:45:39Z</time></trkpt><trkpt lat="40.28014864272127" lon="9.620345470689648"><ele>123.0</ele><time>2026-04-03T14:45:40Z</time></trkpt><trkpt lat="40.28020688629325" lon="9.620492205707773"><ele>123.0</ele><time>2026-04-03T14:45:41Z</time></trkpt><trkpt lat="40.2802571367658" lon="9.620631272357539"><ele>121.4</ele><time>2026-04-03T14:45:42Z</time></trkpt><trkpt lat="40.280318249998686" lon="9.62076800268463"><ele>119.80000000000001</ele><time>2026-04-03T14:45:43Z</time></trkpt><trkpt lat="40.28037564823796" lon="9.620898577214906"><ele>118.2</ele><time>2026-04-03T14:45:44Z</time></trkpt><trkpt lat="40.28042607684765" lon="9.621020767192205"><ele>116.6</ele><time>2026-04-03T14:45:45Z</time></trkpt><trkpt lat="40.2804709230083" lon="9.621139999984054"><ele>115.0</ele><time>2026-04-03T14:45:46Z</time></trkpt><trkpt lat="40.28051829645245" lon="9.621259785096262"><ele>114.8</ele><time>2026-04-03T14:45:47Z</time></trkpt><trkpt lat="40.2805705191425" lon="9.62137539742219"><ele>114.6</ele><time>2026-04-03T14:45:48Z</time></trkpt><trkpt lat="40.280622254918754" lon="9.621487154933767"><ele>114.4</ele><time>2026-04-03T14:45:49Z</time></trkpt><trkpt lat="40.280666125415124" lon="9.621602330167994"><ele>114.2</ele><time>2026-04-03T14:45:50Z</time></trkpt><trkpt lat="40.280712651334824" lon="9.621714124871119"><ele>114.0</ele><time>2026-04-03T14:45:51Z</time></trkpt><trkpt lat="40.280758950051904" lon="9.621825960415121"><ele>114.0</ele><time>2026-04-03T14:45:52Z</time></trkpt><trkpt lat="40.28080506105583" lon="9.621938180029288"><ele>114.0</ele><time>2026-04-03T14:45:53Z</time></trkpt><trkpt lat="40.28085409443938" lon="9.62204821247645"><ele>114.0</ele><time>2026-04-03T14:45:54Z</time></trkpt><trkpt lat="40.280899591538095" lon="9.62215932525802"><ele>114.0</ele><time>2026-04-03T14:45:55Z</time></trkpt><trkpt lat="40.280944990728926" lon="9.62226896317787"><ele>114.0</ele><time>2026-04-03T14:45:56.001Z</time></trkpt><trkpt lat="40.28098922903116" lon="9.622378859562694"><ele>112.4</ele><time>2026-04-03T14:45:57.001Z</time></trkpt><trkpt lat="40.2810379093373" lon="9.622489818839776"><ele>110.80000000000001</ele><time>2026-04-03T14:45:58.001Z</time></trkpt><trkpt lat="40.281086929376315" lon="9.622606944624295"><ele>109.19999999999999</ele><time>2026-04-03T14:45:59.001Z</time></trkpt><trkpt lat="40.28114212035496" lon="9.62273211061466"><ele>107.6</ele><time>2026-04-03T14:46:00.001Z</time></trkpt><trkpt lat="40.281199327086036" lon="9.622862259518609"><ele>106.0</ele><time>2026-04-03T14:46:01.001Z</time></trkpt><trkpt lat="40.2812578563941" lon="9.623001813551708"><ele>106.5</ele><time>2026-04-03T14:46:02.001Z</time></trkpt><trkpt lat="40.281314340213896" lon="9.62314895790061"><ele>107.0</ele><time>2026-04-03T14:46:03.001Z</time></trkpt><trkpt lat="40.281377367331444" lon="9.623305269241458"><ele>107.5</ele><time>2026-04-03T14:46:04.001Z</time></trkpt><trkpt lat="40.28144120476392" lon="9.623471788771162"><ele>108.0</ele><time>2026-04-03T14:46:05.001Z</time></trkpt><trkpt lat="40.28150401390632" lon="9.623644883925142"><ele>105.75</ele><time>2026-04-03T14:46:06.001Z</time></trkpt><trkpt lat="40.28156238770718" lon="9.623827859128092"><ele>103.5</ele><time>2026-04-03T14:46:07.001Z</time></trkpt><trkpt lat="40.281611969811365" lon="9.624010785671782"><ele>101.25</ele><time>2026-04-03T14:46:08.001Z</time></trkpt><trkpt lat="40.28165455060809" lon="9.624192652381357"><ele>99.0</ele><time>2026-04-03T14:46:09.001Z</time></trkpt><trkpt lat="40.281698869666286" lon="9.62437770847519"><ele>96.75</ele><time>2026-04-03T14:46:10.001Z</time></trkpt><trkpt lat="40.28173840596812" lon="9.624557121677142"><ele>94.5</ele><time>2026-04-03T14:46:11.001Z</time></trkpt><trkpt lat="40.28178083179986" lon="9.624728811274183"><ele>92.25</ele><time>2026-04-03T14:46:12.001Z</time></trkpt><trkpt lat="40.28182597707994" lon="9.624894703725145"><ele>90.0</ele><time>2026-04-03T14:46:13.001Z</time></trkpt><trkpt lat="40.281857450921876" lon="9.625059330529877"><ele>90.0</ele><time>2026-04-03T14:46:14Z</time></trkpt><trkpt lat="40.28188544197635" lon="9.62522357165972"><ele>90.0</ele><time>2026-04-03T14:46:15Z</time></trkpt><trkpt lat="40.28191173625842" lon="9.625386028942929"><ele>90.0</ele><time>2026-04-03T14:46:16Z</time></trkpt><trkpt lat="40.281937204143524" lon="9.625546397888186"><ele>90.0</ele><time>2026-04-03T14:46:17Z</time></trkpt><trkpt lat="40.28196118939246" lon="9.625707093429318"><ele>88.75</ele><time>2026-04-03T14:46:18Z</time></trkpt><trkpt lat="40.28198877250635" lon="9.625863435015573"><ele>87.5</ele><time>2026-04-03T14:46:19Z</time></trkpt><trkpt lat="40.28201160823658" lon="9.62601513951386"><ele>86.25</ele><time>2026-04-03T14:46:20Z</time></trkpt><trkpt lat="40.28203208616172" lon="9.626168736609296"><ele>85.0</ele><time>2026-04-03T14:46:21Z</time></trkpt><trkpt lat="40.282048628806656" lon="9.626320880107414"><ele>84.0</ele><time>2026-04-03T14:46:22Z</time></trkpt><trkpt lat="40.2820661261093" lon="9.626470886084098"><ele>83.0</ele><time>2026-04-03T14:46:23Z</time></trkpt><trkpt lat="40.28208095850502" lon="9.6266159137691"><ele>82.0</ele><time>2026-04-03T14:46:24Z</time></trkpt><trkpt lat="40.28210285282877" lon="9.62676159125775"><ele>81.0</ele><time>2026-04-03T14:46:25Z</time></trkpt><trkpt lat="40.28212315724298" lon="9.626912438816628"><ele>79.75</ele><time>2026-04-03T14:46:26Z</time></trkpt><trkpt lat="40.28214072215477" lon="9.627064882843703"><ele>78.5</ele><time>2026-04-03T14:46:27Z</time></trkpt><trkpt lat="40.28215889648447" lon="9.627210989117618"><ele>77.25</ele><time>2026-04-03T14:46:28Z</time></trkpt><trkpt lat="40.28218138370033" lon="9.62735625999111"><ele>76.0</ele><time>2026-04-03T14:46:29Z</time></trkpt><trkpt lat="40.28220875121199" lon="9.627501385953519"><ele>76.0</ele><time>2026-04-03T14:46:30Z</time></trkpt><trkpt lat="40.28222912366296" lon="9.62764138708455"><ele>76.0</ele><time>2026-04-03T14:46:31Z</time></trkpt><trkpt lat="40.282248368656816" lon="9.627785093008482"><ele>76.0</ele><time>2026-04-03T14:46:32Z</time></trkpt><trkpt lat="40.28227371459046" lon="9.627938983566318"><ele>76.0</ele><time>2026-04-03T14:46:33Z</time></trkpt><trkpt lat="40.28230622404265" lon="9.628094876661665"><ele>76.75</ele><time>2026-04-03T14:46:34Z</time></trkpt><trkpt lat="40.282345043991434" lon="9.628256879002148"><ele>77.5</ele><time>2026-04-03T14:46:35Z</time></trkpt><trkpt lat="40.28237734963612" lon="9.628423355106"><ele>78.25</ele><time>2026-04-03T14:46:36Z</time></trkpt><trkpt lat="40.28240500513798" lon="9.628593370187437"><ele>79.0</ele><time>2026-04-03T14:46:37Z</time></trkpt><trkpt lat="40.2824452421873" lon="9.628765250520145"><ele>76.5</ele><time>2026-04-03T14:46:38Z</time></trkpt><trkpt lat="40.28250126292262" lon="9.628932505356854"><ele>74.0</ele><time>2026-04-03T14:46:39Z</time></trkpt><trkpt lat="40.28257251650169" lon="9.629085843528358"><ele>71.5</ele><time>2026-04-03T14:46:40Z</time></trkpt><trkpt lat="40.28265444336002" lon="9.629233067854152"><ele>69.0</ele><time>2026-04-03T14:46:41Z</time></trkpt><trkpt lat="40.28273896063615" lon="9.629378740731436"><ele>67.5</ele><time>2026-04-03T14:46:42Z</time></trkpt><trkpt lat="40.282837064056935" lon="9.629505457752087"><ele>66.0</ele><time>2026-04-03T14:46:43Z</time></trkpt><trkpt lat="40.28293586399136" lon="9.629627306816957"><ele>64.5</ele><time>2026-04-03T14:46:44Z</time></trkpt><trkpt lat="40.28303989570794" lon="9.629740151718892"><ele>63.0</ele><time>2026-04-03T14:46:45Z</time></trkpt><trkpt lat="40.28315705219868" lon="9.629832571873298"><ele>63.0</ele><time>2026-04-03T14:46:46Z</time></trkpt><trkpt lat="40.283287662773596" lon="9.629897183542775"><ele>63.0</ele><time>2026-04-03T14:46:47Z</time></trkpt><trkpt lat="40.28341223481709" lon="9.629962506257423"><ele>63.0</ele><time>2026-04-03T14:46:48Z</time></trkpt><trkpt lat="40.283532398857574" lon="9.63002598940699"><ele>63.0</ele><time>2026-04-03T14:46:49Z</time></trkpt><trkpt lat="40.28364629460019" lon="9.630099409742849"><ele>63.0</ele><time>2026-04-03T14:46:50Z</time></trkpt><trkpt lat="40.28376283846815" lon="9.63016978408305"><ele>63.0</ele><time>2026-04-03T14:46:51Z</time></trkpt><trkpt lat="40.28386103001562" lon="9.630267378485444"><ele>63.0</ele><time>2026-04-03T14:46:52Z</time></trkpt><trkpt lat="40.28395988891199" lon="9.630366384918208"><ele>63.0</ele><time>2026-04-03T14:46:53Z</time></trkpt><trkpt lat="40.28406100003181" lon="9.630464301086631"><ele>61.5</ele><time>2026-04-03T14:46:54Z</time></trkpt><trkpt lat="40.28415345294965" lon="9.630574656349188"><ele>60.0</ele><time>2026-04-03T14:46:55Z</time></trkpt><trkpt lat="40.284226588230084" lon="9.630706635385222"><ele>58.5</ele><time>2026-04-03T14:46:56Z</time></trkpt><trkpt lat="40.28426313929831" lon="9.63086116681675"><ele>57.0</ele><time>2026-04-03T14:46:57Z</time></trkpt><trkpt lat="40.284291641870674" lon="9.631014180231745"><ele>56.0</ele><time>2026-04-03T14:46:58Z</time></trkpt><trkpt lat="40.28433045969375" lon="9.631163091385186"><ele>55.0</ele><time>2026-04-03T14:46:59Z</time></trkpt><trkpt lat="40.284356329022756" lon="9.631314752244599"><ele>54.0</ele><time>2026-04-03T14:47:00Z</time></trkpt><trkpt lat="40.284364203745234" lon="9.631465523095944"><ele>53.0</ele><time>2026-04-03T14:47:01Z</time></trkpt><trkpt lat="40.284352796957215" lon="9.63161323631425"><ele>53.0</ele><time>2026-04-03T14:47:02Z</time></trkpt><trkpt lat="40.284323614751386" lon="9.631755769962368"><ele>53.0</ele><time>2026-04-03T14:47:03Z</time></trkpt><trkpt lat="40.28428930457612" lon="9.631896736955357"><ele>53.0</ele><time>2026-04-03T14:47:04Z</time></trkpt><trkpt lat="40.28426987796553" lon="9.63204246742225"><ele>53.0</ele><time>2026-04-03T14:47:05Z</time></trkpt><trkpt lat="40.28425448184236" lon="9.632187168838518"><ele>51.8</ele><time>2026-04-03T14:47:06Z</time></trkpt><trkpt lat="40.284232439815746" lon="9.632327163044636"><ele>50.599999999999994</ele><time>2026-04-03T14:47:07Z</time></trkpt><trkpt lat="40.28421429584934" lon="9.632469329903445"><ele>49.400000000000006</ele><time>2026-04-03T14:47:08Z</time></trkpt><trkpt lat="40.28419461268874" lon="9.632603845937306"><ele>48.2</ele><time>2026-04-03T14:47:09Z</time></trkpt><trkpt lat="40.28417746998703" lon="9.632713136266505"><ele>47.0</ele><time>2026-04-03T14:47:10Z</time></trkpt><trkpt lat="40.28416327559537" lon="9.632801790823331"><ele>46.0</ele><time>2026-04-03T14:47:11Z</time></trkpt><trkpt lat="40.28415014977148" lon="9.632900559099816"><ele>45.0</ele><time>2026-04-03T14:47:12Z</time></trkpt><trkpt lat="40.28413629123274" lon="9.632999472555491"><ele>44.0</ele><time>2026-04-03T14:47:13Z</time></trkpt><trkpt lat="40.284125116859954" lon="9.633092861574045"><ele>43.0</ele><time>2026-04-03T14:47:14Z</time></trkpt><trkpt lat="40.284089522786694" lon="9.633240075753749"><ele>42.0</ele><time>2026-04-03T14:47:16Z</time></trkpt><trkpt lat="40.28404163825715" lon="9.63331504623637"><ele>41.0</ele><time>2026-04-03T14:47:18Z</time></trkpt><trkpt lat="40.28387626400425" lon="9.633246513566608"><ele>40.33333333333333</ele><time>2026-04-03T14:47:20Z</time></trkpt><trkpt lat="40.28382268958134" lon="9.633199167527481"><ele>39.666666666666664</ele><time>2026-04-03T14:47:21Z</time></trkpt><trkpt lat="40.28376451180243" lon="9.633148726085318"><ele>39.0</ele><time>2026-04-03T14:47:22Z</time></trkpt><trkpt lat="40.283712411739536" lon="9.633087347000385"><ele>38.333333333333336</ele><time>2026-04-03T14:47:23Z</time></trkpt><trkpt lat="40.28365302335284" lon="9.633041921655309"><ele>37.66666666666667</ele><time>2026-04-03T14:47:24Z</time></trkpt><trkpt lat="40.2835366325093" lon="9.63297742966289"><ele>37.0</ele><time>2026-04-03T14:47:26Z</time></trkpt><trkpt lat="40.28342042785749" lon="9.632906287295574"><ele>37.0</ele><time>2026-04-03T14:47:28Z</time></trkpt><trkpt lat="40.283358857834315" lon="9.632864938507808"><ele>37.0</ele><time>2026-04-03T14:47:29Z</time></trkpt><trkpt lat="40.28329793825745" lon="9.63282170391906"><ele>37.0</ele><time>2026-04-03T14:47:30Z</time></trkpt><trkpt lat="40.28324122761971" lon="9.632777480257396"><ele>37.0</ele><time>2026-04-03T14:47:31Z</time></trkpt><trkpt lat="40.28317632336008" lon="9.632732559555574"><ele>37.0</ele><time>2026-04-03T14:47:32Z</time></trkpt><trkpt lat="40.28311116623462" lon="9.632690837476144"><ele>37.0</ele><time>2026-04-03T14:47:33Z</time></trkpt><trkpt lat="40.28304351486671" lon="9.632641499144722"><ele>37.0</ele><time>2026-04-03T14:47:34Z</time></trkpt><trkpt lat="40.28297270886394" lon="9.632592307398275"><ele>37.5</ele><time>2026-04-03T14:47:35Z</time></trkpt><trkpt lat="40.28290634932878" lon="9.632540391795343"><ele>38.0</ele><time>2026-04-03T14:47:36Z</time></trkpt><trkpt lat="40.282833326829625" lon="9.632491406997792"><ele>38.5</ele><time>2026-04-03T14:47:37Z</time></trkpt><trkpt lat="40.28276156207211" lon="9.63243398886848"><ele>39.0</ele><time>2026-04-03T14:47:38Z</time></trkpt><trkpt lat="40.28268239002347" lon="9.632375318155846"><ele>39.5</ele><time>2026-04-03T14:47:39Z</time></trkpt><trkpt lat="40.282606595906856" lon="9.632312568148471"><ele>40.0</ele><time>2026-04-03T14:47:40Z</time></trkpt><trkpt lat="40.28251898422824" lon="9.632251295482813"><ele>40.0</ele><time>2026-04-03T14:47:41Z</time></trkpt><trkpt lat="40.28242386321892" lon="9.632187981499023"><ele>40.0</ele><time>2026-04-03T14:47:42Z</time></trkpt><trkpt lat="40.28232969240075" lon="9.632119876542653"><ele>40.0</ele><time>2026-04-03T14:47:43Z</time></trkpt><trkpt lat="40.28223398952657" lon="9.63204617166314"><ele>40.0</ele><time>2026-04-03T14:47:44Z</time></trkpt><trkpt lat="40.28213743296242" lon="9.631960060218395"><ele>40.0</ele><time>2026-04-03T14:47:45Z</time></trkpt><trkpt lat="40.28203398498761" lon="9.63188394958201"><ele>40.25</ele><time>2026-04-03T14:47:46Z</time></trkpt><trkpt lat="40.2819288579873" lon="9.63180927271157"><ele>40.5</ele><time>2026-04-03T14:47:47Z</time></trkpt><trkpt lat="40.28182081753975" lon="9.631738184135186"><ele>40.75</ele><time>2026-04-03T14:47:48Z</time></trkpt><trkpt lat="40.28171156318302" lon="9.631664194756562"><ele>41.0</ele><time>2026-04-03T14:47:49Z</time></trkpt><trkpt lat="40.28160327541453" lon="9.631585587822574"><ele>41.0</ele><time>2026-04-03T14:47:50Z</time></trkpt><trkpt lat="40.28149403312557" lon="9.631502786136343"><ele>41.0</ele><time>2026-04-03T14:47:51Z</time></trkpt><trkpt lat="40.28138502211224" lon="9.631423940872285"><ele>41.0</ele><time>2026-04-03T14:47:52Z</time></trkpt><trkpt lat="40.28127426252104" lon="9.631345175464022"><ele>41.0</ele><time>2026-04-03T14:47:53Z</time></trkpt><trkpt lat="40.28116482330364" lon="9.631267782409262"><ele>41.5</ele><time>2026-04-03T14:47:54Z</time></trkpt><trkpt lat="40.281052316999684" lon="9.631184352669544"><ele>42.0</ele><time>2026-04-03T14:47:55Z</time></trkpt><trkpt lat="40.28093954058476" lon="9.631104317658714"><ele>42.5</ele><time>2026-04-03T14:47:56Z</time></trkpt><trkpt lat="40.280827642565804" lon="9.631029656228678"><ele>43.0</ele><time>2026-04-03T14:47:57Z</time></trkpt><trkpt lat="40.28071829299312" lon="9.630941174898076"><ele>43.0</ele><time>2026-04-03T14:47:58Z</time></trkpt><trkpt lat="40.280609915219415" lon="9.630848454777537"><ele>43.0</ele><time>2026-04-03T14:47:59Z</time></trkpt><trkpt lat="40.28049752012147" lon="9.630760107420334"><ele>43.0</ele><time>2026-04-03T14:48:00Z</time></trkpt><trkpt lat="40.280379698625694" lon="9.630677018899089"><ele>43.0</ele><time>2026-04-03T14:48:01Z</time></trkpt><trkpt lat="40.28026136152363" lon="9.630593232779656"><ele>43.25</ele><time>2026-04-03T14:48:02.001Z</time></trkpt><trkpt lat="40.280146717041234" lon="9.630510021660992"><ele>43.5</ele><time>2026-04-03T14:48:03.001Z</time></trkpt><trkpt lat="40.280031715254815" lon="9.630428850826428"><ele>43.75</ele><time>2026-04-03T14:48:04.001Z</time></trkpt><trkpt lat="40.27992101831487" lon="9.630340980163346"><ele>44.0</ele><time>2026-04-03T14:48:05.001Z</time></trkpt><trkpt lat="40.27980594688825" lon="9.63025902834753"><ele>42.25</ele><time>2026-04-03T14:48:06.001Z</time></trkpt><trkpt lat="40.27969185311741" lon="9.630178140104775"><ele>40.5</ele><time>2026-04-03T14:48:07.001Z</time></trkpt><trkpt lat="40.27957661432101" lon="9.630093085881551"><ele>38.75</ele><time>2026-04-03T14:48:08.001Z</time></trkpt><trkpt lat="40.279463213163346" lon="9.630006131167038"><ele>37.0</ele><time>2026-04-03T14:48:09.001Z</time></trkpt><trkpt lat="40.27934966836983" lon="9.629918381340868"><ele>37.0</ele><time>2026-04-03T14:48:10.001Z</time></trkpt><trkpt lat="40.27923223465377" lon="9.629833734121478"><ele>37.0</ele><time>2026-04-03T14:48:11.001Z</time></trkpt><trkpt lat="40.27911256588644" lon="9.629746928548485"><ele>37.0</ele><time>2026-04-03T14:48:12.001Z</time></trkpt><trkpt lat="40.278992405833854" lon="9.629661239275915"><ele>37.0</ele><time>2026-04-03T14:48:13.001Z</time></trkpt><trkpt lat="40.2788716250746" lon="9.629570955045647"><ele>37.25</ele><time>2026-04-03T14:48:14.001Z</time></trkpt><trkpt lat="40.27874840983021" lon="9.629479424741666"><ele>37.5</ele><time>2026-04-03T14:48:15.001Z</time></trkpt><trkpt lat="40.27862419364476" lon="9.629388746470083"><ele>37.75</ele><time>2026-04-03T14:48:16.001Z</time></trkpt><trkpt lat="40.27850365447333" lon="9.629299237853441"><ele>38.0</ele><time>2026-04-03T14:48:17.001Z</time></trkpt><trkpt lat="40.278384272751616" lon="9.629211895160685"><ele>38.5</ele><time>2026-04-03T14:48:18.001Z</time></trkpt><trkpt lat="40.27826760706363" lon="9.629125168595424"><ele>39.0</ele><time>2026-04-03T14:48:19.001Z</time></trkpt><trkpt lat="40.278151959369175" lon="9.629038559656047"><ele>39.5</ele><time>2026-04-03T14:48:20.001Z</time></trkpt><trkpt lat="40.27803796518464" lon="9.628954149002405"><ele>40.0</ele><time>2026-04-03T14:48:21.001Z</time></trkpt><trkpt lat="40.27792419447811" lon="9.62886790281135"><ele>41.25</ele><time>2026-04-03T14:48:22.001Z</time></trkpt><trkpt lat="40.27780589616174" lon="9.628780871203407"><ele>42.5</ele><time>2026-04-03T14:48:23.001Z</time></trkpt><trkpt lat="40.27768943058751" lon="9.628694382417278"><ele>43.75</ele><time>2026-04-03T14:48:24.001Z</time></trkpt><trkpt lat="40.277569662400495" lon="9.628607471483555"><ele>45.0</ele><time>2026-04-03T14:48:25Z</time></trkpt><trkpt lat="40.277450779862434" lon="9.62852221399044"><ele>45.5</ele><time>2026-04-03T14:48:26Z</time></trkpt><trkpt lat="40.2773289225094" lon="9.628434601674936"><ele>46.0</ele><time>2026-04-03T14:48:27Z</time></trkpt><trkpt lat="40.27720961759937" lon="9.628345151578463"><ele>46.5</ele><time>2026-04-03T14:48:28Z</time></trkpt><trkpt lat="40.277092937474194" lon="9.628253330109137"><ele>47.0</ele><time>2026-04-03T14:48:29Z</time></trkpt><trkpt lat="40.27697353257556" lon="9.62816677979603"><ele>48.0</ele><time>2026-04-03T14:48:30Z</time></trkpt><trkpt lat="40.27685252139425" lon="9.628081435330447"><ele>49.0</ele><time>2026-04-03T14:48:31Z</time></trkpt><trkpt lat="40.27673154967279" lon="9.62799475236482"><ele>50.0</ele><time>2026-04-03T14:48:32Z</time></trkpt><trkpt lat="40.276611500094376" lon="9.627908814521023"><ele>51.0</ele><time>2026-04-03T14:48:33Z</time></trkpt><trkpt lat="40.27649038895798" lon="9.627815543374695"><ele>51.5</ele><time>2026-04-03T14:48:34Z</time></trkpt><trkpt lat="40.27636777343131" lon="9.62772485274903"><ele>52.0</ele><time>2026-04-03T14:48:35Z</time></trkpt><trkpt lat="40.27623964277082" lon="9.62763138855413"><ele>52.5</ele><time>2026-04-03T14:48:36Z</time></trkpt><trkpt lat="40.27611100206816" lon="9.627538348109756"><ele>53.0</ele><time>2026-04-03T14:48:37Z</time></trkpt><trkpt lat="40.27598134850028" lon="9.627445640242929"><ele>53.0</ele><time>2026-04-03T14:48:38Z</time></trkpt><trkpt lat="40.275850309896065" lon="9.627348209549567"><ele>53.0</ele><time>2026-04-03T14:48:39Z</time></trkpt><trkpt lat="40.27571724294541" lon="9.627251612625539"><ele>53.0</ele><time>2026-04-03T14:48:40Z</time></trkpt><trkpt lat="40.2755853779143" lon="9.627158602250196"><ele>52.75</ele><time>2026-04-03T14:48:41Z</time></trkpt><trkpt lat="40.27545322050301" lon="9.62706358285098"><ele>52.5</ele><time>2026-04-03T14:48:42Z</time></trkpt><trkpt lat="40.27532884559586" lon="9.626972436605483"><ele>52.25</ele><time>2026-04-03T14:48:43Z</time></trkpt><trkpt lat="40.275207586872966" lon="9.62689887328048"><ele>52.0</ele><time>2026-04-03T14:48:44Z</time></trkpt><trkpt lat="40.27507971292498" lon="9.626877406375069"><ele>52.0</ele><time>2026-04-03T14:48:45Z</time></trkpt><trkpt lat="40.27494029526929" lon="9.626915138904742"><ele>52.0</ele><time>2026-04-03T14:48:46Z</time></trkpt><trkpt lat="40.27480080052721" lon="9.626992742818842"><ele>52.0</ele><time>2026-04-03T14:48:47Z</time></trkpt><trkpt lat="40.274661654707444" lon="9.627083724787804"><ele>52.0</ele><time>2026-04-03T14:48:48Z</time></trkpt><trkpt lat="40.274525176578486" lon="9.62717632779477"><ele>49.25</ele><time>2026-04-03T14:48:49Z</time></trkpt><trkpt lat="40.274390681556085" lon="9.627265293949193"><ele>46.5</ele><time>2026-04-03T14:48:50Z</time></trkpt><trkpt lat="40.274257413279436" lon="9.627349031625572"><ele>43.75</ele><time>2026-04-03T14:48:51Z</time></trkpt><trkpt lat="40.274125898787524" lon="9.627429333974838"><ele>41.0</ele><time>2026-04-03T14:48:52Z</time></trkpt><trkpt lat="40.27399877457897" lon="9.627503704090003"><ele>42.0</ele><time>2026-04-03T14:48:53Z</time></trkpt><trkpt lat="40.27387846577203" lon="9.627582212789326"><ele>43.0</ele><time>2026-04-03T14:48:54Z</time></trkpt><trkpt lat="40.27377362779954" lon="9.627680650973256"><ele>44.0</ele><time>2026-04-03T14:48:55Z</time></trkpt><trkpt lat="40.27369801206036" lon="9.627816941490027"><ele>45.0</ele><time>2026-04-03T14:48:56Z</time></trkpt><trkpt lat="40.2736625702663" lon="9.627989069144325"><ele>45.5</ele><time>2026-04-03T14:48:57Z</time></trkpt><trkpt lat="40.273649722555845" lon="9.628175114591567"><ele>46.0</ele><time>2026-04-03T14:48:58Z</time></trkpt><trkpt lat="40.27363359113509" lon="9.628366164054789"><ele>46.5</ele><time>2026-04-03T14:48:59Z</time></trkpt><trkpt lat="40.27361322388494" lon="9.628558056856095"><ele>47.0</ele><time>2026-04-03T14:49:00Z</time></trkpt><trkpt lat="40.27359296843218" lon="9.628754052758579"><ele>44.25</ele><time>2026-04-03T14:49:01Z</time></trkpt><trkpt lat="40.273571116283925" lon="9.628938082844307"><ele>41.5</ele><time>2026-04-03T14:49:02Z</time></trkpt><trkpt lat="40.2735459167752" lon="9.629116169222733"><ele>38.75</ele><time>2026-04-03T14:49:03Z</time></trkpt><trkpt lat="40.273509912573196" lon="9.629288937586864"><ele>36.0</ele><time>2026-04-03T14:49:04Z</time></trkpt><trkpt lat="40.273441249218195" lon="9.629434723100346"><ele>33.0</ele><time>2026-04-03T14:49:05Z</time></trkpt><trkpt lat="40.273337895618425" lon="9.629549903737459"><ele>30.0</ele><time>2026-04-03T14:49:06Z</time></trkpt><trkpt lat="40.27321501880323" lon="9.62963039532624"><ele>27.0</ele><time>2026-04-03T14:49:07Z</time></trkpt><trkpt lat="40.27309113404731" lon="9.629658329465325"><ele>24.0</ele><time>2026-04-03T14:49:08Z</time></trkpt><trkpt lat="40.27299272576133" lon="9.629648366373237"><ele>24.0</ele><time>2026-04-03T14:49:09Z</time></trkpt><trkpt lat="40.27291126744373" lon="9.629638616250633"><ele>24.0</ele><time>2026-04-03T14:49:10Z</time></trkpt><trkpt lat="40.27283195619286" lon="9.629628415504346"><ele>24.0</ele><time>2026-04-03T14:49:11Z</time></trkpt><trkpt lat="40.272764378664526" lon="9.629607527079411"><ele>24.0</ele><time>2026-04-03T14:49:12Z</time></trkpt><trkpt lat="40.272666260111976" lon="9.62958306483978"><ele>24.0</ele><time>2026-04-03T14:49:14Z</time></trkpt><trkpt lat="40.2726934363313" lon="9.62966639223232"><ele>24.0</ele><time>2026-04-03T14:49:20Z</time></trkpt><trkpt lat="40.272774628833446" lon="9.62966218928957"><ele>24.0</ele><time>2026-04-03T14:49:22Z</time></trkpt><trkpt lat="40.27282639513217" lon="9.629775864719889"><ele>24.0</ele><time>2026-04-03T14:49:24Z</time></trkpt><trkpt lat="40.272866577787006" lon="9.629677911596572"><ele>24.0</ele><time>2026-04-03T14:49:25Z</time></trkpt><trkpt lat="40.27289886734172" lon="9.62976339633998"><ele>24.0</ele><time>2026-04-03T14:49:43Z</time></trkpt><trkpt lat="40.27296413623188" lon="9.629816893062289"><ele>24.0</ele><time>2026-04-03T14:51:01Z</time></trkpt><trkpt lat="40.272993178188564" lon="9.62989270311422"><ele>24.0</ele><time>2026-04-03T14:52:37Z</time></trkpt><trkpt lat="40.272952623337495" lon="9.629958299988044"><ele>23.999999999999996</ele><time>2026-04-03T14:52:46Z</time></trkpt><trkpt lat="40.272933632649945" lon="9.630050446254494"><ele>24.0</ele><time>2026-04-03T14:52:56Z</time></trkpt><trkpt lat="40.272925964714204" lon="9.630143531835916"><ele>24.0</ele><time>2026-04-03T14:53:06Z</time></trkpt><trkpt lat="40.272915131102295" lon="9.6302281832267"><ele>24.0</ele><time>2026-04-03T14:53:18Z</time></trkpt><trkpt lat="40.272903239643725" lon="9.630311984732836"><ele>24.0</ele><time>2026-04-03T14:53:30Z</time></trkpt><trkpt lat="40.27292162268246" lon="9.630227863797897"><ele>23.999999999999996</ele><time>2026-04-03T15:22:01Z</time></trkpt><trkpt lat="40.2729333875461" lon="9.630145811958977"><ele>24.0</ele><time>2026-04-03T15:22:20Z</time></trkpt><trkpt lat="40.27295705417697" lon="9.630064545948056"><ele>23.999999999999996</ele><time>2026-04-03T15:22:29Z</time></trkpt><trkpt lat="40.27297345612607" lon="9.629959819072113"><ele>24.0</ele><time>2026-04-03T15:22:43Z</time></trkpt><trkpt lat="40.273029255718534" lon="9.629889542715404"><ele>24.0</ele><time>2026-04-03T15:22:50Z</time></trkpt><trkpt lat="40.27301468827385" lon="9.629807268527221"><ele>24.0</ele><time>2026-04-03T15:22:58Z</time></trkpt><trkpt lat="40.27307585161999" lon="9.62975278840995"><ele>24.0</ele><time>2026-04-03T15:26:39Z</time></trkpt><trkpt lat="40.27311634935341" lon="9.629672980596345"><ele>23.999999999999996</ele><time>2026-04-03T15:26:42Z</time></trkpt><trkpt lat="40.27319379940133" lon="9.629668251810312"><ele>24.0</ele><time>2026-04-03T15:26:44Z</time></trkpt><trkpt lat="40.27326406779861" lon="9.629652857238806"><ele>23.333333333333332</ele><time>2026-04-03T15:26:46Z</time></trkpt><trkpt lat="40.27332877216434" lon="9.629606006907688"><ele>22.666666666666668</ele><time>2026-04-03T15:26:48Z</time></trkpt><trkpt lat="40.2733872543622" lon="9.629538468515927"><ele>22.0</ele><time>2026-04-03T15:26:50Z</time></trkpt><trkpt lat="40.27345611738466" lon="9.62945367909877"><ele>21.333333333333336</ele><time>2026-04-03T15:26:52Z</time></trkpt><trkpt lat="40.27350701632779" lon="9.629348470826274"><ele>20.666666666666668</ele><time>2026-04-03T15:26:54Z</time></trkpt><trkpt lat="40.2735423108189" lon="9.629229724980972"><ele>20.0</ele><time>2026-04-03T15:26:56Z</time></trkpt><trkpt lat="40.27356758403237" lon="9.629103589685599"><ele>23.2</ele><time>2026-04-03T15:26:58Z</time></trkpt><trkpt lat="40.27358479399216" lon="9.628976519102846"><ele>26.4</ele><time>2026-04-03T15:27:00Z</time></trkpt><trkpt lat="40.27360004058321" lon="9.62884942576491"><ele>29.6</ele><time>2026-04-03T15:27:02Z</time></trkpt><trkpt lat="40.2736276768976" lon="9.628720239952443"><ele>32.8</ele><time>2026-04-03T15:27:04Z</time></trkpt><trkpt lat="40.2736328014128" lon="9.62859947313167"><ele>36.0</ele><time>2026-04-03T15:27:06Z</time></trkpt><trkpt lat="40.27364482654315" lon="9.628490716782304"><ele>37.833333333333336</ele><time>2026-04-03T15:27:08Z</time></trkpt><trkpt lat="40.2736513363146" lon="9.628390215057609"><ele>39.666666666666664</ele><time>2026-04-03T15:27:10Z</time></trkpt><trkpt lat="40.27367280829965" lon="9.628258057142368"><ele>41.5</ele><time>2026-04-03T15:27:12Z</time></trkpt><trkpt lat="40.273693098880194" lon="9.628096452927489"><ele>43.33333333333333</ele><time>2026-04-03T15:27:14Z</time></trkpt><trkpt lat="40.27370218766547" lon="9.628013950026807"><ele>45.166666666666664</ele><time>2026-04-03T15:27:15Z</time></trkpt><trkpt lat="40.27371380331626" lon="9.627932842686805"><ele>47.0</ele><time>2026-04-03T15:27:16Z</time></trkpt><trkpt lat="40.27373007760321" lon="9.627852857308989"><ele>46.714285714285715</ele><time>2026-04-03T15:27:17Z</time></trkpt><trkpt lat="40.273757334325964" lon="9.62777343197063"><ele>46.42857142857143</ele><time>2026-04-03T15:27:18Z</time></trkpt><trkpt lat="40.27379881249089" lon="9.6276992751644"><ele>46.14285714285714</ele><time>2026-04-03T15:27:19Z</time></trkpt><trkpt lat="40.27384740240309" lon="9.627643157659746"><ele>45.85714285714286</ele><time>2026-04-03T15:27:20Z</time></trkpt><trkpt lat="40.27390240501161" lon="9.627600662182106"><ele>45.57142857142858</ele><time>2026-04-03T15:27:21Z</time></trkpt><trkpt lat="40.27396102529477" lon="9.627560538658821"><ele>45.285714285714285</ele><time>2026-04-03T15:27:22Z</time></trkpt><trkpt lat="40.27402811078543" lon="9.627519862792669"><ele>45.0</ele><time>2026-04-03T15:27:23Z</time></trkpt><trkpt lat="40.274097171628846" lon="9.62748020380583"><ele>44.333333333333336</ele><time>2026-04-03T15:27:24Z</time></trkpt><trkpt lat="40.274167682702284" lon="9.627436727205387"><ele>43.666666666666664</ele><time>2026-04-03T15:27:25Z</time></trkpt><trkpt lat="40.27423742691682" lon="9.627392512440446"><ele>43.0</ele><time>2026-04-03T15:27:26Z</time></trkpt><trkpt lat="40.27430655196488" lon="9.627346466669152"><ele>42.33333333333333</ele><time>2026-04-03T15:27:27Z</time></trkpt><trkpt lat="40.274378298845676" lon="9.627303204096753"><ele>41.666666666666664</ele><time>2026-04-03T15:27:28Z</time></trkpt><trkpt lat="40.274449520188426" lon="9.627257531818723"><ele>41.0</ele><time>2026-04-03T15:27:29Z</time></trkpt><trkpt lat="40.27452183634818" lon="9.627211696254063"><ele>41.0</ele><time>2026-04-03T15:27:30Z</time></trkpt><trkpt lat="40.27459401280122" lon="9.627167024470625"><ele>41.0</ele><time>2026-04-03T15:27:31Z</time></trkpt><trkpt lat="40.274667814326634" lon="9.627121899108795"><ele>41.0</ele><time>2026-04-03T15:27:32Z</time></trkpt><trkpt lat="40.27474157265448" lon="9.62707835543297"><ele>41.0</ele><time>2026-04-03T15:27:33Z</time></trkpt><trkpt lat="40.27481673020748" lon="9.627032256399586"><ele>41.0</ele><time>2026-04-03T15:27:34Z</time></trkpt><trkpt lat="40.27489138477911" lon="9.626986167303107"><ele>41.0</ele><time>2026-04-03T15:27:35Z</time></trkpt><trkpt lat="40.27496855125188" lon="9.626943145433362"><ele>42.166666666666664</ele><time>2026-04-03T15:27:36Z</time></trkpt><trkpt lat="40.2750506989794" lon="9.626919309325407"><ele>43.33333333333333</ele><time>2026-04-03T15:27:37Z</time></trkpt><trkpt lat="40.27513211926227" lon="9.626916588502946"><ele>44.5</ele><time>2026-04-03T15:27:38Z</time></trkpt><trkpt lat="40.275215510752275" lon="9.626941284202973"><ele>45.666666666666664</ele><time>2026-04-03T15:27:39Z</time></trkpt><trkpt lat="40.2752955910257" lon="9.626986994517795"><ele>46.833333333333336</ele><time>2026-04-03T15:27:40Z</time></trkpt><trkpt lat="40.27537488632168" lon="9.627042955539562"><ele>48.0</ele><time>2026-04-03T15:27:41Z</time></trkpt><trkpt lat="40.275454043551456" lon="9.627104931447608"><ele>48.0</ele><time>2026-04-03T15:27:42Z</time></trkpt><trkpt lat="40.275534176682584" lon="9.627167469414124"><ele>48.0</ele><time>2026-04-03T15:27:43Z</time></trkpt><trkpt lat="40.275614528770014" lon="9.627225159024107"><ele>48.0</ele><time>2026-04-03T15:27:44Z</time></trkpt><trkpt lat="40.27569487644714" lon="9.627282048101952"><ele>48.0</ele><time>2026-04-03T15:27:45Z</time></trkpt><trkpt lat="40.27576748916689" lon="9.627334985323424"><ele>48.0</ele><time>2026-04-03T15:27:46Z</time></trkpt><trkpt lat="40.275825143006685" lon="9.627377647327847"><ele>48.0</ele><time>2026-04-03T15:27:47Z</time></trkpt><trkpt lat="40.27593024532626" lon="9.627451958168635"><ele>48.333333333333336</ele><time>2026-04-03T15:27:49Z</time></trkpt><trkpt lat="40.27604031520428" lon="9.627534751473217"><ele>48.66666666666667</ele><time>2026-04-03T15:27:51Z</time></trkpt><trkpt lat="40.27610033963331" lon="9.627577453052416"><ele>49.0</ele><time>2026-04-03T15:27:52Z</time></trkpt><trkpt lat="40.276164886905974" lon="9.627630190110711"><ele>49.333333333333336</ele><time>2026-04-03T15:27:53Z</time></trkpt><trkpt lat="40.27623648247768" lon="9.627689077541081"><ele>49.66666666666667</ele><time>2026-04-03T15:27:54Z</time></trkpt><trkpt lat="40.276314259461174" lon="9.627748266458614"><ele>50.0</ele><time>2026-04-03T15:27:55Z</time></trkpt><trkpt lat="40.27639836448933" lon="9.627810597905333"><ele>50.2</ele><time>2026-04-03T15:27:56Z</time></trkpt><trkpt lat="40.27648548092378" lon="9.62787515450151"><ele>50.4</ele><time>2026-04-03T15:27:57Z</time></trkpt><trkpt lat="40.27657617785099" lon="9.627939762486763"><ele>50.599999999999994</ele><time>2026-04-03T15:27:58Z</time></trkpt><trkpt lat="40.27667780277351" lon="9.628011346164017"><ele>50.8</ele><time>2026-04-03T15:27:59Z</time></trkpt><trkpt lat="40.276784626963476" lon="9.628086174932854"><ele>51.0</ele><time>2026-04-03T15:28:00Z</time></trkpt><trkpt lat="40.276894184806956" lon="9.62817227679494"><ele>51.0</ele><time>2026-04-03T15:28:01Z</time></trkpt><trkpt lat="40.27700310767985" lon="9.62826261696096"><ele>51.0</ele><time>2026-04-03T15:28:02Z</time></trkpt><trkpt lat="40.2771082050483" lon="9.628346356513163"><ele>51.0</ele><time>2026-04-03T15:28:03Z</time></trkpt><trkpt lat="40.27721493331091" lon="9.628422988178281"><ele>51.0</ele><time>2026-04-03T15:28:04Z</time></trkpt><trkpt lat="40.27732610971981" lon="9.628496510017374"><ele>50.0</ele><time>2026-04-03T15:28:05Z</time></trkpt><trkpt lat="40.27744167103513" lon="9.62857736673336"><ele>49.0</ele><time>2026-04-03T15:28:06Z</time></trkpt><trkpt lat="40.277558691810256" lon="9.628659421710251"><ele>48.0</ele><time>2026-04-03T15:28:07Z</time></trkpt><trkpt lat="40.277679786929426" lon="9.628745744509787"><ele>47.0</ele><time>2026-04-03T15:28:08Z</time></trkpt><trkpt lat="40.27780320728953" lon="9.62883209440508"><ele>46.5</ele><time>2026-04-03T15:28:09Z</time></trkpt><trkpt lat="40.27792809015543" lon="9.628918115742641"><ele>46.0</ele><time>2026-04-03T15:28:10Z</time></trkpt><trkpt lat="40.27804748547189" lon="9.629004864518084"><ele>45.5</ele><time>2026-04-03T15:28:11Z</time></trkpt><trkpt lat="40.278164438785524" lon="9.629086687329242"><ele>45.0</ele><time>2026-04-03T15:28:12Z</time></trkpt><trkpt lat="40.27827838366539" lon="9.629174349493098"><ele>43.75</ele><time>2026-04-03T15:28:13Z</time></trkpt><trkpt lat="40.2783872854903" lon="9.629260401579035"><ele>42.5</ele><time>2026-04-03T15:28:14Z</time></trkpt><trkpt lat="40.27849521723629" lon="9.629342564533873"><ele>41.25</ele><time>2026-04-03T15:28:15Z</time></trkpt><trkpt lat="40.2786023380596" lon="9.629423161261082"><ele>40.0</ele><time>2026-04-03T15:28:16Z</time></trkpt><trkpt lat="40.278710449807136" lon="9.62950346274902"><ele>39.5</ele><time>2026-04-03T15:28:17Z</time></trkpt><trkpt lat="40.278823202401334" lon="9.629591627285308"><ele>39.0</ele><time>2026-04-03T15:28:18Z</time></trkpt><trkpt lat="40.27894948189281" lon="9.629684589015687"><ele>38.5</ele><time>2026-04-03T15:28:19Z</time></trkpt><trkpt lat="40.27906929891237" lon="9.629769456269274"><ele>38.0</ele><time>2026-04-03T15:28:20Z</time></trkpt><trkpt lat="40.27918713733589" lon="9.629850875703497"><ele>37.75</ele><time>2026-04-03T15:28:21Z</time></trkpt><trkpt lat="40.27930179719828" lon="9.62993226847868"><ele>37.5</ele><time>2026-04-03T15:28:22Z</time></trkpt><trkpt lat="40.27940522124595" lon="9.63000879500022"><ele>37.25</ele><time>2026-04-03T15:28:23Z</time></trkpt><trkpt lat="40.27949928806571" lon="9.630078004796237"><ele>37.0</ele><time>2026-04-03T15:28:24Z</time></trkpt><trkpt lat="40.27958413251799" lon="9.630144226500164"><ele>37.0</ele><time>2026-04-03T15:28:25Z</time></trkpt><trkpt lat="40.279675909995" lon="9.630214591011292"><ele>37.0</ele><time>2026-04-03T15:28:26Z</time></trkpt><trkpt lat="40.27976951548581" lon="9.630282761597918"><ele>37.0</ele><time>2026-04-03T15:28:27Z</time></trkpt><trkpt lat="40.27986281850173" lon="9.630348572980028"><ele>37.0</ele><time>2026-04-03T15:28:28Z</time></trkpt><trkpt lat="40.27995870550796" lon="9.630411276019853"><ele>37.0</ele><time>2026-04-03T15:28:29Z</time></trkpt><trkpt lat="40.280052230691496" lon="9.630478497142589"><ele>37.2</ele><time>2026-04-03T15:28:30Z</time></trkpt><trkpt lat="40.280143416793834" lon="9.630542677756104"><ele>37.400000000000006</ele><time>2026-04-03T15:28:31Z</time></trkpt><trkpt lat="40.28023255954071" lon="9.630609533565622"><ele>37.599999999999994</ele><time>2026-04-03T15:28:32Z</time></trkpt><trkpt lat="40.28032210001116" lon="9.630676051237852"><ele>37.8</ele><time>2026-04-03T15:28:33Z</time></trkpt><trkpt lat="40.280411426013366" lon="9.630745661025244"><ele>38.0</ele><time>2026-04-03T15:28:34Z</time></trkpt><trkpt lat="40.28050057769126" lon="9.630815538075094"><ele>38.0</ele><time>2026-04-03T15:28:35Z</time></trkpt><trkpt lat="40.280586506534924" lon="9.63088235601778"><ele>38.0</ele><time>2026-04-03T15:28:36Z</time></trkpt><trkpt lat="40.280674218587805" lon="9.630946356255762"><ele>38.0</ele><time>2026-04-03T15:28:37Z</time></trkpt><trkpt lat="40.28076672667048" lon="9.631011422727749"><ele>38.0</ele><time>2026-04-03T15:28:38Z</time></trkpt><trkpt lat="40.280859056074746" lon="9.631077849974858"><ele>38.0</ele><time>2026-04-03T15:28:39Z</time></trkpt><trkpt lat="40.2809480306092" lon="9.631136578083673"><ele>38.0</ele><time>2026-04-03T15:28:40Z</time></trkpt><trkpt lat="40.28103474935545" lon="9.631198394920375"><ele>38.0</ele><time>2026-04-03T15:28:41Z</time></trkpt><trkpt lat="40.28112322430059" lon="9.631264016466744"><ele>38.0</ele><time>2026-04-03T15:28:42Z</time></trkpt><trkpt lat="40.28121085915132" lon="9.631332133313244"><ele>38.0</ele><time>2026-04-03T15:28:43Z</time></trkpt><trkpt lat="40.28130264574006" lon="9.63139976106752"><ele>38.0</ele><time>2026-04-03T15:28:44Z</time></trkpt><trkpt lat="40.28138956362466" lon="9.631462316797897"><ele>38.5</ele><time>2026-04-03T15:28:45Z</time></trkpt><trkpt lat="40.28147048152652" lon="9.63152003327496"><ele>39.0</ele><time>2026-04-03T15:28:46Z</time></trkpt><trkpt lat="40.281544774463846" lon="9.631575940546465"><ele>39.5</ele><time>2026-04-03T15:28:47Z</time></trkpt><trkpt lat="40.28161855211223" lon="9.631631277205233"><ele>40.0</ele><time>2026-04-03T15:28:48Z</time></trkpt><trkpt lat="40.28169029890738" lon="9.631678137779488"><ele>40.5</ele><time>2026-04-03T15:28:49Z</time></trkpt><trkpt lat="40.2817611175481" lon="9.631731505724888"><ele>41.0</ele><time>2026-04-03T15:28:50Z</time></trkpt><trkpt lat="40.28183385268037" lon="9.631789021997271"><ele>41.0</ele><time>2026-04-03T15:28:51Z</time></trkpt><trkpt lat="40.28190243533661" lon="9.631841890235414"><ele>41.0</ele><time>2026-04-03T15:28:52Z</time></trkpt><trkpt lat="40.28196514723987" lon="9.631892089503754"><ele>41.0</ele><time>2026-04-03T15:28:53Z</time></trkpt><trkpt lat="40.282025110861724" lon="9.631939135736518"><ele>41.0</ele><time>2026-04-03T15:28:54Z</time></trkpt><trkpt lat="40.28208269019947" lon="9.631979933548164"><ele>41.0</ele><time>2026-04-03T15:28:55Z</time></trkpt><trkpt lat="40.28216802585519" lon="9.632044238168392"><ele>41.0</ele><time>2026-04-03T15:28:57Z</time></trkpt><trkpt lat="40.28225661469348" lon="9.632098658198458"><ele>40.8</ele><time>2026-04-03T15:28:59Z</time></trkpt><trkpt lat="40.282350490032016" lon="9.63216341326318"><ele>40.599999999999994</ele><time>2026-04-03T15:29:01Z</time></trkpt><trkpt lat="40.282431896833764" lon="9.632223733396767"><ele>40.4</ele><time>2026-04-03T15:29:03Z</time></trkpt><trkpt lat="40.28250816681673" lon="9.63229034136082"><ele>40.2</ele><time>2026-04-03T15:29:05Z</time></trkpt><trkpt lat="40.282631111691664" lon="9.632385526082203"><ele>40.0</ele><time>2026-04-03T15:29:07Z</time></trkpt><trkpt lat="40.28271076797429" lon="9.63242756732508"><ele>40.0</ele><time>2026-04-03T15:29:08Z</time></trkpt><trkpt lat="40.28280213660749" lon="9.632488716398061"><ele>40.0</ele><time>2026-04-03T15:29:09Z</time></trkpt><trkpt lat="40.28288417644617" lon="9.632572428383341"><ele>40.0</ele><time>2026-04-03T15:29:10Z</time></trkpt><trkpt lat="40.283000906789304" lon="9.632657867548486"><ele>40.0</ele><time>2026-04-03T15:29:11Z</time></trkpt><trkpt lat="40.283137674939354" lon="9.632757823047815"><ele>39.4</ele><time>2026-04-03T15:29:12Z</time></trkpt><trkpt lat="40.283263741037565" lon="9.632836509146268"><ele>38.8</ele><time>2026-04-03T15:29:13Z</time></trkpt><trkpt lat="40.28337518148025" lon="9.632920599876043"><ele>38.2</ele><time>2026-04-03T15:29:14Z</time></trkpt><trkpt lat="40.283466959776796" lon="9.632985228904825"><ele>37.6</ele><time>2026-04-03T15:29:15Z</time></trkpt><trkpt lat="40.28352884815069" lon="9.63303749694998"><ele>37.0</ele><time>2026-04-03T15:29:16Z</time></trkpt><trkpt lat="40.283589992520554" lon="9.633079924402647"><ele>37.0</ele><time>2026-04-03T15:29:17Z</time></trkpt><trkpt lat="40.283648756978316" lon="9.633123563426174"><ele>37.0</ele><time>2026-04-03T15:29:18Z</time></trkpt><trkpt lat="40.28375421833864" lon="9.633192775792372"><ele>37.0</ele><time>2026-04-03T15:29:20Z</time></trkpt><trkpt lat="40.28385119773614" lon="9.633258425945563"><ele>37.0</ele><time>2026-04-03T15:29:22Z</time></trkpt><trkpt lat="40.283931034659254" lon="9.633314701141224"><ele>37.0</ele><time>2026-04-03T15:29:24Z</time></trkpt><trkpt lat="40.283978059183475" lon="9.633374194978026"><ele>37.2</ele><time>2026-04-03T15:29:26Z</time></trkpt><trkpt lat="40.28402452311433" lon="9.63343182184632"><ele>37.400000000000006</ele><time>2026-04-03T15:29:29Z</time></trkpt><trkpt lat="40.284077855255376" lon="9.633512716439784"><ele>37.599999999999994</ele><time>2026-04-03T15:29:33Z</time></trkpt><trkpt lat="40.2840431834143" lon="9.633650697997798"><ele>37.8</ele><time>2026-04-03T15:29:35Z</time></trkpt><trkpt lat="40.283996337607846" lon="9.633802843312726"><ele>38.0</ele><time>2026-04-03T15:29:37Z</time></trkpt><trkpt lat="40.28396592070189" lon="9.633890715884936"><ele>36.199999999999996</ele><time>2026-04-03T15:29:38Z</time></trkpt><trkpt lat="40.28390624385702" lon="9.633978510954128"><ele>34.4</ele><time>2026-04-03T15:29:39Z</time></trkpt><trkpt lat="40.28386129449538" lon="9.634095903482232"><ele>32.599999999999994</ele><time>2026-04-03T15:29:40Z</time></trkpt><trkpt lat="40.2838212968489" lon="9.634225568061572"><ele>30.799999999999997</ele><time>2026-04-03T15:29:40.999Z</time></trkpt><trkpt lat="40.283779037474" lon="9.634353960056801"><ele>29.0</ele><time>2026-04-03T15:29:41.999Z</time></trkpt><trkpt lat="40.283736064073544" lon="9.63447354011004"><ele>28.499999999999996</ele><time>2026-04-03T15:29:42.999Z</time></trkpt><trkpt lat="40.28368950493007" lon="9.634591730837766"><ele>28.0</ele><time>2026-04-03T15:29:43.999Z</time></trkpt><trkpt lat="40.28364218609215" lon="9.63470645516915"><ele>27.5</ele><time>2026-04-03T15:29:44.999Z</time></trkpt><trkpt lat="40.28360173155135" lon="9.634813712127977"><ele>27.0</ele><time>2026-04-03T15:29:45.999Z</time></trkpt><trkpt lat="40.28356445822557" lon="9.634909106157991"><ele>26.499999999999996</ele><time>2026-04-03T15:29:46.999Z</time></trkpt><trkpt lat="40.28352784600961" lon="9.634994160035683"><ele>26.0</ele><time>2026-04-03T15:29:47.999Z</time></trkpt><trkpt lat="40.28349286327506" lon="9.63506883562512"><ele>26.0</ele><time>2026-04-03T15:29:48.999Z</time></trkpt><trkpt lat="40.2834407295803" lon="9.635147741869389"><ele>26.0</ele><time>2026-04-03T15:29:50.999Z</time></trkpt><trkpt lat="40.28339667472624" lon="9.635248499196411"><ele>26.0</ele><time>2026-04-03T15:29:53.999Z</time></trkpt><trkpt lat="40.283374557228285" lon="9.635326673919606"><ele>26.0</ele><time>2026-04-03T15:29:55.999Z</time></trkpt><trkpt lat="40.283464409081745" lon="9.635419351563948"><ele>26.0</ele><time>2026-04-03T15:29:57.999Z</time></trkpt><trkpt lat="40.28353034196749" lon="9.635535738509216"><ele>25.4</ele><time>2026-04-03T15:29:59.999Z</time></trkpt><trkpt lat="40.283617377137745" lon="9.635637221555754"><ele>24.8</ele><time>2026-04-03T15:30:01.999Z</time></trkpt><trkpt lat="40.28366743016126" lon="9.635693748670628"><ele>24.2</ele><time>2026-04-03T15:30:02.999Z</time></trkpt><trkpt lat="40.28371891754672" lon="9.635751898023175"><ele>23.599999999999998</ele><time>2026-04-03T15:30:03.999Z</time></trkpt><trkpt lat="40.28379963346672" lon="9.635880193390935"><ele>23.0</ele><time>2026-04-03T15:30:05.999Z</time></trkpt><trkpt lat="40.283849003823015" lon="9.636024084466193"><ele>20.2</ele><time>2026-04-03T15:30:07.999Z</time></trkpt><trkpt lat="40.283904705420035" lon="9.636150143577973"><ele>17.4</ele><time>2026-04-03T15:30:09.999Z</time></trkpt><trkpt lat="40.28386891360631" lon="9.636266038116512"><ele>14.6</ele><time>2026-04-03T15:30:11.999Z</time></trkpt><trkpt lat="40.28380297132808" lon="9.636379839409111"><ele>11.8</ele><time>2026-04-03T15:30:13.999Z</time></trkpt><trkpt lat="40.28376586348928" lon="9.636450729774225"><ele>9.0</ele><time>2026-04-03T15:30:14.999Z</time></trkpt><trkpt lat="40.283732688010254" lon="9.6365292947397"><ele>9.0</ele><time>2026-04-03T15:30:15.999Z</time></trkpt><trkpt lat="40.283695509690816" lon="9.636605784364756"><ele>9.0</ele><time>2026-04-03T15:30:16.999Z</time></trkpt><trkpt lat="40.28366315194274" lon="9.636679324331428"><ele>9.0</ele><time>2026-04-03T15:30:17.999Z</time></trkpt><trkpt lat="40.283617963264355" lon="9.636822129274048"><ele>9.0</ele><time>2026-04-03T15:30:19.999Z</time></trkpt><trkpt lat="40.283601389781516" lon="9.636959476919595"><ele>9.0</ele><time>2026-04-03T15:30:21.999Z</time></trkpt><trkpt lat="40.28359293416249" lon="9.637079776843109"><ele>8.0</ele><time>2026-04-03T15:30:23.999Z</time></trkpt><trkpt lat="40.28356447756066" lon="9.637182217844575"><ele>7.0</ele><time>2026-04-03T15:30:25.999Z</time></trkpt><trkpt lat="40.283558582076616" lon="9.637286053502235"><ele>6.0</ele><time>2026-04-03T15:30:27.999Z</time></trkpt><trkpt lat="40.28356702680998" lon="9.637392045977087"><ele>5.0</ele><time>2026-04-03T15:30:29.999Z</time></trkpt><trkpt lat="40.28358723706362" lon="9.637528279640746"><ele>4.0</ele><time>2026-04-03T15:30:31.999Z</time></trkpt><trkpt lat="40.28363781988651" lon="9.637649599253193"><ele>3.6666666666666665</ele><time>2026-04-03T15:30:33.999Z</time></trkpt><trkpt lat="40.28368316968567" lon="9.637805181844385"><ele>3.333333333333333</ele><time>2026-04-03T15:30:35.999Z</time></trkpt><trkpt lat="40.28371156130983" lon="9.637883875241055"><ele>3.0</ele><time>2026-04-03T15:30:36.999Z</time></trkpt><trkpt lat="40.28373415847977" lon="9.637963449919805"><ele>2.6666666666666665</ele><time>2026-04-03T15:30:37.999Z</time></trkpt><trkpt lat="40.283763453060146" lon="9.638081942348041"><ele>2.333333333333333</ele><time>2026-04-03T15:30:39.999Z</time></trkpt><trkpt lat="40.28371015647853" lon="9.638167663855242"><ele>2.0</ele><time>2026-04-03T15:30:42.999Z</time></trkpt><trkpt lat="40.28377465710498" lon="9.638135731079005"><ele>2.0</ele><time>2026-04-03T15:30:44.999Z</time></trkpt><trkpt lat="40.283640792463814" lon="9.638188962526337"><ele>2.0</ele><time>2026-04-03T15:30:45.999Z</time></trkpt><trkpt lat="40.283600580502366" lon="9.63825714941717"><ele>2.0</ele><time>2026-04-03T15:30:48.999Z</time></trkpt><trkpt lat="40.28365210386344" lon="9.638398465113859"><ele>2.0</ele><time>2026-04-03T15:30:50.999Z</time></trkpt><trkpt lat="40.28370058676172" lon="9.638456520304585"><ele>2.0</ele><time>2026-04-03T15:30:54.999Z</time></trkpt><trkpt lat="40.28376384711919" lon="9.638476265750711"><ele>2.0</ele><time>2026-04-03T15:34:24Z</time></trkpt><trkpt lat="40.28381073571747" lon="9.638539210822984"><ele>1.9999999999999998</ele><time>2026-04-03T15:34:36Z</time></trkpt><trkpt lat="40.28374564067642" lon="9.638562315593854"><ele>2.0</ele><time>2026-04-03T15:43:31Z</time></trkpt><trkpt lat="40.28368854168874" lon="9.638522559520858"><ele>2.0</ele><time>2026-04-03T15:43:37Z</time></trkpt><trkpt lat="40.28377784586538" lon="9.63854786250207"><ele>1.9999999999999998</ele><time>2026-04-03T15:50:32.999Z</time></trkpt><trkpt lat="40.28371483936413" lon="9.63856990958497"><ele>2.0</ele><time>2026-04-03T16:24:18Z</time></trkpt><trkpt lat="40.28369514237744" lon="9.638453578575067"><ele>2.0</ele><time>2026-04-03T16:24:40Z</time></trkpt><trkpt lat="40.28374197988633" lon="9.638286974713488"><ele>2.0</ele><time>2026-04-03T16:30:20.999Z</time></trkpt><trkpt lat="40.28370727026228" lon="9.638215192794268"><ele>2.0</ele><time>2026-04-03T16:30:21.999Z</time></trkpt><trkpt lat="40.28358396821385" lon="9.63819084681447"><ele>2.0</ele><time>2026-04-03T16:30:23.999Z</time></trkpt><trkpt lat="40.28351329444153" lon="9.638229455819793"><ele>2.0</ele><time>2026-04-03T16:30:24.999Z</time></trkpt><trkpt lat="40.28349103629168" lon="9.638338452465018"><ele>2.0</ele><time>2026-04-03T16:30:25.999Z</time></trkpt><trkpt lat="40.283570785697236" lon="9.6384408113921"><ele>2.0</ele><time>2026-04-03T16:30:26.999Z</time></trkpt><trkpt lat="40.28361400567924" lon="9.638575078937436"><ele>2.0</ele><time>2026-04-03T16:30:28.999Z</time></trkpt><trkpt lat="40.283678496581885" lon="9.63865829723652"><ele>2.0</ele><time>2026-04-03T16:30:30.999Z</time></trkpt><trkpt lat="40.283753179039685" lon="9.638742055186624"><ele>2.0</ele><time>2026-04-03T16:30:32.999Z</time></trkpt><trkpt lat="40.283762850184736" lon="9.638896066619976"><ele>2.0</ele><time>2026-04-03T16:30:34.999Z</time></trkpt><trkpt lat="40.283835914032856" lon="9.639021349830797"><ele>1.75</ele><time>2026-04-03T16:30:36.999Z</time></trkpt><trkpt lat="40.283899259827564" lon="9.63903537836127"><ele>1.5</ele><time>2026-04-03T16:30:37.999Z</time></trkpt><trkpt lat="40.28399532855948" lon="9.638816981036411"><ele>1.25</ele><time>2026-04-03T16:30:43.999Z</time></trkpt><trkpt lat="40.28398351442764" lon="9.638645427432378"><ele>1.0</ele><time>2026-04-03T16:30:45.999Z</time></trkpt><trkpt lat="40.283987282965015" lon="9.638541665384587"><ele>2.5</ele><time>2026-04-03T16:30:46.999Z</time></trkpt><trkpt lat="40.28399088182234" lon="9.638443449510648"><ele>4.0</ele><time>2026-04-03T16:30:47.999Z</time></trkpt><trkpt lat="40.28401231132796" lon="9.638332469809992"><ele>5.5</ele><time>2026-04-03T16:30:48.999Z</time></trkpt><trkpt lat="40.28406195108923" lon="9.638229274533854"><ele>7.0</ele><time>2026-04-03T16:30:49.999Z</time></trkpt><trkpt lat="40.28410412082909" lon="9.638119825047832"><ele>8.5</ele><time>2026-04-03T16:30:50.999Z</time></trkpt><trkpt lat="40.284142050667946" lon="9.638008408929702"><ele>10.0</ele><time>2026-04-03T16:30:51.999Z</time></trkpt><trkpt lat="40.28417346933754" lon="9.637921383914819"><ele>10.0</ele><time>2026-04-03T16:30:52.999Z</time></trkpt><trkpt lat="40.28421512069006" lon="9.637834641769455"><ele>10.0</ele><time>2026-04-03T16:30:53.999Z</time></trkpt><trkpt lat="40.2842525758453" lon="9.637742295260368"><ele>10.0</ele><time>2026-04-03T16:30:54.999Z</time></trkpt><trkpt lat="40.28429105908179" lon="9.637642473016417"><ele>10.0</ele><time>2026-04-03T16:30:56Z</time></trkpt><trkpt lat="40.28432824172537" lon="9.637545525804684"><ele>10.0</ele><time>2026-04-03T16:30:57Z</time></trkpt><trkpt lat="40.284366311002586" lon="9.63744885640367"><ele>10.0</ele><time>2026-04-03T16:30:58Z</time></trkpt><trkpt lat="40.28440488610757" lon="9.637347246540982"><ele>10.0</ele><time>2026-04-03T16:30:59Z</time></trkpt><trkpt lat="40.28444742936187" lon="9.637251673753951"><ele>10.0</ele><time>2026-04-03T16:31:00Z</time></trkpt><trkpt lat="40.28446582968915" lon="9.637147091844001"><ele>10.0</ele><time>2026-04-03T16:31:01Z</time></trkpt><trkpt lat="40.2844921917097" lon="9.637062827240037"><ele>10.0</ele><time>2026-04-03T16:31:02Z</time></trkpt><trkpt lat="40.28438667483649" lon="9.636959230863749"><ele>10.0</ele><time>2026-04-03T16:31:03Z</time></trkpt><trkpt lat="40.28431845772967" lon="9.636882172838327"><ele>11.6</ele><time>2026-04-03T16:31:04Z</time></trkpt><trkpt lat="40.284249638258515" lon="9.636810933102254"><ele>13.2</ele><time>2026-04-03T16:31:05Z</time></trkpt><trkpt lat="40.284179242337785" lon="9.636740032014488"><ele>14.8</ele><time>2026-04-03T16:31:06Z</time></trkpt><trkpt lat="40.28411117482773" lon="9.636646630540929"><ele>16.4</ele><time>2026-04-03T16:31:07Z</time></trkpt><trkpt lat="40.284052680422974" lon="9.636538872014883"><ele>18.0</ele><time>2026-04-03T16:31:08Z</time></trkpt><trkpt lat="40.284003825497976" lon="9.636432114392283"><ele>18.0</ele><time>2026-04-03T16:31:09Z</time></trkpt><trkpt lat="40.283966721993075" lon="9.6363223222866"><ele>18.0</ele><time>2026-04-03T16:31:10Z</time></trkpt><trkpt lat="40.283945227251046" lon="9.636205328814304"><ele>18.0</ele><time>2026-04-03T16:31:11Z</time></trkpt><trkpt lat="40.283909536040575" lon="9.636089978951238"><ele>18.0</ele><time>2026-04-03T16:31:12Z</time></trkpt><trkpt lat="40.283870979675896" lon="9.635982280571652"><ele>18.0</ele><time>2026-04-03T16:31:13Z</time></trkpt><trkpt lat="40.283824868405674" lon="9.635860636652543"><ele>19.0</ele><time>2026-04-03T16:31:14Z</time></trkpt><trkpt lat="40.28377012949636" lon="9.635748161874067"><ele>20.0</ele><time>2026-04-03T16:31:15Z</time></trkpt><trkpt lat="40.283686347410075" lon="9.63565708698231"><ele>21.0</ele><time>2026-04-03T16:31:16Z</time></trkpt><trkpt lat="40.283611041663015" lon="9.635572541667255"><ele>22.0</ele><time>2026-04-03T16:31:17Z</time></trkpt><trkpt lat="40.283535220288485" lon="9.635482633914421"><ele>23.0</ele><time>2026-04-03T16:31:18Z</time></trkpt><trkpt lat="40.283463601386835" lon="9.63540204625053"><ele>23.5</ele><time>2026-04-03T16:31:19Z</time></trkpt><trkpt lat="40.283451302771155" lon="9.635294873806975"><ele>24.0</ele><time>2026-04-03T16:31:20Z</time></trkpt><trkpt lat="40.28350207371186" lon="9.635200641219575"><ele>24.5</ele><time>2026-04-03T16:31:21Z</time></trkpt><trkpt lat="40.283525947856084" lon="9.635098343502685"><ele>25.0</ele><time>2026-04-03T16:31:22Z</time></trkpt><trkpt lat="40.28358187607393" lon="9.63501203098249"><ele>25.499999999999996</ele><time>2026-04-03T16:31:23Z</time></trkpt><trkpt lat="40.283622429617786" lon="9.634902879936183"><ele>26.0</ele><time>2026-04-03T16:31:24Z</time></trkpt><trkpt lat="40.28366653246114" lon="9.634792177739877"><ele>26.0</ele><time>2026-04-03T16:31:25Z</time></trkpt><trkpt lat="40.28371260414778" lon="9.634673199886615"><ele>26.0</ele><time>2026-04-03T16:31:26Z</time></trkpt><trkpt lat="40.283759796690155" lon="9.634555514929566"><ele>26.0</ele><time>2026-04-03T16:31:27Z</time></trkpt><trkpt lat="40.283795021178065" lon="9.634433595820616"><ele>26.0</ele><time>2026-04-03T16:31:28Z</time></trkpt><trkpt lat="40.283837570620726" lon="9.634302994321812"><ele>26.0</ele><time>2026-04-03T16:31:29Z</time></trkpt><trkpt lat="40.2838855991316" lon="9.634174427652683"><ele>28.4</ele><time>2026-04-03T16:31:30Z</time></trkpt><trkpt lat="40.28393150596139" lon="9.634048123150377"><ele>30.8</ele><time>2026-04-03T16:31:31Z</time></trkpt><trkpt lat="40.28398257160553" lon="9.633921026790714"><ele>33.199999999999996</ele><time>2026-04-03T16:31:32Z</time></trkpt><trkpt lat="40.28405106537314" lon="9.633799350539578"><ele>35.6</ele><time>2026-04-03T16:31:33Z</time></trkpt><trkpt lat="40.2840762428678" lon="9.633653795257144"><ele>38.0</ele><time>2026-04-03T16:31:34Z</time></trkpt><trkpt lat="40.284108151255694" lon="9.63351043683048"><ele>38.75</ele><time>2026-04-03T16:31:35Z</time></trkpt><trkpt lat="40.28412771453886" lon="9.633362699731528"><ele>39.5</ele><time>2026-04-03T16:31:36Z</time></trkpt><trkpt lat="40.28415207332712" lon="9.63320670332877"><ele>40.25</ele><time>2026-04-03T16:31:37Z</time></trkpt><trkpt lat="40.28417616249707" lon="9.633050157790176"><ele>41.0</ele><time>2026-04-03T16:31:38Z</time></trkpt><trkpt lat="40.284192251014396" lon="9.632890279551962"><ele>42.5</ele><time>2026-04-03T16:31:39Z</time></trkpt><trkpt lat="40.2842184632058" lon="9.632731303982398"><ele>44.0</ele><time>2026-04-03T16:31:40Z</time></trkpt><trkpt lat="40.2842400051717" lon="9.632573386428268"><ele>45.5</ele><time>2026-04-03T16:31:41Z</time></trkpt><trkpt lat="40.28426528918505" lon="9.63241460118884"><ele>47.0</ele><time>2026-04-03T16:31:42Z</time></trkpt><trkpt lat="40.284293198171476" lon="9.632251568446312"><ele>47.0</ele><time>2026-04-03T16:31:43Z</time></trkpt><trkpt lat="40.28431798065929" lon="9.632088882961174"><ele>47.0</ele><time>2026-04-03T16:31:44Z</time></trkpt><trkpt lat="40.28434210073859" lon="9.631922867867496"><ele>47.0</ele><time>2026-04-03T16:31:45Z</time></trkpt><trkpt lat="40.28436566110059" lon="9.631757217469703"><ele>47.0</ele><time>2026-04-03T16:31:46Z</time></trkpt><trkpt lat="40.284392040210726" lon="9.63159002213881"><ele>48.5</ele><time>2026-04-03T16:31:47Z</time></trkpt><trkpt lat="40.28440483118439" lon="9.631419303436966"><ele>50.0</ele><time>2026-04-03T16:31:48Z</time></trkpt><trkpt lat="40.28439380535451" lon="9.631246505091124"><ele>51.5</ele><time>2026-04-03T16:31:49Z</time></trkpt><trkpt lat="40.284360606862265" lon="9.63107670179514"><ele>53.0</ele><time>2026-04-03T16:31:50Z</time></trkpt><trkpt lat="40.28430302556257" lon="9.630912227419145"><ele>54.0</ele><time>2026-04-03T16:31:51Z</time></trkpt><trkpt lat="40.28425728870601" lon="9.630750572195502"><ele>55.0</ele><time>2026-04-03T16:31:52Z</time></trkpt><trkpt lat="40.28419761652831" lon="9.630599226846018"><ele>56.0</ele><time>2026-04-03T16:31:53Z</time></trkpt><trkpt lat="40.28410481754405" lon="9.630481295687858"><ele>57.0</ele><time>2026-04-03T16:31:54Z</time></trkpt><trkpt lat="40.28400112538768" lon="9.630366037821835"><ele>58.5</ele><time>2026-04-03T16:31:55Z</time></trkpt><trkpt lat="40.283892626014975" lon="9.630261996224426"><ele>60.0</ele><time>2026-04-03T16:31:56Z</time></trkpt><trkpt lat="40.28378301293304" lon="9.630160682168395"><ele>61.5</ele><time>2026-04-03T16:31:57Z</time></trkpt><trkpt lat="40.28366762260799" lon="9.630063004919695"><ele>63.0</ele><time>2026-04-03T16:31:58Z</time></trkpt><trkpt lat="40.283539599389904" lon="9.63000320862616"><ele>63.0</ele><time>2026-04-03T16:31:59Z</time></trkpt><trkpt lat="40.2834152536306" lon="9.629936023278956"><ele>63.0</ele><time>2026-04-03T16:32:00Z</time></trkpt><trkpt lat="40.28329097894268" lon="9.629869910057497"><ele>63.0</ele><time>2026-04-03T16:32:01Z</time></trkpt><trkpt lat="40.28316560669645" lon="9.629799216162208"><ele>63.0</ele><time>2026-04-03T16:32:02Z</time></trkpt><trkpt lat="40.283050469652444" lon="9.629704774815108"><ele>62.0</ele><time>2026-04-03T16:32:03Z</time></trkpt><trkpt lat="40.28294579345348" lon="9.629584938695917"><ele>61.0</ele><time>2026-04-03T16:32:04Z</time></trkpt><trkpt lat="40.28284460263394" lon="9.629461332736977"><ele>60.0</ele><time>2026-04-03T16:32:05Z</time></trkpt><trkpt lat="40.28274965600112" lon="9.629332859164496"><ele>59.0</ele><time>2026-04-03T16:32:06Z</time></trkpt><trkpt lat="40.28266245744043" lon="9.629197073286743"><ele>61.5</ele><time>2026-04-03T16:32:07Z</time></trkpt><trkpt lat="40.28258675134635" lon="9.629050247010118"><ele>64.0</ele><time>2026-04-03T16:32:08Z</time></trkpt><trkpt lat="40.28252432672286" lon="9.628895613972162"><ele>66.5</ele><time>2026-04-03T16:32:09Z</time></trkpt><trkpt lat="40.282470543661454" lon="9.628737240709796"><ele>69.0</ele><time>2026-04-03T16:32:10Z</time></trkpt><trkpt lat="40.28243316513755" lon="9.628577500529053"><ele>71.5</ele><time>2026-04-03T16:32:11Z</time></trkpt><trkpt lat="40.28240485432676" lon="9.628411183045802"><ele>74.0</ele><time>2026-04-03T16:32:12Z</time></trkpt><trkpt lat="40.2823706414948" lon="9.628249126822174"><ele>76.5</ele><time>2026-04-03T16:32:13Z</time></trkpt><trkpt lat="40.282333754944155" lon="9.628083403011365"><ele>79.0</ele><time>2026-04-03T16:32:13.999Z</time></trkpt><trkpt lat="40.28229767772382" lon="9.627920335064978"><ele>78.25</ele><time>2026-04-03T16:32:14.999Z</time></trkpt><trkpt lat="40.28226660555095" lon="9.627755936503242"><ele>77.5</ele><time>2026-04-03T16:32:15.999Z</time></trkpt><trkpt lat="40.282238806412224" lon="9.627591380697758"><ele>76.75</ele><time>2026-04-03T16:32:16.999Z</time></trkpt><trkpt lat="40.28221432899193" lon="9.627427706118944"><ele>76.0</ele><time>2026-04-03T16:32:17.999Z</time></trkpt><trkpt lat="40.28219082640692" lon="9.627259708517087"><ele>76.0</ele><time>2026-04-03T16:32:18.999Z</time></trkpt><trkpt lat="40.28216954544572" lon="9.627092536794637"><ele>76.0</ele><time>2026-04-03T16:32:19.999Z</time></trkpt><trkpt lat="40.28214576016882" lon="9.626924302803003"><ele>76.0</ele><time>2026-04-03T16:32:20.999Z</time></trkpt><trkpt lat="40.28211961217791" lon="9.626759058880502"><ele>76.0</ele><time>2026-04-03T16:32:21.999Z</time></trkpt><trkpt lat="40.282098437327065" lon="9.62659088327214"><ele>77.25</ele><time>2026-04-03T16:32:22.999Z</time></trkpt><trkpt lat="40.28207530592681" lon="9.626421877154629"><ele>78.5</ele><time>2026-04-03T16:32:23.999Z</time></trkpt><trkpt lat="40.28205406162926" lon="9.626248539509742"><ele>79.75</ele><time>2026-04-03T16:32:24.999Z</time></trkpt><trkpt lat="40.28203279309564" lon="9.626078223632478"><ele>81.0</ele><time>2026-04-03T16:32:25.999Z</time></trkpt><trkpt lat="40.28201797318647" lon="9.625901687571183"><ele>82.0</ele><time>2026-04-03T16:32:26.999Z</time></trkpt><trkpt lat="40.281995123899314" lon="9.62573454154336"><ele>83.0</ele><time>2026-04-03T16:32:27.999Z</time></trkpt><trkpt lat="40.28196411821775" lon="9.625555499111673"><ele>84.0</ele><time>2026-04-03T16:32:28.999Z</time></trkpt><trkpt lat="40.28193443434792" lon="9.6253698290547"><ele>85.0</ele><time>2026-04-03T16:32:29.999Z</time></trkpt><trkpt lat="40.28190337221386" lon="9.62517956617307"><ele>86.25</ele><time>2026-04-03T16:32:30.999Z</time></trkpt><trkpt lat="40.28187215513703" lon="9.624984719760397"><ele>87.5</ele><time>2026-04-03T16:32:31.999Z</time></trkpt><trkpt lat="40.28183769680721" lon="9.6247943371994"><ele>88.75</ele><time>2026-04-03T16:32:32.999Z</time></trkpt><trkpt lat="40.28179492926575" lon="9.624608526346766"><ele>90.0</ele><time>2026-04-03T16:32:33.999Z</time></trkpt><trkpt lat="40.2817442118539" lon="9.624421567383562"><ele>93.0</ele><time>2026-04-03T16:32:34.999Z</time></trkpt><trkpt lat="40.28169523443119" lon="9.624226670033273"><ele>96.0</ele><time>2026-04-03T16:32:35.999Z</time></trkpt><trkpt lat="40.281640519984975" lon="9.624040216354054"><ele>99.0</ele><time>2026-04-03T16:32:36.999Z</time></trkpt><trkpt lat="40.28158414444338" lon="9.623852907191882"><ele>99.0</ele><time>2026-04-03T16:32:37.999Z</time></trkpt><trkpt lat="40.28153229987571" lon="9.623661765717078"><ele>99.0</ele><time>2026-04-03T16:32:38.999Z</time></trkpt><trkpt lat="40.28148376070515" lon="9.623466733202921"><ele>99.0</ele><time>2026-04-03T16:32:39.999Z</time></trkpt><trkpt lat="40.28141725296293" lon="9.623281138318417"><ele>99.33333333333334</ele><time>2026-04-03T16:32:40.999Z</time></trkpt><trkpt lat="40.28134383987124" lon="9.623100738088484"><ele>99.66666666666667</ele><time>2026-04-03T16:32:41.999Z</time></trkpt><trkpt lat="40.281267974996496" lon="9.622923584257604"><ele>100.0</ele><time>2026-04-03T16:32:42.999Z</time></trkpt><trkpt lat="40.28119051281182" lon="9.622743134175199"><ele>102.0</ele><time>2026-04-03T16:32:43.999Z</time></trkpt><trkpt lat="40.28111682102693" lon="9.622560909537484"><ele>104.0</ele><time>2026-04-03T16:32:44.999Z</time></trkpt><trkpt lat="40.281034708801094" lon="9.622381150676421"><ele>106.0</ele><time>2026-04-03T16:32:45.999Z</time></trkpt><trkpt lat="40.28095118618702" lon="9.622195007579498"><ele>106.0</ele><time>2026-04-03T16:32:46.999Z</time></trkpt><trkpt lat="40.28087154604966" lon="9.621998932250053"><ele>106.0</ele><time>2026-04-03T16:32:47.999Z</time></trkpt><trkpt lat="40.280790588276055" lon="9.621803478380265"><ele>106.0</ele><time>2026-04-03T16:32:48.999Z</time></trkpt><trkpt lat="40.28070921959359" lon="9.621610762275084"><ele>105.66666666666667</ele><time>2026-04-03T16:32:49.999Z</time></trkpt><trkpt lat="40.28062870934839" lon="9.62141868334062"><ele>105.33333333333334</ele><time>2026-04-03T16:32:50.999Z</time></trkpt><trkpt lat="40.28054721239577" lon="9.621225078554078"><ele>105.0</ele><time>2026-04-03T16:32:51.999Z</time></trkpt><trkpt lat="40.28046584973781" lon="9.621030551816657"><ele>108.33333333333334</ele><time>2026-04-03T16:32:52.999Z</time></trkpt><trkpt lat="40.28038731998783" lon="9.620836361061816"><ele>111.66666666666667</ele><time>2026-04-03T16:32:53.999Z</time></trkpt><trkpt lat="40.2803081715417" lon="9.620642786837678"><ele>115.0</ele><time>2026-04-03T16:32:54.999Z</time></trkpt><trkpt lat="40.280231753906534" lon="9.62044619638968"><ele>117.66666666666667</ele><time>2026-04-03T16:32:55.999Z</time></trkpt><trkpt lat="40.28015734912335" lon="9.620249671998968"><ele>120.33333333333334</ele><time>2026-04-03T16:32:56.999Z</time></trkpt><trkpt lat="40.2800845956983" lon="9.620052414726645"><ele>123.0</ele><time>2026-04-03T16:32:57.999Z</time></trkpt><trkpt lat="40.28001561821683" lon="9.619858465044572"><ele>123.0</ele><time>2026-04-03T16:32:58.999Z</time></trkpt><trkpt lat="40.279949975420195" lon="9.6196774295953"><ele>123.0</ele><time>2026-04-03T16:32:59.999Z</time></trkpt><trkpt lat="40.279887360565766" lon="9.619504342680546"><ele>123.0</ele><time>2026-04-03T16:33:00.999Z</time></trkpt><trkpt lat="40.27983706982412" lon="9.619347051952918"><ele>123.0</ele><time>2026-04-03T16:33:01.999Z</time></trkpt><trkpt lat="40.2798046932943" lon="9.619202600704273"><ele>122.75</ele><time>2026-04-03T16:33:02.999Z</time></trkpt><trkpt lat="40.27978907729994" lon="9.619066749189638"><ele>122.5</ele><time>2026-04-03T16:33:03.999Z</time></trkpt><trkpt lat="40.27977119935841" lon="9.61893351632996"><ele>122.25</ele><time>2026-04-03T16:33:04.999Z</time></trkpt><trkpt lat="40.27969799928479" lon="9.61881757774239"><ele>122.0</ele><time>2026-04-03T16:33:05.999Z</time></trkpt><trkpt lat="40.27961562456795" lon="9.618690130500317"><ele>123.5</ele><time>2026-04-03T16:33:06.999Z</time></trkpt><trkpt lat="40.27955609859417" lon="9.61853077109704"><ele>125.0</ele><time>2026-04-03T16:33:07.999Z</time></trkpt><trkpt lat="40.27950125905073" lon="9.618364448581742"><ele>126.5</ele><time>2026-04-03T16:33:08.999Z</time></trkpt><trkpt lat="40.27943013582702" lon="9.618192575810669"><ele>128.0</ele><time>2026-04-03T16:33:09.999Z</time></trkpt><trkpt lat="40.279361364325545" lon="9.618007068652112"><ele>130.33333333333331</ele><time>2026-04-03T16:33:10.999Z</time></trkpt><trkpt lat="40.279298701607495" lon="9.617806419650414"><ele>132.66666666666666</ele><time>2026-04-03T16:33:11.999Z</time></trkpt><trkpt lat="40.2792346669485" lon="9.61760862061098"><ele>135.0</ele><time>2026-04-03T16:33:12.999Z</time></trkpt><trkpt lat="40.27916791813586" lon="9.61740749508195"><ele>135.0</ele><time>2026-04-03T16:33:13.999Z</time></trkpt><trkpt lat="40.27909942074711" lon="9.617205784376376"><ele>135.0</ele><time>2026-04-03T16:33:14.999Z</time></trkpt><trkpt lat="40.279032247089766" lon="9.616999854056955"><ele>135.0</ele><time>2026-04-03T16:33:15.999Z</time></trkpt><trkpt lat="40.27895757205565" lon="9.61679427790376"><ele>136.33333333333334</ele><time>2026-04-03T16:33:16.999Z</time></trkpt><trkpt lat="40.27886950643738" lon="9.616589166002148"><ele>137.66666666666669</ele><time>2026-04-03T16:33:17.999Z</time></trkpt><trkpt lat="40.27875550572716" lon="9.61639668455067"><ele>139.0</ele><time>2026-04-03T16:33:18.999Z</time></trkpt><trkpt lat="40.278629933183986" lon="9.616219143135789"><ele>142.66666666666669</ele><time>2026-04-03T16:33:19.999Z</time></trkpt><trkpt lat="40.27850569191321" lon="9.616062742674787"><ele>146.33333333333334</ele><time>2026-04-03T16:33:20.999Z</time></trkpt><trkpt lat="40.278379113211926" lon="9.615912591163545"><ele>150.0</ele><time>2026-04-03T16:33:21.999Z</time></trkpt><trkpt lat="40.27825408438241" lon="9.615771009204392"><ele>150.0</ele><time>2026-04-03T16:33:22.999Z</time></trkpt><trkpt lat="40.27812952948957" lon="9.615631081120366"><ele>150.0</ele><time>2026-04-03T16:33:23.999Z</time></trkpt><trkpt lat="40.278006341189254" lon="9.615485225817945"><ele>150.0</ele><time>2026-04-03T16:33:24.999Z</time></trkpt><trkpt lat="40.277882709644075" lon="9.615340499730593"><ele>152.33333333333334</ele><time>2026-04-03T16:33:25.999Z</time></trkpt><trkpt lat="40.27775970005644" lon="9.615197645676494"><ele>154.66666666666669</ele><time>2026-04-03T16:33:26.999Z</time></trkpt><trkpt lat="40.277641153046346" lon="9.615045165799916"><ele>157.0</ele><time>2026-04-03T16:33:27.999Z</time></trkpt><trkpt lat="40.27752100566875" lon="9.614895752668803"><ele>157.0</ele><time>2026-04-03T16:33:28.999Z</time></trkpt><trkpt lat="40.277403386452335" lon="9.614738244887771"><ele>157.0</ele><time>2026-04-03T16:33:29.999Z</time></trkpt><trkpt lat="40.277238752583784" lon="9.614653032485066"><ele>157.0</ele><time>2026-04-03T16:33:30.999Z</time></trkpt><trkpt lat="40.27708593153283" lon="9.614575575913252"><ele>156.66666666666669</ele><time>2026-04-03T16:33:31.999Z</time></trkpt><trkpt lat="40.27693357290252" lon="9.614501349621266"><ele>156.33333333333334</ele><time>2026-04-03T16:33:32.999Z</time></trkpt><trkpt lat="40.27677596545639" lon="9.614425131662966"><ele>156.0</ele><time>2026-04-03T16:33:33.999Z</time></trkpt><trkpt lat="40.27661316720643" lon="9.614363641240592"><ele>159.33333333333334</ele><time>2026-04-03T16:33:34.999Z</time></trkpt><trkpt lat="40.27644064705746" lon="9.614340208478447"><ele>162.66666666666669</ele><time>2026-04-03T16:33:35.999Z</time></trkpt><trkpt lat="40.27626993522181" lon="9.614307878446198"><ele>166.0</ele><time>2026-04-03T16:33:36.999Z</time></trkpt><trkpt lat="40.27609795873432" lon="9.614343231815063"><ele>167.0</ele><time>2026-04-03T16:33:37.999Z</time></trkpt><trkpt lat="40.27594252556269" lon="9.614399333176864"><ele>168.0</ele><time>2026-04-03T16:33:38.999Z</time></trkpt><trkpt lat="40.275779646334975" lon="9.614395547339738"><ele>169.0</ele><time>2026-04-03T16:33:39.999Z</time></trkpt><trkpt lat="40.2756238976366" lon="9.614359427855181"><ele>169.33333333333334</ele><time>2026-04-03T16:33:40.999Z</time></trkpt><trkpt lat="40.27546388484721" lon="9.614327916039358"><ele>169.66666666666666</ele><time>2026-04-03T16:33:41.999Z</time></trkpt><trkpt lat="40.275307600245306" lon="9.614269039323322"><ele>170.0</ele><time>2026-04-03T16:33:42.999Z</time></trkpt><trkpt lat="40.27517596324977" lon="9.61414764878338"><ele>170.0</ele><time>2026-04-03T16:33:43.999Z</time></trkpt><trkpt lat="40.2750311268528" lon="9.614050301765884"><ele>170.0</ele><time>2026-04-03T16:33:44.999Z</time></trkpt><trkpt lat="40.274879361472394" lon="9.613967537343626"><ele>170.0</ele><time>2026-04-03T16:33:45.999Z</time></trkpt><trkpt lat="40.27471758065359" lon="9.613911849029238"><ele>171.33333333333331</ele><time>2026-04-03T16:33:46.999Z</time></trkpt><trkpt lat="40.274553319817045" lon="9.61385799928415"><ele>172.66666666666666</ele><time>2026-04-03T16:33:47.999Z</time></trkpt><trkpt lat="40.27438690591261" lon="9.613811345886912"><ele>174.0</ele><time>2026-04-03T16:33:48.999Z</time></trkpt><trkpt lat="40.27421894548936" lon="9.613772569362368"><ele>174.0</ele><time>2026-04-03T16:33:49.999Z</time></trkpt><trkpt lat="40.27404945568508" lon="9.613741694329466"><ele>174.0</ele><time>2026-04-03T16:33:50.999Z</time></trkpt><trkpt lat="40.27387754126625" lon="9.613714704078726"><ele>174.0</ele><time>2026-04-03T16:33:51.999Z</time></trkpt><trkpt lat="40.27370942714199" lon="9.613664880709"><ele>177.66666666666666</ele><time>2026-04-03T16:33:52.999Z</time></trkpt><trkpt lat="40.27355481635072" lon="9.61356356332045"><ele>181.33333333333331</ele><time>2026-04-03T16:33:53.999Z</time></trkpt><trkpt lat="40.273405066766905" lon="9.613445957594667"><ele>185.0</ele><time>2026-04-03T16:33:54.999Z</time></trkpt><trkpt lat="40.27325318847515" lon="9.613332036146312"><ele>185.0</ele><time>2026-04-03T16:33:55.999Z</time></trkpt><trkpt lat="40.27310648454051" lon="9.613213210610882"><ele>185.0</ele><time>2026-04-03T16:33:56.999Z</time></trkpt><trkpt lat="40.27295947155505" lon="9.613090322048226"><ele>185.0</ele><time>2026-04-03T16:33:57.999Z</time></trkpt><trkpt lat="40.27280700115631" lon="9.612978173468886"><ele>185.0</ele><time>2026-04-03T16:33:58.999Z</time></trkpt><trkpt lat="40.272654428681975" lon="9.61288387869871"><ele>185.0</ele><time>2026-04-03T16:33:59.999Z</time></trkpt><trkpt lat="40.27250768243208" lon="9.612808923716766"><ele>185.0</ele><time>2026-04-03T16:34:00.999Z</time></trkpt><trkpt lat="40.272366508517564" lon="9.612766377119819"><ele>188.0</ele><time>2026-04-03T16:34:01.999Z</time></trkpt><trkpt lat="40.27224199117318" lon="9.612734476867443"><ele>191.0</ele><time>2026-04-03T16:34:02.999Z</time></trkpt><trkpt lat="40.27213871874528" lon="9.61272788197421"><ele>194.0</ele><time>2026-04-03T16:34:03.999Z</time></trkpt><trkpt lat="40.27205679399877" lon="9.612717421562197"><ele>197.0</ele><time>2026-04-03T16:34:04.999Z</time></trkpt><trkpt lat="40.272004517171425" lon="9.612617076942097"><ele>200.0</ele><time>2026-04-03T16:34:05.999Z</time></trkpt><trkpt lat="40.272008457749294" lon="9.612519692426316"><ele>200.0</ele><time>2026-04-03T16:34:06.999Z</time></trkpt><trkpt lat="40.27206107924655" lon="9.612438091882485"><ele>200.0</ele><time>2026-04-03T16:34:07.999Z</time></trkpt><trkpt lat="40.27214720822891" lon="9.612407285015257"><ele>200.0</ele><time>2026-04-03T16:34:08.999Z</time></trkpt><trkpt lat="40.272254011306025" lon="9.612407076230873"><ele>200.0</ele><time>2026-04-03T16:34:09.999Z</time></trkpt><trkpt lat="40.272362821652884" lon="9.612406830981397"><ele>200.0</ele><time>2026-04-03T16:34:10.999Z</time></trkpt><trkpt lat="40.27247842188417" lon="9.612391256083392"><ele>199.0</ele><time>2026-04-03T16:34:11.999Z</time></trkpt><trkpt lat="40.27261025412669" lon="9.61233810891659"><ele>198.0</ele><time>2026-04-03T16:34:12.999Z</time></trkpt><trkpt lat="40.272763400994464" lon="9.612272170378787"><ele>197.0</ele><time>2026-04-03T16:34:13.999Z</time></trkpt><trkpt lat="40.27291825796177" lon="9.612209511875704"><ele>197.0</ele><time>2026-04-03T16:34:14.999Z</time></trkpt><trkpt lat="40.273089940405946" lon="9.612140857616428"><ele>197.0</ele><time>2026-04-03T16:34:15.999Z</time></trkpt><trkpt lat="40.273258995246415" lon="9.612076107020792"><ele>197.0</ele><time>2026-04-03T16:34:16.999Z</time></trkpt><trkpt lat="40.27341916167756" lon="9.612010131219424"><ele>200.25</ele><time>2026-04-03T16:34:17.999Z</time></trkpt><trkpt lat="40.27355977523871" lon="9.611930041657347"><ele>203.5</ele><time>2026-04-03T16:34:18.999Z</time></trkpt><trkpt lat="40.27368991493452" lon="9.611836530548214"><ele>206.75</ele><time>2026-04-03T16:34:19.999Z</time></trkpt><trkpt lat="40.27380892053875" lon="9.611729685703938"><ele>210.0</ele><time>2026-04-03T16:34:20.999Z</time></trkpt><trkpt lat="40.27392605123429" lon="9.611620165543998"><ele>209.25</ele><time>2026-04-03T16:34:21.999Z</time></trkpt><trkpt lat="40.27403598029157" lon="9.611503663031431"><ele>208.5</ele><time>2026-04-03T16:34:22.999Z</time></trkpt><trkpt lat="40.27413784895917" lon="9.61138024543625"><ele>207.75</ele><time>2026-04-03T16:34:23.999Z</time></trkpt><trkpt lat="40.274238821098095" lon="9.611246376684015"><ele>207.0</ele><time>2026-04-03T16:34:24.999Z</time></trkpt><trkpt lat="40.274338828519795" lon="9.611106398110444"><ele>211.0</ele><time>2026-04-03T16:34:25.999Z</time></trkpt><trkpt lat="40.274441716084674" lon="9.610966953397359"><ele>215.0</ele><time>2026-04-03T16:34:26.999Z</time></trkpt><trkpt lat="40.2745616177481" lon="9.610850002779108"><ele>219.0</ele><time>2026-04-03T16:34:27.999Z</time></trkpt><trkpt lat="40.274713540017686" lon="9.610811506390462"><ele>218.0</ele><time>2026-04-03T16:34:28.999Z</time></trkpt><trkpt lat="40.27486410227221" lon="9.61074369319719"><ele>217.0</ele><time>2026-04-03T16:34:29.999Z</time></trkpt><trkpt lat="40.27501830483017" lon="9.610685319940766"><ele>216.0</ele><time>2026-04-03T16:34:30.999Z</time></trkpt><trkpt lat="40.27517209291758" lon="9.610622274611364"><ele>216.0</ele><time>2026-04-03T16:34:31.999Z</time></trkpt><trkpt lat="40.27532887212925" lon="9.610549047899378"><ele>216.0</ele><time>2026-04-03T16:34:32.999Z</time></trkpt><trkpt lat="40.27548319813167" lon="9.610480537967446"><ele>216.0</ele><time>2026-04-03T16:34:33.999Z</time></trkpt><trkpt lat="40.27563022949583" lon="9.61042086036525"><ele>216.0</ele><time>2026-04-03T16:34:34.999Z</time></trkpt><trkpt lat="40.27576671634236" lon="9.610394226487402"><ele>216.00000000000003</ele><time>2026-04-03T16:34:35.999Z</time></trkpt><trkpt lat="40.275888804828135" lon="9.61038165091293"><ele>216.00000000000003</ele><time>2026-04-03T16:34:36.999Z</time></trkpt><trkpt lat="40.27596644270917" lon="9.610369763645139"><ele>216.0</ele><time>2026-04-03T16:34:37.999Z</time></trkpt><trkpt lat="40.27602537523772" lon="9.610329340789269"><ele>216.0</ele><time>2026-04-03T16:34:38.999Z</time></trkpt><trkpt lat="40.27606064966262" lon="9.610243502992084"><ele>218.8</ele><time>2026-04-03T16:34:39.999Z</time></trkpt><trkpt lat="40.27607679792512" lon="9.61013009728173"><ele>221.60000000000002</ele><time>2026-04-03T16:34:40.999Z</time></trkpt><trkpt lat="40.276037671180084" lon="9.610021229733427"><ele>224.4</ele><time>2026-04-03T16:34:41.999Z</time></trkpt><trkpt lat="40.2759481929183" lon="9.609978623321544"><ele>227.2</ele><time>2026-04-03T16:34:42.999Z</time></trkpt><trkpt lat="40.27584805429059" lon="9.609956592510125"><ele>230.0</ele><time>2026-04-03T16:34:43.999Z</time></trkpt><trkpt lat="40.27574056710182" lon="9.6099340783184"><ele>230.0</ele><time>2026-04-03T16:34:44.999Z</time></trkpt><trkpt lat="40.27563069516378" lon="9.609897762155901"><ele>230.0</ele><time>2026-04-03T16:34:45.999Z</time></trkpt><trkpt lat="40.275507188953156" lon="9.609854704527406"><ele>230.0</ele><time>2026-04-03T16:34:46.999Z</time></trkpt><trkpt lat="40.2753774903594" lon="9.609784837349599"><ele>230.0</ele><time>2026-04-03T16:34:47.999Z</time></trkpt><trkpt lat="40.275245268479" lon="9.609691095215624"><ele>229.33333333333334</ele><time>2026-04-03T16:34:48.999Z</time></trkpt><trkpt lat="40.275112891700736" lon="9.609561500929752"><ele>228.66666666666669</ele><time>2026-04-03T16:34:49.999Z</time></trkpt><trkpt lat="40.27496376481006" lon="9.60946191475011"><ele>228.0</ele><time>2026-04-03T16:34:50.999Z</time></trkpt><trkpt lat="40.27481365089755" lon="9.60934099807681"><ele>233.33333333333331</ele><time>2026-04-03T16:34:51.999Z</time></trkpt><trkpt lat="40.27463933590107" lon="9.609244510266755"><ele>238.66666666666666</ele><time>2026-04-03T16:34:52.999Z</time></trkpt><trkpt lat="40.27446313420903" lon="9.609168168375042"><ele>244.0</ele><time>2026-04-03T16:34:53.999Z</time></trkpt><trkpt lat="40.274293611358786" lon="9.609088080087664"><ele>244.0</ele><time>2026-04-03T16:34:54.999Z</time></trkpt><trkpt lat="40.27411214012155" lon="9.609062951546917"><ele>244.0</ele><time>2026-04-03T16:34:55.999Z</time></trkpt><trkpt lat="40.27393719079972" lon="9.60909890620394"><ele>244.0</ele><time>2026-04-03T16:34:56.999Z</time></trkpt><trkpt lat="40.27376761495934" lon="9.609131862818586"><ele>245.66666666666666</ele><time>2026-04-03T16:34:57.999Z</time></trkpt><trkpt lat="40.27360040349533" lon="9.609108759827228"><ele>247.33333333333331</ele><time>2026-04-03T16:34:58.999Z</time></trkpt><trkpt lat="40.27343382513921" lon="9.609087066363795"><ele>249.0</ele><time>2026-04-03T16:34:59.999Z</time></trkpt><trkpt lat="40.27326527218431" lon="9.609040816585171"><ele>249.0</ele><time>2026-04-03T16:35:00.999Z</time></trkpt><trkpt lat="40.27310927372307" lon="9.608962599227707"><ele>249.0</ele><time>2026-04-03T16:35:01.999Z</time></trkpt><trkpt lat="40.272953408708396" lon="9.608876812424317"><ele>249.0</ele><time>2026-04-03T16:35:02.999Z</time></trkpt><trkpt lat="40.27281125179163" lon="9.608766527592246"><ele>248.0</ele><time>2026-04-03T16:35:03.999Z</time></trkpt><trkpt lat="40.272673868034474" lon="9.608669242062089"><ele>247.0</ele><time>2026-04-03T16:35:04.999Z</time></trkpt><trkpt lat="40.272549691109205" lon="9.608570472993145"><ele>246.0</ele><time>2026-04-03T16:35:05.999Z</time></trkpt><trkpt lat="40.27245500218211" lon="9.608429836936494"><ele>245.0</ele><time>2026-04-03T16:35:06.999Z</time></trkpt><trkpt lat="40.272345273519136" lon="9.60831322225182"><ele>247.4</ele><time>2026-04-03T16:35:07.999Z</time></trkpt><trkpt lat="40.272221841357954" lon="9.608253291130678"><ele>249.8</ele><time>2026-04-03T16:35:08.999Z</time></trkpt><trkpt lat="40.27208757706859" lon="9.608224107201893"><ele>252.2</ele><time>2026-04-03T16:35:09.999Z</time></trkpt><trkpt lat="40.271992543571876" lon="9.608197361336996"><ele>254.6</ele><time>2026-04-03T16:35:10.999Z</time></trkpt><trkpt lat="40.2719178535801" lon="9.608167000824471"><ele>257.0</ele><time>2026-04-03T16:35:11.999Z</time></trkpt><trkpt lat="40.27188735010787" lon="9.608050384968735"><ele>257.0</ele><time>2026-04-03T16:35:13.999Z</time></trkpt><trkpt lat="40.27193431019298" lon="9.607923330174446"><ele>257.0</ele><time>2026-04-03T16:35:14.999Z</time></trkpt><trkpt lat="40.27202877860073" lon="9.607881474891006"><ele>257.0</ele><time>2026-04-03T16:35:15.999Z</time></trkpt><trkpt lat="40.272133826701726" lon="9.607887723897248"><ele>257.0</ele><time>2026-04-03T16:35:16.999Z</time></trkpt><trkpt lat="40.272251267501275" lon="9.607901792227286"><ele>257.0</ele><time>2026-04-03T16:35:18Z</time></trkpt><trkpt lat="40.27237463721079" lon="9.607882042913586"><ele>257.75</ele><time>2026-04-03T16:35:19Z</time></trkpt><trkpt lat="40.27250211846894" lon="9.60787614386539"><ele>258.5</ele><time>2026-04-03T16:35:20Z</time></trkpt><trkpt lat="40.27264129231831" lon="9.607864681546072"><ele>259.25</ele><time>2026-04-03T16:35:21Z</time></trkpt><trkpt lat="40.27277231833253" lon="9.607854257924972"><ele>260.0</ele><time>2026-04-03T16:35:22Z</time></trkpt><trkpt lat="40.27289330022647" lon="9.607784735827524"><ele>263.25</ele><time>2026-04-03T16:35:23Z</time></trkpt><trkpt lat="40.27299204299772" lon="9.60764565288173"><ele>266.5</ele><time>2026-04-03T16:35:24Z</time></trkpt><trkpt lat="40.27310540642536" lon="9.607517624854516"><ele>269.75</ele><time>2026-04-03T16:35:25Z</time></trkpt><trkpt lat="40.273210997994546" lon="9.60739440490034"><ele>273.0</ele><time>2026-04-03T16:35:26Z</time></trkpt><trkpt lat="40.27336087994336" lon="9.60731343479543"><ele>273.3333333333333</ele><time>2026-04-03T16:35:27Z</time></trkpt><trkpt lat="40.273502840992734" lon="9.607201667729408"><ele>273.66666666666663</ele><time>2026-04-03T16:35:28Z</time></trkpt><trkpt lat="40.27362958838208" lon="9.607048459419723"><ele>274.0</ele><time>2026-04-03T16:35:29Z</time></trkpt><trkpt lat="40.27375437590162" lon="9.606891539809014"><ele>276.3333333333333</ele><time>2026-04-03T16:35:30Z</time></trkpt><trkpt lat="40.273878908893415" lon="9.606739274292693"><ele>278.6666666666667</ele><time>2026-04-03T16:35:31Z</time></trkpt><trkpt lat="40.27399581970804" lon="9.606586939355983"><ele>281.0</ele><time>2026-04-03T16:35:32Z</time></trkpt><trkpt lat="40.274096530654816" lon="9.60643790139389"><ele>281.0</ele><time>2026-04-03T16:35:33Z</time></trkpt><trkpt lat="40.274172554929315" lon="9.606294839152461"><ele>281.0</ele><time>2026-04-03T16:35:34Z</time></trkpt><trkpt lat="40.27423913042981" lon="9.606166377013095"><ele>281.0</ele><time>2026-04-03T16:35:35Z</time></trkpt><trkpt lat="40.27436632325315" lon="9.606147394629598"><ele>281.0</ele><time>2026-04-03T16:35:36Z</time></trkpt><trkpt lat="40.27450766137557" lon="9.60615139362659"><ele>284.25</ele><time>2026-04-03T16:35:37Z</time></trkpt><trkpt lat="40.27464830273406" lon="9.60614328435087"><ele>287.5</ele><time>2026-04-03T16:35:38Z</time></trkpt><trkpt lat="40.27479403991182" lon="9.60612050215166"><ele>290.75</ele><time>2026-04-03T16:35:39Z</time></trkpt><trkpt lat="40.27493699690908" lon="9.60608077745953"><ele>294.0</ele><time>2026-04-03T16:35:40Z</time></trkpt><trkpt lat="40.27508065487197" lon="9.606029163503374"><ele>294.0</ele><time>2026-04-03T16:35:41Z</time></trkpt><trkpt lat="40.27522201745654" lon="9.605961748694206"><ele>294.0</ele><time>2026-04-03T16:35:42Z</time></trkpt><trkpt lat="40.27536503556256" lon="9.605905137227653"><ele>294.0</ele><time>2026-04-03T16:35:43Z</time></trkpt><trkpt lat="40.27550026581557" lon="9.605891705964563"><ele>294.0</ele><time>2026-04-03T16:35:44Z</time></trkpt><trkpt lat="40.27561533600983" lon="9.605939496441641"><ele>295.5</ele><time>2026-04-03T16:35:45Z</time></trkpt><trkpt lat="40.275687971134815" lon="9.605991716311296"><ele>297.0</ele><time>2026-04-03T16:35:46Z</time></trkpt><trkpt lat="40.275760211240204" lon="9.606024965698026"><ele>298.5</ele><time>2026-04-03T16:35:47Z</time></trkpt><trkpt lat="40.275835356989056" lon="9.60599699174125"><ele>300.0</ele><time>2026-04-03T16:35:48Z</time></trkpt><trkpt lat="40.27588816764219" lon="9.60592130065077"><ele>301.5</ele><time>2026-04-03T16:35:49Z</time></trkpt><trkpt lat="40.27590210008675" lon="9.605811464680976"><ele>303.0</ele><time>2026-04-03T16:35:50Z</time></trkpt><trkpt lat="40.27586556112815" lon="9.60569529804004"><ele>303.0</ele><time>2026-04-03T16:35:51Z</time></trkpt><trkpt lat="40.275785247120595" lon="9.605604275825131"><ele>303.0</ele><time>2026-04-03T16:35:52Z</time></trkpt><trkpt lat="40.27568736406125" lon="9.605511181881466"><ele>303.0</ele><time>2026-04-03T16:35:53Z</time></trkpt><trkpt lat="40.27558885729371" lon="9.605418210957794"><ele>303.0</ele><time>2026-04-03T16:35:54Z</time></trkpt><trkpt lat="40.275465364045324" lon="9.605321419672274"><ele>304.6666666666667</ele><time>2026-04-03T16:35:55Z</time></trkpt><trkpt lat="40.275327180049686" lon="9.605231122024328"><ele>306.33333333333337</ele><time>2026-04-03T16:35:56Z</time></trkpt><trkpt lat="40.27518197285837" lon="9.605165949137362"><ele>308.0</ele><time>2026-04-03T16:35:57Z</time></trkpt><trkpt lat="40.275023377183004" lon="9.605091674146495"><ele>308.0</ele><time>2026-04-03T16:35:58Z</time></trkpt><trkpt lat="40.27486389007565" lon="9.604980935030236"><ele>308.0</ele><time>2026-04-03T16:35:59Z</time></trkpt><trkpt lat="40.2746997573659" lon="9.604859679235549"><ele>308.0</ele><time>2026-04-03T16:36:00Z</time></trkpt><trkpt lat="40.274538644509136" lon="9.604722770730465"><ele>307.0</ele><time>2026-04-03T16:36:01Z</time></trkpt><trkpt lat="40.2743838408506" lon="9.604591759987773"><ele>306.0</ele><time>2026-04-03T16:36:02Z</time></trkpt><trkpt lat="40.27422181199326" lon="9.604484736961963"><ele>305.0</ele><time>2026-04-03T16:36:03Z</time></trkpt><trkpt lat="40.27404650441449" lon="9.604431630639354"><ele>311.33333333333337</ele><time>2026-04-03T16:36:04Z</time></trkpt><trkpt lat="40.27386694211964" lon="9.604432932031635"><ele>317.6666666666667</ele><time>2026-04-03T16:36:05Z</time></trkpt><trkpt lat="40.2736995392658" lon="9.604424755323627"><ele>324.0</ele><time>2026-04-03T16:36:06Z</time></trkpt><trkpt lat="40.273551562632065" lon="9.60443436748946"><ele>324.0</ele><time>2026-04-03T16:36:07Z</time></trkpt><trkpt lat="40.27341738000541" lon="9.604438482829499"><ele>324.0</ele><time>2026-04-03T16:36:08Z</time></trkpt><trkpt lat="40.27331120017641" lon="9.604426947258444"><ele>324.0</ele><time>2026-04-03T16:36:09Z</time></trkpt><trkpt lat="40.273220401003655" lon="9.604383155083566"><ele>324.0</ele><time>2026-04-03T16:36:10Z</time></trkpt><trkpt lat="40.27315996958135" lon="9.604271898129452"><ele>324.0</ele><time>2026-04-03T16:36:11Z</time></trkpt><trkpt lat="40.27311602281486" lon="9.604138944382553"><ele>323.6</ele><time>2026-04-03T16:36:12Z</time></trkpt><trkpt lat="40.273074447288415" lon="9.604009836906464"><ele>323.2</ele><time>2026-04-03T16:36:13Z</time></trkpt><trkpt lat="40.27302783623576" lon="9.603879051450022"><ele>322.8</ele><time>2026-04-03T16:36:14Z</time></trkpt><trkpt lat="40.272966383836334" lon="9.603759788749212"><ele>322.40000000000003</ele><time>2026-04-03T16:36:15Z</time></trkpt><trkpt lat="40.27288518820993" lon="9.603657145870361"><ele>322.0</ele><time>2026-04-03T16:36:16Z</time></trkpt><trkpt lat="40.272758833187126" lon="9.603643822073042"><ele>322.0</ele><time>2026-04-03T16:36:17Z</time></trkpt><trkpt lat="40.272653513052525" lon="9.603729883200598"><ele>322.0</ele><time>2026-04-03T16:36:18Z</time></trkpt><trkpt lat="40.27254526512715" lon="9.603793435312522"><ele>322.0</ele><time>2026-04-03T16:36:19Z</time></trkpt><trkpt lat="40.27242106680535" lon="9.603787260090112"><ele>322.0</ele><time>2026-04-03T16:36:20Z</time></trkpt><trkpt lat="40.27230519743868" lon="9.603692268546569"><ele>326.25</ele><time>2026-04-03T16:36:21Z</time></trkpt><trkpt lat="40.27221112685856" lon="9.60355228422625"><ele>330.5</ele><time>2026-04-03T16:36:22Z</time></trkpt><trkpt lat="40.27211626898217" lon="9.603442056949929"><ele>334.75</ele><time>2026-04-03T16:36:23Z</time></trkpt><trkpt lat="40.27200591098368" lon="9.603360852777422"><ele>339.0</ele><time>2026-04-03T16:36:24Z</time></trkpt><trkpt lat="40.271882167426654" lon="9.603352620042566"><ele>339.0</ele><time>2026-04-03T16:36:25Z</time></trkpt><trkpt lat="40.2717578370735" lon="9.603386054956404"><ele>339.0</ele><time>2026-04-03T16:36:26Z</time></trkpt><trkpt lat="40.271640503953165" lon="9.603457764958716"><ele>339.0</ele><time>2026-04-03T16:36:27Z</time></trkpt><trkpt lat="40.271520804654195" lon="9.603529476346724"><ele>339.0</ele><time>2026-04-03T16:36:28Z</time></trkpt><trkpt lat="40.2713953876253" lon="9.60360541113485"><ele>338.75</ele><time>2026-04-03T16:36:29Z</time></trkpt><trkpt lat="40.271267392114254" lon="9.603682829264294"><ele>338.5</ele><time>2026-04-03T16:36:30Z</time></trkpt><trkpt lat="40.27113346388413" lon="9.603763229706002"><ele>338.25</ele><time>2026-04-03T16:36:31Z</time></trkpt><trkpt lat="40.27101125782421" lon="9.60383751469043"><ele>338.0</ele><time>2026-04-03T16:36:32Z</time></trkpt><trkpt lat="40.27090108829481" lon="9.603910253027381"><ele>338.0</ele><time>2026-04-03T16:36:33Z</time></trkpt><trkpt lat="40.270811083273365" lon="9.604010405687898"><ele>338.0</ele><time>2026-04-03T16:36:34Z</time></trkpt><trkpt lat="40.270731213201984" lon="9.604098851706688"><ele>338.0</ele><time>2026-04-03T16:36:35Z</time></trkpt><trkpt lat="40.27066009312921" lon="9.604134351864763"><ele>338.0</ele><time>2026-04-03T16:36:36Z</time></trkpt><trkpt lat="40.27059275484448" lon="9.604117843224158"><ele>338.0</ele><time>2026-04-03T16:36:37Z</time></trkpt><trkpt lat="40.27054724624403" lon="9.603996112994153"><ele>338.0</ele><time>2026-04-03T16:36:38Z</time></trkpt><trkpt lat="40.27056698299226" lon="9.603849257399224"><ele>338.0</ele><time>2026-04-03T16:36:39Z</time></trkpt><trkpt lat="40.27065140772829" lon="9.603766791640105"><ele>338.0</ele><time>2026-04-03T16:36:40Z</time></trkpt><trkpt lat="40.270743291441235" lon="9.603720053112161"><ele>338.0</ele><time>2026-04-03T16:36:41Z</time></trkpt><trkpt lat="40.270848366862786" lon="9.603647287192405"><ele>338.0</ele><time>2026-04-03T16:36:42Z</time></trkpt><trkpt lat="40.27093104706375" lon="9.60351118168672"><ele>341.5</ele><time>2026-04-03T16:36:43Z</time></trkpt><trkpt lat="40.27101028716428" lon="9.603343834808838"><ele>345.0</ele><time>2026-04-03T16:36:44Z</time></trkpt><trkpt lat="40.27108408878935" lon="9.603178385479868"><ele>348.5</ele><time>2026-04-03T16:36:45Z</time></trkpt><trkpt lat="40.27116698470725" lon="9.603011478662909"><ele>352.0</ele><time>2026-04-03T16:36:46Z</time></trkpt><trkpt lat="40.27125557232935" lon="9.602845651465342"><ele>352.66666666666663</ele><time>2026-04-03T16:36:47Z</time></trkpt><trkpt lat="40.271340986368024" lon="9.6026806639367"><ele>353.3333333333333</ele><time>2026-04-03T16:36:48Z</time></trkpt><trkpt lat="40.27142807765567" lon="9.602512236317262"><ele>354.0</ele><time>2026-04-03T16:36:49Z</time></trkpt><trkpt lat="40.27152485345495" lon="9.60235489684242"><ele>354.0</ele><time>2026-04-03T16:36:50Z</time></trkpt><trkpt lat="40.271645602002415" lon="9.60221831630354"><ele>354.0</ele><time>2026-04-03T16:36:51Z</time></trkpt><trkpt lat="40.27178418868855" lon="9.602109568826345"><ele>354.0</ele><time>2026-04-03T16:36:52Z</time></trkpt><trkpt lat="40.27193426390319" lon="9.602009737447116"><ele>358.3333333333333</ele><time>2026-04-03T16:36:53Z</time></trkpt><trkpt lat="40.272083246082644" lon="9.601913592557425"><ele>362.66666666666663</ele><time>2026-04-03T16:36:54Z</time></trkpt><trkpt lat="40.272242241109915" lon="9.601826819078543"><ele>367.0</ele><time>2026-04-03T16:36:55Z</time></trkpt><trkpt lat="40.27241029165959" lon="9.601768264193046"><ele>367.0</ele><time>2026-04-03T16:36:56Z</time></trkpt><trkpt lat="40.27257532977201" lon="9.601728870935235"><ele>367.0</ele><time>2026-04-03T16:36:57Z</time></trkpt><trkpt lat="40.272724741775264" lon="9.601675861805049"><ele>367.0</ele><time>2026-04-03T16:36:58Z</time></trkpt><trkpt lat="40.27286936128577" lon="9.601593573497496"><ele>367.0</ele><time>2026-04-03T16:36:59Z</time></trkpt><trkpt lat="40.27302019076983" lon="9.601458349671303"><ele>367.0</ele><time>2026-04-03T16:37:00Z</time></trkpt><trkpt lat="40.27314893328739" lon="9.601259076300886"><ele>367.0</ele><time>2026-04-03T16:37:01Z</time></trkpt><trkpt lat="40.273263564920626" lon="9.601068271217303"><ele>370.0</ele><time>2026-04-03T16:37:02Z</time></trkpt><trkpt lat="40.273390368356665" lon="9.60087916135118"><ele>373.0</ele><time>2026-04-03T16:37:04Z</time></trkpt><trkpt lat="40.273449268079766" lon="9.600713497173626"><ele>376.0</ele><time>2026-04-03T16:37:05Z</time></trkpt><trkpt lat="40.273470545352154" lon="9.600526285812348"><ele>376.0</ele><time>2026-04-03T16:37:06Z</time></trkpt><trkpt lat="40.273451676248975" lon="9.600334101383488"><ele>376.0</ele><time>2026-04-03T16:37:07Z</time></trkpt><trkpt lat="40.273430433305315" lon="9.600137132771641"><ele>376.0</ele><time>2026-04-03T16:37:08Z</time></trkpt><trkpt lat="40.27342148277279" lon="9.599944245350315"><ele>376.0</ele><time>2026-04-03T16:37:09Z</time></trkpt><trkpt lat="40.27342324891094" lon="9.599745220602282"><ele>378.5</ele><time>2026-04-03T16:37:10Z</time></trkpt><trkpt lat="40.27344212171188" lon="9.599552466305234"><ele>381.0</ele><time>2026-04-03T16:37:11Z</time></trkpt><trkpt lat="40.27347621462521" lon="9.599382790641352"><ele>383.5</ele><time>2026-04-03T16:37:11.999Z</time></trkpt><trkpt lat="40.27355298053003" lon="9.599270380137911"><ele>386.0</ele><time>2026-04-03T16:37:12.999Z</time></trkpt><trkpt lat="40.27363794977411" lon="9.599228699379754"><ele>390.0</ele><time>2026-04-03T16:37:14Z</time></trkpt><trkpt lat="40.2737279755377" lon="9.599245786344337"><ele>394.0</ele><time>2026-04-03T16:37:15Z</time></trkpt><trkpt lat="40.27381114948552" lon="9.599316541504699"><ele>398.0</ele><time>2026-04-03T16:37:16Z</time></trkpt><trkpt lat="40.27392171314738" lon="9.59940967528645"><ele>402.0</ele><time>2026-04-03T16:37:17Z</time></trkpt><trkpt lat="40.27404763941223" lon="9.59948539911417"><ele>397.5</ele><time>2026-04-03T16:37:18Z</time></trkpt><trkpt lat="40.27419790894215" lon="9.599518627133401"><ele>393.0</ele><time>2026-04-03T16:37:19Z</time></trkpt><trkpt lat="40.274342133463655" lon="9.599513892732249"><ele>388.5</ele><time>2026-04-03T16:37:20Z</time></trkpt><trkpt lat="40.27449425843666" lon="9.59950123977535"><ele>384.0</ele><time>2026-04-03T16:37:21Z</time></trkpt><trkpt lat="40.27464494142011" lon="9.599509186106323"><ele>387.75</ele><time>2026-04-03T16:37:22Z</time></trkpt><trkpt lat="40.27479368588297" lon="9.599550681025475"><ele>391.5</ele><time>2026-04-03T16:37:23Z</time></trkpt><trkpt lat="40.274923216885284" lon="9.599633764695811"><ele>395.25</ele><time>2026-04-03T16:37:24Z</time></trkpt><trkpt lat="40.27505749176276" lon="9.599700237708737"><ele>399.0</ele><time>2026-04-03T16:37:25Z</time></trkpt><trkpt lat="40.27517525197622" lon="9.599766091658452"><ele>399.0</ele><time>2026-04-03T16:37:26Z</time></trkpt><trkpt lat="40.27526475747425" lon="9.599782815308338"><ele>399.0</ele><time>2026-04-03T16:37:27Z</time></trkpt><trkpt lat="40.27535159236692" lon="9.599743636804854"><ele>399.0</ele><time>2026-04-03T16:37:28Z</time></trkpt><trkpt lat="40.275413591065536" lon="9.59964266010821"><ele>399.0</ele><time>2026-04-03T16:37:29Z</time></trkpt><trkpt lat="40.27541348705282" lon="9.599503242029256"><ele>399.0</ele><time>2026-04-03T16:37:30Z</time></trkpt><trkpt lat="40.27535678165813" lon="9.59936794565309"><ele>401.5</ele><time>2026-04-03T16:37:31Z</time></trkpt><trkpt lat="40.275250376791895" lon="9.599255465930396"><ele>404.0</ele><time>2026-04-03T16:37:32Z</time></trkpt><trkpt lat="40.27512272942822" lon="9.599203706090545"><ele>406.5</ele><time>2026-04-03T16:37:33Z</time></trkpt><trkpt lat="40.27500465720644" lon="9.599145385988518"><ele>409.0</ele><time>2026-04-03T16:37:34Z</time></trkpt><trkpt lat="40.27488975025013" lon="9.599061407065735"><ele>407.75</ele><time>2026-04-03T16:37:35Z</time></trkpt><trkpt lat="40.274762566597005" lon="9.598996505489582"><ele>406.5</ele><time>2026-04-03T16:37:36Z</time></trkpt><trkpt lat="40.274623314230645" lon="9.59899836117977"><ele>405.25</ele><time>2026-04-03T16:37:37Z</time></trkpt><trkpt lat="40.274481412393655" lon="9.598989652715565"><ele>404.0</ele><time>2026-04-03T16:37:38Z</time></trkpt><trkpt lat="40.274341971197124" lon="9.59897325825273"><ele>404.0</ele><time>2026-04-03T16:37:39Z</time></trkpt><trkpt lat="40.27421909095144" lon="9.598955736842312"><ele>404.0</ele><time>2026-04-03T16:37:40Z</time></trkpt><trkpt lat="40.27410928335827" lon="9.598921981829328"><ele>404.0</ele><time>2026-04-03T16:37:41Z</time></trkpt><trkpt lat="40.2740114790697" lon="9.598838733851762"><ele>404.0</ele><time>2026-04-03T16:37:42Z</time></trkpt><trkpt lat="40.27393498805556" lon="9.598699629530243"><ele>411.0</ele><time>2026-04-03T16:37:43Z</time></trkpt><trkpt lat="40.2737605972451" lon="9.598435037806263"><ele>418.0</ele><time>2026-04-03T16:37:45Z</time></trkpt><trkpt lat="40.2736504964953" lon="9.598350044450632"><ele>425.0</ele><time>2026-04-03T16:37:46Z</time></trkpt><trkpt lat="40.27352160732428" lon="9.598304162458374"><ele>425.0</ele><time>2026-04-03T16:37:47Z</time></trkpt><trkpt lat="40.273394013875055" lon="9.598260865253739"><ele>425.0</ele><time>2026-04-03T16:37:48Z</time></trkpt><trkpt lat="40.27327533663588" lon="9.598233596615884"><ele>425.0</ele><time>2026-04-03T16:37:49Z</time></trkpt><trkpt lat="40.27317267539957" lon="9.598210543096029"><ele>425.0</ele><time>2026-04-03T16:37:50Z</time></trkpt><trkpt lat="40.273080599572666" lon="9.598197350597609"><ele>425.0</ele><time>2026-04-03T16:37:51Z</time></trkpt><trkpt lat="40.27299338282789" lon="9.598230905884323"><ele>424.6</ele><time>2026-04-03T16:37:52Z</time></trkpt><trkpt lat="40.27291766007971" lon="9.59831279880741"><ele>424.2</ele><time>2026-04-03T16:37:53Z</time></trkpt><trkpt lat="40.27287159767794" lon="9.59844618863738"><ele>423.79999999999995</ele><time>2026-04-03T16:37:54Z</time></trkpt><trkpt lat="40.272830076265386" lon="9.598581765788634"><ele>423.4</ele><time>2026-04-03T16:37:55Z</time></trkpt><trkpt lat="40.27278303151819" lon="9.598711214994738"><ele>423.0</ele><time>2026-04-03T16:37:56Z</time></trkpt><trkpt lat="40.272731310085085" lon="9.598817806579106"><ele>423.0</ele><time>2026-04-03T16:37:57Z</time></trkpt><trkpt lat="40.27268697171915" lon="9.598905341968551"><ele>423.0</ele><time>2026-04-03T16:37:58Z</time></trkpt><trkpt lat="40.27265804040515" lon="9.59898617213837"><ele>423.0</ele><time>2026-04-03T16:38:00Z</time></trkpt><trkpt lat="40.27260500839797" lon="9.599086630344859"><ele>423.0</ele><time>2026-04-03T16:38:02Z</time></trkpt><trkpt lat="40.27256004250109" lon="9.59914576891368"><ele>423.0</ele><time>2026-04-03T16:38:03Z</time></trkpt><trkpt lat="40.27243529150316" lon="9.599180621033184"><ele>423.0</ele><time>2026-04-03T16:38:05Z</time></trkpt><trkpt lat="40.27237413587425" lon="9.599103730888428"><ele>423.0</ele><time>2026-04-03T16:38:06Z</time></trkpt><trkpt lat="40.27235410828265" lon="9.598982432743153"><ele>423.0</ele><time>2026-04-03T16:38:07Z</time></trkpt><trkpt lat="40.27241252791229" lon="9.598856971848017"><ele>423.0</ele><time>2026-04-03T16:38:08Z</time></trkpt><trkpt lat="40.27247537328733" lon="9.598759175505128"><ele>423.0</ele><time>2026-04-03T16:38:09Z</time></trkpt><trkpt lat="40.272527953396995" lon="9.598660643339754"><ele>423.0</ele><time>2026-04-03T16:38:10Z</time></trkpt><trkpt lat="40.27257784456187" lon="9.598554140864046"><ele>426.59999999999997</ele><time>2026-04-03T16:38:11Z</time></trkpt><trkpt lat="40.272619482013305" lon="9.5984343437042"><ele>430.2</ele><time>2026-04-03T16:38:12Z</time></trkpt><trkpt lat="40.27268248476905" lon="9.598323525214168"><ele>433.8</ele><time>2026-04-03T16:38:13Z</time></trkpt><trkpt lat="40.272735865411526" lon="9.598201356255839"><ele>437.4</ele><time>2026-04-03T16:38:14Z</time></trkpt><trkpt lat="40.27279656715321" lon="9.598097281761474"><ele>441.0</ele><time>2026-04-03T16:38:15Z</time></trkpt><trkpt lat="40.2728695629726" lon="9.59800535389022"><ele>441.0</ele><time>2026-04-03T16:38:16Z</time></trkpt><trkpt lat="40.27295924747156" lon="9.59794352752432"><ele>441.0</ele><time>2026-04-03T16:38:17Z</time></trkpt><trkpt lat="40.27305940792742" lon="9.597911445760332"><ele>441.0</ele><time>2026-04-03T16:38:18Z</time></trkpt><trkpt lat="40.273163315753656" lon="9.597903586721976"><ele>441.0</ele><time>2026-04-03T16:38:19Z</time></trkpt><trkpt lat="40.273265552571736" lon="9.597906397810386"><ele>441.0</ele><time>2026-04-03T16:38:20Z</time></trkpt><trkpt lat="40.27336463438042" lon="9.597910320178915"><ele>438.3333333333333</ele><time>2026-04-03T16:38:21Z</time></trkpt><trkpt lat="40.27346060368863" lon="9.59790794452046"><ele>435.66666666666663</ele><time>2026-04-03T16:38:22Z</time></trkpt><trkpt lat="40.27355189873547" lon="9.5979056350318"><ele>433.0</ele><time>2026-04-03T16:38:23Z</time></trkpt><trkpt lat="40.27364869041606" lon="9.59790158597258"><ele>430.3333333333333</ele><time>2026-04-03T16:38:25Z</time></trkpt><trkpt lat="40.273712218633875" lon="9.597905857904712"><ele>427.66666666666663</ele><time>2026-04-03T16:38:26Z</time></trkpt><trkpt lat="40.27379942349647" lon="9.597909785007163"><ele>425.0</ele><time>2026-04-03T16:38:27Z</time></trkpt><trkpt lat="40.27389250277007" lon="9.5979124636854"><ele>426.0</ele><time>2026-04-03T16:38:28Z</time></trkpt><trkpt lat="40.273984993575056" lon="9.597915866045163"><ele>427.0</ele><time>2026-04-03T16:38:29Z</time></trkpt><trkpt lat="40.274076222443746" lon="9.597919199491558"><ele>428.0</ele><time>2026-04-03T16:38:30Z</time></trkpt><trkpt lat="40.27416816238001" lon="9.597924575619068"><ele>429.0</ele><time>2026-04-03T16:38:31Z</time></trkpt><trkpt lat="40.27426324614141" lon="9.597931896293447"><ele>430.0</ele><time>2026-04-03T16:38:32Z</time></trkpt><trkpt lat="40.274357354658946" lon="9.597938366973953"><ele>430.0</ele><time>2026-04-03T16:38:33Z</time></trkpt><trkpt lat="40.27445057012143" lon="9.597932757863965"><ele>430.0</ele><time>2026-04-03T16:38:34Z</time></trkpt><trkpt lat="40.27453971739903" lon="9.597901854940478"><ele>430.0</ele><time>2026-04-03T16:38:35Z</time></trkpt><trkpt lat="40.27463000988089" lon="9.597842470998344"><ele>430.0</ele><time>2026-04-03T16:38:36Z</time></trkpt><trkpt lat="40.274713468344544" lon="9.597761119284032"><ele>430.0</ele><time>2026-04-03T16:38:37Z</time></trkpt><trkpt lat="40.27479199794846" lon="9.59766122714707"><ele>436.5</ele><time>2026-04-03T16:38:38Z</time></trkpt><trkpt lat="40.27485821785278" lon="9.597541176401537"><ele>443.0</ele><time>2026-04-03T16:38:39Z</time></trkpt><trkpt lat="40.27490797795825" lon="9.597396849159528"><ele>449.5</ele><time>2026-04-03T16:38:40Z</time></trkpt><trkpt lat="40.27493916642289" lon="9.597252083988202"><ele>456.0</ele><time>2026-04-03T16:38:41Z</time></trkpt><trkpt lat="40.274945115016706" lon="9.597103188937227"><ele>462.5</ele><time>2026-04-03T16:38:42Z</time></trkpt><trkpt lat="40.27495892861932" lon="9.596954271407455"><ele>469.0</ele><time>2026-04-03T16:38:43Z</time></trkpt><trkpt lat="40.2750111610754" lon="9.596822764135917"><ele>475.5</ele><time>2026-04-03T16:38:44Z</time></trkpt><trkpt lat="40.27503887027209" lon="9.596680622384724"><ele>482.0</ele><time>2026-04-03T16:38:45Z</time></trkpt><trkpt lat="40.27506830611752" lon="9.596534883721805"><ele>482.0</ele><time>2026-04-03T16:38:46Z</time></trkpt><trkpt lat="40.2750953300687" lon="9.596384593933887"><ele>482.0</ele><time>2026-04-03T16:38:47Z</time></trkpt><trkpt lat="40.27512034966308" lon="9.596235419586925"><ele>482.0</ele><time>2026-04-03T16:38:48Z</time></trkpt><trkpt lat="40.27515059954998" lon="9.596088673358736"><ele>482.0</ele><time>2026-04-03T16:38:49.012Z</time></trkpt><trkpt lat="40.27513644867406" lon="9.595935262249975"><ele>492.3333333333333</ele><time>2026-04-03T16:38:50.013Z</time></trkpt><trkpt lat="40.275158275982186" lon="9.595780625238127"><ele>502.66666666666663</ele><time>2026-04-03T16:38:51.013Z</time></trkpt><trkpt lat="40.27517939517099" lon="9.595630177169124"><ele>513.0</ele><time>2026-04-03T16:38:52.016Z</time></trkpt><trkpt lat="40.2754480574299" lon="9.593522785487929"><ele>523.5</ele><time>2026-04-03T16:38:55.65Z</time></trkpt><trkpt lat="40.27551190299129" lon="9.592940433214798"><ele>534.0</ele><time>2026-04-03T16:38:56.649Z</time></trkpt><trkpt lat="40.27520130450067" lon="9.593711560831792"><ele>541.75</ele><time>2026-04-03T16:39:00.65Z</time></trkpt><trkpt lat="40.27517589037178" lon="9.593858208095847"><ele>549.5</ele><time>2026-04-03T16:39:01.651Z</time></trkpt><trkpt lat="40.2751505247302" lon="9.59400457557333"><ele>557.25</ele><time>2026-04-03T16:39:02.649Z</time></trkpt><trkpt lat="40.27512519087257" lon="9.594151213304205"><ele>565.0</ele><time>2026-04-03T16:39:03.65Z</time></trkpt><trkpt lat="40.27509953780478" lon="9.594297742073728"><ele>565.0</ele><time>2026-04-03T16:39:04.65Z</time></trkpt><trkpt lat="40.27507296363656" lon="9.594443899998945"><ele>565.0</ele><time>2026-04-03T16:39:05.65Z</time></trkpt><trkpt lat="40.27504637222035" lon="9.594590152788083"><ele>565.0</ele><time>2026-04-03T16:39:06.65Z</time></trkpt><trkpt lat="40.275019470702276" lon="9.59473621990736"><ele>565.0</ele><time>2026-04-03T16:39:07.65Z</time></trkpt><trkpt lat="40.2749925742492" lon="9.594882261960002"><ele>560.75</ele><time>2026-04-03T16:39:08.65Z</time></trkpt><trkpt lat="40.27496603191137" lon="9.595028469330314"><ele>556.5</ele><time>2026-04-03T16:39:09.65Z</time></trkpt><trkpt lat="40.274939479198046" lon="9.595174733853623"><ele>552.25</ele><time>2026-04-03T16:39:10.65Z</time></trkpt><trkpt lat="40.274912945141" lon="9.595320895609605"><ele>548.0</ele><time>2026-04-03T16:39:11.65Z</time></trkpt><trkpt lat="40.27488620646053" lon="9.595467045623892"><ele>536.3333333333333</ele><time>2026-04-03T16:39:12.65Z</time></trkpt><trkpt lat="40.27485929127425" lon="9.595613147117756"><ele>524.6666666666666</ele><time>2026-04-03T16:39:13.65Z</time></trkpt><trkpt lat="40.274832375956414" lon="9.595759249325686"><ele>513.0</ele><time>2026-04-03T16:39:14.65Z</time></trkpt><trkpt lat="40.27566245815828" lon="9.592620633144199"><ele>504.79999999999995</ele><time>2026-04-03T16:39:16Z</time></trkpt><trkpt lat="40.2756457022933" lon="9.59245549236923"><ele>496.59999999999997</ele><time>2026-04-03T16:39:17Z</time></trkpt><trkpt lat="40.27564458001626" lon="9.592368233146082"><ele>488.40000000000003</ele><time>2026-04-03T16:39:20Z</time></trkpt><trkpt lat="40.27575171861797" lon="9.592328104748562"><ele>480.20000000000005</ele><time>2026-04-03T16:39:22Z</time></trkpt><trkpt lat="40.27588025364613" lon="9.59232842399859"><ele>472.0</ele><time>2026-04-03T16:39:24Z</time></trkpt><trkpt lat="40.27596167915047" lon="9.592327183713577"><ele>472.0</ele><time>2026-04-03T16:39:25Z</time></trkpt><trkpt lat="40.27605583908934" lon="9.592315135453648"><ele>472.0</ele><time>2026-04-03T16:39:26Z</time></trkpt><trkpt lat="40.276160579757885" lon="9.592291138534154"><ele>472.0</ele><time>2026-04-03T16:39:27Z</time></trkpt><trkpt lat="40.27627609328385" lon="9.592263584425803"><ele>472.0</ele><time>2026-04-03T16:39:28Z</time></trkpt><trkpt lat="40.27640756757832" lon="9.592239979635565"><ele>472.0</ele><time>2026-04-03T16:39:29Z</time></trkpt><trkpt lat="40.2765424551712" lon="9.592214155824923"><ele>472.0</ele><time>2026-04-03T16:39:30Z</time></trkpt><trkpt lat="40.276685174500045" lon="9.592181822714965"><ele>472.0</ele><time>2026-04-03T16:39:31Z</time></trkpt><trkpt lat="40.27683470111093" lon="9.592141275028487"><ele>472.0</ele><time>2026-04-03T16:39:32Z</time></trkpt><trkpt lat="40.27698998872828" lon="9.592092019970323"><ele>472.0</ele><time>2026-04-03T16:39:33Z</time></trkpt><trkpt lat="40.27714739366891" lon="9.592046014734347"><ele>472.0</ele><time>2026-04-03T16:39:34Z</time></trkpt><trkpt lat="40.277311757432265" lon="9.591999709304789"><ele>472.0</ele><time>2026-04-03T16:39:35Z</time></trkpt><trkpt lat="40.277478145184226" lon="9.591965126074168"><ele>461.6666666666667</ele><time>2026-04-03T16:39:36Z</time></trkpt><trkpt lat="40.27764307036188" lon="9.591929233246702"><ele>451.33333333333337</ele><time>2026-04-03T16:39:37Z</time></trkpt><trkpt lat="40.277806455959706" lon="9.591894488152638"><ele>441.0</ele><time>2026-04-03T16:39:38Z</time></trkpt><trkpt lat="40.27796180021907" lon="9.591859082401688"><ele>442.66666666666663</ele><time>2026-04-03T16:39:39Z</time></trkpt><trkpt lat="40.27811783912138" lon="9.591822297306473"><ele>444.3333333333333</ele><time>2026-04-03T16:39:40Z</time></trkpt><trkpt lat="40.278263399601734" lon="9.591782885096288"><ele>446.0</ele><time>2026-04-03T16:39:41Z</time></trkpt><trkpt lat="40.278413840796574" lon="9.591734828997046"><ele>446.0</ele><time>2026-04-03T16:39:42Z</time></trkpt><trkpt lat="40.27856495260526" lon="9.591685211320232"><ele>446.0</ele><time>2026-04-03T16:39:43Z</time></trkpt><trkpt lat="40.27871779523584" lon="9.591644999259954"><ele>446.0</ele><time>2026-04-03T16:39:44Z</time></trkpt><trkpt lat="40.27887433187567" lon="9.59160119589855"><ele>451.0</ele><time>2026-04-03T16:39:45Z</time></trkpt><trkpt lat="40.279032445450774" lon="9.5915711029222"><ele>456.0</ele><time>2026-04-03T16:39:46Z</time></trkpt><trkpt lat="40.279195749003705" lon="9.5915525560581"><ele>461.0</ele><time>2026-04-03T16:39:47Z</time></trkpt><trkpt lat="40.2793592889479" lon="9.59153292681125"><ele>461.0</ele><time>2026-04-03T16:39:48Z</time></trkpt><trkpt lat="40.279518648307814" lon="9.591519197519359"><ele>461.0</ele><time>2026-04-03T16:39:49Z</time></trkpt><trkpt lat="40.27967418707484" lon="9.591501300258464"><ele>461.0</ele><time>2026-04-03T16:39:50Z</time></trkpt><trkpt lat="40.27983247323846" lon="9.59147405559983"><ele>461.3333333333333</ele><time>2026-04-03T16:39:51Z</time></trkpt><trkpt lat="40.27999438270248" lon="9.59144791462176"><ele>461.66666666666663</ele><time>2026-04-03T16:39:52Z</time></trkpt><trkpt lat="40.280156319243105" lon="9.59141856783312"><ele>462.0</ele><time>2026-04-03T16:39:53Z</time></trkpt><trkpt lat="40.28031849291542" lon="9.591390726587807"><ele>462.0</ele><time>2026-04-03T16:39:54Z</time></trkpt><trkpt lat="40.280484067434074" lon="9.59136381960362"><ele>462.0</ele><time>2026-04-03T16:39:55Z</time></trkpt><trkpt lat="40.28064419379563" lon="9.591317976014471"><ele>462.0</ele><time>2026-04-03T16:39:56Z</time></trkpt><trkpt lat="40.28079998015514" lon="9.591262206391574"><ele>463.66666666666663</ele><time>2026-04-03T16:39:57Z</time></trkpt><trkpt lat="40.28095079424917" lon="9.59118408569779"><ele>465.3333333333333</ele><time>2026-04-03T16:39:58Z</time></trkpt><trkpt lat="40.28111201704997" lon="9.591141102363903"><ele>467.0</ele><time>2026-04-03T16:39:59Z</time></trkpt><trkpt lat="40.28127175541796" lon="9.591117712778598"><ele>456.3333333333333</ele><time>2026-04-03T16:40:00Z</time></trkpt><trkpt lat="40.281446697881144" lon="9.59110508713266"><ele>445.66666666666663</ele><time>2026-04-03T16:40:01Z</time></trkpt><trkpt lat="40.281607011514325" lon="9.591097209014045"><ele>435.0</ele><time>2026-04-03T16:40:02Z</time></trkpt><trkpt lat="40.28176483472292" lon="9.591090559533766"><ele>435.0</ele><time>2026-04-03T16:40:03Z</time></trkpt><trkpt lat="40.28191262548348" lon="9.591074911668581"><ele>435.0</ele><time>2026-04-03T16:40:04Z</time></trkpt><trkpt lat="40.282062510424524" lon="9.591077103750214"><ele>435.0</ele><time>2026-04-03T16:40:05Z</time></trkpt><trkpt lat="40.28221421313499" lon="9.591077357981185"><ele>435.66666666666663</ele><time>2026-04-03T16:40:06Z</time></trkpt><trkpt lat="40.28237017111848" lon="9.591115562790563"><ele>436.3333333333333</ele><time>2026-04-03T16:40:07Z</time></trkpt><trkpt lat="40.28251676905108" lon="9.591187568039643"><ele>437.0</ele><time>2026-04-03T16:40:08Z</time></trkpt><trkpt lat="40.28265628536212" lon="9.591271459023869"><ele>446.3333333333333</ele><time>2026-04-03T16:40:09Z</time></trkpt><trkpt lat="40.282808041147824" lon="9.591314597723812"><ele>455.66666666666663</ele><time>2026-04-03T16:40:10Z</time></trkpt><trkpt lat="40.2829592062884" lon="9.591272556683789"><ele>465.0</ele><time>2026-04-03T16:40:11Z</time></trkpt><trkpt lat="40.28308799872199" lon="9.591187597648728"><ele>464.75</ele><time>2026-04-03T16:40:12Z</time></trkpt><trkpt lat="40.28321872022463" lon="9.591155227710948"><ele>464.5</ele><time>2026-04-03T16:40:13Z</time></trkpt><trkpt lat="40.28334472235232" lon="9.591157914351136"><ele>464.25</ele><time>2026-04-03T16:40:14Z</time></trkpt><trkpt lat="40.28347563503964" lon="9.591182873331022"><ele>464.0</ele><time>2026-04-03T16:40:15Z</time></trkpt><trkpt lat="40.28359486796425" lon="9.591229721042762"><ele>464.0</ele><time>2026-04-03T16:40:16Z</time></trkpt><trkpt lat="40.28370323862873" lon="9.591265097305019"><ele>464.0</ele><time>2026-04-03T16:40:17Z</time></trkpt><trkpt lat="40.28380226089211" lon="9.591286137845024"><ele>464.0</ele><time>2026-04-03T16:40:18Z</time></trkpt><trkpt lat="40.28389540293364" lon="9.591307899674607"><ele>464.0</ele><time>2026-04-03T16:40:19Z</time></trkpt><trkpt lat="40.283987308156334" lon="9.591326846371318"><ele>464.0</ele><time>2026-04-03T16:40:20Z</time></trkpt><trkpt lat="40.284078854085465" lon="9.591366673587533"><ele>461.4</ele><time>2026-04-03T16:40:21Z</time></trkpt><trkpt lat="40.2841715794784" lon="9.591427629993618"><ele>458.79999999999995</ele><time>2026-04-03T16:40:22Z</time></trkpt><trkpt lat="40.2842629541354" lon="9.591485547128306"><ele>456.20000000000005</ele><time>2026-04-03T16:40:23Z</time></trkpt><trkpt lat="40.28436471805535" lon="9.591542420978143"><ele>453.6</ele><time>2026-04-03T16:40:24Z</time></trkpt><trkpt lat="40.284465845757914" lon="9.591603341866108"><ele>451.0</ele><time>2026-04-03T16:40:25Z</time></trkpt><trkpt lat="40.28456922283556" lon="9.591662795507094"><ele>451.0</ele><time>2026-04-03T16:40:26Z</time></trkpt><trkpt lat="40.28467781659219" lon="9.591726734310068"><ele>451.0</ele><time>2026-04-03T16:40:27Z</time></trkpt><trkpt lat="40.28478808197785" lon="9.59179405863"><ele>451.0</ele><time>2026-04-03T16:40:28Z</time></trkpt><trkpt lat="40.28490233390295" lon="9.591861059303673"><ele>451.0</ele><time>2026-04-03T16:40:29Z</time></trkpt><trkpt lat="40.28502903338044" lon="9.591898725945393"><ele>449.5</ele><time>2026-04-03T16:40:30Z</time></trkpt><trkpt lat="40.28516117391051" lon="9.591915460482822"><ele>448.0</ele><time>2026-04-03T16:40:31Z</time></trkpt><trkpt lat="40.28528147564238" lon="9.59195317657807"><ele>446.5</ele><time>2026-04-03T16:40:32Z</time></trkpt><trkpt lat="40.285406138002045" lon="9.591974206402698"><ele>445.0</ele><time>2026-04-03T16:40:33Z</time></trkpt><trkpt lat="40.28553670614092" lon="9.591995806074435"><ele>450.0</ele><time>2026-04-03T16:40:34Z</time></trkpt><trkpt lat="40.28566331966296" lon="9.592041123645256"><ele>455.0</ele><time>2026-04-03T16:40:35Z</time></trkpt><trkpt lat="40.28579050228312" lon="9.592095646860574"><ele>460.0</ele><time>2026-04-03T16:40:36Z</time></trkpt><trkpt lat="40.28590697981303" lon="9.592169439421887"><ele>465.0</ele><time>2026-04-03T16:40:37Z</time></trkpt><trkpt lat="40.286021989780366" lon="9.592224698022626"><ele>465.0</ele><time>2026-04-03T16:40:38Z</time></trkpt><trkpt lat="40.28614212443606" lon="9.592282418897417"><ele>465.0</ele><time>2026-04-03T16:40:39Z</time></trkpt><trkpt lat="40.286267331422835" lon="9.592322652187232"><ele>465.0</ele><time>2026-04-03T16:40:40Z</time></trkpt><trkpt lat="40.28637914750513" lon="9.592378948268818"><ele>465.0</ele><time>2026-04-03T16:40:41Z</time></trkpt><trkpt lat="40.28648147967187" lon="9.592430759872432"><ele>462.0</ele><time>2026-04-03T16:40:42Z</time></trkpt><trkpt lat="40.286565604379575" lon="9.592471258776964"><ele>459.0</ele><time>2026-04-03T16:40:43Z</time></trkpt><trkpt lat="40.2866444124029" lon="9.592517514530797"><ele>456.0</ele><time>2026-04-03T16:40:44Z</time></trkpt><trkpt lat="40.286724155543084" lon="9.592567688182225"><ele>453.0</ele><time>2026-04-03T16:40:45Z</time></trkpt><trkpt lat="40.286808586464254" lon="9.592611794084885"><ele>450.0</ele><time>2026-04-03T16:40:46Z</time></trkpt><trkpt lat="40.286901378878966" lon="9.59265426334788"><ele>450.0</ele><time>2026-04-03T16:40:47Z</time></trkpt><trkpt lat="40.287068842993094" lon="9.592502439526116"><ele>450.0</ele><time>2026-04-03T16:40:48Z</time></trkpt><trkpt lat="40.287165566959686" lon="9.592552822556469"><ele>450.0</ele><time>2026-04-03T16:40:49Z</time></trkpt><trkpt lat="40.287283313509455" lon="9.592609875895898"><ele>450.0</ele><time>2026-04-03T16:40:50Z</time></trkpt><trkpt lat="40.287413758920216" lon="9.592673082389124"><ele>454.33333333333337</ele><time>2026-04-03T16:40:51Z</time></trkpt><trkpt lat="40.2874998676003" lon="9.592921322112892"><ele>458.6666666666667</ele><time>2026-04-03T16:40:52Z</time></trkpt><trkpt lat="40.28764597717094" lon="9.592988996437967"><ele>463.0</ele><time>2026-04-03T16:40:53Z</time></trkpt><trkpt lat="40.28779920164191" lon="9.593061954443575"><ele>463.0</ele><time>2026-04-03T16:40:54Z</time></trkpt><trkpt lat="40.28796218708297" lon="9.593137650767387"><ele>463.0</ele><time>2026-04-03T16:40:55Z</time></trkpt><trkpt lat="40.28812820595141" lon="9.593224106547346"><ele>463.0</ele><time>2026-04-03T16:40:56Z</time></trkpt><trkpt lat="40.288291085232" lon="9.593314567146104"><ele>458.33333333333337</ele><time>2026-04-03T16:40:57Z</time></trkpt><trkpt lat="40.288450479838104" lon="9.593371790007117"><ele>453.66666666666663</ele><time>2026-04-03T16:40:58Z</time></trkpt><trkpt lat="40.28861085611179" lon="9.593382203244149"><ele>449.0</ele><time>2026-04-03T16:40:59Z</time></trkpt><trkpt lat="40.288771265978305" lon="9.593356658773626"><ele>448.66666666666663</ele><time>2026-04-03T16:41:00Z</time></trkpt><trkpt lat="40.28893069542848" lon="9.59330999016792"><ele>448.33333333333337</ele><time>2026-04-03T16:41:01Z</time></trkpt><trkpt lat="40.28908487609202" lon="9.59323672353723"><ele>448.0</ele><time>2026-04-03T16:41:02Z</time></trkpt><trkpt lat="40.28923130931487" lon="9.593151754486135"><ele>448.0</ele><time>2026-04-03T16:41:03Z</time></trkpt><trkpt lat="40.28938651689165" lon="9.593104663673218"><ele>448.0</ele><time>2026-04-03T16:41:04Z</time></trkpt><trkpt lat="40.289550544237336" lon="9.593106442647812"><ele>448.0</ele><time>2026-04-03T16:41:05Z</time></trkpt><trkpt lat="40.28971582673827" lon="9.593151379232694"><ele>447.6666666666667</ele><time>2026-04-03T16:41:06Z</time></trkpt><trkpt lat="40.28987026340768" lon="9.593198478262943"><ele>447.33333333333337</ele><time>2026-04-03T16:41:07Z</time></trkpt><trkpt lat="40.29000717961748" lon="9.593237510326379"><ele>447.0</ele><time>2026-04-03T16:41:08Z</time></trkpt><trkpt lat="40.29016591153527" lon="9.593283365657674"><ele>447.0</ele><time>2026-04-03T16:41:09Z</time></trkpt><trkpt lat="40.29031839416622" lon="9.593360480279603"><ele>447.0</ele><time>2026-04-03T16:41:10Z</time></trkpt><trkpt lat="40.29046289524742" lon="9.593480304816904"><ele>447.0</ele><time>2026-04-03T16:41:11Z</time></trkpt><trkpt lat="40.290611662173944" lon="9.593602632738529"><ele>448.0</ele><time>2026-04-03T16:41:12Z</time></trkpt><trkpt lat="40.29078256863108" lon="9.593678703328319"><ele>449.0</ele><time>2026-04-03T16:41:13Z</time></trkpt><trkpt lat="40.29095712114963" lon="9.593707422063687"><ele>450.0</ele><time>2026-04-03T16:41:14Z</time></trkpt><trkpt lat="40.29113867829368" lon="9.593670667120712"><ele>445.66666666666663</ele><time>2026-04-03T16:41:15Z</time></trkpt><trkpt lat="40.29131086639661" lon="9.593632682435373"><ele>441.3333333333333</ele><time>2026-04-03T16:41:16Z</time></trkpt><trkpt lat="40.29149321694205" lon="9.593596762134055"><ele>437.0</ele><time>2026-04-03T16:41:17Z</time></trkpt><trkpt lat="40.291670710055534" lon="9.593539087900695"><ele>437.0</ele><time>2026-04-03T16:41:18Z</time></trkpt><trkpt lat="40.29184058651836" lon="9.593439019596346"><ele>437.0</ele><time>2026-04-03T16:41:19Z</time></trkpt><trkpt lat="40.29200128753218" lon="9.593294116534464"><ele>437.0</ele><time>2026-04-03T16:41:20Z</time></trkpt><trkpt lat="40.29214769896971" lon="9.593144457162488"><ele>437.66666666666663</ele><time>2026-04-03T16:41:21Z</time></trkpt><trkpt lat="40.292295943118724" lon="9.593010477675614"><ele>438.33333333333337</ele><time>2026-04-03T16:41:22Z</time></trkpt><trkpt lat="40.29241901751404" lon="9.592906017654805"><ele>439.0</ele><time>2026-04-03T16:41:23Z</time></trkpt><trkpt lat="40.29253667017596" lon="9.592778150115905"><ele>436.0</ele><time>2026-04-03T16:41:24Z</time></trkpt><trkpt lat="40.292651270131316" lon="9.592633763948971"><ele>433.0</ele><time>2026-04-03T16:41:25Z</time></trkpt><trkpt lat="40.292778309723985" lon="9.592492272371205"><ele>430.0</ele><time>2026-04-03T16:41:26Z</time></trkpt><trkpt lat="40.29290465539876" lon="9.592356073638289"><ele>430.0</ele><time>2026-04-03T16:41:27.001Z</time></trkpt><trkpt lat="40.29302344464725" lon="9.592221283018011"><ele>430.0</ele><time>2026-04-03T16:41:28.001Z</time></trkpt><trkpt lat="40.29313315481359" lon="9.592076894295479"><ele>430.0</ele><time>2026-04-03T16:41:29.001Z</time></trkpt><trkpt lat="40.29322765835273" lon="9.591927013495413"><ele>428.5</ele><time>2026-04-03T16:41:30.001Z</time></trkpt><trkpt lat="40.293314167319856" lon="9.591766571158457"><ele>427.0</ele><time>2026-04-03T16:41:31.001Z</time></trkpt><trkpt lat="40.29339048532517" lon="9.591608079693284"><ele>425.5</ele><time>2026-04-03T16:41:32.001Z</time></trkpt><trkpt lat="40.29346350468898" lon="9.591448993915916"><ele>424.0</ele><time>2026-04-03T16:41:33.001Z</time></trkpt><trkpt lat="40.293544565298546" lon="9.591296535171876"><ele>424.0</ele><time>2026-04-03T16:41:34.001Z</time></trkpt><trkpt lat="40.29389314167169" lon="9.59140410070254"><ele>424.0</ele><time>2026-04-03T16:41:35Z</time></trkpt><trkpt lat="40.294010880320805" lon="9.591287566658387"><ele>423.5</ele><time>2026-04-03T16:41:36Z</time></trkpt><trkpt lat="40.294128339487955" lon="9.591174859587024"><ele>423.0</ele><time>2026-04-03T16:41:37Z</time></trkpt><trkpt lat="40.29424386450703" lon="9.59106039691017"><ele>422.5</ele><time>2026-04-03T16:41:38Z</time></trkpt><trkpt lat="40.29436045063015" lon="9.590947133560176"><ele>422.0</ele><time>2026-04-03T16:41:39Z</time></trkpt><trkpt lat="40.294472800930286" lon="9.590831611359455"><ele>420.66666666666663</ele><time>2026-04-03T16:41:40Z</time></trkpt><trkpt lat="40.294597498628725" lon="9.590726236825633"><ele>419.33333333333337</ele><time>2026-04-03T16:41:41Z</time></trkpt><trkpt lat="40.29472305418615" lon="9.590624617534846"><ele>418.0</ele><time>2026-04-03T16:41:42Z</time></trkpt><trkpt lat="40.29486649019701" lon="9.590545447847118"><ele>417.0</ele><time>2026-04-03T16:41:43Z</time></trkpt><trkpt lat="40.295008593943706" lon="9.590484925616446"><ele>416.0</ele><time>2026-04-03T16:41:44Z</time></trkpt><trkpt lat="40.29515215612852" lon="9.590439158326571"><ele>415.0</ele><time>2026-04-03T16:41:45Z</time></trkpt><trkpt lat="40.295292778706404" lon="9.590400666216759"><ele>414.0</ele><time>2026-04-03T16:41:46Z</time></trkpt><trkpt lat="40.29543663563797" lon="9.590353613615221"><ele>413.0</ele><time>2026-04-03T16:41:47Z</time></trkpt><trkpt lat="40.29557252256061" lon="9.590311988471681"><ele>412.0</ele><time>2026-04-03T16:41:48Z</time></trkpt><trkpt lat="40.295709676062515" lon="9.590266721894759"><ele>411.0</ele><time>2026-04-03T16:41:49Z</time></trkpt><trkpt lat="40.295839450173304" lon="9.590207077431801"><ele>410.0</ele><time>2026-04-03T16:41:50Z</time></trkpt><trkpt lat="40.29596698571604" lon="9.59011497064102"><ele>408.66666666666663</ele><time>2026-04-03T16:41:51Z</time></trkpt><trkpt lat="40.296081796531105" lon="9.589976032275406"><ele>407.33333333333337</ele><time>2026-04-03T16:41:52Z</time></trkpt><trkpt lat="40.29619056583585" lon="9.58981909378595"><ele>406.0</ele><time>2026-04-03T16:41:53Z</time></trkpt><trkpt lat="40.29628941666708" lon="9.589637618059845"><ele>404.0</ele><time>2026-04-03T16:41:54Z</time></trkpt><trkpt lat="40.296390991425206" lon="9.58944836300114"><ele>402.0</ele><time>2026-04-03T16:41:55Z</time></trkpt><trkpt lat="40.29648290640203" lon="9.58927559757528"><ele>400.0</ele><time>2026-04-03T16:41:56Z</time></trkpt><trkpt lat="40.29656193386121" lon="9.589126255319902"><ele>400.0</ele><time>2026-04-03T16:41:57Z</time></trkpt><trkpt lat="40.29662445978913" lon="9.588991539390927"><ele>400.0</ele><time>2026-04-03T16:41:58Z</time></trkpt><trkpt lat="40.29669503737871" lon="9.588856537853179"><ele>400.0</ele><time>2026-04-03T16:41:59Z</time></trkpt><trkpt lat="40.29676967764349" lon="9.588722791883118"><ele>400.0</ele><time>2026-04-03T16:42:00Z</time></trkpt><trkpt lat="40.2968555975165" lon="9.58859350162332"><ele>398.5</ele><time>2026-04-03T16:42:01Z</time></trkpt><trkpt lat="40.29693283966528" lon="9.588460302630033"><ele>397.0</ele><time>2026-04-03T16:42:02Z</time></trkpt><trkpt lat="40.29700318859599" lon="9.588331397781626"><ele>395.5</ele><time>2026-04-03T16:42:03Z</time></trkpt><trkpt lat="40.29707448569174" lon="9.58821441052527"><ele>394.0</ele><time>2026-04-03T16:42:04Z</time></trkpt><trkpt lat="40.29714730244252" lon="9.588095888517627"><ele>394.0</ele><time>2026-04-03T16:42:05Z</time></trkpt><trkpt lat="40.29721814180256" lon="9.58797786284634"><ele>394.0</ele><time>2026-04-03T16:42:06Z</time></trkpt><trkpt lat="40.29728102219738" lon="9.58786193244035"><ele>394.0</ele><time>2026-04-03T16:42:07Z</time></trkpt><trkpt lat="40.297332736637" lon="9.587763554346113"><ele>394.0</ele><time>2026-04-03T16:42:08Z</time></trkpt><trkpt lat="40.297383095694464" lon="9.587664216809406"><ele>394.0</ele><time>2026-04-03T16:42:09Z</time></trkpt><trkpt lat="40.29742540427649" lon="9.587552890459705"><ele>393.2</ele><time>2026-04-03T16:42:10Z</time></trkpt><trkpt lat="40.297456683760366" lon="9.587439225360297"><ele>392.4</ele><time>2026-04-03T16:42:11Z</time></trkpt><trkpt lat="40.29747984484624" lon="9.587320510616486"><ele>391.6</ele><time>2026-04-03T16:42:12Z</time></trkpt><trkpt lat="40.2974919087058" lon="9.587194174293456"><ele>390.8</ele><time>2026-04-03T16:42:13Z</time></trkpt><trkpt lat="40.29749251215798" lon="9.587063479764124"><ele>390.0</ele><time>2026-04-03T16:42:14Z</time></trkpt><trkpt lat="40.297487900308255" lon="9.586927571395034"><ele>389.2</ele><time>2026-04-03T16:42:15Z</time></trkpt><trkpt lat="40.29747297509851" lon="9.586793888672448"><ele>388.4</ele><time>2026-04-03T16:42:16Z</time></trkpt><trkpt lat="40.2974493393226" lon="9.586657901138794"><ele>387.6</ele><time>2026-04-03T16:42:17Z</time></trkpt><trkpt lat="40.29742089019577" lon="9.586522823844906"><ele>386.8</ele><time>2026-04-03T16:42:18Z</time></trkpt><trkpt lat="40.29739410169523" lon="9.586382148522413"><ele>386.0</ele><time>2026-04-03T16:42:19Z</time></trkpt><trkpt lat="40.297371523305" lon="9.5862399878833"><ele>385.0</ele><time>2026-04-03T16:42:20Z</time></trkpt><trkpt lat="40.29734623610815" lon="9.58609593207915"><ele>384.0</ele><time>2026-04-03T16:42:21Z</time></trkpt><trkpt lat="40.297321007728556" lon="9.585951194636536"><ele>383.0</ele><time>2026-04-03T16:42:22Z</time></trkpt><trkpt lat="40.29729651688977" lon="9.58580778982042"><ele>382.0</ele><time>2026-04-03T16:42:23Z</time></trkpt><trkpt lat="40.297270340148735" lon="9.5856690681945"><ele>381.0</ele><time>2026-04-03T16:42:24Z</time></trkpt><trkpt lat="40.297255456696895" lon="9.585534093284137"><ele>380.20000000000005</ele><time>2026-04-03T16:42:25Z</time></trkpt><trkpt lat="40.29722955313169" lon="9.585397744950493"><ele>379.40000000000003</ele><time>2026-04-03T16:42:26Z</time></trkpt><trkpt lat="40.29720646147216" lon="9.585265352988424"><ele>378.6</ele><time>2026-04-03T16:42:27Z</time></trkpt><trkpt lat="40.29718519153766" lon="9.58512773171978"><ele>377.8</ele><time>2026-04-03T16:42:28Z</time></trkpt><trkpt lat="40.29716189559915" lon="9.58499505946119"><ele>377.0</ele><time>2026-04-03T16:42:29Z</time></trkpt><trkpt lat="40.29713609826249" lon="9.584860409937786"><ele>376.40000000000003</ele><time>2026-04-03T16:42:30Z</time></trkpt><trkpt lat="40.297102737717616" lon="9.584735302785491"><ele>375.8</ele><time>2026-04-03T16:42:31Z</time></trkpt><trkpt lat="40.297058868528296" lon="9.584614159157915"><ele>375.2</ele><time>2026-04-03T16:42:32Z</time></trkpt><trkpt lat="40.29700904432739" lon="9.584495818720823"><ele>374.6</ele><time>2026-04-03T16:42:33Z</time></trkpt><trkpt lat="40.296954872417125" lon="9.584382126359325"><ele>374.0</ele><time>2026-04-03T16:42:34Z</time></trkpt><trkpt lat="40.296903454086795" lon="9.584265473729259"><ele>372.0</ele><time>2026-04-03T16:42:35Z</time></trkpt><trkpt lat="40.29667396391201" lon="9.58381955532955"><ele>370.0</ele><time>2026-04-03T16:42:39Z</time></trkpt><trkpt lat="40.296606913158556" lon="9.583724727121874"><ele>369.6</ele><time>2026-04-03T16:42:40Z</time></trkpt><trkpt lat="40.29653435206804" lon="9.583638249923066"><ele>369.2</ele><time>2026-04-03T16:42:41Z</time></trkpt><trkpt lat="40.296458259617985" lon="9.583556256135697"><ele>368.79999999999995</ele><time>2026-04-03T16:42:42Z</time></trkpt><trkpt lat="40.296381868544586" lon="9.583463076595555"><ele>368.4</ele><time>2026-04-03T16:42:43Z</time></trkpt><trkpt lat="40.29632715633917" lon="9.583364872896992"><ele>368.0</ele><time>2026-04-03T16:42:44Z</time></trkpt><trkpt lat="40.29629107706926" lon="9.583260116991623"><ele>366.2</ele><time>2026-04-03T16:42:45Z</time></trkpt><trkpt lat="40.296258780388825" lon="9.583158100720821"><ele>364.4</ele><time>2026-04-03T16:42:46Z</time></trkpt><trkpt lat="40.29623448159422" lon="9.583048661104048"><ele>362.59999999999997</ele><time>2026-04-03T16:42:47Z</time></trkpt><trkpt lat="40.29621731691093" lon="9.582934211462739"><ele>360.79999999999995</ele><time>2026-04-03T16:42:48Z</time></trkpt><trkpt lat="40.29621449864915" lon="9.582803143680392"><ele>359.0</ele><time>2026-04-03T16:42:49Z</time></trkpt><trkpt lat="40.29620641834564" lon="9.582664853183953"><ele>357.25</ele><time>2026-04-03T16:42:50Z</time></trkpt><trkpt lat="40.29619458161584" lon="9.582524340424019"><ele>355.5</ele><time>2026-04-03T16:42:51Z</time></trkpt><trkpt lat="40.29617872294033" lon="9.582374675726344"><ele>353.75</ele><time>2026-04-03T16:42:52Z</time></trkpt><trkpt lat="40.29616635458608" lon="9.582214918206132"><ele>352.0</ele><time>2026-04-03T16:42:53Z</time></trkpt><trkpt lat="40.29615685955275" lon="9.582038660366278"><ele>352.0</ele><time>2026-04-03T16:42:54Z</time></trkpt><trkpt lat="40.29615204596296" lon="9.581858170929223"><ele>352.0</ele><time>2026-04-03T16:42:55Z</time></trkpt><trkpt lat="40.29615073380958" lon="9.581674319996972"><ele>352.0</ele><time>2026-04-03T16:42:56Z</time></trkpt><trkpt lat="40.296153235505386" lon="9.581494561485826"><ele>352.0</ele><time>2026-04-03T16:42:57Z</time></trkpt><trkpt lat="40.29615898754655" lon="9.581315610086683"><ele>351.0</ele><time>2026-04-03T16:42:58Z</time></trkpt><trkpt lat="40.29617283564435" lon="9.581139659375054"><ele>350.0</ele><time>2026-04-03T16:42:59Z</time></trkpt><trkpt lat="40.29620121375588" lon="9.580971828679672"><ele>349.0</ele><time>2026-04-03T16:43:00Z</time></trkpt><trkpt lat="40.296239446782785" lon="9.580806507749443"><ele>348.0</ele><time>2026-04-03T16:43:01Z</time></trkpt><trkpt lat="40.296289812862916" lon="9.580647775906002"><ele>348.0</ele><time>2026-04-03T16:43:02Z</time></trkpt><trkpt lat="40.29635617427797" lon="9.580502796366927"><ele>348.0</ele><time>2026-04-03T16:43:03Z</time></trkpt><trkpt lat="40.296426785581176" lon="9.58036158241645"><ele>348.0</ele><time>2026-04-03T16:43:04Z</time></trkpt><trkpt lat="40.29650240358563" lon="9.580223048553123"><ele>348.0</ele><time>2026-04-03T16:43:05Z</time></trkpt><trkpt lat="40.29656984626902" lon="9.580066240215984"><ele>347.6666666666667</ele><time>2026-04-03T16:43:06Z</time></trkpt><trkpt lat="40.29661711510579" lon="9.579882957768142"><ele>347.33333333333337</ele><time>2026-04-03T16:43:07Z</time></trkpt><trkpt lat="40.296609224199706" lon="9.579678025362025"><ele>347.0</ele><time>2026-04-03T16:43:08Z</time></trkpt><trkpt lat="40.296575790660725" lon="9.579468409916913"><ele>346.33333333333337</ele><time>2026-04-03T16:43:09Z</time></trkpt><trkpt lat="40.29654571508078" lon="9.579261827754287"><ele>345.6666666666667</ele><time>2026-04-03T16:43:10Z</time></trkpt><trkpt lat="40.29652606975304" lon="9.579051877101268"><ele>345.0</ele><time>2026-04-03T16:43:11Z</time></trkpt><trkpt lat="40.296512708640904" lon="9.578840069440854"><ele>345.0</ele><time>2026-04-03T16:43:12Z</time></trkpt><trkpt lat="40.29650471144002" lon="9.578637554713408"><ele>345.0</ele><time>2026-04-03T16:43:13Z</time></trkpt><trkpt lat="40.296510650396996" lon="9.578438427681075"><ele>345.0</ele><time>2026-04-03T16:43:14Z</time></trkpt><trkpt lat="40.296546569716014" lon="9.578247156851276"><ele>345.0</ele><time>2026-04-03T16:43:15Z</time></trkpt><trkpt lat="40.29661190724948" lon="9.578074099440554"><ele>345.0</ele><time>2026-04-03T16:43:16Z</time></trkpt><trkpt lat="40.296694796440704" lon="9.577921945809802"><ele>345.0</ele><time>2026-04-03T16:43:17Z</time></trkpt><trkpt lat="40.29679752474673" lon="9.577792506702957"><ele>345.0</ele><time>2026-04-03T16:43:18Z</time></trkpt><trkpt lat="40.296918652559896" lon="9.577686465349023"><ele>342.6666666666667</ele><time>2026-04-03T16:43:19Z</time></trkpt><trkpt lat="40.29705432415596" lon="9.577597189250312"><ele>340.33333333333337</ele><time>2026-04-03T16:43:20Z</time></trkpt><trkpt lat="40.297196743181814" lon="9.577516631689674"><ele>338.0</ele><time>2026-04-03T16:43:21Z</time></trkpt><trkpt lat="40.29733736283371" lon="9.577444474728273"><ele>337.25</ele><time>2026-04-03T16:43:22Z</time></trkpt><trkpt lat="40.29747457152374" lon="9.577407113962073"><ele>336.5</ele><time>2026-04-03T16:43:23Z</time></trkpt><trkpt lat="40.29760051281974" lon="9.577419874493758"><ele>335.75</ele><time>2026-04-03T16:43:24Z</time></trkpt><trkpt lat="40.29770962493013" lon="9.577506164134771"><ele>335.0</ele><time>2026-04-03T16:43:25Z</time></trkpt><trkpt lat="40.29779464762297" lon="9.577634719424742"><ele>335.0</ele><time>2026-04-03T16:43:26Z</time></trkpt><trkpt lat="40.29788982722784" lon="9.577751251790577"><ele>335.0</ele><time>2026-04-03T16:43:27Z</time></trkpt><trkpt lat="40.29801197156499" lon="9.577818062524996"><ele>335.0</ele><time>2026-04-03T16:43:28Z</time></trkpt><trkpt lat="40.29814988902703" lon="9.577806677903315"><ele>335.0</ele><time>2026-04-03T16:43:29Z</time></trkpt><trkpt lat="40.29827678921543" lon="9.577721106475149"><ele>334.0</ele><time>2026-04-03T16:43:30Z</time></trkpt><trkpt lat="40.298386744961356" lon="9.577585117406777"><ele>333.0</ele><time>2026-04-03T16:43:31Z</time></trkpt><trkpt lat="40.29848511003282" lon="9.57741977045222"><ele>332.0</ele><time>2026-04-03T16:43:32Z</time></trkpt><trkpt lat="40.298578612052125" lon="9.577260019727696"><ele>332.0</ele><time>2026-04-03T16:43:33Z</time></trkpt><trkpt lat="40.29867513924405" lon="9.577099776411336"><ele>332.0</ele><time>2026-04-03T16:43:34Z</time></trkpt><trkpt lat="40.298774759762736" lon="9.576925292151994"><ele>332.0</ele><time>2026-04-03T16:43:35Z</time></trkpt><trkpt lat="40.29886483122543" lon="9.576736371872267"><ele>332.33333333333337</ele><time>2026-04-03T16:43:36Z</time></trkpt><trkpt lat="40.29894131824235" lon="9.576528577326558"><ele>332.6666666666667</ele><time>2026-04-03T16:43:37Z</time></trkpt><trkpt lat="40.29901616461926" lon="9.576307296348801"><ele>333.0</ele><time>2026-04-03T16:43:38Z</time></trkpt><trkpt lat="40.299102999550506" lon="9.576097311054047"><ele>329.6666666666667</ele><time>2026-04-03T16:43:39Z</time></trkpt><trkpt lat="40.299200808304036" lon="9.575887661552782"><ele>326.33333333333337</ele><time>2026-04-03T16:43:40Z</time></trkpt><trkpt lat="40.29930454178567" lon="9.575679284470292"><ele>323.0</ele><time>2026-04-03T16:43:41Z</time></trkpt><trkpt lat="40.299406525941365" lon="9.575473190495076"><ele>320.33333333333337</ele><time>2026-04-03T16:43:42Z</time></trkpt><trkpt lat="40.29949854360872" lon="9.575272738423761"><ele>317.6666666666667</ele><time>2026-04-03T16:43:43Z</time></trkpt><trkpt lat="40.29959095368616" lon="9.575078428042083"><ele>315.0</ele><time>2026-04-03T16:43:44Z</time></trkpt><trkpt lat="40.29968185169847" lon="9.574885233338355"><ele>314.6666666666667</ele><time>2026-04-03T16:43:45Z</time></trkpt><trkpt lat="40.299758943869904" lon="9.574687827275389"><ele>314.33333333333337</ele><time>2026-04-03T16:43:46Z</time></trkpt><trkpt lat="40.299817469035425" lon="9.574477398100049"><ele>314.0</ele><time>2026-04-03T16:43:47Z</time></trkpt><trkpt lat="40.29985839127604" lon="9.574256051598022"><ele>314.0</ele><time>2026-04-03T16:43:48Z</time></trkpt><trkpt lat="40.299894295093885" lon="9.574025864325062"><ele>314.0</ele><time>2026-04-03T16:43:49Z</time></trkpt><trkpt lat="40.29993007440935" lon="9.573795695833548"><ele>314.0</ele><time>2026-04-03T16:43:50Z</time></trkpt><trkpt lat="40.29998277518494" lon="9.573564328414337"><ele>311.0</ele><time>2026-04-03T16:43:51Z</time></trkpt><trkpt lat="40.300063031926676" lon="9.573344536925292"><ele>308.0</ele><time>2026-04-03T16:43:52Z</time></trkpt><trkpt lat="40.30018267316011" lon="9.573149187605901"><ele>305.0</ele><time>2026-04-03T16:43:53Z</time></trkpt><trkpt lat="40.3003162305292" lon="9.572974525246533"><ele>304.6666666666667</ele><time>2026-04-03T16:43:54Z</time></trkpt><trkpt lat="40.30043557099592" lon="9.572790183504353"><ele>304.3333333333333</ele><time>2026-04-03T16:43:55Z</time></trkpt><trkpt lat="40.30054200208936" lon="9.572593127623044"><ele>304.0</ele><time>2026-04-03T16:43:56Z</time></trkpt><trkpt lat="40.30063959704145" lon="9.572392991913363"><ele>304.0</ele><time>2026-04-03T16:43:57Z</time></trkpt><trkpt lat="40.300730495657064" lon="9.572189193567503"><ele>304.0</ele><time>2026-04-03T16:43:58Z</time></trkpt><trkpt lat="40.30080526171292" lon="9.571980516064928"><ele>304.0</ele><time>2026-04-03T16:43:59Z</time></trkpt><trkpt lat="40.30085386450662" lon="9.571759903630126"><ele>301.66666666666663</ele><time>2026-04-03T16:44:00Z</time></trkpt><trkpt lat="40.30087870711527" lon="9.571546216321419"><ele>299.3333333333333</ele><time>2026-04-03T16:44:01Z</time></trkpt><trkpt lat="40.30089733127492" lon="9.571343188380105"><ele>297.0</ele><time>2026-04-03T16:44:02Z</time></trkpt><trkpt lat="40.300924792427956" lon="9.571146314820384"><ele>295.0</ele><time>2026-04-03T16:44:03Z</time></trkpt><trkpt lat="40.30097084219149" lon="9.570975163826855"><ele>293.0</ele><time>2026-04-03T16:44:04Z</time></trkpt><trkpt lat="40.30104513880886" lon="9.570852237554973"><ele>291.0</ele><time>2026-04-03T16:44:05Z</time></trkpt><trkpt lat="40.301160508484806" lon="9.570793629503532"><ele>289.0</ele><time>2026-04-03T16:44:06Z</time></trkpt><trkpt lat="40.30128919116319" lon="9.570812508722241"><ele>289.0</ele><time>2026-04-03T16:44:07Z</time></trkpt><trkpt lat="40.301398306682785" lon="9.570927456542488"><ele>289.0</ele><time>2026-04-03T16:44:08Z</time></trkpt><trkpt lat="40.301489827969114" lon="9.57106781432673"><ele>289.0</ele><time>2026-04-03T16:44:09Z</time></trkpt><trkpt lat="40.30155958301874" lon="9.571212122988767"><ele>289.0</ele><time>2026-04-03T16:44:10Z</time></trkpt><trkpt lat="40.30164375578076" lon="9.571358976340493"><ele>290.75</ele><time>2026-04-03T16:44:11Z</time></trkpt><trkpt lat="40.30175367806334" lon="9.571485617740434"><ele>292.5</ele><time>2026-04-03T16:44:12Z</time></trkpt><trkpt lat="40.301877396714715" lon="9.571589172776985"><ele>294.25</ele><time>2026-04-03T16:44:13Z</time></trkpt><trkpt lat="40.30201819286093" lon="9.571659184198861"><ele>296.0</ele><time>2026-04-03T16:44:14Z</time></trkpt><trkpt lat="40.30217553857001" lon="9.571686376168474"><ele>293.33333333333337</ele><time>2026-04-03T16:44:15Z</time></trkpt><trkpt lat="40.30233678216822" lon="9.57170166734432"><ele>290.6666666666667</ele><time>2026-04-03T16:44:16Z</time></trkpt><trkpt lat="40.30250121274293" lon="9.571735700366203"><ele>288.0</ele><time>2026-04-03T16:44:17Z</time></trkpt><trkpt lat="40.30265884374469" lon="9.571771353610595"><ele>288.0</ele><time>2026-04-03T16:44:18Z</time></trkpt><trkpt lat="40.30279127714188" lon="9.571828188242085"><ele>288.0</ele><time>2026-04-03T16:44:19Z</time></trkpt><trkpt lat="40.30288746386949" lon="9.571931119346548"><ele>288.0</ele><time>2026-04-03T16:44:20Z</time></trkpt><trkpt lat="40.30293672950327" lon="9.572066768497647"><ele>288.0</ele><time>2026-04-03T16:44:21Z</time></trkpt><trkpt lat="40.30295981238701" lon="9.572184094564138"><ele>288.6</ele><time>2026-04-03T16:44:22Z</time></trkpt><trkpt lat="40.30297552152868" lon="9.572283546547824"><ele>289.20000000000005</ele><time>2026-04-03T16:44:24Z</time></trkpt><trkpt lat="40.30315170627489" lon="9.572174927094025"><ele>289.8</ele><time>2026-04-03T16:44:26Z</time></trkpt><trkpt lat="40.3031786127048" lon="9.572084744953155"><ele>290.40000000000003</ele><time>2026-04-03T16:44:27Z</time></trkpt><trkpt lat="40.30320656358647" lon="9.57197455436211"><ele>291.0</ele><time>2026-04-03T16:44:28Z</time></trkpt><trkpt lat="40.3032377831764" lon="9.571815052652733"><ele>288.0</ele><time>2026-04-03T16:44:29Z</time></trkpt><trkpt lat="40.303269906537786" lon="9.571634533340735"><ele>285.0</ele><time>2026-04-03T16:44:30Z</time></trkpt><trkpt lat="40.30330397521645" lon="9.571440593007203"><ele>282.0</ele><time>2026-04-03T16:44:31Z</time></trkpt><trkpt lat="40.30333775936791" lon="9.571265722067107"><ele>279.0</ele><time>2026-04-03T16:44:32Z</time></trkpt><trkpt lat="40.30336692906732" lon="9.571090829327721"><ele>278.75</ele><time>2026-04-03T16:44:33Z</time></trkpt><trkpt lat="40.30338177613042" lon="9.570918499674274"><ele>278.5</ele><time>2026-04-03T16:44:34Z</time></trkpt><trkpt lat="40.30336392782234" lon="9.570724399459081"><ele>278.25</ele><time>2026-04-03T16:44:35Z</time></trkpt><trkpt lat="40.30330814954307" lon="9.570538004577783"><ele>278.0</ele><time>2026-04-03T16:44:36Z</time></trkpt><trkpt lat="40.30323969751081" lon="9.570350753333688"><ele>275.6666666666667</ele><time>2026-04-03T16:44:37Z</time></trkpt><trkpt lat="40.3031793286538" lon="9.570157801526038"><ele>273.3333333333333</ele><time>2026-04-03T16:44:38Z</time></trkpt><trkpt lat="40.303154796795894" lon="9.56995625901221"><ele>271.0</ele><time>2026-04-03T16:44:39Z</time></trkpt><trkpt lat="40.30318742206371" lon="9.56975711776337"><ele>271.0</ele><time>2026-04-03T16:44:40Z</time></trkpt><trkpt lat="40.30325683212039" lon="9.569565908488709"><ele>271.0</ele><time>2026-04-03T16:44:41Z</time></trkpt><trkpt lat="40.30332719356383" lon="9.569371449746674"><ele>271.0</ele><time>2026-04-03T16:44:42Z</time></trkpt><trkpt lat="40.303393897554265" lon="9.569163608436579"><ele>270.66666666666663</ele><time>2026-04-03T16:44:43Z</time></trkpt><trkpt lat="40.303455491666924" lon="9.568946972828115"><ele>270.3333333333333</ele><time>2026-04-03T16:44:44Z</time></trkpt><trkpt lat="40.30351937829285" lon="9.568726789954326"><ele>270.0</ele><time>2026-04-03T16:44:45Z</time></trkpt><trkpt lat="40.3035790550198" lon="9.568511879271183"><ele>268.6666666666667</ele><time>2026-04-03T16:44:46Z</time></trkpt><trkpt lat="40.303646771077865" lon="9.56829164057386"><ele>267.33333333333337</ele><time>2026-04-03T16:44:47Z</time></trkpt><trkpt lat="40.303717395196216" lon="9.568067200404327"><ele>266.0</ele><time>2026-04-03T16:44:48Z</time></trkpt><trkpt lat="40.30379198218134" lon="9.567835615171429"><ele>265.0</ele><time>2026-04-03T16:44:49Z</time></trkpt><trkpt lat="40.30386372627337" lon="9.567606997566324"><ele>264.0</ele><time>2026-04-03T16:44:50Z</time></trkpt><trkpt lat="40.30393479563694" lon="9.56738089686904"><ele>263.0</ele><time>2026-04-03T16:44:51Z</time></trkpt><trkpt lat="40.304004229711715" lon="9.567157824713263"><ele>260.33333333333337</ele><time>2026-04-03T16:44:52Z</time></trkpt><trkpt lat="40.30407163527108" lon="9.566934682658843"><ele>257.6666666666667</ele><time>2026-04-03T16:44:53Z</time></trkpt><trkpt lat="40.304137599015725" lon="9.566711804685765"><ele>255.0</ele><time>2026-04-03T16:44:54Z</time></trkpt><trkpt lat="40.30420455818971" lon="9.566491517127186"><ele>255.0</ele><time>2026-04-03T16:44:55Z</time></trkpt><trkpt lat="40.30426797382053" lon="9.566271433419269"><ele>255.0</ele><time>2026-04-03T16:44:55.999Z</time></trkpt><trkpt lat="40.30431839921681" lon="9.566048048210853"><ele>255.0</ele><time>2026-04-03T16:44:56.999Z</time></trkpt><trkpt lat="40.304337137097605" lon="9.565816289941537"><ele>253.66666666666669</ele><time>2026-04-03T16:44:57.999Z</time></trkpt><trkpt lat="40.304312720931016" lon="9.565585622334309"><ele>252.33333333333334</ele><time>2026-04-03T16:44:58.999Z</time></trkpt><trkpt lat="40.304292196356606" lon="9.565364375227519"><ele>251.0</ele><time>2026-04-03T16:44:59.999Z</time></trkpt><trkpt lat="40.30427835541544" lon="9.565149746259264"><ele>249.66666666666669</ele><time>2026-04-03T16:45:00.999Z</time></trkpt><trkpt lat="40.304280920338435" lon="9.564935062326443"><ele>248.33333333333331</ele><time>2026-04-03T16:45:01.999Z</time></trkpt><trkpt lat="40.30433194502323" lon="9.564720694747782"><ele>247.0</ele><time>2026-04-03T16:45:02.999Z</time></trkpt><trkpt lat="40.304398769568934" lon="9.564513814715397"><ele>246.0</ele><time>2026-04-03T16:45:03.999Z</time></trkpt><trkpt lat="40.30447410715658" lon="9.564308149373328"><ele>245.0</ele><time>2026-04-03T16:45:04.999Z</time></trkpt><trkpt lat="40.30455254115146" lon="9.564098561565604"><ele>244.0</ele><time>2026-04-03T16:45:05.999Z</time></trkpt><trkpt lat="40.304628506778066" lon="9.563884380229313"><ele>243.66666666666666</ele><time>2026-04-03T16:45:06.999Z</time></trkpt><trkpt lat="40.304704444846905" lon="9.563673983879154"><ele>243.33333333333331</ele><time>2026-04-03T16:45:07.999Z</time></trkpt><trkpt lat="40.304777511098884" lon="9.56345584002048"><ele>243.0</ele><time>2026-04-03T16:45:08.999Z</time></trkpt><trkpt lat="40.304850827637864" lon="9.563232933828305"><ele>241.66666666666669</ele><time>2026-04-03T16:45:09.999Z</time></trkpt><trkpt lat="40.30492531332185" lon="9.563005756003498"><ele>240.33333333333334</ele><time>2026-04-03T16:45:10.999Z</time></trkpt><trkpt lat="40.305006276205624" lon="9.562780002466129"><ele>239.0</ele><time>2026-04-03T16:45:11.999Z</time></trkpt><trkpt lat="40.30509296462499" lon="9.562553492619761"><ele>238.33333333333334</ele><time>2026-04-03T16:45:12.999Z</time></trkpt><trkpt lat="40.305181682659644" lon="9.562322747042248"><ele>237.66666666666669</ele><time>2026-04-03T16:45:13.999Z</time></trkpt><trkpt lat="40.30526863961732" lon="9.562094860606686"><ele>237.0</ele><time>2026-04-03T16:45:14.999Z</time></trkpt><trkpt lat="40.30534912140801" lon="9.56186484951812"><ele>237.0</ele><time>2026-04-03T16:45:15.999Z</time></trkpt><trkpt lat="40.30542987718123" lon="9.5616348708518"><ele>237.0</ele><time>2026-04-03T16:45:16.999Z</time></trkpt><trkpt lat="40.305507075827194" lon="9.561406758787616"><ele>237.0</ele><time>2026-04-03T16:45:17.999Z</time></trkpt><trkpt lat="40.30558386735226" lon="9.561180988479077"><ele>235.33333333333331</ele><time>2026-04-03T16:45:18.999Z</time></trkpt><trkpt lat="40.305663005736434" lon="9.560959884147294"><ele>233.66666666666666</ele><time>2026-04-03T16:45:19.999Z</time></trkpt><trkpt lat="40.30573966486517" lon="9.560736590049002"><ele>232.0</ele><time>2026-04-03T16:45:20.999Z</time></trkpt><trkpt lat="40.30581637488155" lon="9.560512484078444"><ele>232.0</ele><time>2026-04-03T16:45:21.999Z</time></trkpt><trkpt lat="40.30589045572609" lon="9.560291336164806"><ele>232.0</ele><time>2026-04-03T16:45:22.999Z</time></trkpt><trkpt lat="40.30596196570725" lon="9.560068745644918"><ele>232.0</ele><time>2026-04-03T16:45:23.999Z</time></trkpt><trkpt lat="40.30603279653257" lon="9.559848072612846"><ele>232.0</ele><time>2026-04-03T16:45:24.999Z</time></trkpt><trkpt lat="40.306103125414" lon="9.55962824872378"><ele>232.0</ele><time>2026-04-03T16:45:25.999Z</time></trkpt><trkpt lat="40.30617069122645" lon="9.559406321631906"><ele>232.0</ele><time>2026-04-03T16:45:26.999Z</time></trkpt><trkpt lat="40.30623544404139" lon="9.559182510363144"><ele>232.0</ele><time>2026-04-03T16:45:27.999Z</time></trkpt><trkpt lat="40.30630046725312" lon="9.55895897972584"><ele>232.0</ele><time>2026-04-03T16:45:28.999Z</time></trkpt><trkpt lat="40.30637201316534" lon="9.558740052346268"><ele>232.0</ele><time>2026-04-03T16:45:29.999Z</time></trkpt><trkpt lat="40.306448258050395" lon="9.558522294154105"><ele>230.0</ele><time>2026-04-03T16:45:30.999Z</time></trkpt><trkpt lat="40.30651931334553" lon="9.558302981280626"><ele>228.0</ele><time>2026-04-03T16:45:31.999Z</time></trkpt><trkpt lat="40.30659232200235" lon="9.558079086693722"><ele>226.0</ele><time>2026-04-03T16:45:32.999Z</time></trkpt><trkpt lat="40.30666997040534" lon="9.557855101259706"><ele>225.66666666666666</ele><time>2026-04-03T16:45:33.999Z</time></trkpt><trkpt lat="40.30674813278068" lon="9.557632031830481"><ele>225.33333333333331</ele><time>2026-04-03T16:45:34.999Z</time></trkpt><trkpt lat="40.30682863358275" lon="9.557406901934904"><ele>225.0</ele><time>2026-04-03T16:45:35.999Z</time></trkpt><trkpt lat="40.306907682794225" lon="9.557175917566271"><ele>225.0</ele><time>2026-04-03T16:45:36.999Z</time></trkpt><trkpt lat="40.306986220035384" lon="9.556940299447556"><ele>225.0</ele><time>2026-04-03T16:45:37.999Z</time></trkpt><trkpt lat="40.307065273492874" lon="9.55670547163757"><ele>225.0</ele><time>2026-04-03T16:45:39Z</time></trkpt><trkpt lat="40.307145734005395" lon="9.556470474415667"><ele>225.0</ele><time>2026-04-03T16:45:40Z</time></trkpt><trkpt lat="40.307228293211395" lon="9.556235345489705"><ele>225.0</ele><time>2026-04-03T16:45:41Z</time></trkpt><trkpt lat="40.30730864576408" lon="9.556001404288384"><ele>225.0</ele><time>2026-04-03T16:45:42Z</time></trkpt><trkpt lat="40.307385171442945" lon="9.5557647484527"><ele>223.0</ele><time>2026-04-03T16:45:43Z</time></trkpt><trkpt lat="40.3074537634872" lon="9.5555185802213"><ele>221.0</ele><time>2026-04-03T16:45:44Z</time></trkpt><trkpt lat="40.30750961751916" lon="9.555267569059748"><ele>219.0</ele><time>2026-04-03T16:45:45Z</time></trkpt><trkpt lat="40.30753620441786" lon="9.555005474326745"><ele>219.0</ele><time>2026-04-03T16:45:46Z</time></trkpt><trkpt lat="40.30753565446341" lon="9.554735735183927"><ele>219.0</ele><time>2026-04-03T16:45:47Z</time></trkpt><trkpt lat="40.30750923486631" lon="9.55446733470775"><ele>219.0</ele><time>2026-04-03T16:45:48Z</time></trkpt><trkpt lat="40.30745671486657" lon="9.554209734586319"><ele>218.0</ele><time>2026-04-03T16:45:49Z</time></trkpt><trkpt lat="40.30738984403554" lon="9.553957722424167"><ele>217.0</ele><time>2026-04-03T16:45:50Z</time></trkpt><trkpt lat="40.30731542440109" lon="9.553706650111128"><ele>216.0</ele><time>2026-04-03T16:45:51Z</time></trkpt><trkpt lat="40.307237718692726" lon="9.553455401071483"><ele>216.0</ele><time>2026-04-03T16:45:52Z</time></trkpt><trkpt lat="40.30717784812908" lon="9.553196384878472"><ele>216.0</ele><time>2026-04-03T16:45:53Z</time></trkpt><trkpt lat="40.30710060068944" lon="9.552937978746593"><ele>216.0</ele><time>2026-04-03T16:45:54Z</time></trkpt><trkpt lat="40.30700975180371" lon="9.552684797492166"><ele>214.33333333333331</ele><time>2026-04-03T16:45:55Z</time></trkpt><trkpt lat="40.3069332385038" lon="9.552420663099456"><ele>212.66666666666666</ele><time>2026-04-03T16:45:56Z</time></trkpt><trkpt lat="40.30685966672457" lon="9.552160172013993"><ele>211.0</ele><time>2026-04-03T16:45:57Z</time></trkpt><trkpt lat="40.3067810713368" lon="9.551898834270105"><ele>209.33333333333331</ele><time>2026-04-03T16:45:58Z</time></trkpt><trkpt lat="40.306704045221835" lon="9.551643834615055"><ele>207.66666666666669</ele><time>2026-04-03T16:45:59Z</time></trkpt><trkpt lat="40.306636625305856" lon="9.551395942930718"><ele>206.0</ele><time>2026-04-03T16:46:00Z</time></trkpt><trkpt lat="40.306560017761576" lon="9.551156120905212"><ele>205.33333333333334</ele><time>2026-04-03T16:46:01Z</time></trkpt><trkpt lat="40.30646996333352" lon="9.550921961657972"><ele>204.66666666666669</ele><time>2026-04-03T16:46:02Z</time></trkpt><trkpt lat="40.30633330991581" lon="9.55071671659527"><ele>204.0</ele><time>2026-04-03T16:46:03Z</time></trkpt><trkpt lat="40.30620224167898" lon="9.550505880099832"><ele>201.66666666666669</ele><time>2026-04-03T16:46:04Z</time></trkpt><trkpt lat="40.30607900271419" lon="9.550284790427849"><ele>199.33333333333334</ele><time>2026-04-03T16:46:05Z</time></trkpt><trkpt lat="40.30595762882828" lon="9.550060913203092"><ele>197.0</ele><time>2026-04-03T16:46:06Z</time></trkpt><trkpt lat="40.305861199139606" lon="9.549816123090796"><ele>197.0</ele><time>2026-04-03T16:46:07Z</time></trkpt><trkpt lat="40.30576324111515" lon="9.549575838647725"><ele>197.0</ele><time>2026-04-03T16:46:08Z</time></trkpt><trkpt lat="40.30564726811187" lon="9.54935155175578"><ele>197.0</ele><time>2026-04-03T16:46:09Z</time></trkpt><trkpt lat="40.305507194029545" lon="9.549151048164713"><ele>196.0</ele><time>2026-04-03T16:46:10Z</time></trkpt><trkpt lat="40.30538200137235" lon="9.548942952295569"><ele>195.0</ele><time>2026-04-03T16:46:11Z</time></trkpt><trkpt lat="40.30526757498091" lon="9.548738156824694"><ele>194.0</ele><time>2026-04-03T16:46:12Z</time></trkpt><trkpt lat="40.30514472443493" lon="9.548575069831175"><ele>191.0</ele><time>2026-04-03T16:46:13Z</time></trkpt><trkpt lat="40.30519085479276" lon="9.548189208025049"><ele>188.0</ele><time>2026-04-03T16:46:14Z</time></trkpt><trkpt lat="40.305125772021256" lon="9.547938246900078"><ele>188.0</ele><time>2026-04-03T16:46:15Z</time></trkpt><trkpt lat="40.30502929175751" lon="9.547711874529632"><ele>188.0</ele><time>2026-04-03T16:46:16Z</time></trkpt><trkpt lat="40.30490044662612" lon="9.547514985380209"><ele>188.0</ele><time>2026-04-03T16:46:17Z</time></trkpt><trkpt lat="40.30474298244496" lon="9.547349298345992"><ele>187.66666666666666</ele><time>2026-04-03T16:46:18Z</time></trkpt><trkpt lat="40.30457291389204" lon="9.54720284073267"><ele>187.33333333333334</ele><time>2026-04-03T16:46:19Z</time></trkpt><trkpt lat="40.30441132088179" lon="9.547033143439155"><ele>187.0</ele><time>2026-04-03T16:46:20Z</time></trkpt><trkpt lat="40.304267135437705" lon="9.546837218037727"><ele>185.33333333333334</ele><time>2026-04-03T16:46:21Z</time></trkpt><trkpt lat="40.30413759461079" lon="9.546634020715514"><ele>183.66666666666666</ele><time>2026-04-03T16:46:22Z</time></trkpt><trkpt lat="40.30401044359993" lon="9.546428646892409"><ele>182.0</ele><time>2026-04-03T16:46:23Z</time></trkpt><trkpt lat="40.30388276872667" lon="9.546221511427284"><ele>180.66666666666666</ele><time>2026-04-03T16:46:24Z</time></trkpt><trkpt lat="40.30375320743011" lon="9.546017243643023"><ele>179.33333333333334</ele><time>2026-04-03T16:46:25Z</time></trkpt><trkpt lat="40.30362421185194" lon="9.545814744876658"><ele>178.0</ele><time>2026-04-03T16:46:26Z</time></trkpt><trkpt lat="40.30349633087174" lon="9.545618182631838"><ele>178.0</ele><time>2026-04-03T16:46:27Z</time></trkpt><trkpt lat="40.30337198256093" lon="9.545423717679492"><ele>178.0</ele><time>2026-04-03T16:46:28Z</time></trkpt><trkpt lat="40.303251337652064" lon="9.545230516900544"><ele>178.0</ele><time>2026-04-03T16:46:29Z</time></trkpt><trkpt lat="40.30312918081219" lon="9.545037638978702"><ele>176.33333333333334</ele><time>2026-04-03T16:46:30Z</time></trkpt><trkpt lat="40.30300807018804" lon="9.544842349638605"><ele>174.66666666666666</ele><time>2026-04-03T16:46:31Z</time></trkpt><trkpt lat="40.30288328974509" lon="9.544648202501868"><ele>173.0</ele><time>2026-04-03T16:46:32Z</time></trkpt><trkpt lat="40.302757781921635" lon="9.544460178527917"><ele>173.0</ele><time>2026-04-03T16:46:33Z</time></trkpt><trkpt lat="40.30264150455854" lon="9.544272718477725"><ele>173.0</ele><time>2026-04-03T16:46:34Z</time></trkpt><trkpt lat="40.30253863985325" lon="9.544074883297094"><ele>173.0</ele><time>2026-04-03T16:46:35Z</time></trkpt><trkpt lat="40.302471868305915" lon="9.543851427854031"><ele>172.33333333333331</ele><time>2026-04-03T16:46:36Z</time></trkpt><trkpt lat="40.3024397631838" lon="9.543614278535987"><ele>171.66666666666666</ele><time>2026-04-03T16:46:37Z</time></trkpt><trkpt lat="40.30243614982108" lon="9.543379493257444"><ele>171.0</ele><time>2026-04-03T16:46:38Z</time></trkpt><trkpt lat="40.30245626914326" lon="9.543150423418059"><ele>171.0</ele><time>2026-04-03T16:46:39Z</time></trkpt><trkpt lat="40.30250391015221" lon="9.542930087530273"><ele>171.0</ele><time>2026-04-03T16:46:40Z</time></trkpt><trkpt lat="40.30257668830943" lon="9.542726067497387"><ele>171.0</ele><time>2026-04-03T16:46:41Z</time></trkpt><trkpt lat="40.302669496322956" lon="9.542537448464488"><ele>167.0</ele><time>2026-04-03T16:46:42Z</time></trkpt><trkpt lat="40.30278063699855" lon="9.542363778414044"><ele>163.0</ele><time>2026-04-03T16:46:43Z</time></trkpt><trkpt lat="40.302908323436135" lon="9.542203549300531"><ele>159.0</ele><time>2026-04-03T16:46:44Z</time></trkpt><trkpt lat="40.30304438109532" lon="9.542046167658656"><ele>158.0</ele><time>2026-04-03T16:46:45Z</time></trkpt><trkpt lat="40.303176195725804" lon="9.541877176172939"><ele>157.0</ele><time>2026-04-03T16:46:46Z</time></trkpt><trkpt lat="40.3033105001259" lon="9.541700645763775"><ele>156.0</ele><time>2026-04-03T16:46:47Z</time></trkpt><trkpt lat="40.30344612737463" lon="9.541521827783415"><ele>156.0</ele><time>2026-04-03T16:46:48Z</time></trkpt><trkpt lat="40.30358641004646" lon="9.541346769835206"><ele>156.0</ele><time>2026-04-03T16:46:49Z</time></trkpt><trkpt lat="40.30372543675285" lon="9.541173121245915"><ele>156.0</ele><time>2026-04-03T16:46:50Z</time></trkpt><trkpt lat="40.303864474769796" lon="9.541005257324555"><ele>154.66666666666666</ele><time>2026-04-03T16:46:51Z</time></trkpt><trkpt lat="40.30399507692698" lon="9.540844981286197"><ele>153.33333333333331</ele><time>2026-04-03T16:46:52Z</time></trkpt><trkpt lat="40.30413437614889" lon="9.540718191689583"><ele>152.0</ele><time>2026-04-03T16:46:53Z</time></trkpt><trkpt lat="40.304288346699416" lon="9.54065696519501"><ele>152.0</ele><time>2026-04-03T16:46:54Z</time></trkpt><trkpt lat="40.304451062029145" lon="9.540661865870794"><ele>152.0</ele><time>2026-04-03T16:46:55Z</time></trkpt><trkpt lat="40.30460029770919" lon="9.540729654847567"><ele>152.0</ele><time>2026-04-03T16:46:56Z</time></trkpt><trkpt lat="40.30473715881879" lon="9.540845133100651"><ele>155.0</ele><time>2026-04-03T16:46:57Z</time></trkpt><trkpt lat="40.30486985945095" lon="9.540977285696718"><ele>158.0</ele><time>2026-04-03T16:46:58Z</time></trkpt><trkpt lat="40.305002078476036" lon="9.541106062353068"><ele>161.0</ele><time>2026-04-03T16:46:59Z</time></trkpt><trkpt lat="40.3051379627988" lon="9.541230889415615"><ele>161.0</ele><time>2026-04-03T16:47:00Z</time></trkpt><trkpt lat="40.30527429042627" lon="9.54135473550566"><ele>161.0</ele><time>2026-04-03T16:47:01Z</time></trkpt><trkpt lat="40.30541357704677" lon="9.541474381829339"><ele>161.0</ele><time>2026-04-03T16:47:02Z</time></trkpt><trkpt lat="40.30555319384969" lon="9.541572267940671"><ele>158.0</ele><time>2026-04-03T16:47:03Z</time></trkpt><trkpt lat="40.30570882339461" lon="9.541641723972788"><ele>155.0</ele><time>2026-04-03T16:47:04Z</time></trkpt><trkpt lat="40.30587315012631" lon="9.541658660887501"><ele>152.0</ele><time>2026-04-03T16:47:05Z</time></trkpt><trkpt lat="40.306019743881045" lon="9.541604959228813"><ele>152.0</ele><time>2026-04-03T16:47:06Z</time></trkpt><trkpt lat="40.30612804690879" lon="9.5414885471559"><ele>152.0</ele><time>2026-04-03T16:47:07Z</time></trkpt><trkpt lat="40.30618820838959" lon="9.541330076962321"><ele>152.0</ele><time>2026-04-03T16:47:08Z</time></trkpt><trkpt lat="40.30623212840488" lon="9.541151303204607"><ele>152.0</ele><time>2026-04-03T16:47:09Z</time></trkpt><trkpt lat="40.30628224597635" lon="9.540969990815743"><ele>144.0</ele><time>2026-04-03T16:47:10Z</time></trkpt><trkpt lat="40.306326034182646" lon="9.54079481457894"><ele>136.0</ele><time>2026-04-03T16:47:11Z</time></trkpt><trkpt lat="40.30636109076235" lon="9.540622318067758"><ele>128.0</ele><time>2026-04-03T16:47:12Z</time></trkpt><trkpt lat="40.3063935417901" lon="9.540440256175598"><ele>120.0</ele><time>2026-04-03T16:47:13Z</time></trkpt><trkpt lat="40.30642620180749" lon="9.54025391721118"><ele>113.33333333333334</ele><time>2026-04-03T16:47:14Z</time></trkpt><trkpt lat="40.30646171474418" lon="9.540060542825806"><ele>106.66666666666667</ele><time>2026-04-03T16:47:15Z</time></trkpt><trkpt lat="40.3064913867277" lon="9.539860980548802"><ele>100.0</ele><time>2026-04-03T16:47:16Z</time></trkpt><trkpt lat="40.306522897232846" lon="9.539656134010785"><ele>102.33333333333334</ele><time>2026-04-03T16:47:17Z</time></trkpt><trkpt lat="40.30656021456336" lon="9.539449756346746"><ele>104.66666666666666</ele><time>2026-04-03T16:47:18Z</time></trkpt><trkpt lat="40.30660741319305" lon="9.539244875304522"><ele>107.0</ele><time>2026-04-03T16:47:19Z</time></trkpt><trkpt lat="40.30666020515539" lon="9.539042102972054"><ele>107.0</ele><time>2026-04-03T16:47:20Z</time></trkpt><trkpt lat="40.30671885407146" lon="9.53884386269084"><ele>107.0</ele><time>2026-04-03T16:47:21Z</time></trkpt><trkpt lat="40.30679330038382" lon="9.538668738506274"><ele>107.0</ele><time>2026-04-03T16:47:22Z</time></trkpt><trkpt lat="40.30691894932844" lon="9.538545977388148"><ele>117.33333333333333</ele><time>2026-04-03T16:47:23Z</time></trkpt><trkpt lat="40.30708561890287" lon="9.538492018307263"><ele>127.66666666666666</ele><time>2026-04-03T16:47:24Z</time></trkpt><trkpt lat="40.307252811331914" lon="9.538515413272178"><ele>138.0</ele><time>2026-04-03T16:47:25Z</time></trkpt><trkpt lat="40.307405673770035" lon="9.538581537177398"><ele>138.75</ele><time>2026-04-03T16:47:26Z</time></trkpt><trkpt lat="40.3075733135678" lon="9.538577828065034"><ele>139.5</ele><time>2026-04-03T16:47:28Z</time></trkpt><trkpt lat="40.30770445810767" lon="9.538605459794574"><ele>140.25</ele><time>2026-04-03T16:47:29Z</time></trkpt><trkpt lat="40.30784525024377" lon="9.538641324872591"><ele>141.0</ele><time>2026-04-03T16:47:30Z</time></trkpt><trkpt lat="40.307988420143" lon="9.53865695646354"><ele>138.75</ele><time>2026-04-03T16:47:31Z</time></trkpt><trkpt lat="40.30812996226947" lon="9.538626877952794"><ele>136.5</ele><time>2026-04-03T16:47:32Z</time></trkpt><trkpt lat="40.30825915997113" lon="9.538531620538217"><ele>134.25</ele><time>2026-04-03T16:47:33Z</time></trkpt><trkpt lat="40.30836052092908" lon="9.538393884514628"><ele>132.0</ele><time>2026-04-03T16:47:34Z</time></trkpt><trkpt lat="40.30843751546732" lon="9.538236943036402"><ele>132.0</ele><time>2026-04-03T16:47:35Z</time></trkpt><trkpt lat="40.30852043731592" lon="9.538070377654414"><ele>132.0</ele><time>2026-04-03T16:47:36Z</time></trkpt><trkpt lat="40.308610242763" lon="9.537910591755555"><ele>132.0</ele><time>2026-04-03T16:47:37Z</time></trkpt><trkpt lat="40.308702247337045" lon="9.537747699765873"><ele>131.33333333333334</ele><time>2026-04-03T16:47:38Z</time></trkpt><trkpt lat="40.30879934747155" lon="9.537577300808444"><ele>130.66666666666669</ele><time>2026-04-03T16:47:39Z</time></trkpt><trkpt lat="40.30889397571523" lon="9.537404142360186"><ele>130.0</ele><time>2026-04-03T16:47:40Z</time></trkpt><trkpt lat="40.30898881627975" lon="9.53723104059474"><ele>130.0</ele><time>2026-04-03T16:47:41Z</time></trkpt><trkpt lat="40.309087435924766" lon="9.537056734082952"><ele>130.0</ele><time>2026-04-03T16:47:42Z</time></trkpt><trkpt lat="40.309191657960845" lon="9.536890748422431"><ele>130.0</ele><time>2026-04-03T16:47:43Z</time></trkpt><trkpt lat="40.30929605847692" lon="9.53672413778283"><ele>133.66666666666669</ele><time>2026-04-03T16:47:44Z</time></trkpt><trkpt lat="40.30942430769627" lon="9.536580225067572"><ele>137.33333333333334</ele><time>2026-04-03T16:47:45Z</time></trkpt><trkpt lat="40.3095725026577" lon="9.536483815627388"><ele>141.0</ele><time>2026-04-03T16:47:46Z</time></trkpt><trkpt lat="40.30973700168603" lon="9.536415476694032"><ele>136.66666666666666</ele><time>2026-04-03T16:47:47Z</time></trkpt><trkpt lat="40.309894708354136" lon="9.53634781465483"><ele>132.33333333333331</ele><time>2026-04-03T16:47:48Z</time></trkpt><trkpt lat="40.310051987393614" lon="9.53626736241203"><ele>128.0</ele><time>2026-04-03T16:47:49Z</time></trkpt><trkpt lat="40.31030117866574" lon="9.536375431778547"><ele>128.0</ele><time>2026-04-03T16:47:50Z</time></trkpt><trkpt lat="40.310419034679256" lon="9.53622644603665"><ele>128.0</ele><time>2026-04-03T16:47:51Z</time></trkpt><trkpt lat="40.310452208346355" lon="9.535959236289582"><ele>128.0</ele><time>2026-04-03T16:47:52Z</time></trkpt><trkpt lat="40.31053570233499" lon="9.535769810383831"><ele>129.66666666666666</ele><time>2026-04-03T16:47:53Z</time></trkpt><trkpt lat="40.31061188698831" lon="9.535572672791895"><ele>131.33333333333334</ele><time>2026-04-03T16:47:54Z</time></trkpt><trkpt lat="40.310683461886676" lon="9.535383412379897"><ele>133.0</ele><time>2026-04-03T16:47:55Z</time></trkpt><trkpt lat="40.31074830598185" lon="9.535200795507231"><ele>133.66666666666669</ele><time>2026-04-03T16:47:56Z</time></trkpt><trkpt lat="40.31081549542419" lon="9.535010131778062"><ele>134.33333333333334</ele><time>2026-04-03T16:47:57Z</time></trkpt><trkpt lat="40.310877375745065" lon="9.534817701976419"><ele>135.0</ele><time>2026-04-03T16:47:58Z</time></trkpt><trkpt lat="40.31095826762288" lon="9.534641665307156"><ele>136.33333333333334</ele><time>2026-04-03T16:47:59Z</time></trkpt><trkpt lat="40.3110374231898" lon="9.53445841742686"><ele>137.66666666666669</ele><time>2026-04-03T16:48:00Z</time></trkpt><trkpt lat="40.311107384847304" lon="9.534279931991364"><ele>139.0</ele><time>2026-04-03T16:48:01Z</time></trkpt><trkpt lat="40.31119421031076" lon="9.534114770661931"><ele>139.0</ele><time>2026-04-03T16:48:02Z</time></trkpt><trkpt lat="40.31132503836628" lon="9.533991854167654"><ele>139.0</ele><time>2026-04-03T16:48:03Z</time></trkpt><trkpt lat="40.311473400856094" lon="9.533909114424556"><ele>139.0</ele><time>2026-04-03T16:48:04Z</time></trkpt><trkpt lat="40.311652428544875" lon="9.533845902510258"><ele>138.4</ele><time>2026-04-03T16:48:05Z</time></trkpt><trkpt lat="40.31179436496398" lon="9.53380398467953"><ele>137.8</ele><time>2026-04-03T16:48:06Z</time></trkpt><trkpt lat="40.31185256146326" lon="9.533750204464639"><ele>137.2</ele><time>2026-04-03T16:48:07Z</time></trkpt><trkpt lat="40.31191534950255" lon="9.533740459779493"><ele>136.6</ele><time>2026-04-03T16:48:08Z</time></trkpt><trkpt lat="40.31192726814642" lon="9.53385581361889"><ele>136.0</ele><time>2026-04-03T16:48:09Z</time></trkpt><trkpt lat="40.311996912080616" lon="9.53411710709376"><ele>136.0</ele><time>2026-04-03T16:48:10Z</time></trkpt><trkpt lat="40.31200829327905" lon="9.534397967229527"><ele>136.0</ele><time>2026-04-03T16:48:11Z</time></trkpt><trkpt lat="40.31219380217048" lon="9.534250293072455"><ele>136.0</ele><time>2026-04-03T16:48:12Z</time></trkpt><trkpt lat="40.3123113657489" lon="9.534274633670064"><ele>137.0</ele><time>2026-04-03T16:48:13Z</time></trkpt><trkpt lat="40.31243928673708" lon="9.534260673070753"><ele>138.0</ele><time>2026-04-03T16:48:14Z</time></trkpt><trkpt lat="40.3125667532831" lon="9.534241889845328"><ele>139.0</ele><time>2026-04-03T16:48:15Z</time></trkpt><trkpt lat="40.312699301114" lon="9.534233290631649"><ele>140.0</ele><time>2026-04-03T16:48:16Z</time></trkpt><trkpt lat="40.31283329231674" lon="9.534240985962727"><ele>140.0</ele><time>2026-04-03T16:48:17Z</time></trkpt><trkpt lat="40.3129720731205" lon="9.534256020456864"><ele>140.0</ele><time>2026-04-03T16:48:18Z</time></trkpt><trkpt lat="40.31311050102944" lon="9.534272939001193"><ele>140.0</ele><time>2026-04-03T16:48:19Z</time></trkpt><trkpt lat="40.3132572233781" lon="9.534292515338118"><ele>140.0</ele><time>2026-04-03T16:48:20Z</time></trkpt><trkpt lat="40.31340379082758" lon="9.534312008627241"><ele>140.66666666666666</ele><time>2026-04-03T16:48:21Z</time></trkpt><trkpt lat="40.31355086758943" lon="9.534333518638302"><ele>141.33333333333334</ele><time>2026-04-03T16:48:22Z</time></trkpt><trkpt lat="40.3136990094399" lon="9.534363051589054"><ele>142.0</ele><time>2026-04-03T16:48:23Z</time></trkpt><trkpt lat="40.3138549243866" lon="9.534381500110188"><ele>142.66666666666669</ele><time>2026-04-03T16:48:24Z</time></trkpt><trkpt lat="40.314010183657984" lon="9.534392520841921"><ele>143.33333333333334</ele><time>2026-04-03T16:48:25Z</time></trkpt><trkpt lat="40.314162913083116" lon="9.534410025261923"><ele>144.0</ele><time>2026-04-03T16:48:26Z</time></trkpt><trkpt lat="40.31431583167603" lon="9.534436723498924"><ele>144.0</ele><time>2026-04-03T16:48:27Z</time></trkpt><trkpt lat="40.3144539737316" lon="9.534470508714675"><ele>144.0</ele><time>2026-04-03T16:48:28Z</time></trkpt><trkpt lat="40.314567762729965" lon="9.534540048132374"><ele>144.0</ele><time>2026-04-03T16:48:29Z</time></trkpt><trkpt lat="40.3146567147436" lon="9.534664487350069"><ele>144.0</ele><time>2026-04-03T16:48:30Z</time></trkpt><trkpt lat="40.314724640871226" lon="9.53481889316067"><ele>145.75</ele><time>2026-04-03T16:48:31Z</time></trkpt><trkpt lat="40.31479014914985" lon="9.534963461347408"><ele>147.5</ele><time>2026-04-03T16:48:32Z</time></trkpt><trkpt lat="40.314879497168285" lon="9.535097505989212"><ele>149.25</ele><time>2026-04-03T16:48:33Z</time></trkpt><trkpt lat="40.31500689549376" lon="9.535162711511566"><ele>151.0</ele><time>2026-04-03T16:48:34Z</time></trkpt><trkpt lat="40.315150834800626" lon="9.535131509858553"><ele>151.0</ele><time>2026-04-03T16:48:35Z</time></trkpt><trkpt lat="40.31524761685381" lon="9.535006254573533"><ele>151.0</ele><time>2026-04-03T16:48:36Z</time></trkpt><trkpt lat="40.31531782184368" lon="9.534849059759853"><ele>151.0</ele><time>2026-04-03T16:48:37Z</time></trkpt><trkpt lat="40.315385308530054" lon="9.534697044607071"><ele>151.0</ele><time>2026-04-03T16:48:38Z</time></trkpt><trkpt lat="40.31546875666264" lon="9.534560630919628"><ele>151.25</ele><time>2026-04-03T16:48:39Z</time></trkpt><trkpt lat="40.315557562588154" lon="9.534436306249301"><ele>151.5</ele><time>2026-04-03T16:48:40Z</time></trkpt><trkpt lat="40.315653581839115" lon="9.534334874279029"><ele>151.75</ele><time>2026-04-03T16:48:41Z</time></trkpt><trkpt lat="40.315766093050264" lon="9.534278212116693"><ele>152.0</ele><time>2026-04-03T16:48:42Z</time></trkpt><trkpt lat="40.31589268851612" lon="9.534292722235849"><ele>152.0</ele><time>2026-04-03T16:48:43Z</time></trkpt><trkpt lat="40.31601591009824" lon="9.534343673207829"><ele>152.0</ele><time>2026-04-03T16:48:44Z</time></trkpt><trkpt lat="40.31614804495703" lon="9.53437815555809"><ele>152.0</ele><time>2026-04-03T16:48:45Z</time></trkpt><trkpt lat="40.316285894245155" lon="9.534396317892393"><ele>152.0</ele><time>2026-04-03T16:48:46Z</time></trkpt><trkpt lat="40.31642758786055" lon="9.534403620836652"><ele>153.0</ele><time>2026-04-03T16:48:47Z</time></trkpt><trkpt lat="40.316565748820466" lon="9.534411336241458"><ele>154.0</ele><time>2026-04-03T16:48:48Z</time></trkpt><trkpt lat="40.31670340667638" lon="9.534417458566375"><ele>155.0</ele><time>2026-04-03T16:48:49Z</time></trkpt><trkpt lat="40.31682559794917" lon="9.534451009734836"><ele>156.0</ele><time>2026-04-03T16:48:50Z</time></trkpt><trkpt lat="40.31693088828398" lon="9.53454266894352"><ele>157.5</ele><time>2026-04-03T16:48:51Z</time></trkpt><trkpt lat="40.317020194091796" lon="9.534682021161615"><ele>159.0</ele><time>2026-04-03T16:48:52Z</time></trkpt><trkpt lat="40.31710647745341" lon="9.534829335788706"><ele>160.5</ele><time>2026-04-03T16:48:53Z</time></trkpt><trkpt lat="40.31721040882799" lon="9.53497037814076"><ele>162.0</ele><time>2026-04-03T16:48:54Z</time></trkpt><trkpt lat="40.317322078007976" lon="9.53511027420826"><ele>162.0</ele><time>2026-04-03T16:48:55Z</time></trkpt><trkpt lat="40.31743642446961" lon="9.535251345910671"><ele>162.0</ele><time>2026-04-03T16:48:56Z</time></trkpt><trkpt lat="40.31755307053902" lon="9.535400952608153"><ele>162.0</ele><time>2026-04-03T16:48:57Z</time></trkpt><trkpt lat="40.317670924521245" lon="9.535545447862782"><ele>165.0</ele><time>2026-04-03T16:48:58Z</time></trkpt><trkpt lat="40.31779211767439" lon="9.53568520815599"><ele>168.0</ele><time>2026-04-03T16:48:59Z</time></trkpt><trkpt lat="40.31792268980165" lon="9.53582136403296"><ele>171.0</ele><time>2026-04-03T16:49:00Z</time></trkpt><trkpt lat="40.318064340445034" lon="9.53592572790264"><ele>169.66666666666666</ele><time>2026-04-03T16:49:01Z</time></trkpt><trkpt lat="40.318225603315646" lon="9.535977237119118"><ele>168.33333333333331</ele><time>2026-04-03T16:49:02Z</time></trkpt><trkpt lat="40.318396410057" lon="9.535983981375365"><ele>167.0</ele><time>2026-04-03T16:49:03Z</time></trkpt><trkpt lat="40.31856559983454" lon="9.535964064447326"><ele>167.0</ele><time>2026-04-03T16:49:04Z</time></trkpt><trkpt lat="40.31873083692458" lon="9.53593879176967"><ele>167.0</ele><time>2026-04-03T16:49:05Z</time></trkpt><trkpt lat="40.31888446445923" lon="9.535923058200474"><ele>167.0</ele><time>2026-04-03T16:49:06Z</time></trkpt><trkpt lat="40.319021373927384" lon="9.5358864097157"><ele>168.33333333333331</ele><time>2026-04-03T16:49:07Z</time></trkpt><trkpt lat="40.319135449198605" lon="9.535782730588812"><ele>169.66666666666666</ele><time>2026-04-03T16:49:08Z</time></trkpt><trkpt lat="40.3192214679819" lon="9.53560867103739"><ele>171.0</ele><time>2026-04-03T16:49:09Z</time></trkpt><trkpt lat="40.31928615754896" lon="9.535426232203857"><ele>171.0</ele><time>2026-04-03T16:49:10Z</time></trkpt><trkpt lat="40.31935350138735" lon="9.535244627663705"><ele>171.0</ele><time>2026-04-03T16:49:11Z</time></trkpt><trkpt lat="40.3194314092141" lon="9.5350695748964"><ele>171.0</ele><time>2026-04-03T16:49:12Z</time></trkpt><trkpt lat="40.319510926646295" lon="9.534896716399121"><ele>171.0</ele><time>2026-04-03T16:49:13Z</time></trkpt><trkpt lat="40.3195862032054" lon="9.534729282016407"><ele>171.0</ele><time>2026-04-03T16:49:14Z</time></trkpt><trkpt lat="40.319661041592845" lon="9.534582652955944"><ele>171.0</ele><time>2026-04-03T16:49:15Z</time></trkpt><trkpt lat="40.31974666241077" lon="9.534462145290801"><ele>171.0</ele><time>2026-04-03T16:49:16Z</time></trkpt><trkpt lat="40.31985917502143" lon="9.534377288296104"><ele>171.5</ele><time>2026-04-03T16:49:17Z</time></trkpt><trkpt lat="40.31998898167972" lon="9.534350347608724"><ele>172.0</ele><time>2026-04-03T16:49:18Z</time></trkpt><trkpt lat="40.320120663517834" lon="9.534393186758356"><ele>172.5</ele><time>2026-04-03T16:49:19Z</time></trkpt><trkpt lat="40.32025272116306" lon="9.53449354331376"><ele>173.0</ele><time>2026-04-03T16:49:20Z</time></trkpt><trkpt lat="40.32039270382333" lon="9.53458360690248"><ele>174.0</ele><time>2026-04-03T16:49:21Z</time></trkpt><trkpt lat="40.320540557238985" lon="9.534660729472984"><ele>175.0</ele><time>2026-04-03T16:49:22Z</time></trkpt><trkpt lat="40.32069162150081" lon="9.53473095707213"><ele>176.0</ele><time>2026-04-03T16:49:23Z</time></trkpt><trkpt lat="40.32084145048385" lon="9.53480442474886"><ele>177.0</ele><time>2026-04-03T16:49:24Z</time></trkpt><trkpt lat="40.32098764772924" lon="9.53488922815545"><ele>178.0</ele><time>2026-04-03T16:49:25Z</time></trkpt><trkpt lat="40.32111859763759" lon="9.534994037919384"><ele>179.0</ele><time>2026-04-03T16:49:26Z</time></trkpt><trkpt lat="40.321234815871236" lon="9.5351337511925"><ele>179.0</ele><time>2026-04-03T16:49:27Z</time></trkpt><trkpt lat="40.32135532334193" lon="9.535251201280465"><ele>179.0</ele><time>2026-04-03T16:49:28Z</time></trkpt><trkpt lat="40.32150545466296" lon="9.535292742180165"><ele>179.0</ele><time>2026-04-03T16:49:29Z</time></trkpt><trkpt lat="40.32166164126929" lon="9.535257354014458"><ele>180.33333333333331</ele><time>2026-04-03T16:49:30Z</time></trkpt><trkpt lat="40.32180261401311" lon="9.535179618071014"><ele>181.66666666666666</ele><time>2026-04-03T16:49:31Z</time></trkpt><trkpt lat="40.32191556737403" lon="9.535049981996659"><ele>183.0</ele><time>2026-04-03T16:49:32Z</time></trkpt><trkpt lat="40.32199278796724" lon="9.534883535581384"><ele>183.0</ele><time>2026-04-03T16:49:33Z</time></trkpt><trkpt lat="40.32205252781069" lon="9.53469981233145"><ele>183.0</ele><time>2026-04-03T16:49:34Z</time></trkpt><trkpt lat="40.32212754127098" lon="9.534543738140256"><ele>183.0</ele><time>2026-04-03T16:49:35Z</time></trkpt><trkpt lat="40.32223572118024" lon="9.534411223455962"><ele>183.0</ele><time>2026-04-03T16:49:36Z</time></trkpt><trkpt lat="40.3223690444024" lon="9.534318383015627"><ele>183.33333333333334</ele><time>2026-04-03T16:49:37Z</time></trkpt><trkpt lat="40.32251475830744" lon="9.534279091816048"><ele>183.66666666666669</ele><time>2026-04-03T16:49:38Z</time></trkpt><trkpt lat="40.32266752964263" lon="9.53429327269881"><ele>184.0</ele><time>2026-04-03T16:49:39Z</time></trkpt><trkpt lat="40.32281863955219" lon="9.53433853475743"><ele>184.0</ele><time>2026-04-03T16:49:40Z</time></trkpt><trkpt lat="40.322972596074315" lon="9.534378366462764"><ele>184.0</ele><time>2026-04-03T16:49:41Z</time></trkpt><trkpt lat="40.32313471465722" lon="9.53439951048335"><ele>184.0</ele><time>2026-04-03T16:49:42Z</time></trkpt><trkpt lat="40.32330149711572" lon="9.534418894360403"><ele>184.33333333333334</ele><time>2026-04-03T16:49:43Z</time></trkpt><trkpt lat="40.32346918014003" lon="9.53443267596893"><ele>184.66666666666666</ele><time>2026-04-03T16:49:44Z</time></trkpt><trkpt lat="40.323641223292505" lon="9.534457741549394"><ele>185.0</ele><time>2026-04-03T16:49:45Z</time></trkpt><trkpt lat="40.3238152611394" lon="9.5344811274824"><ele>185.66666666666666</ele><time>2026-04-03T16:49:46Z</time></trkpt><trkpt lat="40.323994617340816" lon="9.534502739073288"><ele>186.33333333333334</ele><time>2026-04-03T16:49:47Z</time></trkpt><trkpt lat="40.32417465891121" lon="9.534529954227978"><ele>187.0</ele><time>2026-04-03T16:49:48Z</time></trkpt><trkpt lat="40.32435616712633" lon="9.534551669025866"><ele>187.0</ele><time>2026-04-03T16:49:49Z</time></trkpt><trkpt lat="40.3245385614314" lon="9.534576396667465"><ele>187.0</ele><time>2026-04-03T16:49:50Z</time></trkpt><trkpt lat="40.32472406999821" lon="9.53460188535469"><ele>187.0</ele><time>2026-04-03T16:49:51Z</time></trkpt><trkpt lat="40.324913179724" lon="9.534627503132684"><ele>187.0</ele><time>2026-04-03T16:49:52Z</time></trkpt><trkpt lat="40.325101533215594" lon="9.534643501268025"><ele>187.0</ele><time>2026-04-03T16:49:53Z</time></trkpt><trkpt lat="40.325293183968974" lon="9.53464045426447"><ele>187.0</ele><time>2026-04-03T16:49:54Z</time></trkpt><trkpt lat="40.32548832294053" lon="9.53461576425216"><ele>187.33333333333334</ele><time>2026-04-03T16:49:55Z</time></trkpt><trkpt lat="40.325678555942936" lon="9.53456450557555"><ele>187.66666666666666</ele><time>2026-04-03T16:49:56Z</time></trkpt><trkpt lat="40.3258683481497" lon="9.534483075767616"><ele>188.0</ele><time>2026-04-03T16:49:57Z</time></trkpt><trkpt lat="40.326042367003645" lon="9.534366530818808"><ele>188.33333333333331</ele><time>2026-04-03T16:49:58Z</time></trkpt><trkpt lat="40.3262179704957" lon="9.534235154605861"><ele>188.66666666666666</ele><time>2026-04-03T16:49:59Z</time></trkpt><trkpt lat="40.32638486240644" lon="9.534086905700104"><ele>189.0</ele><time>2026-04-03T16:50:00Z</time></trkpt><trkpt lat="40.32654640175027" lon="9.533929935709498"><ele>188.33333333333334</ele><time>2026-04-03T16:50:01Z</time></trkpt><trkpt lat="40.32671215260972" lon="9.53377837390949"><ele>187.66666666666669</ele><time>2026-04-03T16:50:02Z</time></trkpt><trkpt lat="40.32688196172839" lon="9.533623792189694"><ele>187.0</ele><time>2026-04-03T16:50:03Z</time></trkpt><trkpt lat="40.32705011945154" lon="9.533471634779199"><ele>187.0</ele><time>2026-04-03T16:50:04Z</time></trkpt><trkpt lat="40.32722344646224" lon="9.533320543268477"><ele>187.0</ele><time>2026-04-03T16:50:05Z</time></trkpt><trkpt lat="40.32738830740689" lon="9.533169948330169"><ele>187.0</ele><time>2026-04-03T16:50:06Z</time></trkpt><trkpt lat="40.32755297684718" lon="9.5330205044137"><ele>187.0</ele><time>2026-04-03T16:50:07Z</time></trkpt><trkpt lat="40.32772325186857" lon="9.53288247651349"><ele>187.0</ele><time>2026-04-03T16:50:08Z</time></trkpt><trkpt lat="40.32790145094583" lon="9.53276262949462"><ele>187.0</ele><time>2026-04-03T16:50:09Z</time></trkpt><trkpt lat="40.32808728790072" lon="9.532662968652653"><ele>186.66666666666669</ele><time>2026-04-03T16:50:10Z</time></trkpt><trkpt lat="40.32828541949651" lon="9.532596005141295"><ele>186.33333333333334</ele><time>2026-04-03T16:50:11Z</time></trkpt><trkpt lat="40.32848147511255" lon="9.53253271131574"><ele>186.0</ele><time>2026-04-03T16:50:12Z</time></trkpt><trkpt lat="40.32867786722347" lon="9.532468231335312"><ele>186.0</ele><time>2026-04-03T16:50:13Z</time></trkpt><trkpt lat="40.328875455838215" lon="9.532403068718175"><ele>186.0</ele><time>2026-04-03T16:50:14Z</time></trkpt><trkpt lat="40.32907324485571" lon="9.53233836055758"><ele>186.0</ele><time>2026-04-03T16:50:15Z</time></trkpt><trkpt lat="40.329263375521926" lon="9.53227552911999"><ele>186.33333333333334</ele><time>2026-04-03T16:50:16Z</time></trkpt><trkpt lat="40.3294522839654" lon="9.532216065723622"><ele>186.66666666666669</ele><time>2026-04-03T16:50:17Z</time></trkpt><trkpt lat="40.32963594306951" lon="9.532153768468657"><ele>187.0</ele><time>2026-04-03T16:50:18Z</time></trkpt><trkpt lat="40.329814496950945" lon="9.532095380110963"><ele>187.66666666666669</ele><time>2026-04-03T16:50:19Z</time></trkpt><trkpt lat="40.329990807839536" lon="9.532041519044506"><ele>188.33333333333334</ele><time>2026-04-03T16:50:20Z</time></trkpt><trkpt lat="40.33016665813008" lon="9.531984884063545"><ele>189.0</ele><time>2026-04-03T16:50:21Z</time></trkpt><trkpt lat="40.33033641441756" lon="9.531932285245045"><ele>189.0</ele><time>2026-04-03T16:50:22Z</time></trkpt><trkpt lat="40.33050891851457" lon="9.5318806255228"><ele>189.0</ele><time>2026-04-03T16:50:23Z</time></trkpt><trkpt lat="40.33067503648977" lon="9.531824557546072"><ele>189.0</ele><time>2026-04-03T16:50:24Z</time></trkpt><trkpt lat="40.33084680264974" lon="9.531768122874773"><ele>188.66666666666666</ele><time>2026-04-03T16:50:25Z</time></trkpt><trkpt lat="40.33101727643039" lon="9.53171432150654"><ele>188.33333333333331</ele><time>2026-04-03T16:50:26Z</time></trkpt><trkpt lat="40.331184748762055" lon="9.53166691017558"><ele>188.0</ele><time>2026-04-03T16:50:27Z</time></trkpt><trkpt lat="40.33135813988685" lon="9.531619359380201"><ele>188.33333333333331</ele><time>2026-04-03T16:50:28Z</time></trkpt><trkpt lat="40.33153181209846" lon="9.531566575598108"><ele>188.66666666666666</ele><time>2026-04-03T16:50:29Z</time></trkpt><trkpt lat="40.33170936857836" lon="9.53151318839509"><ele>189.0</ele><time>2026-04-03T16:50:30Z</time></trkpt><trkpt lat="40.3318813510064" lon="9.531465509417895"><ele>189.0</ele><time>2026-04-03T16:50:31Z</time></trkpt><trkpt lat="40.33205351481458" lon="9.531416035323987"><ele>189.0</ele><time>2026-04-03T16:50:32Z</time></trkpt><trkpt lat="40.33222776327372" lon="9.531369678905929"><ele>189.0</ele><time>2026-04-03T16:50:33Z</time></trkpt><trkpt lat="40.33239991177929" lon="9.531321180472649"><ele>188.66666666666666</ele><time>2026-04-03T16:50:34Z</time></trkpt><trkpt lat="40.33257254074842" lon="9.531273238181248"><ele>188.33333333333331</ele><time>2026-04-03T16:50:35Z</time></trkpt><trkpt lat="40.33274691400782" lon="9.531225007957662"><ele>188.0</ele><time>2026-04-03T16:50:36Z</time></trkpt><trkpt lat="40.33292075048459" lon="9.531177097399915"><ele>187.0</ele><time>2026-04-03T16:50:37Z</time></trkpt><trkpt lat="40.33308773175378" lon="9.53112757027431"><ele>186.0</ele><time>2026-04-03T16:50:38Z</time></trkpt><trkpt lat="40.33324621426806" lon="9.531084896677493"><ele>185.0</ele><time>2026-04-03T16:50:39Z</time></trkpt><trkpt lat="40.3333914386904" lon="9.531034626651582"><ele>185.0</ele><time>2026-04-03T16:50:40Z</time></trkpt><trkpt lat="40.33352196829032" lon="9.530997218806114"><ele>185.0</ele><time>2026-04-03T16:50:41Z</time></trkpt><trkpt lat="40.3336421112392" lon="9.530959933075476"><ele>185.0</ele><time>2026-04-03T16:50:42Z</time></trkpt><trkpt lat="40.33373622052954" lon="9.530939600410175"><ele>185.0</ele><time>2026-04-03T16:50:43Z</time></trkpt><trkpt lat="40.33381257611867" lon="9.530922884906857"><ele>185.0</ele><time>2026-04-03T16:50:44Z</time></trkpt><trkpt lat="40.33389150048082" lon="9.53089872151257"><ele>184.66666666666666</ele><time>2026-04-03T16:50:46Z</time></trkpt><trkpt lat="40.33397498500032" lon="9.5308953318261"><ele>184.33333333333331</ele><time>2026-04-03T16:50:49Z</time></trkpt><trkpt lat="40.33403347090264" lon="9.530948284817379"><ele>184.0</ele><time>2026-04-03T16:50:51Z</time></trkpt><trkpt lat="40.33407874599009" lon="9.531036301738482"><ele>183.66666666666666</ele><time>2026-04-03T16:50:53Z</time></trkpt><trkpt lat="40.3341255517447" lon="9.531131101567363"><ele>183.33333333333334</ele><time>2026-04-03T16:50:55Z</time></trkpt><trkpt lat="40.334191116277275" lon="9.531220026409866"><ele>183.0</ele><time>2026-04-03T16:50:57Z</time></trkpt><trkpt lat="40.334274148107255" lon="9.53130704982381"><ele>183.0</ele><time>2026-04-03T16:50:59Z</time></trkpt><trkpt lat="40.33433796732374" lon="9.531383321598748"><ele>183.0</ele><time>2026-04-03T16:51:01Z</time></trkpt><trkpt lat="40.33441211392623" lon="9.531463295579405"><ele>183.0</ele><time>2026-04-03T16:51:03Z</time></trkpt><trkpt lat="40.334503093362464" lon="9.531538989228501"><ele>183.0</ele><time>2026-04-03T16:51:05Z</time></trkpt><trkpt lat="40.334595265938525" lon="9.531608005802084"><ele>183.0</ele><time>2026-04-03T16:51:07Z</time></trkpt><trkpt lat="40.334681097705456" lon="9.531666502185388"><ele>182.4</ele><time>2026-04-03T16:51:09Z</time></trkpt><trkpt lat="40.334779480873934" lon="9.531752999919462"><ele>181.8</ele><time>2026-04-03T16:51:11Z</time></trkpt><trkpt lat="40.334841895341654" lon="9.531852668088517"><ele>181.2</ele><time>2026-04-03T16:51:13Z</time></trkpt><trkpt lat="40.33488008180999" lon="9.531975051989454"><ele>180.6</ele><time>2026-04-03T16:51:15Z</time></trkpt><trkpt lat="40.3349094228109" lon="9.53205010837703"><ele>180.0</ele><time>2026-04-03T16:51:16Z</time></trkpt><trkpt lat="40.334942218335314" lon="9.532132794320331"><ele>180.0</ele><time>2026-04-03T16:51:17Z</time></trkpt><trkpt lat="40.3349721789304" lon="9.532216317402996"><ele>180.0</ele><time>2026-04-03T16:51:18Z</time></trkpt><trkpt lat="40.335002088176196" lon="9.532310165535065"><ele>180.0</ele><time>2026-04-03T16:51:19Z</time></trkpt><trkpt lat="40.33501804507741" lon="9.532405289553322"><ele>180.0</ele><time>2026-04-03T16:51:20Z</time></trkpt><trkpt lat="40.33503056357291" lon="9.532498277538254"><ele>180.0</ele><time>2026-04-03T16:51:21Z</time></trkpt><trkpt lat="40.33503063014178" lon="9.532583388439505"><ele>180.0</ele><time>2026-04-03T16:51:22Z</time></trkpt><trkpt lat="40.33505759196369" lon="9.532733780809066"><ele>180.0</ele><time>2026-04-03T16:51:24Z</time></trkpt><trkpt lat="40.335095694350976" lon="9.532813321758125"><ele>180.0</ele><time>2026-04-03T16:51:25Z</time></trkpt><trkpt lat="40.335153823966806" lon="9.532891528312199"><ele>180.0</ele><time>2026-04-03T16:51:25.999Z</time></trkpt><trkpt lat="40.33521791405346" lon="9.532965865760845"><ele>180.0</ele><time>2026-04-03T16:51:26.999Z</time></trkpt><trkpt lat="40.33528366636528" lon="9.533042202536407"><ele>180.0</ele><time>2026-04-03T16:51:27.999Z</time></trkpt><trkpt lat="40.33534150568029" lon="9.533105565479213"><ele>180.0</ele><time>2026-04-03T16:51:28.999Z</time></trkpt><trkpt lat="40.33539394244679" lon="9.533169701967225"><ele>180.0</ele><time>2026-04-03T16:51:29.999Z</time></trkpt><trkpt lat="40.335437821030034" lon="9.5332297957332"><ele>180.0</ele><time>2026-04-03T16:51:30.999Z</time></trkpt><trkpt lat="40.33548279398391" lon="9.53329079922439"><ele>180.0</ele><time>2026-04-03T16:51:31.999Z</time></trkpt><trkpt lat="40.33553777401009" lon="9.533354208581772"><ele>180.0</ele><time>2026-04-03T16:51:32.999Z</time></trkpt><trkpt lat="40.33559956208133" lon="9.533423444837561"><ele>180.0</ele><time>2026-04-03T16:51:33.999Z</time></trkpt><trkpt lat="40.33565696560324" lon="9.533512226937606"><ele>180.0</ele><time>2026-04-03T16:51:34.999Z</time></trkpt><trkpt lat="40.33570402642444" lon="9.533618810777886"><ele>179.16666666666666</ele><time>2026-04-03T16:51:35.999Z</time></trkpt><trkpt lat="40.3357516670118" lon="9.53371146240826"><ele>178.33333333333334</ele><time>2026-04-03T16:51:36.999Z</time></trkpt><trkpt lat="40.33579722345042" lon="9.533793392902615"><ele>177.5</ele><time>2026-04-03T16:51:37.999Z</time></trkpt><trkpt lat="40.33583879583815" lon="9.533866464521145"><ele>176.66666666666669</ele><time>2026-04-03T16:51:38.999Z</time></trkpt><trkpt lat="40.33587625226518" lon="9.533937684050656"><ele>175.83333333333334</ele><time>2026-04-03T16:51:39.999Z</time></trkpt><trkpt lat="40.335951518307105" lon="9.534052026338042"><ele>175.0</ele><time>2026-04-03T16:51:41.999Z</time></trkpt><trkpt lat="40.33603273677325" lon="9.534179472349875"><ele>175.0</ele><time>2026-04-03T16:51:43.999Z</time></trkpt><trkpt lat="40.33606918999061" lon="9.534253255253992"><ele>175.0</ele><time>2026-04-03T16:51:44.999Z</time></trkpt><trkpt lat="40.336112631620544" lon="9.534317369590282"><ele>175.0</ele><time>2026-04-03T16:51:45.999Z</time></trkpt><trkpt lat="40.33618347364468" lon="9.534422211716338"><ele>175.0</ele><time>2026-04-03T16:51:47.999Z</time></trkpt><trkpt lat="40.336254673053666" lon="9.534549720739829"><ele>175.0</ele><time>2026-04-03T16:51:49.999Z</time></trkpt><trkpt lat="40.336300956333574" lon="9.534615085087733"><ele>175.0</ele><time>2026-04-03T16:51:50.999Z</time></trkpt><trkpt lat="40.3363442629937" lon="9.534682881429697"><ele>175.16666666666669</ele><time>2026-04-03T16:51:51.999Z</time></trkpt><trkpt lat="40.33638577032147" lon="9.534762774285209"><ele>175.33333333333334</ele><time>2026-04-03T16:51:52.999Z</time></trkpt><trkpt lat="40.33641542684684" lon="9.534846645649422"><ele>175.5</ele><time>2026-04-03T16:51:53.999Z</time></trkpt><trkpt lat="40.33644131173384" lon="9.534940637414495"><ele>175.66666666666666</ele><time>2026-04-03T16:51:54.999Z</time></trkpt><trkpt lat="40.33646928195216" lon="9.535036334737237"><ele>175.83333333333331</ele><time>2026-04-03T16:51:55.999Z</time></trkpt><trkpt lat="40.33650093923644" lon="9.535129627519476"><ele>176.0</ele><time>2026-04-03T16:51:57Z</time></trkpt><trkpt lat="40.33655387299423" lon="9.535237402139943"><ele>176.0</ele><time>2026-04-03T16:51:59Z</time></trkpt><trkpt lat="40.336591592136166" lon="9.535306039711202"><ele>176.0</ele><time>2026-04-03T16:52:02Z</time></trkpt><trkpt lat="40.33664013087781" lon="9.535392343281806"><ele>176.0</ele><time>2026-04-03T16:52:05Z</time></trkpt><trkpt lat="40.33668564466843" lon="9.535480989298723"><ele>176.0</ele><time>2026-04-03T16:52:07Z</time></trkpt><trkpt lat="40.3367475083452" lon="9.535572220170641"><ele>176.0</ele><time>2026-04-03T16:52:09Z</time></trkpt><trkpt lat="40.33679327905586" lon="9.535674789487606"><ele>176.0</ele><time>2026-04-03T16:52:11Z</time></trkpt><trkpt lat="40.33685270762171" lon="9.535812037400133"><ele>176.14285714285714</ele><time>2026-04-03T16:52:13Z</time></trkpt><trkpt lat="40.33688656962638" lon="9.53588360287351"><ele>176.28571428571428</ele><time>2026-04-03T16:52:14Z</time></trkpt><trkpt lat="40.33691997590356" lon="9.535960295871146"><ele>176.42857142857144</ele><time>2026-04-03T16:52:15Z</time></trkpt><trkpt lat="40.33695314709055" lon="9.53603499166251"><ele>176.57142857142856</ele><time>2026-04-03T16:52:16Z</time></trkpt><trkpt lat="40.336988747798834" lon="9.536107331365839"><ele>176.7142857142857</ele><time>2026-04-03T16:52:17Z</time></trkpt><trkpt lat="40.33702216637084" lon="9.536179264252793"><ele>176.85714285714286</ele><time>2026-04-03T16:52:18Z</time></trkpt><trkpt lat="40.33705882011227" lon="9.53625123999809"><ele>177.0</ele><time>2026-04-03T16:52:19Z</time></trkpt><trkpt lat="40.337095427540426" lon="9.536327306701827"><ele>177.39999999999998</ele><time>2026-04-03T16:52:20Z</time></trkpt><trkpt lat="40.337135394978986" lon="9.53639512371791"><ele>177.79999999999998</ele><time>2026-04-03T16:52:21Z</time></trkpt><trkpt lat="40.33721912748968" lon="9.53650753876077"><ele>178.2</ele><time>2026-04-03T16:52:23Z</time></trkpt><trkpt lat="40.337307461982746" lon="9.536621598788692"><ele>178.6</ele><time>2026-04-03T16:52:25Z</time></trkpt><trkpt lat="40.33736786736494" lon="9.5366829660851"><ele>179.0</ele><time>2026-04-03T16:52:26Z</time></trkpt><trkpt lat="40.33741652154493" lon="9.536754018289509"><ele>178.5</ele><time>2026-04-03T16:52:27Z</time></trkpt><trkpt lat="40.33745217172058" lon="9.536830715503665"><ele>178.0</ele><time>2026-04-03T16:52:28Z</time></trkpt><trkpt lat="40.33749222103261" lon="9.536898551928587"><ele>177.5</ele><time>2026-04-03T16:52:29Z</time></trkpt><trkpt lat="40.337578833953536" lon="9.537014847077165"><ele>177.0</ele><time>2026-04-03T16:52:31Z</time></trkpt><trkpt lat="40.337633481688606" lon="9.537063780589223"><ele>176.5</ele><time>2026-04-03T16:52:32Z</time></trkpt><trkpt lat="40.33770052652062" lon="9.537106810371863"><ele>176.0</ele><time>2026-04-03T16:52:33Z</time></trkpt><trkpt lat="40.33776816640717" lon="9.53714718002413"><ele>176.0</ele><time>2026-04-03T16:52:34Z</time></trkpt><trkpt lat="40.33783243845598" lon="9.537183314107763"><ele>176.0</ele><time>2026-04-03T16:52:35Z</time></trkpt><trkpt lat="40.337895264131525" lon="9.537217726970388"><ele>176.0</ele><time>2026-04-03T16:52:36Z</time></trkpt><trkpt lat="40.33796398082628" lon="9.537269448831777"><ele>176.0</ele><time>2026-04-03T16:52:37Z</time></trkpt><trkpt lat="40.33803578256581" lon="9.537329602641211"><ele>176.0</ele><time>2026-04-03T16:52:38Z</time></trkpt><trkpt lat="40.33809827143424" lon="9.537403689612702"><ele>176.0</ele><time>2026-04-03T16:52:39Z</time></trkpt><trkpt lat="40.338166959515135" lon="9.537477375294628"><ele>175.83333333333331</ele><time>2026-04-03T16:52:40Z</time></trkpt><trkpt lat="40.33823140365862" lon="9.537559674628298"><ele>175.66666666666666</ele><time>2026-04-03T16:52:41Z</time></trkpt><trkpt lat="40.338294133675696" lon="9.537643513419622"><ele>175.5</ele><time>2026-04-03T16:52:42Z</time></trkpt><trkpt lat="40.338350500520555" lon="9.537725227436624"><ele>175.33333333333334</ele><time>2026-04-03T16:52:43Z</time></trkpt><trkpt lat="40.338422141938295" lon="9.537794597477356"><ele>175.16666666666669</ele><time>2026-04-03T16:52:44Z</time></trkpt><trkpt lat="40.338487821029794" lon="9.53786443119965"><ele>175.0</ele><time>2026-04-03T16:52:45Z</time></trkpt><trkpt lat="40.33856268826968" lon="9.537929224828575"><ele>175.0</ele><time>2026-04-03T16:52:46Z</time></trkpt><trkpt lat="40.33863424562694" lon="9.537986102164728"><ele>175.0</ele><time>2026-04-03T16:52:47Z</time></trkpt><trkpt lat="40.33870502986613" lon="9.538047099344032"><ele>175.0</ele><time>2026-04-03T16:52:48Z</time></trkpt><trkpt lat="40.33877363758467" lon="9.5381061096769"><ele>175.0</ele><time>2026-04-03T16:52:49Z</time></trkpt><trkpt lat="40.338848810840915" lon="9.538164515048695"><ele>175.0</ele><time>2026-04-03T16:52:50Z</time></trkpt><trkpt lat="40.33892388929756" lon="9.53823016264757"><ele>175.0</ele><time>2026-04-03T16:52:51Z</time></trkpt><trkpt lat="40.33898977913859" lon="9.538294129269604"><ele>173.6</ele><time>2026-04-03T16:52:52Z</time></trkpt><trkpt lat="40.33906273251496" lon="9.538368039194706"><ele>172.2</ele><time>2026-04-03T16:52:53Z</time></trkpt><trkpt lat="40.339138126018476" lon="9.538438961870042"><ele>170.8</ele><time>2026-04-03T16:52:54Z</time></trkpt><trkpt lat="40.339210845693714" lon="9.538513133598299"><ele>169.4</ele><time>2026-04-03T16:52:55Z</time></trkpt><trkpt lat="40.33928651491905" lon="9.538587337567158"><ele>168.0</ele><time>2026-04-03T16:52:56Z</time></trkpt><trkpt lat="40.33936063182008" lon="9.538667377703739"><ele>168.16666666666666</ele><time>2026-04-03T16:52:57Z</time></trkpt><trkpt lat="40.33943056420685" lon="9.538739268788767"><ele>168.33333333333334</ele><time>2026-04-03T16:52:58Z</time></trkpt><trkpt lat="40.33948981490475" lon="9.538790566454123"><ele>168.5</ele><time>2026-04-03T16:52:59Z</time></trkpt><trkpt lat="40.339545660841296" lon="9.538842906114422"><ele>168.66666666666669</ele><time>2026-04-03T16:53:00Z</time></trkpt><trkpt lat="40.33959831389201" lon="9.538892304730041"><ele>168.83333333333334</ele><time>2026-04-03T16:53:01Z</time></trkpt><trkpt lat="40.33970117572813" lon="9.53898450118477"><ele>169.0</ele><time>2026-04-03T16:53:03Z</time></trkpt><trkpt lat="40.339758622246066" lon="9.539029682930483"><ele>169.0</ele><time>2026-04-03T16:53:04Z</time></trkpt><trkpt lat="40.33981240389512" lon="9.539081346507222"><ele>169.0</ele><time>2026-04-03T16:53:05Z</time></trkpt><trkpt lat="40.33986943847494" lon="9.539125921428328"><ele>169.0</ele><time>2026-04-03T16:53:06Z</time></trkpt><trkpt lat="40.3399262316608" lon="9.539171343044027"><ele>169.0</ele><time>2026-04-03T16:53:07Z</time></trkpt><trkpt lat="40.33998563606736" lon="9.53922185376475"><ele>169.0</ele><time>2026-04-03T16:53:08Z</time></trkpt><trkpt lat="40.34004747806202" lon="9.539273070372959"><ele>169.0</ele><time>2026-04-03T16:53:09Z</time></trkpt><trkpt lat="40.34010769161408" lon="9.539320329099723"><ele>169.0</ele><time>2026-04-03T16:53:10Z</time></trkpt><trkpt lat="40.340163368199164" lon="9.539367719149405"><ele>169.0</ele><time>2026-04-03T16:53:11Z</time></trkpt><trkpt lat="40.340222256642306" lon="9.539408744513436"><ele>169.0</ele><time>2026-04-03T16:53:12Z</time></trkpt><trkpt lat="40.3402811128496" lon="9.539451290853135"><ele>169.0</ele><time>2026-04-03T16:53:13Z</time></trkpt><trkpt lat="40.34033905901287" lon="9.539485576858743"><ele>169.0</ele><time>2026-04-03T16:53:14Z</time></trkpt><trkpt lat="40.34040033699329" lon="9.539517897463039"><ele>169.0</ele><time>2026-04-03T16:53:15Z</time></trkpt><trkpt lat="40.34051358122029" lon="9.539569494832913"><ele>169.0</ele><time>2026-04-03T16:53:17Z</time></trkpt><trkpt lat="40.340626659460725" lon="9.539615322727185"><ele>169.0</ele><time>2026-04-03T16:53:19Z</time></trkpt><trkpt lat="40.34069107491968" lon="9.539633130611362"><ele>169.0</ele><time>2026-04-03T16:53:20Z</time></trkpt><trkpt lat="40.34076100423252" lon="9.539649002579143"><ele>169.0</ele><time>2026-04-03T16:53:21Z</time></trkpt><trkpt lat="40.34083501140687" lon="9.53965858095838"><ele>169.0</ele><time>2026-04-03T16:53:22Z</time></trkpt><trkpt lat="40.34090622615278" lon="9.539667051792907"><ele>169.0</ele><time>2026-04-03T16:53:23Z</time></trkpt><trkpt lat="40.34098317611771" lon="9.539670815480783"><ele>169.0</ele><time>2026-04-03T16:53:24Z</time></trkpt><trkpt lat="40.3410623728906" lon="9.539674932218352"><ele>169.0</ele><time>2026-04-03T16:53:25Z</time></trkpt><trkpt lat="40.341140013905374" lon="9.539675802819303"><ele>169.0</ele><time>2026-04-03T16:53:26Z</time></trkpt><trkpt lat="40.341215052101184" lon="9.539658894390097"><ele>169.0</ele><time>2026-04-03T16:53:27Z</time></trkpt><trkpt lat="40.34129051486979" lon="9.539623258371352"><ele>169.0</ele><time>2026-04-03T16:53:28Z</time></trkpt><trkpt lat="40.34136952345131" lon="9.539575082675194"><ele>169.0</ele><time>2026-04-03T16:53:29Z</time></trkpt><trkpt lat="40.34144918843216" lon="9.539520113536714"><ele>169.0</ele><time>2026-04-03T16:53:30Z</time></trkpt><trkpt lat="40.34151624507528" lon="9.539457767087638"><ele>169.0</ele><time>2026-04-03T16:53:31Z</time></trkpt><trkpt lat="40.34157833237033" lon="9.539396082184549"><ele>169.5</ele><time>2026-04-03T16:53:32Z</time></trkpt><trkpt lat="40.34163422173429" lon="9.539332517226327"><ele>170.0</ele><time>2026-04-03T16:53:32.999Z</time></trkpt><trkpt lat="40.34169109711504" lon="9.539266645041785"><ele>170.5</ele><time>2026-04-03T16:53:33.999Z</time></trkpt><trkpt lat="40.341753329791096" lon="9.539207135368578"><ele>171.0</ele><time>2026-04-03T16:53:34.999Z</time></trkpt><trkpt lat="40.34182434057678" lon="9.539160939851074"><ele>171.5</ele><time>2026-04-03T16:53:35.999Z</time></trkpt><trkpt lat="40.34190587518624" lon="9.53912134853034"><ele>172.0</ele><time>2026-04-03T16:53:36.999Z</time></trkpt><trkpt lat="40.34199425406058" lon="9.539083869440763"><ele>172.0</ele><time>2026-04-03T16:53:37.999Z</time></trkpt><trkpt lat="40.342081995711055" lon="9.539044688946396"><ele>172.0</ele><time>2026-04-03T16:53:38.999Z</time></trkpt><trkpt lat="40.342170056546344" lon="9.539006668685609"><ele>172.0</ele><time>2026-04-03T16:53:39.999Z</time></trkpt><trkpt lat="40.34225430702092" lon="9.538963439771058"><ele>172.0</ele><time>2026-04-03T16:53:40.999Z</time></trkpt><trkpt lat="40.34233867119204" lon="9.538922672629612"><ele>172.0</ele><time>2026-04-03T16:53:41.999Z</time></trkpt><trkpt lat="40.34242026615236" lon="9.53888596335567"><ele>172.16666666666669</ele><time>2026-04-03T16:53:42.999Z</time></trkpt><trkpt lat="40.342503199227025" lon="9.538854471538105"><ele>172.33333333333334</ele><time>2026-04-03T16:53:43.999Z</time></trkpt><trkpt lat="40.342585806645275" lon="9.538815956467799"><ele>172.5</ele><time>2026-04-03T16:53:44.999Z</time></trkpt><trkpt lat="40.342670135055" lon="9.538779115723134"><ele>172.66666666666666</ele><time>2026-04-03T16:53:45.999Z</time></trkpt><trkpt lat="40.34275444517521" lon="9.538744810394455"><ele>172.83333333333331</ele><time>2026-04-03T16:53:46.999Z</time></trkpt><trkpt lat="40.34283464516981" lon="9.538712576856968"><ele>173.0</ele><time>2026-04-03T16:53:47.999Z</time></trkpt><trkpt lat="40.34290598250285" lon="9.538688034116735"><ele>173.0</ele><time>2026-04-03T16:53:48.999Z</time></trkpt><trkpt lat="40.34300387289179" lon="9.538670972232408"><ele>173.0</ele><time>2026-04-03T16:53:50.999Z</time></trkpt><trkpt lat="40.34308518174209" lon="9.538692951442293"><ele>173.0</ele><time>2026-04-03T16:53:52.999Z</time></trkpt><trkpt lat="40.34319503718157" lon="9.53875311636246"><ele>173.0</ele><time>2026-04-03T16:53:54.999Z</time></trkpt><trkpt lat="40.34325492799962" lon="9.538799047380326"><ele>173.0</ele><time>2026-04-03T16:53:55.999Z</time></trkpt><trkpt lat="40.34336182728228" lon="9.538855978974691"><ele>173.4</ele><time>2026-04-03T16:53:57.999Z</time></trkpt><trkpt lat="40.343465969313115" lon="9.538896876917196"><ele>173.8</ele><time>2026-04-03T16:53:59.999Z</time></trkpt><trkpt lat="40.34355747446618" lon="9.538941560560202"><ele>174.2</ele><time>2026-04-03T16:54:01.999Z</time></trkpt><trkpt lat="40.34365670686486" lon="9.538965684746628"><ele>174.6</ele><time>2026-04-03T16:54:04Z</time></trkpt><trkpt lat="40.34376533406013" lon="9.538993195752434"><ele>175.0</ele><time>2026-04-03T16:54:06Z</time></trkpt><trkpt lat="40.34388380474386" lon="9.539025162571683"><ele>175.0</ele><time>2026-04-03T16:54:08Z</time></trkpt><trkpt lat="40.3439441578773" lon="9.539054319790727"><ele>175.0</ele><time>2026-04-03T16:54:09Z</time></trkpt><trkpt lat="40.34400834886823" lon="9.539084458868624"><ele>175.0</ele><time>2026-04-03T16:54:10Z</time></trkpt><trkpt lat="40.34407546241952" lon="9.539109717752225"><ele>175.0</ele><time>2026-04-03T16:54:11Z</time></trkpt><trkpt lat="40.344143265668706" lon="9.539130943538993"><ele>175.0</ele><time>2026-04-03T16:54:12Z</time></trkpt><trkpt lat="40.344210445367544" lon="9.539158851370551"><ele>175.0</ele><time>2026-04-03T16:54:13Z</time></trkpt><trkpt lat="40.344272738939196" lon="9.539187648464907"><ele>175.0</ele><time>2026-04-03T16:54:14Z</time></trkpt><trkpt lat="40.34433948967344" lon="9.53920729146707"><ele>175.0</ele><time>2026-04-03T16:54:15Z</time></trkpt><trkpt lat="40.3444053614213" lon="9.539213958873933"><ele>175.0</ele><time>2026-04-03T16:54:16Z</time></trkpt><trkpt lat="40.34447613167791" lon="9.539215634695795"><ele>175.0</ele><time>2026-04-03T16:54:17Z</time></trkpt><trkpt lat="40.344550012873185" lon="9.539206115144115"><ele>175.0</ele><time>2026-04-03T16:54:18Z</time></trkpt><trkpt lat="40.34462045120865" lon="9.539187993763832"><ele>175.0</ele><time>2026-04-03T16:54:19Z</time></trkpt><trkpt lat="40.34469278302014" lon="9.539176531281536"><ele>175.0</ele><time>2026-04-03T16:54:20Z</time></trkpt><trkpt lat="40.344762238183776" lon="9.539168256050576"><ele>175.0</ele><time>2026-04-03T16:54:21Z</time></trkpt><trkpt lat="40.34482960859124" lon="9.539157676455044"><ele>174.8</ele><time>2026-04-03T16:54:22Z</time></trkpt><trkpt lat="40.34494665792461" lon="9.539137672112803"><ele>174.6</ele><time>2026-04-03T16:54:24Z</time></trkpt><trkpt lat="40.34506008787836" lon="9.539109157672419"><ele>174.39999999999998</ele><time>2026-04-03T16:54:26Z</time></trkpt><trkpt lat="40.345122578265304" lon="9.539095995531488"><ele>174.2</ele><time>2026-04-03T16:54:27Z</time></trkpt><trkpt lat="40.345248452982936" lon="9.53906824398124"><ele>174.0</ele><time>2026-04-03T16:54:29Z</time></trkpt><trkpt lat="40.34531203771247" lon="9.539051643744473"><ele>174.0</ele><time>2026-04-03T16:54:30Z</time></trkpt><trkpt lat="40.34541474779244" lon="9.539006299446228"><ele>174.0</ele><time>2026-04-03T16:54:32Z</time></trkpt><trkpt lat="40.345505252391305" lon="9.538950489735512"><ele>174.0</ele><time>2026-04-03T16:54:34Z</time></trkpt><trkpt lat="40.345616039731325" lon="9.538889566248416"><ele>174.0</ele><time>2026-04-03T16:54:36Z</time></trkpt><trkpt lat="40.34567374248492" lon="9.538855930038485"><ele>174.0</ele><time>2026-04-03T16:54:37Z</time></trkpt><trkpt lat="40.34578350620242" lon="9.538793604453696"><ele>174.0</ele><time>2026-04-03T16:54:39Z</time></trkpt><trkpt lat="40.34589124856865" lon="9.538740311084467"><ele>174.0</ele><time>2026-04-03T16:54:41Z</time></trkpt><trkpt lat="40.34598904352656" lon="9.538702423644134"><ele>174.0</ele><time>2026-04-03T16:54:43Z</time></trkpt><trkpt lat="40.34607660687259" lon="9.538657550863022"><ele>174.0</ele><time>2026-04-03T16:54:46Z</time></trkpt><trkpt lat="40.346167659261255" lon="9.53860776734809"><ele>174.0</ele><time>2026-04-03T16:54:48Z</time></trkpt><trkpt lat="40.3462345718489" lon="9.538573303996799"><ele>174.0</ele><time>2026-04-03T16:54:50Z</time></trkpt><trkpt lat="40.34630547680233" lon="9.53853354853878"><ele>174.0</ele><time>2026-04-03T16:54:52Z</time></trkpt><trkpt lat="40.34640155384065" lon="9.538471643562577"><ele>174.0</ele><time>2026-04-03T16:54:54Z</time></trkpt><trkpt lat="40.34646381274186" lon="9.53844895444132"><ele>174.0</ele><time>2026-04-03T16:54:55Z</time></trkpt><trkpt lat="40.34653297277757" lon="9.538420901458208"><ele>174.0</ele><time>2026-04-03T16:54:56Z</time></trkpt><trkpt lat="40.3466021376348" lon="9.538400730300653"><ele>174.0</ele><time>2026-04-03T16:54:57Z</time></trkpt><trkpt lat="40.34666646089241" lon="9.538378482497363"><ele>174.0</ele><time>2026-04-03T16:54:58Z</time></trkpt><trkpt lat="40.34675099996141" lon="9.538336653451399"><ele>174.0</ele><time>2026-04-03T16:55:00Z</time></trkpt><trkpt lat="40.34682611615765" lon="9.53833976747743"><ele>174.0</ele><time>2026-04-03T16:55:02Z</time></trkpt><trkpt lat="40.346899137876704" lon="9.538444424102403"><ele>174.0</ele><time>2026-04-03T16:55:04Z</time></trkpt><trkpt lat="40.34695891265203" lon="9.538586923016444"><ele>174.0</ele><time>2026-04-03T16:55:06Z</time></trkpt><trkpt lat="40.34699353377138" lon="9.538666428407613"><ele>174.79999999999998</ele><time>2026-04-03T16:55:07Z</time></trkpt><trkpt lat="40.347038989377275" lon="9.538805658830675"><ele>175.6</ele><time>2026-04-03T16:55:09Z</time></trkpt><trkpt lat="40.347081891269035" lon="9.53895016335611"><ele>176.4</ele><time>2026-04-03T16:55:11Z</time></trkpt><trkpt lat="40.347101760028806" lon="9.53902959457703"><ele>177.2</ele><time>2026-04-03T16:55:12Z</time></trkpt><trkpt lat="40.34711993058129" lon="9.539116501039116"><ele>178.0</ele><time>2026-04-03T16:55:13Z</time></trkpt><trkpt lat="40.34714857120736" lon="9.539254273969346"><ele>178.0</ele><time>2026-04-03T16:55:15Z</time></trkpt><trkpt lat="40.347148589071566" lon="9.539400218997018"><ele>178.0</ele><time>2026-04-03T16:55:17Z</time></trkpt><trkpt lat="40.34715394379334" lon="9.539528331571375"><ele>178.0</ele><time>2026-04-03T16:55:19Z</time></trkpt><trkpt lat="40.34723622093851" lon="9.53960361278927"><ele>178.0</ele><time>2026-04-03T16:55:21Z</time></trkpt><trkpt lat="40.34734007499681" lon="9.539639607703998"><ele>178.0</ele><time>2026-04-03T16:55:22.999Z</time></trkpt><trkpt lat="40.34741604374213" lon="9.539674678074958"><ele>179.0</ele><time>2026-04-03T16:55:24.999Z</time></trkpt><trkpt lat="40.34751160023035" lon="9.539701760550148"><ele>180.0</ele><time>2026-04-03T16:55:26.999Z</time></trkpt><trkpt lat="40.34758277750822" lon="9.539720152978125"><ele>181.0</ele><time>2026-04-03T16:55:27.999Z</time></trkpt><trkpt lat="40.347659576319685" lon="9.539745810313496"><ele>182.0</ele><time>2026-04-03T16:55:28.999Z</time></trkpt><trkpt lat="40.34773735084664" lon="9.53977017355165"><ele>183.0</ele><time>2026-04-03T16:55:29.999Z</time></trkpt><trkpt lat="40.347818052039635" lon="9.539799924016261"><ele>184.0</ele><time>2026-04-03T16:55:30.999Z</time></trkpt><trkpt lat="40.34788332492671" lon="9.539823434946312"><ele>184.0</ele><time>2026-04-03T16:55:31.999Z</time></trkpt><trkpt lat="40.34799344665519" lon="9.539834405262411"><ele>184.0</ele><time>2026-04-03T16:55:33.999Z</time></trkpt><trkpt lat="40.34807824431607" lon="9.539834545619835"><ele>184.0</ele><time>2026-04-03T16:55:35.999Z</time></trkpt><trkpt lat="40.34816796053685" lon="9.539871845455943"><ele>184.0</ele><time>2026-04-03T16:55:37.999Z</time></trkpt><trkpt lat="40.348215050214776" lon="9.539938360119695"><ele>184.0</ele><time>2026-04-03T16:56:03.999Z</time></trkpt><trkpt lat="40.34827478426909" lon="9.539990694374325"><ele>184.0</ele><time>2026-04-03T16:56:16Z</time></trkpt><trkpt lat="40.34832984972798" lon="9.540043573927408"><ele>184.0</ele><time>2026-04-03T16:56:19Z</time></trkpt><trkpt lat="40.34840869433506" lon="9.54008084828676"><ele>184.0</ele><time>2026-04-03T16:56:21Z</time></trkpt><trkpt lat="40.34850328341176" lon="9.54008324661647"><ele>184.0</ele><time>2026-04-03T16:56:23Z</time></trkpt><trkpt lat="40.34858944426752" lon="9.54008423861475"><ele>184.0</ele><time>2026-04-03T16:56:26Z</time></trkpt><trkpt lat="40.34868348197021" lon="9.5400806789898"><ele>184.0</ele><time>2026-04-03T16:56:29Z</time></trkpt><trkpt lat="40.34876789650955" lon="9.540057419740616"><ele>184.0</ele><time>2026-04-03T16:56:32Z</time></trkpt><trkpt lat="40.34884899881876" lon="9.54004232593461"><ele>183.79999999999998</ele><time>2026-04-03T16:56:34Z</time></trkpt><trkpt lat="40.34892925588938" lon="9.54003568847876"><ele>183.6</ele><time>2026-04-03T16:56:36Z</time></trkpt><trkpt lat="40.34901345369816" lon="9.540028949953829"><ele>183.4</ele><time>2026-04-03T16:56:38Z</time></trkpt><trkpt lat="40.349097379799744" lon="9.540005850243956"><ele>183.2</ele><time>2026-04-03T16:56:40Z</time></trkpt><trkpt lat="40.34920708838537" lon="9.539977156040289"><ele>183.0</ele><time>2026-04-03T16:56:42Z</time></trkpt><trkpt lat="40.34931716923611" lon="9.539955866969803"><ele>183.0</ele><time>2026-04-03T16:56:44Z</time></trkpt><trkpt lat="40.349426951686084" lon="9.539937748645126"><ele>183.0</ele><time>2026-04-03T16:56:46Z</time></trkpt><trkpt lat="40.349511994548934" lon="9.539905963740868"><ele>183.0</ele><time>2026-04-03T16:56:48Z</time></trkpt><trkpt lat="40.34959202230023" lon="9.53987955598411"><ele>183.0</ele><time>2026-04-03T16:56:50Z</time></trkpt><trkpt lat="40.34967746817399" lon="9.539855737741231"><ele>183.0</ele><time>2026-04-03T16:56:52Z</time></trkpt><trkpt lat="40.34977465305956" lon="9.539839430673897"><ele>183.0</ele><time>2026-04-03T16:56:54Z</time></trkpt><trkpt lat="40.349854504858904" lon="9.539796046468107"><ele>183.0</ele><time>2026-04-03T16:56:56Z</time></trkpt><trkpt lat="40.3499306780326" lon="9.53973721632125"><ele>183.0</ele><time>2026-04-03T16:56:58Z</time></trkpt><trkpt lat="40.350015626941214" lon="9.539707607963393"><ele>183.0</ele><time>2026-04-03T16:57:01Z</time></trkpt><trkpt lat="40.35008567354358" lon="9.539681429843425"><ele>183.0</ele><time>2026-04-03T16:57:03Z</time></trkpt><trkpt lat="40.350165099751315" lon="9.539664230401677"><ele>183.0</ele><time>2026-04-03T16:57:05Z</time></trkpt><trkpt lat="40.35024948073835" lon="9.539650587783152"><ele>183.0</ele><time>2026-04-03T16:57:07Z</time></trkpt><trkpt lat="40.35034877312148" lon="9.539621673820422"><ele>183.0</ele><time>2026-04-03T16:57:09Z</time></trkpt><trkpt lat="40.35041769206643" lon="9.539599068672556"><ele>183.0</ele><time>2026-04-03T16:57:10Z</time></trkpt><trkpt lat="40.35050653310476" lon="9.539575941583356"><ele>183.0</ele><time>2026-04-03T16:57:11Z</time></trkpt><trkpt lat="40.35058254297562" lon="9.539555272249638"><ele>183.0</ele><time>2026-04-03T16:57:12Z</time></trkpt><trkpt lat="40.350675778251166" lon="9.53951490485474"><ele>183.0</ele><time>2026-04-03T16:57:14Z</time></trkpt><trkpt lat="40.35072041564752" lon="9.539578878213995"><ele>183.2</ele><time>2026-04-03T16:57:20Z</time></trkpt><trkpt lat="40.35077249345953" lon="9.539665063221959"><ele>183.4</ele><time>2026-04-03T16:57:22Z</time></trkpt><trkpt lat="40.350795830813134" lon="9.539809391949815"><ele>183.6</ele><time>2026-04-03T16:57:24Z</time></trkpt><trkpt lat="40.35081401087632" lon="9.539909841236938"><ele>183.79999999999998</ele><time>2026-04-03T16:57:25Z</time></trkpt><trkpt lat="40.350834288721664" lon="9.540031142704594"><ele>184.0</ele><time>2026-04-03T16:57:26Z</time></trkpt><trkpt lat="40.350861763064394" lon="9.540181678898575"><ele>184.0</ele><time>2026-04-03T16:57:27Z</time></trkpt><trkpt lat="40.35089447306356" lon="9.540355909957306"><ele>184.0</ele><time>2026-04-03T16:57:28Z</time></trkpt><trkpt lat="40.35093151918658" lon="9.540541225782563"><ele>184.0</ele><time>2026-04-03T16:57:29Z</time></trkpt><trkpt lat="40.35097130547761" lon="9.540743602178924"><ele>184.0</ele><time>2026-04-03T16:57:30Z</time></trkpt><trkpt lat="40.35101870190576" lon="9.540972530659614"><ele>184.0</ele><time>2026-04-03T16:57:31Z</time></trkpt><trkpt lat="40.35107055191198" lon="9.541238834577527"><ele>184.0</ele><time>2026-04-03T16:57:32Z</time></trkpt><trkpt lat="40.35112820709064" lon="9.541520876709926"><ele>184.0</ele><time>2026-04-03T16:57:32.999Z</time></trkpt><trkpt lat="40.351180734432035" lon="9.54177477033643"><ele>184.0</ele><time>2026-04-03T16:57:33.999Z</time></trkpt><trkpt lat="40.351230284336125" lon="9.542011572295117"><ele>184.0</ele><time>2026-04-03T16:57:34.999Z</time></trkpt><trkpt lat="40.351267441296145" lon="9.542222553031523"><ele>184.0</ele><time>2026-04-03T16:57:35.999Z</time></trkpt><trkpt lat="40.35130240781317" lon="9.542413013632805"><ele>184.0</ele><time>2026-04-03T16:57:36.999Z</time></trkpt><trkpt lat="40.35133593181714" lon="9.54258623603448"><ele>184.0</ele><time>2026-04-03T16:57:37.999Z</time></trkpt><trkpt lat="40.35136613756161" lon="9.54274921913471"><ele>184.0</ele><time>2026-04-03T16:57:38.999Z</time></trkpt><trkpt lat="40.35139749383763" lon="9.542904353952254"><ele>184.0</ele><time>2026-04-03T16:57:39.999Z</time></trkpt><trkpt lat="40.35142823142192" lon="9.54305479714027"><ele>184.0</ele><time>2026-04-03T16:57:40.999Z</time></trkpt><trkpt lat="40.351457001879616" lon="9.54321153637888"><ele>184.0</ele><time>2026-04-03T16:57:41.999Z</time></trkpt><trkpt lat="40.35149140566039" lon="9.543374678502241"><ele>184.0</ele><time>2026-04-03T16:57:42.999Z</time></trkpt><trkpt lat="40.35152570975027" lon="9.543542991300225"><ele>184.0</ele><time>2026-04-03T16:57:43.999Z</time></trkpt><trkpt lat="40.351558118905736" lon="9.543713168381675"><ele>184.5</ele><time>2026-04-03T16:57:44.999Z</time></trkpt><trkpt lat="40.35159367344929" lon="9.543887748966899"><ele>185.0</ele><time>2026-04-03T16:57:45.999Z</time></trkpt><trkpt lat="40.35162711956461" lon="9.54406522685644"><ele>185.5</ele><time>2026-04-03T16:57:46.999Z</time></trkpt><trkpt lat="40.351663706646185" lon="9.544243599959"><ele>186.0</ele><time>2026-04-03T16:57:47.999Z</time></trkpt><trkpt lat="40.35169977511393" lon="9.5444241645248"><ele>186.0</ele><time>2026-04-03T16:57:48.999Z</time></trkpt><trkpt lat="40.35173494321511" lon="9.544607718482194"><ele>186.0</ele><time>2026-04-03T16:57:49.999Z</time></trkpt><trkpt lat="40.3517697914759" lon="9.544792527479038"><ele>186.0</ele><time>2026-04-03T16:57:50.999Z</time></trkpt><trkpt lat="40.35180950118414" lon="9.54498345055997"><ele>186.0</ele><time>2026-04-03T16:57:51.999Z</time></trkpt><trkpt lat="40.35184858781602" lon="9.545176940997"><ele>186.0</ele><time>2026-04-03T16:57:52.999Z</time></trkpt><trkpt lat="40.35189005784924" lon="9.545373320191862"><ele>186.0</ele><time>2026-04-03T16:57:53.999Z</time></trkpt><trkpt lat="40.351933201507016" lon="9.545575332574964"><ele>186.0</ele><time>2026-04-03T16:57:54.999Z</time></trkpt><trkpt lat="40.35197830173839" lon="9.545783643474426"><ele>185.33333333333334</ele><time>2026-04-03T16:57:55.999Z</time></trkpt><trkpt lat="40.35201928900201" lon="9.546002121162813"><ele>184.66666666666669</ele><time>2026-04-03T16:57:56.999Z</time></trkpt><trkpt lat="40.35206072337622" lon="9.54622836144728"><ele>184.0</ele><time>2026-04-03T16:57:57.999Z</time></trkpt><trkpt lat="40.35210588509294" lon="9.546455085049486"><ele>184.0</ele><time>2026-04-03T16:57:58.999Z</time></trkpt><trkpt lat="40.35215472708313" lon="9.546685650998153"><ele>184.0</ele><time>2026-04-03T16:57:59.999Z</time></trkpt><trkpt lat="40.35220050592104" lon="9.546917536657746"><ele>184.0</ele><time>2026-04-03T16:58:00.999Z</time></trkpt><trkpt lat="40.35224617142184" lon="9.5471550060281"><ele>184.0</ele><time>2026-04-03T16:58:01.999Z</time></trkpt><trkpt lat="40.35229199842668" lon="9.547395615469284"><ele>184.0</ele><time>2026-04-03T16:58:02.999Z</time></trkpt><trkpt lat="40.35233741278895" lon="9.547634620342627"><ele>184.0</ele><time>2026-04-03T16:58:03.999Z</time></trkpt><trkpt lat="40.35238146192248" lon="9.54786225156161"><ele>183.66666666666669</ele><time>2026-04-03T16:58:04.999Z</time></trkpt><trkpt lat="40.35242448566555" lon="9.548091616343237"><ele>183.33333333333334</ele><time>2026-04-03T16:58:05.999Z</time></trkpt><trkpt lat="40.352466398786135" lon="9.54831885978829"><ele>183.0</ele><time>2026-04-03T16:58:06.999Z</time></trkpt><trkpt lat="40.35250663484553" lon="9.548547427915695"><ele>183.33333333333334</ele><time>2026-04-03T16:58:07.999Z</time></trkpt><trkpt lat="40.3525513462861" lon="9.548776025492348"><ele>183.66666666666669</ele><time>2026-04-03T16:58:08.999Z</time></trkpt><trkpt lat="40.35259452102553" lon="9.549001247234882"><ele>184.0</ele><time>2026-04-03T16:58:09.999Z</time></trkpt><trkpt lat="40.352639895664815" lon="9.549214395439535"><ele>184.0</ele><time>2026-04-03T16:58:10.999Z</time></trkpt><trkpt lat="40.352681650123806" lon="9.549417263418839"><ele>184.0</ele><time>2026-04-03T16:58:11.999Z</time></trkpt><trkpt lat="40.3527271545459" lon="9.549614713074316"><ele>184.0</ele><time>2026-04-03T16:58:12.999Z</time></trkpt><trkpt lat="40.352775875341166" lon="9.549814936961083"><ele>183.66666666666669</ele><time>2026-04-03T16:58:13.999Z</time></trkpt><trkpt lat="40.35280819346556" lon="9.550023642689094"><ele>183.33333333333334</ele><time>2026-04-03T16:58:15Z</time></trkpt><trkpt lat="40.352845782365456" lon="9.550234177135177"><ele>183.0</ele><time>2026-04-03T16:58:16Z</time></trkpt><trkpt lat="40.35289014345554" lon="9.550446503469617"><ele>182.66666666666666</ele><time>2026-04-03T16:58:17Z</time></trkpt><trkpt lat="40.352932127820324" lon="9.5506570616425"><ele>182.33333333333331</ele><time>2026-04-03T16:58:18Z</time></trkpt><trkpt lat="40.35297305179289" lon="9.550869587541364"><ele>182.0</ele><time>2026-04-03T16:58:19Z</time></trkpt><trkpt lat="40.35301482512479" lon="9.55108624371255"><ele>181.0</ele><time>2026-04-03T16:58:20Z</time></trkpt><trkpt lat="40.353058916245395" lon="9.551308079465377"><ele>180.0</ele><time>2026-04-03T16:58:21Z</time></trkpt><trkpt lat="40.35310449913325" lon="9.551537409332008"><ele>179.0</ele><time>2026-04-03T16:58:22Z</time></trkpt><trkpt lat="40.35314707339678" lon="9.551769499100708"><ele>179.0</ele><time>2026-04-03T16:58:23Z</time></trkpt><trkpt lat="40.35318864688737" lon="9.552010771132913"><ele>179.0</ele><time>2026-04-03T16:58:24Z</time></trkpt><trkpt lat="40.35323609066513" lon="9.552246476963372"><ele>179.0</ele><time>2026-04-03T16:58:25Z</time></trkpt><trkpt lat="40.35328240547756" lon="9.552471482851372"><ele>178.0</ele><time>2026-04-03T16:58:26Z</time></trkpt><trkpt lat="40.353328352113756" lon="9.552686903521531"><ele>177.0</ele><time>2026-04-03T16:58:27Z</time></trkpt><trkpt lat="40.353366179066754" lon="9.552896710333993"><ele>176.0</ele><time>2026-04-03T16:58:28Z</time></trkpt><trkpt lat="40.35338965946361" lon="9.55308184341926"><ele>175.25</ele><time>2026-04-03T16:58:29Z</time></trkpt><trkpt lat="40.353391774383596" lon="9.553252094473358"><ele>174.5</ele><time>2026-04-03T16:58:30Z</time></trkpt><trkpt lat="40.35336851270034" lon="9.55342340771524"><ele>173.75</ele><time>2026-04-03T16:58:31Z</time></trkpt><trkpt lat="40.3533296262076" lon="9.553588964291514"><ele>173.0</ele><time>2026-04-03T16:58:32Z</time></trkpt><trkpt lat="40.353293905760445" lon="9.55374910612888"><ele>172.0</ele><time>2026-04-03T16:58:33Z</time></trkpt><trkpt lat="40.35328380449372" lon="9.553913994759446"><ele>171.0</ele><time>2026-04-03T16:58:34Z</time></trkpt><trkpt lat="40.35330457948801" lon="9.554072706084677"><ele>170.0</ele><time>2026-04-03T16:58:35Z</time></trkpt><trkpt lat="40.35335191759086" lon="9.55421762650881"><ele>169.0</ele><time>2026-04-03T16:58:36Z</time></trkpt><trkpt lat="40.35341322759097" lon="9.554347080633235"><ele>169.0</ele><time>2026-04-03T16:58:37Z</time></trkpt><trkpt lat="40.353482398816276" lon="9.554469070073036"><ele>169.0</ele><time>2026-04-03T16:58:38Z</time></trkpt><trkpt lat="40.353554623481834" lon="9.554583181317948"><ele>169.0</ele><time>2026-04-03T16:58:39Z</time></trkpt><trkpt lat="40.353632937431996" lon="9.554687655971215"><ele>169.0</ele><time>2026-04-03T16:58:40Z</time></trkpt><trkpt lat="40.35371120375107" lon="9.554792445406262"><ele>168.75</ele><time>2026-04-03T16:58:41Z</time></trkpt><trkpt lat="40.35378327832692" lon="9.55490064080509"><ele>168.5</ele><time>2026-04-03T16:58:42Z</time></trkpt><trkpt lat="40.35385983387078" lon="9.555013062253646"><ele>168.25</ele><time>2026-04-03T16:58:43Z</time></trkpt><trkpt lat="40.3539439743128" lon="9.555134040186802"><ele>168.0</ele><time>2026-04-03T16:58:44Z</time></trkpt><trkpt lat="40.35402572479955" lon="9.555263533317676"><ele>167.0</ele><time>2026-04-03T16:58:45Z</time></trkpt><trkpt lat="40.35409428847684" lon="9.555410386637238"><ele>166.0</ele><time>2026-04-03T16:58:46Z</time></trkpt><trkpt lat="40.35414987365819" lon="9.555572792057566"><ele>165.0</ele><time>2026-04-03T16:58:47Z</time></trkpt><trkpt lat="40.35419428516301" lon="9.55574450280184"><ele>164.0</ele><time>2026-04-03T16:58:48Z</time></trkpt><trkpt lat="40.35423471162866" lon="9.555921419880814"><ele>164.0</ele><time>2026-04-03T16:58:49Z</time></trkpt><trkpt lat="40.35425947798035" lon="9.556089757775139"><ele>164.0</ele><time>2026-04-03T16:58:50Z</time></trkpt><trkpt lat="40.35426661010683" lon="9.556259425970609"><ele>164.0</ele><time>2026-04-03T16:58:51Z</time></trkpt><trkpt lat="40.354247243222346" lon="9.556437896174982"><ele>164.0</ele><time>2026-04-03T16:58:52Z</time></trkpt><trkpt lat="40.35420532733345" lon="9.556619877052308"><ele>164.0</ele><time>2026-04-03T16:58:53Z</time></trkpt><trkpt lat="40.354152723397874" lon="9.556804314987717"><ele>164.0</ele><time>2026-04-03T16:58:54Z</time></trkpt><trkpt lat="40.35409941480901" lon="9.556994903093504"><ele>164.0</ele><time>2026-04-03T16:58:55Z</time></trkpt><trkpt lat="40.354044609690696" lon="9.55719396290272"><ele>163.0</ele><time>2026-04-03T16:58:56Z</time></trkpt><trkpt lat="40.353992423784426" lon="9.557400401208954"><ele>162.0</ele><time>2026-04-03T16:58:57Z</time></trkpt><trkpt lat="40.35394488991098" lon="9.55760479500793"><ele>161.0</ele><time>2026-04-03T16:58:58Z</time></trkpt><trkpt lat="40.35390320790987" lon="9.557796148612066"><ele>160.25</ele><time>2026-04-03T16:58:59Z</time></trkpt><trkpt lat="40.353883402782564" lon="9.557968173621907"><ele>159.5</ele><time>2026-04-03T16:59:00Z</time></trkpt><trkpt lat="40.353900574703886" lon="9.55814565301518"><ele>158.75</ele><time>2026-04-03T16:59:01Z</time></trkpt><trkpt lat="40.35396079888598" lon="9.558318541197789"><ele>158.0</ele><time>2026-04-03T16:59:02Z</time></trkpt><trkpt lat="40.35404028932638" lon="9.558488765366953"><ele>158.0</ele><time>2026-04-03T16:59:03Z</time></trkpt><trkpt lat="40.3541196324907" lon="9.558663841535658"><ele>158.0</ele><time>2026-04-03T16:59:04Z</time></trkpt><trkpt lat="40.35419881358832" lon="9.558847269722081"><ele>158.0</ele><time>2026-04-03T16:59:05Z</time></trkpt><trkpt lat="40.3542806969058" lon="9.559033134577358"><ele>158.66666666666666</ele><time>2026-04-03T16:59:06Z</time></trkpt><trkpt lat="40.35436371849099" lon="9.55922591924929"><ele>159.33333333333334</ele><time>2026-04-03T16:59:07Z</time></trkpt><trkpt lat="40.35443780237094" lon="9.559429959121386"><ele>160.0</ele><time>2026-04-03T16:59:08Z</time></trkpt><trkpt lat="40.35453552191226" lon="9.559623538956394"><ele>160.66666666666669</ele><time>2026-04-03T16:59:09Z</time></trkpt><trkpt lat="40.35458092609881" lon="9.559837998163182"><ele>161.33333333333334</ele><time>2026-04-03T16:59:10Z</time></trkpt><trkpt lat="40.35466543905517" lon="9.560053879112884"><ele>162.0</ele><time>2026-04-03T16:59:11Z</time></trkpt><trkpt lat="40.35474942066419" lon="9.560273462030391"><ele>161.33333333333334</ele><time>2026-04-03T16:59:12Z</time></trkpt><trkpt lat="40.35481820116819" lon="9.560500371982604"><ele>160.66666666666669</ele><time>2026-04-03T16:59:13Z</time></trkpt><trkpt lat="40.35489723512898" lon="9.560743323084441"><ele>160.0</ele><time>2026-04-03T16:59:14Z</time></trkpt><trkpt lat="40.354973521090635" lon="9.561017158123173"><ele>159.66666666666669</ele><time>2026-04-03T16:59:15Z</time></trkpt><trkpt lat="40.35503574646362" lon="9.561278402156772"><ele>159.33333333333334</ele><time>2026-04-03T16:59:16Z</time></trkpt><trkpt lat="40.3550963119751" lon="9.561526364884543"><ele>159.0</ele><time>2026-04-03T16:59:17Z</time></trkpt><trkpt lat="40.35514659535375" lon="9.56177533135522"><ele>159.0</ele><time>2026-04-03T16:59:18Z</time></trkpt><trkpt lat="40.35518933074677" lon="9.56201665154108"><ele>159.0</ele><time>2026-04-03T16:59:19Z</time></trkpt><trkpt lat="40.35522833848618" lon="9.562225668288834"><ele>159.0</ele><time>2026-04-03T16:59:20Z</time></trkpt><trkpt lat="40.355277723997695" lon="9.562407642888266"><ele>160.33333333333334</ele><time>2026-04-03T16:59:21Z</time></trkpt><trkpt lat="40.35536721576515" lon="9.562565985653963"><ele>161.66666666666669</ele><time>2026-04-03T16:59:22Z</time></trkpt><trkpt lat="40.35549846478704" lon="9.56268209780122"><ele>163.0</ele><time>2026-04-03T16:59:23Z</time></trkpt><trkpt lat="40.35565296885816" lon="9.562755597111588"><ele>161.66666666666669</ele><time>2026-04-03T16:59:23.999Z</time></trkpt><trkpt lat="40.35581250321698" lon="9.562821285374552"><ele>160.33333333333334</ele><time>2026-04-03T16:59:24.999Z</time></trkpt><trkpt lat="40.355967206185916" lon="9.562918631603274"><ele>159.0</ele><time>2026-04-03T16:59:25.999Z</time></trkpt><trkpt lat="40.35609902244145" lon="9.56305361492058"><ele>159.0</ele><time>2026-04-03T16:59:26.999Z</time></trkpt><trkpt lat="40.35621351241279" lon="9.56320612411486"><ele>159.0</ele><time>2026-04-03T16:59:27.999Z</time></trkpt><trkpt lat="40.3562974811635" lon="9.56338439609398"><ele>159.0</ele><time>2026-04-03T16:59:28.999Z</time></trkpt><trkpt lat="40.3563767067673" lon="9.563579103986"><ele>155.33333333333334</ele><time>2026-04-03T16:59:29.999Z</time></trkpt><trkpt lat="40.35645964278104" lon="9.563773348959442"><ele>151.66666666666669</ele><time>2026-04-03T16:59:30.999Z</time></trkpt><trkpt lat="40.35655035614685" lon="9.563968037125314"><ele>148.0</ele><time>2026-04-03T16:59:31.999Z</time></trkpt><trkpt lat="40.35664370318719" lon="9.564154306007067"><ele>148.0</ele><time>2026-04-03T16:59:32.999Z</time></trkpt><trkpt lat="40.35673105446214" lon="9.564349048532058"><ele>148.0</ele><time>2026-04-03T16:59:33.999Z</time></trkpt><trkpt lat="40.356808288513356" lon="9.564559124183116"><ele>148.0</ele><time>2026-04-03T16:59:34.999Z</time></trkpt><trkpt lat="40.35687952725128" lon="9.564786124208226"><ele>148.66666666666669</ele><time>2026-04-03T16:59:35.999Z</time></trkpt><trkpt lat="40.35695212557476" lon="9.565025089465026"><ele>149.33333333333334</ele><time>2026-04-03T16:59:36.999Z</time></trkpt><trkpt lat="40.35704142652401" lon="9.565278706166385"><ele>150.0</ele><time>2026-04-03T16:59:37.999Z</time></trkpt><trkpt lat="40.35713744893862" lon="9.565544674576202"><ele>144.33333333333334</ele><time>2026-04-03T16:59:38.999Z</time></trkpt><trkpt lat="40.35724089440029" lon="9.565800619340868"><ele>138.66666666666669</ele><time>2026-04-03T16:59:39.999Z</time></trkpt><trkpt lat="40.357321331875376" lon="9.5660578397004"><ele>133.0</ele><time>2026-04-03T16:59:40.999Z</time></trkpt><trkpt lat="40.357391397767955" lon="9.566316355964569"><ele>132.0</ele><time>2026-04-03T16:59:41.999Z</time></trkpt><trkpt lat="40.35745038966992" lon="9.566575908675107"><ele>131.0</ele><time>2026-04-03T16:59:42.999Z</time></trkpt><trkpt lat="40.357498964416585" lon="9.566832995840114"><ele>130.0</ele><time>2026-04-03T16:59:43.999Z</time></trkpt><trkpt lat="40.35753588959328" lon="9.567081626493184"><ele>128.0</ele><time>2026-04-03T16:59:44.999Z</time></trkpt><trkpt lat="40.35754203480445" lon="9.56733197285525"><ele>126.0</ele><time>2026-04-03T16:59:45.999Z</time></trkpt><trkpt lat="40.3575265452934" lon="9.567575247125284"><ele>124.0</ele><time>2026-04-03T16:59:46.999Z</time></trkpt><trkpt lat="40.357486794646974" lon="9.567812550572942"><ele>120.0</ele><time>2026-04-03T16:59:47.999Z</time></trkpt><trkpt lat="40.35742627235964" lon="9.568036672084926"><ele>116.0</ele><time>2026-04-03T16:59:48.999Z</time></trkpt><trkpt lat="40.357350266604776" lon="9.568244794114507"><ele>112.0</ele><time>2026-04-03T16:59:49.999Z</time></trkpt><trkpt lat="40.35726916412824" lon="9.568445351074136"><ele>110.66666666666667</ele><time>2026-04-03T16:59:50.999Z</time></trkpt><trkpt lat="40.357196569609386" lon="9.568648111446118"><ele>109.33333333333334</ele><time>2026-04-03T16:59:51.999Z</time></trkpt><trkpt lat="40.35714299673895" lon="9.568857570222512"><ele>108.0</ele><time>2026-04-03T16:59:52.999Z</time></trkpt><trkpt lat="40.35710987167028" lon="9.569049400505804"><ele>108.0</ele><time>2026-04-03T16:59:53.999Z</time></trkpt><trkpt lat="40.35707275148648" lon="9.569220743053469"><ele>108.00000000000001</ele><time>2026-04-03T16:59:54.999Z</time></trkpt><trkpt lat="40.35704744670772" lon="9.569364536972175"><ele>108.00000000000001</ele><time>2026-04-03T16:59:55.999Z</time></trkpt><trkpt lat="40.357049641987444" lon="9.569481378873013"><ele>108.0</ele><time>2026-04-03T16:59:56.999Z</time></trkpt><trkpt lat="40.35710122325757" lon="9.56956652347471"><ele>108.0</ele><time>2026-04-03T16:59:57.999Z</time></trkpt><trkpt lat="40.35718636921294" lon="9.56959726908371"><ele>107.80000000000001</ele><time>2026-04-03T16:59:58.999Z</time></trkpt><trkpt lat="40.3572744606789" lon="9.56956187918897"><ele>107.60000000000001</ele><time>2026-04-03T16:59:59.999Z</time></trkpt><trkpt lat="40.35734890543292" lon="9.569473930631224"><ele>107.39999999999999</ele><time>2026-04-03T17:00:00.999Z</time></trkpt><trkpt lat="40.35737998014142" lon="9.569353776519499"><ele>107.19999999999999</ele><time>2026-04-03T17:00:01.999Z</time></trkpt><trkpt lat="40.35737958255077" lon="9.569219577708823"><ele>107.0</ele><time>2026-04-03T17:00:02.999Z</time></trkpt><trkpt lat="40.35738118088085" lon="9.569091795860805"><ele>107.0</ele><time>2026-04-03T17:00:03.999Z</time></trkpt><trkpt lat="40.357403247870096" lon="9.568963314093855"><ele>106.99999999999999</ele><time>2026-04-03T17:00:04.999Z</time></trkpt><trkpt lat="40.357426545563065" lon="9.568828762411732"><ele>106.99999999999999</ele><time>2026-04-03T17:00:05.999Z</time></trkpt><trkpt lat="40.357432326285526" lon="9.568695183035363"><ele>107.0</ele><time>2026-04-03T17:00:06.999Z</time></trkpt><trkpt lat="40.35744160551184" lon="9.568573406798933"><ele>107.0</ele><time>2026-04-03T17:00:07.999Z</time></trkpt><trkpt lat="40.35747593573532" lon="9.56846986641711"><ele>106.99999999999999</ele><time>2026-04-03T17:00:08.999Z</time></trkpt><trkpt lat="40.35753963961469" lon="9.568403118955464"><ele>107.0</ele><time>2026-04-03T17:00:09.999Z</time></trkpt><trkpt lat="40.35761679801703" lon="9.568396538457973"><ele>107.0</ele><time>2026-04-03T17:00:10.999Z</time></trkpt><trkpt lat="40.35768087325976" lon="9.568462765096927"><ele>107.0</ele><time>2026-04-03T17:00:11.999Z</time></trkpt><trkpt lat="40.35770797357878" lon="9.56857203729616"><ele>106.99999999999999</ele><time>2026-04-03T17:00:12.999Z</time></trkpt><trkpt lat="40.35768731967342" lon="9.568701008935987"><ele>107.0</ele><time>2026-04-03T17:00:13.999Z</time></trkpt><trkpt lat="40.35764355173367" lon="9.56883164134376"><ele>107.0</ele><time>2026-04-03T17:00:14.999Z</time></trkpt><trkpt lat="40.35759115580286" lon="9.568956790750194"><ele>107.0</ele><time>2026-04-03T17:00:15.999Z</time></trkpt><trkpt lat="40.357543998092105" lon="9.569094237359657"><ele>107.0</ele><time>2026-04-03T17:00:16.999Z</time></trkpt><trkpt lat="40.35750986638855" lon="9.569262831447613"><ele>107.0</ele><time>2026-04-03T17:00:17.999Z</time></trkpt><trkpt lat="40.35751241951646" lon="9.569448480041869"><ele>104.25</ele><time>2026-04-03T17:00:18.999Z</time></trkpt><trkpt lat="40.357530798432904" lon="9.569636311026546"><ele>101.5</ele><time>2026-04-03T17:00:19.999Z</time></trkpt><trkpt lat="40.357539520215774" lon="9.569824585889753"><ele>98.75</ele><time>2026-04-03T17:00:21Z</time></trkpt><trkpt lat="40.357537000225314" lon="9.570013333887884"><ele>96.0</ele><time>2026-04-03T17:00:22Z</time></trkpt><trkpt lat="40.35754107492302" lon="9.570204308440275"><ele>94.25</ele><time>2026-04-03T17:00:23Z</time></trkpt><trkpt lat="40.357569354333776" lon="9.570393489216276"><ele>92.5</ele><time>2026-04-03T17:00:24Z</time></trkpt><trkpt lat="40.35762199574764" lon="9.570567428276691"><ele>90.75</ele><time>2026-04-03T17:00:25Z</time></trkpt><trkpt lat="40.35768022287401" lon="9.570714294991149"><ele>89.0</ele><time>2026-04-03T17:00:26Z</time></trkpt><trkpt lat="40.35772837207381" lon="9.570839050709015"><ele>89.0</ele><time>2026-04-03T17:00:27Z</time></trkpt><trkpt lat="40.35778427600599" lon="9.570921421123822"><ele>89.0</ele><time>2026-04-03T17:00:28Z</time></trkpt><trkpt lat="40.357863443792176" lon="9.570942928262227"><ele>89.0</ele><time>2026-04-03T17:00:29Z</time></trkpt><trkpt lat="40.35794210698976" lon="9.570882131208487"><ele>89.0</ele><time>2026-04-03T17:00:30Z</time></trkpt><trkpt lat="40.357991718395475" lon="9.570764000732636"><ele>89.0</ele><time>2026-04-03T17:00:31Z</time></trkpt><trkpt lat="40.357985674479195" lon="9.570643486682878"><ele>89.0</ele><time>2026-04-03T17:00:32Z</time></trkpt><trkpt lat="40.357929568683154" lon="9.570536051900412"><ele>89.0</ele><time>2026-04-03T17:00:33Z</time></trkpt><trkpt lat="40.35785892613297" lon="9.570440982666673"><ele>89.0</ele><time>2026-04-03T17:00:34Z</time></trkpt><trkpt lat="40.35779404201037" lon="9.570339823533004"><ele>89.0</ele><time>2026-04-03T17:00:35Z</time></trkpt><trkpt lat="40.35774949530627" lon="9.570209283295299"><ele>89.0</ele><time>2026-04-03T17:00:36Z</time></trkpt><trkpt lat="40.35773719077503" lon="9.570057360073054"><ele>90.4</ele><time>2026-04-03T17:00:37Z</time></trkpt><trkpt lat="40.35775546461014" lon="9.569895965078144"><ele>91.80000000000001</ele><time>2026-04-03T17:00:38Z</time></trkpt><trkpt lat="40.35778043614345" lon="9.569753356684506"><ele>93.19999999999999</ele><time>2026-04-03T17:00:39Z</time></trkpt><trkpt lat="40.35780758502407" lon="9.569634801188593"><ele>94.6</ele><time>2026-04-03T17:00:40Z</time></trkpt><trkpt lat="40.35785872168996" lon="9.569549048261981"><ele>96.0</ele><time>2026-04-03T17:00:41Z</time></trkpt><trkpt lat="40.357943645035135" lon="9.569511800153906"><ele>96.0</ele><time>2026-04-03T17:00:42Z</time></trkpt><trkpt lat="40.358034174222986" lon="9.56953547367156"><ele>96.0</ele><time>2026-04-03T17:00:43Z</time></trkpt><trkpt lat="40.35810001062155" lon="9.569604661691994"><ele>96.0</ele><time>2026-04-03T17:00:44Z</time></trkpt><trkpt lat="40.35815685557303" lon="9.569698587170214"><ele>96.0</ele><time>2026-04-03T17:00:45Z</time></trkpt><trkpt lat="40.35821272194591" lon="9.569831216902521"><ele>96.0</ele><time>2026-04-03T17:00:46Z</time></trkpt><trkpt lat="40.358277904429684" lon="9.569969875627436"><ele>95.0</ele><time>2026-04-03T17:00:47Z</time></trkpt><trkpt lat="40.35837136812393" lon="9.570113930754573"><ele>94.0</ele><time>2026-04-03T17:00:48Z</time></trkpt><trkpt lat="40.35848732302408" lon="9.570260426871391"><ele>93.0</ele><time>2026-04-03T17:00:49Z</time></trkpt><trkpt lat="40.3586163267826" lon="9.570413639755092"><ele>91.33333333333333</ele><time>2026-04-03T17:00:50Z</time></trkpt><trkpt lat="40.35875705050789" lon="9.570549951712477"><ele>89.66666666666666</ele><time>2026-04-03T17:00:51Z</time></trkpt><trkpt lat="40.3589015675712" lon="9.570675705691736"><ele>88.0</ele><time>2026-04-03T17:00:52Z</time></trkpt><trkpt lat="40.35904395394911" lon="9.57079724453693"><ele>86.66666666666666</ele><time>2026-04-03T17:00:53Z</time></trkpt><trkpt lat="40.35919031704772" lon="9.570921189913841"><ele>85.33333333333333</ele><time>2026-04-03T17:00:54Z</time></trkpt><trkpt lat="40.35934002251922" lon="9.571047892991233"><ele>84.0</ele><time>2026-04-03T17:00:55Z</time></trkpt><trkpt lat="40.35949946907591" lon="9.57116882492659"><ele>80.66666666666667</ele><time>2026-04-03T17:00:56Z</time></trkpt><trkpt lat="40.35966945422524" lon="9.571275131888418"><ele>77.33333333333334</ele><time>2026-04-03T17:00:57Z</time></trkpt><trkpt lat="40.35984786720271" lon="9.571362008397303"><ele>74.0</ele><time>2026-04-03T17:00:58Z</time></trkpt><trkpt lat="40.36002773968009" lon="9.571446975485022"><ele>73.66666666666667</ele><time>2026-04-03T17:00:59Z</time></trkpt><trkpt lat="40.36019699119151" lon="9.571541670455542"><ele>73.33333333333333</ele><time>2026-04-03T17:01:00Z</time></trkpt><trkpt lat="40.36037158074797" lon="9.571648645709562"><ele>73.0</ele><time>2026-04-03T17:01:01Z</time></trkpt><trkpt lat="40.360554755393494" lon="9.571750032924847"><ele>73.0</ele><time>2026-04-03T17:01:02Z</time></trkpt><trkpt lat="40.36075222577195" lon="9.571835602792838"><ele>73.0</ele><time>2026-04-03T17:01:03Z</time></trkpt><trkpt lat="40.36095681209258" lon="9.571893017569069"><ele>73.0</ele><time>2026-04-03T17:01:04Z</time></trkpt><trkpt lat="40.36115851959873" lon="9.571921981133938"><ele>73.0</ele><time>2026-04-03T17:01:05Z</time></trkpt><trkpt lat="40.361352592858836" lon="9.571924907420998"><ele>73.0</ele><time>2026-04-03T17:01:06Z</time></trkpt><trkpt lat="40.36153528783767" lon="9.57189379753446"><ele>73.0</ele><time>2026-04-03T17:01:07Z</time></trkpt><trkpt lat="40.36170629610367" lon="9.57184188503328"><ele>72.66666666666666</ele><time>2026-04-03T17:01:08Z</time></trkpt><trkpt lat="40.3618731837182" lon="9.57179233735962"><ele>72.33333333333333</ele><time>2026-04-03T17:01:09Z</time></trkpt><trkpt lat="40.36203419973652" lon="9.571763567531944"><ele>72.0</ele><time>2026-04-03T17:01:10Z</time></trkpt><trkpt lat="40.36219702426291" lon="9.571757770096763"><ele>69.0</ele><time>2026-04-03T17:01:11Z</time></trkpt><trkpt lat="40.36235685728511" lon="9.571766218901349"><ele>66.0</ele><time>2026-04-03T17:01:12Z</time></trkpt><trkpt lat="40.362515752877236" lon="9.571741431785464"><ele>63.0</ele><time>2026-04-03T17:01:13Z</time></trkpt><trkpt lat="40.36267659553868" lon="9.571677916973531"><ele>63.0</ele><time>2026-04-03T17:01:14Z</time></trkpt><trkpt lat="40.36284309050673" lon="9.571601470461593"><ele>63.0</ele><time>2026-04-03T17:01:15Z</time></trkpt><trkpt lat="40.363018469925585" lon="9.57154901324136"><ele>63.0</ele><time>2026-04-03T17:01:16Z</time></trkpt><trkpt lat="40.36320309736761" lon="9.571522084623298"><ele>60.33333333333333</ele><time>2026-04-03T17:01:17Z</time></trkpt><trkpt lat="40.363390134629846" lon="9.571521837508499"><ele>57.666666666666664</ele><time>2026-04-03T17:01:18Z</time></trkpt><trkpt lat="40.363573527508514" lon="9.571532917254155"><ele>55.0</ele><time>2026-04-03T17:01:19Z</time></trkpt><trkpt lat="40.36374977838701" lon="9.571540067855977"><ele>54.33333333333333</ele><time>2026-04-03T17:01:20Z</time></trkpt><trkpt lat="40.363921457958355" lon="9.571548541687026"><ele>53.66666666666667</ele><time>2026-04-03T17:01:21Z</time></trkpt><trkpt lat="40.3640865605" lon="9.571554769294695"><ele>53.0</ele><time>2026-04-03T17:01:22Z</time></trkpt><trkpt lat="40.364249878267536" lon="9.571567629648847"><ele>53.0</ele><time>2026-04-03T17:01:23Z</time></trkpt><trkpt lat="40.364411093889146" lon="9.571613509512888"><ele>53.0</ele><time>2026-04-03T17:01:24Z</time></trkpt><trkpt lat="40.364558587060394" lon="9.571719433512264"><ele>53.0</ele><time>2026-04-03T17:01:25Z</time></trkpt><trkpt lat="40.364685074034746" lon="9.571877058688854"><ele>50.333333333333336</ele><time>2026-04-03T17:01:26Z</time></trkpt><trkpt lat="40.36480527899724" lon="9.572059772232567"><ele>47.66666666666667</ele><time>2026-04-03T17:01:27Z</time></trkpt><trkpt lat="40.36492702590786" lon="9.57224184258194"><ele>45.0</ele><time>2026-04-03T17:01:28Z</time></trkpt><trkpt lat="40.36507212330851" lon="9.572408720270012"><ele>45.0</ele><time>2026-04-03T17:01:29Z</time></trkpt><trkpt lat="40.36522458240222" lon="9.57255481424418"><ele>45.0</ele><time>2026-04-03T17:01:30Z</time></trkpt><trkpt lat="40.36538184752216" lon="9.572684327511007"><ele>45.0</ele><time>2026-04-03T17:01:30.999Z</time></trkpt><trkpt lat="40.36553682438248" lon="9.572805325923284"><ele>43.333333333333336</ele><time>2026-04-03T17:01:31.999Z</time></trkpt><trkpt lat="40.365690614608916" lon="9.57292568050353"><ele>41.66666666666667</ele><time>2026-04-03T17:01:32.999Z</time></trkpt><trkpt lat="40.36584420248104" lon="9.573048741851231"><ele>40.0</ele><time>2026-04-03T17:01:33.999Z</time></trkpt><trkpt lat="40.365992656504325" lon="9.573170610690008"><ele>40.0</ele><time>2026-04-03T17:01:34.999Z</time></trkpt><trkpt lat="40.36613106738303" lon="9.573296350355042"><ele>40.0</ele><time>2026-04-03T17:01:35.999Z</time></trkpt><trkpt lat="40.366261722225225" lon="9.573434362818809"><ele>40.0</ele><time>2026-04-03T17:01:36.999Z</time></trkpt><trkpt lat="40.366391001441364" lon="9.573597051964716"><ele>39.0</ele><time>2026-04-03T17:01:37.999Z</time></trkpt><trkpt lat="40.36650533114897" lon="9.573781405886397"><ele>38.0</ele><time>2026-04-03T17:01:38.999Z</time></trkpt><trkpt lat="40.36660172678865" lon="9.573996212717129"><ele>37.0</ele><time>2026-04-03T17:01:39.999Z</time></trkpt><trkpt lat="40.36667705498047" lon="9.57423148266703"><ele>37.0</ele><time>2026-04-03T17:01:40.999Z</time></trkpt><trkpt lat="40.366728299087576" lon="9.574484574094459"><ele>37.0</ele><time>2026-04-03T17:01:41.999Z</time></trkpt><trkpt lat="40.36675864177723" lon="9.574730925272391"><ele>37.0</ele><time>2026-04-03T17:01:42.999Z</time></trkpt><trkpt lat="40.36679582009273" lon="9.574969618945774"><ele>36.0</ele><time>2026-04-03T17:01:43.999Z</time></trkpt><trkpt lat="40.36683333101373" lon="9.575203510596854"><ele>35.0</ele><time>2026-04-03T17:01:44.999Z</time></trkpt><trkpt lat="40.36687155455497" lon="9.575429560249699"><ele>34.0</ele><time>2026-04-03T17:01:45.999Z</time></trkpt><trkpt lat="40.366909057144255" lon="9.575646711650037"><ele>33.333333333333336</ele><time>2026-04-03T17:01:46.999Z</time></trkpt><trkpt lat="40.36695481429705" lon="9.575859537329329"><ele>32.666666666666664</ele><time>2026-04-03T17:01:47.999Z</time></trkpt><trkpt lat="40.36702100904069" lon="9.576066328749532"><ele>32.0</ele><time>2026-04-03T17:01:48.999Z</time></trkpt><trkpt lat="40.36711466169197" lon="9.5762610092017"><ele>31.333333333333332</ele><time>2026-04-03T17:01:49.999Z</time></trkpt><trkpt lat="40.367232867283434" lon="9.576438594115443"><ele>30.666666666666664</ele><time>2026-04-03T17:01:50.999Z</time></trkpt><trkpt lat="40.367366091071766" lon="9.576594858881194"><ele>30.0</ele><time>2026-04-03T17:01:51.999Z</time></trkpt><trkpt lat="40.367518682824105" lon="9.576729654509254"><ele>30.0</ele><time>2026-04-03T17:01:52.999Z</time></trkpt><trkpt lat="40.367683172177465" lon="9.57684727152593"><ele>30.0</ele><time>2026-04-03T17:01:53.999Z</time></trkpt><trkpt lat="40.367851979036004" lon="9.576957179413322"><ele>30.0</ele><time>2026-04-03T17:01:54.999Z</time></trkpt><trkpt lat="40.36801935175686" lon="9.577063551680288"><ele>28.333333333333336</ele><time>2026-04-03T17:01:55.999Z</time></trkpt><trkpt lat="40.36818499356866" lon="9.577171276795353"><ele>26.666666666666668</ele><time>2026-04-03T17:01:56.999Z</time></trkpt><trkpt lat="40.36834738459995" lon="9.577279615795486"><ele>25.0</ele><time>2026-04-03T17:01:57.999Z</time></trkpt><trkpt lat="40.368506970198915" lon="9.577391349440031"><ele>25.0</ele><time>2026-04-03T17:01:58.999Z</time></trkpt><trkpt lat="40.36866557578941" lon="9.577515068468456"><ele>25.0</ele><time>2026-04-03T17:01:59.999Z</time></trkpt><trkpt lat="40.368817410620366" lon="9.57765942881699"><ele>25.0</ele><time>2026-04-03T17:02:00.999Z</time></trkpt><trkpt lat="40.36896253568902" lon="9.577819411589035"><ele>23.666666666666668</ele><time>2026-04-03T17:02:01.999Z</time></trkpt><trkpt lat="40.36909954542028" lon="9.577995849124516"><ele>22.333333333333336</ele><time>2026-04-03T17:02:02.999Z</time></trkpt><trkpt lat="40.36922177281819" lon="9.578193135997175"><ele>21.0</ele><time>2026-04-03T17:02:03.999Z</time></trkpt><trkpt lat="40.36932331693222" lon="9.578404787845159"><ele>21.0</ele><time>2026-04-03T17:02:04.999Z</time></trkpt><trkpt lat="40.36941137919738" lon="9.578631009424265"><ele>21.0</ele><time>2026-04-03T17:02:05.999Z</time></trkpt><trkpt lat="40.36948971155596" lon="9.57885549691172"><ele>21.0</ele><time>2026-04-03T17:02:06.999Z</time></trkpt><trkpt lat="40.36957155772622" lon="9.579071880084921"><ele>20.666666666666668</ele><time>2026-04-03T17:02:07.999Z</time></trkpt><trkpt lat="40.36965256266271" lon="9.579278934923796"><ele>20.333333333333336</ele><time>2026-04-03T17:02:08.999Z</time></trkpt><trkpt lat="40.36972705426588" lon="9.579477166798089"><ele>20.0</ele><time>2026-04-03T17:02:09.999Z</time></trkpt><trkpt lat="40.369791384500154" lon="9.579678229840578"><ele>21.0</ele><time>2026-04-03T17:02:10.999Z</time></trkpt><trkpt lat="40.36983553738335" lon="9.579897816347648"><ele>22.0</ele><time>2026-04-03T17:02:11.999Z</time></trkpt><trkpt lat="40.36985199493128" lon="9.580126325210719"><ele>23.0</ele><time>2026-04-03T17:02:12.999Z</time></trkpt><trkpt lat="40.36984294006083" lon="9.580355768735133"><ele>23.0</ele><time>2026-04-03T17:02:13.999Z</time></trkpt><trkpt lat="40.36982211354391" lon="9.580583053739643"><ele>23.0</ele><time>2026-04-03T17:02:14.999Z</time></trkpt><trkpt lat="40.36979565152755" lon="9.580813324911954"><ele>23.0</ele><time>2026-04-03T17:02:15.999Z</time></trkpt><trkpt lat="40.369776780023955" lon="9.581042875170242"><ele>22.666666666666668</ele><time>2026-04-03T17:02:16.999Z</time></trkpt><trkpt lat="40.36977682206182" lon="9.581255420110159"><ele>22.333333333333332</ele><time>2026-04-03T17:02:17.999Z</time></trkpt><trkpt lat="40.36982048682354" lon="9.58146297540869"><ele>22.0</ele><time>2026-04-03T17:02:18.999Z</time></trkpt><trkpt lat="40.369911683152225" lon="9.581651067314317"><ele>22.0</ele><time>2026-04-03T17:02:19.999Z</time></trkpt><trkpt lat="40.370031072494434" lon="9.581814221420899"><ele>22.0</ele><time>2026-04-03T17:02:20.999Z</time></trkpt><trkpt lat="40.37016537447934" lon="9.581972037746171"><ele>22.0</ele><time>2026-04-03T17:02:21.999Z</time></trkpt><trkpt lat="40.37030694441915" lon="9.582155652048877"><ele>21.0</ele><time>2026-04-03T17:02:22.999Z</time></trkpt><trkpt lat="40.37043107261015" lon="9.582345448809361"><ele>20.0</ele><time>2026-04-03T17:02:23.999Z</time></trkpt><trkpt lat="40.37054480526435" lon="9.582523632161125"><ele>19.0</ele><time>2026-04-03T17:02:24.999Z</time></trkpt><trkpt lat="40.3706279523779" lon="9.582721264233305"><ele>24.0</ele><time>2026-04-03T17:02:25.999Z</time></trkpt><trkpt lat="40.370675846018514" lon="9.582946011464278"><ele>29.0</ele><time>2026-04-03T17:02:27Z</time></trkpt><trkpt lat="40.37070005163088" lon="9.583189698881736"><ele>34.0</ele><time>2026-04-03T17:02:28Z</time></trkpt><trkpt lat="40.370701637933" lon="9.583436703474678"><ele>34.0</ele><time>2026-04-03T17:02:29Z</time></trkpt><trkpt lat="40.370683082707764" lon="9.58368022885408"><ele>34.0</ele><time>2026-04-03T17:02:30Z</time></trkpt><trkpt lat="40.37066058741891" lon="9.58391913233932"><ele>34.0</ele><time>2026-04-03T17:02:31Z</time></trkpt><trkpt lat="40.370630376013615" lon="9.584148057384795"><ele>34.0</ele><time>2026-04-03T17:02:32Z</time></trkpt><trkpt lat="40.37059346220195" lon="9.584363100024213"><ele>34.0</ele><time>2026-04-03T17:02:33Z</time></trkpt><trkpt lat="40.37055519820617" lon="9.584566650817624"><ele>34.0</ele><time>2026-04-03T17:02:34Z</time></trkpt><trkpt lat="40.370524101936475" lon="9.584767621750505"><ele>34.0</ele><time>2026-04-03T17:02:35Z</time></trkpt><trkpt lat="40.370517116388584" lon="9.58495856819918"><ele>34.0</ele><time>2026-04-03T17:02:36Z</time></trkpt><trkpt lat="40.370533818584335" lon="9.585141969900471"><ele>34.0</ele><time>2026-04-03T17:02:37Z</time></trkpt><trkpt lat="40.37055058284382" lon="9.585330148095622"><ele>34.0</ele><time>2026-04-03T17:02:38Z</time></trkpt><trkpt lat="40.370528796169715" lon="9.585513107522413"><ele>30.666666666666668</ele><time>2026-04-03T17:02:39Z</time></trkpt><trkpt lat="40.37046901586303" lon="9.585683707115306"><ele>27.333333333333336</ele><time>2026-04-03T17:02:40Z</time></trkpt><trkpt lat="40.3703858003756" lon="9.585857051652294"><ele>24.0</ele><time>2026-04-03T17:02:41Z</time></trkpt><trkpt lat="40.37029466364845" lon="9.586060058057488"><ele>27.333333333333336</ele><time>2026-04-03T17:02:42Z</time></trkpt><trkpt lat="40.370191011244586" lon="9.586295818003453"><ele>30.666666666666668</ele><time>2026-04-03T17:02:43Z</time></trkpt><trkpt lat="40.37006282231252" lon="9.586563063494712"><ele>34.0</ele><time>2026-04-03T17:02:44Z</time></trkpt><trkpt lat="40.36992019689428" lon="9.586846892306157"><ele>35.0</ele><time>2026-04-03T17:02:45Z</time></trkpt><trkpt lat="40.36979159813847" lon="9.587115533943217"><ele>36.0</ele><time>2026-04-03T17:02:46Z</time></trkpt><trkpt lat="40.36968487766686" lon="9.58739817032764"><ele>30.5</ele><time>2026-04-03T17:02:47Z</time></trkpt><trkpt lat="40.36961307708609" lon="9.587685991466017"><ele>25.0</ele><time>2026-04-03T17:02:48Z</time></trkpt><trkpt lat="40.369543330859" lon="9.587982671785301"><ele>25.0</ele><time>2026-04-03T17:02:49Z</time></trkpt><trkpt lat="40.369490410098166" lon="9.588224393431448"><ele>25.0</ele><time>2026-04-03T17:02:51Z</time></trkpt><trkpt lat="40.369474298719155" lon="9.588440055961629"><ele>25.0</ele><time>2026-04-03T17:02:52Z</time></trkpt><trkpt lat="40.36948075554635" lon="9.588664239145585"><ele>25.0</ele><time>2026-04-03T17:02:53Z</time></trkpt><trkpt lat="40.36951614226114" lon="9.588884098880971"><ele>25.0</ele><time>2026-04-03T17:02:54Z</time></trkpt><trkpt lat="40.36957853751208" lon="9.589103631468065"><ele>25.0</ele><time>2026-04-03T17:02:55Z</time></trkpt><trkpt lat="40.36965459675293" lon="9.58930595241469"><ele>23.333333333333336</ele><time>2026-04-03T17:02:56Z</time></trkpt><trkpt lat="40.369753611451024" lon="9.58949895989288"><ele>21.666666666666668</ele><time>2026-04-03T17:02:57Z</time></trkpt><trkpt lat="40.369886103928316" lon="9.589678919927902"><ele>20.0</ele><time>2026-04-03T17:02:58Z</time></trkpt><trkpt lat="40.37003172990518" lon="9.589839776223567"><ele>20.0</ele><time>2026-04-03T17:02:59Z</time></trkpt><trkpt lat="40.37016911232066" lon="9.58996884079194"><ele>20.0</ele><time>2026-04-03T17:03:00Z</time></trkpt><trkpt lat="40.37029540098165" lon="9.590075803470931"><ele>20.0</ele><time>2026-04-03T17:03:01Z</time></trkpt><trkpt lat="40.37043364468831" lon="9.590170993183508"><ele>19.333333333333336</ele><time>2026-04-03T17:03:02Z</time></trkpt><trkpt lat="40.370596887848635" lon="9.590229684193849"><ele>18.666666666666668</ele><time>2026-04-03T17:03:03Z</time></trkpt><trkpt lat="40.370775917683936" lon="9.590258930940115"><ele>18.0</ele><time>2026-04-03T17:03:04Z</time></trkpt><trkpt lat="40.37095196298954" lon="9.590301799091655"><ele>18.0</ele><time>2026-04-03T17:03:05Z</time></trkpt><trkpt lat="40.371123812646914" lon="9.590373514942032"><ele>18.0</ele><time>2026-04-03T17:03:06Z</time></trkpt><trkpt lat="40.371281257940396" lon="9.590460005554462"><ele>18.0</ele><time>2026-04-03T17:03:07Z</time></trkpt><trkpt lat="40.37144018541169" lon="9.590570780620222"><ele>16.666666666666668</ele><time>2026-04-03T17:03:08Z</time></trkpt><trkpt lat="40.37161796465697" lon="9.590699935759801"><ele>15.333333333333334</ele><time>2026-04-03T17:03:09Z</time></trkpt><trkpt lat="40.371813471129414" lon="9.590849771087022"><ele>14.0</ele><time>2026-04-03T17:03:10Z</time></trkpt><trkpt lat="40.372008431207355" lon="9.591005666071974"><ele>14.0</ele><time>2026-04-03T17:03:11Z</time></trkpt><trkpt lat="40.37219291292068" lon="9.591161516490239"><ele>14.0</ele><time>2026-04-03T17:03:12Z</time></trkpt><trkpt lat="40.37236036872783" lon="9.591297636292559"><ele>14.0</ele><time>2026-04-03T17:03:13Z</time></trkpt><trkpt lat="40.372517092386566" lon="9.591436727159314"><ele>16.333333333333336</ele><time>2026-04-03T17:03:14Z</time></trkpt><trkpt lat="40.37266951715948" lon="9.591594280403116"><ele>18.666666666666668</ele><time>2026-04-03T17:03:15Z</time></trkpt><trkpt lat="40.37281014857462" lon="9.591771619627933"><ele>21.0</ele><time>2026-04-03T17:03:16Z</time></trkpt><trkpt lat="40.37294282570076" lon="9.591953342616156"><ele>23.333333333333336</ele><time>2026-04-03T17:03:17Z</time></trkpt><trkpt lat="40.37307815471519" lon="9.592121530398858"><ele>25.666666666666668</ele><time>2026-04-03T17:03:18Z</time></trkpt><trkpt lat="40.373219850440385" lon="9.592275330653264"><ele>28.0</ele><time>2026-04-03T17:03:19Z</time></trkpt><trkpt lat="40.373369968174124" lon="9.59241226560118"><ele>28.0</ele><time>2026-04-03T17:03:20Z</time></trkpt><trkpt lat="40.37352995139405" lon="9.592546995385954"><ele>28.0</ele><time>2026-04-03T17:03:21Z</time></trkpt><trkpt lat="40.373692776077775" lon="9.592671117760432"><ele>28.0</ele><time>2026-04-03T17:03:22Z</time></trkpt><trkpt lat="40.373844299836485" lon="9.592788252425748"><ele>27.0</ele><time>2026-04-03T17:03:23Z</time></trkpt><trkpt lat="40.3739863607717" lon="9.592908082239639"><ele>26.0</ele><time>2026-04-03T17:03:24Z</time></trkpt><trkpt lat="40.37411200573291" lon="9.593022382236974"><ele>25.0</ele><time>2026-04-03T17:03:25Z</time></trkpt><trkpt lat="40.37423721169721" lon="9.59313449393054"><ele>25.0</ele><time>2026-04-03T17:03:26Z</time></trkpt><trkpt lat="40.37437334619289" lon="9.593267628537186"><ele>25.0</ele><time>2026-04-03T17:03:27Z</time></trkpt><trkpt lat="40.37450614156991" lon="9.593436079180819"><ele>25.0</ele><time>2026-04-03T17:03:28Z</time></trkpt><trkpt lat="40.374640942452366" lon="9.593609674240115"><ele>24.666666666666668</ele><time>2026-04-03T17:03:29Z</time></trkpt><trkpt lat="40.37478248167735" lon="9.593782290830088"><ele>24.333333333333336</ele><time>2026-04-03T17:03:30Z</time></trkpt><trkpt lat="40.37492928756527" lon="9.593956345547653"><ele>24.0</ele><time>2026-04-03T17:03:31Z</time></trkpt><trkpt lat="40.37507023215252" lon="9.594143766238762"><ele>24.0</ele><time>2026-04-03T17:03:32Z</time></trkpt><trkpt lat="40.37520338373383" lon="9.594340660598043"><ele>24.0</ele><time>2026-04-03T17:03:33Z</time></trkpt><trkpt lat="40.37533331165557" lon="9.5945464150682"><ele>24.0</ele><time>2026-04-03T17:03:34Z</time></trkpt><trkpt lat="40.375464788760844" lon="9.594756144400725"><ele>24.333333333333336</ele><time>2026-04-03T17:03:35Z</time></trkpt><trkpt lat="40.375598369417716" lon="9.59496533299013"><ele>24.666666666666668</ele><time>2026-04-03T17:03:36Z</time></trkpt><trkpt lat="40.37573320271219" lon="9.595178640422258"><ele>25.0</ele><time>2026-04-03T17:03:37Z</time></trkpt><trkpt lat="40.37586819963828" lon="9.595393389094504"><ele>25.0</ele><time>2026-04-03T17:03:38Z</time></trkpt><trkpt lat="40.376002695340006" lon="9.59560906276802"><ele>25.0</ele><time>2026-04-03T17:03:39Z</time></trkpt><trkpt lat="40.37614084609795" lon="9.595830736295056"><ele>25.0</ele><time>2026-04-03T17:03:40Z</time></trkpt><trkpt lat="40.37628102704491" lon="9.596053830775684"><ele>24.0</ele><time>2026-04-03T17:03:41Z</time></trkpt><trkpt lat="40.37642624866306" lon="9.596283753323734"><ele>23.0</ele><time>2026-04-03T17:03:42Z</time></trkpt><trkpt lat="40.37657281297822" lon="9.596512724480325"><ele>23.0</ele><time>2026-04-03T17:03:43Z</time></trkpt><trkpt lat="40.37671752916326" lon="9.596748594353967"><ele>23.0</ele><time>2026-04-03T17:03:44Z</time></trkpt><trkpt lat="40.37686186570017" lon="9.596988538251047"><ele>23.5</ele><time>2026-04-03T17:03:45Z</time></trkpt><trkpt lat="40.377010018858805" lon="9.597228934563999"><ele>24.0</ele><time>2026-04-03T17:03:46Z</time></trkpt><trkpt lat="40.3771625635951" lon="9.597467605557917"><ele>23.5</ele><time>2026-04-03T17:03:46.999Z</time></trkpt><trkpt lat="40.377316493811826" lon="9.597707605631019"><ele>23.0</ele><time>2026-04-03T17:03:47.999Z</time></trkpt><trkpt lat="40.377468928623074" lon="9.597952132108249"><ele>23.0</ele><time>2026-04-03T17:03:48.999Z</time></trkpt><trkpt lat="40.377616239939805" lon="9.598196949846788"><ele>23.0</ele><time>2026-04-03T17:03:49.999Z</time></trkpt><trkpt lat="40.37776553162866" lon="9.598441494055391"><ele>23.0</ele><time>2026-04-03T17:03:50.999Z</time></trkpt><trkpt lat="40.377917116356166" lon="9.598683191882893"><ele>23.0</ele><time>2026-04-03T17:03:51.999Z</time></trkpt><trkpt lat="40.3780666225769" lon="9.598922127411377"><ele>22.0</ele><time>2026-04-03T17:03:52.999Z</time></trkpt><trkpt lat="40.37821482425065" lon="9.599161841444772"><ele>21.0</ele><time>2026-04-03T17:03:53.999Z</time></trkpt><trkpt lat="40.37836481238751" lon="9.599402296906671"><ele>20.5</ele><time>2026-04-03T17:03:54.999Z</time></trkpt><trkpt lat="40.37851182504644" lon="9.59964189747186"><ele>20.0</ele><time>2026-04-03T17:03:55.999Z</time></trkpt><trkpt lat="40.37865910715036" lon="9.59988228824721"><ele>20.0</ele><time>2026-04-03T17:03:56.999Z</time></trkpt><trkpt lat="40.37881024851073" lon="9.600120068752366"><ele>20.0</ele><time>2026-04-03T17:03:57.999Z</time></trkpt><trkpt lat="40.37895902429233" lon="9.600357686724145"><ele>18.0</ele><time>2026-04-03T17:03:58.999Z</time></trkpt><trkpt lat="40.379109042170064" lon="9.600597807615562"><ele>16.0</ele><time>2026-04-03T17:03:59.999Z</time></trkpt><trkpt lat="40.37925602894263" lon="9.600835461351913"><ele>16.0</ele><time>2026-04-03T17:04:00.999Z</time></trkpt><trkpt lat="40.37940112791498" lon="9.6010695848942"><ele>16.0</ele><time>2026-04-03T17:04:01.999Z</time></trkpt><trkpt lat="40.37953000171942" lon="9.601292369717422"><ele>16.0</ele><time>2026-04-03T17:04:02.999Z</time></trkpt><trkpt lat="40.379653328696804" lon="9.601504499934734"><ele>16.666666666666664</ele><time>2026-04-03T17:04:03.999Z</time></trkpt><trkpt lat="40.37976763297926" lon="9.601721523629807"><ele>17.333333333333332</ele><time>2026-04-03T17:04:04.999Z</time></trkpt><trkpt lat="40.37985219766571" lon="9.60193980942571"><ele>18.0</ele><time>2026-04-03T17:04:05.999Z</time></trkpt><trkpt lat="40.379921567200434" lon="9.60217008379111"><ele>18.0</ele><time>2026-04-03T17:04:06.999Z</time></trkpt><trkpt lat="40.37996632663002" lon="9.602410962771998"><ele>18.0</ele><time>2026-04-03T17:04:07.999Z</time></trkpt><trkpt lat="40.37998667297599" lon="9.602660766835784"><ele>18.0</ele><time>2026-04-03T17:04:08.999Z</time></trkpt><trkpt lat="40.3799896452396" lon="9.602909008645865"><ele>18.333333333333332</ele><time>2026-04-03T17:04:09.999Z</time></trkpt><trkpt lat="40.379984445601046" lon="9.603153068911313"><ele>18.666666666666664</ele><time>2026-04-03T17:04:10.999Z</time></trkpt><trkpt lat="40.3799748014005" lon="9.603401489024323"><ele>19.0</ele><time>2026-04-03T17:04:11.999Z</time></trkpt><trkpt lat="40.37996801320897" lon="9.603649503485288"><ele>19.0</ele><time>2026-04-03T17:04:12.999Z</time></trkpt><trkpt lat="40.37996679192881" lon="9.60389499742743"><ele>19.0</ele><time>2026-04-03T17:04:13.999Z</time></trkpt><trkpt lat="40.379978133693356" lon="9.60414130547337"><ele>19.0</ele><time>2026-04-03T17:04:14.999Z</time></trkpt><trkpt lat="40.380005944032376" lon="9.604382013447562"><ele>19.666666666666664</ele><time>2026-04-03T17:04:15.999Z</time></trkpt><trkpt lat="40.38005303980289" lon="9.604620959865764"><ele>20.333333333333332</ele><time>2026-04-03T17:04:16.999Z</time></trkpt><trkpt lat="40.38012167664365" lon="9.604848633675235"><ele>21.0</ele><time>2026-04-03T17:04:17.999Z</time></trkpt><trkpt lat="40.38021004178848" lon="9.605064047668854"><ele>21.0</ele><time>2026-04-03T17:04:18.999Z</time></trkpt><trkpt lat="40.380317692504946" lon="9.605262953264257"><ele>21.0</ele><time>2026-04-03T17:04:19.999Z</time></trkpt><trkpt lat="40.380432860450846" lon="9.605445091048281"><ele>21.0</ele><time>2026-04-03T17:04:20.999Z</time></trkpt><trkpt lat="40.38056061160862" lon="9.605615539607303"><ele>22.333333333333336</ele><time>2026-04-03T17:04:21.999Z</time></trkpt><trkpt lat="40.38068653030558" lon="9.60578363130942"><ele>23.666666666666668</ele><time>2026-04-03T17:04:22.999Z</time></trkpt><trkpt lat="40.38080608087881" lon="9.605958063037843"><ele>25.0</ele><time>2026-04-03T17:04:23.999Z</time></trkpt><trkpt lat="40.380926177479935" lon="9.606133288918912"><ele>25.666666666666668</ele><time>2026-04-03T17:04:24.999Z</time></trkpt><trkpt lat="40.381045126779476" lon="9.606305317301128"><ele>26.333333333333336</ele><time>2026-04-03T17:04:25.999Z</time></trkpt><trkpt lat="40.38117095233065" lon="9.606471973538287"><ele>27.0</ele><time>2026-04-03T17:04:26.999Z</time></trkpt><trkpt lat="40.38130025579692" lon="9.606638569867792"><ele>26.0</ele><time>2026-04-03T17:04:27.999Z</time></trkpt><trkpt lat="40.38142832559726" lon="9.606802390553112"><ele>25.0</ele><time>2026-04-03T17:04:28.999Z</time></trkpt><trkpt lat="40.381558249480136" lon="9.60696542296719"><ele>24.0</ele><time>2026-04-03T17:04:29.999Z</time></trkpt><trkpt lat="40.38168875285655" lon="9.607121945824467"><ele>24.0</ele><time>2026-04-03T17:04:30.999Z</time></trkpt><trkpt lat="40.3818233299955" lon="9.607275840938867"><ele>24.0</ele><time>2026-04-03T17:04:31.999Z</time></trkpt><trkpt lat="40.38196286430418" lon="9.607435188071703"><ele>24.0</ele><time>2026-04-03T17:04:33Z</time></trkpt><trkpt lat="40.38209673337178" lon="9.607589547503082"><ele>23.0</ele><time>2026-04-03T17:04:34Z</time></trkpt><trkpt lat="40.382226901641275" lon="9.60773567939703"><ele>22.0</ele><time>2026-04-03T17:04:35Z</time></trkpt><trkpt lat="40.38235238253564" lon="9.607872222431515"><ele>21.0</ele><time>2026-04-03T17:04:36Z</time></trkpt><trkpt lat="40.38247845713156" lon="9.608006160778062"><ele>20.666666666666668</ele><time>2026-04-03T17:04:37Z</time></trkpt><trkpt lat="40.38261126446244" lon="9.608139782941635"><ele>20.333333333333336</ele><time>2026-04-03T17:04:38Z</time></trkpt><trkpt lat="40.38274223436765" lon="9.608270495550537"><ele>20.0</ele><time>2026-04-03T17:04:39Z</time></trkpt><trkpt lat="40.38287960730535" lon="9.608404640267477"><ele>19.0</ele><time>2026-04-03T17:04:40Z</time></trkpt><trkpt lat="40.38301709192721" lon="9.608536360504267"><ele>18.0</ele><time>2026-04-03T17:04:41Z</time></trkpt><trkpt lat="40.38315348243372" lon="9.608663896923238"><ele>17.0</ele><time>2026-04-03T17:04:42Z</time></trkpt><trkpt lat="40.38328596566784" lon="9.608794952111502"><ele>17.0</ele><time>2026-04-03T17:04:43Z</time></trkpt><trkpt lat="40.38340768860953" lon="9.60891571798776"><ele>17.0</ele><time>2026-04-03T17:04:44Z</time></trkpt><trkpt lat="40.38351617933541" lon="9.60902732441855"><ele>17.0</ele><time>2026-04-03T17:04:45Z</time></trkpt><trkpt lat="40.38361603129996" lon="9.6091277019895"><ele>17.0</ele><time>2026-04-03T17:04:46Z</time></trkpt><trkpt lat="40.38369854124412" lon="9.609210718372854"><ele>17.0</ele><time>2026-04-03T17:04:47Z</time></trkpt><trkpt lat="40.383761114319924" lon="9.60926970904119"><ele>17.0</ele><time>2026-04-03T17:04:48Z</time></trkpt><trkpt lat="40.38381794790936" lon="9.609322847158603"><ele>17.0</ele><time>2026-04-03T17:04:49Z</time></trkpt><trkpt lat="40.38388760829704" lon="9.609386417668896"><ele>17.0</ele><time>2026-04-03T17:04:50Z</time></trkpt><trkpt lat="40.383960033670924" lon="9.609459327327528"><ele>17.0</ele><time>2026-04-03T17:04:51Z</time></trkpt><trkpt lat="40.38403186620636" lon="9.609531232032735"><ele>17.0</ele><time>2026-04-03T17:04:52Z</time></trkpt><trkpt lat="40.38410492886904" lon="9.609599936828111"><ele>16.8</ele><time>2026-04-03T17:04:53Z</time></trkpt><trkpt lat="40.384181362414495" lon="9.609679100618777"><ele>16.6</ele><time>2026-04-03T17:04:54Z</time></trkpt><trkpt lat="40.38425927418877" lon="9.609755003249536"><ele>16.400000000000002</ele><time>2026-04-03T17:04:55Z</time></trkpt><trkpt lat="40.38433939031888" lon="9.609831581235666"><ele>16.2</ele><time>2026-04-03T17:04:56Z</time></trkpt><trkpt lat="40.38441766148726" lon="9.609907581757394"><ele>16.0</ele><time>2026-04-03T17:04:57Z</time></trkpt><trkpt lat="40.38450143067189" lon="9.609984002251695"><ele>16.0</ele><time>2026-04-03T17:04:58Z</time></trkpt><trkpt lat="40.384586133578665" lon="9.610060529240648"><ele>16.0</ele><time>2026-04-03T17:04:59Z</time></trkpt><trkpt lat="40.38467100852033" lon="9.61014328926258"><ele>16.0</ele><time>2026-04-03T17:05:00Z</time></trkpt><trkpt lat="40.38475630377702" lon="9.610227075657138"><ele>16.0</ele><time>2026-04-03T17:05:01Z</time></trkpt><trkpt lat="40.38484841561475" lon="9.610308463612288"><ele>16.0</ele><time>2026-04-03T17:05:02Z</time></trkpt><trkpt lat="40.384940911097004" lon="9.61039618841685"><ele>16.25</ele><time>2026-04-03T17:05:03Z</time></trkpt><trkpt lat="40.38503069058924" lon="9.610482933618702"><ele>16.5</ele><time>2026-04-03T17:05:04Z</time></trkpt><trkpt lat="40.38512708884906" lon="9.610576938504975"><ele>16.75</ele><time>2026-04-03T17:05:05Z</time></trkpt><trkpt lat="40.385220219200285" lon="9.610675081235435"><ele>17.0</ele><time>2026-04-03T17:05:06Z</time></trkpt><trkpt lat="40.38531825938998" lon="9.610763484695683"><ele>17.0</ele><time>2026-04-03T17:05:07Z</time></trkpt><trkpt lat="40.385416323097736" lon="9.61084998476889"><ele>17.0</ele><time>2026-04-03T17:05:08Z</time></trkpt><trkpt lat="40.3855206776059" lon="9.610942325470372"><ele>17.0</ele><time>2026-04-03T17:05:09Z</time></trkpt><trkpt lat="40.385617851933006" lon="9.611039077141381"><ele>17.0</ele><time>2026-04-03T17:05:10Z</time></trkpt><trkpt lat="40.385699052366704" lon="9.611128024537265"><ele>16.833333333333336</ele><time>2026-04-03T17:05:11Z</time></trkpt><trkpt lat="40.38577577774233" lon="9.611203120760534"><ele>16.666666666666668</ele><time>2026-04-03T17:05:12Z</time></trkpt><trkpt lat="40.38583246540693" lon="9.611256743315405"><ele>16.5</ele><time>2026-04-03T17:05:13Z</time></trkpt><trkpt lat="40.38584336011055" lon="9.611351633089015"><ele>16.333333333333332</ele><time>2026-04-03T17:05:15Z</time></trkpt><trkpt lat="40.3857966403266" lon="9.611433762059091"><ele>16.166666666666664</ele><time>2026-04-03T17:05:17Z</time></trkpt><trkpt lat="40.38572183893689" lon="9.611571884411841"><ele>16.0</ele><time>2026-04-03T17:05:19Z</time></trkpt><trkpt lat="40.38567282584558" lon="9.611658267293434"><ele>15.999999999999998</ele><time>2026-04-03T17:05:20Z</time></trkpt><trkpt lat="40.385609145236096" lon="9.611733396180064"><ele>16.0</ele><time>2026-04-03T17:05:21Z</time></trkpt><trkpt lat="40.38553427243474" lon="9.611791389619915"><ele>16.0</ele><time>2026-04-03T17:05:22Z</time></trkpt><trkpt lat="40.38544903242332" lon="9.611832078359141"><ele>16.0</ele><time>2026-04-03T17:05:23Z</time></trkpt><trkpt lat="40.38537075818336" lon="9.611895391064857"><ele>15.999999999999998</ele><time>2026-04-03T17:05:24Z</time></trkpt><trkpt lat="40.38529484940176" lon="9.61196680075172"><ele>16.0</ele><time>2026-04-03T17:05:25Z</time></trkpt><trkpt lat="40.385207701667326" lon="9.612010498280478"><ele>15.999999999999998</ele><time>2026-04-03T17:05:26Z</time></trkpt><trkpt lat="40.38511451945104" lon="9.612014823220182"><ele>16.0</ele><time>2026-04-03T17:05:27Z</time></trkpt><trkpt lat="40.3850275509806" lon="9.612031416778288"><ele>16.0</ele><time>2026-04-03T17:05:28Z</time></trkpt><trkpt lat="40.384952544182184" lon="9.612080830987567"><ele>16.0</ele><time>2026-04-03T17:05:29Z</time></trkpt><trkpt lat="40.3849019051494" lon="9.61214700128453"><ele>15.999999999999998</ele><time>2026-04-03T17:05:30Z</time></trkpt><trkpt lat="40.38487238932916" lon="9.612240502436787"><ele>16.0</ele><time>2026-04-03T17:05:31Z</time></trkpt><trkpt lat="40.384869223121605" lon="9.612342631715919"><ele>16.0</ele><time>2026-04-03T17:05:32Z</time></trkpt><trkpt lat="40.384898579160016" lon="9.612433828075444"><ele>15.999999999999998</ele><time>2026-04-03T17:05:33Z</time></trkpt><trkpt lat="40.38494477321318" lon="9.612510035478467"><ele>16.0</ele><time>2026-04-03T17:05:34Z</time></trkpt><trkpt lat="40.3849880985836" lon="9.612584525109714"><ele>16.0</ele><time>2026-04-03T17:05:35Z</time></trkpt><trkpt lat="40.385030326334736" lon="9.612663568086528"><ele>15.999999999999998</ele><time>2026-04-03T17:05:36Z</time></trkpt><trkpt lat="40.385071023649324" lon="9.612740756858567"><ele>16.0</ele><time>2026-04-03T17:05:37Z</time></trkpt><trkpt lat="40.38512033538533" lon="9.612820327739529"><ele>16.0</ele><time>2026-04-03T17:05:38Z</time></trkpt><trkpt lat="40.38516532650024" lon="9.612904245725042"><ele>16.833333333333332</ele><time>2026-04-03T17:05:39Z</time></trkpt><trkpt lat="40.38521692204566" lon="9.612988299737191"><ele>17.666666666666664</ele><time>2026-04-03T17:05:40Z</time></trkpt><trkpt lat="40.38527122808537" lon="9.613070950176137"><ele>18.5</ele><time>2026-04-03T17:05:41Z</time></trkpt><trkpt lat="40.38532187971931" lon="9.613159249241884"><ele>19.333333333333332</ele><time>2026-04-03T17:05:42Z</time></trkpt><trkpt lat="40.38535036055258" lon="9.613262232439753"><ele>20.166666666666668</ele><time>2026-04-03T17:05:43Z</time></trkpt><trkpt lat="40.385358396672366" lon="9.613374346620576"><ele>21.0</ele><time>2026-04-03T17:05:44Z</time></trkpt><trkpt lat="40.385344415888746" lon="9.613483814024598"><ele>21.0</ele><time>2026-04-03T17:05:45Z</time></trkpt><trkpt lat="40.38532233599808" lon="9.613593724422625"><ele>21.0</ele><time>2026-04-03T17:05:46Z</time></trkpt><trkpt lat="40.38530915118464" lon="9.613697603158265"><ele>21.0</ele><time>2026-04-03T17:05:47Z</time></trkpt><trkpt lat="40.385298151564974" lon="9.613791625976454"><ele>21.0</ele><time>2026-04-03T17:05:48Z</time></trkpt><trkpt lat="40.385285485491586" lon="9.61390850208978"><ele>21.0</ele><time>2026-04-03T17:05:49Z</time></trkpt><trkpt lat="40.38528206685571" lon="9.614026599263404"><ele>21.0</ele><time>2026-04-03T17:05:50Z</time></trkpt><trkpt lat="40.38529338835977" lon="9.61414615691591"><ele>22.0</ele><time>2026-04-03T17:05:51Z</time></trkpt><trkpt lat="40.38530741000723" lon="9.6142584819538"><ele>23.0</ele><time>2026-04-03T17:05:52Z</time></trkpt><trkpt lat="40.38532302733435" lon="9.614376598801183"><ele>24.0</ele><time>2026-04-03T17:05:53Z</time></trkpt><trkpt lat="40.385333798082534" lon="9.614490712294602"><ele>25.0</ele><time>2026-04-03T17:05:54Z</time></trkpt><trkpt lat="40.38535134338264" lon="9.614600198171594"><ele>26.0</ele><time>2026-04-03T17:05:55Z</time></trkpt><trkpt lat="40.38536590463375" lon="9.614709027722526"><ele>27.0</ele><time>2026-04-03T17:05:56Z</time></trkpt><trkpt lat="40.38537084971022" lon="9.614805772419"><ele>27.428571428571427</ele><time>2026-04-03T17:05:57Z</time></trkpt><trkpt lat="40.38537772286988" lon="9.614905159679928"><ele>27.857142857142854</ele><time>2026-04-03T17:05:58Z</time></trkpt><trkpt lat="40.385388964705946" lon="9.615007159515201"><ele>28.285714285714285</ele><time>2026-04-03T17:05:59Z</time></trkpt><trkpt lat="40.385407980375625" lon="9.615107068197581"><ele>28.714285714285715</ele><time>2026-04-03T17:06:00Z</time></trkpt><trkpt lat="40.385431110272684" lon="9.615197678241056"><ele>29.142857142857142</ele><time>2026-04-03T17:06:01Z</time></trkpt><trkpt lat="40.385460172032985" lon="9.615284478719524"><ele>29.571428571428573</ele><time>2026-04-03T17:06:02Z</time></trkpt><trkpt lat="40.38550089534127" lon="9.615360936038416"><ele>30.0</ele><time>2026-04-03T17:06:03Z</time></trkpt><trkpt lat="40.3855461177722" lon="9.61542917597274"><ele>31.166666666666668</ele><time>2026-04-03T17:06:04Z</time></trkpt><trkpt lat="40.38559126217646" lon="9.615498912880197"><ele>32.333333333333336</ele><time>2026-04-03T17:06:05Z</time></trkpt><trkpt lat="40.385631857218925" lon="9.615565826714036"><ele>33.5</ele><time>2026-04-03T17:06:06Z</time></trkpt><trkpt lat="40.385712069436295" lon="9.615674595744917"><ele>34.66666666666667</ele><time>2026-04-03T17:06:08Z</time></trkpt><trkpt lat="40.38576441008658" lon="9.61576548753514"><ele>35.833333333333336</ele><time>2026-04-03T17:06:09.999Z</time></trkpt><trkpt lat="40.38579599911593" lon="9.615863246192362"><ele>37.0</ele><time>2026-04-03T17:06:12.999Z</time></trkpt><trkpt lat="40.38582627994799" lon="9.615982602030536"><ele>37.0</ele><time>2026-04-03T17:06:15.999Z</time></trkpt><trkpt lat="40.38583952202984" lon="9.616090427340472"><ele>37.0</ele><time>2026-04-03T17:06:35.999Z</time></trkpt><trkpt lat="40.3859148643138" lon="9.616115103606836"><ele>37.0</ele><time>2026-04-03T17:06:37.999Z</time></trkpt><trkpt lat="40.38597319363207" lon="9.61615674702517"><ele>37.0</ele><time>2026-04-03T17:06:40Z</time></trkpt><trkpt lat="40.38602635147321" lon="9.616201750786479"><ele>37.0</ele><time>2026-04-03T17:06:48Z</time></trkpt><trkpt lat="40.38608919606116" lon="9.616248566810413"><ele>37.0</ele><time>2026-04-03T17:11:07Z</time></trkpt><trkpt lat="40.38605387693743" lon="9.616331256280942"><ele>37.0</ele><time>2026-04-03T17:14:06Z</time></trkpt><trkpt lat="40.38602767309514" lon="9.616438680759636"><ele>44.0</ele><time>2026-04-03T17:14:12Z</time></trkpt><trkpt lat="40.386066323759856" lon="9.616322801922404"><ele>44.0</ele><time>2026-04-03T17:14:42.999Z</time></trkpt><trkpt lat="40.38608477750956" lon="9.616426297849728"><ele>44.0</ele><time>2026-04-03T17:19:54Z</time></trkpt><trkpt lat="40.38600983077371" lon="9.61633589778151"><ele>44.0</ele><time>2026-04-03T17:21:13.999Z</time></trkpt><trkpt lat="40.386032743331164" lon="9.616444400872126"><ele>44.0</ele><time>2026-04-03T17:22:51.999Z</time></trkpt><trkpt lat="40.38600643432528" lon="9.616359968883184"><ele>44.0</ele><time>2026-04-03T17:22:56.999Z</time></trkpt></trkseg></trk></gpx>